<?xml version="1.0" encoding="UTF-8"?>
<gpx creator="StravaGPX" version="1.1" xmlns="http://www.topografix.com/GPX/1/1" xmlns:xsi="http://www.w3.org/2001/XMLSchema-instance" xsi:schemaLocation="http://www.topografix.com/GPX/1/1 http://www.topografix.com/GPX/1/1/gpx.xsd">
 <metadata>
  <time>2026-06-23T09:19:19Z</time>
 </metadata>
 <trk>
  <name>Day 4/5 (part 2) Team Kilimanjaro 🏔️🫶🇹🇿 (Umbwe route)</name>
  <type>hiking</type>
  <trkseg>
   <trkpt lat="-3.1014270" lon="37.3786550">
    <ele>4617.0</ele>
    <time>2026-06-23T09:19:19Z</time>
   </trkpt>
   <trkpt lat="-3.1014250" lon="37.3786520">
    <ele>4617.0</ele>
    <time>2026-06-23T09:19:20Z</time>
   </trkpt>
   <trkpt lat="-3.1014280" lon="37.3786460">
    <ele>4616.9</ele>
    <time>2026-06-23T09:19:21Z</time>
   </trkpt>
   <trkpt lat="-3.1014300" lon="37.3786410">
    <ele>4616.8</ele>
    <time>2026-06-23T09:19:22Z</time>
   </trkpt>
   <trkpt lat="-3.1014340" lon="37.3786360">
    <ele>4616.8</ele>
    <time>2026-06-23T09:19:23Z</time>
   </trkpt>
   <trkpt lat="-3.1014350" lon="37.3786320">
    <ele>4616.7</ele>
    <time>2026-06-23T09:19:24Z</time>
   </trkpt>
   <trkpt lat="-3.1014380" lon="37.3786280">
    <ele>4616.6</ele>
    <time>2026-06-23T09:19:25Z</time>
   </trkpt>
   <trkpt lat="-3.1014460" lon="37.3786210">
    <ele>4616.5</ele>
    <time>2026-06-23T09:19:26Z</time>
   </trkpt>
   <trkpt lat="-3.1014480" lon="37.3786230">
    <ele>4616.5</ele>
    <time>2026-06-23T09:19:27Z</time>
   </trkpt>
   <trkpt lat="-3.1014490" lon="37.3786210">
    <ele>4616.4</ele>
    <time>2026-06-23T09:19:28Z</time>
   </trkpt>
   <trkpt lat="-3.1014500" lon="37.3786190">
    <ele>4616.4</ele>
    <time>2026-06-23T09:19:29Z</time>
   </trkpt>
   <trkpt lat="-3.1014490" lon="37.3786140">
    <ele>4616.4</ele>
    <time>2026-06-23T09:19:30Z</time>
   </trkpt>
   <trkpt lat="-3.1014510" lon="37.3786100">
    <ele>4616.3</ele>
    <time>2026-06-23T09:19:31Z</time>
   </trkpt>
   <trkpt lat="-3.1014510" lon="37.3786100">
    <ele>4616.3</ele>
    <time>2026-06-23T09:19:32Z</time>
   </trkpt>
   <trkpt lat="-3.1014520" lon="37.3786120">
    <ele>4616.3</ele>
    <time>2026-06-23T09:19:33Z</time>
   </trkpt>
   <trkpt lat="-3.1014520" lon="37.3786130">
    <ele>4616.2</ele>
    <time>2026-06-23T09:19:34Z</time>
   </trkpt>
   <trkpt lat="-3.1014510" lon="37.3786140">
    <ele>4616.2</ele>
    <time>2026-06-23T09:19:35Z</time>
   </trkpt>
   <trkpt lat="-3.1014480" lon="37.3786160">
    <ele>4616.2</ele>
    <time>2026-06-23T09:19:36Z</time>
   </trkpt>
   <trkpt lat="-3.1014480" lon="37.3786170">
    <ele>4616.2</ele>
    <time>2026-06-23T09:19:37Z</time>
   </trkpt>
   <trkpt lat="-3.1014510" lon="37.3786230">
    <ele>4616.1</ele>
    <time>2026-06-23T09:19:38Z</time>
   </trkpt>
   <trkpt lat="-3.1014520" lon="37.3786150">
    <ele>4616.0</ele>
    <time>2026-06-23T09:19:39Z</time>
   </trkpt>
   <trkpt lat="-3.1014540" lon="37.3786140">
    <ele>4615.9</ele>
    <time>2026-06-23T09:19:40Z</time>
   </trkpt>
   <trkpt lat="-3.1014520" lon="37.3786150">
    <ele>4615.9</ele>
    <time>2026-06-23T09:19:41Z</time>
   </trkpt>
   <trkpt lat="-3.1014520" lon="37.3786170">
    <ele>4615.9</ele>
    <time>2026-06-23T09:19:42Z</time>
   </trkpt>
   <trkpt lat="-3.1014520" lon="37.3786180">
    <ele>4615.9</ele>
    <time>2026-06-23T09:19:43Z</time>
   </trkpt>
   <trkpt lat="-3.1014490" lon="37.3786150">
    <ele>4615.8</ele>
    <time>2026-06-23T09:19:44Z</time>
   </trkpt>
   <trkpt lat="-3.1014490" lon="37.3786140">
    <ele>4615.8</ele>
    <time>2026-06-23T09:19:45Z</time>
   </trkpt>
   <trkpt lat="-3.1014500" lon="37.3786170">
    <ele>4615.7</ele>
    <time>2026-06-23T09:19:46Z</time>
   </trkpt>
   <trkpt lat="-3.1014470" lon="37.3786140">
    <ele>4615.7</ele>
    <time>2026-06-23T09:19:47Z</time>
   </trkpt>
   <trkpt lat="-3.1014490" lon="37.3786160">
    <ele>4615.6</ele>
    <time>2026-06-23T09:19:48Z</time>
   </trkpt>
   <trkpt lat="-3.1014420" lon="37.3786130">
    <ele>4615.5</ele>
    <time>2026-06-23T09:19:49Z</time>
   </trkpt>
   <trkpt lat="-3.1014390" lon="37.3786120">
    <ele>4615.5</ele>
    <time>2026-06-23T09:19:50Z</time>
   </trkpt>
   <trkpt lat="-3.1014370" lon="37.3786080">
    <ele>4615.4</ele>
    <time>2026-06-23T09:19:51Z</time>
   </trkpt>
   <trkpt lat="-3.1014420" lon="37.3786090">
    <ele>4615.4</ele>
    <time>2026-06-23T09:19:52Z</time>
   </trkpt>
   <trkpt lat="-3.1014470" lon="37.3786080">
    <ele>4615.3</ele>
    <time>2026-06-23T09:19:53Z</time>
   </trkpt>
   <trkpt lat="-3.1014490" lon="37.3786050">
    <ele>4615.2</ele>
    <time>2026-06-23T09:19:54Z</time>
   </trkpt>
   <trkpt lat="-3.1014490" lon="37.3786050">
    <ele>4615.2</ele>
    <time>2026-06-23T09:19:55Z</time>
   </trkpt>
   <trkpt lat="-3.1014500" lon="37.3786030">
    <ele>4615.2</ele>
    <time>2026-06-23T09:19:56Z</time>
   </trkpt>
   <trkpt lat="-3.1014500" lon="37.3786050">
    <ele>4615.2</ele>
    <time>2026-06-23T09:19:57Z</time>
   </trkpt>
   <trkpt lat="-3.1014460" lon="37.3786070">
    <ele>4615.1</ele>
    <time>2026-06-23T09:19:58Z</time>
   </trkpt>
   <trkpt lat="-3.1014430" lon="37.3786070">
    <ele>4615.1</ele>
    <time>2026-06-23T09:19:59Z</time>
   </trkpt>
   <trkpt lat="-3.1014430" lon="37.3786070">
    <ele>4615.1</ele>
    <time>2026-06-23T09:20:00Z</time>
   </trkpt>
   <trkpt lat="-3.1014390" lon="37.3786070">
    <ele>4615.0</ele>
    <time>2026-06-23T09:20:01Z</time>
   </trkpt>
   <trkpt lat="-3.1014390" lon="37.3786080">
    <ele>4615.0</ele>
    <time>2026-06-23T09:20:02Z</time>
   </trkpt>
   <trkpt lat="-3.1014390" lon="37.3786080">
    <ele>4615.0</ele>
    <time>2026-06-23T09:20:03Z</time>
   </trkpt>
   <trkpt lat="-3.1014390" lon="37.3786080">
    <ele>4615.0</ele>
    <time>2026-06-23T09:20:04Z</time>
   </trkpt>
   <trkpt lat="-3.1014410" lon="37.3786080">
    <ele>4615.0</ele>
    <time>2026-06-23T09:20:05Z</time>
   </trkpt>
   <trkpt lat="-3.1014430" lon="37.3786070">
    <ele>4615.0</ele>
    <time>2026-06-23T09:20:06Z</time>
   </trkpt>
   <trkpt lat="-3.1014420" lon="37.3786070">
    <ele>4614.9</ele>
    <time>2026-06-23T09:20:07Z</time>
   </trkpt>
   <trkpt lat="-3.1014430" lon="37.3786070">
    <ele>4614.9</ele>
    <time>2026-06-23T09:20:08Z</time>
   </trkpt>
   <trkpt lat="-3.1014450" lon="37.3786080">
    <ele>4614.9</ele>
    <time>2026-06-23T09:20:09Z</time>
   </trkpt>
   <trkpt lat="-3.1014470" lon="37.3786100">
    <ele>4614.9</ele>
    <time>2026-06-23T09:20:10Z</time>
   </trkpt>
   <trkpt lat="-3.1014520" lon="37.3786080">
    <ele>4614.8</ele>
    <time>2026-06-23T09:20:11Z</time>
   </trkpt>
   <trkpt lat="-3.1014520" lon="37.3786080">
    <ele>4614.8</ele>
    <time>2026-06-23T09:20:12Z</time>
   </trkpt>
   <trkpt lat="-3.1014540" lon="37.3786100">
    <ele>4614.7</ele>
    <time>2026-06-23T09:20:13Z</time>
   </trkpt>
   <trkpt lat="-3.1014560" lon="37.3786110">
    <ele>4614.7</ele>
    <time>2026-06-23T09:20:14Z</time>
   </trkpt>
   <trkpt lat="-3.1014560" lon="37.3786120">
    <ele>4614.7</ele>
    <time>2026-06-23T09:20:15Z</time>
   </trkpt>
   <trkpt lat="-3.1014560" lon="37.3786160">
    <ele>4614.7</ele>
    <time>2026-06-23T09:20:16Z</time>
   </trkpt>
   <trkpt lat="-3.1014600" lon="37.3786210">
    <ele>4614.6</ele>
    <time>2026-06-23T09:20:17Z</time>
   </trkpt>
   <trkpt lat="-3.1014640" lon="37.3786210">
    <ele>4614.5</ele>
    <time>2026-06-23T09:20:18Z</time>
   </trkpt>
   <trkpt lat="-3.1014620" lon="37.3786190">
    <ele>4614.5</ele>
    <time>2026-06-23T09:20:19Z</time>
   </trkpt>
   <trkpt lat="-3.1014610" lon="37.3786160">
    <ele>4614.4</ele>
    <time>2026-06-23T09:20:20Z</time>
   </trkpt>
   <trkpt lat="-3.1014620" lon="37.3786160">
    <ele>4614.4</ele>
    <time>2026-06-23T09:20:21Z</time>
   </trkpt>
   <trkpt lat="-3.1014580" lon="37.3786170">
    <ele>4614.4</ele>
    <time>2026-06-23T09:20:22Z</time>
   </trkpt>
   <trkpt lat="-3.1014580" lon="37.3786180">
    <ele>4614.3</ele>
    <time>2026-06-23T09:20:23Z</time>
   </trkpt>
   <trkpt lat="-3.1014590" lon="37.3786190">
    <ele>4614.3</ele>
    <time>2026-06-23T09:20:24Z</time>
   </trkpt>
   <trkpt lat="-3.1014590" lon="37.3786200">
    <ele>4614.3</ele>
    <time>2026-06-23T09:20:25Z</time>
   </trkpt>
   <trkpt lat="-3.1014560" lon="37.3786220">
    <ele>4614.3</ele>
    <time>2026-06-23T09:20:26Z</time>
   </trkpt>
   <trkpt lat="-3.1014560" lon="37.3786250">
    <ele>4614.2</ele>
    <time>2026-06-23T09:20:27Z</time>
   </trkpt>
   <trkpt lat="-3.1014590" lon="37.3786240">
    <ele>4614.2</ele>
    <time>2026-06-23T09:20:28Z</time>
   </trkpt>
   <trkpt lat="-3.1014590" lon="37.3786260">
    <ele>4614.1</ele>
    <time>2026-06-23T09:20:29Z</time>
   </trkpt>
   <trkpt lat="-3.1014580" lon="37.3786210">
    <ele>4614.1</ele>
    <time>2026-06-23T09:20:30Z</time>
   </trkpt>
   <trkpt lat="-3.1014590" lon="37.3786210">
    <ele>4614.1</ele>
    <time>2026-06-23T09:20:31Z</time>
   </trkpt>
   <trkpt lat="-3.1014590" lon="37.3786210">
    <ele>4614.1</ele>
    <time>2026-06-23T09:20:32Z</time>
   </trkpt>
   <trkpt lat="-3.1014560" lon="37.3786180">
    <ele>4614.0</ele>
    <time>2026-06-23T09:20:33Z</time>
   </trkpt>
   <trkpt lat="-3.1014560" lon="37.3786180">
    <ele>4614.0</ele>
    <time>2026-06-23T09:20:34Z</time>
   </trkpt>
   <trkpt lat="-3.1014560" lon="37.3786180">
    <ele>4614.0</ele>
    <time>2026-06-23T09:20:35Z</time>
   </trkpt>
   <trkpt lat="-3.1014560" lon="37.3786180">
    <ele>4614.0</ele>
    <time>2026-06-23T09:20:36Z</time>
   </trkpt>
   <trkpt lat="-3.1014560" lon="37.3786180">
    <ele>4614.0</ele>
    <time>2026-06-23T09:20:37Z</time>
   </trkpt>
   <trkpt lat="-3.1014560" lon="37.3786180">
    <ele>4614.0</ele>
    <time>2026-06-23T09:20:38Z</time>
   </trkpt>
   <trkpt lat="-3.1014560" lon="37.3786180">
    <ele>4614.0</ele>
    <time>2026-06-23T09:20:39Z</time>
   </trkpt>
   <trkpt lat="-3.1014560" lon="37.3786180">
    <ele>4614.0</ele>
    <time>2026-06-23T09:20:40Z</time>
   </trkpt>
   <trkpt lat="-3.1014560" lon="37.3786180">
    <ele>4614.0</ele>
    <time>2026-06-23T09:20:41Z</time>
   </trkpt>
   <trkpt lat="-3.1014560" lon="37.3786180">
    <ele>4614.0</ele>
    <time>2026-06-23T09:20:42Z</time>
   </trkpt>
   <trkpt lat="-3.1014560" lon="37.3786180">
    <ele>4614.0</ele>
    <time>2026-06-23T09:20:43Z</time>
   </trkpt>
   <trkpt lat="-3.1014560" lon="37.3786180">
    <ele>4614.0</ele>
    <time>2026-06-23T09:20:44Z</time>
   </trkpt>
   <trkpt lat="-3.1014560" lon="37.3786180">
    <ele>4614.0</ele>
    <time>2026-06-23T09:20:45Z</time>
   </trkpt>
   <trkpt lat="-3.1014560" lon="37.3786180">
    <ele>4614.0</ele>
    <time>2026-06-23T09:20:46Z</time>
   </trkpt>
   <trkpt lat="-3.1014560" lon="37.3786180">
    <ele>4614.0</ele>
    <time>2026-06-23T09:20:47Z</time>
   </trkpt>
   <trkpt lat="-3.1014560" lon="37.3786180">
    <ele>4614.0</ele>
    <time>2026-06-23T09:20:48Z</time>
   </trkpt>
   <trkpt lat="-3.1014560" lon="37.3786180">
    <ele>4614.0</ele>
    <time>2026-06-23T09:20:49Z</time>
   </trkpt>
   <trkpt lat="-3.1014560" lon="37.3786180">
    <ele>4614.0</ele>
    <time>2026-06-23T09:20:50Z</time>
   </trkpt>
   <trkpt lat="-3.1014560" lon="37.3786180">
    <ele>4614.0</ele>
    <time>2026-06-23T09:20:51Z</time>
   </trkpt>
   <trkpt lat="-3.1014560" lon="37.3786180">
    <ele>4614.0</ele>
    <time>2026-06-23T09:20:52Z</time>
   </trkpt>
   <trkpt lat="-3.1014560" lon="37.3786180">
    <ele>4614.0</ele>
    <time>2026-06-23T09:20:53Z</time>
   </trkpt>
   <trkpt lat="-3.1014560" lon="37.3786180">
    <ele>4614.0</ele>
    <time>2026-06-23T09:20:54Z</time>
   </trkpt>
   <trkpt lat="-3.1014560" lon="37.3786180">
    <ele>4614.0</ele>
    <time>2026-06-23T09:20:55Z</time>
   </trkpt>
   <trkpt lat="-3.1014560" lon="37.3786180">
    <ele>4614.0</ele>
    <time>2026-06-23T09:20:56Z</time>
   </trkpt>
   <trkpt lat="-3.1014560" lon="37.3786180">
    <ele>4614.0</ele>
    <time>2026-06-23T09:20:57Z</time>
   </trkpt>
   <trkpt lat="-3.1014560" lon="37.3786180">
    <ele>4614.0</ele>
    <time>2026-06-23T09:20:58Z</time>
   </trkpt>
   <trkpt lat="-3.1014560" lon="37.3786180">
    <ele>4614.0</ele>
    <time>2026-06-23T09:20:59Z</time>
   </trkpt>
   <trkpt lat="-3.1014560" lon="37.3786180">
    <ele>4614.0</ele>
    <time>2026-06-23T09:21:00Z</time>
   </trkpt>
   <trkpt lat="-3.1014560" lon="37.3786180">
    <ele>4614.0</ele>
    <time>2026-06-23T09:21:01Z</time>
   </trkpt>
   <trkpt lat="-3.1014560" lon="37.3786180">
    <ele>4614.0</ele>
    <time>2026-06-23T09:21:02Z</time>
   </trkpt>
   <trkpt lat="-3.1014560" lon="37.3786180">
    <ele>4614.0</ele>
    <time>2026-06-23T09:21:03Z</time>
   </trkpt>
   <trkpt lat="-3.1014560" lon="37.3786180">
    <ele>4614.0</ele>
    <time>2026-06-23T09:21:04Z</time>
   </trkpt>
   <trkpt lat="-3.1014560" lon="37.3786180">
    <ele>4614.0</ele>
    <time>2026-06-23T09:21:05Z</time>
   </trkpt>
   <trkpt lat="-3.1014640" lon="37.3786110">
    <ele>4613.9</ele>
    <time>2026-06-23T09:21:06Z</time>
   </trkpt>
   <trkpt lat="-3.1014640" lon="37.3786120">
    <ele>4613.8</ele>
    <time>2026-06-23T09:21:07Z</time>
   </trkpt>
   <trkpt lat="-3.1014650" lon="37.3786070">
    <ele>4613.8</ele>
    <time>2026-06-23T09:21:08Z</time>
   </trkpt>
   <trkpt lat="-3.1014650" lon="37.3786070">
    <ele>4613.8</ele>
    <time>2026-06-23T09:21:09Z</time>
   </trkpt>
   <trkpt lat="-3.1014680" lon="37.3786090">
    <ele>4613.7</ele>
    <time>2026-06-23T09:21:10Z</time>
   </trkpt>
   <trkpt lat="-3.1014650" lon="37.3786110">
    <ele>4613.7</ele>
    <time>2026-06-23T09:21:11Z</time>
   </trkpt>
   <trkpt lat="-3.1014630" lon="37.3786080">
    <ele>4613.6</ele>
    <time>2026-06-23T09:21:12Z</time>
   </trkpt>
   <trkpt lat="-3.1014620" lon="37.3786060">
    <ele>4613.6</ele>
    <time>2026-06-23T09:21:13Z</time>
   </trkpt>
   <trkpt lat="-3.1014600" lon="37.3786070">
    <ele>4613.6</ele>
    <time>2026-06-23T09:21:14Z</time>
   </trkpt>
   <trkpt lat="-3.1014600" lon="37.3786070">
    <ele>4613.6</ele>
    <time>2026-06-23T09:21:15Z</time>
   </trkpt>
   <trkpt lat="-3.1014600" lon="37.3786060">
    <ele>4613.6</ele>
    <time>2026-06-23T09:21:16Z</time>
   </trkpt>
   <trkpt lat="-3.1014590" lon="37.3786080">
    <ele>4613.5</ele>
    <time>2026-06-23T09:21:17Z</time>
   </trkpt>
   <trkpt lat="-3.1014600" lon="37.3786100">
    <ele>4613.5</ele>
    <time>2026-06-23T09:21:18Z</time>
   </trkpt>
   <trkpt lat="-3.1014600" lon="37.3786100">
    <ele>4613.5</ele>
    <time>2026-06-23T09:21:19Z</time>
   </trkpt>
   <trkpt lat="-3.1014580" lon="37.3786120">
    <ele>4613.5</ele>
    <time>2026-06-23T09:21:20Z</time>
   </trkpt>
   <trkpt lat="-3.1014570" lon="37.3786140">
    <ele>4613.4</ele>
    <time>2026-06-23T09:21:21Z</time>
   </trkpt>
   <trkpt lat="-3.1014580" lon="37.3786150">
    <ele>4613.4</ele>
    <time>2026-06-23T09:21:22Z</time>
   </trkpt>
   <trkpt lat="-3.1014560" lon="37.3786130">
    <ele>4613.4</ele>
    <time>2026-06-23T09:21:23Z</time>
   </trkpt>
   <trkpt lat="-3.1014530" lon="37.3786150">
    <ele>4613.3</ele>
    <time>2026-06-23T09:21:24Z</time>
   </trkpt>
   <trkpt lat="-3.1014510" lon="37.3786140">
    <ele>4613.3</ele>
    <time>2026-06-23T09:21:25Z</time>
   </trkpt>
   <trkpt lat="-3.1014550" lon="37.3786170">
    <ele>4613.2</ele>
    <time>2026-06-23T09:21:26Z</time>
   </trkpt>
   <trkpt lat="-3.1014550" lon="37.3786170">
    <ele>4613.2</ele>
    <time>2026-06-23T09:21:27Z</time>
   </trkpt>
   <trkpt lat="-3.1014550" lon="37.3786170">
    <ele>4613.2</ele>
    <time>2026-06-23T09:21:28Z</time>
   </trkpt>
   <trkpt lat="-3.1014550" lon="37.3786170">
    <ele>4613.2</ele>
    <time>2026-06-23T09:21:29Z</time>
   </trkpt>
   <trkpt lat="-3.1014550" lon="37.3786170">
    <ele>4613.2</ele>
    <time>2026-06-23T09:21:30Z</time>
   </trkpt>
   <trkpt lat="-3.1014550" lon="37.3786170">
    <ele>4613.2</ele>
    <time>2026-06-23T09:21:31Z</time>
   </trkpt>
   <trkpt lat="-3.1014550" lon="37.3786170">
    <ele>4613.2</ele>
    <time>2026-06-23T09:21:32Z</time>
   </trkpt>
   <trkpt lat="-3.1014550" lon="37.3786130">
    <ele>4613.2</ele>
    <time>2026-06-23T09:21:33Z</time>
   </trkpt>
   <trkpt lat="-3.1014550" lon="37.3786130">
    <ele>4613.2</ele>
    <time>2026-06-23T09:21:34Z</time>
   </trkpt>
   <trkpt lat="-3.1014560" lon="37.3786110">
    <ele>4613.1</ele>
    <time>2026-06-23T09:21:35Z</time>
   </trkpt>
   <trkpt lat="-3.1014560" lon="37.3786090">
    <ele>4613.1</ele>
    <time>2026-06-23T09:21:36Z</time>
   </trkpt>
   <trkpt lat="-3.1014540" lon="37.3786100">
    <ele>4613.1</ele>
    <time>2026-06-23T09:21:37Z</time>
   </trkpt>
   <trkpt lat="-3.1014550" lon="37.3786080">
    <ele>4613.0</ele>
    <time>2026-06-23T09:21:38Z</time>
   </trkpt>
   <trkpt lat="-3.1014550" lon="37.3786080">
    <ele>4613.0</ele>
    <time>2026-06-23T09:21:39Z</time>
   </trkpt>
   <trkpt lat="-3.1014550" lon="37.3786080">
    <ele>4613.0</ele>
    <time>2026-06-23T09:21:40Z</time>
   </trkpt>
   <trkpt lat="-3.1014550" lon="37.3786080">
    <ele>4613.0</ele>
    <time>2026-06-23T09:21:41Z</time>
   </trkpt>
   <trkpt lat="-3.1014550" lon="37.3786080">
    <ele>4613.0</ele>
    <time>2026-06-23T09:21:42Z</time>
   </trkpt>
   <trkpt lat="-3.1014550" lon="37.3786080">
    <ele>4613.0</ele>
    <time>2026-06-23T09:21:43Z</time>
   </trkpt>
   <trkpt lat="-3.1014550" lon="37.3786080">
    <ele>4613.0</ele>
    <time>2026-06-23T09:21:44Z</time>
   </trkpt>
   <trkpt lat="-3.1014550" lon="37.3786080">
    <ele>4613.0</ele>
    <time>2026-06-23T09:21:45Z</time>
   </trkpt>
   <trkpt lat="-3.1014550" lon="37.3786080">
    <ele>4613.0</ele>
    <time>2026-06-23T09:21:46Z</time>
   </trkpt>
   <trkpt lat="-3.1014550" lon="37.3786080">
    <ele>4613.0</ele>
    <time>2026-06-23T09:21:47Z</time>
   </trkpt>
   <trkpt lat="-3.1014550" lon="37.3786080">
    <ele>4613.0</ele>
    <time>2026-06-23T09:21:48Z</time>
   </trkpt>
   <trkpt lat="-3.1014550" lon="37.3786080">
    <ele>4613.0</ele>
    <time>2026-06-23T09:21:49Z</time>
   </trkpt>
   <trkpt lat="-3.1014550" lon="37.3786080">
    <ele>4613.0</ele>
    <time>2026-06-23T09:21:50Z</time>
   </trkpt>
   <trkpt lat="-3.1014550" lon="37.3786080">
    <ele>4613.0</ele>
    <time>2026-06-23T09:21:51Z</time>
   </trkpt>
   <trkpt lat="-3.1014550" lon="37.3786080">
    <ele>4613.0</ele>
    <time>2026-06-23T09:21:52Z</time>
   </trkpt>
   <trkpt lat="-3.1014550" lon="37.3786080">
    <ele>4613.0</ele>
    <time>2026-06-23T09:21:53Z</time>
   </trkpt>
   <trkpt lat="-3.1014550" lon="37.3786080">
    <ele>4613.0</ele>
    <time>2026-06-23T09:21:54Z</time>
   </trkpt>
   <trkpt lat="-3.1014470" lon="37.3786060">
    <ele>4612.9</ele>
    <time>2026-06-23T09:21:55Z</time>
   </trkpt>
   <trkpt lat="-3.1014470" lon="37.3786070">
    <ele>4612.9</ele>
    <time>2026-06-23T09:21:56Z</time>
   </trkpt>
   <trkpt lat="-3.1014480" lon="37.3786080">
    <ele>4612.9</ele>
    <time>2026-06-23T09:21:57Z</time>
   </trkpt>
   <trkpt lat="-3.1014480" lon="37.3786090">
    <ele>4612.9</ele>
    <time>2026-06-23T09:21:58Z</time>
   </trkpt>
   <trkpt lat="-3.1014480" lon="37.3786110">
    <ele>4612.9</ele>
    <time>2026-06-23T09:21:59Z</time>
   </trkpt>
   <trkpt lat="-3.1014510" lon="37.3786160">
    <ele>4612.8</ele>
    <time>2026-06-23T09:22:00Z</time>
   </trkpt>
   <trkpt lat="-3.1014500" lon="37.3786160">
    <ele>4612.8</ele>
    <time>2026-06-23T09:22:01Z</time>
   </trkpt>
   <trkpt lat="-3.1014510" lon="37.3786140">
    <ele>4612.7</ele>
    <time>2026-06-23T09:22:02Z</time>
   </trkpt>
   <trkpt lat="-3.1014550" lon="37.3786090">
    <ele>4612.6</ele>
    <time>2026-06-23T09:22:03Z</time>
   </trkpt>
   <trkpt lat="-3.1014530" lon="37.3786130">
    <ele>4612.6</ele>
    <time>2026-06-23T09:22:04Z</time>
   </trkpt>
   <trkpt lat="-3.1014530" lon="37.3786130">
    <ele>4612.6</ele>
    <time>2026-06-23T09:22:05Z</time>
   </trkpt>
   <trkpt lat="-3.1014520" lon="37.3786190">
    <ele>4612.5</ele>
    <time>2026-06-23T09:22:06Z</time>
   </trkpt>
   <trkpt lat="-3.1014520" lon="37.3786190">
    <ele>4612.5</ele>
    <time>2026-06-23T09:22:07Z</time>
   </trkpt>
   <trkpt lat="-3.1014550" lon="37.3786190">
    <ele>4612.5</ele>
    <time>2026-06-23T09:22:08Z</time>
   </trkpt>
   <trkpt lat="-3.1014540" lon="37.3786200">
    <ele>4612.4</ele>
    <time>2026-06-23T09:22:09Z</time>
   </trkpt>
   <trkpt lat="-3.1014550" lon="37.3786210">
    <ele>4612.4</ele>
    <time>2026-06-23T09:22:10Z</time>
   </trkpt>
   <trkpt lat="-3.1014560" lon="37.3786220">
    <ele>4612.4</ele>
    <time>2026-06-23T09:22:11Z</time>
   </trkpt>
   <trkpt lat="-3.1014560" lon="37.3786220">
    <ele>4612.4</ele>
    <time>2026-06-23T09:22:12Z</time>
   </trkpt>
   <trkpt lat="-3.1014580" lon="37.3786230">
    <ele>4612.4</ele>
    <time>2026-06-23T09:22:13Z</time>
   </trkpt>
   <trkpt lat="-3.1014580" lon="37.3786170">
    <ele>4612.3</ele>
    <time>2026-06-23T09:22:14Z</time>
   </trkpt>
   <trkpt lat="-3.1014550" lon="37.3786170">
    <ele>4612.2</ele>
    <time>2026-06-23T09:22:15Z</time>
   </trkpt>
   <trkpt lat="-3.1014550" lon="37.3786140">
    <ele>4612.2</ele>
    <time>2026-06-23T09:22:16Z</time>
   </trkpt>
   <trkpt lat="-3.1014540" lon="37.3786160">
    <ele>4612.2</ele>
    <time>2026-06-23T09:22:17Z</time>
   </trkpt>
   <trkpt lat="-3.1014550" lon="37.3786130">
    <ele>4612.1</ele>
    <time>2026-06-23T09:22:18Z</time>
   </trkpt>
   <trkpt lat="-3.1014600" lon="37.3786090">
    <ele>4612.0</ele>
    <time>2026-06-23T09:22:19Z</time>
   </trkpt>
   <trkpt lat="-3.1014640" lon="37.3786110">
    <ele>4612.0</ele>
    <time>2026-06-23T09:22:20Z</time>
   </trkpt>
   <trkpt lat="-3.1014610" lon="37.3786070">
    <ele>4611.9</ele>
    <time>2026-06-23T09:22:21Z</time>
   </trkpt>
   <trkpt lat="-3.1014610" lon="37.3786060">
    <ele>4611.9</ele>
    <time>2026-06-23T09:22:22Z</time>
   </trkpt>
   <trkpt lat="-3.1014590" lon="37.3786060">
    <ele>4611.9</ele>
    <time>2026-06-23T09:22:23Z</time>
   </trkpt>
   <trkpt lat="-3.1014590" lon="37.3786060">
    <ele>4611.9</ele>
    <time>2026-06-23T09:22:24Z</time>
   </trkpt>
   <trkpt lat="-3.1014580" lon="37.3786080">
    <ele>4611.8</ele>
    <time>2026-06-23T09:22:25Z</time>
   </trkpt>
   <trkpt lat="-3.1014580" lon="37.3786080">
    <ele>4611.8</ele>
    <time>2026-06-23T09:22:26Z</time>
   </trkpt>
   <trkpt lat="-3.1014580" lon="37.3786080">
    <ele>4611.8</ele>
    <time>2026-06-23T09:22:27Z</time>
   </trkpt>
   <trkpt lat="-3.1014580" lon="37.3786080">
    <ele>4611.8</ele>
    <time>2026-06-23T09:22:28Z</time>
   </trkpt>
   <trkpt lat="-3.1014580" lon="37.3786080">
    <ele>4611.8</ele>
    <time>2026-06-23T09:22:29Z</time>
   </trkpt>
   <trkpt lat="-3.1014580" lon="37.3786080">
    <ele>4611.8</ele>
    <time>2026-06-23T09:22:30Z</time>
   </trkpt>
   <trkpt lat="-3.1014580" lon="37.3786080">
    <ele>4611.8</ele>
    <time>2026-06-23T09:22:31Z</time>
   </trkpt>
   <trkpt lat="-3.1014580" lon="37.3786080">
    <ele>4611.8</ele>
    <time>2026-06-23T09:22:32Z</time>
   </trkpt>
   <trkpt lat="-3.1014580" lon="37.3786080">
    <ele>4611.8</ele>
    <time>2026-06-23T09:22:33Z</time>
   </trkpt>
   <trkpt lat="-3.1014540" lon="37.3786170">
    <ele>4611.7</ele>
    <time>2026-06-23T09:22:34Z</time>
   </trkpt>
   <trkpt lat="-3.1014540" lon="37.3786170">
    <ele>4611.7</ele>
    <time>2026-06-23T09:22:35Z</time>
   </trkpt>
   <trkpt lat="-3.1014540" lon="37.3786170">
    <ele>4611.7</ele>
    <time>2026-06-23T09:22:36Z</time>
   </trkpt>
   <trkpt lat="-3.1014540" lon="37.3786170">
    <ele>4611.7</ele>
    <time>2026-06-23T09:22:37Z</time>
   </trkpt>
   <trkpt lat="-3.1014480" lon="37.3786220">
    <ele>4611.6</ele>
    <time>2026-06-23T09:22:38Z</time>
   </trkpt>
   <trkpt lat="-3.1014480" lon="37.3786240">
    <ele>4611.6</ele>
    <time>2026-06-23T09:22:39Z</time>
   </trkpt>
   <trkpt lat="-3.1014480" lon="37.3786240">
    <ele>4611.6</ele>
    <time>2026-06-23T09:22:40Z</time>
   </trkpt>
   <trkpt lat="-3.1014460" lon="37.3786250">
    <ele>4611.5</ele>
    <time>2026-06-23T09:22:41Z</time>
   </trkpt>
   <trkpt lat="-3.1014480" lon="37.3786200">
    <ele>4611.5</ele>
    <time>2026-06-23T09:22:42Z</time>
   </trkpt>
   <trkpt lat="-3.1014480" lon="37.3786180">
    <ele>4611.4</ele>
    <time>2026-06-23T09:22:43Z</time>
   </trkpt>
   <trkpt lat="-3.1014480" lon="37.3786140">
    <ele>4611.4</ele>
    <time>2026-06-23T09:22:44Z</time>
   </trkpt>
   <trkpt lat="-3.1014540" lon="37.3786080">
    <ele>4611.3</ele>
    <time>2026-06-23T09:22:45Z</time>
   </trkpt>
   <trkpt lat="-3.1014500" lon="37.3786090">
    <ele>4611.2</ele>
    <time>2026-06-23T09:22:46Z</time>
   </trkpt>
   <trkpt lat="-3.1014570" lon="37.3786070">
    <ele>4611.1</ele>
    <time>2026-06-23T09:22:47Z</time>
   </trkpt>
   <trkpt lat="-3.1014550" lon="37.3786090">
    <ele>4611.1</ele>
    <time>2026-06-23T09:22:48Z</time>
   </trkpt>
   <trkpt lat="-3.1014530" lon="37.3786140">
    <ele>4611.0</ele>
    <time>2026-06-23T09:22:49Z</time>
   </trkpt>
   <trkpt lat="-3.1014550" lon="37.3786140">
    <ele>4611.0</ele>
    <time>2026-06-23T09:22:50Z</time>
   </trkpt>
   <trkpt lat="-3.1014550" lon="37.3786140">
    <ele>4611.0</ele>
    <time>2026-06-23T09:22:51Z</time>
   </trkpt>
   <trkpt lat="-3.1014570" lon="37.3786140">
    <ele>4611.0</ele>
    <time>2026-06-23T09:22:52Z</time>
   </trkpt>
   <trkpt lat="-3.1014600" lon="37.3786130">
    <ele>4610.9</ele>
    <time>2026-06-23T09:22:53Z</time>
   </trkpt>
   <trkpt lat="-3.1014520" lon="37.3786060">
    <ele>4610.8</ele>
    <time>2026-06-23T09:22:54Z</time>
   </trkpt>
   <trkpt lat="-3.1014540" lon="37.3786030">
    <ele>4610.7</ele>
    <time>2026-06-23T09:22:55Z</time>
   </trkpt>
   <trkpt lat="-3.1014550" lon="37.3786040">
    <ele>4610.7</ele>
    <time>2026-06-23T09:22:56Z</time>
   </trkpt>
   <trkpt lat="-3.1014600" lon="37.3786030">
    <ele>4610.6</ele>
    <time>2026-06-23T09:22:57Z</time>
   </trkpt>
   <trkpt lat="-3.1014590" lon="37.3786010">
    <ele>4610.6</ele>
    <time>2026-06-23T09:22:58Z</time>
   </trkpt>
   <trkpt lat="-3.1014580" lon="37.3786030">
    <ele>4610.6</ele>
    <time>2026-06-23T09:22:59Z</time>
   </trkpt>
   <trkpt lat="-3.1014650" lon="37.3786010">
    <ele>4610.5</ele>
    <time>2026-06-23T09:23:00Z</time>
   </trkpt>
   <trkpt lat="-3.1014660" lon="37.3786040">
    <ele>4610.4</ele>
    <time>2026-06-23T09:23:01Z</time>
   </trkpt>
   <trkpt lat="-3.1014690" lon="37.3786010">
    <ele>4610.4</ele>
    <time>2026-06-23T09:23:02Z</time>
   </trkpt>
   <trkpt lat="-3.1014740" lon="37.3786000">
    <ele>4610.3</ele>
    <time>2026-06-23T09:23:03Z</time>
   </trkpt>
   <trkpt lat="-3.1014790" lon="37.3785980">
    <ele>4610.2</ele>
    <time>2026-06-23T09:23:04Z</time>
   </trkpt>
   <trkpt lat="-3.1014860" lon="37.3785950">
    <ele>4610.1</ele>
    <time>2026-06-23T09:23:05Z</time>
   </trkpt>
   <trkpt lat="-3.1014910" lon="37.3785870">
    <ele>4610.0</ele>
    <time>2026-06-23T09:23:06Z</time>
   </trkpt>
   <trkpt lat="-3.1014920" lon="37.3785800">
    <ele>4609.9</ele>
    <time>2026-06-23T09:23:07Z</time>
   </trkpt>
   <trkpt lat="-3.1014920" lon="37.3785760">
    <ele>4609.9</ele>
    <time>2026-06-23T09:23:08Z</time>
   </trkpt>
   <trkpt lat="-3.1014940" lon="37.3785690">
    <ele>4609.8</ele>
    <time>2026-06-23T09:23:09Z</time>
   </trkpt>
   <trkpt lat="-3.1014970" lon="37.3785610">
    <ele>4609.7</ele>
    <time>2026-06-23T09:23:10Z</time>
   </trkpt>
   <trkpt lat="-3.1014970" lon="37.3785580">
    <ele>4609.6</ele>
    <time>2026-06-23T09:23:11Z</time>
   </trkpt>
   <trkpt lat="-3.1014900" lon="37.3785630">
    <ele>4609.5</ele>
    <time>2026-06-23T09:23:12Z</time>
   </trkpt>
   <trkpt lat="-3.1014880" lon="37.3785690">
    <ele>4609.4</ele>
    <time>2026-06-23T09:23:13Z</time>
   </trkpt>
   <trkpt lat="-3.1014900" lon="37.3785700">
    <ele>4609.4</ele>
    <time>2026-06-23T09:23:14Z</time>
   </trkpt>
   <trkpt lat="-3.1014890" lon="37.3785760">
    <ele>4609.3</ele>
    <time>2026-06-23T09:23:15Z</time>
   </trkpt>
   <trkpt lat="-3.1014870" lon="37.3785830">
    <ele>4609.2</ele>
    <time>2026-06-23T09:23:16Z</time>
   </trkpt>
   <trkpt lat="-3.1014850" lon="37.3785940">
    <ele>4609.1</ele>
    <time>2026-06-23T09:23:17Z</time>
   </trkpt>
   <trkpt lat="-3.1014800" lon="37.3785980">
    <ele>4609.0</ele>
    <time>2026-06-23T09:23:18Z</time>
   </trkpt>
   <trkpt lat="-3.1014740" lon="37.3786010">
    <ele>4608.9</ele>
    <time>2026-06-23T09:23:19Z</time>
   </trkpt>
   <trkpt lat="-3.1014670" lon="37.3786030">
    <ele>4608.8</ele>
    <time>2026-06-23T09:23:20Z</time>
   </trkpt>
   <trkpt lat="-3.1014600" lon="37.3786050">
    <ele>4608.7</ele>
    <time>2026-06-23T09:23:21Z</time>
   </trkpt>
   <trkpt lat="-3.1014580" lon="37.3786060">
    <ele>4608.7</ele>
    <time>2026-06-23T09:23:22Z</time>
   </trkpt>
   <trkpt lat="-3.1014610" lon="37.3786090">
    <ele>4608.6</ele>
    <time>2026-06-23T09:23:23Z</time>
   </trkpt>
   <trkpt lat="-3.1014570" lon="37.3786120">
    <ele>4608.5</ele>
    <time>2026-06-23T09:23:24Z</time>
   </trkpt>
   <trkpt lat="-3.1014510" lon="37.3786150">
    <ele>4608.5</ele>
    <time>2026-06-23T09:23:25Z</time>
   </trkpt>
   <trkpt lat="-3.1014520" lon="37.3786130">
    <ele>4608.4</ele>
    <time>2026-06-23T09:23:26Z</time>
   </trkpt>
   <trkpt lat="-3.1014560" lon="37.3786120">
    <ele>4608.4</ele>
    <time>2026-06-23T09:23:27Z</time>
   </trkpt>
   <trkpt lat="-3.1014560" lon="37.3786100">
    <ele>4608.3</ele>
    <time>2026-06-23T09:23:28Z</time>
   </trkpt>
   <trkpt lat="-3.1014520" lon="37.3786120">
    <ele>4608.3</ele>
    <time>2026-06-23T09:23:29Z</time>
   </trkpt>
   <trkpt lat="-3.1014500" lon="37.3786010">
    <ele>4608.1</ele>
    <time>2026-06-23T09:23:30Z</time>
   </trkpt>
   <trkpt lat="-3.1014520" lon="37.3786070">
    <ele>4608.0</ele>
    <time>2026-06-23T09:23:31Z</time>
   </trkpt>
   <trkpt lat="-3.1014540" lon="37.3786050">
    <ele>4608.0</ele>
    <time>2026-06-23T09:23:32Z</time>
   </trkpt>
   <trkpt lat="-3.1014540" lon="37.3786050">
    <ele>4608.0</ele>
    <time>2026-06-23T09:23:33Z</time>
   </trkpt>
   <trkpt lat="-3.1014550" lon="37.3786060">
    <ele>4608.0</ele>
    <time>2026-06-23T09:23:34Z</time>
   </trkpt>
   <trkpt lat="-3.1014580" lon="37.3786050">
    <ele>4607.9</ele>
    <time>2026-06-23T09:23:35Z</time>
   </trkpt>
   <trkpt lat="-3.1014580" lon="37.3786070">
    <ele>4607.9</ele>
    <time>2026-06-23T09:23:36Z</time>
   </trkpt>
   <trkpt lat="-3.1014590" lon="37.3786040">
    <ele>4607.9</ele>
    <time>2026-06-23T09:23:37Z</time>
   </trkpt>
   <trkpt lat="-3.1014590" lon="37.3786040">
    <ele>4607.9</ele>
    <time>2026-06-23T09:23:38Z</time>
   </trkpt>
   <trkpt lat="-3.1014580" lon="37.3786040">
    <ele>4607.9</ele>
    <time>2026-06-23T09:23:39Z</time>
   </trkpt>
   <trkpt lat="-3.1014570" lon="37.3786070">
    <ele>4607.8</ele>
    <time>2026-06-23T09:23:40Z</time>
   </trkpt>
   <trkpt lat="-3.1014540" lon="37.3786040">
    <ele>4607.8</ele>
    <time>2026-06-23T09:23:41Z</time>
   </trkpt>
   <trkpt lat="-3.1014520" lon="37.3786050">
    <ele>4607.7</ele>
    <time>2026-06-23T09:23:42Z</time>
   </trkpt>
   <trkpt lat="-3.1014520" lon="37.3786050">
    <ele>4607.7</ele>
    <time>2026-06-23T09:23:43Z</time>
   </trkpt>
   <trkpt lat="-3.1014530" lon="37.3786020">
    <ele>4607.7</ele>
    <time>2026-06-23T09:23:44Z</time>
   </trkpt>
   <trkpt lat="-3.1014600" lon="37.3785980">
    <ele>4607.6</ele>
    <time>2026-06-23T09:23:45Z</time>
   </trkpt>
   <trkpt lat="-3.1014650" lon="37.3785990">
    <ele>4607.5</ele>
    <time>2026-06-23T09:23:46Z</time>
   </trkpt>
   <trkpt lat="-3.1014650" lon="37.3786000">
    <ele>4607.5</ele>
    <time>2026-06-23T09:23:47Z</time>
   </trkpt>
   <trkpt lat="-3.1014670" lon="37.3785970">
    <ele>4607.5</ele>
    <time>2026-06-23T09:23:48Z</time>
   </trkpt>
   <trkpt lat="-3.1014690" lon="37.3785990">
    <ele>4607.4</ele>
    <time>2026-06-23T09:23:49Z</time>
   </trkpt>
   <trkpt lat="-3.1014720" lon="37.3786010">
    <ele>4607.4</ele>
    <time>2026-06-23T09:23:50Z</time>
   </trkpt>
   <trkpt lat="-3.1014730" lon="37.3786020">
    <ele>4607.4</ele>
    <time>2026-06-23T09:23:51Z</time>
   </trkpt>
   <trkpt lat="-3.1014740" lon="37.3785970">
    <ele>4607.3</ele>
    <time>2026-06-23T09:23:52Z</time>
   </trkpt>
   <trkpt lat="-3.1014760" lon="37.3785960">
    <ele>4607.3</ele>
    <time>2026-06-23T09:23:53Z</time>
   </trkpt>
   <trkpt lat="-3.1014800" lon="37.3785920">
    <ele>4607.2</ele>
    <time>2026-06-23T09:23:54Z</time>
   </trkpt>
   <trkpt lat="-3.1014860" lon="37.3785910">
    <ele>4607.1</ele>
    <time>2026-06-23T09:23:55Z</time>
   </trkpt>
   <trkpt lat="-3.1014880" lon="37.3785900">
    <ele>4607.1</ele>
    <time>2026-06-23T09:23:56Z</time>
   </trkpt>
   <trkpt lat="-3.1014950" lon="37.3785840">
    <ele>4606.9</ele>
    <time>2026-06-23T09:23:57Z</time>
   </trkpt>
   <trkpt lat="-3.1014950" lon="37.3785780">
    <ele>4606.9</ele>
    <time>2026-06-23T09:23:58Z</time>
   </trkpt>
   <trkpt lat="-3.1014980" lon="37.3785710">
    <ele>4606.8</ele>
    <time>2026-06-23T09:23:59Z</time>
   </trkpt>
   <trkpt lat="-3.1015020" lon="37.3785610">
    <ele>4606.6</ele>
    <time>2026-06-23T09:24:00Z</time>
   </trkpt>
   <trkpt lat="-3.1015050" lon="37.3785530">
    <ele>4606.5</ele>
    <time>2026-06-23T09:24:01Z</time>
   </trkpt>
   <trkpt lat="-3.1015060" lon="37.3785490">
    <ele>4606.4</ele>
    <time>2026-06-23T09:24:02Z</time>
   </trkpt>
   <trkpt lat="-3.1015050" lon="37.3785500">
    <ele>4606.4</ele>
    <time>2026-06-23T09:24:03Z</time>
   </trkpt>
   <trkpt lat="-3.1015030" lon="37.3785490">
    <ele>4606.4</ele>
    <time>2026-06-23T09:24:04Z</time>
   </trkpt>
   <trkpt lat="-3.1015030" lon="37.3785490">
    <ele>4606.4</ele>
    <time>2026-06-23T09:24:05Z</time>
   </trkpt>
   <trkpt lat="-3.1014990" lon="37.3785510">
    <ele>4606.3</ele>
    <time>2026-06-23T09:24:06Z</time>
   </trkpt>
   <trkpt lat="-3.1015000" lon="37.3785510">
    <ele>4606.3</ele>
    <time>2026-06-23T09:24:07Z</time>
   </trkpt>
   <trkpt lat="-3.1015000" lon="37.3785510">
    <ele>4606.3</ele>
    <time>2026-06-23T09:24:08Z</time>
   </trkpt>
   <trkpt lat="-3.1015010" lon="37.3785550">
    <ele>4606.3</ele>
    <time>2026-06-23T09:24:09Z</time>
   </trkpt>
   <trkpt lat="-3.1014960" lon="37.3785490">
    <ele>4606.2</ele>
    <time>2026-06-23T09:24:10Z</time>
   </trkpt>
   <trkpt lat="-3.1014960" lon="37.3785500">
    <ele>4606.2</ele>
    <time>2026-06-23T09:24:11Z</time>
   </trkpt>
   <trkpt lat="-3.1014980" lon="37.3785500">
    <ele>4606.1</ele>
    <time>2026-06-23T09:24:12Z</time>
   </trkpt>
   <trkpt lat="-3.1014970" lon="37.3785570">
    <ele>4606.0</ele>
    <time>2026-06-23T09:24:13Z</time>
   </trkpt>
   <trkpt lat="-3.1014950" lon="37.3785580">
    <ele>4606.0</ele>
    <time>2026-06-23T09:24:14Z</time>
   </trkpt>
   <trkpt lat="-3.1014970" lon="37.3785580">
    <ele>4606.0</ele>
    <time>2026-06-23T09:24:15Z</time>
   </trkpt>
   <trkpt lat="-3.1014970" lon="37.3785580">
    <ele>4606.0</ele>
    <time>2026-06-23T09:24:16Z</time>
   </trkpt>
   <trkpt lat="-3.1014970" lon="37.3785580">
    <ele>4606.0</ele>
    <time>2026-06-23T09:24:17Z</time>
   </trkpt>
   <trkpt lat="-3.1014760" lon="37.3785610">
    <ele>4605.7</ele>
    <time>2026-06-23T09:24:18Z</time>
   </trkpt>
   <trkpt lat="-3.1014760" lon="37.3785610">
    <ele>4605.7</ele>
    <time>2026-06-23T09:24:19Z</time>
   </trkpt>
   <trkpt lat="-3.1014760" lon="37.3785610">
    <ele>4605.7</ele>
    <time>2026-06-23T09:24:20Z</time>
   </trkpt>
   <trkpt lat="-3.1014760" lon="37.3785610">
    <ele>4605.7</ele>
    <time>2026-06-23T09:24:21Z</time>
   </trkpt>
   <trkpt lat="-3.1014760" lon="37.3785610">
    <ele>4605.7</ele>
    <time>2026-06-23T09:24:22Z</time>
   </trkpt>
   <trkpt lat="-3.1014760" lon="37.3785610">
    <ele>4605.7</ele>
    <time>2026-06-23T09:24:23Z</time>
   </trkpt>
   <trkpt lat="-3.1014760" lon="37.3785610">
    <ele>4605.7</ele>
    <time>2026-06-23T09:24:24Z</time>
   </trkpt>
   <trkpt lat="-3.1014760" lon="37.3785610">
    <ele>4605.7</ele>
    <time>2026-06-23T09:24:25Z</time>
   </trkpt>
   <trkpt lat="-3.1014760" lon="37.3785610">
    <ele>4605.7</ele>
    <time>2026-06-23T09:24:26Z</time>
   </trkpt>
   <trkpt lat="-3.1014760" lon="37.3785610">
    <ele>4605.7</ele>
    <time>2026-06-23T09:24:27Z</time>
   </trkpt>
   <trkpt lat="-3.1014760" lon="37.3785610">
    <ele>4605.7</ele>
    <time>2026-06-23T09:24:28Z</time>
   </trkpt>
   <trkpt lat="-3.1014760" lon="37.3785610">
    <ele>4605.7</ele>
    <time>2026-06-23T09:24:29Z</time>
   </trkpt>
   <trkpt lat="-3.1014760" lon="37.3785610">
    <ele>4605.7</ele>
    <time>2026-06-23T09:24:30Z</time>
   </trkpt>
   <trkpt lat="-3.1014760" lon="37.3785610">
    <ele>4605.7</ele>
    <time>2026-06-23T09:24:31Z</time>
   </trkpt>
   <trkpt lat="-3.1014760" lon="37.3785610">
    <ele>4605.7</ele>
    <time>2026-06-23T09:24:32Z</time>
   </trkpt>
   <trkpt lat="-3.1014760" lon="37.3785610">
    <ele>4605.7</ele>
    <time>2026-06-23T09:24:33Z</time>
   </trkpt>
   <trkpt lat="-3.1014760" lon="37.3785610">
    <ele>4605.7</ele>
    <time>2026-06-23T09:24:34Z</time>
   </trkpt>
   <trkpt lat="-3.1014760" lon="37.3785610">
    <ele>4605.7</ele>
    <time>2026-06-23T09:24:35Z</time>
   </trkpt>
   <trkpt lat="-3.1014760" lon="37.3785610">
    <ele>4605.7</ele>
    <time>2026-06-23T09:24:36Z</time>
   </trkpt>
   <trkpt lat="-3.1014760" lon="37.3785610">
    <ele>4605.7</ele>
    <time>2026-06-23T09:24:37Z</time>
   </trkpt>
   <trkpt lat="-3.1014760" lon="37.3785610">
    <ele>4605.7</ele>
    <time>2026-06-23T09:24:38Z</time>
   </trkpt>
   <trkpt lat="-3.1014760" lon="37.3785610">
    <ele>4605.7</ele>
    <time>2026-06-23T09:24:39Z</time>
   </trkpt>
   <trkpt lat="-3.1014760" lon="37.3785610">
    <ele>4605.7</ele>
    <time>2026-06-23T09:24:40Z</time>
   </trkpt>
   <trkpt lat="-3.1014760" lon="37.3785610">
    <ele>4605.7</ele>
    <time>2026-06-23T09:24:41Z</time>
   </trkpt>
   <trkpt lat="-3.1014760" lon="37.3785610">
    <ele>4605.7</ele>
    <time>2026-06-23T09:24:42Z</time>
   </trkpt>
   <trkpt lat="-3.1014760" lon="37.3785610">
    <ele>4605.7</ele>
    <time>2026-06-23T09:24:43Z</time>
   </trkpt>
   <trkpt lat="-3.1014760" lon="37.3785610">
    <ele>4605.7</ele>
    <time>2026-06-23T09:24:44Z</time>
   </trkpt>
   <trkpt lat="-3.1014760" lon="37.3785610">
    <ele>4605.7</ele>
    <time>2026-06-23T09:24:45Z</time>
   </trkpt>
   <trkpt lat="-3.1014760" lon="37.3785610">
    <ele>4605.7</ele>
    <time>2026-06-23T09:24:46Z</time>
   </trkpt>
   <trkpt lat="-3.1014760" lon="37.3785610">
    <ele>4605.7</ele>
    <time>2026-06-23T09:24:47Z</time>
   </trkpt>
   <trkpt lat="-3.1014760" lon="37.3785610">
    <ele>4605.7</ele>
    <time>2026-06-23T09:24:48Z</time>
   </trkpt>
   <trkpt lat="-3.1014760" lon="37.3785610">
    <ele>4605.7</ele>
    <time>2026-06-23T09:24:49Z</time>
   </trkpt>
   <trkpt lat="-3.1014760" lon="37.3785610">
    <ele>4605.7</ele>
    <time>2026-06-23T09:24:50Z</time>
   </trkpt>
   <trkpt lat="-3.1014760" lon="37.3785610">
    <ele>4605.7</ele>
    <time>2026-06-23T09:24:51Z</time>
   </trkpt>
   <trkpt lat="-3.1014760" lon="37.3785610">
    <ele>4605.7</ele>
    <time>2026-06-23T09:24:52Z</time>
   </trkpt>
   <trkpt lat="-3.1014760" lon="37.3785610">
    <ele>4605.7</ele>
    <time>2026-06-23T09:24:53Z</time>
   </trkpt>
   <trkpt lat="-3.1014760" lon="37.3785610">
    <ele>4605.7</ele>
    <time>2026-06-23T09:24:54Z</time>
   </trkpt>
   <trkpt lat="-3.1014760" lon="37.3785610">
    <ele>4605.7</ele>
    <time>2026-06-23T09:24:55Z</time>
   </trkpt>
   <trkpt lat="-3.1014760" lon="37.3785610">
    <ele>4605.7</ele>
    <time>2026-06-23T09:24:56Z</time>
   </trkpt>
   <trkpt lat="-3.1014760" lon="37.3785610">
    <ele>4605.7</ele>
    <time>2026-06-23T09:24:57Z</time>
   </trkpt>
   <trkpt lat="-3.1014760" lon="37.3785610">
    <ele>4605.7</ele>
    <time>2026-06-23T09:24:58Z</time>
   </trkpt>
   <trkpt lat="-3.1014760" lon="37.3785610">
    <ele>4605.7</ele>
    <time>2026-06-23T09:24:59Z</time>
   </trkpt>
   <trkpt lat="-3.1014760" lon="37.3785610">
    <ele>4605.7</ele>
    <time>2026-06-23T09:25:00Z</time>
   </trkpt>
   <trkpt lat="-3.1014760" lon="37.3785610">
    <ele>4605.7</ele>
    <time>2026-06-23T09:25:01Z</time>
   </trkpt>
   <trkpt lat="-3.1014760" lon="37.3785610">
    <ele>4605.7</ele>
    <time>2026-06-23T09:25:02Z</time>
   </trkpt>
   <trkpt lat="-3.1014760" lon="37.3785610">
    <ele>4605.7</ele>
    <time>2026-06-23T09:25:03Z</time>
   </trkpt>
   <trkpt lat="-3.1014760" lon="37.3785610">
    <ele>4605.7</ele>
    <time>2026-06-23T09:25:04Z</time>
   </trkpt>
   <trkpt lat="-3.1014760" lon="37.3785610">
    <ele>4605.7</ele>
    <time>2026-06-23T09:25:05Z</time>
   </trkpt>
   <trkpt lat="-3.1014760" lon="37.3785610">
    <ele>4605.7</ele>
    <time>2026-06-23T09:25:06Z</time>
   </trkpt>
   <trkpt lat="-3.1014760" lon="37.3785610">
    <ele>4605.7</ele>
    <time>2026-06-23T09:25:07Z</time>
   </trkpt>
   <trkpt lat="-3.1014760" lon="37.3785610">
    <ele>4605.7</ele>
    <time>2026-06-23T09:25:08Z</time>
   </trkpt>
   <trkpt lat="-3.1014760" lon="37.3785610">
    <ele>4605.7</ele>
    <time>2026-06-23T09:25:09Z</time>
   </trkpt>
   <trkpt lat="-3.1014760" lon="37.3785610">
    <ele>4605.7</ele>
    <time>2026-06-23T09:25:10Z</time>
   </trkpt>
   <trkpt lat="-3.1014760" lon="37.3785610">
    <ele>4605.7</ele>
    <time>2026-06-23T09:25:11Z</time>
   </trkpt>
   <trkpt lat="-3.1014760" lon="37.3785610">
    <ele>4605.7</ele>
    <time>2026-06-23T09:25:12Z</time>
   </trkpt>
   <trkpt lat="-3.1014760" lon="37.3785610">
    <ele>4605.7</ele>
    <time>2026-06-23T09:25:13Z</time>
   </trkpt>
   <trkpt lat="-3.1014760" lon="37.3785610">
    <ele>4605.7</ele>
    <time>2026-06-23T09:25:14Z</time>
   </trkpt>
   <trkpt lat="-3.1014760" lon="37.3785610">
    <ele>4605.7</ele>
    <time>2026-06-23T09:25:15Z</time>
   </trkpt>
   <trkpt lat="-3.1014760" lon="37.3785610">
    <ele>4605.7</ele>
    <time>2026-06-23T09:25:16Z</time>
   </trkpt>
   <trkpt lat="-3.1014760" lon="37.3785610">
    <ele>4605.7</ele>
    <time>2026-06-23T09:25:17Z</time>
   </trkpt>
   <trkpt lat="-3.1014760" lon="37.3785610">
    <ele>4605.7</ele>
    <time>2026-06-23T09:25:18Z</time>
   </trkpt>
   <trkpt lat="-3.1014760" lon="37.3785610">
    <ele>4605.7</ele>
    <time>2026-06-23T09:25:19Z</time>
   </trkpt>
   <trkpt lat="-3.1014760" lon="37.3785610">
    <ele>4605.7</ele>
    <time>2026-06-23T09:25:20Z</time>
   </trkpt>
   <trkpt lat="-3.1014760" lon="37.3785610">
    <ele>4605.7</ele>
    <time>2026-06-23T09:25:21Z</time>
   </trkpt>
   <trkpt lat="-3.1014760" lon="37.3785610">
    <ele>4605.7</ele>
    <time>2026-06-23T09:25:22Z</time>
   </trkpt>
   <trkpt lat="-3.1014760" lon="37.3785610">
    <ele>4605.7</ele>
    <time>2026-06-23T09:25:23Z</time>
   </trkpt>
   <trkpt lat="-3.1014760" lon="37.3785610">
    <ele>4605.7</ele>
    <time>2026-06-23T09:25:24Z</time>
   </trkpt>
   <trkpt lat="-3.1014760" lon="37.3785610">
    <ele>4605.7</ele>
    <time>2026-06-23T09:25:25Z</time>
   </trkpt>
   <trkpt lat="-3.1014760" lon="37.3785610">
    <ele>4605.7</ele>
    <time>2026-06-23T09:25:26Z</time>
   </trkpt>
   <trkpt lat="-3.1014760" lon="37.3785610">
    <ele>4605.7</ele>
    <time>2026-06-23T09:25:27Z</time>
   </trkpt>
   <trkpt lat="-3.1014760" lon="37.3785610">
    <ele>4605.7</ele>
    <time>2026-06-23T09:25:28Z</time>
   </trkpt>
   <trkpt lat="-3.1014760" lon="37.3785610">
    <ele>4605.7</ele>
    <time>2026-06-23T09:25:29Z</time>
   </trkpt>
   <trkpt lat="-3.1014760" lon="37.3785610">
    <ele>4605.7</ele>
    <time>2026-06-23T09:25:30Z</time>
   </trkpt>
   <trkpt lat="-3.1014760" lon="37.3785610">
    <ele>4605.7</ele>
    <time>2026-06-23T09:25:31Z</time>
   </trkpt>
   <trkpt lat="-3.1014760" lon="37.3785610">
    <ele>4605.7</ele>
    <time>2026-06-23T09:25:32Z</time>
   </trkpt>
   <trkpt lat="-3.1014760" lon="37.3785610">
    <ele>4605.7</ele>
    <time>2026-06-23T09:25:33Z</time>
   </trkpt>
   <trkpt lat="-3.1014760" lon="37.3785610">
    <ele>4605.7</ele>
    <time>2026-06-23T09:25:34Z</time>
   </trkpt>
   <trkpt lat="-3.1014760" lon="37.3785610">
    <ele>4605.7</ele>
    <time>2026-06-23T09:25:35Z</time>
   </trkpt>
   <trkpt lat="-3.1014760" lon="37.3785610">
    <ele>4605.7</ele>
    <time>2026-06-23T09:25:36Z</time>
   </trkpt>
   <trkpt lat="-3.1014760" lon="37.3785610">
    <ele>4605.7</ele>
    <time>2026-06-23T09:25:37Z</time>
   </trkpt>
   <trkpt lat="-3.1014760" lon="37.3785610">
    <ele>4605.7</ele>
    <time>2026-06-23T09:25:38Z</time>
   </trkpt>
   <trkpt lat="-3.1014760" lon="37.3785610">
    <ele>4605.7</ele>
    <time>2026-06-23T09:25:39Z</time>
   </trkpt>
   <trkpt lat="-3.1014760" lon="37.3785610">
    <ele>4605.7</ele>
    <time>2026-06-23T09:25:40Z</time>
   </trkpt>
   <trkpt lat="-3.1014760" lon="37.3785610">
    <ele>4605.7</ele>
    <time>2026-06-23T09:25:41Z</time>
   </trkpt>
   <trkpt lat="-3.1014760" lon="37.3785610">
    <ele>4605.7</ele>
    <time>2026-06-23T09:25:42Z</time>
   </trkpt>
   <trkpt lat="-3.1014760" lon="37.3785610">
    <ele>4605.7</ele>
    <time>2026-06-23T09:25:43Z</time>
   </trkpt>
   <trkpt lat="-3.1014760" lon="37.3785610">
    <ele>4605.7</ele>
    <time>2026-06-23T09:25:44Z</time>
   </trkpt>
   <trkpt lat="-3.1014760" lon="37.3785610">
    <ele>4605.7</ele>
    <time>2026-06-23T09:25:45Z</time>
   </trkpt>
   <trkpt lat="-3.1014760" lon="37.3785610">
    <ele>4605.7</ele>
    <time>2026-06-23T09:25:46Z</time>
   </trkpt>
   <trkpt lat="-3.1014760" lon="37.3785610">
    <ele>4605.7</ele>
    <time>2026-06-23T09:25:47Z</time>
   </trkpt>
   <trkpt lat="-3.1014760" lon="37.3785610">
    <ele>4605.7</ele>
    <time>2026-06-23T09:25:48Z</time>
   </trkpt>
   <trkpt lat="-3.1014760" lon="37.3785610">
    <ele>4605.7</ele>
    <time>2026-06-23T09:25:49Z</time>
   </trkpt>
   <trkpt lat="-3.1014760" lon="37.3785610">
    <ele>4605.7</ele>
    <time>2026-06-23T09:25:50Z</time>
   </trkpt>
   <trkpt lat="-3.1014760" lon="37.3785610">
    <ele>4605.7</ele>
    <time>2026-06-23T09:25:51Z</time>
   </trkpt>
   <trkpt lat="-3.1014760" lon="37.3785610">
    <ele>4605.7</ele>
    <time>2026-06-23T09:25:52Z</time>
   </trkpt>
   <trkpt lat="-3.1014760" lon="37.3785610">
    <ele>4605.7</ele>
    <time>2026-06-23T09:25:53Z</time>
   </trkpt>
   <trkpt lat="-3.1014760" lon="37.3785610">
    <ele>4605.7</ele>
    <time>2026-06-23T09:25:54Z</time>
   </trkpt>
   <trkpt lat="-3.1014760" lon="37.3785610">
    <ele>4605.7</ele>
    <time>2026-06-23T09:25:55Z</time>
   </trkpt>
   <trkpt lat="-3.1014760" lon="37.3785610">
    <ele>4605.7</ele>
    <time>2026-06-23T09:25:56Z</time>
   </trkpt>
   <trkpt lat="-3.1014760" lon="37.3785610">
    <ele>4605.7</ele>
    <time>2026-06-23T09:25:57Z</time>
   </trkpt>
   <trkpt lat="-3.1014760" lon="37.3785610">
    <ele>4605.7</ele>
    <time>2026-06-23T09:25:58Z</time>
   </trkpt>
   <trkpt lat="-3.1014760" lon="37.3785610">
    <ele>4605.7</ele>
    <time>2026-06-23T09:25:59Z</time>
   </trkpt>
   <trkpt lat="-3.1014760" lon="37.3785610">
    <ele>4605.7</ele>
    <time>2026-06-23T09:26:00Z</time>
   </trkpt>
   <trkpt lat="-3.1014760" lon="37.3785610">
    <ele>4605.7</ele>
    <time>2026-06-23T09:26:01Z</time>
   </trkpt>
   <trkpt lat="-3.1014760" lon="37.3785610">
    <ele>4605.7</ele>
    <time>2026-06-23T09:26:02Z</time>
   </trkpt>
   <trkpt lat="-3.1014760" lon="37.3785610">
    <ele>4605.7</ele>
    <time>2026-06-23T09:26:03Z</time>
   </trkpt>
   <trkpt lat="-3.1014760" lon="37.3785610">
    <ele>4605.7</ele>
    <time>2026-06-23T09:26:04Z</time>
   </trkpt>
   <trkpt lat="-3.1014760" lon="37.3785610">
    <ele>4605.7</ele>
    <time>2026-06-23T09:26:05Z</time>
   </trkpt>
   <trkpt lat="-3.1014760" lon="37.3785610">
    <ele>4605.7</ele>
    <time>2026-06-23T09:26:06Z</time>
   </trkpt>
   <trkpt lat="-3.1014760" lon="37.3785610">
    <ele>4605.7</ele>
    <time>2026-06-23T09:26:07Z</time>
   </trkpt>
   <trkpt lat="-3.1014760" lon="37.3785610">
    <ele>4605.7</ele>
    <time>2026-06-23T09:26:08Z</time>
   </trkpt>
   <trkpt lat="-3.1014760" lon="37.3785610">
    <ele>4605.7</ele>
    <time>2026-06-23T09:26:09Z</time>
   </trkpt>
   <trkpt lat="-3.1014760" lon="37.3785610">
    <ele>4605.7</ele>
    <time>2026-06-23T09:26:10Z</time>
   </trkpt>
   <trkpt lat="-3.1014760" lon="37.3785610">
    <ele>4605.7</ele>
    <time>2026-06-23T09:26:11Z</time>
   </trkpt>
   <trkpt lat="-3.1014760" lon="37.3785610">
    <ele>4605.7</ele>
    <time>2026-06-23T09:26:12Z</time>
   </trkpt>
   <trkpt lat="-3.1014760" lon="37.3785610">
    <ele>4605.7</ele>
    <time>2026-06-23T09:26:13Z</time>
   </trkpt>
   <trkpt lat="-3.1014760" lon="37.3785610">
    <ele>4605.7</ele>
    <time>2026-06-23T09:26:14Z</time>
   </trkpt>
   <trkpt lat="-3.1014650" lon="37.3785810">
    <ele>4605.4</ele>
    <time>2026-06-23T09:26:15Z</time>
   </trkpt>
   <trkpt lat="-3.1014650" lon="37.3785820">
    <ele>4605.4</ele>
    <time>2026-06-23T09:26:16Z</time>
   </trkpt>
   <trkpt lat="-3.1014650" lon="37.3785820">
    <ele>4605.4</ele>
    <time>2026-06-23T09:26:17Z</time>
   </trkpt>
   <trkpt lat="-3.1014650" lon="37.3785820">
    <ele>4605.4</ele>
    <time>2026-06-23T09:26:18Z</time>
   </trkpt>
   <trkpt lat="-3.1014640" lon="37.3785820">
    <ele>4605.4</ele>
    <time>2026-06-23T09:26:19Z</time>
   </trkpt>
   <trkpt lat="-3.1014640" lon="37.3785820">
    <ele>4605.4</ele>
    <time>2026-06-23T09:26:20Z</time>
   </trkpt>
   <trkpt lat="-3.1014640" lon="37.3785820">
    <ele>4605.4</ele>
    <time>2026-06-23T09:26:21Z</time>
   </trkpt>
   <trkpt lat="-3.1014640" lon="37.3785830">
    <ele>4605.3</ele>
    <time>2026-06-23T09:26:22Z</time>
   </trkpt>
   <trkpt lat="-3.1014640" lon="37.3785830">
    <ele>4605.3</ele>
    <time>2026-06-23T09:26:23Z</time>
   </trkpt>
   <trkpt lat="-3.1014640" lon="37.3785830">
    <ele>4605.3</ele>
    <time>2026-06-23T09:26:24Z</time>
   </trkpt>
   <trkpt lat="-3.1014640" lon="37.3785830">
    <ele>4605.3</ele>
    <time>2026-06-23T09:26:25Z</time>
   </trkpt>
   <trkpt lat="-3.1014640" lon="37.3785830">
    <ele>4605.3</ele>
    <time>2026-06-23T09:26:26Z</time>
   </trkpt>
   <trkpt lat="-3.1014640" lon="37.3785830">
    <ele>4605.3</ele>
    <time>2026-06-23T09:26:27Z</time>
   </trkpt>
   <trkpt lat="-3.1014640" lon="37.3785840">
    <ele>4605.3</ele>
    <time>2026-06-23T09:26:28Z</time>
   </trkpt>
   <trkpt lat="-3.1014640" lon="37.3785840">
    <ele>4605.3</ele>
    <time>2026-06-23T09:26:29Z</time>
   </trkpt>
   <trkpt lat="-3.1014630" lon="37.3785840">
    <ele>4605.3</ele>
    <time>2026-06-23T09:26:30Z</time>
   </trkpt>
   <trkpt lat="-3.1014630" lon="37.3785840">
    <ele>4605.3</ele>
    <time>2026-06-23T09:26:31Z</time>
   </trkpt>
   <trkpt lat="-3.1014630" lon="37.3785840">
    <ele>4605.3</ele>
    <time>2026-06-23T09:26:32Z</time>
   </trkpt>
   <trkpt lat="-3.1014630" lon="37.3785850">
    <ele>4605.3</ele>
    <time>2026-06-23T09:26:33Z</time>
   </trkpt>
   <trkpt lat="-3.1014630" lon="37.3785850">
    <ele>4605.3</ele>
    <time>2026-06-23T09:26:34Z</time>
   </trkpt>
   <trkpt lat="-3.1014630" lon="37.3785850">
    <ele>4605.3</ele>
    <time>2026-06-23T09:26:35Z</time>
   </trkpt>
   <trkpt lat="-3.1014630" lon="37.3785850">
    <ele>4605.3</ele>
    <time>2026-06-23T09:26:36Z</time>
   </trkpt>
   <trkpt lat="-3.1014630" lon="37.3785850">
    <ele>4605.3</ele>
    <time>2026-06-23T09:26:37Z</time>
   </trkpt>
   <trkpt lat="-3.1014630" lon="37.3785850">
    <ele>4605.3</ele>
    <time>2026-06-23T09:26:38Z</time>
   </trkpt>
   <trkpt lat="-3.1014630" lon="37.3785860">
    <ele>4605.3</ele>
    <time>2026-06-23T09:26:39Z</time>
   </trkpt>
   <trkpt lat="-3.1014620" lon="37.3785860">
    <ele>4605.3</ele>
    <time>2026-06-23T09:26:40Z</time>
   </trkpt>
   <trkpt lat="-3.1014620" lon="37.3785860">
    <ele>4605.3</ele>
    <time>2026-06-23T09:26:41Z</time>
   </trkpt>
   <trkpt lat="-3.1014620" lon="37.3785860">
    <ele>4605.3</ele>
    <time>2026-06-23T09:26:42Z</time>
   </trkpt>
   <trkpt lat="-3.1014620" lon="37.3785860">
    <ele>4605.3</ele>
    <time>2026-06-23T09:26:43Z</time>
   </trkpt>
   <trkpt lat="-3.1014620" lon="37.3785860">
    <ele>4605.3</ele>
    <time>2026-06-23T09:26:44Z</time>
   </trkpt>
   <trkpt lat="-3.1014620" lon="37.3785870">
    <ele>4605.3</ele>
    <time>2026-06-23T09:26:45Z</time>
   </trkpt>
   <trkpt lat="-3.1014620" lon="37.3785870">
    <ele>4605.3</ele>
    <time>2026-06-23T09:26:46Z</time>
   </trkpt>
   <trkpt lat="-3.1014620" lon="37.3785870">
    <ele>4605.3</ele>
    <time>2026-06-23T09:26:47Z</time>
   </trkpt>
   <trkpt lat="-3.1014620" lon="37.3785870">
    <ele>4605.3</ele>
    <time>2026-06-23T09:26:48Z</time>
   </trkpt>
   <trkpt lat="-3.1014620" lon="37.3785870">
    <ele>4605.3</ele>
    <time>2026-06-23T09:26:49Z</time>
   </trkpt>
   <trkpt lat="-3.1014620" lon="37.3785870">
    <ele>4605.3</ele>
    <time>2026-06-23T09:26:50Z</time>
   </trkpt>
   <trkpt lat="-3.1014610" lon="37.3785880">
    <ele>4605.2</ele>
    <time>2026-06-23T09:26:51Z</time>
   </trkpt>
   <trkpt lat="-3.1014610" lon="37.3785880">
    <ele>4605.2</ele>
    <time>2026-06-23T09:26:52Z</time>
   </trkpt>
   <trkpt lat="-3.1014610" lon="37.3785880">
    <ele>4605.2</ele>
    <time>2026-06-23T09:26:53Z</time>
   </trkpt>
   <trkpt lat="-3.1014610" lon="37.3785880">
    <ele>4605.2</ele>
    <time>2026-06-23T09:26:54Z</time>
   </trkpt>
   <trkpt lat="-3.1014610" lon="37.3785880">
    <ele>4605.2</ele>
    <time>2026-06-23T09:26:55Z</time>
   </trkpt>
   <trkpt lat="-3.1014610" lon="37.3785880">
    <ele>4605.2</ele>
    <time>2026-06-23T09:26:56Z</time>
   </trkpt>
   <trkpt lat="-3.1014610" lon="37.3785890">
    <ele>4605.2</ele>
    <time>2026-06-23T09:26:57Z</time>
   </trkpt>
   <trkpt lat="-3.1014610" lon="37.3785890">
    <ele>4605.2</ele>
    <time>2026-06-23T09:26:58Z</time>
   </trkpt>
   <trkpt lat="-3.1014610" lon="37.3785890">
    <ele>4605.2</ele>
    <time>2026-06-23T09:26:59Z</time>
   </trkpt>
   <trkpt lat="-3.1014610" lon="37.3785890">
    <ele>4605.2</ele>
    <time>2026-06-23T09:27:00Z</time>
   </trkpt>
   <trkpt lat="-3.1014610" lon="37.3785890">
    <ele>4605.2</ele>
    <time>2026-06-23T09:27:01Z</time>
   </trkpt>
   <trkpt lat="-3.1014600" lon="37.3785890">
    <ele>4605.2</ele>
    <time>2026-06-23T09:27:02Z</time>
   </trkpt>
   <trkpt lat="-3.1014600" lon="37.3785900">
    <ele>4605.2</ele>
    <time>2026-06-23T09:27:03Z</time>
   </trkpt>
   <trkpt lat="-3.1014600" lon="37.3785900">
    <ele>4605.2</ele>
    <time>2026-06-23T09:27:04Z</time>
   </trkpt>
   <trkpt lat="-3.1014600" lon="37.3785900">
    <ele>4605.2</ele>
    <time>2026-06-23T09:27:05Z</time>
   </trkpt>
   <trkpt lat="-3.1014600" lon="37.3785900">
    <ele>4605.2</ele>
    <time>2026-06-23T09:27:06Z</time>
   </trkpt>
   <trkpt lat="-3.1014600" lon="37.3785900">
    <ele>4605.2</ele>
    <time>2026-06-23T09:27:07Z</time>
   </trkpt>
   <trkpt lat="-3.1014600" lon="37.3785900">
    <ele>4605.2</ele>
    <time>2026-06-23T09:27:08Z</time>
   </trkpt>
   <trkpt lat="-3.1014600" lon="37.3785910">
    <ele>4605.2</ele>
    <time>2026-06-23T09:27:09Z</time>
   </trkpt>
   <trkpt lat="-3.1014600" lon="37.3785910">
    <ele>4605.2</ele>
    <time>2026-06-23T09:27:10Z</time>
   </trkpt>
   <trkpt lat="-3.1014600" lon="37.3785910">
    <ele>4605.2</ele>
    <time>2026-06-23T09:27:11Z</time>
   </trkpt>
   <trkpt lat="-3.1014600" lon="37.3785910">
    <ele>4605.2</ele>
    <time>2026-06-23T09:27:12Z</time>
   </trkpt>
   <trkpt lat="-3.1014590" lon="37.3785910">
    <ele>4605.2</ele>
    <time>2026-06-23T09:27:13Z</time>
   </trkpt>
   <trkpt lat="-3.1014590" lon="37.3785910">
    <ele>4605.2</ele>
    <time>2026-06-23T09:27:14Z</time>
   </trkpt>
   <trkpt lat="-3.1014590" lon="37.3785920">
    <ele>4605.2</ele>
    <time>2026-06-23T09:27:15Z</time>
   </trkpt>
   <trkpt lat="-3.1014590" lon="37.3785920">
    <ele>4605.2</ele>
    <time>2026-06-23T09:27:16Z</time>
   </trkpt>
   <trkpt lat="-3.1014590" lon="37.3785920">
    <ele>4605.2</ele>
    <time>2026-06-23T09:27:17Z</time>
   </trkpt>
   <trkpt lat="-3.1014590" lon="37.3785920">
    <ele>4605.2</ele>
    <time>2026-06-23T09:27:18Z</time>
   </trkpt>
   <trkpt lat="-3.1014590" lon="37.3785920">
    <ele>4605.2</ele>
    <time>2026-06-23T09:27:19Z</time>
   </trkpt>
   <trkpt lat="-3.1014590" lon="37.3785930">
    <ele>4605.1</ele>
    <time>2026-06-23T09:27:20Z</time>
   </trkpt>
   <trkpt lat="-3.1014590" lon="37.3785930">
    <ele>4605.1</ele>
    <time>2026-06-23T09:27:21Z</time>
   </trkpt>
   <trkpt lat="-3.1014590" lon="37.3785930">
    <ele>4605.1</ele>
    <time>2026-06-23T09:27:22Z</time>
   </trkpt>
   <trkpt lat="-3.1014580" lon="37.3785930">
    <ele>4605.1</ele>
    <time>2026-06-23T09:27:23Z</time>
   </trkpt>
   <trkpt lat="-3.1014580" lon="37.3785930">
    <ele>4605.1</ele>
    <time>2026-06-23T09:27:24Z</time>
   </trkpt>
   <trkpt lat="-3.1014580" lon="37.3785930">
    <ele>4605.1</ele>
    <time>2026-06-23T09:27:25Z</time>
   </trkpt>
   <trkpt lat="-3.1014580" lon="37.3785940">
    <ele>4605.1</ele>
    <time>2026-06-23T09:27:26Z</time>
   </trkpt>
   <trkpt lat="-3.1014580" lon="37.3785940">
    <ele>4605.1</ele>
    <time>2026-06-23T09:27:27Z</time>
   </trkpt>
   <trkpt lat="-3.1014580" lon="37.3785940">
    <ele>4605.1</ele>
    <time>2026-06-23T09:27:28Z</time>
   </trkpt>
   <trkpt lat="-3.1014580" lon="37.3785940">
    <ele>4605.1</ele>
    <time>2026-06-23T09:27:29Z</time>
   </trkpt>
   <trkpt lat="-3.1014580" lon="37.3785940">
    <ele>4605.1</ele>
    <time>2026-06-23T09:27:30Z</time>
   </trkpt>
   <trkpt lat="-3.1014580" lon="37.3785940">
    <ele>4605.1</ele>
    <time>2026-06-23T09:27:31Z</time>
   </trkpt>
   <trkpt lat="-3.1014580" lon="37.3785950">
    <ele>4605.1</ele>
    <time>2026-06-23T09:27:32Z</time>
   </trkpt>
   <trkpt lat="-3.1014580" lon="37.3785950">
    <ele>4605.1</ele>
    <time>2026-06-23T09:27:33Z</time>
   </trkpt>
   <trkpt lat="-3.1014570" lon="37.3785950">
    <ele>4605.1</ele>
    <time>2026-06-23T09:27:34Z</time>
   </trkpt>
   <trkpt lat="-3.1014570" lon="37.3785950">
    <ele>4605.1</ele>
    <time>2026-06-23T09:27:35Z</time>
   </trkpt>
   <trkpt lat="-3.1014570" lon="37.3785950">
    <ele>4605.1</ele>
    <time>2026-06-23T09:27:36Z</time>
   </trkpt>
   <trkpt lat="-3.1014570" lon="37.3785950">
    <ele>4605.1</ele>
    <time>2026-06-23T09:27:37Z</time>
   </trkpt>
   <trkpt lat="-3.1014570" lon="37.3785960">
    <ele>4605.1</ele>
    <time>2026-06-23T09:27:38Z</time>
   </trkpt>
   <trkpt lat="-3.1014570" lon="37.3785960">
    <ele>4605.1</ele>
    <time>2026-06-23T09:27:39Z</time>
   </trkpt>
   <trkpt lat="-3.1014570" lon="37.3785960">
    <ele>4605.1</ele>
    <time>2026-06-23T09:27:40Z</time>
   </trkpt>
   <trkpt lat="-3.1014570" lon="37.3785960">
    <ele>4605.1</ele>
    <time>2026-06-23T09:27:41Z</time>
   </trkpt>
   <trkpt lat="-3.1014570" lon="37.3785960">
    <ele>4605.1</ele>
    <time>2026-06-23T09:27:42Z</time>
   </trkpt>
   <trkpt lat="-3.1014570" lon="37.3785960">
    <ele>4605.1</ele>
    <time>2026-06-23T09:27:43Z</time>
   </trkpt>
   <trkpt lat="-3.1014570" lon="37.3785970">
    <ele>4605.1</ele>
    <time>2026-06-23T09:27:44Z</time>
   </trkpt>
   <trkpt lat="-3.1014560" lon="37.3785970">
    <ele>4605.1</ele>
    <time>2026-06-23T09:27:45Z</time>
   </trkpt>
   <trkpt lat="-3.1014560" lon="37.3785970">
    <ele>4605.1</ele>
    <time>2026-06-23T09:27:46Z</time>
   </trkpt>
   <trkpt lat="-3.1014560" lon="37.3785970">
    <ele>4605.1</ele>
    <time>2026-06-23T09:27:47Z</time>
   </trkpt>
   <trkpt lat="-3.1014560" lon="37.3785970">
    <ele>4605.1</ele>
    <time>2026-06-23T09:27:48Z</time>
   </trkpt>
   <trkpt lat="-3.1014560" lon="37.3785970">
    <ele>4605.1</ele>
    <time>2026-06-23T09:27:49Z</time>
   </trkpt>
   <trkpt lat="-3.1014560" lon="37.3785980">
    <ele>4605.0</ele>
    <time>2026-06-23T09:27:50Z</time>
   </trkpt>
   <trkpt lat="-3.1014560" lon="37.3785980">
    <ele>4605.0</ele>
    <time>2026-06-23T09:27:51Z</time>
   </trkpt>
   <trkpt lat="-3.1014560" lon="37.3785980">
    <ele>4605.0</ele>
    <time>2026-06-23T09:27:52Z</time>
   </trkpt>
   <trkpt lat="-3.1014560" lon="37.3785980">
    <ele>4605.0</ele>
    <time>2026-06-23T09:27:53Z</time>
   </trkpt>
   <trkpt lat="-3.1014560" lon="37.3785980">
    <ele>4605.0</ele>
    <time>2026-06-23T09:27:54Z</time>
   </trkpt>
   <trkpt lat="-3.1014550" lon="37.3785980">
    <ele>4605.0</ele>
    <time>2026-06-23T09:27:55Z</time>
   </trkpt>
   <trkpt lat="-3.1014550" lon="37.3785990">
    <ele>4605.0</ele>
    <time>2026-06-23T09:27:56Z</time>
   </trkpt>
   <trkpt lat="-3.1014550" lon="37.3785990">
    <ele>4605.0</ele>
    <time>2026-06-23T09:27:57Z</time>
   </trkpt>
   <trkpt lat="-3.1014550" lon="37.3785990">
    <ele>4605.0</ele>
    <time>2026-06-23T09:27:58Z</time>
   </trkpt>
   <trkpt lat="-3.1014550" lon="37.3785990">
    <ele>4605.0</ele>
    <time>2026-06-23T09:27:59Z</time>
   </trkpt>
   <trkpt lat="-3.1014550" lon="37.3785990">
    <ele>4605.0</ele>
    <time>2026-06-23T09:28:00Z</time>
   </trkpt>
   <trkpt lat="-3.1014550" lon="37.3786000">
    <ele>4605.0</ele>
    <time>2026-06-23T09:28:01Z</time>
   </trkpt>
   <trkpt lat="-3.1014550" lon="37.3786000">
    <ele>4605.0</ele>
    <time>2026-06-23T09:28:02Z</time>
   </trkpt>
   <trkpt lat="-3.1014550" lon="37.3786000">
    <ele>4605.0</ele>
    <time>2026-06-23T09:28:03Z</time>
   </trkpt>
   <trkpt lat="-3.1014550" lon="37.3786000">
    <ele>4605.0</ele>
    <time>2026-06-23T09:28:04Z</time>
   </trkpt>
   <trkpt lat="-3.1014550" lon="37.3786000">
    <ele>4605.0</ele>
    <time>2026-06-23T09:28:05Z</time>
   </trkpt>
   <trkpt lat="-3.1014540" lon="37.3786000">
    <ele>4605.0</ele>
    <time>2026-06-23T09:28:06Z</time>
   </trkpt>
   <trkpt lat="-3.1014540" lon="37.3786010">
    <ele>4605.0</ele>
    <time>2026-06-23T09:28:07Z</time>
   </trkpt>
   <trkpt lat="-3.1014540" lon="37.3786010">
    <ele>4605.0</ele>
    <time>2026-06-23T09:28:08Z</time>
   </trkpt>
   <trkpt lat="-3.1014540" lon="37.3786010">
    <ele>4605.0</ele>
    <time>2026-06-23T09:28:09Z</time>
   </trkpt>
   <trkpt lat="-3.1014540" lon="37.3786010">
    <ele>4605.0</ele>
    <time>2026-06-23T09:28:10Z</time>
   </trkpt>
   <trkpt lat="-3.1014540" lon="37.3786010">
    <ele>4605.0</ele>
    <time>2026-06-23T09:28:11Z</time>
   </trkpt>
   <trkpt lat="-3.1014540" lon="37.3786010">
    <ele>4605.0</ele>
    <time>2026-06-23T09:28:12Z</time>
   </trkpt>
   <trkpt lat="-3.1014540" lon="37.3786020">
    <ele>4605.0</ele>
    <time>2026-06-23T09:28:13Z</time>
   </trkpt>
   <trkpt lat="-3.1014540" lon="37.3786020">
    <ele>4605.0</ele>
    <time>2026-06-23T09:28:14Z</time>
   </trkpt>
   <trkpt lat="-3.1014540" lon="37.3786020">
    <ele>4605.0</ele>
    <time>2026-06-23T09:28:15Z</time>
   </trkpt>
   <trkpt lat="-3.1014540" lon="37.3786020">
    <ele>4605.0</ele>
    <time>2026-06-23T09:28:16Z</time>
   </trkpt>
   <trkpt lat="-3.1014530" lon="37.3786020">
    <ele>4604.9</ele>
    <time>2026-06-23T09:28:17Z</time>
   </trkpt>
   <trkpt lat="-3.1014530" lon="37.3786020">
    <ele>4604.9</ele>
    <time>2026-06-23T09:28:18Z</time>
   </trkpt>
   <trkpt lat="-3.1014530" lon="37.3786030">
    <ele>4604.9</ele>
    <time>2026-06-23T09:28:19Z</time>
   </trkpt>
   <trkpt lat="-3.1014530" lon="37.3786030">
    <ele>4604.9</ele>
    <time>2026-06-23T09:28:20Z</time>
   </trkpt>
   <trkpt lat="-3.1014530" lon="37.3786030">
    <ele>4604.9</ele>
    <time>2026-06-23T09:28:21Z</time>
   </trkpt>
   <trkpt lat="-3.1014530" lon="37.3786030">
    <ele>4604.9</ele>
    <time>2026-06-23T09:28:22Z</time>
   </trkpt>
   <trkpt lat="-3.1014530" lon="37.3786030">
    <ele>4604.9</ele>
    <time>2026-06-23T09:28:23Z</time>
   </trkpt>
   <trkpt lat="-3.1014530" lon="37.3786030">
    <ele>4604.9</ele>
    <time>2026-06-23T09:28:24Z</time>
   </trkpt>
   <trkpt lat="-3.1014530" lon="37.3786040">
    <ele>4604.9</ele>
    <time>2026-06-23T09:28:25Z</time>
   </trkpt>
   <trkpt lat="-3.1014530" lon="37.3786040">
    <ele>4604.9</ele>
    <time>2026-06-23T09:28:26Z</time>
   </trkpt>
   <trkpt lat="-3.1014530" lon="37.3786040">
    <ele>4604.9</ele>
    <time>2026-06-23T09:28:27Z</time>
   </trkpt>
   <trkpt lat="-3.1014520" lon="37.3786040">
    <ele>4604.9</ele>
    <time>2026-06-23T09:28:28Z</time>
   </trkpt>
   <trkpt lat="-3.1014520" lon="37.3786040">
    <ele>4604.9</ele>
    <time>2026-06-23T09:28:29Z</time>
   </trkpt>
   <trkpt lat="-3.1014520" lon="37.3786040">
    <ele>4604.9</ele>
    <time>2026-06-23T09:28:30Z</time>
   </trkpt>
   <trkpt lat="-3.1014520" lon="37.3786050">
    <ele>4604.9</ele>
    <time>2026-06-23T09:28:31Z</time>
   </trkpt>
   <trkpt lat="-3.1014520" lon="37.3786050">
    <ele>4604.9</ele>
    <time>2026-06-23T09:28:32Z</time>
   </trkpt>
   <trkpt lat="-3.1014520" lon="37.3786050">
    <ele>4604.9</ele>
    <time>2026-06-23T09:28:33Z</time>
   </trkpt>
   <trkpt lat="-3.1014520" lon="37.3786050">
    <ele>4604.9</ele>
    <time>2026-06-23T09:28:34Z</time>
   </trkpt>
   <trkpt lat="-3.1014520" lon="37.3786050">
    <ele>4604.9</ele>
    <time>2026-06-23T09:28:35Z</time>
   </trkpt>
   <trkpt lat="-3.1014520" lon="37.3786050">
    <ele>4604.9</ele>
    <time>2026-06-23T09:28:36Z</time>
   </trkpt>
   <trkpt lat="-3.1014520" lon="37.3786060">
    <ele>4604.9</ele>
    <time>2026-06-23T09:28:37Z</time>
   </trkpt>
   <trkpt lat="-3.1014510" lon="37.3786060">
    <ele>4604.9</ele>
    <time>2026-06-23T09:28:38Z</time>
   </trkpt>
   <trkpt lat="-3.1014510" lon="37.3786060">
    <ele>4604.9</ele>
    <time>2026-06-23T09:28:39Z</time>
   </trkpt>
   <trkpt lat="-3.1014510" lon="37.3786060">
    <ele>4604.9</ele>
    <time>2026-06-23T09:28:40Z</time>
   </trkpt>
   <trkpt lat="-3.1014510" lon="37.3786060">
    <ele>4604.9</ele>
    <time>2026-06-23T09:28:41Z</time>
   </trkpt>
   <trkpt lat="-3.1014510" lon="37.3786060">
    <ele>4604.9</ele>
    <time>2026-06-23T09:28:42Z</time>
   </trkpt>
   <trkpt lat="-3.1014510" lon="37.3786070">
    <ele>4604.9</ele>
    <time>2026-06-23T09:28:43Z</time>
   </trkpt>
   <trkpt lat="-3.1014510" lon="37.3786070">
    <ele>4604.9</ele>
    <time>2026-06-23T09:28:44Z</time>
   </trkpt>
   <trkpt lat="-3.1014510" lon="37.3786070">
    <ele>4604.9</ele>
    <time>2026-06-23T09:28:45Z</time>
   </trkpt>
   <trkpt lat="-3.1014510" lon="37.3786070">
    <ele>4604.9</ele>
    <time>2026-06-23T09:28:46Z</time>
   </trkpt>
   <trkpt lat="-3.1014510" lon="37.3786070">
    <ele>4604.9</ele>
    <time>2026-06-23T09:28:47Z</time>
   </trkpt>
   <trkpt lat="-3.1014510" lon="37.3786080">
    <ele>4604.8</ele>
    <time>2026-06-23T09:28:48Z</time>
   </trkpt>
   <trkpt lat="-3.1014500" lon="37.3786080">
    <ele>4604.8</ele>
    <time>2026-06-23T09:28:49Z</time>
   </trkpt>
   <trkpt lat="-3.1014500" lon="37.3786080">
    <ele>4604.8</ele>
    <time>2026-06-23T09:28:50Z</time>
   </trkpt>
   <trkpt lat="-3.1014500" lon="37.3786080">
    <ele>4604.8</ele>
    <time>2026-06-23T09:28:51Z</time>
   </trkpt>
   <trkpt lat="-3.1014500" lon="37.3786080">
    <ele>4604.8</ele>
    <time>2026-06-23T09:28:52Z</time>
   </trkpt>
   <trkpt lat="-3.1014500" lon="37.3786080">
    <ele>4604.8</ele>
    <time>2026-06-23T09:28:53Z</time>
   </trkpt>
   <trkpt lat="-3.1014500" lon="37.3786090">
    <ele>4604.8</ele>
    <time>2026-06-23T09:28:54Z</time>
   </trkpt>
   <trkpt lat="-3.1014500" lon="37.3786090">
    <ele>4604.8</ele>
    <time>2026-06-23T09:28:55Z</time>
   </trkpt>
   <trkpt lat="-3.1014500" lon="37.3786090">
    <ele>4604.8</ele>
    <time>2026-06-23T09:28:56Z</time>
   </trkpt>
   <trkpt lat="-3.1014500" lon="37.3786090">
    <ele>4604.8</ele>
    <time>2026-06-23T09:28:57Z</time>
   </trkpt>
   <trkpt lat="-3.1014500" lon="37.3786090">
    <ele>4604.8</ele>
    <time>2026-06-23T09:28:58Z</time>
   </trkpt>
   <trkpt lat="-3.1014500" lon="37.3786090">
    <ele>4604.8</ele>
    <time>2026-06-23T09:28:59Z</time>
   </trkpt>
   <trkpt lat="-3.1014490" lon="37.3786100">
    <ele>4604.8</ele>
    <time>2026-06-23T09:29:00Z</time>
   </trkpt>
   <trkpt lat="-3.1014490" lon="37.3786100">
    <ele>4604.8</ele>
    <time>2026-06-23T09:29:01Z</time>
   </trkpt>
   <trkpt lat="-3.1014490" lon="37.3786100">
    <ele>4604.8</ele>
    <time>2026-06-23T09:29:02Z</time>
   </trkpt>
   <trkpt lat="-3.1014490" lon="37.3786100">
    <ele>4604.8</ele>
    <time>2026-06-23T09:29:03Z</time>
   </trkpt>
   <trkpt lat="-3.1014490" lon="37.3786100">
    <ele>4604.8</ele>
    <time>2026-06-23T09:29:04Z</time>
   </trkpt>
   <trkpt lat="-3.1014490" lon="37.3786100">
    <ele>4604.8</ele>
    <time>2026-06-23T09:29:05Z</time>
   </trkpt>
   <trkpt lat="-3.1014490" lon="37.3786110">
    <ele>4604.8</ele>
    <time>2026-06-23T09:29:06Z</time>
   </trkpt>
   <trkpt lat="-3.1014490" lon="37.3786110">
    <ele>4604.8</ele>
    <time>2026-06-23T09:29:07Z</time>
   </trkpt>
   <trkpt lat="-3.1014490" lon="37.3786110">
    <ele>4604.8</ele>
    <time>2026-06-23T09:29:08Z</time>
   </trkpt>
   <trkpt lat="-3.1014490" lon="37.3786110">
    <ele>4604.8</ele>
    <time>2026-06-23T09:29:09Z</time>
   </trkpt>
   <trkpt lat="-3.1014480" lon="37.3786110">
    <ele>4604.8</ele>
    <time>2026-06-23T09:29:10Z</time>
   </trkpt>
   <trkpt lat="-3.1014480" lon="37.3786110">
    <ele>4604.8</ele>
    <time>2026-06-23T09:29:11Z</time>
   </trkpt>
   <trkpt lat="-3.1014480" lon="37.3786120">
    <ele>4604.7</ele>
    <time>2026-06-23T09:29:12Z</time>
   </trkpt>
   <trkpt lat="-3.1014480" lon="37.3786120">
    <ele>4604.7</ele>
    <time>2026-06-23T09:29:13Z</time>
   </trkpt>
   <trkpt lat="-3.1014480" lon="37.3786120">
    <ele>4604.7</ele>
    <time>2026-06-23T09:29:14Z</time>
   </trkpt>
   <trkpt lat="-3.1014480" lon="37.3786120">
    <ele>4604.7</ele>
    <time>2026-06-23T09:29:15Z</time>
   </trkpt>
   <trkpt lat="-3.1014480" lon="37.3786120">
    <ele>4604.7</ele>
    <time>2026-06-23T09:29:16Z</time>
   </trkpt>
   <trkpt lat="-3.1014480" lon="37.3786120">
    <ele>4604.7</ele>
    <time>2026-06-23T09:29:17Z</time>
   </trkpt>
   <trkpt lat="-3.1014480" lon="37.3786130">
    <ele>4604.7</ele>
    <time>2026-06-23T09:29:18Z</time>
   </trkpt>
   <trkpt lat="-3.1014480" lon="37.3786130">
    <ele>4604.7</ele>
    <time>2026-06-23T09:29:19Z</time>
   </trkpt>
   <trkpt lat="-3.1014480" lon="37.3786130">
    <ele>4604.7</ele>
    <time>2026-06-23T09:29:20Z</time>
   </trkpt>
   <trkpt lat="-3.1014470" lon="37.3786130">
    <ele>4604.7</ele>
    <time>2026-06-23T09:29:21Z</time>
   </trkpt>
   <trkpt lat="-3.1014470" lon="37.3786130">
    <ele>4604.7</ele>
    <time>2026-06-23T09:29:22Z</time>
   </trkpt>
   <trkpt lat="-3.1014470" lon="37.3786130">
    <ele>4604.7</ele>
    <time>2026-06-23T09:29:23Z</time>
   </trkpt>
   <trkpt lat="-3.1014470" lon="37.3786140">
    <ele>4604.7</ele>
    <time>2026-06-23T09:29:24Z</time>
   </trkpt>
   <trkpt lat="-3.1014470" lon="37.3786140">
    <ele>4604.7</ele>
    <time>2026-06-23T09:29:25Z</time>
   </trkpt>
   <trkpt lat="-3.1014470" lon="37.3786140">
    <ele>4604.7</ele>
    <time>2026-06-23T09:29:26Z</time>
   </trkpt>
   <trkpt lat="-3.1014340" lon="37.3785950">
    <ele>4604.4</ele>
    <time>2026-06-23T09:29:27Z</time>
   </trkpt>
   <trkpt lat="-3.1014390" lon="37.3785900">
    <ele>4604.3</ele>
    <time>2026-06-23T09:29:28Z</time>
   </trkpt>
   <trkpt lat="-3.1014380" lon="37.3785890">
    <ele>4604.3</ele>
    <time>2026-06-23T09:29:29Z</time>
   </trkpt>
   <trkpt lat="-3.1014350" lon="37.3785740">
    <ele>4604.1</ele>
    <time>2026-06-23T09:29:30Z</time>
   </trkpt>
   <trkpt lat="-3.1014400" lon="37.3785710">
    <ele>4604.0</ele>
    <time>2026-06-23T09:29:31Z</time>
   </trkpt>
   <trkpt lat="-3.1014410" lon="37.3785710">
    <ele>4604.0</ele>
    <time>2026-06-23T09:29:32Z</time>
   </trkpt>
   <trkpt lat="-3.1014410" lon="37.3785710">
    <ele>4604.0</ele>
    <time>2026-06-23T09:29:33Z</time>
   </trkpt>
   <trkpt lat="-3.1014340" lon="37.3785690">
    <ele>4603.9</ele>
    <time>2026-06-23T09:29:34Z</time>
   </trkpt>
   <trkpt lat="-3.1014340" lon="37.3785690">
    <ele>4603.9</ele>
    <time>2026-06-23T09:29:35Z</time>
   </trkpt>
   <trkpt lat="-3.1014280" lon="37.3785690">
    <ele>4603.8</ele>
    <time>2026-06-23T09:29:36Z</time>
   </trkpt>
   <trkpt lat="-3.1014280" lon="37.3785690">
    <ele>4603.8</ele>
    <time>2026-06-23T09:29:37Z</time>
   </trkpt>
   <trkpt lat="-3.1014280" lon="37.3785690">
    <ele>4603.8</ele>
    <time>2026-06-23T09:29:38Z</time>
   </trkpt>
   <trkpt lat="-3.1014280" lon="37.3785690">
    <ele>4603.8</ele>
    <time>2026-06-23T09:29:39Z</time>
   </trkpt>
   <trkpt lat="-3.1014280" lon="37.3785690">
    <ele>4603.8</ele>
    <time>2026-06-23T09:29:40Z</time>
   </trkpt>
   <trkpt lat="-3.1014360" lon="37.3785740">
    <ele>4603.7</ele>
    <time>2026-06-23T09:29:41Z</time>
   </trkpt>
   <trkpt lat="-3.1014360" lon="37.3785740">
    <ele>4603.7</ele>
    <time>2026-06-23T09:29:42Z</time>
   </trkpt>
   <trkpt lat="-3.1014360" lon="37.3785740">
    <ele>4603.7</ele>
    <time>2026-06-23T09:29:43Z</time>
   </trkpt>
   <trkpt lat="-3.1014360" lon="37.3785740">
    <ele>4603.7</ele>
    <time>2026-06-23T09:29:44Z</time>
   </trkpt>
   <trkpt lat="-3.1014430" lon="37.3785770">
    <ele>4603.6</ele>
    <time>2026-06-23T09:29:45Z</time>
   </trkpt>
   <trkpt lat="-3.1014430" lon="37.3785760">
    <ele>4603.6</ele>
    <time>2026-06-23T09:29:46Z</time>
   </trkpt>
   <trkpt lat="-3.1014430" lon="37.3785760">
    <ele>4603.6</ele>
    <time>2026-06-23T09:29:47Z</time>
   </trkpt>
   <trkpt lat="-3.1014430" lon="37.3785760">
    <ele>4603.6</ele>
    <time>2026-06-23T09:29:48Z</time>
   </trkpt>
   <trkpt lat="-3.1014430" lon="37.3785760">
    <ele>4603.6</ele>
    <time>2026-06-23T09:29:49Z</time>
   </trkpt>
   <trkpt lat="-3.1014440" lon="37.3785780">
    <ele>4603.5</ele>
    <time>2026-06-23T09:29:50Z</time>
   </trkpt>
   <trkpt lat="-3.1014450" lon="37.3785760">
    <ele>4603.5</ele>
    <time>2026-06-23T09:29:51Z</time>
   </trkpt>
   <trkpt lat="-3.1014460" lon="37.3785790">
    <ele>4603.5</ele>
    <time>2026-06-23T09:29:52Z</time>
   </trkpt>
   <trkpt lat="-3.1014440" lon="37.3785820">
    <ele>4603.4</ele>
    <time>2026-06-23T09:29:53Z</time>
   </trkpt>
   <trkpt lat="-3.1014440" lon="37.3785800">
    <ele>4603.4</ele>
    <time>2026-06-23T09:29:54Z</time>
   </trkpt>
   <trkpt lat="-3.1014440" lon="37.3785800">
    <ele>4603.4</ele>
    <time>2026-06-23T09:29:55Z</time>
   </trkpt>
   <trkpt lat="-3.1014440" lon="37.3785800">
    <ele>4603.4</ele>
    <time>2026-06-23T09:29:56Z</time>
   </trkpt>
   <trkpt lat="-3.1014440" lon="37.3785800">
    <ele>4603.4</ele>
    <time>2026-06-23T09:29:57Z</time>
   </trkpt>
   <trkpt lat="-3.1014440" lon="37.3785800">
    <ele>4603.4</ele>
    <time>2026-06-23T09:29:58Z</time>
   </trkpt>
   <trkpt lat="-3.1014440" lon="37.3785800">
    <ele>4603.4</ele>
    <time>2026-06-23T09:29:59Z</time>
   </trkpt>
   <trkpt lat="-3.1014440" lon="37.3785800">
    <ele>4603.4</ele>
    <time>2026-06-23T09:30:00Z</time>
   </trkpt>
   <trkpt lat="-3.1014440" lon="37.3785800">
    <ele>4603.4</ele>
    <time>2026-06-23T09:30:01Z</time>
   </trkpt>
   <trkpt lat="-3.1014440" lon="37.3785800">
    <ele>4603.4</ele>
    <time>2026-06-23T09:30:02Z</time>
   </trkpt>
   <trkpt lat="-3.1014440" lon="37.3785800">
    <ele>4603.4</ele>
    <time>2026-06-23T09:30:03Z</time>
   </trkpt>
   <trkpt lat="-3.1014440" lon="37.3785800">
    <ele>4603.4</ele>
    <time>2026-06-23T09:30:04Z</time>
   </trkpt>
   <trkpt lat="-3.1014440" lon="37.3785800">
    <ele>4603.4</ele>
    <time>2026-06-23T09:30:05Z</time>
   </trkpt>
   <trkpt lat="-3.1014440" lon="37.3785800">
    <ele>4603.4</ele>
    <time>2026-06-23T09:30:06Z</time>
   </trkpt>
   <trkpt lat="-3.1014440" lon="37.3785800">
    <ele>4603.4</ele>
    <time>2026-06-23T09:30:07Z</time>
   </trkpt>
   <trkpt lat="-3.1014440" lon="37.3785800">
    <ele>4603.4</ele>
    <time>2026-06-23T09:30:08Z</time>
   </trkpt>
   <trkpt lat="-3.1014440" lon="37.3785800">
    <ele>4603.4</ele>
    <time>2026-06-23T09:30:09Z</time>
   </trkpt>
   <trkpt lat="-3.1014440" lon="37.3785800">
    <ele>4603.4</ele>
    <time>2026-06-23T09:30:10Z</time>
   </trkpt>
   <trkpt lat="-3.1014440" lon="37.3785800">
    <ele>4603.4</ele>
    <time>2026-06-23T09:30:11Z</time>
   </trkpt>
   <trkpt lat="-3.1014440" lon="37.3785800">
    <ele>4603.4</ele>
    <time>2026-06-23T09:30:12Z</time>
   </trkpt>
   <trkpt lat="-3.1014440" lon="37.3785800">
    <ele>4603.4</ele>
    <time>2026-06-23T09:30:13Z</time>
   </trkpt>
   <trkpt lat="-3.1014440" lon="37.3785800">
    <ele>4603.4</ele>
    <time>2026-06-23T09:30:14Z</time>
   </trkpt>
   <trkpt lat="-3.1014440" lon="37.3785800">
    <ele>4603.4</ele>
    <time>2026-06-23T09:30:15Z</time>
   </trkpt>
   <trkpt lat="-3.1014440" lon="37.3785800">
    <ele>4603.4</ele>
    <time>2026-06-23T09:30:16Z</time>
   </trkpt>
   <trkpt lat="-3.1014440" lon="37.3785800">
    <ele>4603.4</ele>
    <time>2026-06-23T09:30:17Z</time>
   </trkpt>
   <trkpt lat="-3.1014440" lon="37.3785800">
    <ele>4603.4</ele>
    <time>2026-06-23T09:30:18Z</time>
   </trkpt>
   <trkpt lat="-3.1014440" lon="37.3785800">
    <ele>4603.4</ele>
    <time>2026-06-23T09:30:19Z</time>
   </trkpt>
   <trkpt lat="-3.1014440" lon="37.3785800">
    <ele>4603.4</ele>
    <time>2026-06-23T09:30:20Z</time>
   </trkpt>
   <trkpt lat="-3.1014440" lon="37.3785800">
    <ele>4603.4</ele>
    <time>2026-06-23T09:30:21Z</time>
   </trkpt>
   <trkpt lat="-3.1014440" lon="37.3785800">
    <ele>4603.4</ele>
    <time>2026-06-23T09:30:22Z</time>
   </trkpt>
   <trkpt lat="-3.1014440" lon="37.3785800">
    <ele>4603.4</ele>
    <time>2026-06-23T09:30:23Z</time>
   </trkpt>
   <trkpt lat="-3.1014440" lon="37.3785800">
    <ele>4603.4</ele>
    <time>2026-06-23T09:30:24Z</time>
   </trkpt>
   <trkpt lat="-3.1014440" lon="37.3785800">
    <ele>4603.4</ele>
    <time>2026-06-23T09:30:25Z</time>
   </trkpt>
   <trkpt lat="-3.1014440" lon="37.3785800">
    <ele>4603.4</ele>
    <time>2026-06-23T09:30:26Z</time>
   </trkpt>
   <trkpt lat="-3.1014440" lon="37.3785800">
    <ele>4603.4</ele>
    <time>2026-06-23T09:30:27Z</time>
   </trkpt>
   <trkpt lat="-3.1014440" lon="37.3785800">
    <ele>4603.4</ele>
    <time>2026-06-23T09:30:28Z</time>
   </trkpt>
   <trkpt lat="-3.1014440" lon="37.3785800">
    <ele>4603.4</ele>
    <time>2026-06-23T09:30:29Z</time>
   </trkpt>
   <trkpt lat="-3.1014440" lon="37.3785800">
    <ele>4603.4</ele>
    <time>2026-06-23T09:30:30Z</time>
   </trkpt>
   <trkpt lat="-3.1014440" lon="37.3785800">
    <ele>4603.4</ele>
    <time>2026-06-23T09:30:31Z</time>
   </trkpt>
   <trkpt lat="-3.1014440" lon="37.3785800">
    <ele>4603.4</ele>
    <time>2026-06-23T09:30:32Z</time>
   </trkpt>
   <trkpt lat="-3.1014440" lon="37.3785800">
    <ele>4603.4</ele>
    <time>2026-06-23T09:30:33Z</time>
   </trkpt>
   <trkpt lat="-3.1014440" lon="37.3785800">
    <ele>4603.4</ele>
    <time>2026-06-23T09:30:34Z</time>
   </trkpt>
   <trkpt lat="-3.1014440" lon="37.3785800">
    <ele>4603.4</ele>
    <time>2026-06-23T09:30:35Z</time>
   </trkpt>
   <trkpt lat="-3.1014440" lon="37.3785800">
    <ele>4603.4</ele>
    <time>2026-06-23T09:30:36Z</time>
   </trkpt>
   <trkpt lat="-3.1014440" lon="37.3785800">
    <ele>4603.4</ele>
    <time>2026-06-23T09:30:37Z</time>
   </trkpt>
   <trkpt lat="-3.1014440" lon="37.3785800">
    <ele>4603.4</ele>
    <time>2026-06-23T09:30:38Z</time>
   </trkpt>
   <trkpt lat="-3.1014440" lon="37.3785800">
    <ele>4603.4</ele>
    <time>2026-06-23T09:30:39Z</time>
   </trkpt>
   <trkpt lat="-3.1014440" lon="37.3785800">
    <ele>4603.4</ele>
    <time>2026-06-23T09:30:40Z</time>
   </trkpt>
   <trkpt lat="-3.1014440" lon="37.3785800">
    <ele>4603.4</ele>
    <time>2026-06-23T09:30:41Z</time>
   </trkpt>
   <trkpt lat="-3.1014440" lon="37.3785800">
    <ele>4603.4</ele>
    <time>2026-06-23T09:30:42Z</time>
   </trkpt>
   <trkpt lat="-3.1014440" lon="37.3785800">
    <ele>4603.4</ele>
    <time>2026-06-23T09:30:43Z</time>
   </trkpt>
   <trkpt lat="-3.1014440" lon="37.3785800">
    <ele>4603.4</ele>
    <time>2026-06-23T09:30:44Z</time>
   </trkpt>
   <trkpt lat="-3.1014440" lon="37.3785800">
    <ele>4603.4</ele>
    <time>2026-06-23T09:30:45Z</time>
   </trkpt>
   <trkpt lat="-3.1014440" lon="37.3785800">
    <ele>4603.4</ele>
    <time>2026-06-23T09:30:46Z</time>
   </trkpt>
   <trkpt lat="-3.1014440" lon="37.3785800">
    <ele>4603.4</ele>
    <time>2026-06-23T09:30:47Z</time>
   </trkpt>
   <trkpt lat="-3.1014440" lon="37.3785800">
    <ele>4603.4</ele>
    <time>2026-06-23T09:30:48Z</time>
   </trkpt>
   <trkpt lat="-3.1014440" lon="37.3785800">
    <ele>4603.4</ele>
    <time>2026-06-23T09:30:49Z</time>
   </trkpt>
   <trkpt lat="-3.1014440" lon="37.3785800">
    <ele>4603.4</ele>
    <time>2026-06-23T09:30:50Z</time>
   </trkpt>
   <trkpt lat="-3.1014440" lon="37.3785800">
    <ele>4603.4</ele>
    <time>2026-06-23T09:30:51Z</time>
   </trkpt>
   <trkpt lat="-3.1014440" lon="37.3785800">
    <ele>4603.4</ele>
    <time>2026-06-23T09:30:52Z</time>
   </trkpt>
   <trkpt lat="-3.1014440" lon="37.3785800">
    <ele>4603.4</ele>
    <time>2026-06-23T09:30:53Z</time>
   </trkpt>
   <trkpt lat="-3.1014440" lon="37.3785800">
    <ele>4603.4</ele>
    <time>2026-06-23T09:30:54Z</time>
   </trkpt>
   <trkpt lat="-3.1014440" lon="37.3785800">
    <ele>4603.4</ele>
    <time>2026-06-23T09:30:55Z</time>
   </trkpt>
   <trkpt lat="-3.1014440" lon="37.3785800">
    <ele>4603.4</ele>
    <time>2026-06-23T09:30:56Z</time>
   </trkpt>
   <trkpt lat="-3.1014440" lon="37.3785800">
    <ele>4603.4</ele>
    <time>2026-06-23T09:30:57Z</time>
   </trkpt>
   <trkpt lat="-3.1014440" lon="37.3785800">
    <ele>4603.4</ele>
    <time>2026-06-23T09:30:58Z</time>
   </trkpt>
   <trkpt lat="-3.1014440" lon="37.3785800">
    <ele>4603.4</ele>
    <time>2026-06-23T09:30:59Z</time>
   </trkpt>
   <trkpt lat="-3.1014440" lon="37.3785800">
    <ele>4603.4</ele>
    <time>2026-06-23T09:31:00Z</time>
   </trkpt>
   <trkpt lat="-3.1014440" lon="37.3785800">
    <ele>4603.4</ele>
    <time>2026-06-23T09:31:01Z</time>
   </trkpt>
   <trkpt lat="-3.1014440" lon="37.3785800">
    <ele>4603.4</ele>
    <time>2026-06-23T09:31:02Z</time>
   </trkpt>
   <trkpt lat="-3.1014440" lon="37.3785800">
    <ele>4603.4</ele>
    <time>2026-06-23T09:31:03Z</time>
   </trkpt>
   <trkpt lat="-3.1014440" lon="37.3785800">
    <ele>4603.4</ele>
    <time>2026-06-23T09:31:04Z</time>
   </trkpt>
   <trkpt lat="-3.1014440" lon="37.3785800">
    <ele>4603.4</ele>
    <time>2026-06-23T09:31:05Z</time>
   </trkpt>
   <trkpt lat="-3.1014440" lon="37.3785800">
    <ele>4603.4</ele>
    <time>2026-06-23T09:31:06Z</time>
   </trkpt>
   <trkpt lat="-3.1014440" lon="37.3785800">
    <ele>4603.4</ele>
    <time>2026-06-23T09:31:07Z</time>
   </trkpt>
   <trkpt lat="-3.1014440" lon="37.3785800">
    <ele>4603.4</ele>
    <time>2026-06-23T09:31:08Z</time>
   </trkpt>
   <trkpt lat="-3.1014440" lon="37.3785800">
    <ele>4603.4</ele>
    <time>2026-06-23T09:31:09Z</time>
   </trkpt>
   <trkpt lat="-3.1014440" lon="37.3785800">
    <ele>4603.4</ele>
    <time>2026-06-23T09:31:10Z</time>
   </trkpt>
   <trkpt lat="-3.1014440" lon="37.3785800">
    <ele>4603.4</ele>
    <time>2026-06-23T09:31:11Z</time>
   </trkpt>
   <trkpt lat="-3.1014440" lon="37.3785800">
    <ele>4603.4</ele>
    <time>2026-06-23T09:31:12Z</time>
   </trkpt>
   <trkpt lat="-3.1014440" lon="37.3785800">
    <ele>4603.4</ele>
    <time>2026-06-23T09:31:13Z</time>
   </trkpt>
   <trkpt lat="-3.1014440" lon="37.3785800">
    <ele>4603.4</ele>
    <time>2026-06-23T09:31:14Z</time>
   </trkpt>
   <trkpt lat="-3.1014440" lon="37.3785800">
    <ele>4603.4</ele>
    <time>2026-06-23T09:31:15Z</time>
   </trkpt>
   <trkpt lat="-3.1014440" lon="37.3785800">
    <ele>4603.4</ele>
    <time>2026-06-23T09:31:16Z</time>
   </trkpt>
   <trkpt lat="-3.1014440" lon="37.3785800">
    <ele>4603.4</ele>
    <time>2026-06-23T09:31:17Z</time>
   </trkpt>
   <trkpt lat="-3.1014440" lon="37.3785800">
    <ele>4603.4</ele>
    <time>2026-06-23T09:31:18Z</time>
   </trkpt>
   <trkpt lat="-3.1014440" lon="37.3785800">
    <ele>4603.4</ele>
    <time>2026-06-23T09:31:19Z</time>
   </trkpt>
   <trkpt lat="-3.1014440" lon="37.3785800">
    <ele>4603.4</ele>
    <time>2026-06-23T09:31:20Z</time>
   </trkpt>
   <trkpt lat="-3.1014440" lon="37.3785800">
    <ele>4603.4</ele>
    <time>2026-06-23T09:31:21Z</time>
   </trkpt>
   <trkpt lat="-3.1014440" lon="37.3785800">
    <ele>4603.4</ele>
    <time>2026-06-23T09:31:22Z</time>
   </trkpt>
   <trkpt lat="-3.1014440" lon="37.3785800">
    <ele>4603.4</ele>
    <time>2026-06-23T09:31:23Z</time>
   </trkpt>
   <trkpt lat="-3.1014440" lon="37.3785800">
    <ele>4603.4</ele>
    <time>2026-06-23T09:31:24Z</time>
   </trkpt>
   <trkpt lat="-3.1014440" lon="37.3785800">
    <ele>4603.4</ele>
    <time>2026-06-23T09:31:25Z</time>
   </trkpt>
   <trkpt lat="-3.1014440" lon="37.3785800">
    <ele>4603.4</ele>
    <time>2026-06-23T09:31:26Z</time>
   </trkpt>
   <trkpt lat="-3.1014440" lon="37.3785800">
    <ele>4603.4</ele>
    <time>2026-06-23T09:31:27Z</time>
   </trkpt>
   <trkpt lat="-3.1014440" lon="37.3785800">
    <ele>4603.4</ele>
    <time>2026-06-23T09:31:28Z</time>
   </trkpt>
   <trkpt lat="-3.1014440" lon="37.3785800">
    <ele>4603.4</ele>
    <time>2026-06-23T09:31:29Z</time>
   </trkpt>
   <trkpt lat="-3.1014440" lon="37.3785800">
    <ele>4603.4</ele>
    <time>2026-06-23T09:31:30Z</time>
   </trkpt>
   <trkpt lat="-3.1014440" lon="37.3785800">
    <ele>4603.4</ele>
    <time>2026-06-23T09:31:31Z</time>
   </trkpt>
   <trkpt lat="-3.1014440" lon="37.3785800">
    <ele>4603.4</ele>
    <time>2026-06-23T09:31:32Z</time>
   </trkpt>
   <trkpt lat="-3.1014440" lon="37.3785800">
    <ele>4603.4</ele>
    <time>2026-06-23T09:31:33Z</time>
   </trkpt>
   <trkpt lat="-3.1014440" lon="37.3785800">
    <ele>4603.4</ele>
    <time>2026-06-23T09:31:34Z</time>
   </trkpt>
   <trkpt lat="-3.1014440" lon="37.3785800">
    <ele>4603.4</ele>
    <time>2026-06-23T09:31:35Z</time>
   </trkpt>
   <trkpt lat="-3.1014440" lon="37.3785800">
    <ele>4603.4</ele>
    <time>2026-06-23T09:31:36Z</time>
   </trkpt>
   <trkpt lat="-3.1014440" lon="37.3785800">
    <ele>4603.4</ele>
    <time>2026-06-23T09:31:37Z</time>
   </trkpt>
   <trkpt lat="-3.1014440" lon="37.3785800">
    <ele>4603.4</ele>
    <time>2026-06-23T09:31:38Z</time>
   </trkpt>
   <trkpt lat="-3.1014440" lon="37.3785800">
    <ele>4603.4</ele>
    <time>2026-06-23T09:31:39Z</time>
   </trkpt>
   <trkpt lat="-3.1014440" lon="37.3785800">
    <ele>4603.4</ele>
    <time>2026-06-23T09:31:40Z</time>
   </trkpt>
   <trkpt lat="-3.1014440" lon="37.3785800">
    <ele>4603.4</ele>
    <time>2026-06-23T09:31:41Z</time>
   </trkpt>
   <trkpt lat="-3.1014440" lon="37.3785800">
    <ele>4603.4</ele>
    <time>2026-06-23T09:31:42Z</time>
   </trkpt>
   <trkpt lat="-3.1014440" lon="37.3785800">
    <ele>4603.4</ele>
    <time>2026-06-23T09:31:43Z</time>
   </trkpt>
   <trkpt lat="-3.1014440" lon="37.3785800">
    <ele>4603.4</ele>
    <time>2026-06-23T09:31:44Z</time>
   </trkpt>
   <trkpt lat="-3.1014440" lon="37.3785800">
    <ele>4603.4</ele>
    <time>2026-06-23T09:31:45Z</time>
   </trkpt>
   <trkpt lat="-3.1014440" lon="37.3785800">
    <ele>4603.4</ele>
    <time>2026-06-23T09:31:46Z</time>
   </trkpt>
   <trkpt lat="-3.1014440" lon="37.3785800">
    <ele>4603.4</ele>
    <time>2026-06-23T09:31:47Z</time>
   </trkpt>
   <trkpt lat="-3.1014440" lon="37.3785800">
    <ele>4603.4</ele>
    <time>2026-06-23T09:31:48Z</time>
   </trkpt>
   <trkpt lat="-3.1014440" lon="37.3785800">
    <ele>4603.4</ele>
    <time>2026-06-23T09:31:49Z</time>
   </trkpt>
   <trkpt lat="-3.1014440" lon="37.3785800">
    <ele>4603.4</ele>
    <time>2026-06-23T09:31:50Z</time>
   </trkpt>
   <trkpt lat="-3.1014440" lon="37.3785800">
    <ele>4603.4</ele>
    <time>2026-06-23T09:31:51Z</time>
   </trkpt>
   <trkpt lat="-3.1014440" lon="37.3785800">
    <ele>4603.4</ele>
    <time>2026-06-23T09:31:52Z</time>
   </trkpt>
   <trkpt lat="-3.1014440" lon="37.3785800">
    <ele>4603.4</ele>
    <time>2026-06-23T09:31:53Z</time>
   </trkpt>
   <trkpt lat="-3.1014440" lon="37.3785800">
    <ele>4603.4</ele>
    <time>2026-06-23T09:31:54Z</time>
   </trkpt>
   <trkpt lat="-3.1014450" lon="37.3785730">
    <ele>4603.3</ele>
    <time>2026-06-23T09:31:55Z</time>
   </trkpt>
   <trkpt lat="-3.1014440" lon="37.3785770">
    <ele>4603.2</ele>
    <time>2026-06-23T09:31:56Z</time>
   </trkpt>
   <trkpt lat="-3.1014490" lon="37.3785740">
    <ele>4603.1</ele>
    <time>2026-06-23T09:31:57Z</time>
   </trkpt>
   <trkpt lat="-3.1014490" lon="37.3785740">
    <ele>4603.1</ele>
    <time>2026-06-23T09:31:58Z</time>
   </trkpt>
   <trkpt lat="-3.1014450" lon="37.3785750">
    <ele>4603.1</ele>
    <time>2026-06-23T09:31:59Z</time>
   </trkpt>
   <trkpt lat="-3.1014460" lon="37.3785760">
    <ele>4603.1</ele>
    <time>2026-06-23T09:32:00Z</time>
   </trkpt>
   <trkpt lat="-3.1014480" lon="37.3785760">
    <ele>4603.0</ele>
    <time>2026-06-23T09:32:01Z</time>
   </trkpt>
   <trkpt lat="-3.1014460" lon="37.3785770">
    <ele>4603.0</ele>
    <time>2026-06-23T09:32:02Z</time>
   </trkpt>
   <trkpt lat="-3.1014450" lon="37.3785760">
    <ele>4603.0</ele>
    <time>2026-06-23T09:32:03Z</time>
   </trkpt>
   <trkpt lat="-3.1014440" lon="37.3785770">
    <ele>4603.0</ele>
    <time>2026-06-23T09:32:04Z</time>
   </trkpt>
   <trkpt lat="-3.1014440" lon="37.3785770">
    <ele>4603.0</ele>
    <time>2026-06-23T09:32:05Z</time>
   </trkpt>
   <trkpt lat="-3.1014490" lon="37.3785760">
    <ele>4602.9</ele>
    <time>2026-06-23T09:32:06Z</time>
   </trkpt>
   <trkpt lat="-3.1014470" lon="37.3785750">
    <ele>4602.9</ele>
    <time>2026-06-23T09:32:07Z</time>
   </trkpt>
   <trkpt lat="-3.1014440" lon="37.3785750">
    <ele>4602.8</ele>
    <time>2026-06-23T09:32:08Z</time>
   </trkpt>
   <trkpt lat="-3.1014450" lon="37.3785730">
    <ele>4602.8</ele>
    <time>2026-06-23T09:32:09Z</time>
   </trkpt>
   <trkpt lat="-3.1014450" lon="37.3785720">
    <ele>4602.8</ele>
    <time>2026-06-23T09:32:10Z</time>
   </trkpt>
   <trkpt lat="-3.1014420" lon="37.3785700">
    <ele>4602.7</ele>
    <time>2026-06-23T09:32:11Z</time>
   </trkpt>
   <trkpt lat="-3.1014450" lon="37.3785690">
    <ele>4602.7</ele>
    <time>2026-06-23T09:32:12Z</time>
   </trkpt>
   <trkpt lat="-3.1014470" lon="37.3785680">
    <ele>4602.7</ele>
    <time>2026-06-23T09:32:13Z</time>
   </trkpt>
   <trkpt lat="-3.1014510" lon="37.3785680">
    <ele>4602.6</ele>
    <time>2026-06-23T09:32:14Z</time>
   </trkpt>
   <trkpt lat="-3.1014530" lon="37.3785680">
    <ele>4602.6</ele>
    <time>2026-06-23T09:32:15Z</time>
   </trkpt>
   <trkpt lat="-3.1014570" lon="37.3785680">
    <ele>4602.5</ele>
    <time>2026-06-23T09:32:16Z</time>
   </trkpt>
   <trkpt lat="-3.1014550" lon="37.3785720">
    <ele>4602.5</ele>
    <time>2026-06-23T09:32:17Z</time>
   </trkpt>
   <trkpt lat="-3.1014550" lon="37.3785750">
    <ele>4602.4</ele>
    <time>2026-06-23T09:32:18Z</time>
   </trkpt>
   <trkpt lat="-3.1014590" lon="37.3785760">
    <ele>4602.4</ele>
    <time>2026-06-23T09:32:19Z</time>
   </trkpt>
   <trkpt lat="-3.1014590" lon="37.3785700">
    <ele>4602.3</ele>
    <time>2026-06-23T09:32:20Z</time>
   </trkpt>
   <trkpt lat="-3.1014610" lon="37.3785670">
    <ele>4602.2</ele>
    <time>2026-06-23T09:32:21Z</time>
   </trkpt>
   <trkpt lat="-3.1014600" lon="37.3785670">
    <ele>4602.2</ele>
    <time>2026-06-23T09:32:22Z</time>
   </trkpt>
   <trkpt lat="-3.1014590" lon="37.3785640">
    <ele>4602.2</ele>
    <time>2026-06-23T09:32:23Z</time>
   </trkpt>
   <trkpt lat="-3.1014610" lon="37.3785640">
    <ele>4602.2</ele>
    <time>2026-06-23T09:32:24Z</time>
   </trkpt>
   <trkpt lat="-3.1014600" lon="37.3785650">
    <ele>4602.1</ele>
    <time>2026-06-23T09:32:25Z</time>
   </trkpt>
   <trkpt lat="-3.1014590" lon="37.3785660">
    <ele>4602.1</ele>
    <time>2026-06-23T09:32:26Z</time>
   </trkpt>
   <trkpt lat="-3.1014580" lon="37.3785660">
    <ele>4602.1</ele>
    <time>2026-06-23T09:32:27Z</time>
   </trkpt>
   <trkpt lat="-3.1014610" lon="37.3785670">
    <ele>4602.1</ele>
    <time>2026-06-23T09:32:28Z</time>
   </trkpt>
   <trkpt lat="-3.1014600" lon="37.3785660">
    <ele>4602.0</ele>
    <time>2026-06-23T09:32:29Z</time>
   </trkpt>
   <trkpt lat="-3.1014610" lon="37.3785670">
    <ele>4602.0</ele>
    <time>2026-06-23T09:32:30Z</time>
   </trkpt>
   <trkpt lat="-3.1014610" lon="37.3785670">
    <ele>4602.0</ele>
    <time>2026-06-23T09:32:31Z</time>
   </trkpt>
   <trkpt lat="-3.1014600" lon="37.3785680">
    <ele>4602.0</ele>
    <time>2026-06-23T09:32:32Z</time>
   </trkpt>
   <trkpt lat="-3.1014600" lon="37.3785680">
    <ele>4602.0</ele>
    <time>2026-06-23T09:32:33Z</time>
   </trkpt>
   <trkpt lat="-3.1014570" lon="37.3785690">
    <ele>4602.0</ele>
    <time>2026-06-23T09:32:34Z</time>
   </trkpt>
   <trkpt lat="-3.1014560" lon="37.3785700">
    <ele>4601.9</ele>
    <time>2026-06-23T09:32:35Z</time>
   </trkpt>
   <trkpt lat="-3.1014560" lon="37.3785700">
    <ele>4601.9</ele>
    <time>2026-06-23T09:32:36Z</time>
   </trkpt>
   <trkpt lat="-3.1014560" lon="37.3785700">
    <ele>4601.9</ele>
    <time>2026-06-23T09:32:37Z</time>
   </trkpt>
   <trkpt lat="-3.1014540" lon="37.3785710">
    <ele>4601.9</ele>
    <time>2026-06-23T09:32:38Z</time>
   </trkpt>
   <trkpt lat="-3.1014550" lon="37.3785720">
    <ele>4601.9</ele>
    <time>2026-06-23T09:32:39Z</time>
   </trkpt>
   <trkpt lat="-3.1014540" lon="37.3785710">
    <ele>4601.9</ele>
    <time>2026-06-23T09:32:40Z</time>
   </trkpt>
   <trkpt lat="-3.1014540" lon="37.3785740">
    <ele>4601.8</ele>
    <time>2026-06-23T09:32:41Z</time>
   </trkpt>
   <trkpt lat="-3.1014520" lon="37.3785730">
    <ele>4601.8</ele>
    <time>2026-06-23T09:32:42Z</time>
   </trkpt>
   <trkpt lat="-3.1014520" lon="37.3785730">
    <ele>4601.8</ele>
    <time>2026-06-23T09:32:43Z</time>
   </trkpt>
   <trkpt lat="-3.1014520" lon="37.3785730">
    <ele>4601.8</ele>
    <time>2026-06-23T09:32:44Z</time>
   </trkpt>
   <trkpt lat="-3.1014520" lon="37.3785730">
    <ele>4601.8</ele>
    <time>2026-06-23T09:32:45Z</time>
   </trkpt>
   <trkpt lat="-3.1014520" lon="37.3785730">
    <ele>4601.8</ele>
    <time>2026-06-23T09:32:46Z</time>
   </trkpt>
   <trkpt lat="-3.1014520" lon="37.3785730">
    <ele>4601.8</ele>
    <time>2026-06-23T09:32:47Z</time>
   </trkpt>
   <trkpt lat="-3.1014520" lon="37.3785700">
    <ele>4601.8</ele>
    <time>2026-06-23T09:32:48Z</time>
   </trkpt>
   <trkpt lat="-3.1014530" lon="37.3785700">
    <ele>4601.8</ele>
    <time>2026-06-23T09:32:49Z</time>
   </trkpt>
   <trkpt lat="-3.1014520" lon="37.3785710">
    <ele>4601.7</ele>
    <time>2026-06-23T09:32:50Z</time>
   </trkpt>
   <trkpt lat="-3.1014510" lon="37.3785720">
    <ele>4601.7</ele>
    <time>2026-06-23T09:32:51Z</time>
   </trkpt>
   <trkpt lat="-3.1014540" lon="37.3785720">
    <ele>4601.7</ele>
    <time>2026-06-23T09:32:52Z</time>
   </trkpt>
   <trkpt lat="-3.1014540" lon="37.3785730">
    <ele>4601.7</ele>
    <time>2026-06-23T09:32:53Z</time>
   </trkpt>
   <trkpt lat="-3.1014540" lon="37.3785730">
    <ele>4601.7</ele>
    <time>2026-06-23T09:32:54Z</time>
   </trkpt>
   <trkpt lat="-3.1014540" lon="37.3785730">
    <ele>4601.7</ele>
    <time>2026-06-23T09:32:55Z</time>
   </trkpt>
   <trkpt lat="-3.1014570" lon="37.3785710">
    <ele>4601.6</ele>
    <time>2026-06-23T09:32:56Z</time>
   </trkpt>
   <trkpt lat="-3.1014590" lon="37.3785700">
    <ele>4601.6</ele>
    <time>2026-06-23T09:32:57Z</time>
   </trkpt>
   <trkpt lat="-3.1014580" lon="37.3785710">
    <ele>4601.6</ele>
    <time>2026-06-23T09:32:58Z</time>
   </trkpt>
   <trkpt lat="-3.1014570" lon="37.3785720">
    <ele>4601.5</ele>
    <time>2026-06-23T09:32:59Z</time>
   </trkpt>
   <trkpt lat="-3.1014590" lon="37.3785720">
    <ele>4601.5</ele>
    <time>2026-06-23T09:33:00Z</time>
   </trkpt>
   <trkpt lat="-3.1014630" lon="37.3785700">
    <ele>4601.5</ele>
    <time>2026-06-23T09:33:01Z</time>
   </trkpt>
   <trkpt lat="-3.1014640" lon="37.3785680">
    <ele>4601.4</ele>
    <time>2026-06-23T09:33:02Z</time>
   </trkpt>
   <trkpt lat="-3.1014620" lon="37.3785690">
    <ele>4601.4</ele>
    <time>2026-06-23T09:33:03Z</time>
   </trkpt>
   <trkpt lat="-3.1014620" lon="37.3785690">
    <ele>4601.4</ele>
    <time>2026-06-23T09:33:04Z</time>
   </trkpt>
   <trkpt lat="-3.1014620" lon="37.3785680">
    <ele>4601.4</ele>
    <time>2026-06-23T09:33:05Z</time>
   </trkpt>
   <trkpt lat="-3.1014640" lon="37.3785680">
    <ele>4601.4</ele>
    <time>2026-06-23T09:33:06Z</time>
   </trkpt>
   <trkpt lat="-3.1014630" lon="37.3785700">
    <ele>4601.3</ele>
    <time>2026-06-23T09:33:07Z</time>
   </trkpt>
   <trkpt lat="-3.1014630" lon="37.3785700">
    <ele>4601.3</ele>
    <time>2026-06-23T09:33:08Z</time>
   </trkpt>
   <trkpt lat="-3.1014500" lon="37.3785700">
    <ele>4601.1</ele>
    <time>2026-06-23T09:33:09Z</time>
   </trkpt>
   <trkpt lat="-3.1014530" lon="37.3785700">
    <ele>4601.1</ele>
    <time>2026-06-23T09:33:10Z</time>
   </trkpt>
   <trkpt lat="-3.1014580" lon="37.3785680">
    <ele>4601.0</ele>
    <time>2026-06-23T09:33:11Z</time>
   </trkpt>
   <trkpt lat="-3.1014590" lon="37.3785680">
    <ele>4601.0</ele>
    <time>2026-06-23T09:33:12Z</time>
   </trkpt>
   <trkpt lat="-3.1014570" lon="37.3785690">
    <ele>4601.0</ele>
    <time>2026-06-23T09:33:13Z</time>
   </trkpt>
   <trkpt lat="-3.1014550" lon="37.3785670">
    <ele>4601.0</ele>
    <time>2026-06-23T09:33:14Z</time>
   </trkpt>
   <trkpt lat="-3.1014540" lon="37.3785670">
    <ele>4600.9</ele>
    <time>2026-06-23T09:33:15Z</time>
   </trkpt>
   <trkpt lat="-3.1014570" lon="37.3785640">
    <ele>4600.9</ele>
    <time>2026-06-23T09:33:16Z</time>
   </trkpt>
   <trkpt lat="-3.1014560" lon="37.3785630">
    <ele>4600.9</ele>
    <time>2026-06-23T09:33:17Z</time>
   </trkpt>
   <trkpt lat="-3.1014570" lon="37.3785630">
    <ele>4600.9</ele>
    <time>2026-06-23T09:33:18Z</time>
   </trkpt>
   <trkpt lat="-3.1014570" lon="37.3785620">
    <ele>4600.8</ele>
    <time>2026-06-23T09:33:19Z</time>
   </trkpt>
   <trkpt lat="-3.1014640" lon="37.3785610">
    <ele>4600.7</ele>
    <time>2026-06-23T09:33:20Z</time>
   </trkpt>
   <trkpt lat="-3.1014670" lon="37.3785640">
    <ele>4600.7</ele>
    <time>2026-06-23T09:33:21Z</time>
   </trkpt>
   <trkpt lat="-3.1014670" lon="37.3785650">
    <ele>4600.7</ele>
    <time>2026-06-23T09:33:22Z</time>
   </trkpt>
   <trkpt lat="-3.1014640" lon="37.3785630">
    <ele>4600.6</ele>
    <time>2026-06-23T09:33:23Z</time>
   </trkpt>
   <trkpt lat="-3.1014630" lon="37.3785610">
    <ele>4600.6</ele>
    <time>2026-06-23T09:33:24Z</time>
   </trkpt>
   <trkpt lat="-3.1014620" lon="37.3785630">
    <ele>4600.6</ele>
    <time>2026-06-23T09:33:25Z</time>
   </trkpt>
   <trkpt lat="-3.1014620" lon="37.3785630">
    <ele>4600.6</ele>
    <time>2026-06-23T09:33:26Z</time>
   </trkpt>
   <trkpt lat="-3.1014620" lon="37.3785630">
    <ele>4600.6</ele>
    <time>2026-06-23T09:33:27Z</time>
   </trkpt>
   <trkpt lat="-3.1014620" lon="37.3785630">
    <ele>4600.6</ele>
    <time>2026-06-23T09:33:28Z</time>
   </trkpt>
   <trkpt lat="-3.1014620" lon="37.3785610">
    <ele>4600.5</ele>
    <time>2026-06-23T09:33:29Z</time>
   </trkpt>
   <trkpt lat="-3.1014620" lon="37.3785620">
    <ele>4600.5</ele>
    <time>2026-06-23T09:33:30Z</time>
   </trkpt>
   <trkpt lat="-3.1014600" lon="37.3785630">
    <ele>4600.5</ele>
    <time>2026-06-23T09:33:31Z</time>
   </trkpt>
   <trkpt lat="-3.1014590" lon="37.3785650">
    <ele>4600.5</ele>
    <time>2026-06-23T09:33:32Z</time>
   </trkpt>
   <trkpt lat="-3.1014580" lon="37.3785670">
    <ele>4600.4</ele>
    <time>2026-06-23T09:33:33Z</time>
   </trkpt>
   <trkpt lat="-3.1014580" lon="37.3785660">
    <ele>4600.4</ele>
    <time>2026-06-23T09:33:34Z</time>
   </trkpt>
   <trkpt lat="-3.1014580" lon="37.3785650">
    <ele>4600.4</ele>
    <time>2026-06-23T09:33:35Z</time>
   </trkpt>
   <trkpt lat="-3.1014570" lon="37.3785650">
    <ele>4600.4</ele>
    <time>2026-06-23T09:33:36Z</time>
   </trkpt>
   <trkpt lat="-3.1014560" lon="37.3785660">
    <ele>4600.4</ele>
    <time>2026-06-23T09:33:37Z</time>
   </trkpt>
   <trkpt lat="-3.1014560" lon="37.3785660">
    <ele>4600.4</ele>
    <time>2026-06-23T09:33:38Z</time>
   </trkpt>
   <trkpt lat="-3.1014560" lon="37.3785660">
    <ele>4600.4</ele>
    <time>2026-06-23T09:33:39Z</time>
   </trkpt>
   <trkpt lat="-3.1014530" lon="37.3785660">
    <ele>4600.3</ele>
    <time>2026-06-23T09:33:40Z</time>
   </trkpt>
   <trkpt lat="-3.1014530" lon="37.3785660">
    <ele>4600.3</ele>
    <time>2026-06-23T09:33:41Z</time>
   </trkpt>
   <trkpt lat="-3.1014510" lon="37.3785670">
    <ele>4600.3</ele>
    <time>2026-06-23T09:33:42Z</time>
   </trkpt>
   <trkpt lat="-3.1014520" lon="37.3785680">
    <ele>4600.3</ele>
    <time>2026-06-23T09:33:43Z</time>
   </trkpt>
   <trkpt lat="-3.1014510" lon="37.3785680">
    <ele>4600.3</ele>
    <time>2026-06-23T09:33:44Z</time>
   </trkpt>
   <trkpt lat="-3.1014510" lon="37.3785680">
    <ele>4600.3</ele>
    <time>2026-06-23T09:33:45Z</time>
   </trkpt>
   <trkpt lat="-3.1014510" lon="37.3785680">
    <ele>4600.3</ele>
    <time>2026-06-23T09:33:46Z</time>
   </trkpt>
   <trkpt lat="-3.1014530" lon="37.3785690">
    <ele>4600.3</ele>
    <time>2026-06-23T09:33:47Z</time>
   </trkpt>
   <trkpt lat="-3.1014540" lon="37.3785680">
    <ele>4600.2</ele>
    <time>2026-06-23T09:33:48Z</time>
   </trkpt>
   <trkpt lat="-3.1014540" lon="37.3785690">
    <ele>4600.2</ele>
    <time>2026-06-23T09:33:49Z</time>
   </trkpt>
   <trkpt lat="-3.1014540" lon="37.3785680">
    <ele>4600.2</ele>
    <time>2026-06-23T09:33:50Z</time>
   </trkpt>
   <trkpt lat="-3.1014550" lon="37.3785680">
    <ele>4600.2</ele>
    <time>2026-06-23T09:33:51Z</time>
   </trkpt>
   <trkpt lat="-3.1014540" lon="37.3785680">
    <ele>4600.2</ele>
    <time>2026-06-23T09:33:52Z</time>
   </trkpt>
   <trkpt lat="-3.1014570" lon="37.3785680">
    <ele>4600.1</ele>
    <time>2026-06-23T09:33:53Z</time>
   </trkpt>
   <trkpt lat="-3.1014560" lon="37.3785700">
    <ele>4600.1</ele>
    <time>2026-06-23T09:33:54Z</time>
   </trkpt>
   <trkpt lat="-3.1014560" lon="37.3785700">
    <ele>4600.1</ele>
    <time>2026-06-23T09:33:55Z</time>
   </trkpt>
   <trkpt lat="-3.1014550" lon="37.3785680">
    <ele>4600.1</ele>
    <time>2026-06-23T09:33:56Z</time>
   </trkpt>
   <trkpt lat="-3.1014560" lon="37.3785680">
    <ele>4600.1</ele>
    <time>2026-06-23T09:33:57Z</time>
   </trkpt>
   <trkpt lat="-3.1014560" lon="37.3785680">
    <ele>4600.1</ele>
    <time>2026-06-23T09:33:58Z</time>
   </trkpt>
   <trkpt lat="-3.1014540" lon="37.3785680">
    <ele>4600.0</ele>
    <time>2026-06-23T09:33:59Z</time>
   </trkpt>
   <trkpt lat="-3.1014550" lon="37.3785690">
    <ele>4600.0</ele>
    <time>2026-06-23T09:34:00Z</time>
   </trkpt>
   <trkpt lat="-3.1014550" lon="37.3785690">
    <ele>4600.0</ele>
    <time>2026-06-23T09:34:01Z</time>
   </trkpt>
   <trkpt lat="-3.1014560" lon="37.3785710">
    <ele>4600.0</ele>
    <time>2026-06-23T09:34:02Z</time>
   </trkpt>
   <trkpt lat="-3.1014560" lon="37.3785700">
    <ele>4600.0</ele>
    <time>2026-06-23T09:34:03Z</time>
   </trkpt>
   <trkpt lat="-3.1014570" lon="37.3785710">
    <ele>4600.0</ele>
    <time>2026-06-23T09:34:04Z</time>
   </trkpt>
   <trkpt lat="-3.1014560" lon="37.3785700">
    <ele>4600.0</ele>
    <time>2026-06-23T09:34:05Z</time>
   </trkpt>
   <trkpt lat="-3.1014560" lon="37.3785700">
    <ele>4600.0</ele>
    <time>2026-06-23T09:34:06Z</time>
   </trkpt>
   <trkpt lat="-3.1014590" lon="37.3785680">
    <ele>4599.9</ele>
    <time>2026-06-23T09:34:07Z</time>
   </trkpt>
   <trkpt lat="-3.1014590" lon="37.3785690">
    <ele>4599.9</ele>
    <time>2026-06-23T09:34:08Z</time>
   </trkpt>
   <trkpt lat="-3.1014550" lon="37.3785690">
    <ele>4599.8</ele>
    <time>2026-06-23T09:34:09Z</time>
   </trkpt>
   <trkpt lat="-3.1014540" lon="37.3785690">
    <ele>4599.8</ele>
    <time>2026-06-23T09:34:10Z</time>
   </trkpt>
   <trkpt lat="-3.1014540" lon="37.3785690">
    <ele>4599.8</ele>
    <time>2026-06-23T09:34:11Z</time>
   </trkpt>
   <trkpt lat="-3.1014580" lon="37.3785670">
    <ele>4599.8</ele>
    <time>2026-06-23T09:34:12Z</time>
   </trkpt>
   <trkpt lat="-3.1014580" lon="37.3785670">
    <ele>4599.8</ele>
    <time>2026-06-23T09:34:13Z</time>
   </trkpt>
   <trkpt lat="-3.1014580" lon="37.3785670">
    <ele>4599.8</ele>
    <time>2026-06-23T09:34:14Z</time>
   </trkpt>
   <trkpt lat="-3.1014600" lon="37.3785690">
    <ele>4599.7</ele>
    <time>2026-06-23T09:34:15Z</time>
   </trkpt>
   <trkpt lat="-3.1014600" lon="37.3785690">
    <ele>4599.7</ele>
    <time>2026-06-23T09:34:16Z</time>
   </trkpt>
   <trkpt lat="-3.1014600" lon="37.3785690">
    <ele>4599.7</ele>
    <time>2026-06-23T09:34:17Z</time>
   </trkpt>
   <trkpt lat="-3.1014620" lon="37.3785680">
    <ele>4599.7</ele>
    <time>2026-06-23T09:34:18Z</time>
   </trkpt>
   <trkpt lat="-3.1014570" lon="37.3785700">
    <ele>4599.6</ele>
    <time>2026-06-23T09:34:19Z</time>
   </trkpt>
   <trkpt lat="-3.1014590" lon="37.3785680">
    <ele>4599.6</ele>
    <time>2026-06-23T09:34:20Z</time>
   </trkpt>
   <trkpt lat="-3.1014620" lon="37.3785680">
    <ele>4599.6</ele>
    <time>2026-06-23T09:34:21Z</time>
   </trkpt>
   <trkpt lat="-3.1014610" lon="37.3785680">
    <ele>4599.5</ele>
    <time>2026-06-23T09:34:22Z</time>
   </trkpt>
   <trkpt lat="-3.1014590" lon="37.3785700">
    <ele>4599.5</ele>
    <time>2026-06-23T09:34:23Z</time>
   </trkpt>
   <trkpt lat="-3.1014570" lon="37.3785690">
    <ele>4599.5</ele>
    <time>2026-06-23T09:34:24Z</time>
   </trkpt>
   <trkpt lat="-3.1014550" lon="37.3785690">
    <ele>4599.4</ele>
    <time>2026-06-23T09:34:25Z</time>
   </trkpt>
   <trkpt lat="-3.1014560" lon="37.3785680">
    <ele>4599.4</ele>
    <time>2026-06-23T09:34:26Z</time>
   </trkpt>
   <trkpt lat="-3.1014570" lon="37.3785690">
    <ele>4599.4</ele>
    <time>2026-06-23T09:34:27Z</time>
   </trkpt>
   <trkpt lat="-3.1014540" lon="37.3785710">
    <ele>4599.4</ele>
    <time>2026-06-23T09:34:28Z</time>
   </trkpt>
   <trkpt lat="-3.1014530" lon="37.3785710">
    <ele>4599.4</ele>
    <time>2026-06-23T09:34:29Z</time>
   </trkpt>
   <trkpt lat="-3.1014520" lon="37.3785700">
    <ele>4599.3</ele>
    <time>2026-06-23T09:34:30Z</time>
   </trkpt>
   <trkpt lat="-3.1014520" lon="37.3785690">
    <ele>4599.3</ele>
    <time>2026-06-23T09:34:31Z</time>
   </trkpt>
   <trkpt lat="-3.1014530" lon="37.3785690">
    <ele>4599.3</ele>
    <time>2026-06-23T09:34:32Z</time>
   </trkpt>
   <trkpt lat="-3.1014530" lon="37.3785690">
    <ele>4599.3</ele>
    <time>2026-06-23T09:34:33Z</time>
   </trkpt>
   <trkpt lat="-3.1014530" lon="37.3785680">
    <ele>4599.3</ele>
    <time>2026-06-23T09:34:34Z</time>
   </trkpt>
   <trkpt lat="-3.1014530" lon="37.3785670">
    <ele>4599.3</ele>
    <time>2026-06-23T09:34:35Z</time>
   </trkpt>
   <trkpt lat="-3.1014510" lon="37.3785670">
    <ele>4599.3</ele>
    <time>2026-06-23T09:34:36Z</time>
   </trkpt>
   <trkpt lat="-3.1014510" lon="37.3785660">
    <ele>4599.2</ele>
    <time>2026-06-23T09:34:37Z</time>
   </trkpt>
   <trkpt lat="-3.1014500" lon="37.3785660">
    <ele>4599.2</ele>
    <time>2026-06-23T09:34:38Z</time>
   </trkpt>
   <trkpt lat="-3.1014500" lon="37.3785670">
    <ele>4599.2</ele>
    <time>2026-06-23T09:34:39Z</time>
   </trkpt>
   <trkpt lat="-3.1014510" lon="37.3785670">
    <ele>4599.2</ele>
    <time>2026-06-23T09:34:40Z</time>
   </trkpt>
   <trkpt lat="-3.1014510" lon="37.3785670">
    <ele>4599.2</ele>
    <time>2026-06-23T09:34:41Z</time>
   </trkpt>
   <trkpt lat="-3.1014500" lon="37.3785660">
    <ele>4599.2</ele>
    <time>2026-06-23T09:34:42Z</time>
   </trkpt>
   <trkpt lat="-3.1014510" lon="37.3785650">
    <ele>4599.2</ele>
    <time>2026-06-23T09:34:43Z</time>
   </trkpt>
   <trkpt lat="-3.1014530" lon="37.3785640">
    <ele>4599.1</ele>
    <time>2026-06-23T09:34:44Z</time>
   </trkpt>
   <trkpt lat="-3.1014510" lon="37.3785640">
    <ele>4599.1</ele>
    <time>2026-06-23T09:34:45Z</time>
   </trkpt>
   <trkpt lat="-3.1014500" lon="37.3785640">
    <ele>4599.1</ele>
    <time>2026-06-23T09:34:46Z</time>
   </trkpt>
   <trkpt lat="-3.1014520" lon="37.3785640">
    <ele>4599.1</ele>
    <time>2026-06-23T09:34:47Z</time>
   </trkpt>
   <trkpt lat="-3.1014520" lon="37.3785640">
    <ele>4599.1</ele>
    <time>2026-06-23T09:34:48Z</time>
   </trkpt>
   <trkpt lat="-3.1014520" lon="37.3785640">
    <ele>4599.1</ele>
    <time>2026-06-23T09:34:49Z</time>
   </trkpt>
   <trkpt lat="-3.1014510" lon="37.3785630">
    <ele>4599.1</ele>
    <time>2026-06-23T09:34:50Z</time>
   </trkpt>
   <trkpt lat="-3.1014520" lon="37.3785610">
    <ele>4599.0</ele>
    <time>2026-06-23T09:34:51Z</time>
   </trkpt>
   <trkpt lat="-3.1014550" lon="37.3785620">
    <ele>4599.0</ele>
    <time>2026-06-23T09:34:52Z</time>
   </trkpt>
   <trkpt lat="-3.1014540" lon="37.3785640">
    <ele>4599.0</ele>
    <time>2026-06-23T09:34:53Z</time>
   </trkpt>
   <trkpt lat="-3.1014550" lon="37.3785630">
    <ele>4598.9</ele>
    <time>2026-06-23T09:34:54Z</time>
   </trkpt>
   <trkpt lat="-3.1014560" lon="37.3785650">
    <ele>4598.9</ele>
    <time>2026-06-23T09:34:55Z</time>
   </trkpt>
   <trkpt lat="-3.1014530" lon="37.3785650">
    <ele>4598.9</ele>
    <time>2026-06-23T09:34:56Z</time>
   </trkpt>
   <trkpt lat="-3.1014550" lon="37.3785660">
    <ele>4598.8</ele>
    <time>2026-06-23T09:34:57Z</time>
   </trkpt>
   <trkpt lat="-3.1014540" lon="37.3785660">
    <ele>4598.8</ele>
    <time>2026-06-23T09:34:58Z</time>
   </trkpt>
   <trkpt lat="-3.1014540" lon="37.3785680">
    <ele>4598.8</ele>
    <time>2026-06-23T09:34:59Z</time>
   </trkpt>
   <trkpt lat="-3.1014530" lon="37.3785660">
    <ele>4598.8</ele>
    <time>2026-06-23T09:35:00Z</time>
   </trkpt>
   <trkpt lat="-3.1014540" lon="37.3785660">
    <ele>4598.8</ele>
    <time>2026-06-23T09:35:01Z</time>
   </trkpt>
   <trkpt lat="-3.1014540" lon="37.3785660">
    <ele>4598.8</ele>
    <time>2026-06-23T09:35:02Z</time>
   </trkpt>
   <trkpt lat="-3.1014550" lon="37.3785650">
    <ele>4598.7</ele>
    <time>2026-06-23T09:35:03Z</time>
   </trkpt>
   <trkpt lat="-3.1014560" lon="37.3785650">
    <ele>4598.7</ele>
    <time>2026-06-23T09:35:04Z</time>
   </trkpt>
   <trkpt lat="-3.1014540" lon="37.3785650">
    <ele>4598.7</ele>
    <time>2026-06-23T09:35:05Z</time>
   </trkpt>
   <trkpt lat="-3.1014530" lon="37.3785640">
    <ele>4598.7</ele>
    <time>2026-06-23T09:35:06Z</time>
   </trkpt>
   <trkpt lat="-3.1014530" lon="37.3785650">
    <ele>4598.7</ele>
    <time>2026-06-23T09:35:07Z</time>
   </trkpt>
   <trkpt lat="-3.1014550" lon="37.3785640">
    <ele>4598.6</ele>
    <time>2026-06-23T09:35:08Z</time>
   </trkpt>
   <trkpt lat="-3.1014550" lon="37.3785640">
    <ele>4598.6</ele>
    <time>2026-06-23T09:35:09Z</time>
   </trkpt>
   <trkpt lat="-3.1014550" lon="37.3785640">
    <ele>4598.6</ele>
    <time>2026-06-23T09:35:10Z</time>
   </trkpt>
   <trkpt lat="-3.1014560" lon="37.3785620">
    <ele>4598.6</ele>
    <time>2026-06-23T09:35:11Z</time>
   </trkpt>
   <trkpt lat="-3.1014560" lon="37.3785630">
    <ele>4598.6</ele>
    <time>2026-06-23T09:35:12Z</time>
   </trkpt>
   <trkpt lat="-3.1014550" lon="37.3785600">
    <ele>4598.6</ele>
    <time>2026-06-23T09:35:13Z</time>
   </trkpt>
   <trkpt lat="-3.1014560" lon="37.3785590">
    <ele>4598.5</ele>
    <time>2026-06-23T09:35:14Z</time>
   </trkpt>
   <trkpt lat="-3.1014570" lon="37.3785590">
    <ele>4598.5</ele>
    <time>2026-06-23T09:35:15Z</time>
   </trkpt>
   <trkpt lat="-3.1014550" lon="37.3785600">
    <ele>4598.5</ele>
    <time>2026-06-23T09:35:16Z</time>
   </trkpt>
   <trkpt lat="-3.1014550" lon="37.3785590">
    <ele>4598.5</ele>
    <time>2026-06-23T09:35:17Z</time>
   </trkpt>
   <trkpt lat="-3.1014580" lon="37.3785580">
    <ele>4598.4</ele>
    <time>2026-06-23T09:35:18Z</time>
   </trkpt>
   <trkpt lat="-3.1014590" lon="37.3785620">
    <ele>4598.4</ele>
    <time>2026-06-23T09:35:19Z</time>
   </trkpt>
   <trkpt lat="-3.1014620" lon="37.3785690">
    <ele>4598.3</ele>
    <time>2026-06-23T09:35:20Z</time>
   </trkpt>
   <trkpt lat="-3.1014710" lon="37.3785710">
    <ele>4598.2</ele>
    <time>2026-06-23T09:35:21Z</time>
   </trkpt>
   <trkpt lat="-3.1014750" lon="37.3785710">
    <ele>4598.1</ele>
    <time>2026-06-23T09:35:22Z</time>
   </trkpt>
   <trkpt lat="-3.1014740" lon="37.3785710">
    <ele>4598.1</ele>
    <time>2026-06-23T09:35:23Z</time>
   </trkpt>
   <trkpt lat="-3.1014740" lon="37.3785690">
    <ele>4598.1</ele>
    <time>2026-06-23T09:35:24Z</time>
   </trkpt>
   <trkpt lat="-3.1014760" lon="37.3785670">
    <ele>4598.0</ele>
    <time>2026-06-23T09:35:25Z</time>
   </trkpt>
   <trkpt lat="-3.1014790" lon="37.3785660">
    <ele>4598.0</ele>
    <time>2026-06-23T09:35:26Z</time>
   </trkpt>
   <trkpt lat="-3.1014820" lon="37.3785680">
    <ele>4597.9</ele>
    <time>2026-06-23T09:35:27Z</time>
   </trkpt>
   <trkpt lat="-3.1014820" lon="37.3785680">
    <ele>4597.9</ele>
    <time>2026-06-23T09:35:28Z</time>
   </trkpt>
   <trkpt lat="-3.1014840" lon="37.3785660">
    <ele>4597.9</ele>
    <time>2026-06-23T09:35:29Z</time>
   </trkpt>
   <trkpt lat="-3.1014880" lon="37.3785650">
    <ele>4597.9</ele>
    <time>2026-06-23T09:35:30Z</time>
   </trkpt>
   <trkpt lat="-3.1014880" lon="37.3785640">
    <ele>4597.8</ele>
    <time>2026-06-23T09:35:31Z</time>
   </trkpt>
   <trkpt lat="-3.1014950" lon="37.3785560">
    <ele>4597.7</ele>
    <time>2026-06-23T09:35:32Z</time>
   </trkpt>
   <trkpt lat="-3.1014960" lon="37.3785530">
    <ele>4597.7</ele>
    <time>2026-06-23T09:35:33Z</time>
   </trkpt>
   <trkpt lat="-3.1015010" lon="37.3785480">
    <ele>4597.6</ele>
    <time>2026-06-23T09:35:34Z</time>
   </trkpt>
   <trkpt lat="-3.1015060" lon="37.3785440">
    <ele>4597.5</ele>
    <time>2026-06-23T09:35:35Z</time>
   </trkpt>
   <trkpt lat="-3.1015120" lon="37.3785410">
    <ele>4597.4</ele>
    <time>2026-06-23T09:35:36Z</time>
   </trkpt>
   <trkpt lat="-3.1015110" lon="37.3785440">
    <ele>4597.4</ele>
    <time>2026-06-23T09:35:37Z</time>
   </trkpt>
   <trkpt lat="-3.1015100" lon="37.3785450">
    <ele>4597.3</ele>
    <time>2026-06-23T09:35:38Z</time>
   </trkpt>
   <trkpt lat="-3.1015100" lon="37.3785440">
    <ele>4597.3</ele>
    <time>2026-06-23T09:35:39Z</time>
   </trkpt>
   <trkpt lat="-3.1015100" lon="37.3785440">
    <ele>4597.3</ele>
    <time>2026-06-23T09:35:40Z</time>
   </trkpt>
   <trkpt lat="-3.1015140" lon="37.3785410">
    <ele>4597.3</ele>
    <time>2026-06-23T09:35:41Z</time>
   </trkpt>
   <trkpt lat="-3.1015150" lon="37.3785390">
    <ele>4597.2</ele>
    <time>2026-06-23T09:35:42Z</time>
   </trkpt>
   <trkpt lat="-3.1015150" lon="37.3785400">
    <ele>4597.2</ele>
    <time>2026-06-23T09:35:43Z</time>
   </trkpt>
   <trkpt lat="-3.1015150" lon="37.3785400">
    <ele>4597.2</ele>
    <time>2026-06-23T09:35:44Z</time>
   </trkpt>
   <trkpt lat="-3.1015130" lon="37.3785380">
    <ele>4597.2</ele>
    <time>2026-06-23T09:35:45Z</time>
   </trkpt>
   <trkpt lat="-3.1015130" lon="37.3785370">
    <ele>4597.2</ele>
    <time>2026-06-23T09:35:46Z</time>
   </trkpt>
   <trkpt lat="-3.1015090" lon="37.3785370">
    <ele>4597.1</ele>
    <time>2026-06-23T09:35:47Z</time>
   </trkpt>
   <trkpt lat="-3.1015070" lon="37.3785360">
    <ele>4597.1</ele>
    <time>2026-06-23T09:35:48Z</time>
   </trkpt>
   <trkpt lat="-3.1015040" lon="37.3785400">
    <ele>4597.0</ele>
    <time>2026-06-23T09:35:49Z</time>
   </trkpt>
   <trkpt lat="-3.1015030" lon="37.3785420">
    <ele>4597.0</ele>
    <time>2026-06-23T09:35:50Z</time>
   </trkpt>
   <trkpt lat="-3.1015030" lon="37.3785400">
    <ele>4597.0</ele>
    <time>2026-06-23T09:35:51Z</time>
   </trkpt>
   <trkpt lat="-3.1015050" lon="37.3785420">
    <ele>4596.9</ele>
    <time>2026-06-23T09:35:52Z</time>
   </trkpt>
   <trkpt lat="-3.1015030" lon="37.3785420">
    <ele>4596.9</ele>
    <time>2026-06-23T09:35:53Z</time>
   </trkpt>
   <trkpt lat="-3.1015030" lon="37.3785420">
    <ele>4596.9</ele>
    <time>2026-06-23T09:35:54Z</time>
   </trkpt>
   <trkpt lat="-3.1015030" lon="37.3785400">
    <ele>4596.9</ele>
    <time>2026-06-23T09:35:55Z</time>
   </trkpt>
   <trkpt lat="-3.1015020" lon="37.3785410">
    <ele>4596.9</ele>
    <time>2026-06-23T09:35:56Z</time>
   </trkpt>
   <trkpt lat="-3.1015020" lon="37.3785410">
    <ele>4596.9</ele>
    <time>2026-06-23T09:35:57Z</time>
   </trkpt>
   <trkpt lat="-3.1015030" lon="37.3785410">
    <ele>4596.8</ele>
    <time>2026-06-23T09:35:58Z</time>
   </trkpt>
   <trkpt lat="-3.1015030" lon="37.3785390">
    <ele>4596.8</ele>
    <time>2026-06-23T09:35:59Z</time>
   </trkpt>
   <trkpt lat="-3.1015020" lon="37.3785400">
    <ele>4596.8</ele>
    <time>2026-06-23T09:36:00Z</time>
   </trkpt>
   <trkpt lat="-3.1015030" lon="37.3785400">
    <ele>4596.8</ele>
    <time>2026-06-23T09:36:01Z</time>
   </trkpt>
   <trkpt lat="-3.1015050" lon="37.3785400">
    <ele>4596.8</ele>
    <time>2026-06-23T09:36:02Z</time>
   </trkpt>
   <trkpt lat="-3.1015040" lon="37.3785400">
    <ele>4596.7</ele>
    <time>2026-06-23T09:36:03Z</time>
   </trkpt>
   <trkpt lat="-3.1015030" lon="37.3785400">
    <ele>4596.7</ele>
    <time>2026-06-23T09:36:04Z</time>
   </trkpt>
   <trkpt lat="-3.1015060" lon="37.3785440">
    <ele>4596.7</ele>
    <time>2026-06-23T09:36:05Z</time>
   </trkpt>
   <trkpt lat="-3.1015050" lon="37.3785460">
    <ele>4596.6</ele>
    <time>2026-06-23T09:36:06Z</time>
   </trkpt>
   <trkpt lat="-3.1015050" lon="37.3785460">
    <ele>4596.6</ele>
    <time>2026-06-23T09:36:07Z</time>
   </trkpt>
   <trkpt lat="-3.1015040" lon="37.3785420">
    <ele>4596.6</ele>
    <time>2026-06-23T09:36:08Z</time>
   </trkpt>
   <trkpt lat="-3.1015040" lon="37.3785440">
    <ele>4596.6</ele>
    <time>2026-06-23T09:36:09Z</time>
   </trkpt>
   <trkpt lat="-3.1015030" lon="37.3785430">
    <ele>4596.5</ele>
    <time>2026-06-23T09:36:10Z</time>
   </trkpt>
   <trkpt lat="-3.1015030" lon="37.3785440">
    <ele>4596.5</ele>
    <time>2026-06-23T09:36:11Z</time>
   </trkpt>
   <trkpt lat="-3.1015020" lon="37.3785450">
    <ele>4596.5</ele>
    <time>2026-06-23T09:36:12Z</time>
   </trkpt>
   <trkpt lat="-3.1015020" lon="37.3785450">
    <ele>4596.5</ele>
    <time>2026-06-23T09:36:13Z</time>
   </trkpt>
   <trkpt lat="-3.1015040" lon="37.3785440">
    <ele>4596.5</ele>
    <time>2026-06-23T09:36:14Z</time>
   </trkpt>
   <trkpt lat="-3.1015060" lon="37.3785430">
    <ele>4596.4</ele>
    <time>2026-06-23T09:36:15Z</time>
   </trkpt>
   <trkpt lat="-3.1015090" lon="37.3785440">
    <ele>4596.4</ele>
    <time>2026-06-23T09:36:16Z</time>
   </trkpt>
   <trkpt lat="-3.1015100" lon="37.3785360">
    <ele>4596.3</ele>
    <time>2026-06-23T09:36:17Z</time>
   </trkpt>
   <trkpt lat="-3.1015150" lon="37.3785320">
    <ele>4596.2</ele>
    <time>2026-06-23T09:36:18Z</time>
   </trkpt>
   <trkpt lat="-3.1015180" lon="37.3785310">
    <ele>4596.2</ele>
    <time>2026-06-23T09:36:19Z</time>
   </trkpt>
   <trkpt lat="-3.1015160" lon="37.3785320">
    <ele>4596.1</ele>
    <time>2026-06-23T09:36:20Z</time>
   </trkpt>
   <trkpt lat="-3.1015150" lon="37.3785330">
    <ele>4596.1</ele>
    <time>2026-06-23T09:36:21Z</time>
   </trkpt>
   <trkpt lat="-3.1015130" lon="37.3785330">
    <ele>4596.1</ele>
    <time>2026-06-23T09:36:22Z</time>
   </trkpt>
   <trkpt lat="-3.1015140" lon="37.3785340">
    <ele>4596.1</ele>
    <time>2026-06-23T09:36:23Z</time>
   </trkpt>
   <trkpt lat="-3.1015140" lon="37.3785340">
    <ele>4596.1</ele>
    <time>2026-06-23T09:36:24Z</time>
   </trkpt>
   <trkpt lat="-3.1015130" lon="37.3785330">
    <ele>4596.1</ele>
    <time>2026-06-23T09:36:25Z</time>
   </trkpt>
   <trkpt lat="-3.1015120" lon="37.3785350">
    <ele>4596.0</ele>
    <time>2026-06-23T09:36:26Z</time>
   </trkpt>
   <trkpt lat="-3.1015140" lon="37.3785340">
    <ele>4596.0</ele>
    <time>2026-06-23T09:36:27Z</time>
   </trkpt>
   <trkpt lat="-3.1015130" lon="37.3785350">
    <ele>4596.0</ele>
    <time>2026-06-23T09:36:28Z</time>
   </trkpt>
   <trkpt lat="-3.1015130" lon="37.3785350">
    <ele>4596.0</ele>
    <time>2026-06-23T09:36:29Z</time>
   </trkpt>
   <trkpt lat="-3.1015120" lon="37.3785360">
    <ele>4596.0</ele>
    <time>2026-06-23T09:36:30Z</time>
   </trkpt>
   <trkpt lat="-3.1015130" lon="37.3785370">
    <ele>4595.9</ele>
    <time>2026-06-23T09:36:31Z</time>
   </trkpt>
   <trkpt lat="-3.1015120" lon="37.3785380">
    <ele>4595.9</ele>
    <time>2026-06-23T09:36:32Z</time>
   </trkpt>
   <trkpt lat="-3.1015110" lon="37.3785410">
    <ele>4595.9</ele>
    <time>2026-06-23T09:36:33Z</time>
   </trkpt>
   <trkpt lat="-3.1015130" lon="37.3785400">
    <ele>4595.9</ele>
    <time>2026-06-23T09:36:34Z</time>
   </trkpt>
   <trkpt lat="-3.1015130" lon="37.3785400">
    <ele>4595.9</ele>
    <time>2026-06-23T09:36:35Z</time>
   </trkpt>
   <trkpt lat="-3.1015130" lon="37.3785380">
    <ele>4595.8</ele>
    <time>2026-06-23T09:36:36Z</time>
   </trkpt>
   <trkpt lat="-3.1015130" lon="37.3785380">
    <ele>4595.8</ele>
    <time>2026-06-23T09:36:37Z</time>
   </trkpt>
   <trkpt lat="-3.1015150" lon="37.3785390">
    <ele>4595.8</ele>
    <time>2026-06-23T09:36:38Z</time>
   </trkpt>
   <trkpt lat="-3.1015150" lon="37.3785380">
    <ele>4595.8</ele>
    <time>2026-06-23T09:36:39Z</time>
   </trkpt>
   <trkpt lat="-3.1015160" lon="37.3785370">
    <ele>4595.8</ele>
    <time>2026-06-23T09:36:40Z</time>
   </trkpt>
   <trkpt lat="-3.1015160" lon="37.3785350">
    <ele>4595.7</ele>
    <time>2026-06-23T09:36:41Z</time>
   </trkpt>
   <trkpt lat="-3.1015150" lon="37.3785360">
    <ele>4595.7</ele>
    <time>2026-06-23T09:36:42Z</time>
   </trkpt>
   <trkpt lat="-3.1015140" lon="37.3785380">
    <ele>4595.7</ele>
    <time>2026-06-23T09:36:43Z</time>
   </trkpt>
   <trkpt lat="-3.1015150" lon="37.3785380">
    <ele>4595.7</ele>
    <time>2026-06-23T09:36:44Z</time>
   </trkpt>
   <trkpt lat="-3.1015120" lon="37.3785400">
    <ele>4595.6</ele>
    <time>2026-06-23T09:36:45Z</time>
   </trkpt>
   <trkpt lat="-3.1015120" lon="37.3785400">
    <ele>4595.6</ele>
    <time>2026-06-23T09:36:46Z</time>
   </trkpt>
   <trkpt lat="-3.1015120" lon="37.3785410">
    <ele>4595.6</ele>
    <time>2026-06-23T09:36:47Z</time>
   </trkpt>
   <trkpt lat="-3.1015120" lon="37.3785410">
    <ele>4595.6</ele>
    <time>2026-06-23T09:36:48Z</time>
   </trkpt>
   <trkpt lat="-3.1015120" lon="37.3785400">
    <ele>4595.6</ele>
    <time>2026-06-23T09:36:49Z</time>
   </trkpt>
   <trkpt lat="-3.1015120" lon="37.3785400">
    <ele>4595.6</ele>
    <time>2026-06-23T09:36:50Z</time>
   </trkpt>
   <trkpt lat="-3.1015160" lon="37.3785380">
    <ele>4595.6</ele>
    <time>2026-06-23T09:36:51Z</time>
   </trkpt>
   <trkpt lat="-3.1015170" lon="37.3785370">
    <ele>4595.5</ele>
    <time>2026-06-23T09:36:52Z</time>
   </trkpt>
   <trkpt lat="-3.1015170" lon="37.3785380">
    <ele>4595.5</ele>
    <time>2026-06-23T09:36:53Z</time>
   </trkpt>
   <trkpt lat="-3.1015120" lon="37.3785410">
    <ele>4595.4</ele>
    <time>2026-06-23T09:36:54Z</time>
   </trkpt>
   <trkpt lat="-3.1015100" lon="37.3785430">
    <ele>4595.4</ele>
    <time>2026-06-23T09:36:55Z</time>
   </trkpt>
   <trkpt lat="-3.1015110" lon="37.3785400">
    <ele>4595.4</ele>
    <time>2026-06-23T09:36:56Z</time>
   </trkpt>
   <trkpt lat="-3.1015100" lon="37.3785410">
    <ele>4595.3</ele>
    <time>2026-06-23T09:36:57Z</time>
   </trkpt>
   <trkpt lat="-3.1015090" lon="37.3785410">
    <ele>4595.3</ele>
    <time>2026-06-23T09:36:58Z</time>
   </trkpt>
   <trkpt lat="-3.1015090" lon="37.3785410">
    <ele>4595.3</ele>
    <time>2026-06-23T09:36:59Z</time>
   </trkpt>
   <trkpt lat="-3.1015090" lon="37.3785390">
    <ele>4595.3</ele>
    <time>2026-06-23T09:37:00Z</time>
   </trkpt>
   <trkpt lat="-3.1015090" lon="37.3785390">
    <ele>4595.3</ele>
    <time>2026-06-23T09:37:01Z</time>
   </trkpt>
   <trkpt lat="-3.1015110" lon="37.3785390">
    <ele>4595.3</ele>
    <time>2026-06-23T09:37:02Z</time>
   </trkpt>
   <trkpt lat="-3.1015100" lon="37.3785390">
    <ele>4595.3</ele>
    <time>2026-06-23T09:37:03Z</time>
   </trkpt>
   <trkpt lat="-3.1015090" lon="37.3785390">
    <ele>4595.3</ele>
    <time>2026-06-23T09:37:04Z</time>
   </trkpt>
   <trkpt lat="-3.1015090" lon="37.3785390">
    <ele>4595.3</ele>
    <time>2026-06-23T09:37:05Z</time>
   </trkpt>
   <trkpt lat="-3.1015090" lon="37.3785390">
    <ele>4595.3</ele>
    <time>2026-06-23T09:37:06Z</time>
   </trkpt>
   <trkpt lat="-3.1015090" lon="37.3785390">
    <ele>4595.3</ele>
    <time>2026-06-23T09:37:07Z</time>
   </trkpt>
   <trkpt lat="-3.1015100" lon="37.3785370">
    <ele>4595.2</ele>
    <time>2026-06-23T09:37:08Z</time>
   </trkpt>
   <trkpt lat="-3.1015100" lon="37.3785370">
    <ele>4595.2</ele>
    <time>2026-06-23T09:37:09Z</time>
   </trkpt>
   <trkpt lat="-3.1015100" lon="37.3785360">
    <ele>4595.2</ele>
    <time>2026-06-23T09:37:10Z</time>
   </trkpt>
   <trkpt lat="-3.1015120" lon="37.3785390">
    <ele>4595.2</ele>
    <time>2026-06-23T09:37:11Z</time>
   </trkpt>
   <trkpt lat="-3.1015150" lon="37.3785380">
    <ele>4595.1</ele>
    <time>2026-06-23T09:37:12Z</time>
   </trkpt>
   <trkpt lat="-3.1015140" lon="37.3785450">
    <ele>4595.0</ele>
    <time>2026-06-23T09:37:13Z</time>
   </trkpt>
   <trkpt lat="-3.1015160" lon="37.3785500">
    <ele>4595.0</ele>
    <time>2026-06-23T09:37:14Z</time>
   </trkpt>
   <trkpt lat="-3.1015170" lon="37.3785540">
    <ele>4594.9</ele>
    <time>2026-06-23T09:37:15Z</time>
   </trkpt>
   <trkpt lat="-3.1015160" lon="37.3785600">
    <ele>4594.8</ele>
    <time>2026-06-23T09:37:16Z</time>
   </trkpt>
   <trkpt lat="-3.1015220" lon="37.3785600">
    <ele>4594.8</ele>
    <time>2026-06-23T09:37:17Z</time>
   </trkpt>
   <trkpt lat="-3.1015220" lon="37.3785630">
    <ele>4594.7</ele>
    <time>2026-06-23T09:37:18Z</time>
   </trkpt>
   <trkpt lat="-3.1015220" lon="37.3785670">
    <ele>4594.7</ele>
    <time>2026-06-23T09:37:19Z</time>
   </trkpt>
   <trkpt lat="-3.1015210" lon="37.3785670">
    <ele>4594.6</ele>
    <time>2026-06-23T09:37:20Z</time>
   </trkpt>
   <trkpt lat="-3.1015250" lon="37.3785680">
    <ele>4594.6</ele>
    <time>2026-06-23T09:37:21Z</time>
   </trkpt>
   <trkpt lat="-3.1015260" lon="37.3785710">
    <ele>4594.6</ele>
    <time>2026-06-23T09:37:22Z</time>
   </trkpt>
   <trkpt lat="-3.1015270" lon="37.3785740">
    <ele>4594.5</ele>
    <time>2026-06-23T09:37:23Z</time>
   </trkpt>
   <trkpt lat="-3.1015280" lon="37.3785790">
    <ele>4594.4</ele>
    <time>2026-06-23T09:37:24Z</time>
   </trkpt>
   <trkpt lat="-3.1015270" lon="37.3785820">
    <ele>4594.4</ele>
    <time>2026-06-23T09:37:25Z</time>
   </trkpt>
   <trkpt lat="-3.1015240" lon="37.3785820">
    <ele>4594.4</ele>
    <time>2026-06-23T09:37:26Z</time>
   </trkpt>
   <trkpt lat="-3.1015290" lon="37.3785800">
    <ele>4594.3</ele>
    <time>2026-06-23T09:37:27Z</time>
   </trkpt>
   <trkpt lat="-3.1015280" lon="37.3785810">
    <ele>4594.3</ele>
    <time>2026-06-23T09:37:28Z</time>
   </trkpt>
   <trkpt lat="-3.1015280" lon="37.3785810">
    <ele>4594.3</ele>
    <time>2026-06-23T09:37:29Z</time>
   </trkpt>
   <trkpt lat="-3.1015260" lon="37.3785830">
    <ele>4594.2</ele>
    <time>2026-06-23T09:37:30Z</time>
   </trkpt>
   <trkpt lat="-3.1015260" lon="37.3785830">
    <ele>4594.2</ele>
    <time>2026-06-23T09:37:31Z</time>
   </trkpt>
   <trkpt lat="-3.1015260" lon="37.3785830">
    <ele>4594.2</ele>
    <time>2026-06-23T09:37:32Z</time>
   </trkpt>
   <trkpt lat="-3.1015260" lon="37.3785830">
    <ele>4594.2</ele>
    <time>2026-06-23T09:37:33Z</time>
   </trkpt>
   <trkpt lat="-3.1015260" lon="37.3785830">
    <ele>4594.2</ele>
    <time>2026-06-23T09:37:34Z</time>
   </trkpt>
   <trkpt lat="-3.1015260" lon="37.3785830">
    <ele>4594.2</ele>
    <time>2026-06-23T09:37:35Z</time>
   </trkpt>
   <trkpt lat="-3.1015260" lon="37.3785830">
    <ele>4594.2</ele>
    <time>2026-06-23T09:37:36Z</time>
   </trkpt>
   <trkpt lat="-3.1015290" lon="37.3785820">
    <ele>4594.2</ele>
    <time>2026-06-23T09:37:37Z</time>
   </trkpt>
   <trkpt lat="-3.1015310" lon="37.3785820">
    <ele>4594.2</ele>
    <time>2026-06-23T09:37:38Z</time>
   </trkpt>
   <trkpt lat="-3.1015290" lon="37.3785830">
    <ele>4594.1</ele>
    <time>2026-06-23T09:37:39Z</time>
   </trkpt>
   <trkpt lat="-3.1015300" lon="37.3785830">
    <ele>4594.1</ele>
    <time>2026-06-23T09:37:40Z</time>
   </trkpt>
   <trkpt lat="-3.1015300" lon="37.3785860">
    <ele>4594.1</ele>
    <time>2026-06-23T09:37:41Z</time>
   </trkpt>
   <trkpt lat="-3.1015310" lon="37.3785890">
    <ele>4594.0</ele>
    <time>2026-06-23T09:37:42Z</time>
   </trkpt>
   <trkpt lat="-3.1015330" lon="37.3785910">
    <ele>4594.0</ele>
    <time>2026-06-23T09:37:43Z</time>
   </trkpt>
   <trkpt lat="-3.1015350" lon="37.3785940">
    <ele>4594.0</ele>
    <time>2026-06-23T09:37:44Z</time>
   </trkpt>
   <trkpt lat="-3.1015340" lon="37.3785960">
    <ele>4593.9</ele>
    <time>2026-06-23T09:37:45Z</time>
   </trkpt>
   <trkpt lat="-3.1015310" lon="37.3786030">
    <ele>4593.8</ele>
    <time>2026-06-23T09:37:46Z</time>
   </trkpt>
   <trkpt lat="-3.1015290" lon="37.3786050">
    <ele>4593.8</ele>
    <time>2026-06-23T09:37:47Z</time>
   </trkpt>
   <trkpt lat="-3.1015370" lon="37.3785980">
    <ele>4593.7</ele>
    <time>2026-06-23T09:37:48Z</time>
   </trkpt>
   <trkpt lat="-3.1015470" lon="37.3785980">
    <ele>4593.5</ele>
    <time>2026-06-23T09:37:49Z</time>
   </trkpt>
   <trkpt lat="-3.1015490" lon="37.3785970">
    <ele>4593.5</ele>
    <time>2026-06-23T09:37:50Z</time>
   </trkpt>
   <trkpt lat="-3.1015490" lon="37.3785980">
    <ele>4593.5</ele>
    <time>2026-06-23T09:37:51Z</time>
   </trkpt>
   <trkpt lat="-3.1015520" lon="37.3785960">
    <ele>4593.4</ele>
    <time>2026-06-23T09:37:52Z</time>
   </trkpt>
   <trkpt lat="-3.1015590" lon="37.3785930">
    <ele>4593.3</ele>
    <time>2026-06-23T09:37:53Z</time>
   </trkpt>
   <trkpt lat="-3.1015660" lon="37.3785920">
    <ele>4593.2</ele>
    <time>2026-06-23T09:37:54Z</time>
   </trkpt>
   <trkpt lat="-3.1015820" lon="37.3785880">
    <ele>4593.0</ele>
    <time>2026-06-23T09:37:55Z</time>
   </trkpt>
   <trkpt lat="-3.1015780" lon="37.3785920">
    <ele>4593.0</ele>
    <time>2026-06-23T09:37:56Z</time>
   </trkpt>
   <trkpt lat="-3.1015740" lon="37.3785960">
    <ele>4592.9</ele>
    <time>2026-06-23T09:37:57Z</time>
   </trkpt>
   <trkpt lat="-3.1015740" lon="37.3785980">
    <ele>4592.9</ele>
    <time>2026-06-23T09:37:58Z</time>
   </trkpt>
   <trkpt lat="-3.1015740" lon="37.3785990">
    <ele>4592.8</ele>
    <time>2026-06-23T09:37:59Z</time>
   </trkpt>
   <trkpt lat="-3.1015730" lon="37.3785990">
    <ele>4592.8</ele>
    <time>2026-06-23T09:38:00Z</time>
   </trkpt>
   <trkpt lat="-3.1015730" lon="37.3785980">
    <ele>4592.8</ele>
    <time>2026-06-23T09:38:01Z</time>
   </trkpt>
   <trkpt lat="-3.1015730" lon="37.3785960">
    <ele>4592.8</ele>
    <time>2026-06-23T09:38:02Z</time>
   </trkpt>
   <trkpt lat="-3.1015730" lon="37.3785960">
    <ele>4592.8</ele>
    <time>2026-06-23T09:38:03Z</time>
   </trkpt>
   <trkpt lat="-3.1015740" lon="37.3785950">
    <ele>4592.8</ele>
    <time>2026-06-23T09:38:04Z</time>
   </trkpt>
   <trkpt lat="-3.1015810" lon="37.3785980">
    <ele>4592.7</ele>
    <time>2026-06-23T09:38:05Z</time>
   </trkpt>
   <trkpt lat="-3.1015820" lon="37.3786020">
    <ele>4592.6</ele>
    <time>2026-06-23T09:38:06Z</time>
   </trkpt>
   <trkpt lat="-3.1015830" lon="37.3786030">
    <ele>4592.6</ele>
    <time>2026-06-23T09:38:07Z</time>
   </trkpt>
   <trkpt lat="-3.1015830" lon="37.3786010">
    <ele>4592.6</ele>
    <time>2026-06-23T09:38:08Z</time>
   </trkpt>
   <trkpt lat="-3.1015810" lon="37.3786020">
    <ele>4592.5</ele>
    <time>2026-06-23T09:38:09Z</time>
   </trkpt>
   <trkpt lat="-3.1015800" lon="37.3786020">
    <ele>4592.5</ele>
    <time>2026-06-23T09:38:10Z</time>
   </trkpt>
   <trkpt lat="-3.1015840" lon="37.3786060">
    <ele>4592.5</ele>
    <time>2026-06-23T09:38:11Z</time>
   </trkpt>
   <trkpt lat="-3.1015850" lon="37.3786000">
    <ele>4592.4</ele>
    <time>2026-06-23T09:38:12Z</time>
   </trkpt>
   <trkpt lat="-3.1015900" lon="37.3785990">
    <ele>4592.3</ele>
    <time>2026-06-23T09:38:13Z</time>
   </trkpt>
   <trkpt lat="-3.1015950" lon="37.3785970">
    <ele>4592.2</ele>
    <time>2026-06-23T09:38:14Z</time>
   </trkpt>
   <trkpt lat="-3.1015990" lon="37.3785960">
    <ele>4592.2</ele>
    <time>2026-06-23T09:38:15Z</time>
   </trkpt>
   <trkpt lat="-3.1016060" lon="37.3785940">
    <ele>4592.1</ele>
    <time>2026-06-23T09:38:16Z</time>
   </trkpt>
   <trkpt lat="-3.1016080" lon="37.3785890">
    <ele>4592.0</ele>
    <time>2026-06-23T09:38:17Z</time>
   </trkpt>
   <trkpt lat="-3.1016140" lon="37.3785910">
    <ele>4591.9</ele>
    <time>2026-06-23T09:38:18Z</time>
   </trkpt>
   <trkpt lat="-3.1016140" lon="37.3785880">
    <ele>4591.9</ele>
    <time>2026-06-23T09:38:19Z</time>
   </trkpt>
   <trkpt lat="-3.1016140" lon="37.3785890">
    <ele>4591.9</ele>
    <time>2026-06-23T09:38:20Z</time>
   </trkpt>
   <trkpt lat="-3.1016160" lon="37.3785870">
    <ele>4591.8</ele>
    <time>2026-06-23T09:38:21Z</time>
   </trkpt>
   <trkpt lat="-3.1016160" lon="37.3785870">
    <ele>4591.8</ele>
    <time>2026-06-23T09:38:22Z</time>
   </trkpt>
   <trkpt lat="-3.1016190" lon="37.3785920">
    <ele>4591.8</ele>
    <time>2026-06-23T09:38:23Z</time>
   </trkpt>
   <trkpt lat="-3.1016230" lon="37.3785960">
    <ele>4591.7</ele>
    <time>2026-06-23T09:38:24Z</time>
   </trkpt>
   <trkpt lat="-3.1016260" lon="37.3785990">
    <ele>4591.6</ele>
    <time>2026-06-23T09:38:25Z</time>
   </trkpt>
   <trkpt lat="-3.1016310" lon="37.3785950">
    <ele>4591.6</ele>
    <time>2026-06-23T09:38:26Z</time>
   </trkpt>
   <trkpt lat="-3.1016320" lon="37.3785930">
    <ele>4591.5</ele>
    <time>2026-06-23T09:38:27Z</time>
   </trkpt>
   <trkpt lat="-3.1016360" lon="37.3785890">
    <ele>4591.5</ele>
    <time>2026-06-23T09:38:28Z</time>
   </trkpt>
   <trkpt lat="-3.1016400" lon="37.3785850">
    <ele>4591.4</ele>
    <time>2026-06-23T09:38:29Z</time>
   </trkpt>
   <trkpt lat="-3.1016440" lon="37.3785820">
    <ele>4591.3</ele>
    <time>2026-06-23T09:38:30Z</time>
   </trkpt>
   <trkpt lat="-3.1016470" lon="37.3785830">
    <ele>4591.3</ele>
    <time>2026-06-23T09:38:31Z</time>
   </trkpt>
   <trkpt lat="-3.1016500" lon="37.3785840">
    <ele>4591.2</ele>
    <time>2026-06-23T09:38:32Z</time>
   </trkpt>
   <trkpt lat="-3.1016570" lon="37.3785840">
    <ele>4591.1</ele>
    <time>2026-06-23T09:38:33Z</time>
   </trkpt>
   <trkpt lat="-3.1016650" lon="37.3785840">
    <ele>4591.0</ele>
    <time>2026-06-23T09:38:34Z</time>
   </trkpt>
   <trkpt lat="-3.1016680" lon="37.3785810">
    <ele>4591.0</ele>
    <time>2026-06-23T09:38:35Z</time>
   </trkpt>
   <trkpt lat="-3.1016770" lon="37.3785820">
    <ele>4590.9</ele>
    <time>2026-06-23T09:38:36Z</time>
   </trkpt>
   <trkpt lat="-3.1016840" lon="37.3785830">
    <ele>4590.8</ele>
    <time>2026-06-23T09:38:37Z</time>
   </trkpt>
   <trkpt lat="-3.1016880" lon="37.3785860">
    <ele>4590.7</ele>
    <time>2026-06-23T09:38:38Z</time>
   </trkpt>
   <trkpt lat="-3.1016990" lon="37.3785890">
    <ele>4590.6</ele>
    <time>2026-06-23T09:38:39Z</time>
   </trkpt>
   <trkpt lat="-3.1017080" lon="37.3785950">
    <ele>4590.4</ele>
    <time>2026-06-23T09:38:40Z</time>
   </trkpt>
   <trkpt lat="-3.1017050" lon="37.3785960">
    <ele>4590.4</ele>
    <time>2026-06-23T09:38:41Z</time>
   </trkpt>
   <trkpt lat="-3.1017060" lon="37.3786020">
    <ele>4590.3</ele>
    <time>2026-06-23T09:38:42Z</time>
   </trkpt>
   <trkpt lat="-3.1017060" lon="37.3786060">
    <ele>4590.3</ele>
    <time>2026-06-23T09:38:43Z</time>
   </trkpt>
   <trkpt lat="-3.1017070" lon="37.3786130">
    <ele>4590.2</ele>
    <time>2026-06-23T09:38:44Z</time>
   </trkpt>
   <trkpt lat="-3.1017090" lon="37.3786170">
    <ele>4590.1</ele>
    <time>2026-06-23T09:38:45Z</time>
   </trkpt>
   <trkpt lat="-3.1017130" lon="37.3786230">
    <ele>4590.0</ele>
    <time>2026-06-23T09:38:46Z</time>
   </trkpt>
   <trkpt lat="-3.1017140" lon="37.3786280">
    <ele>4590.0</ele>
    <time>2026-06-23T09:38:47Z</time>
   </trkpt>
   <trkpt lat="-3.1017170" lon="37.3786290">
    <ele>4589.9</ele>
    <time>2026-06-23T09:38:48Z</time>
   </trkpt>
   <trkpt lat="-3.1017260" lon="37.3786240">
    <ele>4589.8</ele>
    <time>2026-06-23T09:38:49Z</time>
   </trkpt>
   <trkpt lat="-3.1017310" lon="37.3786140">
    <ele>4589.6</ele>
    <time>2026-06-23T09:38:50Z</time>
   </trkpt>
   <trkpt lat="-3.1017360" lon="37.3786080">
    <ele>4589.5</ele>
    <time>2026-06-23T09:38:51Z</time>
   </trkpt>
   <trkpt lat="-3.1017380" lon="37.3786010">
    <ele>4589.4</ele>
    <time>2026-06-23T09:38:52Z</time>
   </trkpt>
   <trkpt lat="-3.1017400" lon="37.3785980">
    <ele>4589.4</ele>
    <time>2026-06-23T09:38:53Z</time>
   </trkpt>
   <trkpt lat="-3.1017420" lon="37.3785940">
    <ele>4589.3</ele>
    <time>2026-06-23T09:38:54Z</time>
   </trkpt>
   <trkpt lat="-3.1017480" lon="37.3785880">
    <ele>4589.2</ele>
    <time>2026-06-23T09:38:55Z</time>
   </trkpt>
   <trkpt lat="-3.1017520" lon="37.3785870">
    <ele>4589.2</ele>
    <time>2026-06-23T09:38:56Z</time>
   </trkpt>
   <trkpt lat="-3.1017570" lon="37.3785870">
    <ele>4589.1</ele>
    <time>2026-06-23T09:38:57Z</time>
   </trkpt>
   <trkpt lat="-3.1017650" lon="37.3785890">
    <ele>4589.0</ele>
    <time>2026-06-23T09:38:58Z</time>
   </trkpt>
   <trkpt lat="-3.1017740" lon="37.3785930">
    <ele>4588.9</ele>
    <time>2026-06-23T09:38:59Z</time>
   </trkpt>
   <trkpt lat="-3.1017780" lon="37.3785990">
    <ele>4588.8</ele>
    <time>2026-06-23T09:39:00Z</time>
   </trkpt>
   <trkpt lat="-3.1017800" lon="37.3786060">
    <ele>4588.7</ele>
    <time>2026-06-23T09:39:01Z</time>
   </trkpt>
   <trkpt lat="-3.1017850" lon="37.3786120">
    <ele>4588.6</ele>
    <time>2026-06-23T09:39:02Z</time>
   </trkpt>
   <trkpt lat="-3.1017910" lon="37.3786150">
    <ele>4588.5</ele>
    <time>2026-06-23T09:39:03Z</time>
   </trkpt>
   <trkpt lat="-3.1017990" lon="37.3786160">
    <ele>4588.4</ele>
    <time>2026-06-23T09:39:04Z</time>
   </trkpt>
   <trkpt lat="-3.1018080" lon="37.3786160">
    <ele>4588.3</ele>
    <time>2026-06-23T09:39:05Z</time>
   </trkpt>
   <trkpt lat="-3.1018080" lon="37.3786090">
    <ele>4588.2</ele>
    <time>2026-06-23T09:39:06Z</time>
   </trkpt>
   <trkpt lat="-3.1018110" lon="37.3786010">
    <ele>4588.1</ele>
    <time>2026-06-23T09:39:07Z</time>
   </trkpt>
   <trkpt lat="-3.1018160" lon="37.3785950">
    <ele>4588.0</ele>
    <time>2026-06-23T09:39:08Z</time>
   </trkpt>
   <trkpt lat="-3.1018190" lon="37.3785880">
    <ele>4587.9</ele>
    <time>2026-06-23T09:39:09Z</time>
   </trkpt>
   <trkpt lat="-3.1018210" lon="37.3785830">
    <ele>4587.9</ele>
    <time>2026-06-23T09:39:10Z</time>
   </trkpt>
   <trkpt lat="-3.1018240" lon="37.3785760">
    <ele>4587.8</ele>
    <time>2026-06-23T09:39:11Z</time>
   </trkpt>
   <trkpt lat="-3.1018280" lon="37.3785690">
    <ele>4587.7</ele>
    <time>2026-06-23T09:39:12Z</time>
   </trkpt>
   <trkpt lat="-3.1018330" lon="37.3785620">
    <ele>4587.5</ele>
    <time>2026-06-23T09:39:13Z</time>
   </trkpt>
   <trkpt lat="-3.1018380" lon="37.3785590">
    <ele>4587.5</ele>
    <time>2026-06-23T09:39:14Z</time>
   </trkpt>
   <trkpt lat="-3.1018470" lon="37.3785530">
    <ele>4587.3</ele>
    <time>2026-06-23T09:39:15Z</time>
   </trkpt>
   <trkpt lat="-3.1018550" lon="37.3785540">
    <ele>4587.2</ele>
    <time>2026-06-23T09:39:16Z</time>
   </trkpt>
   <trkpt lat="-3.1018560" lon="37.3785570">
    <ele>4587.2</ele>
    <time>2026-06-23T09:39:17Z</time>
   </trkpt>
   <trkpt lat="-3.1018570" lon="37.3785550">
    <ele>4587.2</ele>
    <time>2026-06-23T09:39:18Z</time>
   </trkpt>
   <trkpt lat="-3.1018610" lon="37.3785580">
    <ele>4587.1</ele>
    <time>2026-06-23T09:39:19Z</time>
   </trkpt>
   <trkpt lat="-3.1018680" lon="37.3785650">
    <ele>4587.0</ele>
    <time>2026-06-23T09:39:20Z</time>
   </trkpt>
   <trkpt lat="-3.1018680" lon="37.3785680">
    <ele>4586.9</ele>
    <time>2026-06-23T09:39:21Z</time>
   </trkpt>
   <trkpt lat="-3.1018670" lon="37.3785700">
    <ele>4586.9</ele>
    <time>2026-06-23T09:39:22Z</time>
   </trkpt>
   <trkpt lat="-3.1018690" lon="37.3785730">
    <ele>4586.9</ele>
    <time>2026-06-23T09:39:23Z</time>
   </trkpt>
   <trkpt lat="-3.1018710" lon="37.3785840">
    <ele>4586.7</ele>
    <time>2026-06-23T09:39:24Z</time>
   </trkpt>
   <trkpt lat="-3.1018720" lon="37.3785910">
    <ele>4586.6</ele>
    <time>2026-06-23T09:39:25Z</time>
   </trkpt>
   <trkpt lat="-3.1018750" lon="37.3785980">
    <ele>4586.5</ele>
    <time>2026-06-23T09:39:26Z</time>
   </trkpt>
   <trkpt lat="-3.1018810" lon="37.3785980">
    <ele>4586.5</ele>
    <time>2026-06-23T09:39:27Z</time>
   </trkpt>
   <trkpt lat="-3.1018920" lon="37.3785980">
    <ele>4586.3</ele>
    <time>2026-06-23T09:39:28Z</time>
   </trkpt>
   <trkpt lat="-3.1019020" lon="37.3785960">
    <ele>4586.2</ele>
    <time>2026-06-23T09:39:29Z</time>
   </trkpt>
   <trkpt lat="-3.1019050" lon="37.3785940">
    <ele>4586.1</ele>
    <time>2026-06-23T09:39:30Z</time>
   </trkpt>
   <trkpt lat="-3.1019080" lon="37.3785990">
    <ele>4586.1</ele>
    <time>2026-06-23T09:39:31Z</time>
   </trkpt>
   <trkpt lat="-3.1019110" lon="37.3786070">
    <ele>4586.0</ele>
    <time>2026-06-23T09:39:32Z</time>
   </trkpt>
   <trkpt lat="-3.1019140" lon="37.3786130">
    <ele>4585.9</ele>
    <time>2026-06-23T09:39:33Z</time>
   </trkpt>
   <trkpt lat="-3.1019150" lon="37.3786210">
    <ele>4585.8</ele>
    <time>2026-06-23T09:39:34Z</time>
   </trkpt>
   <trkpt lat="-3.1019230" lon="37.3786270">
    <ele>4585.7</ele>
    <time>2026-06-23T09:39:35Z</time>
   </trkpt>
   <trkpt lat="-3.1019280" lon="37.3786320">
    <ele>4585.6</ele>
    <time>2026-06-23T09:39:36Z</time>
   </trkpt>
   <trkpt lat="-3.1019330" lon="37.3786350">
    <ele>4585.5</ele>
    <time>2026-06-23T09:39:37Z</time>
   </trkpt>
   <trkpt lat="-3.1019420" lon="37.3786370">
    <ele>4585.4</ele>
    <time>2026-06-23T09:39:38Z</time>
   </trkpt>
   <trkpt lat="-3.1019490" lon="37.3786320">
    <ele>4585.3</ele>
    <time>2026-06-23T09:39:39Z</time>
   </trkpt>
   <trkpt lat="-3.1019570" lon="37.3786300">
    <ele>4585.2</ele>
    <time>2026-06-23T09:39:40Z</time>
   </trkpt>
   <trkpt lat="-3.1019640" lon="37.3786300">
    <ele>4585.1</ele>
    <time>2026-06-23T09:39:41Z</time>
   </trkpt>
   <trkpt lat="-3.1019670" lon="37.3786370">
    <ele>4585.0</ele>
    <time>2026-06-23T09:39:42Z</time>
   </trkpt>
   <trkpt lat="-3.1019680" lon="37.3786490">
    <ele>4584.8</ele>
    <time>2026-06-23T09:39:43Z</time>
   </trkpt>
   <trkpt lat="-3.1019690" lon="37.3786600">
    <ele>4584.7</ele>
    <time>2026-06-23T09:39:44Z</time>
   </trkpt>
   <trkpt lat="-3.1019690" lon="37.3786650">
    <ele>4584.6</ele>
    <time>2026-06-23T09:39:45Z</time>
   </trkpt>
   <trkpt lat="-3.1019710" lon="37.3786720">
    <ele>4584.5</ele>
    <time>2026-06-23T09:39:46Z</time>
   </trkpt>
   <trkpt lat="-3.1019810" lon="37.3786710">
    <ele>4584.4</ele>
    <time>2026-06-23T09:39:47Z</time>
   </trkpt>
   <trkpt lat="-3.1019890" lon="37.3786680">
    <ele>4584.3</ele>
    <time>2026-06-23T09:39:48Z</time>
   </trkpt>
   <trkpt lat="-3.1019950" lon="37.3786660">
    <ele>4584.2</ele>
    <time>2026-06-23T09:39:49Z</time>
   </trkpt>
   <trkpt lat="-3.1020020" lon="37.3786640">
    <ele>4584.1</ele>
    <time>2026-06-23T09:39:50Z</time>
   </trkpt>
   <trkpt lat="-3.1020050" lon="37.3786610">
    <ele>4584.1</ele>
    <time>2026-06-23T09:39:51Z</time>
   </trkpt>
   <trkpt lat="-3.1020100" lon="37.3786540">
    <ele>4584.0</ele>
    <time>2026-06-23T09:39:52Z</time>
   </trkpt>
   <trkpt lat="-3.1020120" lon="37.3786500">
    <ele>4583.9</ele>
    <time>2026-06-23T09:39:53Z</time>
   </trkpt>
   <trkpt lat="-3.1020140" lon="37.3786460">
    <ele>4583.8</ele>
    <time>2026-06-23T09:39:54Z</time>
   </trkpt>
   <trkpt lat="-3.1020170" lon="37.3786370">
    <ele>4583.7</ele>
    <time>2026-06-23T09:39:55Z</time>
   </trkpt>
   <trkpt lat="-3.1020150" lon="37.3786320">
    <ele>4583.7</ele>
    <time>2026-06-23T09:39:56Z</time>
   </trkpt>
   <trkpt lat="-3.1020120" lon="37.3786260">
    <ele>4583.6</ele>
    <time>2026-06-23T09:39:57Z</time>
   </trkpt>
   <trkpt lat="-3.1020130" lon="37.3786200">
    <ele>4583.5</ele>
    <time>2026-06-23T09:39:58Z</time>
   </trkpt>
   <trkpt lat="-3.1020170" lon="37.3786180">
    <ele>4583.4</ele>
    <time>2026-06-23T09:39:59Z</time>
   </trkpt>
   <trkpt lat="-3.1020230" lon="37.3786160">
    <ele>4583.4</ele>
    <time>2026-06-23T09:40:00Z</time>
   </trkpt>
   <trkpt lat="-3.1020320" lon="37.3786130">
    <ele>4583.2</ele>
    <time>2026-06-23T09:40:01Z</time>
   </trkpt>
   <trkpt lat="-3.1020390" lon="37.3786120">
    <ele>4583.1</ele>
    <time>2026-06-23T09:40:02Z</time>
   </trkpt>
   <trkpt lat="-3.1020430" lon="37.3786140">
    <ele>4583.1</ele>
    <time>2026-06-23T09:40:03Z</time>
   </trkpt>
   <trkpt lat="-3.1020470" lon="37.3786160">
    <ele>4583.0</ele>
    <time>2026-06-23T09:40:04Z</time>
   </trkpt>
   <trkpt lat="-3.1020540" lon="37.3786210">
    <ele>4582.9</ele>
    <time>2026-06-23T09:40:05Z</time>
   </trkpt>
   <trkpt lat="-3.1020550" lon="37.3786260">
    <ele>4582.9</ele>
    <time>2026-06-23T09:40:06Z</time>
   </trkpt>
   <trkpt lat="-3.1020520" lon="37.3786250">
    <ele>4582.8</ele>
    <time>2026-06-23T09:40:07Z</time>
   </trkpt>
   <trkpt lat="-3.1020520" lon="37.3786230">
    <ele>4582.8</ele>
    <time>2026-06-23T09:40:08Z</time>
   </trkpt>
   <trkpt lat="-3.1020510" lon="37.3786210">
    <ele>4582.8</ele>
    <time>2026-06-23T09:40:09Z</time>
   </trkpt>
   <trkpt lat="-3.1020510" lon="37.3786210">
    <ele>4582.8</ele>
    <time>2026-06-23T09:40:10Z</time>
   </trkpt>
   <trkpt lat="-3.1020520" lon="37.3786230">
    <ele>4582.7</ele>
    <time>2026-06-23T09:40:11Z</time>
   </trkpt>
   <trkpt lat="-3.1020570" lon="37.3786250">
    <ele>4582.7</ele>
    <time>2026-06-23T09:40:12Z</time>
   </trkpt>
   <trkpt lat="-3.1020580" lon="37.3786290">
    <ele>4582.6</ele>
    <time>2026-06-23T09:40:13Z</time>
   </trkpt>
   <trkpt lat="-3.1020630" lon="37.3786310">
    <ele>4582.5</ele>
    <time>2026-06-23T09:40:14Z</time>
   </trkpt>
   <trkpt lat="-3.1020670" lon="37.3786260">
    <ele>4582.5</ele>
    <time>2026-06-23T09:40:15Z</time>
   </trkpt>
   <trkpt lat="-3.1020740" lon="37.3786250">
    <ele>4582.4</ele>
    <time>2026-06-23T09:40:16Z</time>
   </trkpt>
   <trkpt lat="-3.1020780" lon="37.3786210">
    <ele>4582.3</ele>
    <time>2026-06-23T09:40:17Z</time>
   </trkpt>
   <trkpt lat="-3.1020820" lon="37.3786190">
    <ele>4582.2</ele>
    <time>2026-06-23T09:40:18Z</time>
   </trkpt>
   <trkpt lat="-3.1020910" lon="37.3786200">
    <ele>4582.1</ele>
    <time>2026-06-23T09:40:19Z</time>
   </trkpt>
   <trkpt lat="-3.1021010" lon="37.3786190">
    <ele>4582.0</ele>
    <time>2026-06-23T09:40:20Z</time>
   </trkpt>
   <trkpt lat="-3.1021010" lon="37.3786150">
    <ele>4581.9</ele>
    <time>2026-06-23T09:40:21Z</time>
   </trkpt>
   <trkpt lat="-3.1021030" lon="37.3786080">
    <ele>4581.8</ele>
    <time>2026-06-23T09:40:22Z</time>
   </trkpt>
   <trkpt lat="-3.1021010" lon="37.3785980">
    <ele>4581.7</ele>
    <time>2026-06-23T09:40:23Z</time>
   </trkpt>
   <trkpt lat="-3.1021000" lon="37.3785940">
    <ele>4581.7</ele>
    <time>2026-06-23T09:40:24Z</time>
   </trkpt>
   <trkpt lat="-3.1021040" lon="37.3785880">
    <ele>4581.6</ele>
    <time>2026-06-23T09:40:25Z</time>
   </trkpt>
   <trkpt lat="-3.1021130" lon="37.3785880">
    <ele>4581.5</ele>
    <time>2026-06-23T09:40:26Z</time>
   </trkpt>
   <trkpt lat="-3.1021230" lon="37.3785920">
    <ele>4581.3</ele>
    <time>2026-06-23T09:40:27Z</time>
   </trkpt>
   <trkpt lat="-3.1021330" lon="37.3785940">
    <ele>4581.2</ele>
    <time>2026-06-23T09:40:28Z</time>
   </trkpt>
   <trkpt lat="-3.1021370" lon="37.3785940">
    <ele>4581.1</ele>
    <time>2026-06-23T09:40:29Z</time>
   </trkpt>
   <trkpt lat="-3.1021390" lon="37.3785900">
    <ele>4581.1</ele>
    <time>2026-06-23T09:40:30Z</time>
   </trkpt>
   <trkpt lat="-3.1021380" lon="37.3785840">
    <ele>4581.0</ele>
    <time>2026-06-23T09:40:31Z</time>
   </trkpt>
   <trkpt lat="-3.1021390" lon="37.3785780">
    <ele>4580.9</ele>
    <time>2026-06-23T09:40:32Z</time>
   </trkpt>
   <trkpt lat="-3.1021380" lon="37.3785780">
    <ele>4580.9</ele>
    <time>2026-06-23T09:40:33Z</time>
   </trkpt>
   <trkpt lat="-3.1021390" lon="37.3785710">
    <ele>4580.8</ele>
    <time>2026-06-23T09:40:34Z</time>
   </trkpt>
   <trkpt lat="-3.1021400" lon="37.3785660">
    <ele>4580.8</ele>
    <time>2026-06-23T09:40:35Z</time>
   </trkpt>
   <trkpt lat="-3.1021440" lon="37.3785630">
    <ele>4580.7</ele>
    <time>2026-06-23T09:40:36Z</time>
   </trkpt>
   <trkpt lat="-3.1021490" lon="37.3785590">
    <ele>4580.6</ele>
    <time>2026-06-23T09:40:37Z</time>
   </trkpt>
   <trkpt lat="-3.1021530" lon="37.3785560">
    <ele>4580.5</ele>
    <time>2026-06-23T09:40:38Z</time>
   </trkpt>
   <trkpt lat="-3.1021520" lon="37.3785550">
    <ele>4580.5</ele>
    <time>2026-06-23T09:40:39Z</time>
   </trkpt>
   <trkpt lat="-3.1021540" lon="37.3785580">
    <ele>4580.5</ele>
    <time>2026-06-23T09:40:40Z</time>
   </trkpt>
   <trkpt lat="-3.1021540" lon="37.3785580">
    <ele>4580.5</ele>
    <time>2026-06-23T09:40:41Z</time>
   </trkpt>
   <trkpt lat="-3.1021540" lon="37.3785580">
    <ele>4580.5</ele>
    <time>2026-06-23T09:40:42Z</time>
   </trkpt>
   <trkpt lat="-3.1021540" lon="37.3785580">
    <ele>4580.5</ele>
    <time>2026-06-23T09:40:43Z</time>
   </trkpt>
   <trkpt lat="-3.1021550" lon="37.3785590">
    <ele>4580.5</ele>
    <time>2026-06-23T09:40:44Z</time>
   </trkpt>
   <trkpt lat="-3.1021560" lon="37.3785590">
    <ele>4580.5</ele>
    <time>2026-06-23T09:40:45Z</time>
   </trkpt>
   <trkpt lat="-3.1021590" lon="37.3785580">
    <ele>4580.4</ele>
    <time>2026-06-23T09:40:46Z</time>
   </trkpt>
   <trkpt lat="-3.1021640" lon="37.3785550">
    <ele>4580.3</ele>
    <time>2026-06-23T09:40:47Z</time>
   </trkpt>
   <trkpt lat="-3.1021700" lon="37.3785460">
    <ele>4580.2</ele>
    <time>2026-06-23T09:40:48Z</time>
   </trkpt>
   <trkpt lat="-3.1021710" lon="37.3785420">
    <ele>4580.1</ele>
    <time>2026-06-23T09:40:49Z</time>
   </trkpt>
   <trkpt lat="-3.1021760" lon="37.3785380">
    <ele>4580.1</ele>
    <time>2026-06-23T09:40:50Z</time>
   </trkpt>
   <trkpt lat="-3.1021800" lon="37.3785330">
    <ele>4580.0</ele>
    <time>2026-06-23T09:40:51Z</time>
   </trkpt>
   <trkpt lat="-3.1021840" lon="37.3785290">
    <ele>4579.9</ele>
    <time>2026-06-23T09:40:52Z</time>
   </trkpt>
   <trkpt lat="-3.1021910" lon="37.3785250">
    <ele>4579.8</ele>
    <time>2026-06-23T09:40:53Z</time>
   </trkpt>
   <trkpt lat="-3.1021970" lon="37.3785250">
    <ele>4579.7</ele>
    <time>2026-06-23T09:40:54Z</time>
   </trkpt>
   <trkpt lat="-3.1022040" lon="37.3785240">
    <ele>4579.6</ele>
    <time>2026-06-23T09:40:55Z</time>
   </trkpt>
   <trkpt lat="-3.1022130" lon="37.3785210">
    <ele>4579.5</ele>
    <time>2026-06-23T09:40:56Z</time>
   </trkpt>
   <trkpt lat="-3.1022200" lon="37.3785180">
    <ele>4579.4</ele>
    <time>2026-06-23T09:40:57Z</time>
   </trkpt>
   <trkpt lat="-3.1022250" lon="37.3785190">
    <ele>4579.4</ele>
    <time>2026-06-23T09:40:58Z</time>
   </trkpt>
   <trkpt lat="-3.1022330" lon="37.3785230">
    <ele>4579.2</ele>
    <time>2026-06-23T09:40:59Z</time>
   </trkpt>
   <trkpt lat="-3.1022400" lon="37.3785300">
    <ele>4579.1</ele>
    <time>2026-06-23T09:41:00Z</time>
   </trkpt>
   <trkpt lat="-3.1022440" lon="37.3785370">
    <ele>4579.0</ele>
    <time>2026-06-23T09:41:01Z</time>
   </trkpt>
   <trkpt lat="-3.1022480" lon="37.3785460">
    <ele>4578.9</ele>
    <time>2026-06-23T09:41:02Z</time>
   </trkpt>
   <trkpt lat="-3.1022520" lon="37.3785530">
    <ele>4578.8</ele>
    <time>2026-06-23T09:41:03Z</time>
   </trkpt>
   <trkpt lat="-3.1022530" lon="37.3785570">
    <ele>4578.7</ele>
    <time>2026-06-23T09:41:04Z</time>
   </trkpt>
   <trkpt lat="-3.1022590" lon="37.3785610">
    <ele>4578.6</ele>
    <time>2026-06-23T09:41:05Z</time>
   </trkpt>
   <trkpt lat="-3.1022670" lon="37.3785660">
    <ele>4578.5</ele>
    <time>2026-06-23T09:41:06Z</time>
   </trkpt>
   <trkpt lat="-3.1022720" lon="37.3785690">
    <ele>4578.4</ele>
    <time>2026-06-23T09:41:07Z</time>
   </trkpt>
   <trkpt lat="-3.1022800" lon="37.3785680">
    <ele>4578.3</ele>
    <time>2026-06-23T09:41:08Z</time>
   </trkpt>
   <trkpt lat="-3.1022890" lon="37.3785640">
    <ele>4578.2</ele>
    <time>2026-06-23T09:41:09Z</time>
   </trkpt>
   <trkpt lat="-3.1022940" lon="37.3785610">
    <ele>4578.1</ele>
    <time>2026-06-23T09:41:10Z</time>
   </trkpt>
   <trkpt lat="-3.1023010" lon="37.3785570">
    <ele>4578.0</ele>
    <time>2026-06-23T09:41:11Z</time>
   </trkpt>
   <trkpt lat="-3.1023090" lon="37.3785540">
    <ele>4577.9</ele>
    <time>2026-06-23T09:41:12Z</time>
   </trkpt>
   <trkpt lat="-3.1023140" lon="37.3785510">
    <ele>4577.8</ele>
    <time>2026-06-23T09:41:13Z</time>
   </trkpt>
   <trkpt lat="-3.1023170" lon="37.3785470">
    <ele>4577.8</ele>
    <time>2026-06-23T09:41:14Z</time>
   </trkpt>
   <trkpt lat="-3.1023170" lon="37.3785430">
    <ele>4577.7</ele>
    <time>2026-06-23T09:41:15Z</time>
   </trkpt>
   <trkpt lat="-3.1023160" lon="37.3785450">
    <ele>4577.7</ele>
    <time>2026-06-23T09:41:16Z</time>
   </trkpt>
   <trkpt lat="-3.1023170" lon="37.3785450">
    <ele>4577.7</ele>
    <time>2026-06-23T09:41:17Z</time>
   </trkpt>
   <trkpt lat="-3.1023160" lon="37.3785450">
    <ele>4577.7</ele>
    <time>2026-06-23T09:41:18Z</time>
   </trkpt>
   <trkpt lat="-3.1023190" lon="37.3785430">
    <ele>4577.6</ele>
    <time>2026-06-23T09:41:19Z</time>
   </trkpt>
   <trkpt lat="-3.1023230" lon="37.3785380">
    <ele>4577.6</ele>
    <time>2026-06-23T09:41:20Z</time>
   </trkpt>
   <trkpt lat="-3.1023260" lon="37.3785300">
    <ele>4577.4</ele>
    <time>2026-06-23T09:41:21Z</time>
   </trkpt>
   <trkpt lat="-3.1023270" lon="37.3785250">
    <ele>4577.4</ele>
    <time>2026-06-23T09:41:22Z</time>
   </trkpt>
   <trkpt lat="-3.1023280" lon="37.3785210">
    <ele>4577.3</ele>
    <time>2026-06-23T09:41:23Z</time>
   </trkpt>
   <trkpt lat="-3.1023310" lon="37.3785160">
    <ele>4577.2</ele>
    <time>2026-06-23T09:41:24Z</time>
   </trkpt>
   <trkpt lat="-3.1023330" lon="37.3785110">
    <ele>4577.2</ele>
    <time>2026-06-23T09:41:25Z</time>
   </trkpt>
   <trkpt lat="-3.1023380" lon="37.3785050">
    <ele>4577.1</ele>
    <time>2026-06-23T09:41:26Z</time>
   </trkpt>
   <trkpt lat="-3.1023410" lon="37.3785000">
    <ele>4577.0</ele>
    <time>2026-06-23T09:41:27Z</time>
   </trkpt>
   <trkpt lat="-3.1023440" lon="37.3784940">
    <ele>4576.9</ele>
    <time>2026-06-23T09:41:28Z</time>
   </trkpt>
   <trkpt lat="-3.1023510" lon="37.3784870">
    <ele>4576.8</ele>
    <time>2026-06-23T09:41:29Z</time>
   </trkpt>
   <trkpt lat="-3.1023550" lon="37.3784870">
    <ele>4576.7</ele>
    <time>2026-06-23T09:41:30Z</time>
   </trkpt>
   <trkpt lat="-3.1023610" lon="37.3784800">
    <ele>4576.6</ele>
    <time>2026-06-23T09:41:31Z</time>
   </trkpt>
   <trkpt lat="-3.1023630" lon="37.3784780">
    <ele>4576.6</ele>
    <time>2026-06-23T09:41:32Z</time>
   </trkpt>
   <trkpt lat="-3.1023690" lon="37.3784760">
    <ele>4576.5</ele>
    <time>2026-06-23T09:41:33Z</time>
   </trkpt>
   <trkpt lat="-3.1023770" lon="37.3784790">
    <ele>4576.4</ele>
    <time>2026-06-23T09:41:34Z</time>
   </trkpt>
   <trkpt lat="-3.1023830" lon="37.3784810">
    <ele>4576.3</ele>
    <time>2026-06-23T09:41:35Z</time>
   </trkpt>
   <trkpt lat="-3.1023890" lon="37.3784840">
    <ele>4576.2</ele>
    <time>2026-06-23T09:41:36Z</time>
   </trkpt>
   <trkpt lat="-3.1023890" lon="37.3784880">
    <ele>4576.2</ele>
    <time>2026-06-23T09:41:37Z</time>
   </trkpt>
   <trkpt lat="-3.1023950" lon="37.3784930">
    <ele>4576.1</ele>
    <time>2026-06-23T09:41:38Z</time>
   </trkpt>
   <trkpt lat="-3.1024000" lon="37.3784960">
    <ele>4576.0</ele>
    <time>2026-06-23T09:41:39Z</time>
   </trkpt>
   <trkpt lat="-3.1024030" lon="37.3784950">
    <ele>4576.0</ele>
    <time>2026-06-23T09:41:40Z</time>
   </trkpt>
   <trkpt lat="-3.1024170" lon="37.3784920">
    <ele>4575.8</ele>
    <time>2026-06-23T09:41:41Z</time>
   </trkpt>
   <trkpt lat="-3.1024210" lon="37.3784900">
    <ele>4575.7</ele>
    <time>2026-06-23T09:41:42Z</time>
   </trkpt>
   <trkpt lat="-3.1024290" lon="37.3784840">
    <ele>4575.6</ele>
    <time>2026-06-23T09:41:43Z</time>
   </trkpt>
   <trkpt lat="-3.1024310" lon="37.3784770">
    <ele>4575.5</ele>
    <time>2026-06-23T09:41:44Z</time>
   </trkpt>
   <trkpt lat="-3.1024370" lon="37.3784690">
    <ele>4575.3</ele>
    <time>2026-06-23T09:41:45Z</time>
   </trkpt>
   <trkpt lat="-3.1024430" lon="37.3784640">
    <ele>4575.2</ele>
    <time>2026-06-23T09:41:46Z</time>
   </trkpt>
   <trkpt lat="-3.1024500" lon="37.3784610">
    <ele>4575.1</ele>
    <time>2026-06-23T09:41:47Z</time>
   </trkpt>
   <trkpt lat="-3.1024570" lon="37.3784580">
    <ele>4575.0</ele>
    <time>2026-06-23T09:41:48Z</time>
   </trkpt>
   <trkpt lat="-3.1024640" lon="37.3784580">
    <ele>4574.9</ele>
    <time>2026-06-23T09:41:49Z</time>
   </trkpt>
   <trkpt lat="-3.1024710" lon="37.3784570">
    <ele>4574.8</ele>
    <time>2026-06-23T09:41:50Z</time>
   </trkpt>
   <trkpt lat="-3.1024770" lon="37.3784570">
    <ele>4574.8</ele>
    <time>2026-06-23T09:41:51Z</time>
   </trkpt>
   <trkpt lat="-3.1024850" lon="37.3784580">
    <ele>4574.7</ele>
    <time>2026-06-23T09:41:52Z</time>
   </trkpt>
   <trkpt lat="-3.1024910" lon="37.3784590">
    <ele>4574.6</ele>
    <time>2026-06-23T09:41:53Z</time>
   </trkpt>
   <trkpt lat="-3.1024980" lon="37.3784600">
    <ele>4574.5</ele>
    <time>2026-06-23T09:41:54Z</time>
   </trkpt>
   <trkpt lat="-3.1025040" lon="37.3784610">
    <ele>4574.4</ele>
    <time>2026-06-23T09:41:55Z</time>
   </trkpt>
   <trkpt lat="-3.1025100" lon="37.3784620">
    <ele>4574.3</ele>
    <time>2026-06-23T09:41:56Z</time>
   </trkpt>
   <trkpt lat="-3.1025180" lon="37.3784630">
    <ele>4574.2</ele>
    <time>2026-06-23T09:41:57Z</time>
   </trkpt>
   <trkpt lat="-3.1025240" lon="37.3784620">
    <ele>4574.1</ele>
    <time>2026-06-23T09:41:58Z</time>
   </trkpt>
   <trkpt lat="-3.1025300" lon="37.3784600">
    <ele>4574.0</ele>
    <time>2026-06-23T09:41:59Z</time>
   </trkpt>
   <trkpt lat="-3.1025370" lon="37.3784580">
    <ele>4573.9</ele>
    <time>2026-06-23T09:42:00Z</time>
   </trkpt>
   <trkpt lat="-3.1025450" lon="37.3784560">
    <ele>4573.8</ele>
    <time>2026-06-23T09:42:01Z</time>
   </trkpt>
   <trkpt lat="-3.1025510" lon="37.3784530">
    <ele>4573.7</ele>
    <time>2026-06-23T09:42:02Z</time>
   </trkpt>
   <trkpt lat="-3.1025580" lon="37.3784510">
    <ele>4573.7</ele>
    <time>2026-06-23T09:42:03Z</time>
   </trkpt>
   <trkpt lat="-3.1025640" lon="37.3784490">
    <ele>4573.6</ele>
    <time>2026-06-23T09:42:04Z</time>
   </trkpt>
   <trkpt lat="-3.1025700" lon="37.3784470">
    <ele>4573.5</ele>
    <time>2026-06-23T09:42:05Z</time>
   </trkpt>
   <trkpt lat="-3.1025760" lon="37.3784420">
    <ele>4573.4</ele>
    <time>2026-06-23T09:42:06Z</time>
   </trkpt>
   <trkpt lat="-3.1025830" lon="37.3784390">
    <ele>4573.3</ele>
    <time>2026-06-23T09:42:07Z</time>
   </trkpt>
   <trkpt lat="-3.1025880" lon="37.3784360">
    <ele>4573.2</ele>
    <time>2026-06-23T09:42:08Z</time>
   </trkpt>
   <trkpt lat="-3.1025940" lon="37.3784320">
    <ele>4573.1</ele>
    <time>2026-06-23T09:42:09Z</time>
   </trkpt>
   <trkpt lat="-3.1025990" lon="37.3784330">
    <ele>4573.0</ele>
    <time>2026-06-23T09:42:10Z</time>
   </trkpt>
   <trkpt lat="-3.1026010" lon="37.3784350">
    <ele>4573.0</ele>
    <time>2026-06-23T09:42:11Z</time>
   </trkpt>
   <trkpt lat="-3.1026040" lon="37.3784400">
    <ele>4572.9</ele>
    <time>2026-06-23T09:42:12Z</time>
   </trkpt>
   <trkpt lat="-3.1026100" lon="37.3784480">
    <ele>4572.8</ele>
    <time>2026-06-23T09:42:13Z</time>
   </trkpt>
   <trkpt lat="-3.1026160" lon="37.3784570">
    <ele>4572.6</ele>
    <time>2026-06-23T09:42:14Z</time>
   </trkpt>
   <trkpt lat="-3.1026220" lon="37.3784620">
    <ele>4572.5</ele>
    <time>2026-06-23T09:42:15Z</time>
   </trkpt>
   <trkpt lat="-3.1026260" lon="37.3784660">
    <ele>4572.4</ele>
    <time>2026-06-23T09:42:16Z</time>
   </trkpt>
   <trkpt lat="-3.1026340" lon="37.3784710">
    <ele>4572.3</ele>
    <time>2026-06-23T09:42:17Z</time>
   </trkpt>
   <trkpt lat="-3.1026420" lon="37.3784740">
    <ele>4572.2</ele>
    <time>2026-06-23T09:42:18Z</time>
   </trkpt>
   <trkpt lat="-3.1026490" lon="37.3784790">
    <ele>4572.0</ele>
    <time>2026-06-23T09:42:19Z</time>
   </trkpt>
   <trkpt lat="-3.1026570" lon="37.3784830">
    <ele>4571.9</ele>
    <time>2026-06-23T09:42:20Z</time>
   </trkpt>
   <trkpt lat="-3.1026650" lon="37.3784870">
    <ele>4571.8</ele>
    <time>2026-06-23T09:42:21Z</time>
   </trkpt>
   <trkpt lat="-3.1026710" lon="37.3784880">
    <ele>4571.7</ele>
    <time>2026-06-23T09:42:22Z</time>
   </trkpt>
   <trkpt lat="-3.1026820" lon="37.3784900">
    <ele>4571.6</ele>
    <time>2026-06-23T09:42:23Z</time>
   </trkpt>
   <trkpt lat="-3.1026920" lon="37.3784910">
    <ele>4571.4</ele>
    <time>2026-06-23T09:42:24Z</time>
   </trkpt>
   <trkpt lat="-3.1027030" lon="37.3784890">
    <ele>4571.3</ele>
    <time>2026-06-23T09:42:25Z</time>
   </trkpt>
   <trkpt lat="-3.1027140" lon="37.3784900">
    <ele>4571.1</ele>
    <time>2026-06-23T09:42:26Z</time>
   </trkpt>
   <trkpt lat="-3.1027220" lon="37.3784920">
    <ele>4571.0</ele>
    <time>2026-06-23T09:42:27Z</time>
   </trkpt>
   <trkpt lat="-3.1027290" lon="37.3784920">
    <ele>4570.9</ele>
    <time>2026-06-23T09:42:28Z</time>
   </trkpt>
   <trkpt lat="-3.1027390" lon="37.3784910">
    <ele>4570.7</ele>
    <time>2026-06-23T09:42:29Z</time>
   </trkpt>
   <trkpt lat="-3.1027480" lon="37.3784910">
    <ele>4570.6</ele>
    <time>2026-06-23T09:42:30Z</time>
   </trkpt>
   <trkpt lat="-3.1027560" lon="37.3784910">
    <ele>4570.5</ele>
    <time>2026-06-23T09:42:31Z</time>
   </trkpt>
   <trkpt lat="-3.1027630" lon="37.3784930">
    <ele>4570.4</ele>
    <time>2026-06-23T09:42:32Z</time>
   </trkpt>
   <trkpt lat="-3.1027730" lon="37.3784940">
    <ele>4570.3</ele>
    <time>2026-06-23T09:42:33Z</time>
   </trkpt>
   <trkpt lat="-3.1027810" lon="37.3784950">
    <ele>4570.2</ele>
    <time>2026-06-23T09:42:34Z</time>
   </trkpt>
   <trkpt lat="-3.1027900" lon="37.3784970">
    <ele>4570.0</ele>
    <time>2026-06-23T09:42:35Z</time>
   </trkpt>
   <trkpt lat="-3.1027990" lon="37.3784990">
    <ele>4569.9</ele>
    <time>2026-06-23T09:42:36Z</time>
   </trkpt>
   <trkpt lat="-3.1028090" lon="37.3785000">
    <ele>4569.8</ele>
    <time>2026-06-23T09:42:37Z</time>
   </trkpt>
   <trkpt lat="-3.1028170" lon="37.3785010">
    <ele>4569.6</ele>
    <time>2026-06-23T09:42:38Z</time>
   </trkpt>
   <trkpt lat="-3.1028280" lon="37.3785010">
    <ele>4569.5</ele>
    <time>2026-06-23T09:42:39Z</time>
   </trkpt>
   <trkpt lat="-3.1028380" lon="37.3784990">
    <ele>4569.3</ele>
    <time>2026-06-23T09:42:40Z</time>
   </trkpt>
   <trkpt lat="-3.1028470" lon="37.3784950">
    <ele>4569.2</ele>
    <time>2026-06-23T09:42:41Z</time>
   </trkpt>
   <trkpt lat="-3.1028560" lon="37.3784890">
    <ele>4569.1</ele>
    <time>2026-06-23T09:42:42Z</time>
   </trkpt>
   <trkpt lat="-3.1028650" lon="37.3784880">
    <ele>4568.9</ele>
    <time>2026-06-23T09:42:43Z</time>
   </trkpt>
   <trkpt lat="-3.1028740" lon="37.3784870">
    <ele>4568.8</ele>
    <time>2026-06-23T09:42:44Z</time>
   </trkpt>
   <trkpt lat="-3.1028810" lon="37.3784910">
    <ele>4568.5</ele>
    <time>2026-06-23T09:42:45Z</time>
   </trkpt>
   <trkpt lat="-3.1028850" lon="37.3784930">
    <ele>4568.3</ele>
    <time>2026-06-23T09:42:46Z</time>
   </trkpt>
   <trkpt lat="-3.1029000" lon="37.3784970">
    <ele>4567.9</ele>
    <time>2026-06-23T09:42:47Z</time>
   </trkpt>
   <trkpt lat="-3.1029080" lon="37.3785010">
    <ele>4567.6</ele>
    <time>2026-06-23T09:42:48Z</time>
   </trkpt>
   <trkpt lat="-3.1029170" lon="37.3785020">
    <ele>4567.3</ele>
    <time>2026-06-23T09:42:49Z</time>
   </trkpt>
   <trkpt lat="-3.1029260" lon="37.3785010">
    <ele>4567.1</ele>
    <time>2026-06-23T09:42:50Z</time>
   </trkpt>
   <trkpt lat="-3.1029350" lon="37.3785020">
    <ele>4566.8</ele>
    <time>2026-06-23T09:42:51Z</time>
   </trkpt>
   <trkpt lat="-3.1029470" lon="37.3785030">
    <ele>4566.4</ele>
    <time>2026-06-23T09:42:52Z</time>
   </trkpt>
   <trkpt lat="-3.1029550" lon="37.3785050">
    <ele>4566.2</ele>
    <time>2026-06-23T09:42:53Z</time>
   </trkpt>
   <trkpt lat="-3.1029670" lon="37.3785070">
    <ele>4565.8</ele>
    <time>2026-06-23T09:42:54Z</time>
   </trkpt>
   <trkpt lat="-3.1029690" lon="37.3785140">
    <ele>4565.6</ele>
    <time>2026-06-23T09:42:55Z</time>
   </trkpt>
   <trkpt lat="-3.1029770" lon="37.3785190">
    <ele>4565.3</ele>
    <time>2026-06-23T09:42:56Z</time>
   </trkpt>
   <trkpt lat="-3.1029910" lon="37.3785240">
    <ele>4564.9</ele>
    <time>2026-06-23T09:42:57Z</time>
   </trkpt>
   <trkpt lat="-3.1029990" lon="37.3785230">
    <ele>4564.7</ele>
    <time>2026-06-23T09:42:58Z</time>
   </trkpt>
   <trkpt lat="-3.1030050" lon="37.3785220">
    <ele>4564.5</ele>
    <time>2026-06-23T09:42:59Z</time>
   </trkpt>
   <trkpt lat="-3.1030130" lon="37.3785220">
    <ele>4564.2</ele>
    <time>2026-06-23T09:43:00Z</time>
   </trkpt>
   <trkpt lat="-3.1030180" lon="37.3785230">
    <ele>4564.1</ele>
    <time>2026-06-23T09:43:01Z</time>
   </trkpt>
   <trkpt lat="-3.1030250" lon="37.3785250">
    <ele>4563.9</ele>
    <time>2026-06-23T09:43:02Z</time>
   </trkpt>
   <trkpt lat="-3.1030370" lon="37.3785260">
    <ele>4563.5</ele>
    <time>2026-06-23T09:43:03Z</time>
   </trkpt>
   <trkpt lat="-3.1030470" lon="37.3785260">
    <ele>4563.2</ele>
    <time>2026-06-23T09:43:04Z</time>
   </trkpt>
   <trkpt lat="-3.1030530" lon="37.3785270">
    <ele>4563.0</ele>
    <time>2026-06-23T09:43:05Z</time>
   </trkpt>
   <trkpt lat="-3.1030630" lon="37.3785280">
    <ele>4562.8</ele>
    <time>2026-06-23T09:43:06Z</time>
   </trkpt>
   <trkpt lat="-3.1030690" lon="37.3785290">
    <ele>4562.6</ele>
    <time>2026-06-23T09:43:07Z</time>
   </trkpt>
   <trkpt lat="-3.1030760" lon="37.3785300">
    <ele>4562.4</ele>
    <time>2026-06-23T09:43:08Z</time>
   </trkpt>
   <trkpt lat="-3.1030850" lon="37.3785330">
    <ele>4562.1</ele>
    <time>2026-06-23T09:43:09Z</time>
   </trkpt>
   <trkpt lat="-3.1030940" lon="37.3785350">
    <ele>4561.8</ele>
    <time>2026-06-23T09:43:10Z</time>
   </trkpt>
   <trkpt lat="-3.1031010" lon="37.3785350">
    <ele>4561.6</ele>
    <time>2026-06-23T09:43:11Z</time>
   </trkpt>
   <trkpt lat="-3.1031060" lon="37.3785380">
    <ele>4561.4</ele>
    <time>2026-06-23T09:43:12Z</time>
   </trkpt>
   <trkpt lat="-3.1031140" lon="37.3785400">
    <ele>4561.2</ele>
    <time>2026-06-23T09:43:13Z</time>
   </trkpt>
   <trkpt lat="-3.1031270" lon="37.3785410">
    <ele>4560.8</ele>
    <time>2026-06-23T09:43:14Z</time>
   </trkpt>
   <trkpt lat="-3.1031300" lon="37.3785410">
    <ele>4560.7</ele>
    <time>2026-06-23T09:43:15Z</time>
   </trkpt>
   <trkpt lat="-3.1031440" lon="37.3785420">
    <ele>4560.3</ele>
    <time>2026-06-23T09:43:16Z</time>
   </trkpt>
   <trkpt lat="-3.1031510" lon="37.3785410">
    <ele>4560.1</ele>
    <time>2026-06-23T09:43:17Z</time>
   </trkpt>
   <trkpt lat="-3.1031600" lon="37.3785410">
    <ele>4559.9</ele>
    <time>2026-06-23T09:43:18Z</time>
   </trkpt>
   <trkpt lat="-3.1031680" lon="37.3785400">
    <ele>4559.6</ele>
    <time>2026-06-23T09:43:19Z</time>
   </trkpt>
   <trkpt lat="-3.1031760" lon="37.3785410">
    <ele>4559.4</ele>
    <time>2026-06-23T09:43:20Z</time>
   </trkpt>
   <trkpt lat="-3.1031920" lon="37.3785430">
    <ele>4558.9</ele>
    <time>2026-06-23T09:43:21Z</time>
   </trkpt>
   <trkpt lat="-3.1031950" lon="37.3785450">
    <ele>4558.8</ele>
    <time>2026-06-23T09:43:22Z</time>
   </trkpt>
   <trkpt lat="-3.1032040" lon="37.3785450">
    <ele>4558.5</ele>
    <time>2026-06-23T09:43:23Z</time>
   </trkpt>
   <trkpt lat="-3.1032120" lon="37.3785480">
    <ele>4558.3</ele>
    <time>2026-06-23T09:43:24Z</time>
   </trkpt>
   <trkpt lat="-3.1032200" lon="37.3785480">
    <ele>4558.1</ele>
    <time>2026-06-23T09:43:25Z</time>
   </trkpt>
   <trkpt lat="-3.1032290" lon="37.3785500">
    <ele>4557.8</ele>
    <time>2026-06-23T09:43:26Z</time>
   </trkpt>
   <trkpt lat="-3.1032380" lon="37.3785500">
    <ele>4557.5</ele>
    <time>2026-06-23T09:43:27Z</time>
   </trkpt>
   <trkpt lat="-3.1032450" lon="37.3785510">
    <ele>4557.3</ele>
    <time>2026-06-23T09:43:28Z</time>
   </trkpt>
   <trkpt lat="-3.1032520" lon="37.3785510">
    <ele>4557.1</ele>
    <time>2026-06-23T09:43:29Z</time>
   </trkpt>
   <trkpt lat="-3.1032600" lon="37.3785530">
    <ele>4556.9</ele>
    <time>2026-06-23T09:43:30Z</time>
   </trkpt>
   <trkpt lat="-3.1032680" lon="37.3785530">
    <ele>4556.6</ele>
    <time>2026-06-23T09:43:31Z</time>
   </trkpt>
   <trkpt lat="-3.1032730" lon="37.3785540">
    <ele>4556.5</ele>
    <time>2026-06-23T09:43:32Z</time>
   </trkpt>
   <trkpt lat="-3.1032830" lon="37.3785550">
    <ele>4556.2</ele>
    <time>2026-06-23T09:43:33Z</time>
   </trkpt>
   <trkpt lat="-3.1032920" lon="37.3785550">
    <ele>4555.9</ele>
    <time>2026-06-23T09:43:34Z</time>
   </trkpt>
   <trkpt lat="-3.1032990" lon="37.3785530">
    <ele>4555.7</ele>
    <time>2026-06-23T09:43:35Z</time>
   </trkpt>
   <trkpt lat="-3.1033100" lon="37.3785470">
    <ele>4555.4</ele>
    <time>2026-06-23T09:43:36Z</time>
   </trkpt>
   <trkpt lat="-3.1033160" lon="37.3785420">
    <ele>4555.1</ele>
    <time>2026-06-23T09:43:37Z</time>
   </trkpt>
   <trkpt lat="-3.1033250" lon="37.3785320">
    <ele>4554.7</ele>
    <time>2026-06-23T09:43:38Z</time>
   </trkpt>
   <trkpt lat="-3.1033330" lon="37.3785240">
    <ele>4554.4</ele>
    <time>2026-06-23T09:43:39Z</time>
   </trkpt>
   <trkpt lat="-3.1033400" lon="37.3785270">
    <ele>4554.2</ele>
    <time>2026-06-23T09:43:40Z</time>
   </trkpt>
   <trkpt lat="-3.1033450" lon="37.3785310">
    <ele>4554.0</ele>
    <time>2026-06-23T09:43:41Z</time>
   </trkpt>
   <trkpt lat="-3.1033550" lon="37.3785320">
    <ele>4553.7</ele>
    <time>2026-06-23T09:43:42Z</time>
   </trkpt>
   <trkpt lat="-3.1033620" lon="37.3785330">
    <ele>4553.4</ele>
    <time>2026-06-23T09:43:43Z</time>
   </trkpt>
   <trkpt lat="-3.1033710" lon="37.3785340">
    <ele>4553.2</ele>
    <time>2026-06-23T09:43:44Z</time>
   </trkpt>
   <trkpt lat="-3.1033770" lon="37.3785360">
    <ele>4553.0</ele>
    <time>2026-06-23T09:43:45Z</time>
   </trkpt>
   <trkpt lat="-3.1033880" lon="37.3785370">
    <ele>4552.7</ele>
    <time>2026-06-23T09:43:46Z</time>
   </trkpt>
   <trkpt lat="-3.1033980" lon="37.3785370">
    <ele>4552.4</ele>
    <time>2026-06-23T09:43:47Z</time>
   </trkpt>
   <trkpt lat="-3.1034050" lon="37.3785340">
    <ele>4552.1</ele>
    <time>2026-06-23T09:43:48Z</time>
   </trkpt>
   <trkpt lat="-3.1034090" lon="37.3785290">
    <ele>4551.9</ele>
    <time>2026-06-23T09:43:49Z</time>
   </trkpt>
   <trkpt lat="-3.1034080" lon="37.3785250">
    <ele>4551.8</ele>
    <time>2026-06-23T09:43:50Z</time>
   </trkpt>
   <trkpt lat="-3.1034080" lon="37.3785260">
    <ele>4551.8</ele>
    <time>2026-06-23T09:43:51Z</time>
   </trkpt>
   <trkpt lat="-3.1034090" lon="37.3785260">
    <ele>4551.8</ele>
    <time>2026-06-23T09:43:52Z</time>
   </trkpt>
   <trkpt lat="-3.1034090" lon="37.3785260">
    <ele>4551.8</ele>
    <time>2026-06-23T09:43:53Z</time>
   </trkpt>
   <trkpt lat="-3.1034130" lon="37.3785260">
    <ele>4551.6</ele>
    <time>2026-06-23T09:43:54Z</time>
   </trkpt>
   <trkpt lat="-3.1034190" lon="37.3785200">
    <ele>4551.4</ele>
    <time>2026-06-23T09:43:55Z</time>
   </trkpt>
   <trkpt lat="-3.1034250" lon="37.3785170">
    <ele>4551.2</ele>
    <time>2026-06-23T09:43:56Z</time>
   </trkpt>
   <trkpt lat="-3.1034310" lon="37.3785150">
    <ele>4551.0</ele>
    <time>2026-06-23T09:43:57Z</time>
   </trkpt>
   <trkpt lat="-3.1034380" lon="37.3785120">
    <ele>4550.8</ele>
    <time>2026-06-23T09:43:58Z</time>
   </trkpt>
   <trkpt lat="-3.1034460" lon="37.3785090">
    <ele>4550.5</ele>
    <time>2026-06-23T09:43:59Z</time>
   </trkpt>
   <trkpt lat="-3.1034550" lon="37.3785070">
    <ele>4550.2</ele>
    <time>2026-06-23T09:44:00Z</time>
   </trkpt>
   <trkpt lat="-3.1034620" lon="37.3785060">
    <ele>4550.0</ele>
    <time>2026-06-23T09:44:01Z</time>
   </trkpt>
   <trkpt lat="-3.1034680" lon="37.3785040">
    <ele>4549.8</ele>
    <time>2026-06-23T09:44:02Z</time>
   </trkpt>
   <trkpt lat="-3.1034770" lon="37.3785010">
    <ele>4549.5</ele>
    <time>2026-06-23T09:44:03Z</time>
   </trkpt>
   <trkpt lat="-3.1034850" lon="37.3784990">
    <ele>4549.3</ele>
    <time>2026-06-23T09:44:04Z</time>
   </trkpt>
   <trkpt lat="-3.1034910" lon="37.3784990">
    <ele>4549.1</ele>
    <time>2026-06-23T09:44:05Z</time>
   </trkpt>
   <trkpt lat="-3.1034980" lon="37.3785000">
    <ele>4548.9</ele>
    <time>2026-06-23T09:44:06Z</time>
   </trkpt>
   <trkpt lat="-3.1035060" lon="37.3785020">
    <ele>4548.7</ele>
    <time>2026-06-23T09:44:07Z</time>
   </trkpt>
   <trkpt lat="-3.1035150" lon="37.3785030">
    <ele>4548.4</ele>
    <time>2026-06-23T09:44:08Z</time>
   </trkpt>
   <trkpt lat="-3.1035240" lon="37.3785060">
    <ele>4548.1</ele>
    <time>2026-06-23T09:44:09Z</time>
   </trkpt>
   <trkpt lat="-3.1035310" lon="37.3785070">
    <ele>4547.9</ele>
    <time>2026-06-23T09:44:10Z</time>
   </trkpt>
   <trkpt lat="-3.1035380" lon="37.3785040">
    <ele>4547.7</ele>
    <time>2026-06-23T09:44:11Z</time>
   </trkpt>
   <trkpt lat="-3.1035480" lon="37.3785010">
    <ele>4547.4</ele>
    <time>2026-06-23T09:44:12Z</time>
   </trkpt>
   <trkpt lat="-3.1035570" lon="37.3784990">
    <ele>4547.1</ele>
    <time>2026-06-23T09:44:13Z</time>
   </trkpt>
   <trkpt lat="-3.1035630" lon="37.3785000">
    <ele>4546.9</ele>
    <time>2026-06-23T09:44:14Z</time>
   </trkpt>
   <trkpt lat="-3.1035710" lon="37.3785030">
    <ele>4546.7</ele>
    <time>2026-06-23T09:44:15Z</time>
   </trkpt>
   <trkpt lat="-3.1035730" lon="37.3785090">
    <ele>4546.5</ele>
    <time>2026-06-23T09:44:16Z</time>
   </trkpt>
   <trkpt lat="-3.1035830" lon="37.3785180">
    <ele>4546.1</ele>
    <time>2026-06-23T09:44:17Z</time>
   </trkpt>
   <trkpt lat="-3.1035890" lon="37.3785230">
    <ele>4545.9</ele>
    <time>2026-06-23T09:44:18Z</time>
   </trkpt>
   <trkpt lat="-3.1035950" lon="37.3785260">
    <ele>4545.7</ele>
    <time>2026-06-23T09:44:19Z</time>
   </trkpt>
   <trkpt lat="-3.1036000" lon="37.3785290">
    <ele>4545.5</ele>
    <time>2026-06-23T09:44:20Z</time>
   </trkpt>
   <trkpt lat="-3.1036100" lon="37.3785320">
    <ele>4545.3</ele>
    <time>2026-06-23T09:44:21Z</time>
   </trkpt>
   <trkpt lat="-3.1036180" lon="37.3785370">
    <ele>4545.0</ele>
    <time>2026-06-23T09:44:22Z</time>
   </trkpt>
   <trkpt lat="-3.1036260" lon="37.3785430">
    <ele>4544.7</ele>
    <time>2026-06-23T09:44:23Z</time>
   </trkpt>
   <trkpt lat="-3.1036350" lon="37.3785440">
    <ele>4544.5</ele>
    <time>2026-06-23T09:44:24Z</time>
   </trkpt>
   <trkpt lat="-3.1036450" lon="37.3785440">
    <ele>4544.2</ele>
    <time>2026-06-23T09:44:25Z</time>
   </trkpt>
   <trkpt lat="-3.1036540" lon="37.3785470">
    <ele>4543.9</ele>
    <time>2026-06-23T09:44:26Z</time>
   </trkpt>
   <trkpt lat="-3.1036620" lon="37.3785490">
    <ele>4543.7</ele>
    <time>2026-06-23T09:44:27Z</time>
   </trkpt>
   <trkpt lat="-3.1036710" lon="37.3785520">
    <ele>4543.5</ele>
    <time>2026-06-23T09:44:28Z</time>
   </trkpt>
   <trkpt lat="-3.1036790" lon="37.3785550">
    <ele>4543.2</ele>
    <time>2026-06-23T09:44:29Z</time>
   </trkpt>
   <trkpt lat="-3.1036850" lon="37.3785610">
    <ele>4543.0</ele>
    <time>2026-06-23T09:44:30Z</time>
   </trkpt>
   <trkpt lat="-3.1036940" lon="37.3785640">
    <ele>4542.8</ele>
    <time>2026-06-23T09:44:31Z</time>
   </trkpt>
   <trkpt lat="-3.1037050" lon="37.3785670">
    <ele>4542.5</ele>
    <time>2026-06-23T09:44:32Z</time>
   </trkpt>
   <trkpt lat="-3.1037130" lon="37.3785670">
    <ele>4542.3</ele>
    <time>2026-06-23T09:44:33Z</time>
   </trkpt>
   <trkpt lat="-3.1037200" lon="37.3785680">
    <ele>4542.1</ele>
    <time>2026-06-23T09:44:34Z</time>
   </trkpt>
   <trkpt lat="-3.1037290" lon="37.3785680">
    <ele>4541.9</ele>
    <time>2026-06-23T09:44:35Z</time>
   </trkpt>
   <trkpt lat="-3.1037380" lon="37.3785690">
    <ele>4541.6</ele>
    <time>2026-06-23T09:44:36Z</time>
   </trkpt>
   <trkpt lat="-3.1037450" lon="37.3785710">
    <ele>4541.4</ele>
    <time>2026-06-23T09:44:37Z</time>
   </trkpt>
   <trkpt lat="-3.1037540" lon="37.3785740">
    <ele>4541.2</ele>
    <time>2026-06-23T09:44:38Z</time>
   </trkpt>
   <trkpt lat="-3.1037600" lon="37.3785740">
    <ele>4541.0</ele>
    <time>2026-06-23T09:44:39Z</time>
   </trkpt>
   <trkpt lat="-3.1037710" lon="37.3785770">
    <ele>4540.8</ele>
    <time>2026-06-23T09:44:40Z</time>
   </trkpt>
   <trkpt lat="-3.1037810" lon="37.3785780">
    <ele>4540.5</ele>
    <time>2026-06-23T09:44:41Z</time>
   </trkpt>
   <trkpt lat="-3.1037890" lon="37.3785770">
    <ele>4540.3</ele>
    <time>2026-06-23T09:44:42Z</time>
   </trkpt>
   <trkpt lat="-3.1037980" lon="37.3785770">
    <ele>4540.1</ele>
    <time>2026-06-23T09:44:43Z</time>
   </trkpt>
   <trkpt lat="-3.1038040" lon="37.3785750">
    <ele>4539.9</ele>
    <time>2026-06-23T09:44:44Z</time>
   </trkpt>
   <trkpt lat="-3.1038150" lon="37.3785740">
    <ele>4539.7</ele>
    <time>2026-06-23T09:44:45Z</time>
   </trkpt>
   <trkpt lat="-3.1038250" lon="37.3785720">
    <ele>4539.4</ele>
    <time>2026-06-23T09:44:46Z</time>
   </trkpt>
   <trkpt lat="-3.1038350" lon="37.3785730">
    <ele>4539.2</ele>
    <time>2026-06-23T09:44:47Z</time>
   </trkpt>
   <trkpt lat="-3.1038400" lon="37.3785720">
    <ele>4539.0</ele>
    <time>2026-06-23T09:44:48Z</time>
   </trkpt>
   <trkpt lat="-3.1038490" lon="37.3785730">
    <ele>4538.8</ele>
    <time>2026-06-23T09:44:49Z</time>
   </trkpt>
   <trkpt lat="-3.1038600" lon="37.3785720">
    <ele>4538.6</ele>
    <time>2026-06-23T09:44:50Z</time>
   </trkpt>
   <trkpt lat="-3.1038690" lon="37.3785720">
    <ele>4538.3</ele>
    <time>2026-06-23T09:44:51Z</time>
   </trkpt>
   <trkpt lat="-3.1038790" lon="37.3785710">
    <ele>4538.1</ele>
    <time>2026-06-23T09:44:52Z</time>
   </trkpt>
   <trkpt lat="-3.1038860" lon="37.3785710">
    <ele>4537.9</ele>
    <time>2026-06-23T09:44:53Z</time>
   </trkpt>
   <trkpt lat="-3.1038930" lon="37.3785720">
    <ele>4537.7</ele>
    <time>2026-06-23T09:44:54Z</time>
   </trkpt>
   <trkpt lat="-3.1038980" lon="37.3785710">
    <ele>4537.6</ele>
    <time>2026-06-23T09:44:55Z</time>
   </trkpt>
   <trkpt lat="-3.1039090" lon="37.3785710">
    <ele>4537.3</ele>
    <time>2026-06-23T09:44:56Z</time>
   </trkpt>
   <trkpt lat="-3.1039200" lon="37.3785710">
    <ele>4537.1</ele>
    <time>2026-06-23T09:44:57Z</time>
   </trkpt>
   <trkpt lat="-3.1039270" lon="37.3785700">
    <ele>4536.9</ele>
    <time>2026-06-23T09:44:58Z</time>
   </trkpt>
   <trkpt lat="-3.1039350" lon="37.3785700">
    <ele>4536.7</ele>
    <time>2026-06-23T09:44:59Z</time>
   </trkpt>
   <trkpt lat="-3.1039440" lon="37.3785720">
    <ele>4536.5</ele>
    <time>2026-06-23T09:45:00Z</time>
   </trkpt>
   <trkpt lat="-3.1039530" lon="37.3785720">
    <ele>4536.2</ele>
    <time>2026-06-23T09:45:01Z</time>
   </trkpt>
   <trkpt lat="-3.1039620" lon="37.3785740">
    <ele>4536.0</ele>
    <time>2026-06-23T09:45:02Z</time>
   </trkpt>
   <trkpt lat="-3.1039690" lon="37.3785750">
    <ele>4535.8</ele>
    <time>2026-06-23T09:45:03Z</time>
   </trkpt>
   <trkpt lat="-3.1039740" lon="37.3785780">
    <ele>4535.7</ele>
    <time>2026-06-23T09:45:04Z</time>
   </trkpt>
   <trkpt lat="-3.1039790" lon="37.3785810">
    <ele>4535.5</ele>
    <time>2026-06-23T09:45:05Z</time>
   </trkpt>
   <trkpt lat="-3.1039880" lon="37.3785810">
    <ele>4535.3</ele>
    <time>2026-06-23T09:45:06Z</time>
   </trkpt>
   <trkpt lat="-3.1039950" lon="37.3785790">
    <ele>4535.1</ele>
    <time>2026-06-23T09:45:07Z</time>
   </trkpt>
   <trkpt lat="-3.1040040" lon="37.3785760">
    <ele>4534.9</ele>
    <time>2026-06-23T09:45:08Z</time>
   </trkpt>
   <trkpt lat="-3.1040140" lon="37.3785760">
    <ele>4534.6</ele>
    <time>2026-06-23T09:45:09Z</time>
   </trkpt>
   <trkpt lat="-3.1040220" lon="37.3785760">
    <ele>4534.4</ele>
    <time>2026-06-23T09:45:10Z</time>
   </trkpt>
   <trkpt lat="-3.1040310" lon="37.3785770">
    <ele>4534.2</ele>
    <time>2026-06-23T09:45:11Z</time>
   </trkpt>
   <trkpt lat="-3.1040390" lon="37.3785800">
    <ele>4534.0</ele>
    <time>2026-06-23T09:45:12Z</time>
   </trkpt>
   <trkpt lat="-3.1040470" lon="37.3785810">
    <ele>4533.8</ele>
    <time>2026-06-23T09:45:13Z</time>
   </trkpt>
   <trkpt lat="-3.1040490" lon="37.3785790">
    <ele>4533.7</ele>
    <time>2026-06-23T09:45:14Z</time>
   </trkpt>
   <trkpt lat="-3.1040650" lon="37.3785780">
    <ele>4533.3</ele>
    <time>2026-06-23T09:45:15Z</time>
   </trkpt>
   <trkpt lat="-3.1040710" lon="37.3785770">
    <ele>4533.2</ele>
    <time>2026-06-23T09:45:16Z</time>
   </trkpt>
   <trkpt lat="-3.1040780" lon="37.3785760">
    <ele>4533.0</ele>
    <time>2026-06-23T09:45:17Z</time>
   </trkpt>
   <trkpt lat="-3.1040900" lon="37.3785720">
    <ele>4532.7</ele>
    <time>2026-06-23T09:45:18Z</time>
   </trkpt>
   <trkpt lat="-3.1041000" lon="37.3785720">
    <ele>4532.4</ele>
    <time>2026-06-23T09:45:19Z</time>
   </trkpt>
   <trkpt lat="-3.1041070" lon="37.3785740">
    <ele>4532.2</ele>
    <time>2026-06-23T09:45:20Z</time>
   </trkpt>
   <trkpt lat="-3.1041130" lon="37.3785770">
    <ele>4532.1</ele>
    <time>2026-06-23T09:45:21Z</time>
   </trkpt>
   <trkpt lat="-3.1041250" lon="37.3785780">
    <ele>4531.8</ele>
    <time>2026-06-23T09:45:22Z</time>
   </trkpt>
   <trkpt lat="-3.1041310" lon="37.3785800">
    <ele>4531.6</ele>
    <time>2026-06-23T09:45:23Z</time>
   </trkpt>
   <trkpt lat="-3.1041390" lon="37.3785810">
    <ele>4531.4</ele>
    <time>2026-06-23T09:45:24Z</time>
   </trkpt>
   <trkpt lat="-3.1041480" lon="37.3785830">
    <ele>4531.2</ele>
    <time>2026-06-23T09:45:25Z</time>
   </trkpt>
   <trkpt lat="-3.1041580" lon="37.3785840">
    <ele>4530.9</ele>
    <time>2026-06-23T09:45:26Z</time>
   </trkpt>
   <trkpt lat="-3.1041670" lon="37.3785850">
    <ele>4530.7</ele>
    <time>2026-06-23T09:45:27Z</time>
   </trkpt>
   <trkpt lat="-3.1041760" lon="37.3785850">
    <ele>4530.5</ele>
    <time>2026-06-23T09:45:28Z</time>
   </trkpt>
   <trkpt lat="-3.1041850" lon="37.3785850">
    <ele>4530.3</ele>
    <time>2026-06-23T09:45:29Z</time>
   </trkpt>
   <trkpt lat="-3.1041950" lon="37.3785860">
    <ele>4530.0</ele>
    <time>2026-06-23T09:45:30Z</time>
   </trkpt>
   <trkpt lat="-3.1042050" lon="37.3785870">
    <ele>4529.8</ele>
    <time>2026-06-23T09:45:31Z</time>
   </trkpt>
   <trkpt lat="-3.1042120" lon="37.3785870">
    <ele>4529.6</ele>
    <time>2026-06-23T09:45:32Z</time>
   </trkpt>
   <trkpt lat="-3.1042220" lon="37.3785860">
    <ele>4529.3</ele>
    <time>2026-06-23T09:45:33Z</time>
   </trkpt>
   <trkpt lat="-3.1042340" lon="37.3785840">
    <ele>4529.0</ele>
    <time>2026-06-23T09:45:34Z</time>
   </trkpt>
   <trkpt lat="-3.1042430" lon="37.3785830">
    <ele>4528.8</ele>
    <time>2026-06-23T09:45:35Z</time>
   </trkpt>
   <trkpt lat="-3.1042520" lon="37.3785820">
    <ele>4528.6</ele>
    <time>2026-06-23T09:45:36Z</time>
   </trkpt>
   <trkpt lat="-3.1042620" lon="37.3785810">
    <ele>4528.4</ele>
    <time>2026-06-23T09:45:37Z</time>
   </trkpt>
   <trkpt lat="-3.1042700" lon="37.3785810">
    <ele>4528.2</ele>
    <time>2026-06-23T09:45:38Z</time>
   </trkpt>
   <trkpt lat="-3.1042800" lon="37.3785810">
    <ele>4527.9</ele>
    <time>2026-06-23T09:45:39Z</time>
   </trkpt>
   <trkpt lat="-3.1042890" lon="37.3785810">
    <ele>4527.7</ele>
    <time>2026-06-23T09:45:40Z</time>
   </trkpt>
   <trkpt lat="-3.1042990" lon="37.3785810">
    <ele>4527.5</ele>
    <time>2026-06-23T09:45:41Z</time>
   </trkpt>
   <trkpt lat="-3.1043080" lon="37.3785820">
    <ele>4527.3</ele>
    <time>2026-06-23T09:45:42Z</time>
   </trkpt>
   <trkpt lat="-3.1043170" lon="37.3785830">
    <ele>4527.1</ele>
    <time>2026-06-23T09:45:43Z</time>
   </trkpt>
   <trkpt lat="-3.1043260" lon="37.3785820">
    <ele>4526.9</ele>
    <time>2026-06-23T09:45:44Z</time>
   </trkpt>
   <trkpt lat="-3.1043320" lon="37.3785810">
    <ele>4526.8</ele>
    <time>2026-06-23T09:45:45Z</time>
   </trkpt>
   <trkpt lat="-3.1043400" lon="37.3785790">
    <ele>4526.6</ele>
    <time>2026-06-23T09:45:46Z</time>
   </trkpt>
   <trkpt lat="-3.1043490" lon="37.3785770">
    <ele>4526.4</ele>
    <time>2026-06-23T09:45:47Z</time>
   </trkpt>
   <trkpt lat="-3.1043580" lon="37.3785760">
    <ele>4526.2</ele>
    <time>2026-06-23T09:45:48Z</time>
   </trkpt>
   <trkpt lat="-3.1043660" lon="37.3785760">
    <ele>4526.0</ele>
    <time>2026-06-23T09:45:49Z</time>
   </trkpt>
   <trkpt lat="-3.1043760" lon="37.3785760">
    <ele>4525.8</ele>
    <time>2026-06-23T09:45:50Z</time>
   </trkpt>
   <trkpt lat="-3.1043860" lon="37.3785730">
    <ele>4525.6</ele>
    <time>2026-06-23T09:45:51Z</time>
   </trkpt>
   <trkpt lat="-3.1043940" lon="37.3785700">
    <ele>4525.4</ele>
    <time>2026-06-23T09:45:52Z</time>
   </trkpt>
   <trkpt lat="-3.1044040" lon="37.3785680">
    <ele>4525.1</ele>
    <time>2026-06-23T09:45:53Z</time>
   </trkpt>
   <trkpt lat="-3.1044110" lon="37.3785680">
    <ele>4525.0</ele>
    <time>2026-06-23T09:45:54Z</time>
   </trkpt>
   <trkpt lat="-3.1044220" lon="37.3785660">
    <ele>4524.7</ele>
    <time>2026-06-23T09:45:55Z</time>
   </trkpt>
   <trkpt lat="-3.1044290" lon="37.3785660">
    <ele>4524.6</ele>
    <time>2026-06-23T09:45:56Z</time>
   </trkpt>
   <trkpt lat="-3.1044370" lon="37.3785700">
    <ele>4524.4</ele>
    <time>2026-06-23T09:45:57Z</time>
   </trkpt>
   <trkpt lat="-3.1044430" lon="37.3785750">
    <ele>4524.2</ele>
    <time>2026-06-23T09:45:58Z</time>
   </trkpt>
   <trkpt lat="-3.1044540" lon="37.3785810">
    <ele>4523.9</ele>
    <time>2026-06-23T09:45:59Z</time>
   </trkpt>
   <trkpt lat="-3.1044600" lon="37.3785840">
    <ele>4523.8</ele>
    <time>2026-06-23T09:46:00Z</time>
   </trkpt>
   <trkpt lat="-3.1044650" lon="37.3785880">
    <ele>4523.6</ele>
    <time>2026-06-23T09:46:01Z</time>
   </trkpt>
   <trkpt lat="-3.1044730" lon="37.3785920">
    <ele>4523.4</ele>
    <time>2026-06-23T09:46:02Z</time>
   </trkpt>
   <trkpt lat="-3.1044820" lon="37.3785960">
    <ele>4523.2</ele>
    <time>2026-06-23T09:46:03Z</time>
   </trkpt>
   <trkpt lat="-3.1044900" lon="37.3785990">
    <ele>4523.0</ele>
    <time>2026-06-23T09:46:04Z</time>
   </trkpt>
   <trkpt lat="-3.1045010" lon="37.3786010">
    <ele>4522.8</ele>
    <time>2026-06-23T09:46:05Z</time>
   </trkpt>
   <trkpt lat="-3.1045060" lon="37.3786030">
    <ele>4522.7</ele>
    <time>2026-06-23T09:46:06Z</time>
   </trkpt>
   <trkpt lat="-3.1045170" lon="37.3786050">
    <ele>4522.4</ele>
    <time>2026-06-23T09:46:07Z</time>
   </trkpt>
   <trkpt lat="-3.1045230" lon="37.3786060">
    <ele>4522.3</ele>
    <time>2026-06-23T09:46:08Z</time>
   </trkpt>
   <trkpt lat="-3.1045290" lon="37.3786090">
    <ele>4522.1</ele>
    <time>2026-06-23T09:46:09Z</time>
   </trkpt>
   <trkpt lat="-3.1045370" lon="37.3786110">
    <ele>4522.0</ele>
    <time>2026-06-23T09:46:10Z</time>
   </trkpt>
   <trkpt lat="-3.1045460" lon="37.3786140">
    <ele>4521.7</ele>
    <time>2026-06-23T09:46:11Z</time>
   </trkpt>
   <trkpt lat="-3.1045560" lon="37.3786150">
    <ele>4521.5</ele>
    <time>2026-06-23T09:46:12Z</time>
   </trkpt>
   <trkpt lat="-3.1045640" lon="37.3786140">
    <ele>4521.3</ele>
    <time>2026-06-23T09:46:13Z</time>
   </trkpt>
   <trkpt lat="-3.1045710" lon="37.3786120">
    <ele>4521.2</ele>
    <time>2026-06-23T09:46:14Z</time>
   </trkpt>
   <trkpt lat="-3.1045800" lon="37.3786090">
    <ele>4521.0</ele>
    <time>2026-06-23T09:46:15Z</time>
   </trkpt>
   <trkpt lat="-3.1045890" lon="37.3786060">
    <ele>4520.8</ele>
    <time>2026-06-23T09:46:16Z</time>
   </trkpt>
   <trkpt lat="-3.1045990" lon="37.3786040">
    <ele>4520.6</ele>
    <time>2026-06-23T09:46:17Z</time>
   </trkpt>
   <trkpt lat="-3.1046070" lon="37.3786040">
    <ele>4520.4</ele>
    <time>2026-06-23T09:46:18Z</time>
   </trkpt>
   <trkpt lat="-3.1046150" lon="37.3786050">
    <ele>4520.2</ele>
    <time>2026-06-23T09:46:19Z</time>
   </trkpt>
   <trkpt lat="-3.1046250" lon="37.3786050">
    <ele>4520.0</ele>
    <time>2026-06-23T09:46:20Z</time>
   </trkpt>
   <trkpt lat="-3.1046340" lon="37.3786030">
    <ele>4519.8</ele>
    <time>2026-06-23T09:46:21Z</time>
   </trkpt>
   <trkpt lat="-3.1046430" lon="37.3786020">
    <ele>4519.6</ele>
    <time>2026-06-23T09:46:22Z</time>
   </trkpt>
   <trkpt lat="-3.1046540" lon="37.3786010">
    <ele>4519.4</ele>
    <time>2026-06-23T09:46:23Z</time>
   </trkpt>
   <trkpt lat="-3.1046610" lon="37.3786010">
    <ele>4519.3</ele>
    <time>2026-06-23T09:46:24Z</time>
   </trkpt>
   <trkpt lat="-3.1046720" lon="37.3785980">
    <ele>4519.0</ele>
    <time>2026-06-23T09:46:25Z</time>
   </trkpt>
   <trkpt lat="-3.1046810" lon="37.3785980">
    <ele>4518.8</ele>
    <time>2026-06-23T09:46:26Z</time>
   </trkpt>
   <trkpt lat="-3.1046900" lon="37.3785980">
    <ele>4518.6</ele>
    <time>2026-06-23T09:46:27Z</time>
   </trkpt>
   <trkpt lat="-3.1047000" lon="37.3785980">
    <ele>4518.4</ele>
    <time>2026-06-23T09:46:28Z</time>
   </trkpt>
   <trkpt lat="-3.1047060" lon="37.3785980">
    <ele>4518.3</ele>
    <time>2026-06-23T09:46:29Z</time>
   </trkpt>
   <trkpt lat="-3.1047160" lon="37.3785980">
    <ele>4518.1</ele>
    <time>2026-06-23T09:46:30Z</time>
   </trkpt>
   <trkpt lat="-3.1047260" lon="37.3786010">
    <ele>4517.9</ele>
    <time>2026-06-23T09:46:31Z</time>
   </trkpt>
   <trkpt lat="-3.1047350" lon="37.3786070">
    <ele>4517.7</ele>
    <time>2026-06-23T09:46:32Z</time>
   </trkpt>
   <trkpt lat="-3.1047430" lon="37.3786100">
    <ele>4517.5</ele>
    <time>2026-06-23T09:46:33Z</time>
   </trkpt>
   <trkpt lat="-3.1047500" lon="37.3786090">
    <ele>4517.3</ele>
    <time>2026-06-23T09:46:34Z</time>
   </trkpt>
   <trkpt lat="-3.1047600" lon="37.3786100">
    <ele>4517.1</ele>
    <time>2026-06-23T09:46:35Z</time>
   </trkpt>
   <trkpt lat="-3.1047710" lon="37.3786100">
    <ele>4516.9</ele>
    <time>2026-06-23T09:46:36Z</time>
   </trkpt>
   <trkpt lat="-3.1047780" lon="37.3786120">
    <ele>4516.7</ele>
    <time>2026-06-23T09:46:37Z</time>
   </trkpt>
   <trkpt lat="-3.1047860" lon="37.3786130">
    <ele>4516.6</ele>
    <time>2026-06-23T09:46:38Z</time>
   </trkpt>
   <trkpt lat="-3.1047950" lon="37.3786160">
    <ele>4516.4</ele>
    <time>2026-06-23T09:46:39Z</time>
   </trkpt>
   <trkpt lat="-3.1048010" lon="37.3786180">
    <ele>4516.2</ele>
    <time>2026-06-23T09:46:40Z</time>
   </trkpt>
   <trkpt lat="-3.1048040" lon="37.3786180">
    <ele>4516.2</ele>
    <time>2026-06-23T09:46:41Z</time>
   </trkpt>
   <trkpt lat="-3.1048030" lon="37.3786170">
    <ele>4516.1</ele>
    <time>2026-06-23T09:46:42Z</time>
   </trkpt>
   <trkpt lat="-3.1048030" lon="37.3786160">
    <ele>4516.1</ele>
    <time>2026-06-23T09:46:43Z</time>
   </trkpt>
   <trkpt lat="-3.1048070" lon="37.3786170">
    <ele>4516.0</ele>
    <time>2026-06-23T09:46:44Z</time>
   </trkpt>
   <trkpt lat="-3.1048090" lon="37.3786190">
    <ele>4516.0</ele>
    <time>2026-06-23T09:46:45Z</time>
   </trkpt>
   <trkpt lat="-3.1048140" lon="37.3786200">
    <ele>4515.9</ele>
    <time>2026-06-23T09:46:46Z</time>
   </trkpt>
   <trkpt lat="-3.1048140" lon="37.3786180">
    <ele>4515.8</ele>
    <time>2026-06-23T09:46:47Z</time>
   </trkpt>
   <trkpt lat="-3.1048140" lon="37.3786180">
    <ele>4515.8</ele>
    <time>2026-06-23T09:46:48Z</time>
   </trkpt>
   <trkpt lat="-3.1048140" lon="37.3786180">
    <ele>4515.8</ele>
    <time>2026-06-23T09:46:49Z</time>
   </trkpt>
   <trkpt lat="-3.1048140" lon="37.3786180">
    <ele>4515.8</ele>
    <time>2026-06-23T09:46:50Z</time>
   </trkpt>
   <trkpt lat="-3.1048140" lon="37.3786180">
    <ele>4515.8</ele>
    <time>2026-06-23T09:46:51Z</time>
   </trkpt>
   <trkpt lat="-3.1048130" lon="37.3786150">
    <ele>4515.8</ele>
    <time>2026-06-23T09:46:52Z</time>
   </trkpt>
   <trkpt lat="-3.1048190" lon="37.3786150">
    <ele>4515.6</ele>
    <time>2026-06-23T09:46:53Z</time>
   </trkpt>
   <trkpt lat="-3.1048160" lon="37.3786160">
    <ele>4515.6</ele>
    <time>2026-06-23T09:46:54Z</time>
   </trkpt>
   <trkpt lat="-3.1048170" lon="37.3786160">
    <ele>4515.5</ele>
    <time>2026-06-23T09:46:55Z</time>
   </trkpt>
   <trkpt lat="-3.1048180" lon="37.3786170">
    <ele>4515.5</ele>
    <time>2026-06-23T09:46:56Z</time>
   </trkpt>
   <trkpt lat="-3.1048170" lon="37.3786170">
    <ele>4515.5</ele>
    <time>2026-06-23T09:46:57Z</time>
   </trkpt>
   <trkpt lat="-3.1048170" lon="37.3786170">
    <ele>4515.5</ele>
    <time>2026-06-23T09:46:58Z</time>
   </trkpt>
   <trkpt lat="-3.1048160" lon="37.3786170">
    <ele>4515.5</ele>
    <time>2026-06-23T09:46:59Z</time>
   </trkpt>
   <trkpt lat="-3.1048180" lon="37.3786170">
    <ele>4515.4</ele>
    <time>2026-06-23T09:47:00Z</time>
   </trkpt>
   <trkpt lat="-3.1048170" lon="37.3786140">
    <ele>4515.4</ele>
    <time>2026-06-23T09:47:01Z</time>
   </trkpt>
   <trkpt lat="-3.1048180" lon="37.3786160">
    <ele>4515.3</ele>
    <time>2026-06-23T09:47:02Z</time>
   </trkpt>
   <trkpt lat="-3.1048180" lon="37.3786160">
    <ele>4515.3</ele>
    <time>2026-06-23T09:47:03Z</time>
   </trkpt>
   <trkpt lat="-3.1048200" lon="37.3786160">
    <ele>4515.3</ele>
    <time>2026-06-23T09:47:04Z</time>
   </trkpt>
   <trkpt lat="-3.1048190" lon="37.3786160">
    <ele>4515.3</ele>
    <time>2026-06-23T09:47:05Z</time>
   </trkpt>
   <trkpt lat="-3.1048190" lon="37.3786160">
    <ele>4515.3</ele>
    <time>2026-06-23T09:47:06Z</time>
   </trkpt>
   <trkpt lat="-3.1048180" lon="37.3786170">
    <ele>4515.2</ele>
    <time>2026-06-23T09:47:07Z</time>
   </trkpt>
   <trkpt lat="-3.1048180" lon="37.3786170">
    <ele>4515.2</ele>
    <time>2026-06-23T09:47:08Z</time>
   </trkpt>
   <trkpt lat="-3.1048190" lon="37.3786170">
    <ele>4515.2</ele>
    <time>2026-06-23T09:47:09Z</time>
   </trkpt>
   <trkpt lat="-3.1048190" lon="37.3786170">
    <ele>4515.2</ele>
    <time>2026-06-23T09:47:10Z</time>
   </trkpt>
   <trkpt lat="-3.1048190" lon="37.3786170">
    <ele>4515.2</ele>
    <time>2026-06-23T09:47:11Z</time>
   </trkpt>
   <trkpt lat="-3.1048190" lon="37.3786180">
    <ele>4515.2</ele>
    <time>2026-06-23T09:47:12Z</time>
   </trkpt>
   <trkpt lat="-3.1048190" lon="37.3786180">
    <ele>4515.2</ele>
    <time>2026-06-23T09:47:13Z</time>
   </trkpt>
   <trkpt lat="-3.1048190" lon="37.3786180">
    <ele>4515.2</ele>
    <time>2026-06-23T09:47:14Z</time>
   </trkpt>
   <trkpt lat="-3.1048190" lon="37.3786180">
    <ele>4515.2</ele>
    <time>2026-06-23T09:47:15Z</time>
   </trkpt>
   <trkpt lat="-3.1048190" lon="37.3786170">
    <ele>4515.2</ele>
    <time>2026-06-23T09:47:16Z</time>
   </trkpt>
   <trkpt lat="-3.1048200" lon="37.3786170">
    <ele>4515.1</ele>
    <time>2026-06-23T09:47:17Z</time>
   </trkpt>
   <trkpt lat="-3.1048190" lon="37.3786170">
    <ele>4515.1</ele>
    <time>2026-06-23T09:47:18Z</time>
   </trkpt>
   <trkpt lat="-3.1048180" lon="37.3786170">
    <ele>4515.1</ele>
    <time>2026-06-23T09:47:19Z</time>
   </trkpt>
   <trkpt lat="-3.1048190" lon="37.3786180">
    <ele>4515.1</ele>
    <time>2026-06-23T09:47:20Z</time>
   </trkpt>
   <trkpt lat="-3.1048190" lon="37.3786180">
    <ele>4515.1</ele>
    <time>2026-06-23T09:47:21Z</time>
   </trkpt>
   <trkpt lat="-3.1048190" lon="37.3786180">
    <ele>4515.1</ele>
    <time>2026-06-23T09:47:22Z</time>
   </trkpt>
   <trkpt lat="-3.1048190" lon="37.3786190">
    <ele>4515.0</ele>
    <time>2026-06-23T09:47:23Z</time>
   </trkpt>
   <trkpt lat="-3.1048190" lon="37.3786180">
    <ele>4515.0</ele>
    <time>2026-06-23T09:47:24Z</time>
   </trkpt>
   <trkpt lat="-3.1048190" lon="37.3786180">
    <ele>4515.0</ele>
    <time>2026-06-23T09:47:25Z</time>
   </trkpt>
   <trkpt lat="-3.1048190" lon="37.3786190">
    <ele>4515.0</ele>
    <time>2026-06-23T09:47:26Z</time>
   </trkpt>
   <trkpt lat="-3.1048200" lon="37.3786180">
    <ele>4515.0</ele>
    <time>2026-06-23T09:47:27Z</time>
   </trkpt>
   <trkpt lat="-3.1048270" lon="37.3786190">
    <ele>4514.8</ele>
    <time>2026-06-23T09:47:28Z</time>
   </trkpt>
   <trkpt lat="-3.1048300" lon="37.3786210">
    <ele>4514.8</ele>
    <time>2026-06-23T09:47:29Z</time>
   </trkpt>
   <trkpt lat="-3.1048320" lon="37.3786220">
    <ele>4514.7</ele>
    <time>2026-06-23T09:47:30Z</time>
   </trkpt>
   <trkpt lat="-3.1048310" lon="37.3786210">
    <ele>4514.7</ele>
    <time>2026-06-23T09:47:31Z</time>
   </trkpt>
   <trkpt lat="-3.1048360" lon="37.3786230">
    <ele>4514.6</ele>
    <time>2026-06-23T09:47:32Z</time>
   </trkpt>
   <trkpt lat="-3.1048380" lon="37.3786230">
    <ele>4514.5</ele>
    <time>2026-06-23T09:47:33Z</time>
   </trkpt>
   <trkpt lat="-3.1048420" lon="37.3786240">
    <ele>4514.4</ele>
    <time>2026-06-23T09:47:34Z</time>
   </trkpt>
   <trkpt lat="-3.1048400" lon="37.3786240">
    <ele>4514.4</ele>
    <time>2026-06-23T09:47:35Z</time>
   </trkpt>
   <trkpt lat="-3.1048450" lon="37.3786260">
    <ele>4514.3</ele>
    <time>2026-06-23T09:47:36Z</time>
   </trkpt>
   <trkpt lat="-3.1048490" lon="37.3786290">
    <ele>4514.2</ele>
    <time>2026-06-23T09:47:37Z</time>
   </trkpt>
   <trkpt lat="-3.1048550" lon="37.3786300">
    <ele>4514.1</ele>
    <time>2026-06-23T09:47:38Z</time>
   </trkpt>
   <trkpt lat="-3.1048590" lon="37.3786310">
    <ele>4514.0</ele>
    <time>2026-06-23T09:47:39Z</time>
   </trkpt>
   <trkpt lat="-3.1048650" lon="37.3786310">
    <ele>4513.8</ele>
    <time>2026-06-23T09:47:40Z</time>
   </trkpt>
   <trkpt lat="-3.1048690" lon="37.3786330">
    <ele>4513.8</ele>
    <time>2026-06-23T09:47:41Z</time>
   </trkpt>
   <trkpt lat="-3.1048730" lon="37.3786350">
    <ele>4513.7</ele>
    <time>2026-06-23T09:47:42Z</time>
   </trkpt>
   <trkpt lat="-3.1048780" lon="37.3786360">
    <ele>4513.6</ele>
    <time>2026-06-23T09:47:43Z</time>
   </trkpt>
   <trkpt lat="-3.1048830" lon="37.3786380">
    <ele>4513.4</ele>
    <time>2026-06-23T09:47:44Z</time>
   </trkpt>
   <trkpt lat="-3.1048870" lon="37.3786390">
    <ele>4513.4</ele>
    <time>2026-06-23T09:47:45Z</time>
   </trkpt>
   <trkpt lat="-3.1048920" lon="37.3786400">
    <ele>4513.3</ele>
    <time>2026-06-23T09:47:46Z</time>
   </trkpt>
   <trkpt lat="-3.1048950" lon="37.3786410">
    <ele>4513.2</ele>
    <time>2026-06-23T09:47:47Z</time>
   </trkpt>
   <trkpt lat="-3.1049030" lon="37.3786420">
    <ele>4513.0</ele>
    <time>2026-06-23T09:47:48Z</time>
   </trkpt>
   <trkpt lat="-3.1049080" lon="37.3786430">
    <ele>4512.9</ele>
    <time>2026-06-23T09:47:49Z</time>
   </trkpt>
   <trkpt lat="-3.1049140" lon="37.3786450">
    <ele>4512.8</ele>
    <time>2026-06-23T09:47:50Z</time>
   </trkpt>
   <trkpt lat="-3.1049200" lon="37.3786460">
    <ele>4512.7</ele>
    <time>2026-06-23T09:47:51Z</time>
   </trkpt>
   <trkpt lat="-3.1049250" lon="37.3786450">
    <ele>4512.6</ele>
    <time>2026-06-23T09:47:52Z</time>
   </trkpt>
   <trkpt lat="-3.1049310" lon="37.3786450">
    <ele>4512.4</ele>
    <time>2026-06-23T09:47:53Z</time>
   </trkpt>
   <trkpt lat="-3.1049390" lon="37.3786460">
    <ele>4512.3</ele>
    <time>2026-06-23T09:47:54Z</time>
   </trkpt>
   <trkpt lat="-3.1049430" lon="37.3786470">
    <ele>4512.2</ele>
    <time>2026-06-23T09:47:55Z</time>
   </trkpt>
   <trkpt lat="-3.1049520" lon="37.3786490">
    <ele>4512.0</ele>
    <time>2026-06-23T09:47:56Z</time>
   </trkpt>
   <trkpt lat="-3.1049570" lon="37.3786500">
    <ele>4511.9</ele>
    <time>2026-06-23T09:47:57Z</time>
   </trkpt>
   <trkpt lat="-3.1049620" lon="37.3786490">
    <ele>4511.8</ele>
    <time>2026-06-23T09:47:58Z</time>
   </trkpt>
   <trkpt lat="-3.1049690" lon="37.3786480">
    <ele>4511.6</ele>
    <time>2026-06-23T09:47:59Z</time>
   </trkpt>
   <trkpt lat="-3.1049740" lon="37.3786460">
    <ele>4511.5</ele>
    <time>2026-06-23T09:48:00Z</time>
   </trkpt>
   <trkpt lat="-3.1049810" lon="37.3786440">
    <ele>4511.4</ele>
    <time>2026-06-23T09:48:01Z</time>
   </trkpt>
   <trkpt lat="-3.1049860" lon="37.3786430">
    <ele>4511.3</ele>
    <time>2026-06-23T09:48:02Z</time>
   </trkpt>
   <trkpt lat="-3.1049940" lon="37.3786440">
    <ele>4511.1</ele>
    <time>2026-06-23T09:48:03Z</time>
   </trkpt>
   <trkpt lat="-3.1049990" lon="37.3786450">
    <ele>4511.0</ele>
    <time>2026-06-23T09:48:04Z</time>
   </trkpt>
   <trkpt lat="-3.1050100" lon="37.3786450">
    <ele>4510.8</ele>
    <time>2026-06-23T09:48:05Z</time>
   </trkpt>
   <trkpt lat="-3.1050140" lon="37.3786460">
    <ele>4510.7</ele>
    <time>2026-06-23T09:48:06Z</time>
   </trkpt>
   <trkpt lat="-3.1050180" lon="37.3786450">
    <ele>4510.6</ele>
    <time>2026-06-23T09:48:07Z</time>
   </trkpt>
   <trkpt lat="-3.1050240" lon="37.3786450">
    <ele>4510.5</ele>
    <time>2026-06-23T09:48:08Z</time>
   </trkpt>
   <trkpt lat="-3.1050300" lon="37.3786470">
    <ele>4510.4</ele>
    <time>2026-06-23T09:48:09Z</time>
   </trkpt>
   <trkpt lat="-3.1050370" lon="37.3786480">
    <ele>4510.2</ele>
    <time>2026-06-23T09:48:10Z</time>
   </trkpt>
   <trkpt lat="-3.1050400" lon="37.3786470">
    <ele>4510.2</ele>
    <time>2026-06-23T09:48:11Z</time>
   </trkpt>
   <trkpt lat="-3.1050480" lon="37.3786450">
    <ele>4510.0</ele>
    <time>2026-06-23T09:48:12Z</time>
   </trkpt>
   <trkpt lat="-3.1050550" lon="37.3786440">
    <ele>4509.8</ele>
    <time>2026-06-23T09:48:13Z</time>
   </trkpt>
   <trkpt lat="-3.1050600" lon="37.3786460">
    <ele>4509.7</ele>
    <time>2026-06-23T09:48:14Z</time>
   </trkpt>
   <trkpt lat="-3.1050650" lon="37.3786470">
    <ele>4509.6</ele>
    <time>2026-06-23T09:48:15Z</time>
   </trkpt>
   <trkpt lat="-3.1050700" lon="37.3786470">
    <ele>4509.5</ele>
    <time>2026-06-23T09:48:16Z</time>
   </trkpt>
   <trkpt lat="-3.1050750" lon="37.3786480">
    <ele>4509.4</ele>
    <time>2026-06-23T09:48:17Z</time>
   </trkpt>
   <trkpt lat="-3.1050820" lon="37.3786500">
    <ele>4509.3</ele>
    <time>2026-06-23T09:48:18Z</time>
   </trkpt>
   <trkpt lat="-3.1050860" lon="37.3786510">
    <ele>4509.2</ele>
    <time>2026-06-23T09:48:19Z</time>
   </trkpt>
   <trkpt lat="-3.1050930" lon="37.3786520">
    <ele>4509.0</ele>
    <time>2026-06-23T09:48:20Z</time>
   </trkpt>
   <trkpt lat="-3.1050980" lon="37.3786530">
    <ele>4508.9</ele>
    <time>2026-06-23T09:48:21Z</time>
   </trkpt>
   <trkpt lat="-3.1051050" lon="37.3786550">
    <ele>4508.8</ele>
    <time>2026-06-23T09:48:22Z</time>
   </trkpt>
   <trkpt lat="-3.1051140" lon="37.3786530">
    <ele>4508.6</ele>
    <time>2026-06-23T09:48:23Z</time>
   </trkpt>
   <trkpt lat="-3.1051230" lon="37.3786500">
    <ele>4508.4</ele>
    <time>2026-06-23T09:48:24Z</time>
   </trkpt>
   <trkpt lat="-3.1051280" lon="37.3786500">
    <ele>4508.3</ele>
    <time>2026-06-23T09:48:25Z</time>
   </trkpt>
   <trkpt lat="-3.1051350" lon="37.3786480">
    <ele>4508.1</ele>
    <time>2026-06-23T09:48:26Z</time>
   </trkpt>
   <trkpt lat="-3.1051420" lon="37.3786480">
    <ele>4508.0</ele>
    <time>2026-06-23T09:48:27Z</time>
   </trkpt>
   <trkpt lat="-3.1051490" lon="37.3786480">
    <ele>4507.9</ele>
    <time>2026-06-23T09:48:28Z</time>
   </trkpt>
   <trkpt lat="-3.1051570" lon="37.3786440">
    <ele>4507.7</ele>
    <time>2026-06-23T09:48:29Z</time>
   </trkpt>
   <trkpt lat="-3.1051640" lon="37.3786450">
    <ele>4507.5</ele>
    <time>2026-06-23T09:48:30Z</time>
   </trkpt>
   <trkpt lat="-3.1051710" lon="37.3786470">
    <ele>4507.4</ele>
    <time>2026-06-23T09:48:31Z</time>
   </trkpt>
   <trkpt lat="-3.1051780" lon="37.3786500">
    <ele>4507.2</ele>
    <time>2026-06-23T09:48:32Z</time>
   </trkpt>
   <trkpt lat="-3.1051850" lon="37.3786530">
    <ele>4507.0</ele>
    <time>2026-06-23T09:48:33Z</time>
   </trkpt>
   <trkpt lat="-3.1051930" lon="37.3786560">
    <ele>4506.9</ele>
    <time>2026-06-23T09:48:34Z</time>
   </trkpt>
   <trkpt lat="-3.1051960" lon="37.3786580">
    <ele>4506.8</ele>
    <time>2026-06-23T09:48:35Z</time>
   </trkpt>
   <trkpt lat="-3.1052030" lon="37.3786620">
    <ele>4506.6</ele>
    <time>2026-06-23T09:48:36Z</time>
   </trkpt>
   <trkpt lat="-3.1052100" lon="37.3786640">
    <ele>4506.4</ele>
    <time>2026-06-23T09:48:37Z</time>
   </trkpt>
   <trkpt lat="-3.1052180" lon="37.3786640">
    <ele>4506.3</ele>
    <time>2026-06-23T09:48:38Z</time>
   </trkpt>
   <trkpt lat="-3.1052260" lon="37.3786670">
    <ele>4506.1</ele>
    <time>2026-06-23T09:48:39Z</time>
   </trkpt>
   <trkpt lat="-3.1052340" lon="37.3786690">
    <ele>4505.9</ele>
    <time>2026-06-23T09:48:40Z</time>
   </trkpt>
   <trkpt lat="-3.1052410" lon="37.3786690">
    <ele>4505.8</ele>
    <time>2026-06-23T09:48:41Z</time>
   </trkpt>
   <trkpt lat="-3.1052490" lon="37.3786670">
    <ele>4505.6</ele>
    <time>2026-06-23T09:48:42Z</time>
   </trkpt>
   <trkpt lat="-3.1052560" lon="37.3786680">
    <ele>4505.4</ele>
    <time>2026-06-23T09:48:43Z</time>
   </trkpt>
   <trkpt lat="-3.1052620" lon="37.3786720">
    <ele>4505.3</ele>
    <time>2026-06-23T09:48:44Z</time>
   </trkpt>
   <trkpt lat="-3.1052720" lon="37.3786760">
    <ele>4505.1</ele>
    <time>2026-06-23T09:48:45Z</time>
   </trkpt>
   <trkpt lat="-3.1052780" lon="37.3786770">
    <ele>4504.9</ele>
    <time>2026-06-23T09:48:46Z</time>
   </trkpt>
   <trkpt lat="-3.1052850" lon="37.3786740">
    <ele>4504.8</ele>
    <time>2026-06-23T09:48:47Z</time>
   </trkpt>
   <trkpt lat="-3.1052930" lon="37.3786680">
    <ele>4504.5</ele>
    <time>2026-06-23T09:48:48Z</time>
   </trkpt>
   <trkpt lat="-3.1052980" lon="37.3786630">
    <ele>4504.4</ele>
    <time>2026-06-23T09:48:49Z</time>
   </trkpt>
   <trkpt lat="-3.1053060" lon="37.3786580">
    <ele>4504.2</ele>
    <time>2026-06-23T09:48:50Z</time>
   </trkpt>
   <trkpt lat="-3.1053120" lon="37.3786550">
    <ele>4504.0</ele>
    <time>2026-06-23T09:48:51Z</time>
   </trkpt>
   <trkpt lat="-3.1053190" lon="37.3786510">
    <ele>4503.9</ele>
    <time>2026-06-23T09:48:52Z</time>
   </trkpt>
   <trkpt lat="-3.1053270" lon="37.3786490">
    <ele>4503.7</ele>
    <time>2026-06-23T09:48:53Z</time>
   </trkpt>
   <trkpt lat="-3.1053350" lon="37.3786480">
    <ele>4503.5</ele>
    <time>2026-06-23T09:48:54Z</time>
   </trkpt>
   <trkpt lat="-3.1053420" lon="37.3786480">
    <ele>4503.4</ele>
    <time>2026-06-23T09:48:55Z</time>
   </trkpt>
   <trkpt lat="-3.1053520" lon="37.3786460">
    <ele>4503.2</ele>
    <time>2026-06-23T09:48:56Z</time>
   </trkpt>
   <trkpt lat="-3.1053620" lon="37.3786420">
    <ele>4502.9</ele>
    <time>2026-06-23T09:48:57Z</time>
   </trkpt>
   <trkpt lat="-3.1053720" lon="37.3786400">
    <ele>4502.7</ele>
    <time>2026-06-23T09:48:58Z</time>
   </trkpt>
   <trkpt lat="-3.1053810" lon="37.3786400">
    <ele>4502.5</ele>
    <time>2026-06-23T09:48:59Z</time>
   </trkpt>
   <trkpt lat="-3.1053870" lon="37.3786410">
    <ele>4502.4</ele>
    <time>2026-06-23T09:49:00Z</time>
   </trkpt>
   <trkpt lat="-3.1053950" lon="37.3786420">
    <ele>4502.2</ele>
    <time>2026-06-23T09:49:01Z</time>
   </trkpt>
   <trkpt lat="-3.1054020" lon="37.3786430">
    <ele>4502.0</ele>
    <time>2026-06-23T09:49:02Z</time>
   </trkpt>
   <trkpt lat="-3.1054120" lon="37.3786430">
    <ele>4501.8</ele>
    <time>2026-06-23T09:49:03Z</time>
   </trkpt>
   <trkpt lat="-3.1054170" lon="37.3786420">
    <ele>4501.7</ele>
    <time>2026-06-23T09:49:04Z</time>
   </trkpt>
   <trkpt lat="-3.1054200" lon="37.3786430">
    <ele>4501.6</ele>
    <time>2026-06-23T09:49:05Z</time>
   </trkpt>
   <trkpt lat="-3.1054310" lon="37.3786470">
    <ele>4501.4</ele>
    <time>2026-06-23T09:49:06Z</time>
   </trkpt>
   <trkpt lat="-3.1054360" lon="37.3786500">
    <ele>4501.3</ele>
    <time>2026-06-23T09:49:07Z</time>
   </trkpt>
   <trkpt lat="-3.1054440" lon="37.3786550">
    <ele>4501.1</ele>
    <time>2026-06-23T09:49:08Z</time>
   </trkpt>
   <trkpt lat="-3.1054530" lon="37.3786590">
    <ele>4500.8</ele>
    <time>2026-06-23T09:49:09Z</time>
   </trkpt>
   <trkpt lat="-3.1054590" lon="37.3786590">
    <ele>4500.7</ele>
    <time>2026-06-23T09:49:10Z</time>
   </trkpt>
   <trkpt lat="-3.1054660" lon="37.3786590">
    <ele>4500.6</ele>
    <time>2026-06-23T09:49:11Z</time>
   </trkpt>
   <trkpt lat="-3.1054710" lon="37.3786580">
    <ele>4500.5</ele>
    <time>2026-06-23T09:49:12Z</time>
   </trkpt>
   <trkpt lat="-3.1054780" lon="37.3786580">
    <ele>4500.3</ele>
    <time>2026-06-23T09:49:13Z</time>
   </trkpt>
   <trkpt lat="-3.1054860" lon="37.3786560">
    <ele>4500.1</ele>
    <time>2026-06-23T09:49:14Z</time>
   </trkpt>
   <trkpt lat="-3.1054920" lon="37.3786540">
    <ele>4500.0</ele>
    <time>2026-06-23T09:49:15Z</time>
   </trkpt>
   <trkpt lat="-3.1054940" lon="37.3786500">
    <ele>4499.9</ele>
    <time>2026-06-23T09:49:16Z</time>
   </trkpt>
   <trkpt lat="-3.1054940" lon="37.3786480">
    <ele>4499.8</ele>
    <time>2026-06-23T09:49:17Z</time>
   </trkpt>
   <trkpt lat="-3.1054940" lon="37.3786470">
    <ele>4499.8</ele>
    <time>2026-06-23T09:49:18Z</time>
   </trkpt>
   <trkpt lat="-3.1054950" lon="37.3786480">
    <ele>4499.8</ele>
    <time>2026-06-23T09:49:19Z</time>
   </trkpt>
   <trkpt lat="-3.1055000" lon="37.3786490">
    <ele>4499.7</ele>
    <time>2026-06-23T09:49:20Z</time>
   </trkpt>
   <trkpt lat="-3.1055050" lon="37.3786500">
    <ele>4499.6</ele>
    <time>2026-06-23T09:49:21Z</time>
   </trkpt>
   <trkpt lat="-3.1055080" lon="37.3786530">
    <ele>4499.5</ele>
    <time>2026-06-23T09:49:22Z</time>
   </trkpt>
   <trkpt lat="-3.1055140" lon="37.3786570">
    <ele>4499.3</ele>
    <time>2026-06-23T09:49:23Z</time>
   </trkpt>
   <trkpt lat="-3.1055150" lon="37.3786590">
    <ele>4499.3</ele>
    <time>2026-06-23T09:49:24Z</time>
   </trkpt>
   <trkpt lat="-3.1055130" lon="37.3786590">
    <ele>4499.2</ele>
    <time>2026-06-23T09:49:25Z</time>
   </trkpt>
   <trkpt lat="-3.1055130" lon="37.3786580">
    <ele>4499.2</ele>
    <time>2026-06-23T09:49:27Z</time>
   </trkpt>
   <trkpt lat="-3.1055110" lon="37.3786600">
    <ele>4499.1</ele>
    <time>2026-06-23T09:49:28Z</time>
   </trkpt>
   <trkpt lat="-3.1055120" lon="37.3786610">
    <ele>4499.1</ele>
    <time>2026-06-23T09:49:29Z</time>
   </trkpt>
   <trkpt lat="-3.1055120" lon="37.3786620">
    <ele>4499.1</ele>
    <time>2026-06-23T09:49:30Z</time>
   </trkpt>
   <trkpt lat="-3.1055180" lon="37.3786610">
    <ele>4499.0</ele>
    <time>2026-06-23T09:49:31Z</time>
   </trkpt>
   <trkpt lat="-3.1055220" lon="37.3786610">
    <ele>4498.9</ele>
    <time>2026-06-23T09:49:32Z</time>
   </trkpt>
   <trkpt lat="-3.1055260" lon="37.3786620">
    <ele>4498.8</ele>
    <time>2026-06-23T09:49:33Z</time>
   </trkpt>
   <trkpt lat="-3.1055330" lon="37.3786610">
    <ele>4498.6</ele>
    <time>2026-06-23T09:49:34Z</time>
   </trkpt>
   <trkpt lat="-3.1055390" lon="37.3786600">
    <ele>4498.5</ele>
    <time>2026-06-23T09:49:35Z</time>
   </trkpt>
   <trkpt lat="-3.1055440" lon="37.3786610">
    <ele>4498.4</ele>
    <time>2026-06-23T09:49:36Z</time>
   </trkpt>
   <trkpt lat="-3.1055490" lon="37.3786610">
    <ele>4498.3</ele>
    <time>2026-06-23T09:49:37Z</time>
   </trkpt>
   <trkpt lat="-3.1055550" lon="37.3786620">
    <ele>4498.1</ele>
    <time>2026-06-23T09:49:38Z</time>
   </trkpt>
   <trkpt lat="-3.1055640" lon="37.3786680">
    <ele>4497.9</ele>
    <time>2026-06-23T09:49:39Z</time>
   </trkpt>
   <trkpt lat="-3.1055690" lon="37.3786730">
    <ele>4497.8</ele>
    <time>2026-06-23T09:49:40Z</time>
   </trkpt>
   <trkpt lat="-3.1055770" lon="37.3786770">
    <ele>4497.6</ele>
    <time>2026-06-23T09:49:41Z</time>
   </trkpt>
   <trkpt lat="-3.1055830" lon="37.3786800">
    <ele>4497.4</ele>
    <time>2026-06-23T09:49:42Z</time>
   </trkpt>
   <trkpt lat="-3.1055880" lon="37.3786800">
    <ele>4497.3</ele>
    <time>2026-06-23T09:49:43Z</time>
   </trkpt>
   <trkpt lat="-3.1055940" lon="37.3786790">
    <ele>4497.2</ele>
    <time>2026-06-23T09:49:44Z</time>
   </trkpt>
   <trkpt lat="-3.1056030" lon="37.3786760">
    <ele>4497.0</ele>
    <time>2026-06-23T09:49:45Z</time>
   </trkpt>
   <trkpt lat="-3.1056070" lon="37.3786700">
    <ele>4496.8</ele>
    <time>2026-06-23T09:49:46Z</time>
   </trkpt>
   <trkpt lat="-3.1056060" lon="37.3786650">
    <ele>4496.7</ele>
    <time>2026-06-23T09:49:47Z</time>
   </trkpt>
   <trkpt lat="-3.1056040" lon="37.3786580">
    <ele>4496.5</ele>
    <time>2026-06-23T09:49:48Z</time>
   </trkpt>
   <trkpt lat="-3.1056010" lon="37.3786490">
    <ele>4496.3</ele>
    <time>2026-06-23T09:49:49Z</time>
   </trkpt>
   <trkpt lat="-3.1056010" lon="37.3786420">
    <ele>4496.2</ele>
    <time>2026-06-23T09:49:50Z</time>
   </trkpt>
   <trkpt lat="-3.1056040" lon="37.3786400">
    <ele>4496.1</ele>
    <time>2026-06-23T09:49:51Z</time>
   </trkpt>
   <trkpt lat="-3.1056070" lon="37.3786350">
    <ele>4496.0</ele>
    <time>2026-06-23T09:49:52Z</time>
   </trkpt>
   <trkpt lat="-3.1056130" lon="37.3786350">
    <ele>4495.8</ele>
    <time>2026-06-23T09:49:53Z</time>
   </trkpt>
   <trkpt lat="-3.1056200" lon="37.3786340">
    <ele>4495.7</ele>
    <time>2026-06-23T09:49:54Z</time>
   </trkpt>
   <trkpt lat="-3.1056270" lon="37.3786350">
    <ele>4495.5</ele>
    <time>2026-06-23T09:49:55Z</time>
   </trkpt>
   <trkpt lat="-3.1056370" lon="37.3786370">
    <ele>4495.3</ele>
    <time>2026-06-23T09:49:56Z</time>
   </trkpt>
   <trkpt lat="-3.1056410" lon="37.3786370">
    <ele>4495.2</ele>
    <time>2026-06-23T09:49:57Z</time>
   </trkpt>
   <trkpt lat="-3.1056500" lon="37.3786330">
    <ele>4495.0</ele>
    <time>2026-06-23T09:49:58Z</time>
   </trkpt>
   <trkpt lat="-3.1056550" lon="37.3786290">
    <ele>4494.9</ele>
    <time>2026-06-23T09:49:59Z</time>
   </trkpt>
   <trkpt lat="-3.1056580" lon="37.3786250">
    <ele>4494.7</ele>
    <time>2026-06-23T09:50:00Z</time>
   </trkpt>
   <trkpt lat="-3.1056640" lon="37.3786220">
    <ele>4494.6</ele>
    <time>2026-06-23T09:50:01Z</time>
   </trkpt>
   <trkpt lat="-3.1056690" lon="37.3786210">
    <ele>4494.5</ele>
    <time>2026-06-23T09:50:02Z</time>
   </trkpt>
   <trkpt lat="-3.1056770" lon="37.3786230">
    <ele>4494.3</ele>
    <time>2026-06-23T09:50:03Z</time>
   </trkpt>
   <trkpt lat="-3.1056820" lon="37.3786240">
    <ele>4494.2</ele>
    <time>2026-06-23T09:50:04Z</time>
   </trkpt>
   <trkpt lat="-3.1056890" lon="37.3786250">
    <ele>4494.0</ele>
    <time>2026-06-23T09:50:05Z</time>
   </trkpt>
   <trkpt lat="-3.1056950" lon="37.3786260">
    <ele>4493.9</ele>
    <time>2026-06-23T09:50:06Z</time>
   </trkpt>
   <trkpt lat="-3.1056990" lon="37.3786280">
    <ele>4493.8</ele>
    <time>2026-06-23T09:50:07Z</time>
   </trkpt>
   <trkpt lat="-3.1057050" lon="37.3786310">
    <ele>4493.6</ele>
    <time>2026-06-23T09:50:08Z</time>
   </trkpt>
   <trkpt lat="-3.1057110" lon="37.3786330">
    <ele>4493.5</ele>
    <time>2026-06-23T09:50:09Z</time>
   </trkpt>
   <trkpt lat="-3.1057160" lon="37.3786350">
    <ele>4493.3</ele>
    <time>2026-06-23T09:50:10Z</time>
   </trkpt>
   <trkpt lat="-3.1057180" lon="37.3786390">
    <ele>4493.2</ele>
    <time>2026-06-23T09:50:11Z</time>
   </trkpt>
   <trkpt lat="-3.1057210" lon="37.3786440">
    <ele>4493.1</ele>
    <time>2026-06-23T09:50:12Z</time>
   </trkpt>
   <trkpt lat="-3.1057250" lon="37.3786500">
    <ele>4492.9</ele>
    <time>2026-06-23T09:50:13Z</time>
   </trkpt>
   <trkpt lat="-3.1057290" lon="37.3786480">
    <ele>4492.8</ele>
    <time>2026-06-23T09:50:14Z</time>
   </trkpt>
   <trkpt lat="-3.1057330" lon="37.3786510">
    <ele>4492.7</ele>
    <time>2026-06-23T09:50:15Z</time>
   </trkpt>
   <trkpt lat="-3.1057360" lon="37.3786560">
    <ele>4492.5</ele>
    <time>2026-06-23T09:50:16Z</time>
   </trkpt>
   <trkpt lat="-3.1057360" lon="37.3786600">
    <ele>4492.4</ele>
    <time>2026-06-23T09:50:17Z</time>
   </trkpt>
   <trkpt lat="-3.1057340" lon="37.3786640">
    <ele>4492.3</ele>
    <time>2026-06-23T09:50:18Z</time>
   </trkpt>
   <trkpt lat="-3.1057320" lon="37.3786680">
    <ele>4492.2</ele>
    <time>2026-06-23T09:50:19Z</time>
   </trkpt>
   <trkpt lat="-3.1057360" lon="37.3786710">
    <ele>4492.0</ele>
    <time>2026-06-23T09:50:20Z</time>
   </trkpt>
   <trkpt lat="-3.1057410" lon="37.3786800">
    <ele>4491.8</ele>
    <time>2026-06-23T09:50:21Z</time>
   </trkpt>
   <trkpt lat="-3.1057420" lon="37.3786800">
    <ele>4491.7</ele>
    <time>2026-06-23T09:50:22Z</time>
   </trkpt>
   <trkpt lat="-3.1057440" lon="37.3786820">
    <ele>4491.7</ele>
    <time>2026-06-23T09:50:23Z</time>
   </trkpt>
   <trkpt lat="-3.1057490" lon="37.3786850">
    <ele>4491.5</ele>
    <time>2026-06-23T09:50:24Z</time>
   </trkpt>
   <trkpt lat="-3.1057530" lon="37.3786900">
    <ele>4491.3</ele>
    <time>2026-06-23T09:50:25Z</time>
   </trkpt>
   <trkpt lat="-3.1057560" lon="37.3786940">
    <ele>4491.2</ele>
    <time>2026-06-23T09:50:26Z</time>
   </trkpt>
   <trkpt lat="-3.1057600" lon="37.3786950">
    <ele>4491.1</ele>
    <time>2026-06-23T09:50:27Z</time>
   </trkpt>
   <trkpt lat="-3.1057610" lon="37.3787000">
    <ele>4490.9</ele>
    <time>2026-06-23T09:50:28Z</time>
   </trkpt>
   <trkpt lat="-3.1057660" lon="37.3787060">
    <ele>4490.7</ele>
    <time>2026-06-23T09:50:29Z</time>
   </trkpt>
   <trkpt lat="-3.1057680" lon="37.3787090">
    <ele>4490.6</ele>
    <time>2026-06-23T09:50:30Z</time>
   </trkpt>
   <trkpt lat="-3.1057710" lon="37.3787100">
    <ele>4490.5</ele>
    <time>2026-06-23T09:50:31Z</time>
   </trkpt>
   <trkpt lat="-3.1057730" lon="37.3787120">
    <ele>4490.4</ele>
    <time>2026-06-23T09:50:32Z</time>
   </trkpt>
   <trkpt lat="-3.1057820" lon="37.3787140">
    <ele>4490.2</ele>
    <time>2026-06-23T09:50:33Z</time>
   </trkpt>
   <trkpt lat="-3.1057820" lon="37.3787180">
    <ele>4490.1</ele>
    <time>2026-06-23T09:50:34Z</time>
   </trkpt>
   <trkpt lat="-3.1057860" lon="37.3787240">
    <ele>4489.9</ele>
    <time>2026-06-23T09:50:35Z</time>
   </trkpt>
   <trkpt lat="-3.1057870" lon="37.3787280">
    <ele>4489.7</ele>
    <time>2026-06-23T09:50:36Z</time>
   </trkpt>
   <trkpt lat="-3.1057910" lon="37.3787310">
    <ele>4489.6</ele>
    <time>2026-06-23T09:50:37Z</time>
   </trkpt>
   <trkpt lat="-3.1057940" lon="37.3787320">
    <ele>4489.5</ele>
    <time>2026-06-23T09:50:38Z</time>
   </trkpt>
   <trkpt lat="-3.1057970" lon="37.3787330">
    <ele>4489.4</ele>
    <time>2026-06-23T09:50:39Z</time>
   </trkpt>
   <trkpt lat="-3.1057990" lon="37.3787380">
    <ele>4489.2</ele>
    <time>2026-06-23T09:50:41Z</time>
   </trkpt>
   <trkpt lat="-3.1058050" lon="37.3787390">
    <ele>4489.0</ele>
    <time>2026-06-23T09:50:42Z</time>
   </trkpt>
   <trkpt lat="-3.1058120" lon="37.3787410">
    <ele>4488.8</ele>
    <time>2026-06-23T09:50:43Z</time>
   </trkpt>
   <trkpt lat="-3.1058140" lon="37.3787330">
    <ele>4488.6</ele>
    <time>2026-06-23T09:50:44Z</time>
   </trkpt>
   <trkpt lat="-3.1058210" lon="37.3787270">
    <ele>4488.3</ele>
    <time>2026-06-23T09:50:45Z</time>
   </trkpt>
   <trkpt lat="-3.1058270" lon="37.3787240">
    <ele>4488.1</ele>
    <time>2026-06-23T09:50:46Z</time>
   </trkpt>
   <trkpt lat="-3.1058300" lon="37.3787210">
    <ele>4488.0</ele>
    <time>2026-06-23T09:50:47Z</time>
   </trkpt>
   <trkpt lat="-3.1058370" lon="37.3787150">
    <ele>4487.7</ele>
    <time>2026-06-23T09:50:48Z</time>
   </trkpt>
   <trkpt lat="-3.1058400" lon="37.3787120">
    <ele>4487.6</ele>
    <time>2026-06-23T09:50:49Z</time>
   </trkpt>
   <trkpt lat="-3.1058460" lon="37.3787080">
    <ele>4487.4</ele>
    <time>2026-06-23T09:50:50Z</time>
   </trkpt>
   <trkpt lat="-3.1058480" lon="37.3787070">
    <ele>4487.3</ele>
    <time>2026-06-23T09:50:51Z</time>
   </trkpt>
   <trkpt lat="-3.1058490" lon="37.3787060">
    <ele>4487.2</ele>
    <time>2026-06-23T09:50:52Z</time>
   </trkpt>
   <trkpt lat="-3.1058550" lon="37.3787030">
    <ele>4487.0</ele>
    <time>2026-06-23T09:50:53Z</time>
   </trkpt>
   <trkpt lat="-3.1058610" lon="37.3786990">
    <ele>4486.8</ele>
    <time>2026-06-23T09:50:54Z</time>
   </trkpt>
   <trkpt lat="-3.1058660" lon="37.3786990">
    <ele>4486.7</ele>
    <time>2026-06-23T09:50:55Z</time>
   </trkpt>
   <trkpt lat="-3.1058710" lon="37.3787000">
    <ele>4486.5</ele>
    <time>2026-06-23T09:50:56Z</time>
   </trkpt>
   <trkpt lat="-3.1058740" lon="37.3787000">
    <ele>4486.4</ele>
    <time>2026-06-23T09:50:57Z</time>
   </trkpt>
   <trkpt lat="-3.1058760" lon="37.3787020">
    <ele>4486.4</ele>
    <time>2026-06-23T09:50:58Z</time>
   </trkpt>
   <trkpt lat="-3.1058820" lon="37.3787040">
    <ele>4486.2</ele>
    <time>2026-06-23T09:50:59Z</time>
   </trkpt>
   <trkpt lat="-3.1058840" lon="37.3787070">
    <ele>4486.1</ele>
    <time>2026-06-23T09:51:00Z</time>
   </trkpt>
   <trkpt lat="-3.1058880" lon="37.3787080">
    <ele>4485.9</ele>
    <time>2026-06-23T09:51:01Z</time>
   </trkpt>
   <trkpt lat="-3.1058910" lon="37.3787100">
    <ele>4485.8</ele>
    <time>2026-06-23T09:51:02Z</time>
   </trkpt>
   <trkpt lat="-3.1058940" lon="37.3787140">
    <ele>4485.7</ele>
    <time>2026-06-23T09:51:03Z</time>
   </trkpt>
   <trkpt lat="-3.1058950" lon="37.3787150">
    <ele>4485.6</ele>
    <time>2026-06-23T09:51:04Z</time>
   </trkpt>
   <trkpt lat="-3.1058990" lon="37.3787170">
    <ele>4485.5</ele>
    <time>2026-06-23T09:51:05Z</time>
   </trkpt>
   <trkpt lat="-3.1059040" lon="37.3787270">
    <ele>4485.2</ele>
    <time>2026-06-23T09:51:06Z</time>
   </trkpt>
   <trkpt lat="-3.1059100" lon="37.3787230">
    <ele>4484.9</ele>
    <time>2026-06-23T09:51:07Z</time>
   </trkpt>
   <trkpt lat="-3.1059160" lon="37.3787200">
    <ele>4484.7</ele>
    <time>2026-06-23T09:51:08Z</time>
   </trkpt>
   <trkpt lat="-3.1059160" lon="37.3787160">
    <ele>4484.6</ele>
    <time>2026-06-23T09:51:09Z</time>
   </trkpt>
   <trkpt lat="-3.1059150" lon="37.3787150">
    <ele>4484.6</ele>
    <time>2026-06-23T09:51:10Z</time>
   </trkpt>
   <trkpt lat="-3.1059140" lon="37.3787140">
    <ele>4484.5</ele>
    <time>2026-06-23T09:51:11Z</time>
   </trkpt>
   <trkpt lat="-3.1059210" lon="37.3787140">
    <ele>4484.3</ele>
    <time>2026-06-23T09:51:12Z</time>
   </trkpt>
   <trkpt lat="-3.1059230" lon="37.3787160">
    <ele>4484.2</ele>
    <time>2026-06-23T09:51:13Z</time>
   </trkpt>
   <trkpt lat="-3.1059260" lon="37.3787180">
    <ele>4484.1</ele>
    <time>2026-06-23T09:51:14Z</time>
   </trkpt>
   <trkpt lat="-3.1059270" lon="37.3787190">
    <ele>4484.1</ele>
    <time>2026-06-23T09:51:15Z</time>
   </trkpt>
   <trkpt lat="-3.1059300" lon="37.3787150">
    <ele>4483.9</ele>
    <time>2026-06-23T09:51:16Z</time>
   </trkpt>
   <trkpt lat="-3.1059340" lon="37.3787130">
    <ele>4483.8</ele>
    <time>2026-06-23T09:51:17Z</time>
   </trkpt>
   <trkpt lat="-3.1059370" lon="37.3787090">
    <ele>4483.7</ele>
    <time>2026-06-23T09:51:18Z</time>
   </trkpt>
   <trkpt lat="-3.1059460" lon="37.3787060">
    <ele>4483.4</ele>
    <time>2026-06-23T09:51:19Z</time>
   </trkpt>
   <trkpt lat="-3.1059500" lon="37.3787040">
    <ele>4483.3</ele>
    <time>2026-06-23T09:51:20Z</time>
   </trkpt>
   <trkpt lat="-3.1059480" lon="37.3787050">
    <ele>4483.2</ele>
    <time>2026-06-23T09:51:21Z</time>
   </trkpt>
   <trkpt lat="-3.1059450" lon="37.3787040">
    <ele>4483.1</ele>
    <time>2026-06-23T09:51:22Z</time>
   </trkpt>
   <trkpt lat="-3.1059440" lon="37.3787050">
    <ele>4483.1</ele>
    <time>2026-06-23T09:51:23Z</time>
   </trkpt>
   <trkpt lat="-3.1059450" lon="37.3787050">
    <ele>4483.0</ele>
    <time>2026-06-23T09:51:24Z</time>
   </trkpt>
   <trkpt lat="-3.1059460" lon="37.3787060">
    <ele>4483.0</ele>
    <time>2026-06-23T09:51:25Z</time>
   </trkpt>
   <trkpt lat="-3.1059470" lon="37.3787090">
    <ele>4482.9</ele>
    <time>2026-06-23T09:51:26Z</time>
   </trkpt>
   <trkpt lat="-3.1059500" lon="37.3787160">
    <ele>4482.7</ele>
    <time>2026-06-23T09:51:27Z</time>
   </trkpt>
   <trkpt lat="-3.1059510" lon="37.3787200">
    <ele>4482.6</ele>
    <time>2026-06-23T09:51:28Z</time>
   </trkpt>
   <trkpt lat="-3.1059510" lon="37.3787240">
    <ele>4482.5</ele>
    <time>2026-06-23T09:51:29Z</time>
   </trkpt>
   <trkpt lat="-3.1059540" lon="37.3787260">
    <ele>4482.4</ele>
    <time>2026-06-23T09:51:30Z</time>
   </trkpt>
   <trkpt lat="-3.1059530" lon="37.3787300">
    <ele>4482.3</ele>
    <time>2026-06-23T09:51:31Z</time>
   </trkpt>
   <trkpt lat="-3.1059540" lon="37.3787340">
    <ele>4482.1</ele>
    <time>2026-06-23T09:51:32Z</time>
   </trkpt>
   <trkpt lat="-3.1059530" lon="37.3787390">
    <ele>4482.0</ele>
    <time>2026-06-23T09:51:33Z</time>
   </trkpt>
   <trkpt lat="-3.1059530" lon="37.3787480">
    <ele>4481.8</ele>
    <time>2026-06-23T09:51:34Z</time>
   </trkpt>
   <trkpt lat="-3.1059540" lon="37.3787520">
    <ele>4481.7</ele>
    <time>2026-06-23T09:51:35Z</time>
   </trkpt>
   <trkpt lat="-3.1059560" lon="37.3787610">
    <ele>4481.4</ele>
    <time>2026-06-23T09:51:36Z</time>
   </trkpt>
   <trkpt lat="-3.1059580" lon="37.3787670">
    <ele>4481.2</ele>
    <time>2026-06-23T09:51:37Z</time>
   </trkpt>
   <trkpt lat="-3.1059600" lon="37.3787750">
    <ele>4481.0</ele>
    <time>2026-06-23T09:51:38Z</time>
   </trkpt>
   <trkpt lat="-3.1059600" lon="37.3787770">
    <ele>4481.0</ele>
    <time>2026-06-23T09:51:39Z</time>
   </trkpt>
   <trkpt lat="-3.1059630" lon="37.3787910">
    <ele>4480.6</ele>
    <time>2026-06-23T09:51:40Z</time>
   </trkpt>
   <trkpt lat="-3.1059630" lon="37.3787980">
    <ele>4480.4</ele>
    <time>2026-06-23T09:51:41Z</time>
   </trkpt>
   <trkpt lat="-3.1059630" lon="37.3788010">
    <ele>4480.3</ele>
    <time>2026-06-23T09:51:42Z</time>
   </trkpt>
   <trkpt lat="-3.1059670" lon="37.3788070">
    <ele>4480.1</ele>
    <time>2026-06-23T09:51:43Z</time>
   </trkpt>
   <trkpt lat="-3.1059730" lon="37.3788110">
    <ele>4479.9</ele>
    <time>2026-06-23T09:51:44Z</time>
   </trkpt>
   <trkpt lat="-3.1059790" lon="37.3788100">
    <ele>4479.8</ele>
    <time>2026-06-23T09:51:45Z</time>
   </trkpt>
   <trkpt lat="-3.1059830" lon="37.3788080">
    <ele>4479.7</ele>
    <time>2026-06-23T09:51:46Z</time>
   </trkpt>
   <trkpt lat="-3.1059880" lon="37.3788050">
    <ele>4479.5</ele>
    <time>2026-06-23T09:51:47Z</time>
   </trkpt>
   <trkpt lat="-3.1059930" lon="37.3788030">
    <ele>4479.4</ele>
    <time>2026-06-23T09:51:48Z</time>
   </trkpt>
   <trkpt lat="-3.1059990" lon="37.3788020">
    <ele>4479.2</ele>
    <time>2026-06-23T09:51:49Z</time>
   </trkpt>
   <trkpt lat="-3.1060020" lon="37.3788010">
    <ele>4479.1</ele>
    <time>2026-06-23T09:51:50Z</time>
   </trkpt>
   <trkpt lat="-3.1060080" lon="37.3788060">
    <ele>4478.9</ele>
    <time>2026-06-23T09:51:51Z</time>
   </trkpt>
   <trkpt lat="-3.1060080" lon="37.3788070">
    <ele>4478.9</ele>
    <time>2026-06-23T09:51:52Z</time>
   </trkpt>
   <trkpt lat="-3.1060090" lon="37.3788060">
    <ele>4478.9</ele>
    <time>2026-06-23T09:51:53Z</time>
   </trkpt>
   <trkpt lat="-3.1060100" lon="37.3788110">
    <ele>4478.7</ele>
    <time>2026-06-23T09:51:54Z</time>
   </trkpt>
   <trkpt lat="-3.1060160" lon="37.3788200">
    <ele>4478.4</ele>
    <time>2026-06-23T09:51:55Z</time>
   </trkpt>
   <trkpt lat="-3.1060190" lon="37.3788210">
    <ele>4478.4</ele>
    <time>2026-06-23T09:51:56Z</time>
   </trkpt>
   <trkpt lat="-3.1060220" lon="37.3788220">
    <ele>4478.3</ele>
    <time>2026-06-23T09:51:57Z</time>
   </trkpt>
   <trkpt lat="-3.1060240" lon="37.3788220">
    <ele>4478.2</ele>
    <time>2026-06-23T09:51:58Z</time>
   </trkpt>
   <trkpt lat="-3.1060280" lon="37.3788260">
    <ele>4478.1</ele>
    <time>2026-06-23T09:51:59Z</time>
   </trkpt>
   <trkpt lat="-3.1060330" lon="37.3788310">
    <ele>4477.9</ele>
    <time>2026-06-23T09:52:00Z</time>
   </trkpt>
   <trkpt lat="-3.1060370" lon="37.3788310">
    <ele>4477.8</ele>
    <time>2026-06-23T09:52:01Z</time>
   </trkpt>
   <trkpt lat="-3.1060400" lon="37.3788320">
    <ele>4477.7</ele>
    <time>2026-06-23T09:52:02Z</time>
   </trkpt>
   <trkpt lat="-3.1060430" lon="37.3788350">
    <ele>4477.6</ele>
    <time>2026-06-23T09:52:03Z</time>
   </trkpt>
   <trkpt lat="-3.1060500" lon="37.3788370">
    <ele>4477.4</ele>
    <time>2026-06-23T09:52:04Z</time>
   </trkpt>
   <trkpt lat="-3.1060560" lon="37.3788390">
    <ele>4477.3</ele>
    <time>2026-06-23T09:52:05Z</time>
   </trkpt>
   <trkpt lat="-3.1060580" lon="37.3788440">
    <ele>4477.1</ele>
    <time>2026-06-23T09:52:06Z</time>
   </trkpt>
   <trkpt lat="-3.1060580" lon="37.3788480">
    <ele>4477.0</ele>
    <time>2026-06-23T09:52:07Z</time>
   </trkpt>
   <trkpt lat="-3.1060620" lon="37.3788520">
    <ele>4476.9</ele>
    <time>2026-06-23T09:52:08Z</time>
   </trkpt>
   <trkpt lat="-3.1060660" lon="37.3788570">
    <ele>4476.7</ele>
    <time>2026-06-23T09:52:09Z</time>
   </trkpt>
   <trkpt lat="-3.1060700" lon="37.3788620">
    <ele>4476.5</ele>
    <time>2026-06-23T09:52:10Z</time>
   </trkpt>
   <trkpt lat="-3.1060750" lon="37.3788670">
    <ele>4476.4</ele>
    <time>2026-06-23T09:52:11Z</time>
   </trkpt>
   <trkpt lat="-3.1060770" lon="37.3788690">
    <ele>4476.3</ele>
    <time>2026-06-23T09:52:12Z</time>
   </trkpt>
   <trkpt lat="-3.1060830" lon="37.3788720">
    <ele>4476.1</ele>
    <time>2026-06-23T09:52:13Z</time>
   </trkpt>
   <trkpt lat="-3.1060880" lon="37.3788720">
    <ele>4476.0</ele>
    <time>2026-06-23T09:52:14Z</time>
   </trkpt>
   <trkpt lat="-3.1060910" lon="37.3788730">
    <ele>4475.9</ele>
    <time>2026-06-23T09:52:15Z</time>
   </trkpt>
   <trkpt lat="-3.1060970" lon="37.3788740">
    <ele>4475.7</ele>
    <time>2026-06-23T09:52:16Z</time>
   </trkpt>
   <trkpt lat="-3.1061020" lon="37.3788750">
    <ele>4475.6</ele>
    <time>2026-06-23T09:52:17Z</time>
   </trkpt>
   <trkpt lat="-3.1061100" lon="37.3788770">
    <ele>4475.4</ele>
    <time>2026-06-23T09:52:18Z</time>
   </trkpt>
   <trkpt lat="-3.1061180" lon="37.3788760">
    <ele>4475.2</ele>
    <time>2026-06-23T09:52:19Z</time>
   </trkpt>
   <trkpt lat="-3.1061250" lon="37.3788740">
    <ele>4475.0</ele>
    <time>2026-06-23T09:52:20Z</time>
   </trkpt>
   <trkpt lat="-3.1061270" lon="37.3788730">
    <ele>4475.0</ele>
    <time>2026-06-23T09:52:21Z</time>
   </trkpt>
   <trkpt lat="-3.1061340" lon="37.3788700">
    <ele>4474.8</ele>
    <time>2026-06-23T09:52:22Z</time>
   </trkpt>
   <trkpt lat="-3.1061380" lon="37.3788670">
    <ele>4474.6</ele>
    <time>2026-06-23T09:52:23Z</time>
   </trkpt>
   <trkpt lat="-3.1061440" lon="37.3788650">
    <ele>4474.5</ele>
    <time>2026-06-23T09:52:24Z</time>
   </trkpt>
   <trkpt lat="-3.1061510" lon="37.3788620">
    <ele>4474.3</ele>
    <time>2026-06-23T09:52:25Z</time>
   </trkpt>
   <trkpt lat="-3.1061550" lon="37.3788610">
    <ele>4474.2</ele>
    <time>2026-06-23T09:52:26Z</time>
   </trkpt>
   <trkpt lat="-3.1061590" lon="37.3788570">
    <ele>4474.0</ele>
    <time>2026-06-23T09:52:27Z</time>
   </trkpt>
   <trkpt lat="-3.1061660" lon="37.3788540">
    <ele>4473.8</ele>
    <time>2026-06-23T09:52:28Z</time>
   </trkpt>
   <trkpt lat="-3.1061730" lon="37.3788530">
    <ele>4473.6</ele>
    <time>2026-06-23T09:52:29Z</time>
   </trkpt>
   <trkpt lat="-3.1061760" lon="37.3788520">
    <ele>4473.6</ele>
    <time>2026-06-23T09:52:30Z</time>
   </trkpt>
   <trkpt lat="-3.1061800" lon="37.3788560">
    <ele>4473.4</ele>
    <time>2026-06-23T09:52:31Z</time>
   </trkpt>
   <trkpt lat="-3.1061820" lon="37.3788600">
    <ele>4473.3</ele>
    <time>2026-06-23T09:52:32Z</time>
   </trkpt>
   <trkpt lat="-3.1061840" lon="37.3788630">
    <ele>4473.2</ele>
    <time>2026-06-23T09:52:33Z</time>
   </trkpt>
   <trkpt lat="-3.1061890" lon="37.3788650">
    <ele>4473.1</ele>
    <time>2026-06-23T09:52:34Z</time>
   </trkpt>
   <trkpt lat="-3.1061930" lon="37.3788680">
    <ele>4472.9</ele>
    <time>2026-06-23T09:52:35Z</time>
   </trkpt>
   <trkpt lat="-3.1061980" lon="37.3788710">
    <ele>4472.8</ele>
    <time>2026-06-23T09:52:36Z</time>
   </trkpt>
   <trkpt lat="-3.1062000" lon="37.3788770">
    <ele>4472.6</ele>
    <time>2026-06-23T09:52:37Z</time>
   </trkpt>
   <trkpt lat="-3.1062040" lon="37.3788810">
    <ele>4472.5</ele>
    <time>2026-06-23T09:52:38Z</time>
   </trkpt>
   <trkpt lat="-3.1062110" lon="37.3788820">
    <ele>4472.3</ele>
    <time>2026-06-23T09:52:39Z</time>
   </trkpt>
   <trkpt lat="-3.1062140" lon="37.3788830">
    <ele>4472.2</ele>
    <time>2026-06-23T09:52:40Z</time>
   </trkpt>
   <trkpt lat="-3.1062150" lon="37.3788890">
    <ele>4472.1</ele>
    <time>2026-06-23T09:52:41Z</time>
   </trkpt>
   <trkpt lat="-3.1062200" lon="37.3788940">
    <ele>4471.9</ele>
    <time>2026-06-23T09:52:42Z</time>
   </trkpt>
   <trkpt lat="-3.1062230" lon="37.3788980">
    <ele>4471.7</ele>
    <time>2026-06-23T09:52:43Z</time>
   </trkpt>
   <trkpt lat="-3.1062260" lon="37.3789000">
    <ele>4471.7</ele>
    <time>2026-06-23T09:52:44Z</time>
   </trkpt>
   <trkpt lat="-3.1062290" lon="37.3789030">
    <ele>4471.5</ele>
    <time>2026-06-23T09:52:45Z</time>
   </trkpt>
   <trkpt lat="-3.1062350" lon="37.3789030">
    <ele>4471.4</ele>
    <time>2026-06-23T09:52:47Z</time>
   </trkpt>
   <trkpt lat="-3.1062410" lon="37.3789030">
    <ele>4471.2</ele>
    <time>2026-06-23T09:52:48Z</time>
   </trkpt>
   <trkpt lat="-3.1062460" lon="37.3789040">
    <ele>4471.1</ele>
    <time>2026-06-23T09:52:49Z</time>
   </trkpt>
   <trkpt lat="-3.1062500" lon="37.3789030">
    <ele>4471.0</ele>
    <time>2026-06-23T09:52:50Z</time>
   </trkpt>
   <trkpt lat="-3.1062590" lon="37.3789000">
    <ele>4470.8</ele>
    <time>2026-06-23T09:52:51Z</time>
   </trkpt>
   <trkpt lat="-3.1062640" lon="37.3788990">
    <ele>4470.6</ele>
    <time>2026-06-23T09:52:52Z</time>
   </trkpt>
   <trkpt lat="-3.1062630" lon="37.3789020">
    <ele>4470.5</ele>
    <time>2026-06-23T09:52:53Z</time>
   </trkpt>
   <trkpt lat="-3.1062670" lon="37.3789050">
    <ele>4470.4</ele>
    <time>2026-06-23T09:52:54Z</time>
   </trkpt>
   <trkpt lat="-3.1062690" lon="37.3789090">
    <ele>4470.3</ele>
    <time>2026-06-23T09:52:55Z</time>
   </trkpt>
   <trkpt lat="-3.1062720" lon="37.3789130">
    <ele>4470.2</ele>
    <time>2026-06-23T09:52:56Z</time>
   </trkpt>
   <trkpt lat="-3.1062760" lon="37.3789150">
    <ele>4470.1</ele>
    <time>2026-06-23T09:52:57Z</time>
   </trkpt>
   <trkpt lat="-3.1062790" lon="37.3789170">
    <ele>4470.0</ele>
    <time>2026-06-23T09:52:58Z</time>
   </trkpt>
   <trkpt lat="-3.1062830" lon="37.3789210">
    <ele>4469.8</ele>
    <time>2026-06-23T09:52:59Z</time>
   </trkpt>
   <trkpt lat="-3.1062880" lon="37.3789240">
    <ele>4469.7</ele>
    <time>2026-06-23T09:53:00Z</time>
   </trkpt>
   <trkpt lat="-3.1062940" lon="37.3789250">
    <ele>4469.5</ele>
    <time>2026-06-23T09:53:01Z</time>
   </trkpt>
   <trkpt lat="-3.1062990" lon="37.3789270">
    <ele>4469.4</ele>
    <time>2026-06-23T09:53:02Z</time>
   </trkpt>
   <trkpt lat="-3.1063040" lon="37.3789280">
    <ele>4469.3</ele>
    <time>2026-06-23T09:53:03Z</time>
   </trkpt>
   <trkpt lat="-3.1063080" lon="37.3789270">
    <ele>4469.1</ele>
    <time>2026-06-23T09:53:04Z</time>
   </trkpt>
   <trkpt lat="-3.1063130" lon="37.3789270">
    <ele>4469.0</ele>
    <time>2026-06-23T09:53:05Z</time>
   </trkpt>
   <trkpt lat="-3.1063180" lon="37.3789270">
    <ele>4468.9</ele>
    <time>2026-06-23T09:53:06Z</time>
   </trkpt>
   <trkpt lat="-3.1063240" lon="37.3789290">
    <ele>4468.7</ele>
    <time>2026-06-23T09:53:07Z</time>
   </trkpt>
   <trkpt lat="-3.1063290" lon="37.3789300">
    <ele>4468.6</ele>
    <time>2026-06-23T09:53:08Z</time>
   </trkpt>
   <trkpt lat="-3.1063350" lon="37.3789310">
    <ele>4468.5</ele>
    <time>2026-06-23T09:53:09Z</time>
   </trkpt>
   <trkpt lat="-3.1063400" lon="37.3789320">
    <ele>4468.3</ele>
    <time>2026-06-23T09:53:10Z</time>
   </trkpt>
   <trkpt lat="-3.1063460" lon="37.3789340">
    <ele>4468.2</ele>
    <time>2026-06-23T09:53:11Z</time>
   </trkpt>
   <trkpt lat="-3.1063510" lon="37.3789380">
    <ele>4468.0</ele>
    <time>2026-06-23T09:53:12Z</time>
   </trkpt>
   <trkpt lat="-3.1063570" lon="37.3789420">
    <ele>4467.8</ele>
    <time>2026-06-23T09:53:13Z</time>
   </trkpt>
   <trkpt lat="-3.1063610" lon="37.3789440">
    <ele>4467.7</ele>
    <time>2026-06-23T09:53:14Z</time>
   </trkpt>
   <trkpt lat="-3.1063700" lon="37.3789430">
    <ele>4467.5</ele>
    <time>2026-06-23T09:53:15Z</time>
   </trkpt>
   <trkpt lat="-3.1063750" lon="37.3789390">
    <ele>4467.4</ele>
    <time>2026-06-23T09:53:16Z</time>
   </trkpt>
   <trkpt lat="-3.1063820" lon="37.3789360">
    <ele>4467.2</ele>
    <time>2026-06-23T09:53:17Z</time>
   </trkpt>
   <trkpt lat="-3.1063900" lon="37.3789340">
    <ele>4467.0</ele>
    <time>2026-06-23T09:53:18Z</time>
   </trkpt>
   <trkpt lat="-3.1063970" lon="37.3789320">
    <ele>4466.8</ele>
    <time>2026-06-23T09:53:19Z</time>
   </trkpt>
   <trkpt lat="-3.1064030" lon="37.3789300">
    <ele>4466.6</ele>
    <time>2026-06-23T09:53:20Z</time>
   </trkpt>
   <trkpt lat="-3.1064110" lon="37.3789270">
    <ele>4466.4</ele>
    <time>2026-06-23T09:53:21Z</time>
   </trkpt>
   <trkpt lat="-3.1064180" lon="37.3789230">
    <ele>4466.2</ele>
    <time>2026-06-23T09:53:22Z</time>
   </trkpt>
   <trkpt lat="-3.1064250" lon="37.3789220">
    <ele>4466.1</ele>
    <time>2026-06-23T09:53:23Z</time>
   </trkpt>
   <trkpt lat="-3.1064330" lon="37.3789200">
    <ele>4465.9</ele>
    <time>2026-06-23T09:53:24Z</time>
   </trkpt>
   <trkpt lat="-3.1064400" lon="37.3789180">
    <ele>4465.7</ele>
    <time>2026-06-23T09:53:25Z</time>
   </trkpt>
   <trkpt lat="-3.1064480" lon="37.3789190">
    <ele>4465.5</ele>
    <time>2026-06-23T09:53:26Z</time>
   </trkpt>
   <trkpt lat="-3.1064560" lon="37.3789160">
    <ele>4465.3</ele>
    <time>2026-06-23T09:53:27Z</time>
   </trkpt>
   <trkpt lat="-3.1064630" lon="37.3789120">
    <ele>4465.1</ele>
    <time>2026-06-23T09:53:28Z</time>
   </trkpt>
   <trkpt lat="-3.1064730" lon="37.3789070">
    <ele>4464.8</ele>
    <time>2026-06-23T09:53:29Z</time>
   </trkpt>
   <trkpt lat="-3.1064780" lon="37.3789130">
    <ele>4464.7</ele>
    <time>2026-06-23T09:53:30Z</time>
   </trkpt>
   <trkpt lat="-3.1064840" lon="37.3789070">
    <ele>4464.5</ele>
    <time>2026-06-23T09:53:31Z</time>
   </trkpt>
   <trkpt lat="-3.1064920" lon="37.3789040">
    <ele>4464.2</ele>
    <time>2026-06-23T09:53:32Z</time>
   </trkpt>
   <trkpt lat="-3.1064980" lon="37.3789050">
    <ele>4464.1</ele>
    <time>2026-06-23T09:53:33Z</time>
   </trkpt>
   <trkpt lat="-3.1065030" lon="37.3789060">
    <ele>4464.0</ele>
    <time>2026-06-23T09:53:34Z</time>
   </trkpt>
   <trkpt lat="-3.1065160" lon="37.3789050">
    <ele>4463.7</ele>
    <time>2026-06-23T09:53:35Z</time>
   </trkpt>
   <trkpt lat="-3.1065160" lon="37.3789050">
    <ele>4463.7</ele>
    <time>2026-06-23T09:53:36Z</time>
   </trkpt>
   <trkpt lat="-3.1065260" lon="37.3789050">
    <ele>4463.4</ele>
    <time>2026-06-23T09:53:37Z</time>
   </trkpt>
   <trkpt lat="-3.1065320" lon="37.3789070">
    <ele>4463.3</ele>
    <time>2026-06-23T09:53:38Z</time>
   </trkpt>
   <trkpt lat="-3.1065390" lon="37.3789080">
    <ele>4463.1</ele>
    <time>2026-06-23T09:53:39Z</time>
   </trkpt>
   <trkpt lat="-3.1065460" lon="37.3789110">
    <ele>4462.9</ele>
    <time>2026-06-23T09:53:40Z</time>
   </trkpt>
   <trkpt lat="-3.1065500" lon="37.3789130">
    <ele>4462.8</ele>
    <time>2026-06-23T09:53:41Z</time>
   </trkpt>
   <trkpt lat="-3.1065550" lon="37.3789160">
    <ele>4462.7</ele>
    <time>2026-06-23T09:53:42Z</time>
   </trkpt>
   <trkpt lat="-3.1065630" lon="37.3789230">
    <ele>4462.4</ele>
    <time>2026-06-23T09:53:43Z</time>
   </trkpt>
   <trkpt lat="-3.1065670" lon="37.3789270">
    <ele>4462.3</ele>
    <time>2026-06-23T09:53:44Z</time>
   </trkpt>
   <trkpt lat="-3.1065680" lon="37.3789310">
    <ele>4462.2</ele>
    <time>2026-06-23T09:53:45Z</time>
   </trkpt>
   <trkpt lat="-3.1065730" lon="37.3789360">
    <ele>4462.0</ele>
    <time>2026-06-23T09:53:46Z</time>
   </trkpt>
   <trkpt lat="-3.1065770" lon="37.3789380">
    <ele>4461.9</ele>
    <time>2026-06-23T09:53:47Z</time>
   </trkpt>
   <trkpt lat="-3.1065890" lon="37.3789440">
    <ele>4461.6</ele>
    <time>2026-06-23T09:53:48Z</time>
   </trkpt>
   <trkpt lat="-3.1065960" lon="37.3789430">
    <ele>4461.4</ele>
    <time>2026-06-23T09:53:49Z</time>
   </trkpt>
   <trkpt lat="-3.1066010" lon="37.3789410">
    <ele>4461.3</ele>
    <time>2026-06-23T09:53:50Z</time>
   </trkpt>
   <trkpt lat="-3.1066100" lon="37.3789380">
    <ele>4461.0</ele>
    <time>2026-06-23T09:53:51Z</time>
   </trkpt>
   <trkpt lat="-3.1066150" lon="37.3789360">
    <ele>4460.9</ele>
    <time>2026-06-23T09:53:52Z</time>
   </trkpt>
   <trkpt lat="-3.1066230" lon="37.3789350">
    <ele>4460.7</ele>
    <time>2026-06-23T09:53:53Z</time>
   </trkpt>
   <trkpt lat="-3.1066330" lon="37.3789440">
    <ele>4460.4</ele>
    <time>2026-06-23T09:53:54Z</time>
   </trkpt>
   <trkpt lat="-3.1066340" lon="37.3789440">
    <ele>4460.3</ele>
    <time>2026-06-23T09:53:55Z</time>
   </trkpt>
   <trkpt lat="-3.1066420" lon="37.3789480">
    <ele>4460.1</ele>
    <time>2026-06-23T09:53:56Z</time>
   </trkpt>
   <trkpt lat="-3.1066470" lon="37.3789480">
    <ele>4460.0</ele>
    <time>2026-06-23T09:53:57Z</time>
   </trkpt>
   <trkpt lat="-3.1066520" lon="37.3789490">
    <ele>4459.9</ele>
    <time>2026-06-23T09:53:58Z</time>
   </trkpt>
   <trkpt lat="-3.1066610" lon="37.3789520">
    <ele>4459.6</ele>
    <time>2026-06-23T09:53:59Z</time>
   </trkpt>
   <trkpt lat="-3.1066620" lon="37.3789510">
    <ele>4459.6</ele>
    <time>2026-06-23T09:54:00Z</time>
   </trkpt>
   <trkpt lat="-3.1066700" lon="37.3789480">
    <ele>4459.4</ele>
    <time>2026-06-23T09:54:01Z</time>
   </trkpt>
   <trkpt lat="-3.1066820" lon="37.3789430">
    <ele>4459.0</ele>
    <time>2026-06-23T09:54:02Z</time>
   </trkpt>
   <trkpt lat="-3.1066880" lon="37.3789400">
    <ele>4458.9</ele>
    <time>2026-06-23T09:54:03Z</time>
   </trkpt>
   <trkpt lat="-3.1066940" lon="37.3789380">
    <ele>4458.7</ele>
    <time>2026-06-23T09:54:04Z</time>
   </trkpt>
   <trkpt lat="-3.1067010" lon="37.3789350">
    <ele>4458.5</ele>
    <time>2026-06-23T09:54:05Z</time>
   </trkpt>
   <trkpt lat="-3.1067050" lon="37.3789340">
    <ele>4458.4</ele>
    <time>2026-06-23T09:54:06Z</time>
   </trkpt>
   <trkpt lat="-3.1067120" lon="37.3789330">
    <ele>4458.2</ele>
    <time>2026-06-23T09:54:07Z</time>
   </trkpt>
   <trkpt lat="-3.1067180" lon="37.3789340">
    <ele>4458.1</ele>
    <time>2026-06-23T09:54:08Z</time>
   </trkpt>
   <trkpt lat="-3.1067230" lon="37.3789390">
    <ele>4457.9</ele>
    <time>2026-06-23T09:54:09Z</time>
   </trkpt>
   <trkpt lat="-3.1067190" lon="37.3789440">
    <ele>4457.7</ele>
    <time>2026-06-23T09:54:10Z</time>
   </trkpt>
   <trkpt lat="-3.1067250" lon="37.3789500">
    <ele>4457.5</ele>
    <time>2026-06-23T09:54:11Z</time>
   </trkpt>
   <trkpt lat="-3.1067320" lon="37.3789540">
    <ele>4457.3</ele>
    <time>2026-06-23T09:54:12Z</time>
   </trkpt>
   <trkpt lat="-3.1067360" lon="37.3789540">
    <ele>4457.2</ele>
    <time>2026-06-23T09:54:13Z</time>
   </trkpt>
   <trkpt lat="-3.1067440" lon="37.3789570">
    <ele>4457.0</ele>
    <time>2026-06-23T09:54:14Z</time>
   </trkpt>
   <trkpt lat="-3.1067520" lon="37.3789590">
    <ele>4456.8</ele>
    <time>2026-06-23T09:54:15Z</time>
   </trkpt>
   <trkpt lat="-3.1067560" lon="37.3789590">
    <ele>4456.7</ele>
    <time>2026-06-23T09:54:16Z</time>
   </trkpt>
   <trkpt lat="-3.1067620" lon="37.3789610">
    <ele>4456.5</ele>
    <time>2026-06-23T09:54:17Z</time>
   </trkpt>
   <trkpt lat="-3.1067700" lon="37.3789680">
    <ele>4456.2</ele>
    <time>2026-06-23T09:54:18Z</time>
   </trkpt>
   <trkpt lat="-3.1067720" lon="37.3789750">
    <ele>4456.0</ele>
    <time>2026-06-23T09:54:19Z</time>
   </trkpt>
   <trkpt lat="-3.1067740" lon="37.3789810">
    <ele>4455.9</ele>
    <time>2026-06-23T09:54:20Z</time>
   </trkpt>
   <trkpt lat="-3.1067760" lon="37.3789860">
    <ele>4455.8</ele>
    <time>2026-06-23T09:54:21Z</time>
   </trkpt>
   <trkpt lat="-3.1067800" lon="37.3789920">
    <ele>4455.6</ele>
    <time>2026-06-23T09:54:22Z</time>
   </trkpt>
   <trkpt lat="-3.1067840" lon="37.3789970">
    <ele>4455.4</ele>
    <time>2026-06-23T09:54:23Z</time>
   </trkpt>
   <trkpt lat="-3.1067910" lon="37.3790020">
    <ele>4455.2</ele>
    <time>2026-06-23T09:54:24Z</time>
   </trkpt>
   <trkpt lat="-3.1068000" lon="37.3790040">
    <ele>4455.0</ele>
    <time>2026-06-23T09:54:25Z</time>
   </trkpt>
   <trkpt lat="-3.1068090" lon="37.3790020">
    <ele>4454.7</ele>
    <time>2026-06-23T09:54:26Z</time>
   </trkpt>
   <trkpt lat="-3.1068180" lon="37.3789990">
    <ele>4454.5</ele>
    <time>2026-06-23T09:54:27Z</time>
   </trkpt>
   <trkpt lat="-3.1068270" lon="37.3789950">
    <ele>4454.2</ele>
    <time>2026-06-23T09:54:28Z</time>
   </trkpt>
   <trkpt lat="-3.1068320" lon="37.3789910">
    <ele>4454.1</ele>
    <time>2026-06-23T09:54:29Z</time>
   </trkpt>
   <trkpt lat="-3.1068370" lon="37.3789890">
    <ele>4453.9</ele>
    <time>2026-06-23T09:54:30Z</time>
   </trkpt>
   <trkpt lat="-3.1068460" lon="37.3789850">
    <ele>4453.7</ele>
    <time>2026-06-23T09:54:31Z</time>
   </trkpt>
   <trkpt lat="-3.1068510" lon="37.3789860">
    <ele>4453.5</ele>
    <time>2026-06-23T09:54:32Z</time>
   </trkpt>
   <trkpt lat="-3.1068570" lon="37.3789870">
    <ele>4453.4</ele>
    <time>2026-06-23T09:54:33Z</time>
   </trkpt>
   <trkpt lat="-3.1068630" lon="37.3789900">
    <ele>4453.2</ele>
    <time>2026-06-23T09:54:34Z</time>
   </trkpt>
   <trkpt lat="-3.1068650" lon="37.3789940">
    <ele>4453.1</ele>
    <time>2026-06-23T09:54:35Z</time>
   </trkpt>
   <trkpt lat="-3.1068690" lon="37.3789990">
    <ele>4452.9</ele>
    <time>2026-06-23T09:54:36Z</time>
   </trkpt>
   <trkpt lat="-3.1068750" lon="37.3790060">
    <ele>4452.7</ele>
    <time>2026-06-23T09:54:37Z</time>
   </trkpt>
   <trkpt lat="-3.1068770" lon="37.3790120">
    <ele>4452.5</ele>
    <time>2026-06-23T09:54:38Z</time>
   </trkpt>
   <trkpt lat="-3.1068820" lon="37.3790160">
    <ele>4452.4</ele>
    <time>2026-06-23T09:54:39Z</time>
   </trkpt>
   <trkpt lat="-3.1068880" lon="37.3790170">
    <ele>4452.2</ele>
    <time>2026-06-23T09:54:40Z</time>
   </trkpt>
   <trkpt lat="-3.1068940" lon="37.3790180">
    <ele>4452.1</ele>
    <time>2026-06-23T09:54:41Z</time>
   </trkpt>
   <trkpt lat="-3.1069010" lon="37.3790190">
    <ele>4451.9</ele>
    <time>2026-06-23T09:54:42Z</time>
   </trkpt>
   <trkpt lat="-3.1069080" lon="37.3790180">
    <ele>4451.7</ele>
    <time>2026-06-23T09:54:43Z</time>
   </trkpt>
   <trkpt lat="-3.1069150" lon="37.3790150">
    <ele>4451.5</ele>
    <time>2026-06-23T09:54:44Z</time>
   </trkpt>
   <trkpt lat="-3.1069210" lon="37.3790140">
    <ele>4451.4</ele>
    <time>2026-06-23T09:54:45Z</time>
   </trkpt>
   <trkpt lat="-3.1069260" lon="37.3790160">
    <ele>4451.2</ele>
    <time>2026-06-23T09:54:46Z</time>
   </trkpt>
   <trkpt lat="-3.1069310" lon="37.3790160">
    <ele>4451.1</ele>
    <time>2026-06-23T09:54:47Z</time>
   </trkpt>
   <trkpt lat="-3.1069370" lon="37.3790160">
    <ele>4450.9</ele>
    <time>2026-06-23T09:54:48Z</time>
   </trkpt>
   <trkpt lat="-3.1069390" lon="37.3790170">
    <ele>4450.9</ele>
    <time>2026-06-23T09:54:49Z</time>
   </trkpt>
   <trkpt lat="-3.1069410" lon="37.3790190">
    <ele>4450.8</ele>
    <time>2026-06-23T09:54:50Z</time>
   </trkpt>
   <trkpt lat="-3.1069440" lon="37.3790210">
    <ele>4450.7</ele>
    <time>2026-06-23T09:54:51Z</time>
   </trkpt>
   <trkpt lat="-3.1069480" lon="37.3790200">
    <ele>4450.6</ele>
    <time>2026-06-23T09:54:53Z</time>
   </trkpt>
   <trkpt lat="-3.1069490" lon="37.3790230">
    <ele>4450.5</ele>
    <time>2026-06-23T09:54:54Z</time>
   </trkpt>
   <trkpt lat="-3.1069570" lon="37.3790230">
    <ele>4450.3</ele>
    <time>2026-06-23T09:54:55Z</time>
   </trkpt>
   <trkpt lat="-3.1069620" lon="37.3790220">
    <ele>4450.2</ele>
    <time>2026-06-23T09:54:56Z</time>
   </trkpt>
   <trkpt lat="-3.1069670" lon="37.3790220">
    <ele>4450.1</ele>
    <time>2026-06-23T09:54:57Z</time>
   </trkpt>
   <trkpt lat="-3.1069720" lon="37.3790250">
    <ele>4449.9</ele>
    <time>2026-06-23T09:54:58Z</time>
   </trkpt>
   <trkpt lat="-3.1069780" lon="37.3790260">
    <ele>4449.8</ele>
    <time>2026-06-23T09:54:59Z</time>
   </trkpt>
   <trkpt lat="-3.1069840" lon="37.3790260">
    <ele>4449.6</ele>
    <time>2026-06-23T09:55:00Z</time>
   </trkpt>
   <trkpt lat="-3.1069880" lon="37.3790250">
    <ele>4449.5</ele>
    <time>2026-06-23T09:55:01Z</time>
   </trkpt>
   <trkpt lat="-3.1069940" lon="37.3790260">
    <ele>4449.4</ele>
    <time>2026-06-23T09:55:02Z</time>
   </trkpt>
   <trkpt lat="-3.1069990" lon="37.3790260">
    <ele>4449.2</ele>
    <time>2026-06-23T09:55:03Z</time>
   </trkpt>
   <trkpt lat="-3.1070070" lon="37.3790250">
    <ele>4449.0</ele>
    <time>2026-06-23T09:55:04Z</time>
   </trkpt>
   <trkpt lat="-3.1070150" lon="37.3790240">
    <ele>4448.8</ele>
    <time>2026-06-23T09:55:05Z</time>
   </trkpt>
   <trkpt lat="-3.1070230" lon="37.3790220">
    <ele>4448.6</ele>
    <time>2026-06-23T09:55:06Z</time>
   </trkpt>
   <trkpt lat="-3.1070270" lon="37.3790230">
    <ele>4448.5</ele>
    <time>2026-06-23T09:55:07Z</time>
   </trkpt>
   <trkpt lat="-3.1070320" lon="37.3790250">
    <ele>4448.4</ele>
    <time>2026-06-23T09:55:08Z</time>
   </trkpt>
   <trkpt lat="-3.1070370" lon="37.3790270">
    <ele>4448.2</ele>
    <time>2026-06-23T09:55:09Z</time>
   </trkpt>
   <trkpt lat="-3.1070440" lon="37.3790310">
    <ele>4448.0</ele>
    <time>2026-06-23T09:55:10Z</time>
   </trkpt>
   <trkpt lat="-3.1070480" lon="37.3790330">
    <ele>4447.9</ele>
    <time>2026-06-23T09:55:11Z</time>
   </trkpt>
   <trkpt lat="-3.1070540" lon="37.3790360">
    <ele>4447.7</ele>
    <time>2026-06-23T09:55:12Z</time>
   </trkpt>
   <trkpt lat="-3.1070510" lon="37.3790360">
    <ele>4447.7</ele>
    <time>2026-06-23T09:55:13Z</time>
   </trkpt>
   <trkpt lat="-3.1070580" lon="37.3790420">
    <ele>4447.4</ele>
    <time>2026-06-23T09:55:14Z</time>
   </trkpt>
   <trkpt lat="-3.1070560" lon="37.3790410">
    <ele>4447.4</ele>
    <time>2026-06-23T09:55:15Z</time>
   </trkpt>
   <trkpt lat="-3.1070590" lon="37.3790410">
    <ele>4447.3</ele>
    <time>2026-06-23T09:55:16Z</time>
   </trkpt>
   <trkpt lat="-3.1070600" lon="37.3790420">
    <ele>4447.3</ele>
    <time>2026-06-23T09:55:17Z</time>
   </trkpt>
   <trkpt lat="-3.1070650" lon="37.3790410">
    <ele>4447.1</ele>
    <time>2026-06-23T09:55:18Z</time>
   </trkpt>
   <trkpt lat="-3.1070710" lon="37.3790460">
    <ele>4446.9</ele>
    <time>2026-06-23T09:55:19Z</time>
   </trkpt>
   <trkpt lat="-3.1070740" lon="37.3790490">
    <ele>4446.8</ele>
    <time>2026-06-23T09:55:20Z</time>
   </trkpt>
   <trkpt lat="-3.1070810" lon="37.3790530">
    <ele>4446.6</ele>
    <time>2026-06-23T09:55:21Z</time>
   </trkpt>
   <trkpt lat="-3.1070850" lon="37.3790580">
    <ele>4446.5</ele>
    <time>2026-06-23T09:55:22Z</time>
   </trkpt>
   <trkpt lat="-3.1070910" lon="37.3790620">
    <ele>4446.3</ele>
    <time>2026-06-23T09:55:23Z</time>
   </trkpt>
   <trkpt lat="-3.1070990" lon="37.3790650">
    <ele>4446.1</ele>
    <time>2026-06-23T09:55:24Z</time>
   </trkpt>
   <trkpt lat="-3.1071070" lon="37.3790700">
    <ele>4445.8</ele>
    <time>2026-06-23T09:55:25Z</time>
   </trkpt>
   <trkpt lat="-3.1071100" lon="37.3790730">
    <ele>4445.7</ele>
    <time>2026-06-23T09:55:26Z</time>
   </trkpt>
   <trkpt lat="-3.1071160" lon="37.3790790">
    <ele>4445.5</ele>
    <time>2026-06-23T09:55:27Z</time>
   </trkpt>
   <trkpt lat="-3.1071220" lon="37.3790840">
    <ele>4445.3</ele>
    <time>2026-06-23T09:55:28Z</time>
   </trkpt>
   <trkpt lat="-3.1071260" lon="37.3790890">
    <ele>4445.2</ele>
    <time>2026-06-23T09:55:29Z</time>
   </trkpt>
   <trkpt lat="-3.1071330" lon="37.3790930">
    <ele>4445.0</ele>
    <time>2026-06-23T09:55:30Z</time>
   </trkpt>
   <trkpt lat="-3.1071390" lon="37.3790970">
    <ele>4444.8</ele>
    <time>2026-06-23T09:55:31Z</time>
   </trkpt>
   <trkpt lat="-3.1071460" lon="37.3791020">
    <ele>4444.6</ele>
    <time>2026-06-23T09:55:32Z</time>
   </trkpt>
   <trkpt lat="-3.1071490" lon="37.3791060">
    <ele>4444.5</ele>
    <time>2026-06-23T09:55:33Z</time>
   </trkpt>
   <trkpt lat="-3.1071560" lon="37.3791120">
    <ele>4444.3</ele>
    <time>2026-06-23T09:55:34Z</time>
   </trkpt>
   <trkpt lat="-3.1071610" lon="37.3791140">
    <ele>4444.1</ele>
    <time>2026-06-23T09:55:35Z</time>
   </trkpt>
   <trkpt lat="-3.1071670" lon="37.3791140">
    <ele>4444.0</ele>
    <time>2026-06-23T09:55:36Z</time>
   </trkpt>
   <trkpt lat="-3.1071730" lon="37.3791140">
    <ele>4443.9</ele>
    <time>2026-06-23T09:55:37Z</time>
   </trkpt>
   <trkpt lat="-3.1071830" lon="37.3791150">
    <ele>4443.6</ele>
    <time>2026-06-23T09:55:38Z</time>
   </trkpt>
   <trkpt lat="-3.1071890" lon="37.3791150">
    <ele>4443.5</ele>
    <time>2026-06-23T09:55:39Z</time>
   </trkpt>
   <trkpt lat="-3.1071980" lon="37.3791150">
    <ele>4443.3</ele>
    <time>2026-06-23T09:55:40Z</time>
   </trkpt>
   <trkpt lat="-3.1072020" lon="37.3791160">
    <ele>4443.2</ele>
    <time>2026-06-23T09:55:41Z</time>
   </trkpt>
   <trkpt lat="-3.1072000" lon="37.3791160">
    <ele>4443.1</ele>
    <time>2026-06-23T09:55:42Z</time>
   </trkpt>
   <trkpt lat="-3.1072010" lon="37.3791160">
    <ele>4443.1</ele>
    <time>2026-06-23T09:55:43Z</time>
   </trkpt>
   <trkpt lat="-3.1072010" lon="37.3791160">
    <ele>4443.1</ele>
    <time>2026-06-23T09:55:44Z</time>
   </trkpt>
   <trkpt lat="-3.1072010" lon="37.3791160">
    <ele>4443.1</ele>
    <time>2026-06-23T09:55:45Z</time>
   </trkpt>
   <trkpt lat="-3.1072010" lon="37.3791170">
    <ele>4443.1</ele>
    <time>2026-06-23T09:55:46Z</time>
   </trkpt>
   <trkpt lat="-3.1072040" lon="37.3791160">
    <ele>4443.0</ele>
    <time>2026-06-23T09:55:47Z</time>
   </trkpt>
   <trkpt lat="-3.1072040" lon="37.3791160">
    <ele>4443.0</ele>
    <time>2026-06-23T09:55:48Z</time>
   </trkpt>
   <trkpt lat="-3.1072040" lon="37.3791160">
    <ele>4443.0</ele>
    <time>2026-06-23T09:55:49Z</time>
   </trkpt>
   <trkpt lat="-3.1072040" lon="37.3791160">
    <ele>4443.0</ele>
    <time>2026-06-23T09:55:50Z</time>
   </trkpt>
   <trkpt lat="-3.1072040" lon="37.3791160">
    <ele>4443.0</ele>
    <time>2026-06-23T09:55:51Z</time>
   </trkpt>
   <trkpt lat="-3.1072060" lon="37.3791190">
    <ele>4442.9</ele>
    <time>2026-06-23T09:55:52Z</time>
   </trkpt>
   <trkpt lat="-3.1072070" lon="37.3791190">
    <ele>4442.9</ele>
    <time>2026-06-23T09:55:53Z</time>
   </trkpt>
   <trkpt lat="-3.1072080" lon="37.3791200">
    <ele>4442.9</ele>
    <time>2026-06-23T09:55:54Z</time>
   </trkpt>
   <trkpt lat="-3.1072080" lon="37.3791190">
    <ele>4442.8</ele>
    <time>2026-06-23T09:55:55Z</time>
   </trkpt>
   <trkpt lat="-3.1072070" lon="37.3791190">
    <ele>4442.8</ele>
    <time>2026-06-23T09:55:56Z</time>
   </trkpt>
   <trkpt lat="-3.1072070" lon="37.3791190">
    <ele>4442.8</ele>
    <time>2026-06-23T09:55:57Z</time>
   </trkpt>
   <trkpt lat="-3.1072070" lon="37.3791200">
    <ele>4442.8</ele>
    <time>2026-06-23T09:55:58Z</time>
   </trkpt>
   <trkpt lat="-3.1072050" lon="37.3791200">
    <ele>4442.8</ele>
    <time>2026-06-23T09:55:59Z</time>
   </trkpt>
   <trkpt lat="-3.1072060" lon="37.3791210">
    <ele>4442.7</ele>
    <time>2026-06-23T09:56:00Z</time>
   </trkpt>
   <trkpt lat="-3.1072060" lon="37.3791210">
    <ele>4442.7</ele>
    <time>2026-06-23T09:56:01Z</time>
   </trkpt>
   <trkpt lat="-3.1072060" lon="37.3791210">
    <ele>4442.7</ele>
    <time>2026-06-23T09:56:02Z</time>
   </trkpt>
   <trkpt lat="-3.1072090" lon="37.3791230">
    <ele>4442.6</ele>
    <time>2026-06-23T09:56:03Z</time>
   </trkpt>
   <trkpt lat="-3.1072100" lon="37.3791240">
    <ele>4442.6</ele>
    <time>2026-06-23T09:56:04Z</time>
   </trkpt>
   <trkpt lat="-3.1072090" lon="37.3791220">
    <ele>4442.6</ele>
    <time>2026-06-23T09:56:05Z</time>
   </trkpt>
   <trkpt lat="-3.1072090" lon="37.3791220">
    <ele>4442.6</ele>
    <time>2026-06-23T09:56:06Z</time>
   </trkpt>
   <trkpt lat="-3.1072100" lon="37.3791220">
    <ele>4442.5</ele>
    <time>2026-06-23T09:56:07Z</time>
   </trkpt>
   <trkpt lat="-3.1072110" lon="37.3791220">
    <ele>4442.5</ele>
    <time>2026-06-23T09:56:08Z</time>
   </trkpt>
   <trkpt lat="-3.1072110" lon="37.3791220">
    <ele>4442.5</ele>
    <time>2026-06-23T09:56:09Z</time>
   </trkpt>
   <trkpt lat="-3.1072110" lon="37.3791220">
    <ele>4442.5</ele>
    <time>2026-06-23T09:56:10Z</time>
   </trkpt>
   <trkpt lat="-3.1072130" lon="37.3791210">
    <ele>4442.5</ele>
    <time>2026-06-23T09:56:11Z</time>
   </trkpt>
   <trkpt lat="-3.1072170" lon="37.3791200">
    <ele>4442.4</ele>
    <time>2026-06-23T09:56:12Z</time>
   </trkpt>
   <trkpt lat="-3.1072200" lon="37.3791190">
    <ele>4442.3</ele>
    <time>2026-06-23T09:56:13Z</time>
   </trkpt>
   <trkpt lat="-3.1072240" lon="37.3791200">
    <ele>4442.2</ele>
    <time>2026-06-23T09:56:14Z</time>
   </trkpt>
   <trkpt lat="-3.1072310" lon="37.3791180">
    <ele>4442.0</ele>
    <time>2026-06-23T09:56:15Z</time>
   </trkpt>
   <trkpt lat="-3.1072340" lon="37.3791170">
    <ele>4442.0</ele>
    <time>2026-06-23T09:56:16Z</time>
   </trkpt>
   <trkpt lat="-3.1072410" lon="37.3791160">
    <ele>4441.8</ele>
    <time>2026-06-23T09:56:17Z</time>
   </trkpt>
   <trkpt lat="-3.1072450" lon="37.3791160">
    <ele>4441.7</ele>
    <time>2026-06-23T09:56:18Z</time>
   </trkpt>
   <trkpt lat="-3.1072420" lon="37.3791170">
    <ele>4441.6</ele>
    <time>2026-06-23T09:56:19Z</time>
   </trkpt>
   <trkpt lat="-3.1072440" lon="37.3791180">
    <ele>4441.6</ele>
    <time>2026-06-23T09:56:20Z</time>
   </trkpt>
   <trkpt lat="-3.1072480" lon="37.3791160">
    <ele>4441.5</ele>
    <time>2026-06-23T09:56:21Z</time>
   </trkpt>
   <trkpt lat="-3.1072520" lon="37.3791150">
    <ele>4441.4</ele>
    <time>2026-06-23T09:56:22Z</time>
   </trkpt>
   <trkpt lat="-3.1072590" lon="37.3791130">
    <ele>4441.2</ele>
    <time>2026-06-23T09:56:23Z</time>
   </trkpt>
   <trkpt lat="-3.1072620" lon="37.3791120">
    <ele>4441.1</ele>
    <time>2026-06-23T09:56:24Z</time>
   </trkpt>
   <trkpt lat="-3.1072720" lon="37.3791110">
    <ele>4440.9</ele>
    <time>2026-06-23T09:56:25Z</time>
   </trkpt>
   <trkpt lat="-3.1072830" lon="37.3791110">
    <ele>4440.6</ele>
    <time>2026-06-23T09:56:26Z</time>
   </trkpt>
   <trkpt lat="-3.1072880" lon="37.3791110">
    <ele>4440.5</ele>
    <time>2026-06-23T09:56:27Z</time>
   </trkpt>
   <trkpt lat="-3.1072900" lon="37.3791110">
    <ele>4440.5</ele>
    <time>2026-06-23T09:56:28Z</time>
   </trkpt>
   <trkpt lat="-3.1072920" lon="37.3791110">
    <ele>4440.4</ele>
    <time>2026-06-23T09:56:29Z</time>
   </trkpt>
   <trkpt lat="-3.1072960" lon="37.3791130">
    <ele>4440.3</ele>
    <time>2026-06-23T09:56:30Z</time>
   </trkpt>
   <trkpt lat="-3.1073020" lon="37.3791150">
    <ele>4440.2</ele>
    <time>2026-06-23T09:56:31Z</time>
   </trkpt>
   <trkpt lat="-3.1073080" lon="37.3791170">
    <ele>4440.0</ele>
    <time>2026-06-23T09:56:32Z</time>
   </trkpt>
   <trkpt lat="-3.1073170" lon="37.3791180">
    <ele>4439.8</ele>
    <time>2026-06-23T09:56:33Z</time>
   </trkpt>
   <trkpt lat="-3.1073220" lon="37.3791170">
    <ele>4439.7</ele>
    <time>2026-06-23T09:56:34Z</time>
   </trkpt>
   <trkpt lat="-3.1073250" lon="37.3791170">
    <ele>4439.7</ele>
    <time>2026-06-23T09:56:35Z</time>
   </trkpt>
   <trkpt lat="-3.1073330" lon="37.3791170">
    <ele>4439.5</ele>
    <time>2026-06-23T09:56:36Z</time>
   </trkpt>
   <trkpt lat="-3.1073370" lon="37.3791180">
    <ele>4439.4</ele>
    <time>2026-06-23T09:56:37Z</time>
   </trkpt>
   <trkpt lat="-3.1073440" lon="37.3791190">
    <ele>4439.2</ele>
    <time>2026-06-23T09:56:38Z</time>
   </trkpt>
   <trkpt lat="-3.1073560" lon="37.3791210">
    <ele>4438.9</ele>
    <time>2026-06-23T09:56:39Z</time>
   </trkpt>
   <trkpt lat="-3.1073580" lon="37.3791260">
    <ele>4438.8</ele>
    <time>2026-06-23T09:56:40Z</time>
   </trkpt>
   <trkpt lat="-3.1073600" lon="37.3791300">
    <ele>4438.7</ele>
    <time>2026-06-23T09:56:41Z</time>
   </trkpt>
   <trkpt lat="-3.1073670" lon="37.3791350">
    <ele>4438.5</ele>
    <time>2026-06-23T09:56:42Z</time>
   </trkpt>
   <trkpt lat="-3.1073710" lon="37.3791400">
    <ele>4438.3</ele>
    <time>2026-06-23T09:56:43Z</time>
   </trkpt>
   <trkpt lat="-3.1073760" lon="37.3791410">
    <ele>4438.2</ele>
    <time>2026-06-23T09:56:44Z</time>
   </trkpt>
   <trkpt lat="-3.1073770" lon="37.3791440">
    <ele>4438.1</ele>
    <time>2026-06-23T09:56:45Z</time>
   </trkpt>
   <trkpt lat="-3.1073820" lon="37.3791480">
    <ele>4438.0</ele>
    <time>2026-06-23T09:56:46Z</time>
   </trkpt>
   <trkpt lat="-3.1073870" lon="37.3791520">
    <ele>4437.8</ele>
    <time>2026-06-23T09:56:47Z</time>
   </trkpt>
   <trkpt lat="-3.1073920" lon="37.3791570">
    <ele>4437.7</ele>
    <time>2026-06-23T09:56:48Z</time>
   </trkpt>
   <trkpt lat="-3.1073960" lon="37.3791610">
    <ele>4437.5</ele>
    <time>2026-06-23T09:56:49Z</time>
   </trkpt>
   <trkpt lat="-3.1074010" lon="37.3791660">
    <ele>4437.4</ele>
    <time>2026-06-23T09:56:50Z</time>
   </trkpt>
   <trkpt lat="-3.1074050" lon="37.3791680">
    <ele>4437.3</ele>
    <time>2026-06-23T09:56:51Z</time>
   </trkpt>
   <trkpt lat="-3.1074100" lon="37.3791700">
    <ele>4437.1</ele>
    <time>2026-06-23T09:56:52Z</time>
   </trkpt>
   <trkpt lat="-3.1074190" lon="37.3791740">
    <ele>4436.9</ele>
    <time>2026-06-23T09:56:53Z</time>
   </trkpt>
   <trkpt lat="-3.1074250" lon="37.3791760">
    <ele>4436.7</ele>
    <time>2026-06-23T09:56:54Z</time>
   </trkpt>
   <trkpt lat="-3.1074310" lon="37.3791790">
    <ele>4436.6</ele>
    <time>2026-06-23T09:56:55Z</time>
   </trkpt>
   <trkpt lat="-3.1074360" lon="37.3791810">
    <ele>4436.5</ele>
    <time>2026-06-23T09:56:56Z</time>
   </trkpt>
   <trkpt lat="-3.1074410" lon="37.3791820">
    <ele>4436.3</ele>
    <time>2026-06-23T09:56:57Z</time>
   </trkpt>
   <trkpt lat="-3.1074420" lon="37.3791810">
    <ele>4436.3</ele>
    <time>2026-06-23T09:56:59Z</time>
   </trkpt>
   <trkpt lat="-3.1074430" lon="37.3791810">
    <ele>4436.3</ele>
    <time>2026-06-23T09:57:00Z</time>
   </trkpt>
   <trkpt lat="-3.1074430" lon="37.3791810">
    <ele>4436.3</ele>
    <time>2026-06-23T09:57:01Z</time>
   </trkpt>
   <trkpt lat="-3.1074440" lon="37.3791830">
    <ele>4436.2</ele>
    <time>2026-06-23T09:57:02Z</time>
   </trkpt>
   <trkpt lat="-3.1074470" lon="37.3791840">
    <ele>4436.1</ele>
    <time>2026-06-23T09:57:03Z</time>
   </trkpt>
   <trkpt lat="-3.1074520" lon="37.3791840">
    <ele>4436.0</ele>
    <time>2026-06-23T09:57:04Z</time>
   </trkpt>
   <trkpt lat="-3.1074590" lon="37.3791850">
    <ele>4435.8</ele>
    <time>2026-06-23T09:57:05Z</time>
   </trkpt>
   <trkpt lat="-3.1074650" lon="37.3791900">
    <ele>4435.6</ele>
    <time>2026-06-23T09:57:06Z</time>
   </trkpt>
   <trkpt lat="-3.1074740" lon="37.3791890">
    <ele>4435.4</ele>
    <time>2026-06-23T09:57:07Z</time>
   </trkpt>
   <trkpt lat="-3.1074800" lon="37.3791890">
    <ele>4435.3</ele>
    <time>2026-06-23T09:57:08Z</time>
   </trkpt>
   <trkpt lat="-3.1074850" lon="37.3791890">
    <ele>4435.2</ele>
    <time>2026-06-23T09:57:09Z</time>
   </trkpt>
   <trkpt lat="-3.1074970" lon="37.3791890">
    <ele>4434.9</ele>
    <time>2026-06-23T09:57:10Z</time>
   </trkpt>
   <trkpt lat="-3.1075030" lon="37.3791930">
    <ele>4434.7</ele>
    <time>2026-06-23T09:57:11Z</time>
   </trkpt>
   <trkpt lat="-3.1075050" lon="37.3791880">
    <ele>4434.6</ele>
    <time>2026-06-23T09:57:12Z</time>
   </trkpt>
   <trkpt lat="-3.1075040" lon="37.3791880">
    <ele>4434.5</ele>
    <time>2026-06-23T09:57:13Z</time>
   </trkpt>
   <trkpt lat="-3.1075060" lon="37.3791880">
    <ele>4434.5</ele>
    <time>2026-06-23T09:57:14Z</time>
   </trkpt>
   <trkpt lat="-3.1075120" lon="37.3791880">
    <ele>4434.3</ele>
    <time>2026-06-23T09:57:15Z</time>
   </trkpt>
   <trkpt lat="-3.1075180" lon="37.3791900">
    <ele>4434.2</ele>
    <time>2026-06-23T09:57:16Z</time>
   </trkpt>
   <trkpt lat="-3.1075240" lon="37.3791930">
    <ele>4434.0</ele>
    <time>2026-06-23T09:57:17Z</time>
   </trkpt>
   <trkpt lat="-3.1075300" lon="37.3791970">
    <ele>4433.8</ele>
    <time>2026-06-23T09:57:18Z</time>
   </trkpt>
   <trkpt lat="-3.1075330" lon="37.3791990">
    <ele>4433.8</ele>
    <time>2026-06-23T09:57:19Z</time>
   </trkpt>
   <trkpt lat="-3.1075370" lon="37.3792000">
    <ele>4433.6</ele>
    <time>2026-06-23T09:57:20Z</time>
   </trkpt>
   <trkpt lat="-3.1075430" lon="37.3792000">
    <ele>4433.5</ele>
    <time>2026-06-23T09:57:21Z</time>
   </trkpt>
   <trkpt lat="-3.1075460" lon="37.3792010">
    <ele>4433.4</ele>
    <time>2026-06-23T09:57:22Z</time>
   </trkpt>
   <trkpt lat="-3.1075500" lon="37.3792040">
    <ele>4433.3</ele>
    <time>2026-06-23T09:57:23Z</time>
   </trkpt>
   <trkpt lat="-3.1075550" lon="37.3792090">
    <ele>4433.1</ele>
    <time>2026-06-23T09:57:24Z</time>
   </trkpt>
   <trkpt lat="-3.1075590" lon="37.3792130">
    <ele>4433.0</ele>
    <time>2026-06-23T09:57:25Z</time>
   </trkpt>
   <trkpt lat="-3.1075640" lon="37.3792150">
    <ele>4432.9</ele>
    <time>2026-06-23T09:57:26Z</time>
   </trkpt>
   <trkpt lat="-3.1075670" lon="37.3792200">
    <ele>4432.7</ele>
    <time>2026-06-23T09:57:27Z</time>
   </trkpt>
   <trkpt lat="-3.1075690" lon="37.3792270">
    <ele>4432.5</ele>
    <time>2026-06-23T09:57:28Z</time>
   </trkpt>
   <trkpt lat="-3.1075700" lon="37.3792350">
    <ele>4432.3</ele>
    <time>2026-06-23T09:57:29Z</time>
   </trkpt>
   <trkpt lat="-3.1075700" lon="37.3792400">
    <ele>4432.2</ele>
    <time>2026-06-23T09:57:30Z</time>
   </trkpt>
   <trkpt lat="-3.1075720" lon="37.3792430">
    <ele>4432.1</ele>
    <time>2026-06-23T09:57:31Z</time>
   </trkpt>
   <trkpt lat="-3.1075740" lon="37.3792460">
    <ele>4432.0</ele>
    <time>2026-06-23T09:57:32Z</time>
   </trkpt>
   <trkpt lat="-3.1075770" lon="37.3792510">
    <ele>4431.9</ele>
    <time>2026-06-23T09:57:33Z</time>
   </trkpt>
   <trkpt lat="-3.1075810" lon="37.3792570">
    <ele>4431.7</ele>
    <time>2026-06-23T09:57:34Z</time>
   </trkpt>
   <trkpt lat="-3.1075840" lon="37.3792630">
    <ele>4431.6</ele>
    <time>2026-06-23T09:57:35Z</time>
   </trkpt>
   <trkpt lat="-3.1075880" lon="37.3792650">
    <ele>4431.4</ele>
    <time>2026-06-23T09:57:36Z</time>
   </trkpt>
   <trkpt lat="-3.1075910" lon="37.3792660">
    <ele>4431.4</ele>
    <time>2026-06-23T09:57:37Z</time>
   </trkpt>
   <trkpt lat="-3.1075980" lon="37.3792690">
    <ele>4431.2</ele>
    <time>2026-06-23T09:57:38Z</time>
   </trkpt>
   <trkpt lat="-3.1076040" lon="37.3792720">
    <ele>4431.0</ele>
    <time>2026-06-23T09:57:39Z</time>
   </trkpt>
   <trkpt lat="-3.1076140" lon="37.3792700">
    <ele>4430.8</ele>
    <time>2026-06-23T09:57:40Z</time>
   </trkpt>
   <trkpt lat="-3.1076180" lon="37.3792690">
    <ele>4430.7</ele>
    <time>2026-06-23T09:57:41Z</time>
   </trkpt>
   <trkpt lat="-3.1076240" lon="37.3792670">
    <ele>4430.5</ele>
    <time>2026-06-23T09:57:42Z</time>
   </trkpt>
   <trkpt lat="-3.1076290" lon="37.3792680">
    <ele>4430.4</ele>
    <time>2026-06-23T09:57:43Z</time>
   </trkpt>
   <trkpt lat="-3.1076340" lon="37.3792710">
    <ele>4430.3</ele>
    <time>2026-06-23T09:57:44Z</time>
   </trkpt>
   <trkpt lat="-3.1076410" lon="37.3792720">
    <ele>4430.1</ele>
    <time>2026-06-23T09:57:45Z</time>
   </trkpt>
   <trkpt lat="-3.1076510" lon="37.3792720">
    <ele>4429.9</ele>
    <time>2026-06-23T09:57:46Z</time>
   </trkpt>
   <trkpt lat="-3.1076530" lon="37.3792710">
    <ele>4429.8</ele>
    <time>2026-06-23T09:57:47Z</time>
   </trkpt>
   <trkpt lat="-3.1076590" lon="37.3792700">
    <ele>4429.7</ele>
    <time>2026-06-23T09:57:48Z</time>
   </trkpt>
   <trkpt lat="-3.1076680" lon="37.3792700">
    <ele>4429.5</ele>
    <time>2026-06-23T09:57:49Z</time>
   </trkpt>
   <trkpt lat="-3.1076770" lon="37.3792700">
    <ele>4429.3</ele>
    <time>2026-06-23T09:57:50Z</time>
   </trkpt>
   <trkpt lat="-3.1076810" lon="37.3792720">
    <ele>4429.1</ele>
    <time>2026-06-23T09:57:51Z</time>
   </trkpt>
   <trkpt lat="-3.1076850" lon="37.3792730">
    <ele>4429.1</ele>
    <time>2026-06-23T09:57:52Z</time>
   </trkpt>
   <trkpt lat="-3.1076920" lon="37.3792750">
    <ele>4428.9</ele>
    <time>2026-06-23T09:57:53Z</time>
   </trkpt>
   <trkpt lat="-3.1076970" lon="37.3792760">
    <ele>4428.8</ele>
    <time>2026-06-23T09:57:54Z</time>
   </trkpt>
   <trkpt lat="-3.1077060" lon="37.3792770">
    <ele>4428.6</ele>
    <time>2026-06-23T09:57:55Z</time>
   </trkpt>
   <trkpt lat="-3.1077120" lon="37.3792770">
    <ele>4428.4</ele>
    <time>2026-06-23T09:57:56Z</time>
   </trkpt>
   <trkpt lat="-3.1077190" lon="37.3792740">
    <ele>4428.2</ele>
    <time>2026-06-23T09:57:57Z</time>
   </trkpt>
   <trkpt lat="-3.1077270" lon="37.3792730">
    <ele>4428.1</ele>
    <time>2026-06-23T09:57:58Z</time>
   </trkpt>
   <trkpt lat="-3.1077330" lon="37.3792730">
    <ele>4427.9</ele>
    <time>2026-06-23T09:57:59Z</time>
   </trkpt>
   <trkpt lat="-3.1077410" lon="37.3792720">
    <ele>4427.7</ele>
    <time>2026-06-23T09:58:00Z</time>
   </trkpt>
   <trkpt lat="-3.1077460" lon="37.3792670">
    <ele>4427.6</ele>
    <time>2026-06-23T09:58:01Z</time>
   </trkpt>
   <trkpt lat="-3.1077510" lon="37.3792620">
    <ele>4427.4</ele>
    <time>2026-06-23T09:58:02Z</time>
   </trkpt>
   <trkpt lat="-3.1077560" lon="37.3792580">
    <ele>4427.3</ele>
    <time>2026-06-23T09:58:03Z</time>
   </trkpt>
   <trkpt lat="-3.1077600" lon="37.3792550">
    <ele>4427.2</ele>
    <time>2026-06-23T09:58:04Z</time>
   </trkpt>
   <trkpt lat="-3.1077660" lon="37.3792550">
    <ele>4427.1</ele>
    <time>2026-06-23T09:58:05Z</time>
   </trkpt>
   <trkpt lat="-3.1077720" lon="37.3792540">
    <ele>4426.9</ele>
    <time>2026-06-23T09:58:06Z</time>
   </trkpt>
   <trkpt lat="-3.1077790" lon="37.3792540">
    <ele>4426.8</ele>
    <time>2026-06-23T09:58:07Z</time>
   </trkpt>
   <trkpt lat="-3.1077870" lon="37.3792540">
    <ele>4426.6</ele>
    <time>2026-06-23T09:58:08Z</time>
   </trkpt>
   <trkpt lat="-3.1077930" lon="37.3792530">
    <ele>4426.5</ele>
    <time>2026-06-23T09:58:09Z</time>
   </trkpt>
   <trkpt lat="-3.1078010" lon="37.3792510">
    <ele>4426.3</ele>
    <time>2026-06-23T09:58:10Z</time>
   </trkpt>
   <trkpt lat="-3.1078070" lon="37.3792520">
    <ele>4426.2</ele>
    <time>2026-06-23T09:58:11Z</time>
   </trkpt>
   <trkpt lat="-3.1078140" lon="37.3792490">
    <ele>4426.1</ele>
    <time>2026-06-23T09:58:12Z</time>
   </trkpt>
   <trkpt lat="-3.1078220" lon="37.3792440">
    <ele>4425.9</ele>
    <time>2026-06-23T09:58:13Z</time>
   </trkpt>
   <trkpt lat="-3.1078230" lon="37.3792430">
    <ele>4425.8</ele>
    <time>2026-06-23T09:58:14Z</time>
   </trkpt>
   <trkpt lat="-3.1078290" lon="37.3792420">
    <ele>4425.7</ele>
    <time>2026-06-23T09:58:15Z</time>
   </trkpt>
   <trkpt lat="-3.1078410" lon="37.3792390">
    <ele>4425.5</ele>
    <time>2026-06-23T09:58:16Z</time>
   </trkpt>
   <trkpt lat="-3.1078460" lon="37.3792380">
    <ele>4425.4</ele>
    <time>2026-06-23T09:58:17Z</time>
   </trkpt>
   <trkpt lat="-3.1078560" lon="37.3792350">
    <ele>4425.1</ele>
    <time>2026-06-23T09:58:18Z</time>
   </trkpt>
   <trkpt lat="-3.1078620" lon="37.3792340">
    <ele>4425.0</ele>
    <time>2026-06-23T09:58:19Z</time>
   </trkpt>
   <trkpt lat="-3.1078680" lon="37.3792330">
    <ele>4424.9</ele>
    <time>2026-06-23T09:58:20Z</time>
   </trkpt>
   <trkpt lat="-3.1078750" lon="37.3792310">
    <ele>4424.8</ele>
    <time>2026-06-23T09:58:21Z</time>
   </trkpt>
   <trkpt lat="-3.1078810" lon="37.3792270">
    <ele>4424.6</ele>
    <time>2026-06-23T09:58:22Z</time>
   </trkpt>
   <trkpt lat="-3.1078890" lon="37.3792250">
    <ele>4424.4</ele>
    <time>2026-06-23T09:58:23Z</time>
   </trkpt>
   <trkpt lat="-3.1078990" lon="37.3792230">
    <ele>4424.2</ele>
    <time>2026-06-23T09:58:24Z</time>
   </trkpt>
   <trkpt lat="-3.1079050" lon="37.3792240">
    <ele>4424.1</ele>
    <time>2026-06-23T09:58:25Z</time>
   </trkpt>
   <trkpt lat="-3.1079130" lon="37.3792260">
    <ele>4424.0</ele>
    <time>2026-06-23T09:58:26Z</time>
   </trkpt>
   <trkpt lat="-3.1079190" lon="37.3792260">
    <ele>4423.8</ele>
    <time>2026-06-23T09:58:27Z</time>
   </trkpt>
   <trkpt lat="-3.1079260" lon="37.3792270">
    <ele>4423.7</ele>
    <time>2026-06-23T09:58:28Z</time>
   </trkpt>
   <trkpt lat="-3.1079330" lon="37.3792280">
    <ele>4423.6</ele>
    <time>2026-06-23T09:58:29Z</time>
   </trkpt>
   <trkpt lat="-3.1079400" lon="37.3792300">
    <ele>4423.4</ele>
    <time>2026-06-23T09:58:30Z</time>
   </trkpt>
   <trkpt lat="-3.1079440" lon="37.3792300">
    <ele>4423.3</ele>
    <time>2026-06-23T09:58:31Z</time>
   </trkpt>
   <trkpt lat="-3.1079520" lon="37.3792330">
    <ele>4423.2</ele>
    <time>2026-06-23T09:58:32Z</time>
   </trkpt>
   <trkpt lat="-3.1079580" lon="37.3792360">
    <ele>4423.0</ele>
    <time>2026-06-23T09:58:33Z</time>
   </trkpt>
   <trkpt lat="-3.1079660" lon="37.3792390">
    <ele>4422.8</ele>
    <time>2026-06-23T09:58:34Z</time>
   </trkpt>
   <trkpt lat="-3.1079700" lon="37.3792410">
    <ele>4422.8</ele>
    <time>2026-06-23T09:58:35Z</time>
   </trkpt>
   <trkpt lat="-3.1079780" lon="37.3792430">
    <ele>4422.6</ele>
    <time>2026-06-23T09:58:36Z</time>
   </trkpt>
   <trkpt lat="-3.1079860" lon="37.3792450">
    <ele>4422.4</ele>
    <time>2026-06-23T09:58:37Z</time>
   </trkpt>
   <trkpt lat="-3.1079930" lon="37.3792460">
    <ele>4422.3</ele>
    <time>2026-06-23T09:58:38Z</time>
   </trkpt>
   <trkpt lat="-3.1080010" lon="37.3792480">
    <ele>4422.1</ele>
    <time>2026-06-23T09:58:39Z</time>
   </trkpt>
   <trkpt lat="-3.1080060" lon="37.3792500">
    <ele>4422.0</ele>
    <time>2026-06-23T09:58:40Z</time>
   </trkpt>
   <trkpt lat="-3.1080150" lon="37.3792500">
    <ele>4421.8</ele>
    <time>2026-06-23T09:58:41Z</time>
   </trkpt>
   <trkpt lat="-3.1080210" lon="37.3792500">
    <ele>4421.7</ele>
    <time>2026-06-23T09:58:42Z</time>
   </trkpt>
   <trkpt lat="-3.1080280" lon="37.3792500">
    <ele>4421.6</ele>
    <time>2026-06-23T09:58:43Z</time>
   </trkpt>
   <trkpt lat="-3.1080350" lon="37.3792490">
    <ele>4421.4</ele>
    <time>2026-06-23T09:58:44Z</time>
   </trkpt>
   <trkpt lat="-3.1080390" lon="37.3792500">
    <ele>4421.3</ele>
    <time>2026-06-23T09:58:45Z</time>
   </trkpt>
   <trkpt lat="-3.1080520" lon="37.3792490">
    <ele>4421.1</ele>
    <time>2026-06-23T09:58:46Z</time>
   </trkpt>
   <trkpt lat="-3.1080570" lon="37.3792490">
    <ele>4421.0</ele>
    <time>2026-06-23T09:58:47Z</time>
   </trkpt>
   <trkpt lat="-3.1080630" lon="37.3792490">
    <ele>4420.8</ele>
    <time>2026-06-23T09:58:48Z</time>
   </trkpt>
   <trkpt lat="-3.1080690" lon="37.3792460">
    <ele>4420.7</ele>
    <time>2026-06-23T09:58:49Z</time>
   </trkpt>
   <trkpt lat="-3.1080760" lon="37.3792440">
    <ele>4420.5</ele>
    <time>2026-06-23T09:58:50Z</time>
   </trkpt>
   <trkpt lat="-3.1080810" lon="37.3792430">
    <ele>4420.4</ele>
    <time>2026-06-23T09:58:51Z</time>
   </trkpt>
   <trkpt lat="-3.1080860" lon="37.3792410">
    <ele>4420.3</ele>
    <time>2026-06-23T09:58:52Z</time>
   </trkpt>
   <trkpt lat="-3.1080930" lon="37.3792370">
    <ele>4420.1</ele>
    <time>2026-06-23T09:58:53Z</time>
   </trkpt>
   <trkpt lat="-3.1080970" lon="37.3792360">
    <ele>4420.0</ele>
    <time>2026-06-23T09:58:54Z</time>
   </trkpt>
   <trkpt lat="-3.1081050" lon="37.3792350">
    <ele>4419.9</ele>
    <time>2026-06-23T09:58:55Z</time>
   </trkpt>
   <trkpt lat="-3.1081100" lon="37.3792360">
    <ele>4419.8</ele>
    <time>2026-06-23T09:58:56Z</time>
   </trkpt>
   <trkpt lat="-3.1081160" lon="37.3792350">
    <ele>4419.6</ele>
    <time>2026-06-23T09:58:57Z</time>
   </trkpt>
   <trkpt lat="-3.1081210" lon="37.3792310">
    <ele>4419.5</ele>
    <time>2026-06-23T09:58:58Z</time>
   </trkpt>
   <trkpt lat="-3.1081250" lon="37.3792280">
    <ele>4419.4</ele>
    <time>2026-06-23T09:58:59Z</time>
   </trkpt>
   <trkpt lat="-3.1081310" lon="37.3792230">
    <ele>4419.2</ele>
    <time>2026-06-23T09:59:00Z</time>
   </trkpt>
   <trkpt lat="-3.1081370" lon="37.3792250">
    <ele>4419.1</ele>
    <time>2026-06-23T09:59:01Z</time>
   </trkpt>
   <trkpt lat="-3.1081440" lon="37.3792280">
    <ele>4418.9</ele>
    <time>2026-06-23T09:59:02Z</time>
   </trkpt>
   <trkpt lat="-3.1081520" lon="37.3792320">
    <ele>4418.7</ele>
    <time>2026-06-23T09:59:04Z</time>
   </trkpt>
   <trkpt lat="-3.1081580" lon="37.3792330">
    <ele>4418.6</ele>
    <time>2026-06-23T09:59:05Z</time>
   </trkpt>
   <trkpt lat="-3.1081660" lon="37.3792310">
    <ele>4418.4</ele>
    <time>2026-06-23T09:59:06Z</time>
   </trkpt>
   <trkpt lat="-3.1081680" lon="37.3792290">
    <ele>4418.4</ele>
    <time>2026-06-23T09:59:07Z</time>
   </trkpt>
   <trkpt lat="-3.1081720" lon="37.3792280">
    <ele>4418.3</ele>
    <time>2026-06-23T09:59:08Z</time>
   </trkpt>
   <trkpt lat="-3.1081720" lon="37.3792270">
    <ele>4418.3</ele>
    <time>2026-06-23T09:59:09Z</time>
   </trkpt>
   <trkpt lat="-3.1081740" lon="37.3792250">
    <ele>4418.2</ele>
    <time>2026-06-23T09:59:10Z</time>
   </trkpt>
   <trkpt lat="-3.1081750" lon="37.3792250">
    <ele>4418.2</ele>
    <time>2026-06-23T09:59:11Z</time>
   </trkpt>
   <trkpt lat="-3.1081760" lon="37.3792230">
    <ele>4418.1</ele>
    <time>2026-06-23T09:59:12Z</time>
   </trkpt>
   <trkpt lat="-3.1081760" lon="37.3792220">
    <ele>4418.1</ele>
    <time>2026-06-23T09:59:13Z</time>
   </trkpt>
   <trkpt lat="-3.1081760" lon="37.3792210">
    <ele>4418.1</ele>
    <time>2026-06-23T09:59:14Z</time>
   </trkpt>
   <trkpt lat="-3.1081750" lon="37.3792210">
    <ele>4418.1</ele>
    <time>2026-06-23T09:59:15Z</time>
   </trkpt>
   <trkpt lat="-3.1081780" lon="37.3792210">
    <ele>4418.0</ele>
    <time>2026-06-23T09:59:16Z</time>
   </trkpt>
   <trkpt lat="-3.1081780" lon="37.3792200">
    <ele>4418.0</ele>
    <time>2026-06-23T09:59:17Z</time>
   </trkpt>
   <trkpt lat="-3.1081820" lon="37.3792200">
    <ele>4417.9</ele>
    <time>2026-06-23T09:59:18Z</time>
   </trkpt>
   <trkpt lat="-3.1081890" lon="37.3792160">
    <ele>4417.7</ele>
    <time>2026-06-23T09:59:19Z</time>
   </trkpt>
   <trkpt lat="-3.1081930" lon="37.3792090">
    <ele>4417.6</ele>
    <time>2026-06-23T09:59:20Z</time>
   </trkpt>
   <trkpt lat="-3.1082030" lon="37.3792010">
    <ele>4417.3</ele>
    <time>2026-06-23T09:59:21Z</time>
   </trkpt>
   <trkpt lat="-3.1082120" lon="37.3791920">
    <ele>4417.0</ele>
    <time>2026-06-23T09:59:22Z</time>
   </trkpt>
   <trkpt lat="-3.1082180" lon="37.3791870">
    <ele>4416.9</ele>
    <time>2026-06-23T09:59:23Z</time>
   </trkpt>
   <trkpt lat="-3.1082240" lon="37.3791830">
    <ele>4416.7</ele>
    <time>2026-06-23T09:59:24Z</time>
   </trkpt>
   <trkpt lat="-3.1082290" lon="37.3791780">
    <ele>4416.6</ele>
    <time>2026-06-23T09:59:25Z</time>
   </trkpt>
   <trkpt lat="-3.1082350" lon="37.3791740">
    <ele>4416.4</ele>
    <time>2026-06-23T09:59:26Z</time>
   </trkpt>
   <trkpt lat="-3.1082420" lon="37.3791720">
    <ele>4416.3</ele>
    <time>2026-06-23T09:59:27Z</time>
   </trkpt>
   <trkpt lat="-3.1082480" lon="37.3791690">
    <ele>4416.1</ele>
    <time>2026-06-23T09:59:28Z</time>
   </trkpt>
   <trkpt lat="-3.1082540" lon="37.3791650">
    <ele>4416.0</ele>
    <time>2026-06-23T09:59:29Z</time>
   </trkpt>
   <trkpt lat="-3.1082600" lon="37.3791610">
    <ele>4415.8</ele>
    <time>2026-06-23T09:59:30Z</time>
   </trkpt>
   <trkpt lat="-3.1082690" lon="37.3791520">
    <ele>4415.6</ele>
    <time>2026-06-23T09:59:31Z</time>
   </trkpt>
   <trkpt lat="-3.1082720" lon="37.3791440">
    <ele>4415.4</ele>
    <time>2026-06-23T09:59:32Z</time>
   </trkpt>
   <trkpt lat="-3.1082780" lon="37.3791340">
    <ele>4415.1</ele>
    <time>2026-06-23T09:59:33Z</time>
   </trkpt>
   <trkpt lat="-3.1082800" lon="37.3791290">
    <ele>4415.0</ele>
    <time>2026-06-23T09:59:34Z</time>
   </trkpt>
   <trkpt lat="-3.1082800" lon="37.3791250">
    <ele>4414.9</ele>
    <time>2026-06-23T09:59:35Z</time>
   </trkpt>
   <trkpt lat="-3.1082740" lon="37.3791110">
    <ele>4414.6</ele>
    <time>2026-06-23T09:59:36Z</time>
   </trkpt>
   <trkpt lat="-3.1082690" lon="37.3791070">
    <ele>4414.5</ele>
    <time>2026-06-23T09:59:37Z</time>
   </trkpt>
   <trkpt lat="-3.1082660" lon="37.3791030">
    <ele>4414.4</ele>
    <time>2026-06-23T09:59:38Z</time>
   </trkpt>
   <trkpt lat="-3.1082650" lon="37.3791010">
    <ele>4414.4</ele>
    <time>2026-06-23T09:59:39Z</time>
   </trkpt>
   <trkpt lat="-3.1082610" lon="37.3790960">
    <ele>4414.2</ele>
    <time>2026-06-23T09:59:40Z</time>
   </trkpt>
   <trkpt lat="-3.1082650" lon="37.3790910">
    <ele>4414.1</ele>
    <time>2026-06-23T09:59:41Z</time>
   </trkpt>
   <trkpt lat="-3.1082620" lon="37.3790870">
    <ele>4414.0</ele>
    <time>2026-06-23T09:59:42Z</time>
   </trkpt>
   <trkpt lat="-3.1082560" lon="37.3790880">
    <ele>4413.9</ele>
    <time>2026-06-23T09:59:43Z</time>
   </trkpt>
   <trkpt lat="-3.1082500" lon="37.3790810">
    <ele>4413.7</ele>
    <time>2026-06-23T09:59:44Z</time>
   </trkpt>
   <trkpt lat="-3.1082460" lon="37.3790730">
    <ele>4413.5</ele>
    <time>2026-06-23T09:59:45Z</time>
   </trkpt>
   <trkpt lat="-3.1082450" lon="37.3790660">
    <ele>4413.3</ele>
    <time>2026-06-23T09:59:46Z</time>
   </trkpt>
   <trkpt lat="-3.1082450" lon="37.3790630">
    <ele>4413.2</ele>
    <time>2026-06-23T09:59:47Z</time>
   </trkpt>
   <trkpt lat="-3.1082440" lon="37.3790600">
    <ele>4413.2</ele>
    <time>2026-06-23T09:59:48Z</time>
   </trkpt>
   <trkpt lat="-3.1082430" lon="37.3790550">
    <ele>4413.1</ele>
    <time>2026-06-23T09:59:49Z</time>
   </trkpt>
   <trkpt lat="-3.1082440" lon="37.3790520">
    <ele>4413.0</ele>
    <time>2026-06-23T09:59:50Z</time>
   </trkpt>
   <trkpt lat="-3.1082450" lon="37.3790480">
    <ele>4412.9</ele>
    <time>2026-06-23T09:59:51Z</time>
   </trkpt>
   <trkpt lat="-3.1082450" lon="37.3790450">
    <ele>4412.8</ele>
    <time>2026-06-23T09:59:52Z</time>
   </trkpt>
   <trkpt lat="-3.1082450" lon="37.3790420">
    <ele>4412.8</ele>
    <time>2026-06-23T09:59:53Z</time>
   </trkpt>
   <trkpt lat="-3.1082450" lon="37.3790380">
    <ele>4412.7</ele>
    <time>2026-06-23T09:59:54Z</time>
   </trkpt>
   <trkpt lat="-3.1082420" lon="37.3790370">
    <ele>4412.6</ele>
    <time>2026-06-23T09:59:55Z</time>
   </trkpt>
   <trkpt lat="-3.1082340" lon="37.3790300">
    <ele>4412.4</ele>
    <time>2026-06-23T09:59:56Z</time>
   </trkpt>
   <trkpt lat="-3.1082230" lon="37.3790220">
    <ele>4412.0</ele>
    <time>2026-06-23T09:59:57Z</time>
   </trkpt>
   <trkpt lat="-3.1082290" lon="37.3790190">
    <ele>4411.9</ele>
    <time>2026-06-23T09:59:58Z</time>
   </trkpt>
   <trkpt lat="-3.1082320" lon="37.3790120">
    <ele>4411.7</ele>
    <time>2026-06-23T09:59:59Z</time>
   </trkpt>
   <trkpt lat="-3.1082350" lon="37.3790070">
    <ele>4411.6</ele>
    <time>2026-06-23T10:00:00Z</time>
   </trkpt>
   <trkpt lat="-3.1082380" lon="37.3790060">
    <ele>4411.5</ele>
    <time>2026-06-23T10:00:01Z</time>
   </trkpt>
   <trkpt lat="-3.1082420" lon="37.3790050">
    <ele>4411.4</ele>
    <time>2026-06-23T10:00:02Z</time>
   </trkpt>
   <trkpt lat="-3.1082470" lon="37.3790050">
    <ele>4411.3</ele>
    <time>2026-06-23T10:00:03Z</time>
   </trkpt>
   <trkpt lat="-3.1082510" lon="37.3790050">
    <ele>4411.2</ele>
    <time>2026-06-23T10:00:04Z</time>
   </trkpt>
   <trkpt lat="-3.1082560" lon="37.3789960">
    <ele>4410.9</ele>
    <time>2026-06-23T10:00:05Z</time>
   </trkpt>
   <trkpt lat="-3.1082490" lon="37.3789800">
    <ele>4410.5</ele>
    <time>2026-06-23T10:00:06Z</time>
   </trkpt>
   <trkpt lat="-3.1082330" lon="37.3789590">
    <ele>4409.8</ele>
    <time>2026-06-23T10:00:07Z</time>
   </trkpt>
   <trkpt lat="-3.1082350" lon="37.3789540">
    <ele>4409.7</ele>
    <time>2026-06-23T10:00:08Z</time>
   </trkpt>
   <trkpt lat="-3.1082590" lon="37.3789610">
    <ele>4409.1</ele>
    <time>2026-06-23T10:00:09Z</time>
   </trkpt>
   <trkpt lat="-3.1082570" lon="37.3789590">
    <ele>4409.0</ele>
    <time>2026-06-23T10:00:10Z</time>
   </trkpt>
   <trkpt lat="-3.1082530" lon="37.3789580">
    <ele>4408.9</ele>
    <time>2026-06-23T10:00:11Z</time>
   </trkpt>
   <trkpt lat="-3.1082570" lon="37.3789530">
    <ele>4408.7</ele>
    <time>2026-06-23T10:00:12Z</time>
   </trkpt>
   <trkpt lat="-3.1082590" lon="37.3789490">
    <ele>4408.6</ele>
    <time>2026-06-23T10:00:13Z</time>
   </trkpt>
   <trkpt lat="-3.1082600" lon="37.3789440">
    <ele>4408.5</ele>
    <time>2026-06-23T10:00:14Z</time>
   </trkpt>
   <trkpt lat="-3.1082620" lon="37.3789360">
    <ele>4408.3</ele>
    <time>2026-06-23T10:00:15Z</time>
   </trkpt>
   <trkpt lat="-3.1082670" lon="37.3789320">
    <ele>4408.1</ele>
    <time>2026-06-23T10:00:16Z</time>
   </trkpt>
   <trkpt lat="-3.1082670" lon="37.3789350">
    <ele>4408.0</ele>
    <time>2026-06-23T10:00:17Z</time>
   </trkpt>
   <trkpt lat="-3.1082670" lon="37.3789360">
    <ele>4408.0</ele>
    <time>2026-06-23T10:00:18Z</time>
   </trkpt>
   <trkpt lat="-3.1082670" lon="37.3789370">
    <ele>4408.0</ele>
    <time>2026-06-23T10:00:19Z</time>
   </trkpt>
   <trkpt lat="-3.1082670" lon="37.3789370">
    <ele>4408.0</ele>
    <time>2026-06-23T10:00:20Z</time>
   </trkpt>
   <trkpt lat="-3.1082590" lon="37.3789380">
    <ele>4407.8</ele>
    <time>2026-06-23T10:00:21Z</time>
   </trkpt>
   <trkpt lat="-3.1082590" lon="37.3789380">
    <ele>4407.8</ele>
    <time>2026-06-23T10:00:22Z</time>
   </trkpt>
   <trkpt lat="-3.1082590" lon="37.3789380">
    <ele>4407.8</ele>
    <time>2026-06-23T10:00:23Z</time>
   </trkpt>
   <trkpt lat="-3.1082520" lon="37.3789380">
    <ele>4407.6</ele>
    <time>2026-06-23T10:00:24Z</time>
   </trkpt>
   <trkpt lat="-3.1082520" lon="37.3789380">
    <ele>4407.6</ele>
    <time>2026-06-23T10:00:25Z</time>
   </trkpt>
   <trkpt lat="-3.1082500" lon="37.3789360">
    <ele>4407.5</ele>
    <time>2026-06-23T10:00:26Z</time>
   </trkpt>
   <trkpt lat="-3.1082500" lon="37.3789340">
    <ele>4407.5</ele>
    <time>2026-06-23T10:00:27Z</time>
   </trkpt>
   <trkpt lat="-3.1082510" lon="37.3789340">
    <ele>4407.5</ele>
    <time>2026-06-23T10:00:28Z</time>
   </trkpt>
   <trkpt lat="-3.1082530" lon="37.3789320">
    <ele>4407.4</ele>
    <time>2026-06-23T10:00:29Z</time>
   </trkpt>
   <trkpt lat="-3.1082520" lon="37.3789330">
    <ele>4407.4</ele>
    <time>2026-06-23T10:00:30Z</time>
   </trkpt>
   <trkpt lat="-3.1082520" lon="37.3789330">
    <ele>4407.4</ele>
    <time>2026-06-23T10:00:31Z</time>
   </trkpt>
   <trkpt lat="-3.1082560" lon="37.3789310">
    <ele>4407.3</ele>
    <time>2026-06-23T10:00:32Z</time>
   </trkpt>
   <trkpt lat="-3.1082620" lon="37.3789320">
    <ele>4407.2</ele>
    <time>2026-06-23T10:00:33Z</time>
   </trkpt>
   <trkpt lat="-3.1082670" lon="37.3789320">
    <ele>4407.0</ele>
    <time>2026-06-23T10:00:34Z</time>
   </trkpt>
   <trkpt lat="-3.1082710" lon="37.3789340">
    <ele>4406.9</ele>
    <time>2026-06-23T10:00:35Z</time>
   </trkpt>
   <trkpt lat="-3.1082760" lon="37.3789350">
    <ele>4406.8</ele>
    <time>2026-06-23T10:00:36Z</time>
   </trkpt>
   <trkpt lat="-3.1082800" lon="37.3789370">
    <ele>4406.7</ele>
    <time>2026-06-23T10:00:37Z</time>
   </trkpt>
   <trkpt lat="-3.1082900" lon="37.3789380">
    <ele>4406.5</ele>
    <time>2026-06-23T10:00:38Z</time>
   </trkpt>
   <trkpt lat="-3.1082940" lon="37.3789370">
    <ele>4406.4</ele>
    <time>2026-06-23T10:00:39Z</time>
   </trkpt>
   <trkpt lat="-3.1082970" lon="37.3789380">
    <ele>4406.3</ele>
    <time>2026-06-23T10:00:40Z</time>
   </trkpt>
   <trkpt lat="-3.1083030" lon="37.3789370">
    <ele>4406.2</ele>
    <time>2026-06-23T10:00:41Z</time>
   </trkpt>
   <trkpt lat="-3.1083150" lon="37.3789350">
    <ele>4405.9</ele>
    <time>2026-06-23T10:00:42Z</time>
   </trkpt>
   <trkpt lat="-3.1083230" lon="37.3789340">
    <ele>4405.7</ele>
    <time>2026-06-23T10:00:43Z</time>
   </trkpt>
   <trkpt lat="-3.1083290" lon="37.3789360">
    <ele>4405.5</ele>
    <time>2026-06-23T10:00:44Z</time>
   </trkpt>
   <trkpt lat="-3.1083350" lon="37.3789390">
    <ele>4405.4</ele>
    <time>2026-06-23T10:00:45Z</time>
   </trkpt>
   <trkpt lat="-3.1083410" lon="37.3789420">
    <ele>4405.2</ele>
    <time>2026-06-23T10:00:46Z</time>
   </trkpt>
   <trkpt lat="-3.1083480" lon="37.3789450">
    <ele>4405.0</ele>
    <time>2026-06-23T10:00:47Z</time>
   </trkpt>
   <trkpt lat="-3.1083580" lon="37.3789470">
    <ele>4404.8</ele>
    <time>2026-06-23T10:00:48Z</time>
   </trkpt>
   <trkpt lat="-3.1083630" lon="37.3789430">
    <ele>4404.6</ele>
    <time>2026-06-23T10:00:49Z</time>
   </trkpt>
   <trkpt lat="-3.1083690" lon="37.3789380">
    <ele>4404.4</ele>
    <time>2026-06-23T10:00:50Z</time>
   </trkpt>
   <trkpt lat="-3.1083760" lon="37.3789320">
    <ele>4404.2</ele>
    <time>2026-06-23T10:00:51Z</time>
   </trkpt>
   <trkpt lat="-3.1083790" lon="37.3789300">
    <ele>4404.1</ele>
    <time>2026-06-23T10:00:52Z</time>
   </trkpt>
   <trkpt lat="-3.1083800" lon="37.3789310">
    <ele>4404.1</ele>
    <time>2026-06-23T10:00:53Z</time>
   </trkpt>
   <trkpt lat="-3.1083880" lon="37.3789310">
    <ele>4403.8</ele>
    <time>2026-06-23T10:00:54Z</time>
   </trkpt>
   <trkpt lat="-3.1083920" lon="37.3789340">
    <ele>4403.7</ele>
    <time>2026-06-23T10:00:55Z</time>
   </trkpt>
   <trkpt lat="-3.1084030" lon="37.3789340">
    <ele>4403.4</ele>
    <time>2026-06-23T10:00:56Z</time>
   </trkpt>
   <trkpt lat="-3.1084070" lon="37.3789330">
    <ele>4403.3</ele>
    <time>2026-06-23T10:00:57Z</time>
   </trkpt>
   <trkpt lat="-3.1084110" lon="37.3789320">
    <ele>4403.2</ele>
    <time>2026-06-23T10:00:58Z</time>
   </trkpt>
   <trkpt lat="-3.1084110" lon="37.3789310">
    <ele>4403.2</ele>
    <time>2026-06-23T10:00:59Z</time>
   </trkpt>
   <trkpt lat="-3.1084150" lon="37.3789300">
    <ele>4403.1</ele>
    <time>2026-06-23T10:01:00Z</time>
   </trkpt>
   <trkpt lat="-3.1084210" lon="37.3789260">
    <ele>4402.9</ele>
    <time>2026-06-23T10:01:01Z</time>
   </trkpt>
   <trkpt lat="-3.1084270" lon="37.3789200">
    <ele>4402.7</ele>
    <time>2026-06-23T10:01:02Z</time>
   </trkpt>
   <trkpt lat="-3.1084330" lon="37.3789130">
    <ele>4402.4</ele>
    <time>2026-06-23T10:01:03Z</time>
   </trkpt>
   <trkpt lat="-3.1084390" lon="37.3789090">
    <ele>4402.2</ele>
    <time>2026-06-23T10:01:04Z</time>
   </trkpt>
   <trkpt lat="-3.1084450" lon="37.3789060">
    <ele>4402.1</ele>
    <time>2026-06-23T10:01:05Z</time>
   </trkpt>
   <trkpt lat="-3.1084500" lon="37.3789040">
    <ele>4401.9</ele>
    <time>2026-06-23T10:01:06Z</time>
   </trkpt>
   <trkpt lat="-3.1084590" lon="37.3789010">
    <ele>4401.7</ele>
    <time>2026-06-23T10:01:07Z</time>
   </trkpt>
   <trkpt lat="-3.1084660" lon="37.3789010">
    <ele>4401.5</ele>
    <time>2026-06-23T10:01:08Z</time>
   </trkpt>
   <trkpt lat="-3.1084720" lon="37.3789010">
    <ele>4401.3</ele>
    <time>2026-06-23T10:01:10Z</time>
   </trkpt>
   <trkpt lat="-3.1084830" lon="37.3788990">
    <ele>4401.1</ele>
    <time>2026-06-23T10:01:11Z</time>
   </trkpt>
   <trkpt lat="-3.1084900" lon="37.3788970">
    <ele>4400.9</ele>
    <time>2026-06-23T10:01:12Z</time>
   </trkpt>
   <trkpt lat="-3.1084970" lon="37.3788970">
    <ele>4400.7</ele>
    <time>2026-06-23T10:01:13Z</time>
   </trkpt>
   <trkpt lat="-3.1085020" lon="37.3788980">
    <ele>4400.6</ele>
    <time>2026-06-23T10:01:14Z</time>
   </trkpt>
   <trkpt lat="-3.1085040" lon="37.3788980">
    <ele>4400.5</ele>
    <time>2026-06-23T10:01:15Z</time>
   </trkpt>
   <trkpt lat="-3.1085140" lon="37.3789010">
    <ele>4400.2</ele>
    <time>2026-06-23T10:01:16Z</time>
   </trkpt>
   <trkpt lat="-3.1085260" lon="37.3789010">
    <ele>4399.9</ele>
    <time>2026-06-23T10:01:17Z</time>
   </trkpt>
   <trkpt lat="-3.1085360" lon="37.3789020">
    <ele>4399.7</ele>
    <time>2026-06-23T10:01:18Z</time>
   </trkpt>
   <trkpt lat="-3.1085410" lon="37.3788980">
    <ele>4399.5</ele>
    <time>2026-06-23T10:01:19Z</time>
   </trkpt>
   <trkpt lat="-3.1085480" lon="37.3788950">
    <ele>4399.3</ele>
    <time>2026-06-23T10:01:20Z</time>
   </trkpt>
   <trkpt lat="-3.1085530" lon="37.3788890">
    <ele>4399.1</ele>
    <time>2026-06-23T10:01:21Z</time>
   </trkpt>
   <trkpt lat="-3.1085630" lon="37.3788830">
    <ele>4398.8</ele>
    <time>2026-06-23T10:01:22Z</time>
   </trkpt>
   <trkpt lat="-3.1085670" lon="37.3788810">
    <ele>4398.7</ele>
    <time>2026-06-23T10:01:23Z</time>
   </trkpt>
   <trkpt lat="-3.1085730" lon="37.3788790">
    <ele>4398.5</ele>
    <time>2026-06-23T10:01:24Z</time>
   </trkpt>
   <trkpt lat="-3.1085810" lon="37.3788770">
    <ele>4398.3</ele>
    <time>2026-06-23T10:01:25Z</time>
   </trkpt>
   <trkpt lat="-3.1085890" lon="37.3788750">
    <ele>4398.1</ele>
    <time>2026-06-23T10:01:26Z</time>
   </trkpt>
   <trkpt lat="-3.1085960" lon="37.3788740">
    <ele>4398.0</ele>
    <time>2026-06-23T10:01:27Z</time>
   </trkpt>
   <trkpt lat="-3.1086030" lon="37.3788750">
    <ele>4397.8</ele>
    <time>2026-06-23T10:01:28Z</time>
   </trkpt>
   <trkpt lat="-3.1086100" lon="37.3788750">
    <ele>4397.6</ele>
    <time>2026-06-23T10:01:29Z</time>
   </trkpt>
   <trkpt lat="-3.1086170" lon="37.3788750">
    <ele>4397.4</ele>
    <time>2026-06-23T10:01:30Z</time>
   </trkpt>
   <trkpt lat="-3.1086250" lon="37.3788740">
    <ele>4397.2</ele>
    <time>2026-06-23T10:01:31Z</time>
   </trkpt>
   <trkpt lat="-3.1086340" lon="37.3788730">
    <ele>4397.0</ele>
    <time>2026-06-23T10:01:32Z</time>
   </trkpt>
   <trkpt lat="-3.1086410" lon="37.3788690">
    <ele>4396.8</ele>
    <time>2026-06-23T10:01:33Z</time>
   </trkpt>
   <trkpt lat="-3.1086480" lon="37.3788660">
    <ele>4396.7</ele>
    <time>2026-06-23T10:01:34Z</time>
   </trkpt>
   <trkpt lat="-3.1086540" lon="37.3788630">
    <ele>4396.5</ele>
    <time>2026-06-23T10:01:35Z</time>
   </trkpt>
   <trkpt lat="-3.1086590" lon="37.3788610">
    <ele>4396.4</ele>
    <time>2026-06-23T10:01:36Z</time>
   </trkpt>
   <trkpt lat="-3.1086680" lon="37.3788630">
    <ele>4396.1</ele>
    <time>2026-06-23T10:01:37Z</time>
   </trkpt>
   <trkpt lat="-3.1086740" lon="37.3788630">
    <ele>4396.0</ele>
    <time>2026-06-23T10:01:38Z</time>
   </trkpt>
   <trkpt lat="-3.1086810" lon="37.3788630">
    <ele>4395.8</ele>
    <time>2026-06-23T10:01:39Z</time>
   </trkpt>
   <trkpt lat="-3.1086830" lon="37.3788620">
    <ele>4395.8</ele>
    <time>2026-06-23T10:01:40Z</time>
   </trkpt>
   <trkpt lat="-3.1086810" lon="37.3788660">
    <ele>4395.7</ele>
    <time>2026-06-23T10:01:41Z</time>
   </trkpt>
   <trkpt lat="-3.1086810" lon="37.3788620">
    <ele>4395.6</ele>
    <time>2026-06-23T10:01:42Z</time>
   </trkpt>
   <trkpt lat="-3.1086850" lon="37.3788620">
    <ele>4395.5</ele>
    <time>2026-06-23T10:01:43Z</time>
   </trkpt>
   <trkpt lat="-3.1086900" lon="37.3788640">
    <ele>4395.4</ele>
    <time>2026-06-23T10:01:44Z</time>
   </trkpt>
   <trkpt lat="-3.1086970" lon="37.3788650">
    <ele>4395.2</ele>
    <time>2026-06-23T10:01:45Z</time>
   </trkpt>
   <trkpt lat="-3.1087080" lon="37.3788660">
    <ele>4395.0</ele>
    <time>2026-06-23T10:01:46Z</time>
   </trkpt>
   <trkpt lat="-3.1087170" lon="37.3788660">
    <ele>4394.8</ele>
    <time>2026-06-23T10:01:47Z</time>
   </trkpt>
   <trkpt lat="-3.1087240" lon="37.3788660">
    <ele>4394.6</ele>
    <time>2026-06-23T10:01:48Z</time>
   </trkpt>
   <trkpt lat="-3.1087310" lon="37.3788670">
    <ele>4394.4</ele>
    <time>2026-06-23T10:01:49Z</time>
   </trkpt>
   <trkpt lat="-3.1087480" lon="37.3788660">
    <ele>4394.1</ele>
    <time>2026-06-23T10:01:50Z</time>
   </trkpt>
   <trkpt lat="-3.1087550" lon="37.3788630">
    <ele>4393.9</ele>
    <time>2026-06-23T10:01:51Z</time>
   </trkpt>
   <trkpt lat="-3.1087620" lon="37.3788620">
    <ele>4393.7</ele>
    <time>2026-06-23T10:01:52Z</time>
   </trkpt>
   <trkpt lat="-3.1087680" lon="37.3788600">
    <ele>4393.6</ele>
    <time>2026-06-23T10:01:53Z</time>
   </trkpt>
   <trkpt lat="-3.1087800" lon="37.3788580">
    <ele>4393.3</ele>
    <time>2026-06-23T10:01:54Z</time>
   </trkpt>
   <trkpt lat="-3.1087840" lon="37.3788590">
    <ele>4393.2</ele>
    <time>2026-06-23T10:01:55Z</time>
   </trkpt>
   <trkpt lat="-3.1087910" lon="37.3788590">
    <ele>4393.1</ele>
    <time>2026-06-23T10:01:56Z</time>
   </trkpt>
   <trkpt lat="-3.1087970" lon="37.3788620">
    <ele>4392.9</ele>
    <time>2026-06-23T10:01:57Z</time>
   </trkpt>
   <trkpt lat="-3.1088070" lon="37.3788630">
    <ele>4392.7</ele>
    <time>2026-06-23T10:01:58Z</time>
   </trkpt>
   <trkpt lat="-3.1088160" lon="37.3788650">
    <ele>4392.5</ele>
    <time>2026-06-23T10:01:59Z</time>
   </trkpt>
   <trkpt lat="-3.1088220" lon="37.3788680">
    <ele>4392.4</ele>
    <time>2026-06-23T10:02:00Z</time>
   </trkpt>
   <trkpt lat="-3.1088290" lon="37.3788680">
    <ele>4392.2</ele>
    <time>2026-06-23T10:02:01Z</time>
   </trkpt>
   <trkpt lat="-3.1088350" lon="37.3788690">
    <ele>4392.1</ele>
    <time>2026-06-23T10:02:02Z</time>
   </trkpt>
   <trkpt lat="-3.1088350" lon="37.3788660">
    <ele>4392.0</ele>
    <time>2026-06-23T10:02:03Z</time>
   </trkpt>
   <trkpt lat="-3.1088350" lon="37.3788660">
    <ele>4392.0</ele>
    <time>2026-06-23T10:02:04Z</time>
   </trkpt>
   <trkpt lat="-3.1088390" lon="37.3788670">
    <ele>4391.9</ele>
    <time>2026-06-23T10:02:05Z</time>
   </trkpt>
   <trkpt lat="-3.1088470" lon="37.3788700">
    <ele>4391.7</ele>
    <time>2026-06-23T10:02:06Z</time>
   </trkpt>
   <trkpt lat="-3.1088550" lon="37.3788740">
    <ele>4391.5</ele>
    <time>2026-06-23T10:02:07Z</time>
   </trkpt>
   <trkpt lat="-3.1088640" lon="37.3788720">
    <ele>4391.3</ele>
    <time>2026-06-23T10:02:08Z</time>
   </trkpt>
   <trkpt lat="-3.1088700" lon="37.3788730">
    <ele>4391.2</ele>
    <time>2026-06-23T10:02:09Z</time>
   </trkpt>
   <trkpt lat="-3.1088790" lon="37.3788740">
    <ele>4391.0</ele>
    <time>2026-06-23T10:02:10Z</time>
   </trkpt>
   <trkpt lat="-3.1088830" lon="37.3788750">
    <ele>4390.9</ele>
    <time>2026-06-23T10:02:11Z</time>
   </trkpt>
   <trkpt lat="-3.1088910" lon="37.3788730">
    <ele>4390.7</ele>
    <time>2026-06-23T10:02:12Z</time>
   </trkpt>
   <trkpt lat="-3.1088930" lon="37.3788700">
    <ele>4390.7</ele>
    <time>2026-06-23T10:02:13Z</time>
   </trkpt>
   <trkpt lat="-3.1089000" lon="37.3788650">
    <ele>4390.5</ele>
    <time>2026-06-23T10:02:14Z</time>
   </trkpt>
   <trkpt lat="-3.1089050" lon="37.3788610">
    <ele>4390.3</ele>
    <time>2026-06-23T10:02:15Z</time>
   </trkpt>
   <trkpt lat="-3.1089120" lon="37.3788590">
    <ele>4390.2</ele>
    <time>2026-06-23T10:02:16Z</time>
   </trkpt>
   <trkpt lat="-3.1089190" lon="37.3788550">
    <ele>4390.0</ele>
    <time>2026-06-23T10:02:17Z</time>
   </trkpt>
   <trkpt lat="-3.1089270" lon="37.3788520">
    <ele>4389.8</ele>
    <time>2026-06-23T10:02:18Z</time>
   </trkpt>
   <trkpt lat="-3.1089330" lon="37.3788490">
    <ele>4389.6</ele>
    <time>2026-06-23T10:02:19Z</time>
   </trkpt>
   <trkpt lat="-3.1089360" lon="37.3788490">
    <ele>4389.6</ele>
    <time>2026-06-23T10:02:20Z</time>
   </trkpt>
   <trkpt lat="-3.1089410" lon="37.3788490">
    <ele>4389.5</ele>
    <time>2026-06-23T10:02:21Z</time>
   </trkpt>
   <trkpt lat="-3.1089440" lon="37.3788480">
    <ele>4389.4</ele>
    <time>2026-06-23T10:02:22Z</time>
   </trkpt>
   <trkpt lat="-3.1089530" lon="37.3788450">
    <ele>4389.2</ele>
    <time>2026-06-23T10:02:23Z</time>
   </trkpt>
   <trkpt lat="-3.1089620" lon="37.3788430">
    <ele>4389.0</ele>
    <time>2026-06-23T10:02:24Z</time>
   </trkpt>
   <trkpt lat="-3.1089700" lon="37.3788450">
    <ele>4388.8</ele>
    <time>2026-06-23T10:02:25Z</time>
   </trkpt>
   <trkpt lat="-3.1089730" lon="37.3788460">
    <ele>4388.7</ele>
    <time>2026-06-23T10:02:26Z</time>
   </trkpt>
   <trkpt lat="-3.1089720" lon="37.3788460">
    <ele>4388.7</ele>
    <time>2026-06-23T10:02:27Z</time>
   </trkpt>
   <trkpt lat="-3.1089710" lon="37.3788440">
    <ele>4388.6</ele>
    <time>2026-06-23T10:02:28Z</time>
   </trkpt>
   <trkpt lat="-3.1089710" lon="37.3788440">
    <ele>4388.6</ele>
    <time>2026-06-23T10:02:29Z</time>
   </trkpt>
   <trkpt lat="-3.1089710" lon="37.3788440">
    <ele>4388.6</ele>
    <time>2026-06-23T10:02:30Z</time>
   </trkpt>
   <trkpt lat="-3.1089720" lon="37.3788430">
    <ele>4388.6</ele>
    <time>2026-06-23T10:02:31Z</time>
   </trkpt>
   <trkpt lat="-3.1089710" lon="37.3788430">
    <ele>4388.6</ele>
    <time>2026-06-23T10:02:32Z</time>
   </trkpt>
   <trkpt lat="-3.1089710" lon="37.3788430">
    <ele>4388.6</ele>
    <time>2026-06-23T10:02:33Z</time>
   </trkpt>
   <trkpt lat="-3.1089710" lon="37.3788430">
    <ele>4388.6</ele>
    <time>2026-06-23T10:02:34Z</time>
   </trkpt>
   <trkpt lat="-3.1089730" lon="37.3788420">
    <ele>4388.5</ele>
    <time>2026-06-23T10:02:35Z</time>
   </trkpt>
   <trkpt lat="-3.1089730" lon="37.3788420">
    <ele>4388.5</ele>
    <time>2026-06-23T10:02:36Z</time>
   </trkpt>
   <trkpt lat="-3.1089730" lon="37.3788420">
    <ele>4388.5</ele>
    <time>2026-06-23T10:02:37Z</time>
   </trkpt>
   <trkpt lat="-3.1089730" lon="37.3788420">
    <ele>4388.5</ele>
    <time>2026-06-23T10:02:38Z</time>
   </trkpt>
   <trkpt lat="-3.1089730" lon="37.3788420">
    <ele>4388.5</ele>
    <time>2026-06-23T10:02:39Z</time>
   </trkpt>
   <trkpt lat="-3.1089730" lon="37.3788420">
    <ele>4388.5</ele>
    <time>2026-06-23T10:02:40Z</time>
   </trkpt>
   <trkpt lat="-3.1089730" lon="37.3788420">
    <ele>4388.5</ele>
    <time>2026-06-23T10:02:41Z</time>
   </trkpt>
   <trkpt lat="-3.1089730" lon="37.3788420">
    <ele>4388.5</ele>
    <time>2026-06-23T10:02:42Z</time>
   </trkpt>
   <trkpt lat="-3.1089730" lon="37.3788420">
    <ele>4388.5</ele>
    <time>2026-06-23T10:02:43Z</time>
   </trkpt>
   <trkpt lat="-3.1089730" lon="37.3788420">
    <ele>4388.5</ele>
    <time>2026-06-23T10:02:44Z</time>
   </trkpt>
   <trkpt lat="-3.1089730" lon="37.3788420">
    <ele>4388.5</ele>
    <time>2026-06-23T10:02:45Z</time>
   </trkpt>
   <trkpt lat="-3.1089730" lon="37.3788420">
    <ele>4388.5</ele>
    <time>2026-06-23T10:02:46Z</time>
   </trkpt>
   <trkpt lat="-3.1089730" lon="37.3788420">
    <ele>4388.5</ele>
    <time>2026-06-23T10:02:47Z</time>
   </trkpt>
   <trkpt lat="-3.1089720" lon="37.3788330">
    <ele>4388.3</ele>
    <time>2026-06-23T10:02:48Z</time>
   </trkpt>
   <trkpt lat="-3.1089720" lon="37.3788310">
    <ele>4388.3</ele>
    <time>2026-06-23T10:02:49Z</time>
   </trkpt>
   <trkpt lat="-3.1089720" lon="37.3788310">
    <ele>4388.3</ele>
    <time>2026-06-23T10:02:50Z</time>
   </trkpt>
   <trkpt lat="-3.1089720" lon="37.3788300">
    <ele>4388.3</ele>
    <time>2026-06-23T10:02:51Z</time>
   </trkpt>
   <trkpt lat="-3.1089720" lon="37.3788300">
    <ele>4388.3</ele>
    <time>2026-06-23T10:02:52Z</time>
   </trkpt>
   <trkpt lat="-3.1089720" lon="37.3788300">
    <ele>4388.3</ele>
    <time>2026-06-23T10:02:53Z</time>
   </trkpt>
   <trkpt lat="-3.1089720" lon="37.3788300">
    <ele>4388.3</ele>
    <time>2026-06-23T10:02:54Z</time>
   </trkpt>
   <trkpt lat="-3.1089720" lon="37.3788300">
    <ele>4388.3</ele>
    <time>2026-06-23T10:02:55Z</time>
   </trkpt>
   <trkpt lat="-3.1089710" lon="37.3788290">
    <ele>4388.2</ele>
    <time>2026-06-23T10:02:56Z</time>
   </trkpt>
   <trkpt lat="-3.1089710" lon="37.3788300">
    <ele>4388.2</ele>
    <time>2026-06-23T10:02:57Z</time>
   </trkpt>
   <trkpt lat="-3.1089730" lon="37.3788310">
    <ele>4388.2</ele>
    <time>2026-06-23T10:02:58Z</time>
   </trkpt>
   <trkpt lat="-3.1089720" lon="37.3788320">
    <ele>4388.1</ele>
    <time>2026-06-23T10:02:59Z</time>
   </trkpt>
   <trkpt lat="-3.1089710" lon="37.3788320">
    <ele>4388.1</ele>
    <time>2026-06-23T10:03:00Z</time>
   </trkpt>
   <trkpt lat="-3.1089720" lon="37.3788310">
    <ele>4388.1</ele>
    <time>2026-06-23T10:03:01Z</time>
   </trkpt>
   <trkpt lat="-3.1089720" lon="37.3788310">
    <ele>4388.1</ele>
    <time>2026-06-23T10:03:02Z</time>
   </trkpt>
   <trkpt lat="-3.1089720" lon="37.3788310">
    <ele>4388.1</ele>
    <time>2026-06-23T10:03:03Z</time>
   </trkpt>
   <trkpt lat="-3.1089720" lon="37.3788310">
    <ele>4388.1</ele>
    <time>2026-06-23T10:03:04Z</time>
   </trkpt>
   <trkpt lat="-3.1089730" lon="37.3788320">
    <ele>4388.0</ele>
    <time>2026-06-23T10:03:05Z</time>
   </trkpt>
   <trkpt lat="-3.1089730" lon="37.3788320">
    <ele>4388.0</ele>
    <time>2026-06-23T10:03:06Z</time>
   </trkpt>
   <trkpt lat="-3.1089720" lon="37.3788340">
    <ele>4388.0</ele>
    <time>2026-06-23T10:03:07Z</time>
   </trkpt>
   <trkpt lat="-3.1089720" lon="37.3788340">
    <ele>4388.0</ele>
    <time>2026-06-23T10:03:08Z</time>
   </trkpt>
   <trkpt lat="-3.1089720" lon="37.3788350">
    <ele>4388.0</ele>
    <time>2026-06-23T10:03:09Z</time>
   </trkpt>
   <trkpt lat="-3.1089720" lon="37.3788350">
    <ele>4388.0</ele>
    <time>2026-06-23T10:03:10Z</time>
   </trkpt>
   <trkpt lat="-3.1089720" lon="37.3788350">
    <ele>4388.0</ele>
    <time>2026-06-23T10:03:11Z</time>
   </trkpt>
   <trkpt lat="-3.1089720" lon="37.3788360">
    <ele>4387.9</ele>
    <time>2026-06-23T10:03:12Z</time>
   </trkpt>
   <trkpt lat="-3.1089720" lon="37.3788360">
    <ele>4387.9</ele>
    <time>2026-06-23T10:03:13Z</time>
   </trkpt>
   <trkpt lat="-3.1089720" lon="37.3788360">
    <ele>4387.9</ele>
    <time>2026-06-23T10:03:14Z</time>
   </trkpt>
   <trkpt lat="-3.1089720" lon="37.3788370">
    <ele>4387.9</ele>
    <time>2026-06-23T10:03:16Z</time>
   </trkpt>
   <trkpt lat="-3.1089720" lon="37.3788370">
    <ele>4387.9</ele>
    <time>2026-06-23T10:03:17Z</time>
   </trkpt>
   <trkpt lat="-3.1089720" lon="37.3788370">
    <ele>4387.9</ele>
    <time>2026-06-23T10:03:18Z</time>
   </trkpt>
   <trkpt lat="-3.1089710" lon="37.3788370">
    <ele>4387.9</ele>
    <time>2026-06-23T10:03:19Z</time>
   </trkpt>
   <trkpt lat="-3.1089710" lon="37.3788370">
    <ele>4387.9</ele>
    <time>2026-06-23T10:03:20Z</time>
   </trkpt>
   <trkpt lat="-3.1089710" lon="37.3788370">
    <ele>4387.9</ele>
    <time>2026-06-23T10:03:21Z</time>
   </trkpt>
   <trkpt lat="-3.1089710" lon="37.3788370">
    <ele>4387.9</ele>
    <time>2026-06-23T10:03:22Z</time>
   </trkpt>
   <trkpt lat="-3.1089710" lon="37.3788370">
    <ele>4387.9</ele>
    <time>2026-06-23T10:03:23Z</time>
   </trkpt>
   <trkpt lat="-3.1089710" lon="37.3788370">
    <ele>4387.9</ele>
    <time>2026-06-23T10:03:24Z</time>
   </trkpt>
   <trkpt lat="-3.1089710" lon="37.3788370">
    <ele>4387.9</ele>
    <time>2026-06-23T10:03:25Z</time>
   </trkpt>
   <trkpt lat="-3.1089710" lon="37.3788370">
    <ele>4387.9</ele>
    <time>2026-06-23T10:03:26Z</time>
   </trkpt>
   <trkpt lat="-3.1089700" lon="37.3788400">
    <ele>4387.8</ele>
    <time>2026-06-23T10:03:27Z</time>
   </trkpt>
   <trkpt lat="-3.1089720" lon="37.3788420">
    <ele>4387.8</ele>
    <time>2026-06-23T10:03:28Z</time>
   </trkpt>
   <trkpt lat="-3.1089750" lon="37.3788450">
    <ele>4387.7</ele>
    <time>2026-06-23T10:03:29Z</time>
   </trkpt>
   <trkpt lat="-3.1089750" lon="37.3788440">
    <ele>4387.6</ele>
    <time>2026-06-23T10:03:30Z</time>
   </trkpt>
   <trkpt lat="-3.1089750" lon="37.3788460">
    <ele>4387.6</ele>
    <time>2026-06-23T10:03:31Z</time>
   </trkpt>
   <trkpt lat="-3.1089760" lon="37.3788460">
    <ele>4387.6</ele>
    <time>2026-06-23T10:03:32Z</time>
   </trkpt>
   <trkpt lat="-3.1089770" lon="37.3788440">
    <ele>4387.5</ele>
    <time>2026-06-23T10:03:33Z</time>
   </trkpt>
   <trkpt lat="-3.1089830" lon="37.3788420">
    <ele>4387.4</ele>
    <time>2026-06-23T10:03:34Z</time>
   </trkpt>
   <trkpt lat="-3.1089880" lon="37.3788400">
    <ele>4387.3</ele>
    <time>2026-06-23T10:03:35Z</time>
   </trkpt>
   <trkpt lat="-3.1089930" lon="37.3788400">
    <ele>4387.1</ele>
    <time>2026-06-23T10:03:36Z</time>
   </trkpt>
   <trkpt lat="-3.1089990" lon="37.3788380">
    <ele>4387.0</ele>
    <time>2026-06-23T10:03:37Z</time>
   </trkpt>
   <trkpt lat="-3.1090010" lon="37.3788340">
    <ele>4386.9</ele>
    <time>2026-06-23T10:03:38Z</time>
   </trkpt>
   <trkpt lat="-3.1090080" lon="37.3788270">
    <ele>4386.7</ele>
    <time>2026-06-23T10:03:39Z</time>
   </trkpt>
   <trkpt lat="-3.1090120" lon="37.3788200">
    <ele>4386.5</ele>
    <time>2026-06-23T10:03:40Z</time>
   </trkpt>
   <trkpt lat="-3.1090150" lon="37.3788180">
    <ele>4386.4</ele>
    <time>2026-06-23T10:03:41Z</time>
   </trkpt>
   <trkpt lat="-3.1090200" lon="37.3788130">
    <ele>4386.3</ele>
    <time>2026-06-23T10:03:42Z</time>
   </trkpt>
   <trkpt lat="-3.1090230" lon="37.3788090">
    <ele>4386.1</ele>
    <time>2026-06-23T10:03:43Z</time>
   </trkpt>
   <trkpt lat="-3.1090270" lon="37.3788060">
    <ele>4386.0</ele>
    <time>2026-06-23T10:03:44Z</time>
   </trkpt>
   <trkpt lat="-3.1090310" lon="37.3788030">
    <ele>4385.9</ele>
    <time>2026-06-23T10:03:45Z</time>
   </trkpt>
   <trkpt lat="-3.1090330" lon="37.3788030">
    <ele>4385.9</ele>
    <time>2026-06-23T10:03:46Z</time>
   </trkpt>
   <trkpt lat="-3.1090390" lon="37.3788010">
    <ele>4385.7</ele>
    <time>2026-06-23T10:03:47Z</time>
   </trkpt>
   <trkpt lat="-3.1090430" lon="37.3788010">
    <ele>4385.6</ele>
    <time>2026-06-23T10:03:48Z</time>
   </trkpt>
   <trkpt lat="-3.1090490" lon="37.3788010">
    <ele>4385.5</ele>
    <time>2026-06-23T10:03:49Z</time>
   </trkpt>
   <trkpt lat="-3.1090550" lon="37.3788020">
    <ele>4385.4</ele>
    <time>2026-06-23T10:03:50Z</time>
   </trkpt>
   <trkpt lat="-3.1090590" lon="37.3788010">
    <ele>4385.3</ele>
    <time>2026-06-23T10:03:51Z</time>
   </trkpt>
   <trkpt lat="-3.1090670" lon="37.3787990">
    <ele>4385.1</ele>
    <time>2026-06-23T10:03:52Z</time>
   </trkpt>
   <trkpt lat="-3.1090800" lon="37.3787940">
    <ele>4384.8</ele>
    <time>2026-06-23T10:03:53Z</time>
   </trkpt>
   <trkpt lat="-3.1090870" lon="37.3787930">
    <ele>4384.6</ele>
    <time>2026-06-23T10:03:54Z</time>
   </trkpt>
   <trkpt lat="-3.1090910" lon="37.3787920">
    <ele>4384.5</ele>
    <time>2026-06-23T10:03:55Z</time>
   </trkpt>
   <trkpt lat="-3.1091010" lon="37.3787900">
    <ele>4384.3</ele>
    <time>2026-06-23T10:03:56Z</time>
   </trkpt>
   <trkpt lat="-3.1091060" lon="37.3787910">
    <ele>4384.2</ele>
    <time>2026-06-23T10:03:57Z</time>
   </trkpt>
   <trkpt lat="-3.1091110" lon="37.3787920">
    <ele>4384.1</ele>
    <time>2026-06-23T10:03:58Z</time>
   </trkpt>
   <trkpt lat="-3.1091190" lon="37.3787920">
    <ele>4383.9</ele>
    <time>2026-06-23T10:03:59Z</time>
   </trkpt>
   <trkpt lat="-3.1091260" lon="37.3787910">
    <ele>4383.7</ele>
    <time>2026-06-23T10:04:00Z</time>
   </trkpt>
   <trkpt lat="-3.1091340" lon="37.3787900">
    <ele>4383.5</ele>
    <time>2026-06-23T10:04:01Z</time>
   </trkpt>
   <trkpt lat="-3.1091380" lon="37.3787910">
    <ele>4383.4</ele>
    <time>2026-06-23T10:04:02Z</time>
   </trkpt>
   <trkpt lat="-3.1091460" lon="37.3787910">
    <ele>4383.3</ele>
    <time>2026-06-23T10:04:03Z</time>
   </trkpt>
   <trkpt lat="-3.1091540" lon="37.3787910">
    <ele>4383.1</ele>
    <time>2026-06-23T10:04:04Z</time>
   </trkpt>
   <trkpt lat="-3.1091600" lon="37.3787900">
    <ele>4382.9</ele>
    <time>2026-06-23T10:04:05Z</time>
   </trkpt>
   <trkpt lat="-3.1091660" lon="37.3787890">
    <ele>4382.8</ele>
    <time>2026-06-23T10:04:06Z</time>
   </trkpt>
   <trkpt lat="-3.1091750" lon="37.3787880">
    <ele>4382.6</ele>
    <time>2026-06-23T10:04:07Z</time>
   </trkpt>
   <trkpt lat="-3.1091790" lon="37.3787860">
    <ele>4382.5</ele>
    <time>2026-06-23T10:04:08Z</time>
   </trkpt>
   <trkpt lat="-3.1091870" lon="37.3787840">
    <ele>4382.3</ele>
    <time>2026-06-23T10:04:09Z</time>
   </trkpt>
   <trkpt lat="-3.1091940" lon="37.3787830">
    <ele>4382.2</ele>
    <time>2026-06-23T10:04:10Z</time>
   </trkpt>
   <trkpt lat="-3.1092030" lon="37.3787800">
    <ele>4382.0</ele>
    <time>2026-06-23T10:04:11Z</time>
   </trkpt>
   <trkpt lat="-3.1092100" lon="37.3787790">
    <ele>4381.8</ele>
    <time>2026-06-23T10:04:12Z</time>
   </trkpt>
   <trkpt lat="-3.1092170" lon="37.3787770">
    <ele>4381.6</ele>
    <time>2026-06-23T10:04:13Z</time>
   </trkpt>
   <trkpt lat="-3.1092250" lon="37.3787770">
    <ele>4381.5</ele>
    <time>2026-06-23T10:04:14Z</time>
   </trkpt>
   <trkpt lat="-3.1092330" lon="37.3787770">
    <ele>4381.3</ele>
    <time>2026-06-23T10:04:15Z</time>
   </trkpt>
   <trkpt lat="-3.1092390" lon="37.3787780">
    <ele>4381.2</ele>
    <time>2026-06-23T10:04:16Z</time>
   </trkpt>
   <trkpt lat="-3.1092470" lon="37.3787820">
    <ele>4381.0</ele>
    <time>2026-06-23T10:04:17Z</time>
   </trkpt>
   <trkpt lat="-3.1092500" lon="37.3787840">
    <ele>4380.9</ele>
    <time>2026-06-23T10:04:18Z</time>
   </trkpt>
   <trkpt lat="-3.1092570" lon="37.3787860">
    <ele>4380.7</ele>
    <time>2026-06-23T10:04:19Z</time>
   </trkpt>
   <trkpt lat="-3.1092590" lon="37.3787870">
    <ele>4380.7</ele>
    <time>2026-06-23T10:04:20Z</time>
   </trkpt>
   <trkpt lat="-3.1092560" lon="37.3787880">
    <ele>4380.6</ele>
    <time>2026-06-23T10:04:21Z</time>
   </trkpt>
   <trkpt lat="-3.1092560" lon="37.3787900">
    <ele>4380.6</ele>
    <time>2026-06-23T10:04:22Z</time>
   </trkpt>
   <trkpt lat="-3.1092630" lon="37.3787860">
    <ele>4380.4</ele>
    <time>2026-06-23T10:04:23Z</time>
   </trkpt>
   <trkpt lat="-3.1092650" lon="37.3787810">
    <ele>4380.3</ele>
    <time>2026-06-23T10:04:24Z</time>
   </trkpt>
   <trkpt lat="-3.1092680" lon="37.3787880">
    <ele>4380.1</ele>
    <time>2026-06-23T10:04:25Z</time>
   </trkpt>
   <trkpt lat="-3.1092710" lon="37.3787850">
    <ele>4380.0</ele>
    <time>2026-06-23T10:04:26Z</time>
   </trkpt>
   <trkpt lat="-3.1092710" lon="37.3787830">
    <ele>4380.0</ele>
    <time>2026-06-23T10:04:27Z</time>
   </trkpt>
   <trkpt lat="-3.1092680" lon="37.3787830">
    <ele>4379.9</ele>
    <time>2026-06-23T10:04:28Z</time>
   </trkpt>
   <trkpt lat="-3.1092680" lon="37.3787810">
    <ele>4379.9</ele>
    <time>2026-06-23T10:04:29Z</time>
   </trkpt>
   <trkpt lat="-3.1092680" lon="37.3787800">
    <ele>4379.8</ele>
    <time>2026-06-23T10:04:30Z</time>
   </trkpt>
   <trkpt lat="-3.1092670" lon="37.3787790">
    <ele>4379.8</ele>
    <time>2026-06-23T10:04:31Z</time>
   </trkpt>
   <trkpt lat="-3.1092680" lon="37.3787790">
    <ele>4379.8</ele>
    <time>2026-06-23T10:04:32Z</time>
   </trkpt>
   <trkpt lat="-3.1092680" lon="37.3787780">
    <ele>4379.8</ele>
    <time>2026-06-23T10:04:33Z</time>
   </trkpt>
   <trkpt lat="-3.1092690" lon="37.3787780">
    <ele>4379.8</ele>
    <time>2026-06-23T10:04:34Z</time>
   </trkpt>
   <trkpt lat="-3.1092690" lon="37.3787780">
    <ele>4379.8</ele>
    <time>2026-06-23T10:04:35Z</time>
   </trkpt>
   <trkpt lat="-3.1092700" lon="37.3787760">
    <ele>4379.7</ele>
    <time>2026-06-23T10:04:36Z</time>
   </trkpt>
   <trkpt lat="-3.1092700" lon="37.3787760">
    <ele>4379.7</ele>
    <time>2026-06-23T10:04:37Z</time>
   </trkpt>
   <trkpt lat="-3.1092720" lon="37.3787770">
    <ele>4379.7</ele>
    <time>2026-06-23T10:04:38Z</time>
   </trkpt>
   <trkpt lat="-3.1092710" lon="37.3787760">
    <ele>4379.6</ele>
    <time>2026-06-23T10:04:39Z</time>
   </trkpt>
   <trkpt lat="-3.1092710" lon="37.3787760">
    <ele>4379.6</ele>
    <time>2026-06-23T10:04:40Z</time>
   </trkpt>
   <trkpt lat="-3.1092740" lon="37.3787760">
    <ele>4379.6</ele>
    <time>2026-06-23T10:04:41Z</time>
   </trkpt>
   <trkpt lat="-3.1092750" lon="37.3787790">
    <ele>4379.5</ele>
    <time>2026-06-23T10:04:42Z</time>
   </trkpt>
   <trkpt lat="-3.1092840" lon="37.3787780">
    <ele>4379.3</ele>
    <time>2026-06-23T10:04:43Z</time>
   </trkpt>
   <trkpt lat="-3.1092900" lon="37.3787780">
    <ele>4379.2</ele>
    <time>2026-06-23T10:04:44Z</time>
   </trkpt>
   <trkpt lat="-3.1092960" lon="37.3787770">
    <ele>4379.1</ele>
    <time>2026-06-23T10:04:45Z</time>
   </trkpt>
   <trkpt lat="-3.1092960" lon="37.3787780">
    <ele>4379.0</ele>
    <time>2026-06-23T10:04:46Z</time>
   </trkpt>
   <trkpt lat="-3.1092960" lon="37.3787770">
    <ele>4379.0</ele>
    <time>2026-06-23T10:04:47Z</time>
   </trkpt>
   <trkpt lat="-3.1093010" lon="37.3787760">
    <ele>4378.9</ele>
    <time>2026-06-23T10:04:48Z</time>
   </trkpt>
   <trkpt lat="-3.1093100" lon="37.3787740">
    <ele>4378.7</ele>
    <time>2026-06-23T10:04:49Z</time>
   </trkpt>
   <trkpt lat="-3.1093150" lon="37.3787750">
    <ele>4378.6</ele>
    <time>2026-06-23T10:04:50Z</time>
   </trkpt>
   <trkpt lat="-3.1093240" lon="37.3787730">
    <ele>4378.4</ele>
    <time>2026-06-23T10:04:51Z</time>
   </trkpt>
   <trkpt lat="-3.1093250" lon="37.3787690">
    <ele>4378.3</ele>
    <time>2026-06-23T10:04:52Z</time>
   </trkpt>
   <trkpt lat="-3.1093280" lon="37.3787660">
    <ele>4378.3</ele>
    <time>2026-06-23T10:04:53Z</time>
   </trkpt>
   <trkpt lat="-3.1093310" lon="37.3787640">
    <ele>4378.2</ele>
    <time>2026-06-23T10:04:54Z</time>
   </trkpt>
   <trkpt lat="-3.1093370" lon="37.3787640">
    <ele>4378.1</ele>
    <time>2026-06-23T10:04:55Z</time>
   </trkpt>
   <trkpt lat="-3.1093430" lon="37.3787630">
    <ele>4377.9</ele>
    <time>2026-06-23T10:04:56Z</time>
   </trkpt>
   <trkpt lat="-3.1093510" lon="37.3787610">
    <ele>4377.8</ele>
    <time>2026-06-23T10:04:57Z</time>
   </trkpt>
   <trkpt lat="-3.1093570" lon="37.3787590">
    <ele>4377.6</ele>
    <time>2026-06-23T10:04:58Z</time>
   </trkpt>
   <trkpt lat="-3.1093630" lon="37.3787560">
    <ele>4377.5</ele>
    <time>2026-06-23T10:04:59Z</time>
   </trkpt>
   <trkpt lat="-3.1093680" lon="37.3787540">
    <ele>4377.4</ele>
    <time>2026-06-23T10:05:00Z</time>
   </trkpt>
   <trkpt lat="-3.1093750" lon="37.3787510">
    <ele>4377.2</ele>
    <time>2026-06-23T10:05:01Z</time>
   </trkpt>
   <trkpt lat="-3.1093790" lon="37.3787490">
    <ele>4377.2</ele>
    <time>2026-06-23T10:05:02Z</time>
   </trkpt>
   <trkpt lat="-3.1093840" lon="37.3787490">
    <ele>4377.0</ele>
    <time>2026-06-23T10:05:03Z</time>
   </trkpt>
   <trkpt lat="-3.1093890" lon="37.3787470">
    <ele>4376.9</ele>
    <time>2026-06-23T10:05:04Z</time>
   </trkpt>
   <trkpt lat="-3.1093940" lon="37.3787460">
    <ele>4376.8</ele>
    <time>2026-06-23T10:05:05Z</time>
   </trkpt>
   <trkpt lat="-3.1094010" lon="37.3787440">
    <ele>4376.7</ele>
    <time>2026-06-23T10:05:06Z</time>
   </trkpt>
   <trkpt lat="-3.1094060" lon="37.3787430">
    <ele>4376.6</ele>
    <time>2026-06-23T10:05:07Z</time>
   </trkpt>
   <trkpt lat="-3.1094140" lon="37.3787410">
    <ele>4376.4</ele>
    <time>2026-06-23T10:05:08Z</time>
   </trkpt>
   <trkpt lat="-3.1094220" lon="37.3787400">
    <ele>4376.3</ele>
    <time>2026-06-23T10:05:09Z</time>
   </trkpt>
   <trkpt lat="-3.1094300" lon="37.3787390">
    <ele>4376.1</ele>
    <time>2026-06-23T10:05:10Z</time>
   </trkpt>
   <trkpt lat="-3.1094380" lon="37.3787370">
    <ele>4376.0</ele>
    <time>2026-06-23T10:05:11Z</time>
   </trkpt>
   <trkpt lat="-3.1094440" lon="37.3787360">
    <ele>4375.9</ele>
    <time>2026-06-23T10:05:12Z</time>
   </trkpt>
   <trkpt lat="-3.1094510" lon="37.3787360">
    <ele>4375.7</ele>
    <time>2026-06-23T10:05:13Z</time>
   </trkpt>
   <trkpt lat="-3.1094600" lon="37.3787360">
    <ele>4375.5</ele>
    <time>2026-06-23T10:05:14Z</time>
   </trkpt>
   <trkpt lat="-3.1094670" lon="37.3787360">
    <ele>4375.4</ele>
    <time>2026-06-23T10:05:15Z</time>
   </trkpt>
   <trkpt lat="-3.1094680" lon="37.3787380">
    <ele>4375.4</ele>
    <time>2026-06-23T10:05:16Z</time>
   </trkpt>
   <trkpt lat="-3.1094790" lon="37.3787370">
    <ele>4375.2</ele>
    <time>2026-06-23T10:05:17Z</time>
   </trkpt>
   <trkpt lat="-3.1094890" lon="37.3787360">
    <ele>4375.0</ele>
    <time>2026-06-23T10:05:18Z</time>
   </trkpt>
   <trkpt lat="-3.1094980" lon="37.3787360">
    <ele>4374.8</ele>
    <time>2026-06-23T10:05:19Z</time>
   </trkpt>
   <trkpt lat="-3.1095060" lon="37.3787360">
    <ele>4374.6</ele>
    <time>2026-06-23T10:05:20Z</time>
   </trkpt>
   <trkpt lat="-3.1095160" lon="37.3787360">
    <ele>4374.4</ele>
    <time>2026-06-23T10:05:22Z</time>
   </trkpt>
   <trkpt lat="-3.1095220" lon="37.3787380">
    <ele>4374.3</ele>
    <time>2026-06-23T10:05:23Z</time>
   </trkpt>
   <trkpt lat="-3.1095300" lon="37.3787390">
    <ele>4374.2</ele>
    <time>2026-06-23T10:05:24Z</time>
   </trkpt>
   <trkpt lat="-3.1095380" lon="37.3787390">
    <ele>4374.0</ele>
    <time>2026-06-23T10:05:25Z</time>
   </trkpt>
   <trkpt lat="-3.1095450" lon="37.3787380">
    <ele>4373.9</ele>
    <time>2026-06-23T10:05:26Z</time>
   </trkpt>
   <trkpt lat="-3.1095500" lon="37.3787390">
    <ele>4373.8</ele>
    <time>2026-06-23T10:05:27Z</time>
   </trkpt>
   <trkpt lat="-3.1095600" lon="37.3787390">
    <ele>4373.6</ele>
    <time>2026-06-23T10:05:28Z</time>
   </trkpt>
   <trkpt lat="-3.1095700" lon="37.3787390">
    <ele>4373.4</ele>
    <time>2026-06-23T10:05:29Z</time>
   </trkpt>
   <trkpt lat="-3.1095760" lon="37.3787380">
    <ele>4373.3</ele>
    <time>2026-06-23T10:05:30Z</time>
   </trkpt>
   <trkpt lat="-3.1095850" lon="37.3787370">
    <ele>4373.1</ele>
    <time>2026-06-23T10:05:31Z</time>
   </trkpt>
   <trkpt lat="-3.1095930" lon="37.3787340">
    <ele>4372.9</ele>
    <time>2026-06-23T10:05:32Z</time>
   </trkpt>
   <trkpt lat="-3.1095980" lon="37.3787310">
    <ele>4372.8</ele>
    <time>2026-06-23T10:05:33Z</time>
   </trkpt>
   <trkpt lat="-3.1095980" lon="37.3787300">
    <ele>4372.8</ele>
    <time>2026-06-23T10:05:34Z</time>
   </trkpt>
   <trkpt lat="-3.1095970" lon="37.3787290">
    <ele>4372.8</ele>
    <time>2026-06-23T10:05:35Z</time>
   </trkpt>
   <trkpt lat="-3.1095980" lon="37.3787290">
    <ele>4372.7</ele>
    <time>2026-06-23T10:05:36Z</time>
   </trkpt>
   <trkpt lat="-3.1096010" lon="37.3787270">
    <ele>4372.7</ele>
    <time>2026-06-23T10:05:37Z</time>
   </trkpt>
   <trkpt lat="-3.1096040" lon="37.3787270">
    <ele>4372.6</ele>
    <time>2026-06-23T10:05:38Z</time>
   </trkpt>
   <trkpt lat="-3.1096030" lon="37.3787280">
    <ele>4372.6</ele>
    <time>2026-06-23T10:05:39Z</time>
   </trkpt>
   <trkpt lat="-3.1096000" lon="37.3787280">
    <ele>4372.5</ele>
    <time>2026-06-23T10:05:40Z</time>
   </trkpt>
   <trkpt lat="-3.1096000" lon="37.3787270">
    <ele>4372.5</ele>
    <time>2026-06-23T10:05:41Z</time>
   </trkpt>
   <trkpt lat="-3.1096000" lon="37.3787260">
    <ele>4372.5</ele>
    <time>2026-06-23T10:05:42Z</time>
   </trkpt>
   <trkpt lat="-3.1096030" lon="37.3787250">
    <ele>4372.4</ele>
    <time>2026-06-23T10:05:43Z</time>
   </trkpt>
   <trkpt lat="-3.1096110" lon="37.3787210">
    <ele>4372.3</ele>
    <time>2026-06-23T10:05:44Z</time>
   </trkpt>
   <trkpt lat="-3.1096150" lon="37.3787170">
    <ele>4372.2</ele>
    <time>2026-06-23T10:05:45Z</time>
   </trkpt>
   <trkpt lat="-3.1096200" lon="37.3787140">
    <ele>4372.0</ele>
    <time>2026-06-23T10:05:46Z</time>
   </trkpt>
   <trkpt lat="-3.1096280" lon="37.3787070">
    <ele>4371.8</ele>
    <time>2026-06-23T10:05:47Z</time>
   </trkpt>
   <trkpt lat="-3.1096300" lon="37.3787060">
    <ele>4371.8</ele>
    <time>2026-06-23T10:05:48Z</time>
   </trkpt>
   <trkpt lat="-3.1096320" lon="37.3787040">
    <ele>4371.7</ele>
    <time>2026-06-23T10:05:49Z</time>
   </trkpt>
   <trkpt lat="-3.1096380" lon="37.3787000">
    <ele>4371.6</ele>
    <time>2026-06-23T10:05:50Z</time>
   </trkpt>
   <trkpt lat="-3.1096410" lon="37.3786980">
    <ele>4371.5</ele>
    <time>2026-06-23T10:05:51Z</time>
   </trkpt>
   <trkpt lat="-3.1096490" lon="37.3786930">
    <ele>4371.3</ele>
    <time>2026-06-23T10:05:52Z</time>
   </trkpt>
   <trkpt lat="-3.1096560" lon="37.3786900">
    <ele>4371.2</ele>
    <time>2026-06-23T10:05:53Z</time>
   </trkpt>
   <trkpt lat="-3.1096640" lon="37.3786890">
    <ele>4371.0</ele>
    <time>2026-06-23T10:05:54Z</time>
   </trkpt>
   <trkpt lat="-3.1096730" lon="37.3786860">
    <ele>4370.8</ele>
    <time>2026-06-23T10:05:55Z</time>
   </trkpt>
   <trkpt lat="-3.1096780" lon="37.3786870">
    <ele>4370.7</ele>
    <time>2026-06-23T10:05:56Z</time>
   </trkpt>
   <trkpt lat="-3.1096920" lon="37.3786740">
    <ele>4370.4</ele>
    <time>2026-06-23T10:05:57Z</time>
   </trkpt>
   <trkpt lat="-3.1096990" lon="37.3786700">
    <ele>4370.2</ele>
    <time>2026-06-23T10:05:58Z</time>
   </trkpt>
   <trkpt lat="-3.1097050" lon="37.3786680">
    <ele>4370.1</ele>
    <time>2026-06-23T10:05:59Z</time>
   </trkpt>
   <trkpt lat="-3.1097130" lon="37.3786650">
    <ele>4369.9</ele>
    <time>2026-06-23T10:06:00Z</time>
   </trkpt>
   <trkpt lat="-3.1097200" lon="37.3786620">
    <ele>4369.7</ele>
    <time>2026-06-23T10:06:01Z</time>
   </trkpt>
   <trkpt lat="-3.1097260" lon="37.3786600">
    <ele>4369.6</ele>
    <time>2026-06-23T10:06:02Z</time>
   </trkpt>
   <trkpt lat="-3.1097330" lon="37.3786590">
    <ele>4369.5</ele>
    <time>2026-06-23T10:06:03Z</time>
   </trkpt>
   <trkpt lat="-3.1097400" lon="37.3786560">
    <ele>4369.3</ele>
    <time>2026-06-23T10:06:04Z</time>
   </trkpt>
   <trkpt lat="-3.1097460" lon="37.3786540">
    <ele>4369.2</ele>
    <time>2026-06-23T10:06:05Z</time>
   </trkpt>
   <trkpt lat="-3.1097530" lon="37.3786520">
    <ele>4369.0</ele>
    <time>2026-06-23T10:06:06Z</time>
   </trkpt>
   <trkpt lat="-3.1097590" lon="37.3786480">
    <ele>4368.9</ele>
    <time>2026-06-23T10:06:07Z</time>
   </trkpt>
   <trkpt lat="-3.1097640" lon="37.3786450">
    <ele>4368.8</ele>
    <time>2026-06-23T10:06:08Z</time>
   </trkpt>
   <trkpt lat="-3.1097710" lon="37.3786420">
    <ele>4368.6</ele>
    <time>2026-06-23T10:06:09Z</time>
   </trkpt>
   <trkpt lat="-3.1097760" lon="37.3786410">
    <ele>4368.5</ele>
    <time>2026-06-23T10:06:10Z</time>
   </trkpt>
   <trkpt lat="-3.1097820" lon="37.3786420">
    <ele>4368.4</ele>
    <time>2026-06-23T10:06:11Z</time>
   </trkpt>
   <trkpt lat="-3.1097880" lon="37.3786390">
    <ele>4368.2</ele>
    <time>2026-06-23T10:06:12Z</time>
   </trkpt>
   <trkpt lat="-3.1097930" lon="37.3786370">
    <ele>4368.1</ele>
    <time>2026-06-23T10:06:13Z</time>
   </trkpt>
   <trkpt lat="-3.1097970" lon="37.3786350">
    <ele>4368.0</ele>
    <time>2026-06-23T10:06:14Z</time>
   </trkpt>
   <trkpt lat="-3.1097970" lon="37.3786350">
    <ele>4368.0</ele>
    <time>2026-06-23T10:06:15Z</time>
   </trkpt>
   <trkpt lat="-3.1097930" lon="37.3786360">
    <ele>4367.9</ele>
    <time>2026-06-23T10:06:16Z</time>
   </trkpt>
   <trkpt lat="-3.1097980" lon="37.3786350">
    <ele>4367.8</ele>
    <time>2026-06-23T10:06:17Z</time>
   </trkpt>
   <trkpt lat="-3.1098060" lon="37.3786330">
    <ele>4367.6</ele>
    <time>2026-06-23T10:06:18Z</time>
   </trkpt>
   <trkpt lat="-3.1098120" lon="37.3786290">
    <ele>4367.5</ele>
    <time>2026-06-23T10:06:19Z</time>
   </trkpt>
   <trkpt lat="-3.1098190" lon="37.3786250">
    <ele>4367.3</ele>
    <time>2026-06-23T10:06:20Z</time>
   </trkpt>
   <trkpt lat="-3.1098270" lon="37.3786240">
    <ele>4367.1</ele>
    <time>2026-06-23T10:06:21Z</time>
   </trkpt>
   <trkpt lat="-3.1098340" lon="37.3786230">
    <ele>4367.0</ele>
    <time>2026-06-23T10:06:22Z</time>
   </trkpt>
   <trkpt lat="-3.1098400" lon="37.3786240">
    <ele>4366.8</ele>
    <time>2026-06-23T10:06:23Z</time>
   </trkpt>
   <trkpt lat="-3.1098480" lon="37.3786240">
    <ele>4366.6</ele>
    <time>2026-06-23T10:06:24Z</time>
   </trkpt>
   <trkpt lat="-3.1098540" lon="37.3786230">
    <ele>4366.5</ele>
    <time>2026-06-23T10:06:25Z</time>
   </trkpt>
   <trkpt lat="-3.1098590" lon="37.3786200">
    <ele>4366.4</ele>
    <time>2026-06-23T10:06:26Z</time>
   </trkpt>
   <trkpt lat="-3.1098650" lon="37.3786160">
    <ele>4366.2</ele>
    <time>2026-06-23T10:06:27Z</time>
   </trkpt>
   <trkpt lat="-3.1098760" lon="37.3786160">
    <ele>4365.9</ele>
    <time>2026-06-23T10:06:28Z</time>
   </trkpt>
   <trkpt lat="-3.1098790" lon="37.3786160">
    <ele>4365.9</ele>
    <time>2026-06-23T10:06:29Z</time>
   </trkpt>
   <trkpt lat="-3.1098830" lon="37.3786160">
    <ele>4365.8</ele>
    <time>2026-06-23T10:06:30Z</time>
   </trkpt>
   <trkpt lat="-3.1098930" lon="37.3786160">
    <ele>4365.6</ele>
    <time>2026-06-23T10:06:31Z</time>
   </trkpt>
   <trkpt lat="-3.1099010" lon="37.3786140">
    <ele>4365.4</ele>
    <time>2026-06-23T10:06:32Z</time>
   </trkpt>
   <trkpt lat="-3.1099070" lon="37.3786110">
    <ele>4365.2</ele>
    <time>2026-06-23T10:06:33Z</time>
   </trkpt>
   <trkpt lat="-3.1099130" lon="37.3786090">
    <ele>4365.1</ele>
    <time>2026-06-23T10:06:34Z</time>
   </trkpt>
   <trkpt lat="-3.1099200" lon="37.3786090">
    <ele>4364.9</ele>
    <time>2026-06-23T10:06:35Z</time>
   </trkpt>
   <trkpt lat="-3.1099260" lon="37.3786090">
    <ele>4364.8</ele>
    <time>2026-06-23T10:06:36Z</time>
   </trkpt>
   <trkpt lat="-3.1099330" lon="37.3786090">
    <ele>4364.6</ele>
    <time>2026-06-23T10:06:37Z</time>
   </trkpt>
   <trkpt lat="-3.1099400" lon="37.3786110">
    <ele>4364.4</ele>
    <time>2026-06-23T10:06:38Z</time>
   </trkpt>
   <trkpt lat="-3.1099460" lon="37.3786120">
    <ele>4364.3</ele>
    <time>2026-06-23T10:06:39Z</time>
   </trkpt>
   <trkpt lat="-3.1099530" lon="37.3786120">
    <ele>4364.1</ele>
    <time>2026-06-23T10:06:40Z</time>
   </trkpt>
   <trkpt lat="-3.1099620" lon="37.3786120">
    <ele>4363.9</ele>
    <time>2026-06-23T10:06:41Z</time>
   </trkpt>
   <trkpt lat="-3.1099680" lon="37.3786110">
    <ele>4363.7</ele>
    <time>2026-06-23T10:06:42Z</time>
   </trkpt>
   <trkpt lat="-3.1099750" lon="37.3786100">
    <ele>4363.6</ele>
    <time>2026-06-23T10:06:43Z</time>
   </trkpt>
   <trkpt lat="-3.1099810" lon="37.3786090">
    <ele>4363.4</ele>
    <time>2026-06-23T10:06:44Z</time>
   </trkpt>
   <trkpt lat="-3.1099910" lon="37.3786080">
    <ele>4363.2</ele>
    <time>2026-06-23T10:06:45Z</time>
   </trkpt>
   <trkpt lat="-3.1099970" lon="37.3786080">
    <ele>4363.0</ele>
    <time>2026-06-23T10:06:46Z</time>
   </trkpt>
   <trkpt lat="-3.1100040" lon="37.3786070">
    <ele>4362.9</ele>
    <time>2026-06-23T10:06:47Z</time>
   </trkpt>
   <trkpt lat="-3.1100110" lon="37.3786060">
    <ele>4362.7</ele>
    <time>2026-06-23T10:06:48Z</time>
   </trkpt>
   <trkpt lat="-3.1100170" lon="37.3786050">
    <ele>4362.6</ele>
    <time>2026-06-23T10:06:49Z</time>
   </trkpt>
   <trkpt lat="-3.1100240" lon="37.3786070">
    <ele>4362.4</ele>
    <time>2026-06-23T10:06:50Z</time>
   </trkpt>
   <trkpt lat="-3.1100300" lon="37.3786080">
    <ele>4362.2</ele>
    <time>2026-06-23T10:06:51Z</time>
   </trkpt>
   <trkpt lat="-3.1100400" lon="37.3786080">
    <ele>4362.0</ele>
    <time>2026-06-23T10:06:52Z</time>
   </trkpt>
   <trkpt lat="-3.1100440" lon="37.3786080">
    <ele>4361.9</ele>
    <time>2026-06-23T10:06:53Z</time>
   </trkpt>
   <trkpt lat="-3.1100500" lon="37.3786090">
    <ele>4361.8</ele>
    <time>2026-06-23T10:06:54Z</time>
   </trkpt>
   <trkpt lat="-3.1100540" lon="37.3786100">
    <ele>4361.7</ele>
    <time>2026-06-23T10:06:55Z</time>
   </trkpt>
   <trkpt lat="-3.1100490" lon="37.3786070">
    <ele>4361.5</ele>
    <time>2026-06-23T10:06:56Z</time>
   </trkpt>
   <trkpt lat="-3.1100510" lon="37.3786070">
    <ele>4361.5</ele>
    <time>2026-06-23T10:06:57Z</time>
   </trkpt>
   <trkpt lat="-3.1100550" lon="37.3786070">
    <ele>4361.4</ele>
    <time>2026-06-23T10:06:58Z</time>
   </trkpt>
   <trkpt lat="-3.1100530" lon="37.3786070">
    <ele>4361.3</ele>
    <time>2026-06-23T10:06:59Z</time>
   </trkpt>
   <trkpt lat="-3.1100590" lon="37.3786020">
    <ele>4361.2</ele>
    <time>2026-06-23T10:07:00Z</time>
   </trkpt>
   <trkpt lat="-3.1100600" lon="37.3786040">
    <ele>4361.1</ele>
    <time>2026-06-23T10:07:01Z</time>
   </trkpt>
   <trkpt lat="-3.1100580" lon="37.3786050">
    <ele>4361.0</ele>
    <time>2026-06-23T10:07:02Z</time>
   </trkpt>
   <trkpt lat="-3.1100630" lon="37.3786010">
    <ele>4360.9</ele>
    <time>2026-06-23T10:07:03Z</time>
   </trkpt>
   <trkpt lat="-3.1100710" lon="37.3786010">
    <ele>4360.7</ele>
    <time>2026-06-23T10:07:04Z</time>
   </trkpt>
   <trkpt lat="-3.1100740" lon="37.3786010">
    <ele>4360.6</ele>
    <time>2026-06-23T10:07:05Z</time>
   </trkpt>
   <trkpt lat="-3.1100760" lon="37.3786000">
    <ele>4360.6</ele>
    <time>2026-06-23T10:07:06Z</time>
   </trkpt>
   <trkpt lat="-3.1100750" lon="37.3786020">
    <ele>4360.5</ele>
    <time>2026-06-23T10:07:07Z</time>
   </trkpt>
   <trkpt lat="-3.1100790" lon="37.3786020">
    <ele>4360.4</ele>
    <time>2026-06-23T10:07:08Z</time>
   </trkpt>
   <trkpt lat="-3.1100770" lon="37.3786020">
    <ele>4360.4</ele>
    <time>2026-06-23T10:07:09Z</time>
   </trkpt>
   <trkpt lat="-3.1100770" lon="37.3786030">
    <ele>4360.4</ele>
    <time>2026-06-23T10:07:10Z</time>
   </trkpt>
   <trkpt lat="-3.1100770" lon="37.3786030">
    <ele>4360.4</ele>
    <time>2026-06-23T10:07:11Z</time>
   </trkpt>
   <trkpt lat="-3.1100760" lon="37.3786030">
    <ele>4360.3</ele>
    <time>2026-06-23T10:07:12Z</time>
   </trkpt>
   <trkpt lat="-3.1100750" lon="37.3786020">
    <ele>4360.3</ele>
    <time>2026-06-23T10:07:13Z</time>
   </trkpt>
   <trkpt lat="-3.1100750" lon="37.3786000">
    <ele>4360.3</ele>
    <time>2026-06-23T10:07:14Z</time>
   </trkpt>
   <trkpt lat="-3.1100770" lon="37.3786020">
    <ele>4360.2</ele>
    <time>2026-06-23T10:07:15Z</time>
   </trkpt>
   <trkpt lat="-3.1100770" lon="37.3786020">
    <ele>4360.2</ele>
    <time>2026-06-23T10:07:16Z</time>
   </trkpt>
   <trkpt lat="-3.1100790" lon="37.3785990">
    <ele>4360.1</ele>
    <time>2026-06-23T10:07:17Z</time>
   </trkpt>
   <trkpt lat="-3.1100770" lon="37.3785990">
    <ele>4360.1</ele>
    <time>2026-06-23T10:07:18Z</time>
   </trkpt>
   <trkpt lat="-3.1100810" lon="37.3786010">
    <ele>4359.9</ele>
    <time>2026-06-23T10:07:19Z</time>
   </trkpt>
   <trkpt lat="-3.1100870" lon="37.3786040">
    <ele>4359.8</ele>
    <time>2026-06-23T10:07:20Z</time>
   </trkpt>
   <trkpt lat="-3.1100870" lon="37.3786070">
    <ele>4359.7</ele>
    <time>2026-06-23T10:07:21Z</time>
   </trkpt>
   <trkpt lat="-3.1100880" lon="37.3786030">
    <ele>4359.6</ele>
    <time>2026-06-23T10:07:22Z</time>
   </trkpt>
   <trkpt lat="-3.1100880" lon="37.3786020">
    <ele>4359.6</ele>
    <time>2026-06-23T10:07:23Z</time>
   </trkpt>
   <trkpt lat="-3.1100870" lon="37.3786010">
    <ele>4359.6</ele>
    <time>2026-06-23T10:07:24Z</time>
   </trkpt>
   <trkpt lat="-3.1100870" lon="37.3785970">
    <ele>4359.5</ele>
    <time>2026-06-23T10:07:25Z</time>
   </trkpt>
   <trkpt lat="-3.1100900" lon="37.3785980">
    <ele>4359.4</ele>
    <time>2026-06-23T10:07:26Z</time>
   </trkpt>
   <trkpt lat="-3.1100950" lon="37.3785980">
    <ele>4359.3</ele>
    <time>2026-06-23T10:07:28Z</time>
   </trkpt>
   <trkpt lat="-3.1100950" lon="37.3785940">
    <ele>4359.2</ele>
    <time>2026-06-23T10:07:29Z</time>
   </trkpt>
   <trkpt lat="-3.1100960" lon="37.3785920">
    <ele>4359.1</ele>
    <time>2026-06-23T10:07:30Z</time>
   </trkpt>
   <trkpt lat="-3.1101030" lon="37.3785920">
    <ele>4359.0</ele>
    <time>2026-06-23T10:07:31Z</time>
   </trkpt>
   <trkpt lat="-3.1101100" lon="37.3785930">
    <ele>4358.8</ele>
    <time>2026-06-23T10:07:32Z</time>
   </trkpt>
   <trkpt lat="-3.1101200" lon="37.3785900">
    <ele>4358.6</ele>
    <time>2026-06-23T10:07:33Z</time>
   </trkpt>
   <trkpt lat="-3.1101250" lon="37.3785880">
    <ele>4358.4</ele>
    <time>2026-06-23T10:07:34Z</time>
   </trkpt>
   <trkpt lat="-3.1101200" lon="37.3785890">
    <ele>4358.3</ele>
    <time>2026-06-23T10:07:35Z</time>
   </trkpt>
   <trkpt lat="-3.1101190" lon="37.3785880">
    <ele>4358.3</ele>
    <time>2026-06-23T10:07:36Z</time>
   </trkpt>
   <trkpt lat="-3.1101190" lon="37.3785890">
    <ele>4358.3</ele>
    <time>2026-06-23T10:07:37Z</time>
   </trkpt>
   <trkpt lat="-3.1101190" lon="37.3785900">
    <ele>4358.2</ele>
    <time>2026-06-23T10:07:38Z</time>
   </trkpt>
   <trkpt lat="-3.1101200" lon="37.3785900">
    <ele>4358.2</ele>
    <time>2026-06-23T10:07:39Z</time>
   </trkpt>
   <trkpt lat="-3.1101200" lon="37.3785900">
    <ele>4358.2</ele>
    <time>2026-06-23T10:07:40Z</time>
   </trkpt>
   <trkpt lat="-3.1101250" lon="37.3785900">
    <ele>4358.1</ele>
    <time>2026-06-23T10:07:41Z</time>
   </trkpt>
   <trkpt lat="-3.1101260" lon="37.3785900">
    <ele>4358.1</ele>
    <time>2026-06-23T10:07:42Z</time>
   </trkpt>
   <trkpt lat="-3.1101320" lon="37.3785910">
    <ele>4357.9</ele>
    <time>2026-06-23T10:07:43Z</time>
   </trkpt>
   <trkpt lat="-3.1101380" lon="37.3785900">
    <ele>4357.8</ele>
    <time>2026-06-23T10:07:44Z</time>
   </trkpt>
   <trkpt lat="-3.1101430" lon="37.3785900">
    <ele>4357.7</ele>
    <time>2026-06-23T10:07:45Z</time>
   </trkpt>
   <trkpt lat="-3.1101490" lon="37.3785900">
    <ele>4357.5</ele>
    <time>2026-06-23T10:07:46Z</time>
   </trkpt>
   <trkpt lat="-3.1101540" lon="37.3785920">
    <ele>4357.4</ele>
    <time>2026-06-23T10:07:47Z</time>
   </trkpt>
   <trkpt lat="-3.1101600" lon="37.3785930">
    <ele>4357.3</ele>
    <time>2026-06-23T10:07:48Z</time>
   </trkpt>
   <trkpt lat="-3.1101650" lon="37.3785930">
    <ele>4357.1</ele>
    <time>2026-06-23T10:07:49Z</time>
   </trkpt>
   <trkpt lat="-3.1101690" lon="37.3785950">
    <ele>4357.0</ele>
    <time>2026-06-23T10:07:50Z</time>
   </trkpt>
   <trkpt lat="-3.1101770" lon="37.3785960">
    <ele>4356.9</ele>
    <time>2026-06-23T10:07:51Z</time>
   </trkpt>
   <trkpt lat="-3.1101870" lon="37.3785970">
    <ele>4356.6</ele>
    <time>2026-06-23T10:07:52Z</time>
   </trkpt>
   <trkpt lat="-3.1101920" lon="37.3785980">
    <ele>4356.5</ele>
    <time>2026-06-23T10:07:53Z</time>
   </trkpt>
   <trkpt lat="-3.1101980" lon="37.3785960">
    <ele>4356.4</ele>
    <time>2026-06-23T10:07:54Z</time>
   </trkpt>
   <trkpt lat="-3.1102040" lon="37.3785920">
    <ele>4356.2</ele>
    <time>2026-06-23T10:07:55Z</time>
   </trkpt>
   <trkpt lat="-3.1102120" lon="37.3785900">
    <ele>4356.1</ele>
    <time>2026-06-23T10:07:56Z</time>
   </trkpt>
   <trkpt lat="-3.1102270" lon="37.3785920">
    <ele>4355.7</ele>
    <time>2026-06-23T10:07:57Z</time>
   </trkpt>
   <trkpt lat="-3.1102350" lon="37.3785920">
    <ele>4355.5</ele>
    <time>2026-06-23T10:07:58Z</time>
   </trkpt>
   <trkpt lat="-3.1102420" lon="37.3785920">
    <ele>4355.4</ele>
    <time>2026-06-23T10:07:59Z</time>
   </trkpt>
   <trkpt lat="-3.1102480" lon="37.3785900">
    <ele>4355.2</ele>
    <time>2026-06-23T10:08:00Z</time>
   </trkpt>
   <trkpt lat="-3.1102530" lon="37.3785880">
    <ele>4355.1</ele>
    <time>2026-06-23T10:08:01Z</time>
   </trkpt>
   <trkpt lat="-3.1102580" lon="37.3785860">
    <ele>4355.0</ele>
    <time>2026-06-23T10:08:02Z</time>
   </trkpt>
   <trkpt lat="-3.1102660" lon="37.3785840">
    <ele>4354.8</ele>
    <time>2026-06-23T10:08:03Z</time>
   </trkpt>
   <trkpt lat="-3.1102710" lon="37.3785810">
    <ele>4354.7</ele>
    <time>2026-06-23T10:08:04Z</time>
   </trkpt>
   <trkpt lat="-3.1102780" lon="37.3785780">
    <ele>4354.5</ele>
    <time>2026-06-23T10:08:05Z</time>
   </trkpt>
   <trkpt lat="-3.1102820" lon="37.3785780">
    <ele>4354.4</ele>
    <time>2026-06-23T10:08:06Z</time>
   </trkpt>
   <trkpt lat="-3.1102880" lon="37.3785780">
    <ele>4354.3</ele>
    <time>2026-06-23T10:08:07Z</time>
   </trkpt>
   <trkpt lat="-3.1102940" lon="37.3785790">
    <ele>4354.2</ele>
    <time>2026-06-23T10:08:08Z</time>
   </trkpt>
   <trkpt lat="-3.1103000" lon="37.3785830">
    <ele>4354.0</ele>
    <time>2026-06-23T10:08:09Z</time>
   </trkpt>
   <trkpt lat="-3.1103080" lon="37.3785850">
    <ele>4353.8</ele>
    <time>2026-06-23T10:08:10Z</time>
   </trkpt>
   <trkpt lat="-3.1103150" lon="37.3785830">
    <ele>4353.7</ele>
    <time>2026-06-23T10:08:11Z</time>
   </trkpt>
   <trkpt lat="-3.1103220" lon="37.3785820">
    <ele>4353.5</ele>
    <time>2026-06-23T10:08:12Z</time>
   </trkpt>
   <trkpt lat="-3.1103300" lon="37.3785790">
    <ele>4353.3</ele>
    <time>2026-06-23T10:08:13Z</time>
   </trkpt>
   <trkpt lat="-3.1103360" lon="37.3785780">
    <ele>4353.2</ele>
    <time>2026-06-23T10:08:14Z</time>
   </trkpt>
   <trkpt lat="-3.1103430" lon="37.3785750">
    <ele>4353.0</ele>
    <time>2026-06-23T10:08:15Z</time>
   </trkpt>
   <trkpt lat="-3.1103510" lon="37.3785730">
    <ele>4352.9</ele>
    <time>2026-06-23T10:08:16Z</time>
   </trkpt>
   <trkpt lat="-3.1103570" lon="37.3785720">
    <ele>4352.7</ele>
    <time>2026-06-23T10:08:17Z</time>
   </trkpt>
   <trkpt lat="-3.1103610" lon="37.3785710">
    <ele>4352.6</ele>
    <time>2026-06-23T10:08:18Z</time>
   </trkpt>
   <trkpt lat="-3.1103690" lon="37.3785710">
    <ele>4352.5</ele>
    <time>2026-06-23T10:08:19Z</time>
   </trkpt>
   <trkpt lat="-3.1103770" lon="37.3785690">
    <ele>4352.3</ele>
    <time>2026-06-23T10:08:20Z</time>
   </trkpt>
   <trkpt lat="-3.1103830" lon="37.3785660">
    <ele>4352.1</ele>
    <time>2026-06-23T10:08:21Z</time>
   </trkpt>
   <trkpt lat="-3.1103900" lon="37.3785650">
    <ele>4352.0</ele>
    <time>2026-06-23T10:08:22Z</time>
   </trkpt>
   <trkpt lat="-3.1103970" lon="37.3785640">
    <ele>4351.8</ele>
    <time>2026-06-23T10:08:23Z</time>
   </trkpt>
   <trkpt lat="-3.1104050" lon="37.3785640">
    <ele>4351.7</ele>
    <time>2026-06-23T10:08:24Z</time>
   </trkpt>
   <trkpt lat="-3.1104130" lon="37.3785630">
    <ele>4351.5</ele>
    <time>2026-06-23T10:08:25Z</time>
   </trkpt>
   <trkpt lat="-3.1104190" lon="37.3785610">
    <ele>4351.4</ele>
    <time>2026-06-23T10:08:26Z</time>
   </trkpt>
   <trkpt lat="-3.1104260" lon="37.3785610">
    <ele>4351.2</ele>
    <time>2026-06-23T10:08:27Z</time>
   </trkpt>
   <trkpt lat="-3.1104340" lon="37.3785610">
    <ele>4351.1</ele>
    <time>2026-06-23T10:08:28Z</time>
   </trkpt>
   <trkpt lat="-3.1104370" lon="37.3785620">
    <ele>4351.0</ele>
    <time>2026-06-23T10:08:29Z</time>
   </trkpt>
   <trkpt lat="-3.1104430" lon="37.3785600">
    <ele>4350.9</ele>
    <time>2026-06-23T10:08:30Z</time>
   </trkpt>
   <trkpt lat="-3.1104560" lon="37.3785600">
    <ele>4350.6</ele>
    <time>2026-06-23T10:08:31Z</time>
   </trkpt>
   <trkpt lat="-3.1104640" lon="37.3785600">
    <ele>4350.4</ele>
    <time>2026-06-23T10:08:32Z</time>
   </trkpt>
   <trkpt lat="-3.1104730" lon="37.3785590">
    <ele>4350.2</ele>
    <time>2026-06-23T10:08:33Z</time>
   </trkpt>
   <trkpt lat="-3.1104810" lon="37.3785580">
    <ele>4350.1</ele>
    <time>2026-06-23T10:08:34Z</time>
   </trkpt>
   <trkpt lat="-3.1104900" lon="37.3785570">
    <ele>4349.9</ele>
    <time>2026-06-23T10:08:35Z</time>
   </trkpt>
   <trkpt lat="-3.1104970" lon="37.3785550">
    <ele>4349.7</ele>
    <time>2026-06-23T10:08:36Z</time>
   </trkpt>
   <trkpt lat="-3.1105050" lon="37.3785530">
    <ele>4349.5</ele>
    <time>2026-06-23T10:08:37Z</time>
   </trkpt>
   <trkpt lat="-3.1105130" lon="37.3785510">
    <ele>4349.4</ele>
    <time>2026-06-23T10:08:38Z</time>
   </trkpt>
   <trkpt lat="-3.1105210" lon="37.3785490">
    <ele>4349.2</ele>
    <time>2026-06-23T10:08:39Z</time>
   </trkpt>
   <trkpt lat="-3.1105270" lon="37.3785450">
    <ele>4349.1</ele>
    <time>2026-06-23T10:08:40Z</time>
   </trkpt>
   <trkpt lat="-3.1105350" lon="37.3785410">
    <ele>4348.9</ele>
    <time>2026-06-23T10:08:41Z</time>
   </trkpt>
   <trkpt lat="-3.1105390" lon="37.3785400">
    <ele>4348.8</ele>
    <time>2026-06-23T10:08:42Z</time>
   </trkpt>
   <trkpt lat="-3.1105470" lon="37.3785380">
    <ele>4348.6</ele>
    <time>2026-06-23T10:08:43Z</time>
   </trkpt>
   <trkpt lat="-3.1105550" lon="37.3785380">
    <ele>4348.5</ele>
    <time>2026-06-23T10:08:44Z</time>
   </trkpt>
   <trkpt lat="-3.1105630" lon="37.3785360">
    <ele>4348.3</ele>
    <time>2026-06-23T10:08:45Z</time>
   </trkpt>
   <trkpt lat="-3.1105730" lon="37.3785340">
    <ele>4348.1</ele>
    <time>2026-06-23T10:08:46Z</time>
   </trkpt>
   <trkpt lat="-3.1105840" lon="37.3785320">
    <ele>4347.8</ele>
    <time>2026-06-23T10:08:47Z</time>
   </trkpt>
   <trkpt lat="-3.1105880" lon="37.3785320">
    <ele>4347.8</ele>
    <time>2026-06-23T10:08:48Z</time>
   </trkpt>
   <trkpt lat="-3.1105980" lon="37.3785320">
    <ele>4347.6</ele>
    <time>2026-06-23T10:08:49Z</time>
   </trkpt>
   <trkpt lat="-3.1106090" lon="37.3785330">
    <ele>4347.3</ele>
    <time>2026-06-23T10:08:50Z</time>
   </trkpt>
   <trkpt lat="-3.1106150" lon="37.3785320">
    <ele>4347.2</ele>
    <time>2026-06-23T10:08:51Z</time>
   </trkpt>
   <trkpt lat="-3.1106250" lon="37.3785300">
    <ele>4347.0</ele>
    <time>2026-06-23T10:08:52Z</time>
   </trkpt>
   <trkpt lat="-3.1106330" lon="37.3785280">
    <ele>4346.8</ele>
    <time>2026-06-23T10:08:53Z</time>
   </trkpt>
   <trkpt lat="-3.1106400" lon="37.3785260">
    <ele>4346.7</ele>
    <time>2026-06-23T10:08:54Z</time>
   </trkpt>
   <trkpt lat="-3.1106440" lon="37.3785250">
    <ele>4346.6</ele>
    <time>2026-06-23T10:08:55Z</time>
   </trkpt>
   <trkpt lat="-3.1106510" lon="37.3785210">
    <ele>4346.4</ele>
    <time>2026-06-23T10:08:56Z</time>
   </trkpt>
   <trkpt lat="-3.1106580" lon="37.3785200">
    <ele>4346.3</ele>
    <time>2026-06-23T10:08:57Z</time>
   </trkpt>
   <trkpt lat="-3.1106660" lon="37.3785200">
    <ele>4346.1</ele>
    <time>2026-06-23T10:08:58Z</time>
   </trkpt>
   <trkpt lat="-3.1106750" lon="37.3785210">
    <ele>4345.9</ele>
    <time>2026-06-23T10:08:59Z</time>
   </trkpt>
   <trkpt lat="-3.1106840" lon="37.3785210">
    <ele>4345.7</ele>
    <time>2026-06-23T10:09:00Z</time>
   </trkpt>
   <trkpt lat="-3.1106910" lon="37.3785190">
    <ele>4345.6</ele>
    <time>2026-06-23T10:09:01Z</time>
   </trkpt>
   <trkpt lat="-3.1106940" lon="37.3785200">
    <ele>4345.5</ele>
    <time>2026-06-23T10:09:02Z</time>
   </trkpt>
   <trkpt lat="-3.1107020" lon="37.3785250">
    <ele>4345.3</ele>
    <time>2026-06-23T10:09:03Z</time>
   </trkpt>
   <trkpt lat="-3.1107080" lon="37.3785300">
    <ele>4345.2</ele>
    <time>2026-06-23T10:09:04Z</time>
   </trkpt>
   <trkpt lat="-3.1107170" lon="37.3785310">
    <ele>4345.0</ele>
    <time>2026-06-23T10:09:05Z</time>
   </trkpt>
   <trkpt lat="-3.1107270" lon="37.3785330">
    <ele>4344.8</ele>
    <time>2026-06-23T10:09:06Z</time>
   </trkpt>
   <trkpt lat="-3.1107310" lon="37.3785330">
    <ele>4344.7</ele>
    <time>2026-06-23T10:09:07Z</time>
   </trkpt>
   <trkpt lat="-3.1107400" lon="37.3785360">
    <ele>4344.5</ele>
    <time>2026-06-23T10:09:08Z</time>
   </trkpt>
   <trkpt lat="-3.1107470" lon="37.3785380">
    <ele>4344.4</ele>
    <time>2026-06-23T10:09:09Z</time>
   </trkpt>
   <trkpt lat="-3.1107550" lon="37.3785420">
    <ele>4344.2</ele>
    <time>2026-06-23T10:09:10Z</time>
   </trkpt>
   <trkpt lat="-3.1107590" lon="37.3785450">
    <ele>4344.1</ele>
    <time>2026-06-23T10:09:11Z</time>
   </trkpt>
   <trkpt lat="-3.1107650" lon="37.3785470">
    <ele>4343.9</ele>
    <time>2026-06-23T10:09:12Z</time>
   </trkpt>
   <trkpt lat="-3.1107730" lon="37.3785480">
    <ele>4343.8</ele>
    <time>2026-06-23T10:09:13Z</time>
   </trkpt>
   <trkpt lat="-3.1107780" lon="37.3785500">
    <ele>4343.7</ele>
    <time>2026-06-23T10:09:14Z</time>
   </trkpt>
   <trkpt lat="-3.1107820" lon="37.3785490">
    <ele>4343.6</ele>
    <time>2026-06-23T10:09:15Z</time>
   </trkpt>
   <trkpt lat="-3.1107930" lon="37.3785530">
    <ele>4343.3</ele>
    <time>2026-06-23T10:09:16Z</time>
   </trkpt>
   <trkpt lat="-3.1107980" lon="37.3785550">
    <ele>4343.2</ele>
    <time>2026-06-23T10:09:17Z</time>
   </trkpt>
   <trkpt lat="-3.1108030" lon="37.3785580">
    <ele>4343.1</ele>
    <time>2026-06-23T10:09:18Z</time>
   </trkpt>
   <trkpt lat="-3.1108120" lon="37.3785580">
    <ele>4342.9</ele>
    <time>2026-06-23T10:09:19Z</time>
   </trkpt>
   <trkpt lat="-3.1108200" lon="37.3785590">
    <ele>4342.8</ele>
    <time>2026-06-23T10:09:20Z</time>
   </trkpt>
   <trkpt lat="-3.1108300" lon="37.3785600">
    <ele>4342.6</ele>
    <time>2026-06-23T10:09:21Z</time>
   </trkpt>
   <trkpt lat="-3.1108380" lon="37.3785640">
    <ele>4342.4</ele>
    <time>2026-06-23T10:09:22Z</time>
   </trkpt>
   <trkpt lat="-3.1108420" lon="37.3785650">
    <ele>4342.3</ele>
    <time>2026-06-23T10:09:23Z</time>
   </trkpt>
   <trkpt lat="-3.1108480" lon="37.3785680">
    <ele>4342.1</ele>
    <time>2026-06-23T10:09:24Z</time>
   </trkpt>
   <trkpt lat="-3.1108550" lon="37.3785740">
    <ele>4341.9</ele>
    <time>2026-06-23T10:09:25Z</time>
   </trkpt>
   <trkpt lat="-3.1108600" lon="37.3785810">
    <ele>4341.8</ele>
    <time>2026-06-23T10:09:26Z</time>
   </trkpt>
   <trkpt lat="-3.1108680" lon="37.3785850">
    <ele>4341.6</ele>
    <time>2026-06-23T10:09:27Z</time>
   </trkpt>
   <trkpt lat="-3.1108750" lon="37.3785920">
    <ele>4341.3</ele>
    <time>2026-06-23T10:09:28Z</time>
   </trkpt>
   <trkpt lat="-3.1108790" lon="37.3785980">
    <ele>4341.2</ele>
    <time>2026-06-23T10:09:29Z</time>
   </trkpt>
   <trkpt lat="-3.1108850" lon="37.3786020">
    <ele>4341.0</ele>
    <time>2026-06-23T10:09:30Z</time>
   </trkpt>
   <trkpt lat="-3.1108930" lon="37.3786070">
    <ele>4340.8</ele>
    <time>2026-06-23T10:09:31Z</time>
   </trkpt>
   <trkpt lat="-3.1109030" lon="37.3786100">
    <ele>4340.6</ele>
    <time>2026-06-23T10:09:32Z</time>
   </trkpt>
   <trkpt lat="-3.1109100" lon="37.3786140">
    <ele>4340.4</ele>
    <time>2026-06-23T10:09:34Z</time>
   </trkpt>
   <trkpt lat="-3.1109160" lon="37.3786180">
    <ele>4340.3</ele>
    <time>2026-06-23T10:09:35Z</time>
   </trkpt>
   <trkpt lat="-3.1109230" lon="37.3786180">
    <ele>4340.1</ele>
    <time>2026-06-23T10:09:36Z</time>
   </trkpt>
   <trkpt lat="-3.1109310" lon="37.3786180">
    <ele>4339.9</ele>
    <time>2026-06-23T10:09:37Z</time>
   </trkpt>
   <trkpt lat="-3.1109390" lon="37.3786200">
    <ele>4339.8</ele>
    <time>2026-06-23T10:09:38Z</time>
   </trkpt>
   <trkpt lat="-3.1109460" lon="37.3786220">
    <ele>4339.6</ele>
    <time>2026-06-23T10:09:39Z</time>
   </trkpt>
   <trkpt lat="-3.1109530" lon="37.3786250">
    <ele>4339.4</ele>
    <time>2026-06-23T10:09:40Z</time>
   </trkpt>
   <trkpt lat="-3.1109590" lon="37.3786280">
    <ele>4339.3</ele>
    <time>2026-06-23T10:09:41Z</time>
   </trkpt>
   <trkpt lat="-3.1109650" lon="37.3786330">
    <ele>4339.1</ele>
    <time>2026-06-23T10:09:42Z</time>
   </trkpt>
   <trkpt lat="-3.1109700" lon="37.3786380">
    <ele>4339.0</ele>
    <time>2026-06-23T10:09:43Z</time>
   </trkpt>
   <trkpt lat="-3.1109760" lon="37.3786420">
    <ele>4338.8</ele>
    <time>2026-06-23T10:09:44Z</time>
   </trkpt>
   <trkpt lat="-3.1109820" lon="37.3786440">
    <ele>4338.7</ele>
    <time>2026-06-23T10:09:45Z</time>
   </trkpt>
   <trkpt lat="-3.1109900" lon="37.3786450">
    <ele>4338.5</ele>
    <time>2026-06-23T10:09:46Z</time>
   </trkpt>
   <trkpt lat="-3.1109970" lon="37.3786460">
    <ele>4338.3</ele>
    <time>2026-06-23T10:09:47Z</time>
   </trkpt>
   <trkpt lat="-3.1110040" lon="37.3786460">
    <ele>4338.2</ele>
    <time>2026-06-23T10:09:48Z</time>
   </trkpt>
   <trkpt lat="-3.1110110" lon="37.3786480">
    <ele>4338.0</ele>
    <time>2026-06-23T10:09:49Z</time>
   </trkpt>
   <trkpt lat="-3.1110200" lon="37.3786520">
    <ele>4337.8</ele>
    <time>2026-06-23T10:09:50Z</time>
   </trkpt>
   <trkpt lat="-3.1110260" lon="37.3786550">
    <ele>4337.7</ele>
    <time>2026-06-23T10:09:51Z</time>
   </trkpt>
   <trkpt lat="-3.1110330" lon="37.3786580">
    <ele>4337.5</ele>
    <time>2026-06-23T10:09:52Z</time>
   </trkpt>
   <trkpt lat="-3.1110400" lon="37.3786580">
    <ele>4337.3</ele>
    <time>2026-06-23T10:09:53Z</time>
   </trkpt>
   <trkpt lat="-3.1110460" lon="37.3786570">
    <ele>4337.2</ele>
    <time>2026-06-23T10:09:54Z</time>
   </trkpt>
   <trkpt lat="-3.1110570" lon="37.3786530">
    <ele>4336.9</ele>
    <time>2026-06-23T10:09:55Z</time>
   </trkpt>
   <trkpt lat="-3.1110600" lon="37.3786540">
    <ele>4336.9</ele>
    <time>2026-06-23T10:09:56Z</time>
   </trkpt>
   <trkpt lat="-3.1110700" lon="37.3786520">
    <ele>4336.6</ele>
    <time>2026-06-23T10:09:57Z</time>
   </trkpt>
   <trkpt lat="-3.1110770" lon="37.3786490">
    <ele>4336.5</ele>
    <time>2026-06-23T10:09:58Z</time>
   </trkpt>
   <trkpt lat="-3.1110850" lon="37.3786460">
    <ele>4336.3</ele>
    <time>2026-06-23T10:09:59Z</time>
   </trkpt>
   <trkpt lat="-3.1111020" lon="37.3786430">
    <ele>4335.9</ele>
    <time>2026-06-23T10:10:00Z</time>
   </trkpt>
   <trkpt lat="-3.1111070" lon="37.3786400">
    <ele>4335.8</ele>
    <time>2026-06-23T10:10:01Z</time>
   </trkpt>
   <trkpt lat="-3.1111160" lon="37.3786380">
    <ele>4335.6</ele>
    <time>2026-06-23T10:10:02Z</time>
   </trkpt>
   <trkpt lat="-3.1111250" lon="37.3786360">
    <ele>4335.4</ele>
    <time>2026-06-23T10:10:03Z</time>
   </trkpt>
   <trkpt lat="-3.1111330" lon="37.3786320">
    <ele>4335.2</ele>
    <time>2026-06-23T10:10:04Z</time>
   </trkpt>
   <trkpt lat="-3.1111400" lon="37.3786280">
    <ele>4335.0</ele>
    <time>2026-06-23T10:10:05Z</time>
   </trkpt>
   <trkpt lat="-3.1111460" lon="37.3786260">
    <ele>4334.9</ele>
    <time>2026-06-23T10:10:06Z</time>
   </trkpt>
   <trkpt lat="-3.1111540" lon="37.3786220">
    <ele>4334.7</ele>
    <time>2026-06-23T10:10:07Z</time>
   </trkpt>
   <trkpt lat="-3.1111630" lon="37.3786200">
    <ele>4334.5</ele>
    <time>2026-06-23T10:10:08Z</time>
   </trkpt>
   <trkpt lat="-3.1111710" lon="37.3786180">
    <ele>4334.3</ele>
    <time>2026-06-23T10:10:09Z</time>
   </trkpt>
   <trkpt lat="-3.1111750" lon="37.3786180">
    <ele>4334.2</ele>
    <time>2026-06-23T10:10:10Z</time>
   </trkpt>
   <trkpt lat="-3.1111840" lon="37.3786180">
    <ele>4334.1</ele>
    <time>2026-06-23T10:10:11Z</time>
   </trkpt>
   <trkpt lat="-3.1111920" lon="37.3786200">
    <ele>4333.9</ele>
    <time>2026-06-23T10:10:12Z</time>
   </trkpt>
   <trkpt lat="-3.1111970" lon="37.3786260">
    <ele>4333.7</ele>
    <time>2026-06-23T10:10:13Z</time>
   </trkpt>
   <trkpt lat="-3.1112060" lon="37.3786270">
    <ele>4333.5</ele>
    <time>2026-06-23T10:10:14Z</time>
   </trkpt>
   <trkpt lat="-3.1112130" lon="37.3786250">
    <ele>4333.4</ele>
    <time>2026-06-23T10:10:15Z</time>
   </trkpt>
   <trkpt lat="-3.1112210" lon="37.3786250">
    <ele>4333.2</ele>
    <time>2026-06-23T10:10:16Z</time>
   </trkpt>
   <trkpt lat="-3.1112270" lon="37.3786230">
    <ele>4333.1</ele>
    <time>2026-06-23T10:10:17Z</time>
   </trkpt>
   <trkpt lat="-3.1112370" lon="37.3786250">
    <ele>4332.9</ele>
    <time>2026-06-23T10:10:18Z</time>
   </trkpt>
   <trkpt lat="-3.1112480" lon="37.3786240">
    <ele>4332.7</ele>
    <time>2026-06-23T10:10:19Z</time>
   </trkpt>
   <trkpt lat="-3.1112520" lon="37.3786190">
    <ele>4332.5</ele>
    <time>2026-06-23T10:10:20Z</time>
   </trkpt>
   <trkpt lat="-3.1112590" lon="37.3786110">
    <ele>4332.3</ele>
    <time>2026-06-23T10:10:21Z</time>
   </trkpt>
   <trkpt lat="-3.1112650" lon="37.3786010">
    <ele>4332.1</ele>
    <time>2026-06-23T10:10:22Z</time>
   </trkpt>
   <trkpt lat="-3.1112690" lon="37.3785950">
    <ele>4332.0</ele>
    <time>2026-06-23T10:10:23Z</time>
   </trkpt>
   <trkpt lat="-3.1112740" lon="37.3785900">
    <ele>4331.8</ele>
    <time>2026-06-23T10:10:24Z</time>
   </trkpt>
   <trkpt lat="-3.1112800" lon="37.3785840">
    <ele>4331.6</ele>
    <time>2026-06-23T10:10:25Z</time>
   </trkpt>
   <trkpt lat="-3.1112850" lon="37.3785810">
    <ele>4331.5</ele>
    <time>2026-06-23T10:10:26Z</time>
   </trkpt>
   <trkpt lat="-3.1112910" lon="37.3785770">
    <ele>4331.4</ele>
    <time>2026-06-23T10:10:27Z</time>
   </trkpt>
   <trkpt lat="-3.1113010" lon="37.3785730">
    <ele>4331.2</ele>
    <time>2026-06-23T10:10:28Z</time>
   </trkpt>
   <trkpt lat="-3.1113100" lon="37.3785720">
    <ele>4331.0</ele>
    <time>2026-06-23T10:10:29Z</time>
   </trkpt>
   <trkpt lat="-3.1113180" lon="37.3785710">
    <ele>4330.8</ele>
    <time>2026-06-23T10:10:30Z</time>
   </trkpt>
   <trkpt lat="-3.1113250" lon="37.3785720">
    <ele>4330.7</ele>
    <time>2026-06-23T10:10:31Z</time>
   </trkpt>
   <trkpt lat="-3.1113330" lon="37.3785720">
    <ele>4330.5</ele>
    <time>2026-06-23T10:10:32Z</time>
   </trkpt>
   <trkpt lat="-3.1113400" lon="37.3785680">
    <ele>4330.3</ele>
    <time>2026-06-23T10:10:33Z</time>
   </trkpt>
   <trkpt lat="-3.1113470" lon="37.3785630">
    <ele>4330.2</ele>
    <time>2026-06-23T10:10:34Z</time>
   </trkpt>
   <trkpt lat="-3.1113540" lon="37.3785590">
    <ele>4330.0</ele>
    <time>2026-06-23T10:10:35Z</time>
   </trkpt>
   <trkpt lat="-3.1113600" lon="37.3785570">
    <ele>4329.9</ele>
    <time>2026-06-23T10:10:36Z</time>
   </trkpt>
   <trkpt lat="-3.1113670" lon="37.3785530">
    <ele>4329.7</ele>
    <time>2026-06-23T10:10:37Z</time>
   </trkpt>
   <trkpt lat="-3.1113750" lon="37.3785500">
    <ele>4329.5</ele>
    <time>2026-06-23T10:10:38Z</time>
   </trkpt>
   <trkpt lat="-3.1113800" lon="37.3785510">
    <ele>4329.4</ele>
    <time>2026-06-23T10:10:39Z</time>
   </trkpt>
   <trkpt lat="-3.1113880" lon="37.3785500">
    <ele>4329.3</ele>
    <time>2026-06-23T10:10:40Z</time>
   </trkpt>
   <trkpt lat="-3.1113970" lon="37.3785530">
    <ele>4329.1</ele>
    <time>2026-06-23T10:10:41Z</time>
   </trkpt>
   <trkpt lat="-3.1114010" lon="37.3785560">
    <ele>4329.0</ele>
    <time>2026-06-23T10:10:42Z</time>
   </trkpt>
   <trkpt lat="-3.1114090" lon="37.3785570">
    <ele>4328.8</ele>
    <time>2026-06-23T10:10:43Z</time>
   </trkpt>
   <trkpt lat="-3.1114150" lon="37.3785560">
    <ele>4328.7</ele>
    <time>2026-06-23T10:10:44Z</time>
   </trkpt>
   <trkpt lat="-3.1114230" lon="37.3785530">
    <ele>4328.5</ele>
    <time>2026-06-23T10:10:45Z</time>
   </trkpt>
   <trkpt lat="-3.1114320" lon="37.3785510">
    <ele>4328.3</ele>
    <time>2026-06-23T10:10:46Z</time>
   </trkpt>
   <trkpt lat="-3.1114360" lon="37.3785470">
    <ele>4328.2</ele>
    <time>2026-06-23T10:10:47Z</time>
   </trkpt>
   <trkpt lat="-3.1114420" lon="37.3785420">
    <ele>4328.0</ele>
    <time>2026-06-23T10:10:48Z</time>
   </trkpt>
   <trkpt lat="-3.1114480" lon="37.3785380">
    <ele>4327.9</ele>
    <time>2026-06-23T10:10:49Z</time>
   </trkpt>
   <trkpt lat="-3.1114510" lon="37.3785310">
    <ele>4327.7</ele>
    <time>2026-06-23T10:10:50Z</time>
   </trkpt>
   <trkpt lat="-3.1114550" lon="37.3785250">
    <ele>4327.6</ele>
    <time>2026-06-23T10:10:51Z</time>
   </trkpt>
   <trkpt lat="-3.1114570" lon="37.3785200">
    <ele>4327.5</ele>
    <time>2026-06-23T10:10:52Z</time>
   </trkpt>
   <trkpt lat="-3.1114620" lon="37.3785150">
    <ele>4327.3</ele>
    <time>2026-06-23T10:10:53Z</time>
   </trkpt>
   <trkpt lat="-3.1114680" lon="37.3785120">
    <ele>4327.2</ele>
    <time>2026-06-23T10:10:54Z</time>
   </trkpt>
   <trkpt lat="-3.1114770" lon="37.3785080">
    <ele>4327.0</ele>
    <time>2026-06-23T10:10:55Z</time>
   </trkpt>
   <trkpt lat="-3.1114820" lon="37.3785040">
    <ele>4326.9</ele>
    <time>2026-06-23T10:10:56Z</time>
   </trkpt>
   <trkpt lat="-3.1114880" lon="37.3784990">
    <ele>4326.7</ele>
    <time>2026-06-23T10:10:57Z</time>
   </trkpt>
   <trkpt lat="-3.1114930" lon="37.3784940">
    <ele>4326.5</ele>
    <time>2026-06-23T10:10:58Z</time>
   </trkpt>
   <trkpt lat="-3.1114970" lon="37.3784880">
    <ele>4326.4</ele>
    <time>2026-06-23T10:10:59Z</time>
   </trkpt>
   <trkpt lat="-3.1115020" lon="37.3784820">
    <ele>4326.2</ele>
    <time>2026-06-23T10:11:00Z</time>
   </trkpt>
   <trkpt lat="-3.1115070" lon="37.3784770">
    <ele>4326.1</ele>
    <time>2026-06-23T10:11:01Z</time>
   </trkpt>
   <trkpt lat="-3.1115120" lon="37.3784740">
    <ele>4326.0</ele>
    <time>2026-06-23T10:11:02Z</time>
   </trkpt>
   <trkpt lat="-3.1115160" lon="37.3784710">
    <ele>4325.9</ele>
    <time>2026-06-23T10:11:03Z</time>
   </trkpt>
   <trkpt lat="-3.1115220" lon="37.3784670">
    <ele>4325.7</ele>
    <time>2026-06-23T10:11:04Z</time>
   </trkpt>
   <trkpt lat="-3.1115290" lon="37.3784650">
    <ele>4325.6</ele>
    <time>2026-06-23T10:11:05Z</time>
   </trkpt>
   <trkpt lat="-3.1115330" lon="37.3784640">
    <ele>4325.5</ele>
    <time>2026-06-23T10:11:06Z</time>
   </trkpt>
   <trkpt lat="-3.1115370" lon="37.3784600">
    <ele>4325.4</ele>
    <time>2026-06-23T10:11:07Z</time>
   </trkpt>
   <trkpt lat="-3.1115430" lon="37.3784560">
    <ele>4325.2</ele>
    <time>2026-06-23T10:11:08Z</time>
   </trkpt>
   <trkpt lat="-3.1115490" lon="37.3784520">
    <ele>4325.1</ele>
    <time>2026-06-23T10:11:09Z</time>
   </trkpt>
   <trkpt lat="-3.1115550" lon="37.3784490">
    <ele>4324.9</ele>
    <time>2026-06-23T10:11:10Z</time>
   </trkpt>
   <trkpt lat="-3.1115590" lon="37.3784450">
    <ele>4324.8</ele>
    <time>2026-06-23T10:11:11Z</time>
   </trkpt>
   <trkpt lat="-3.1115670" lon="37.3784410">
    <ele>4324.6</ele>
    <time>2026-06-23T10:11:12Z</time>
   </trkpt>
   <trkpt lat="-3.1115700" lon="37.3784380">
    <ele>4324.5</ele>
    <time>2026-06-23T10:11:13Z</time>
   </trkpt>
   <trkpt lat="-3.1115770" lon="37.3784330">
    <ele>4324.4</ele>
    <time>2026-06-23T10:11:14Z</time>
   </trkpt>
   <trkpt lat="-3.1115800" lon="37.3784310">
    <ele>4324.3</ele>
    <time>2026-06-23T10:11:15Z</time>
   </trkpt>
   <trkpt lat="-3.1115870" lon="37.3784270">
    <ele>4324.1</ele>
    <time>2026-06-23T10:11:16Z</time>
   </trkpt>
   <trkpt lat="-3.1115950" lon="37.3784250">
    <ele>4324.0</ele>
    <time>2026-06-23T10:11:17Z</time>
   </trkpt>
   <trkpt lat="-3.1116030" lon="37.3784250">
    <ele>4323.8</ele>
    <time>2026-06-23T10:11:18Z</time>
   </trkpt>
   <trkpt lat="-3.1116090" lon="37.3784250">
    <ele>4323.7</ele>
    <time>2026-06-23T10:11:19Z</time>
   </trkpt>
   <trkpt lat="-3.1116170" lon="37.3784240">
    <ele>4323.5</ele>
    <time>2026-06-23T10:11:20Z</time>
   </trkpt>
   <trkpt lat="-3.1116250" lon="37.3784220">
    <ele>4323.4</ele>
    <time>2026-06-23T10:11:21Z</time>
   </trkpt>
   <trkpt lat="-3.1116310" lon="37.3784210">
    <ele>4323.3</ele>
    <time>2026-06-23T10:11:22Z</time>
   </trkpt>
   <trkpt lat="-3.1116390" lon="37.3784200">
    <ele>4323.1</ele>
    <time>2026-06-23T10:11:23Z</time>
   </trkpt>
   <trkpt lat="-3.1116480" lon="37.3784210">
    <ele>4322.9</ele>
    <time>2026-06-23T10:11:24Z</time>
   </trkpt>
   <trkpt lat="-3.1116550" lon="37.3784210">
    <ele>4322.8</ele>
    <time>2026-06-23T10:11:25Z</time>
   </trkpt>
   <trkpt lat="-3.1116620" lon="37.3784230">
    <ele>4322.6</ele>
    <time>2026-06-23T10:11:26Z</time>
   </trkpt>
   <trkpt lat="-3.1116690" lon="37.3784260">
    <ele>4322.5</ele>
    <time>2026-06-23T10:11:27Z</time>
   </trkpt>
   <trkpt lat="-3.1116760" lon="37.3784300">
    <ele>4322.3</ele>
    <time>2026-06-23T10:11:28Z</time>
   </trkpt>
   <trkpt lat="-3.1116850" lon="37.3784310">
    <ele>4322.2</ele>
    <time>2026-06-23T10:11:29Z</time>
   </trkpt>
   <trkpt lat="-3.1116900" lon="37.3784330">
    <ele>4322.1</ele>
    <time>2026-06-23T10:11:30Z</time>
   </trkpt>
   <trkpt lat="-3.1117000" lon="37.3784390">
    <ele>4321.8</ele>
    <time>2026-06-23T10:11:31Z</time>
   </trkpt>
   <trkpt lat="-3.1117060" lon="37.3784420">
    <ele>4321.7</ele>
    <time>2026-06-23T10:11:32Z</time>
   </trkpt>
   <trkpt lat="-3.1117120" lon="37.3784430">
    <ele>4321.6</ele>
    <time>2026-06-23T10:11:33Z</time>
   </trkpt>
   <trkpt lat="-3.1117200" lon="37.3784420">
    <ele>4321.4</ele>
    <time>2026-06-23T10:11:34Z</time>
   </trkpt>
   <trkpt lat="-3.1117280" lon="37.3784400">
    <ele>4321.3</ele>
    <time>2026-06-23T10:11:35Z</time>
   </trkpt>
   <trkpt lat="-3.1117320" lon="37.3784370">
    <ele>4321.2</ele>
    <time>2026-06-23T10:11:36Z</time>
   </trkpt>
   <trkpt lat="-3.1117370" lon="37.3784330">
    <ele>4321.0</ele>
    <time>2026-06-23T10:11:37Z</time>
   </trkpt>
   <trkpt lat="-3.1117470" lon="37.3784280">
    <ele>4320.8</ele>
    <time>2026-06-23T10:11:39Z</time>
   </trkpt>
   <trkpt lat="-3.1117510" lon="37.3784270">
    <ele>4320.7</ele>
    <time>2026-06-23T10:11:40Z</time>
   </trkpt>
   <trkpt lat="-3.1117570" lon="37.3784240">
    <ele>4320.6</ele>
    <time>2026-06-23T10:11:41Z</time>
   </trkpt>
   <trkpt lat="-3.1117630" lon="37.3784270">
    <ele>4320.5</ele>
    <time>2026-06-23T10:11:42Z</time>
   </trkpt>
   <trkpt lat="-3.1117710" lon="37.3784270">
    <ele>4320.3</ele>
    <time>2026-06-23T10:11:43Z</time>
   </trkpt>
   <trkpt lat="-3.1117800" lon="37.3784270">
    <ele>4320.2</ele>
    <time>2026-06-23T10:11:44Z</time>
   </trkpt>
   <trkpt lat="-3.1117860" lon="37.3784270">
    <ele>4320.0</ele>
    <time>2026-06-23T10:11:45Z</time>
   </trkpt>
   <trkpt lat="-3.1117920" lon="37.3784260">
    <ele>4319.9</ele>
    <time>2026-06-23T10:11:46Z</time>
   </trkpt>
   <trkpt lat="-3.1117970" lon="37.3784260">
    <ele>4319.8</ele>
    <time>2026-06-23T10:11:47Z</time>
   </trkpt>
   <trkpt lat="-3.1118040" lon="37.3784260">
    <ele>4319.7</ele>
    <time>2026-06-23T10:11:48Z</time>
   </trkpt>
   <trkpt lat="-3.1118120" lon="37.3784260">
    <ele>4319.5</ele>
    <time>2026-06-23T10:11:49Z</time>
   </trkpt>
   <trkpt lat="-3.1118190" lon="37.3784270">
    <ele>4319.4</ele>
    <time>2026-06-23T10:11:50Z</time>
   </trkpt>
   <trkpt lat="-3.1118270" lon="37.3784300">
    <ele>4319.2</ele>
    <time>2026-06-23T10:11:51Z</time>
   </trkpt>
   <trkpt lat="-3.1118340" lon="37.3784320">
    <ele>4319.1</ele>
    <time>2026-06-23T10:11:52Z</time>
   </trkpt>
   <trkpt lat="-3.1118420" lon="37.3784320">
    <ele>4319.0</ele>
    <time>2026-06-23T10:11:53Z</time>
   </trkpt>
   <trkpt lat="-3.1118480" lon="37.3784350">
    <ele>4318.8</ele>
    <time>2026-06-23T10:11:54Z</time>
   </trkpt>
   <trkpt lat="-3.1118550" lon="37.3784400">
    <ele>4318.7</ele>
    <time>2026-06-23T10:11:55Z</time>
   </trkpt>
   <trkpt lat="-3.1118620" lon="37.3784450">
    <ele>4318.5</ele>
    <time>2026-06-23T10:11:56Z</time>
   </trkpt>
   <trkpt lat="-3.1118670" lon="37.3784470">
    <ele>4318.4</ele>
    <time>2026-06-23T10:11:57Z</time>
   </trkpt>
   <trkpt lat="-3.1118740" lon="37.3784480">
    <ele>4318.3</ele>
    <time>2026-06-23T10:11:58Z</time>
   </trkpt>
   <trkpt lat="-3.1118830" lon="37.3784500">
    <ele>4318.1</ele>
    <time>2026-06-23T10:11:59Z</time>
   </trkpt>
   <trkpt lat="-3.1118920" lon="37.3784520">
    <ele>4317.9</ele>
    <time>2026-06-23T10:12:00Z</time>
   </trkpt>
   <trkpt lat="-3.1119000" lon="37.3784530">
    <ele>4317.7</ele>
    <time>2026-06-23T10:12:01Z</time>
   </trkpt>
   <trkpt lat="-3.1119070" lon="37.3784530">
    <ele>4317.6</ele>
    <time>2026-06-23T10:12:02Z</time>
   </trkpt>
   <trkpt lat="-3.1119110" lon="37.3784520">
    <ele>4317.5</ele>
    <time>2026-06-23T10:12:03Z</time>
   </trkpt>
   <trkpt lat="-3.1119190" lon="37.3784490">
    <ele>4317.4</ele>
    <time>2026-06-23T10:12:04Z</time>
   </trkpt>
   <trkpt lat="-3.1119270" lon="37.3784450">
    <ele>4317.2</ele>
    <time>2026-06-23T10:12:05Z</time>
   </trkpt>
   <trkpt lat="-3.1119340" lon="37.3784430">
    <ele>4317.0</ele>
    <time>2026-06-23T10:12:06Z</time>
   </trkpt>
   <trkpt lat="-3.1119410" lon="37.3784410">
    <ele>4316.9</ele>
    <time>2026-06-23T10:12:07Z</time>
   </trkpt>
   <trkpt lat="-3.1119470" lon="37.3784390">
    <ele>4316.8</ele>
    <time>2026-06-23T10:12:08Z</time>
   </trkpt>
   <trkpt lat="-3.1119610" lon="37.3784300">
    <ele>4316.4</ele>
    <time>2026-06-23T10:12:09Z</time>
   </trkpt>
   <trkpt lat="-3.1119670" lon="37.3784220">
    <ele>4316.2</ele>
    <time>2026-06-23T10:12:10Z</time>
   </trkpt>
   <trkpt lat="-3.1119710" lon="37.3784160">
    <ele>4316.1</ele>
    <time>2026-06-23T10:12:11Z</time>
   </trkpt>
   <trkpt lat="-3.1119770" lon="37.3784120">
    <ele>4315.9</ele>
    <time>2026-06-23T10:12:12Z</time>
   </trkpt>
   <trkpt lat="-3.1119830" lon="37.3784080">
    <ele>4315.8</ele>
    <time>2026-06-23T10:12:13Z</time>
   </trkpt>
   <trkpt lat="-3.1119890" lon="37.3784040">
    <ele>4315.6</ele>
    <time>2026-06-23T10:12:14Z</time>
   </trkpt>
   <trkpt lat="-3.1119930" lon="37.3784000">
    <ele>4315.5</ele>
    <time>2026-06-23T10:12:15Z</time>
   </trkpt>
   <trkpt lat="-3.1120000" lon="37.3783950">
    <ele>4315.3</ele>
    <time>2026-06-23T10:12:16Z</time>
   </trkpt>
   <trkpt lat="-3.1120050" lon="37.3783920">
    <ele>4315.2</ele>
    <time>2026-06-23T10:12:17Z</time>
   </trkpt>
   <trkpt lat="-3.1120120" lon="37.3783870">
    <ele>4315.0</ele>
    <time>2026-06-23T10:12:18Z</time>
   </trkpt>
   <trkpt lat="-3.1120180" lon="37.3783810">
    <ele>4314.8</ele>
    <time>2026-06-23T10:12:19Z</time>
   </trkpt>
   <trkpt lat="-3.1120200" lon="37.3783790">
    <ele>4314.8</ele>
    <time>2026-06-23T10:12:20Z</time>
   </trkpt>
   <trkpt lat="-3.1120270" lon="37.3783750">
    <ele>4314.6</ele>
    <time>2026-06-23T10:12:21Z</time>
   </trkpt>
   <trkpt lat="-3.1120310" lon="37.3783750">
    <ele>4314.5</ele>
    <time>2026-06-23T10:12:22Z</time>
   </trkpt>
   <trkpt lat="-3.1120370" lon="37.3783760">
    <ele>4314.4</ele>
    <time>2026-06-23T10:12:23Z</time>
   </trkpt>
   <trkpt lat="-3.1120430" lon="37.3783760">
    <ele>4314.3</ele>
    <time>2026-06-23T10:12:24Z</time>
   </trkpt>
   <trkpt lat="-3.1120470" lon="37.3783780">
    <ele>4314.2</ele>
    <time>2026-06-23T10:12:25Z</time>
   </trkpt>
   <trkpt lat="-3.1120510" lon="37.3783810">
    <ele>4314.1</ele>
    <time>2026-06-23T10:12:26Z</time>
   </trkpt>
   <trkpt lat="-3.1120590" lon="37.3783870">
    <ele>4313.8</ele>
    <time>2026-06-23T10:12:27Z</time>
   </trkpt>
   <trkpt lat="-3.1120660" lon="37.3783920">
    <ele>4313.7</ele>
    <time>2026-06-23T10:12:28Z</time>
   </trkpt>
   <trkpt lat="-3.1120700" lon="37.3783950">
    <ele>4313.5</ele>
    <time>2026-06-23T10:12:29Z</time>
   </trkpt>
   <trkpt lat="-3.1120750" lon="37.3783950">
    <ele>4313.4</ele>
    <time>2026-06-23T10:12:30Z</time>
   </trkpt>
   <trkpt lat="-3.1120810" lon="37.3783980">
    <ele>4313.3</ele>
    <time>2026-06-23T10:12:31Z</time>
   </trkpt>
   <trkpt lat="-3.1120880" lon="37.3784020">
    <ele>4313.1</ele>
    <time>2026-06-23T10:12:32Z</time>
   </trkpt>
   <trkpt lat="-3.1120940" lon="37.3784050">
    <ele>4313.0</ele>
    <time>2026-06-23T10:12:33Z</time>
   </trkpt>
   <trkpt lat="-3.1120970" lon="37.3784040">
    <ele>4312.9</ele>
    <time>2026-06-23T10:12:34Z</time>
   </trkpt>
   <trkpt lat="-3.1121020" lon="37.3784010">
    <ele>4312.8</ele>
    <time>2026-06-23T10:12:35Z</time>
   </trkpt>
   <trkpt lat="-3.1121090" lon="37.3784000">
    <ele>4312.6</ele>
    <time>2026-06-23T10:12:36Z</time>
   </trkpt>
   <trkpt lat="-3.1121140" lon="37.3784020">
    <ele>4312.5</ele>
    <time>2026-06-23T10:12:37Z</time>
   </trkpt>
   <trkpt lat="-3.1121210" lon="37.3784050">
    <ele>4312.3</ele>
    <time>2026-06-23T10:12:38Z</time>
   </trkpt>
   <trkpt lat="-3.1121270" lon="37.3784100">
    <ele>4312.2</ele>
    <time>2026-06-23T10:12:39Z</time>
   </trkpt>
   <trkpt lat="-3.1121320" lon="37.3784130">
    <ele>4312.0</ele>
    <time>2026-06-23T10:12:40Z</time>
   </trkpt>
   <trkpt lat="-3.1121380" lon="37.3784160">
    <ele>4311.9</ele>
    <time>2026-06-23T10:12:41Z</time>
   </trkpt>
   <trkpt lat="-3.1121430" lon="37.3784160">
    <ele>4311.8</ele>
    <time>2026-06-23T10:12:42Z</time>
   </trkpt>
   <trkpt lat="-3.1121500" lon="37.3784180">
    <ele>4311.6</ele>
    <time>2026-06-23T10:12:43Z</time>
   </trkpt>
   <trkpt lat="-3.1121570" lon="37.3784200">
    <ele>4311.5</ele>
    <time>2026-06-23T10:12:44Z</time>
   </trkpt>
   <trkpt lat="-3.1121630" lon="37.3784230">
    <ele>4311.3</ele>
    <time>2026-06-23T10:12:45Z</time>
   </trkpt>
   <trkpt lat="-3.1121660" lon="37.3784250">
    <ele>4311.2</ele>
    <time>2026-06-23T10:12:46Z</time>
   </trkpt>
   <trkpt lat="-3.1121730" lon="37.3784300">
    <ele>4311.1</ele>
    <time>2026-06-23T10:12:47Z</time>
   </trkpt>
   <trkpt lat="-3.1121780" lon="37.3784340">
    <ele>4310.9</ele>
    <time>2026-06-23T10:12:48Z</time>
   </trkpt>
   <trkpt lat="-3.1121840" lon="37.3784370">
    <ele>4310.8</ele>
    <time>2026-06-23T10:12:49Z</time>
   </trkpt>
   <trkpt lat="-3.1121880" lon="37.3784380">
    <ele>4310.7</ele>
    <time>2026-06-23T10:12:50Z</time>
   </trkpt>
   <trkpt lat="-3.1121990" lon="37.3784390">
    <ele>4310.4</ele>
    <time>2026-06-23T10:12:51Z</time>
   </trkpt>
   <trkpt lat="-3.1122050" lon="37.3784390">
    <ele>4310.3</ele>
    <time>2026-06-23T10:12:52Z</time>
   </trkpt>
   <trkpt lat="-3.1122120" lon="37.3784380">
    <ele>4310.2</ele>
    <time>2026-06-23T10:12:53Z</time>
   </trkpt>
   <trkpt lat="-3.1122190" lon="37.3784380">
    <ele>4310.0</ele>
    <time>2026-06-23T10:12:54Z</time>
   </trkpt>
   <trkpt lat="-3.1122240" lon="37.3784380">
    <ele>4309.9</ele>
    <time>2026-06-23T10:12:55Z</time>
   </trkpt>
   <trkpt lat="-3.1122300" lon="37.3784380">
    <ele>4309.8</ele>
    <time>2026-06-23T10:12:56Z</time>
   </trkpt>
   <trkpt lat="-3.1122380" lon="37.3784370">
    <ele>4309.6</ele>
    <time>2026-06-23T10:12:57Z</time>
   </trkpt>
   <trkpt lat="-3.1122430" lon="37.3784380">
    <ele>4309.5</ele>
    <time>2026-06-23T10:12:58Z</time>
   </trkpt>
   <trkpt lat="-3.1122480" lon="37.3784390">
    <ele>4309.4</ele>
    <time>2026-06-23T10:12:59Z</time>
   </trkpt>
   <trkpt lat="-3.1122560" lon="37.3784380">
    <ele>4309.2</ele>
    <time>2026-06-23T10:13:00Z</time>
   </trkpt>
   <trkpt lat="-3.1122620" lon="37.3784370">
    <ele>4309.1</ele>
    <time>2026-06-23T10:13:01Z</time>
   </trkpt>
   <trkpt lat="-3.1122710" lon="37.3784370">
    <ele>4308.9</ele>
    <time>2026-06-23T10:13:02Z</time>
   </trkpt>
   <trkpt lat="-3.1122800" lon="37.3784380">
    <ele>4308.7</ele>
    <time>2026-06-23T10:13:03Z</time>
   </trkpt>
   <trkpt lat="-3.1122870" lon="37.3784360">
    <ele>4308.5</ele>
    <time>2026-06-23T10:13:04Z</time>
   </trkpt>
   <trkpt lat="-3.1122930" lon="37.3784330">
    <ele>4308.4</ele>
    <time>2026-06-23T10:13:05Z</time>
   </trkpt>
   <trkpt lat="-3.1122990" lon="37.3784300">
    <ele>4308.2</ele>
    <time>2026-06-23T10:13:06Z</time>
   </trkpt>
   <trkpt lat="-3.1123080" lon="37.3784280">
    <ele>4308.0</ele>
    <time>2026-06-23T10:13:07Z</time>
   </trkpt>
   <trkpt lat="-3.1123120" lon="37.3784260">
    <ele>4307.9</ele>
    <time>2026-06-23T10:13:08Z</time>
   </trkpt>
   <trkpt lat="-3.1123200" lon="37.3784220">
    <ele>4307.7</ele>
    <time>2026-06-23T10:13:09Z</time>
   </trkpt>
   <trkpt lat="-3.1123250" lon="37.3784190">
    <ele>4307.6</ele>
    <time>2026-06-23T10:13:10Z</time>
   </trkpt>
   <trkpt lat="-3.1123310" lon="37.3784160">
    <ele>4307.5</ele>
    <time>2026-06-23T10:13:11Z</time>
   </trkpt>
   <trkpt lat="-3.1123370" lon="37.3784120">
    <ele>4307.3</ele>
    <time>2026-06-23T10:13:12Z</time>
   </trkpt>
   <trkpt lat="-3.1123420" lon="37.3784080">
    <ele>4307.2</ele>
    <time>2026-06-23T10:13:13Z</time>
   </trkpt>
   <trkpt lat="-3.1123480" lon="37.3784030">
    <ele>4307.0</ele>
    <time>2026-06-23T10:13:14Z</time>
   </trkpt>
   <trkpt lat="-3.1123530" lon="37.3783980">
    <ele>4306.9</ele>
    <time>2026-06-23T10:13:15Z</time>
   </trkpt>
   <trkpt lat="-3.1123590" lon="37.3783930">
    <ele>4306.7</ele>
    <time>2026-06-23T10:13:16Z</time>
   </trkpt>
   <trkpt lat="-3.1123660" lon="37.3783900">
    <ele>4306.5</ele>
    <time>2026-06-23T10:13:17Z</time>
   </trkpt>
   <trkpt lat="-3.1123730" lon="37.3783890">
    <ele>4306.4</ele>
    <time>2026-06-23T10:13:18Z</time>
   </trkpt>
   <trkpt lat="-3.1123780" lon="37.3783900">
    <ele>4306.3</ele>
    <time>2026-06-23T10:13:19Z</time>
   </trkpt>
   <trkpt lat="-3.1123850" lon="37.3783920">
    <ele>4306.1</ele>
    <time>2026-06-23T10:13:20Z</time>
   </trkpt>
   <trkpt lat="-3.1123970" lon="37.3783940">
    <ele>4305.9</ele>
    <time>2026-06-23T10:13:21Z</time>
   </trkpt>
   <trkpt lat="-3.1124020" lon="37.3783980">
    <ele>4305.7</ele>
    <time>2026-06-23T10:13:22Z</time>
   </trkpt>
   <trkpt lat="-3.1124090" lon="37.3784010">
    <ele>4305.6</ele>
    <time>2026-06-23T10:13:23Z</time>
   </trkpt>
   <trkpt lat="-3.1124180" lon="37.3784010">
    <ele>4305.4</ele>
    <time>2026-06-23T10:13:24Z</time>
   </trkpt>
   <trkpt lat="-3.1124280" lon="37.3784000">
    <ele>4305.2</ele>
    <time>2026-06-23T10:13:25Z</time>
   </trkpt>
   <trkpt lat="-3.1124360" lon="37.3783980">
    <ele>4305.0</ele>
    <time>2026-06-23T10:13:26Z</time>
   </trkpt>
   <trkpt lat="-3.1124430" lon="37.3783980">
    <ele>4304.8</ele>
    <time>2026-06-23T10:13:27Z</time>
   </trkpt>
   <trkpt lat="-3.1124520" lon="37.3783970">
    <ele>4304.6</ele>
    <time>2026-06-23T10:13:28Z</time>
   </trkpt>
   <trkpt lat="-3.1124590" lon="37.3783970">
    <ele>4304.5</ele>
    <time>2026-06-23T10:13:29Z</time>
   </trkpt>
   <trkpt lat="-3.1124660" lon="37.3783940">
    <ele>4304.3</ele>
    <time>2026-06-23T10:13:30Z</time>
   </trkpt>
   <trkpt lat="-3.1124730" lon="37.3783930">
    <ele>4304.2</ele>
    <time>2026-06-23T10:13:31Z</time>
   </trkpt>
   <trkpt lat="-3.1124790" lon="37.3783930">
    <ele>4304.0</ele>
    <time>2026-06-23T10:13:32Z</time>
   </trkpt>
   <trkpt lat="-3.1124830" lon="37.3783940">
    <ele>4303.9</ele>
    <time>2026-06-23T10:13:33Z</time>
   </trkpt>
   <trkpt lat="-3.1124920" lon="37.3783950">
    <ele>4303.7</ele>
    <time>2026-06-23T10:13:34Z</time>
   </trkpt>
   <trkpt lat="-3.1125000" lon="37.3783980">
    <ele>4303.6</ele>
    <time>2026-06-23T10:13:35Z</time>
   </trkpt>
   <trkpt lat="-3.1125020" lon="37.3783970">
    <ele>4303.5</ele>
    <time>2026-06-23T10:13:36Z</time>
   </trkpt>
   <trkpt lat="-3.1125110" lon="37.3783960">
    <ele>4303.3</ele>
    <time>2026-06-23T10:13:37Z</time>
   </trkpt>
   <trkpt lat="-3.1125180" lon="37.3783960">
    <ele>4303.2</ele>
    <time>2026-06-23T10:13:38Z</time>
   </trkpt>
   <trkpt lat="-3.1125250" lon="37.3783950">
    <ele>4303.0</ele>
    <time>2026-06-23T10:13:39Z</time>
   </trkpt>
   <trkpt lat="-3.1125320" lon="37.3783930">
    <ele>4302.8</ele>
    <time>2026-06-23T10:13:40Z</time>
   </trkpt>
   <trkpt lat="-3.1125390" lon="37.3783900">
    <ele>4302.7</ele>
    <time>2026-06-23T10:13:41Z</time>
   </trkpt>
   <trkpt lat="-3.1125450" lon="37.3783870">
    <ele>4302.5</ele>
    <time>2026-06-23T10:13:42Z</time>
   </trkpt>
   <trkpt lat="-3.1125520" lon="37.3783860">
    <ele>4302.4</ele>
    <time>2026-06-23T10:13:43Z</time>
   </trkpt>
   <trkpt lat="-3.1125590" lon="37.3783860">
    <ele>4302.2</ele>
    <time>2026-06-23T10:13:45Z</time>
   </trkpt>
   <trkpt lat="-3.1125660" lon="37.3783890">
    <ele>4302.0</ele>
    <time>2026-06-23T10:13:46Z</time>
   </trkpt>
   <trkpt lat="-3.1125720" lon="37.3783910">
    <ele>4301.9</ele>
    <time>2026-06-23T10:13:47Z</time>
   </trkpt>
   <trkpt lat="-3.1125740" lon="37.3783920">
    <ele>4301.8</ele>
    <time>2026-06-23T10:13:48Z</time>
   </trkpt>
   <trkpt lat="-3.1125750" lon="37.3783920">
    <ele>4301.8</ele>
    <time>2026-06-23T10:13:49Z</time>
   </trkpt>
   <trkpt lat="-3.1125830" lon="37.3783930">
    <ele>4301.6</ele>
    <time>2026-06-23T10:13:50Z</time>
   </trkpt>
   <trkpt lat="-3.1125900" lon="37.3783980">
    <ele>4301.4</ele>
    <time>2026-06-23T10:13:51Z</time>
   </trkpt>
   <trkpt lat="-3.1125980" lon="37.3783990">
    <ele>4301.3</ele>
    <time>2026-06-23T10:13:52Z</time>
   </trkpt>
   <trkpt lat="-3.1126020" lon="37.3784010">
    <ele>4301.2</ele>
    <time>2026-06-23T10:13:53Z</time>
   </trkpt>
   <trkpt lat="-3.1126100" lon="37.3784020">
    <ele>4301.0</ele>
    <time>2026-06-23T10:13:54Z</time>
   </trkpt>
   <trkpt lat="-3.1126170" lon="37.3784040">
    <ele>4300.8</ele>
    <time>2026-06-23T10:13:55Z</time>
   </trkpt>
   <trkpt lat="-3.1126240" lon="37.3784030">
    <ele>4300.6</ele>
    <time>2026-06-23T10:13:56Z</time>
   </trkpt>
   <trkpt lat="-3.1126310" lon="37.3784000">
    <ele>4300.5</ele>
    <time>2026-06-23T10:13:57Z</time>
   </trkpt>
   <trkpt lat="-3.1126370" lon="37.3783950">
    <ele>4300.3</ele>
    <time>2026-06-23T10:13:58Z</time>
   </trkpt>
   <trkpt lat="-3.1126440" lon="37.3783920">
    <ele>4300.1</ele>
    <time>2026-06-23T10:13:59Z</time>
   </trkpt>
   <trkpt lat="-3.1126470" lon="37.3783900">
    <ele>4300.0</ele>
    <time>2026-06-23T10:14:00Z</time>
   </trkpt>
   <trkpt lat="-3.1126550" lon="37.3783870">
    <ele>4299.8</ele>
    <time>2026-06-23T10:14:01Z</time>
   </trkpt>
   <trkpt lat="-3.1126620" lon="37.3783850">
    <ele>4299.7</ele>
    <time>2026-06-23T10:14:02Z</time>
   </trkpt>
   <trkpt lat="-3.1126670" lon="37.3783830">
    <ele>4299.6</ele>
    <time>2026-06-23T10:14:03Z</time>
   </trkpt>
   <trkpt lat="-3.1126730" lon="37.3783810">
    <ele>4299.4</ele>
    <time>2026-06-23T10:14:04Z</time>
   </trkpt>
   <trkpt lat="-3.1126760" lon="37.3783800">
    <ele>4299.3</ele>
    <time>2026-06-23T10:14:05Z</time>
   </trkpt>
   <trkpt lat="-3.1126820" lon="37.3783790">
    <ele>4299.2</ele>
    <time>2026-06-23T10:14:06Z</time>
   </trkpt>
   <trkpt lat="-3.1126890" lon="37.3783770">
    <ele>4299.0</ele>
    <time>2026-06-23T10:14:07Z</time>
   </trkpt>
   <trkpt lat="-3.1126970" lon="37.3783760">
    <ele>4298.9</ele>
    <time>2026-06-23T10:14:08Z</time>
   </trkpt>
   <trkpt lat="-3.1127020" lon="37.3783760">
    <ele>4298.7</ele>
    <time>2026-06-23T10:14:09Z</time>
   </trkpt>
   <trkpt lat="-3.1127080" lon="37.3783750">
    <ele>4298.6</ele>
    <time>2026-06-23T10:14:10Z</time>
   </trkpt>
   <trkpt lat="-3.1127130" lon="37.3783750">
    <ele>4298.5</ele>
    <time>2026-06-23T10:14:11Z</time>
   </trkpt>
   <trkpt lat="-3.1127210" lon="37.3783720">
    <ele>4298.3</ele>
    <time>2026-06-23T10:14:12Z</time>
   </trkpt>
   <trkpt lat="-3.1127260" lon="37.3783720">
    <ele>4298.2</ele>
    <time>2026-06-23T10:14:13Z</time>
   </trkpt>
   <trkpt lat="-3.1127330" lon="37.3783730">
    <ele>4298.0</ele>
    <time>2026-06-23T10:14:14Z</time>
   </trkpt>
   <trkpt lat="-3.1127380" lon="37.3783730">
    <ele>4297.9</ele>
    <time>2026-06-23T10:14:15Z</time>
   </trkpt>
   <trkpt lat="-3.1127460" lon="37.3783740">
    <ele>4297.7</ele>
    <time>2026-06-23T10:14:16Z</time>
   </trkpt>
   <trkpt lat="-3.1127530" lon="37.3783760">
    <ele>4297.6</ele>
    <time>2026-06-23T10:14:17Z</time>
   </trkpt>
   <trkpt lat="-3.1127670" lon="37.3783770">
    <ele>4297.2</ele>
    <time>2026-06-23T10:14:18Z</time>
   </trkpt>
   <trkpt lat="-3.1127710" lon="37.3783790">
    <ele>4297.2</ele>
    <time>2026-06-23T10:14:19Z</time>
   </trkpt>
   <trkpt lat="-3.1127770" lon="37.3783800">
    <ele>4297.0</ele>
    <time>2026-06-23T10:14:20Z</time>
   </trkpt>
   <trkpt lat="-3.1127830" lon="37.3783810">
    <ele>4296.9</ele>
    <time>2026-06-23T10:14:21Z</time>
   </trkpt>
   <trkpt lat="-3.1127890" lon="37.3783800">
    <ele>4296.8</ele>
    <time>2026-06-23T10:14:22Z</time>
   </trkpt>
   <trkpt lat="-3.1127940" lon="37.3783810">
    <ele>4296.6</ele>
    <time>2026-06-23T10:14:23Z</time>
   </trkpt>
   <trkpt lat="-3.1128010" lon="37.3783830">
    <ele>4296.5</ele>
    <time>2026-06-23T10:14:24Z</time>
   </trkpt>
   <trkpt lat="-3.1128070" lon="37.3783840">
    <ele>4296.4</ele>
    <time>2026-06-23T10:14:25Z</time>
   </trkpt>
   <trkpt lat="-3.1128150" lon="37.3783850">
    <ele>4296.2</ele>
    <time>2026-06-23T10:14:26Z</time>
   </trkpt>
   <trkpt lat="-3.1128240" lon="37.3783870">
    <ele>4296.0</ele>
    <time>2026-06-23T10:14:27Z</time>
   </trkpt>
   <trkpt lat="-3.1128300" lon="37.3783850">
    <ele>4295.8</ele>
    <time>2026-06-23T10:14:28Z</time>
   </trkpt>
   <trkpt lat="-3.1128370" lon="37.3783860">
    <ele>4295.7</ele>
    <time>2026-06-23T10:14:29Z</time>
   </trkpt>
   <trkpt lat="-3.1128440" lon="37.3783860">
    <ele>4295.5</ele>
    <time>2026-06-23T10:14:30Z</time>
   </trkpt>
   <trkpt lat="-3.1128520" lon="37.3783860">
    <ele>4295.4</ele>
    <time>2026-06-23T10:14:31Z</time>
   </trkpt>
   <trkpt lat="-3.1128570" lon="37.3783870">
    <ele>4295.2</ele>
    <time>2026-06-23T10:14:32Z</time>
   </trkpt>
   <trkpt lat="-3.1128640" lon="37.3783860">
    <ele>4295.1</ele>
    <time>2026-06-23T10:14:33Z</time>
   </trkpt>
   <trkpt lat="-3.1128710" lon="37.3783880">
    <ele>4294.9</ele>
    <time>2026-06-23T10:14:34Z</time>
   </trkpt>
   <trkpt lat="-3.1128770" lon="37.3783900">
    <ele>4294.8</ele>
    <time>2026-06-23T10:14:35Z</time>
   </trkpt>
   <trkpt lat="-3.1128860" lon="37.3783910">
    <ele>4294.6</ele>
    <time>2026-06-23T10:14:36Z</time>
   </trkpt>
   <trkpt lat="-3.1128910" lon="37.3783920">
    <ele>4294.5</ele>
    <time>2026-06-23T10:14:37Z</time>
   </trkpt>
   <trkpt lat="-3.1128970" lon="37.3783930">
    <ele>4294.4</ele>
    <time>2026-06-23T10:14:38Z</time>
   </trkpt>
   <trkpt lat="-3.1129040" lon="37.3783950">
    <ele>4294.2</ele>
    <time>2026-06-23T10:14:39Z</time>
   </trkpt>
   <trkpt lat="-3.1129110" lon="37.3783960">
    <ele>4294.1</ele>
    <time>2026-06-23T10:14:40Z</time>
   </trkpt>
   <trkpt lat="-3.1129170" lon="37.3783960">
    <ele>4294.0</ele>
    <time>2026-06-23T10:14:41Z</time>
   </trkpt>
   <trkpt lat="-3.1129250" lon="37.3783950">
    <ele>4293.8</ele>
    <time>2026-06-23T10:14:42Z</time>
   </trkpt>
   <trkpt lat="-3.1129290" lon="37.3783940">
    <ele>4293.7</ele>
    <time>2026-06-23T10:14:43Z</time>
   </trkpt>
   <trkpt lat="-3.1129380" lon="37.3783940">
    <ele>4293.6</ele>
    <time>2026-06-23T10:14:44Z</time>
   </trkpt>
   <trkpt lat="-3.1129450" lon="37.3783930">
    <ele>4293.4</ele>
    <time>2026-06-23T10:14:45Z</time>
   </trkpt>
   <trkpt lat="-3.1129490" lon="37.3783940">
    <ele>4293.3</ele>
    <time>2026-06-23T10:14:46Z</time>
   </trkpt>
   <trkpt lat="-3.1129550" lon="37.3783950">
    <ele>4293.2</ele>
    <time>2026-06-23T10:14:47Z</time>
   </trkpt>
   <trkpt lat="-3.1129620" lon="37.3783950">
    <ele>4293.1</ele>
    <time>2026-06-23T10:14:48Z</time>
   </trkpt>
   <trkpt lat="-3.1129710" lon="37.3783950">
    <ele>4292.9</ele>
    <time>2026-06-23T10:14:49Z</time>
   </trkpt>
   <trkpt lat="-3.1129770" lon="37.3783950">
    <ele>4292.8</ele>
    <time>2026-06-23T10:14:50Z</time>
   </trkpt>
   <trkpt lat="-3.1129840" lon="37.3783960">
    <ele>4292.6</ele>
    <time>2026-06-23T10:14:51Z</time>
   </trkpt>
   <trkpt lat="-3.1129910" lon="37.3783960">
    <ele>4292.5</ele>
    <time>2026-06-23T10:14:52Z</time>
   </trkpt>
   <trkpt lat="-3.1129990" lon="37.3783960">
    <ele>4292.3</ele>
    <time>2026-06-23T10:14:53Z</time>
   </trkpt>
   <trkpt lat="-3.1130050" lon="37.3783960">
    <ele>4292.2</ele>
    <time>2026-06-23T10:14:54Z</time>
   </trkpt>
   <trkpt lat="-3.1130120" lon="37.3783940">
    <ele>4292.1</ele>
    <time>2026-06-23T10:14:55Z</time>
   </trkpt>
   <trkpt lat="-3.1130210" lon="37.3783940">
    <ele>4291.9</ele>
    <time>2026-06-23T10:14:56Z</time>
   </trkpt>
   <trkpt lat="-3.1130270" lon="37.3783940">
    <ele>4291.8</ele>
    <time>2026-06-23T10:14:57Z</time>
   </trkpt>
   <trkpt lat="-3.1130340" lon="37.3783930">
    <ele>4291.6</ele>
    <time>2026-06-23T10:14:58Z</time>
   </trkpt>
   <trkpt lat="-3.1130410" lon="37.3783930">
    <ele>4291.5</ele>
    <time>2026-06-23T10:14:59Z</time>
   </trkpt>
   <trkpt lat="-3.1130490" lon="37.3783930">
    <ele>4291.4</ele>
    <time>2026-06-23T10:15:00Z</time>
   </trkpt>
   <trkpt lat="-3.1130570" lon="37.3783930">
    <ele>4291.2</ele>
    <time>2026-06-23T10:15:01Z</time>
   </trkpt>
   <trkpt lat="-3.1130620" lon="37.3783910">
    <ele>4291.1</ele>
    <time>2026-06-23T10:15:02Z</time>
   </trkpt>
   <trkpt lat="-3.1130700" lon="37.3783900">
    <ele>4290.9</ele>
    <time>2026-06-23T10:15:03Z</time>
   </trkpt>
   <trkpt lat="-3.1130770" lon="37.3783910">
    <ele>4290.8</ele>
    <time>2026-06-23T10:15:04Z</time>
   </trkpt>
   <trkpt lat="-3.1130830" lon="37.3783910">
    <ele>4290.7</ele>
    <time>2026-06-23T10:15:05Z</time>
   </trkpt>
   <trkpt lat="-3.1130900" lon="37.3783910">
    <ele>4290.5</ele>
    <time>2026-06-23T10:15:06Z</time>
   </trkpt>
   <trkpt lat="-3.1130980" lon="37.3783890">
    <ele>4290.4</ele>
    <time>2026-06-23T10:15:07Z</time>
   </trkpt>
   <trkpt lat="-3.1131060" lon="37.3783890">
    <ele>4290.2</ele>
    <time>2026-06-23T10:15:08Z</time>
   </trkpt>
   <trkpt lat="-3.1131120" lon="37.3783930">
    <ele>4290.1</ele>
    <time>2026-06-23T10:15:09Z</time>
   </trkpt>
   <trkpt lat="-3.1131190" lon="37.3783960">
    <ele>4289.9</ele>
    <time>2026-06-23T10:15:10Z</time>
   </trkpt>
   <trkpt lat="-3.1131270" lon="37.3784010">
    <ele>4289.7</ele>
    <time>2026-06-23T10:15:11Z</time>
   </trkpt>
   <trkpt lat="-3.1131330" lon="37.3784040">
    <ele>4289.6</ele>
    <time>2026-06-23T10:15:12Z</time>
   </trkpt>
   <trkpt lat="-3.1131400" lon="37.3784080">
    <ele>4289.5</ele>
    <time>2026-06-23T10:15:13Z</time>
   </trkpt>
   <trkpt lat="-3.1131440" lon="37.3784100">
    <ele>4289.4</ele>
    <time>2026-06-23T10:15:14Z</time>
   </trkpt>
   <trkpt lat="-3.1131500" lon="37.3784120">
    <ele>4289.2</ele>
    <time>2026-06-23T10:15:15Z</time>
   </trkpt>
   <trkpt lat="-3.1131570" lon="37.3784130">
    <ele>4289.1</ele>
    <time>2026-06-23T10:15:16Z</time>
   </trkpt>
   <trkpt lat="-3.1131660" lon="37.3784130">
    <ele>4288.9</ele>
    <time>2026-06-23T10:15:17Z</time>
   </trkpt>
   <trkpt lat="-3.1131730" lon="37.3784090">
    <ele>4288.8</ele>
    <time>2026-06-23T10:15:18Z</time>
   </trkpt>
   <trkpt lat="-3.1131840" lon="37.3784070">
    <ele>4288.5</ele>
    <time>2026-06-23T10:15:19Z</time>
   </trkpt>
   <trkpt lat="-3.1131920" lon="37.3784060">
    <ele>4288.4</ele>
    <time>2026-06-23T10:15:20Z</time>
   </trkpt>
   <trkpt lat="-3.1132000" lon="37.3784040">
    <ele>4288.2</ele>
    <time>2026-06-23T10:15:21Z</time>
   </trkpt>
   <trkpt lat="-3.1132050" lon="37.3784010">
    <ele>4288.1</ele>
    <time>2026-06-23T10:15:22Z</time>
   </trkpt>
   <trkpt lat="-3.1132100" lon="37.3784000">
    <ele>4288.0</ele>
    <time>2026-06-23T10:15:23Z</time>
   </trkpt>
   <trkpt lat="-3.1132170" lon="37.3783970">
    <ele>4287.9</ele>
    <time>2026-06-23T10:15:24Z</time>
   </trkpt>
   <trkpt lat="-3.1132230" lon="37.3783950">
    <ele>4287.8</ele>
    <time>2026-06-23T10:15:25Z</time>
   </trkpt>
   <trkpt lat="-3.1132300" lon="37.3783910">
    <ele>4287.6</ele>
    <time>2026-06-23T10:15:26Z</time>
   </trkpt>
   <trkpt lat="-3.1132340" lon="37.3783870">
    <ele>4287.5</ele>
    <time>2026-06-23T10:15:27Z</time>
   </trkpt>
   <trkpt lat="-3.1132380" lon="37.3783830">
    <ele>4287.4</ele>
    <time>2026-06-23T10:15:28Z</time>
   </trkpt>
   <trkpt lat="-3.1132420" lon="37.3783780">
    <ele>4287.3</ele>
    <time>2026-06-23T10:15:29Z</time>
   </trkpt>
   <trkpt lat="-3.1132450" lon="37.3783730">
    <ele>4287.2</ele>
    <time>2026-06-23T10:15:30Z</time>
   </trkpt>
   <trkpt lat="-3.1132500" lon="37.3783670">
    <ele>4287.0</ele>
    <time>2026-06-23T10:15:31Z</time>
   </trkpt>
   <trkpt lat="-3.1132550" lon="37.3783610">
    <ele>4286.9</ele>
    <time>2026-06-23T10:15:32Z</time>
   </trkpt>
   <trkpt lat="-3.1132610" lon="37.3783580">
    <ele>4286.8</ele>
    <time>2026-06-23T10:15:33Z</time>
   </trkpt>
   <trkpt lat="-3.1132680" lon="37.3783560">
    <ele>4286.6</ele>
    <time>2026-06-23T10:15:34Z</time>
   </trkpt>
   <trkpt lat="-3.1132750" lon="37.3783560">
    <ele>4286.5</ele>
    <time>2026-06-23T10:15:35Z</time>
   </trkpt>
   <trkpt lat="-3.1132820" lon="37.3783590">
    <ele>4286.3</ele>
    <time>2026-06-23T10:15:36Z</time>
   </trkpt>
   <trkpt lat="-3.1132880" lon="37.3783620">
    <ele>4286.2</ele>
    <time>2026-06-23T10:15:37Z</time>
   </trkpt>
   <trkpt lat="-3.1132980" lon="37.3783660">
    <ele>4286.0</ele>
    <time>2026-06-23T10:15:38Z</time>
   </trkpt>
   <trkpt lat="-3.1133050" lon="37.3783690">
    <ele>4285.9</ele>
    <time>2026-06-23T10:15:39Z</time>
   </trkpt>
   <trkpt lat="-3.1133120" lon="37.3783700">
    <ele>4285.7</ele>
    <time>2026-06-23T10:15:40Z</time>
   </trkpt>
   <trkpt lat="-3.1133190" lon="37.3783700">
    <ele>4285.6</ele>
    <time>2026-06-23T10:15:41Z</time>
   </trkpt>
   <trkpt lat="-3.1133270" lon="37.3783700">
    <ele>4285.4</ele>
    <time>2026-06-23T10:15:42Z</time>
   </trkpt>
   <trkpt lat="-3.1133340" lon="37.3783710">
    <ele>4285.3</ele>
    <time>2026-06-23T10:15:43Z</time>
   </trkpt>
   <trkpt lat="-3.1133420" lon="37.3783690">
    <ele>4285.2</ele>
    <time>2026-06-23T10:15:44Z</time>
   </trkpt>
   <trkpt lat="-3.1133480" lon="37.3783650">
    <ele>4285.0</ele>
    <time>2026-06-23T10:15:45Z</time>
   </trkpt>
   <trkpt lat="-3.1133550" lon="37.3783620">
    <ele>4284.9</ele>
    <time>2026-06-23T10:15:46Z</time>
   </trkpt>
   <trkpt lat="-3.1133620" lon="37.3783610">
    <ele>4284.7</ele>
    <time>2026-06-23T10:15:47Z</time>
   </trkpt>
   <trkpt lat="-3.1133690" lon="37.3783610">
    <ele>4284.6</ele>
    <time>2026-06-23T10:15:48Z</time>
   </trkpt>
   <trkpt lat="-3.1133740" lon="37.3783630">
    <ele>4284.5</ele>
    <time>2026-06-23T10:15:49Z</time>
   </trkpt>
   <trkpt lat="-3.1133810" lon="37.3783650">
    <ele>4284.4</ele>
    <time>2026-06-23T10:15:51Z</time>
   </trkpt>
   <trkpt lat="-3.1133880" lon="37.3783660">
    <ele>4284.2</ele>
    <time>2026-06-23T10:15:52Z</time>
   </trkpt>
   <trkpt lat="-3.1133950" lon="37.3783650">
    <ele>4284.1</ele>
    <time>2026-06-23T10:15:53Z</time>
   </trkpt>
   <trkpt lat="-3.1134040" lon="37.3783640">
    <ele>4283.9</ele>
    <time>2026-06-23T10:15:54Z</time>
   </trkpt>
   <trkpt lat="-3.1134130" lon="37.3783630">
    <ele>4283.7</ele>
    <time>2026-06-23T10:15:55Z</time>
   </trkpt>
   <trkpt lat="-3.1134200" lon="37.3783620">
    <ele>4283.6</ele>
    <time>2026-06-23T10:15:56Z</time>
   </trkpt>
   <trkpt lat="-3.1134270" lon="37.3783590">
    <ele>4283.4</ele>
    <time>2026-06-23T10:15:57Z</time>
   </trkpt>
   <trkpt lat="-3.1134330" lon="37.3783550">
    <ele>4283.3</ele>
    <time>2026-06-23T10:15:58Z</time>
   </trkpt>
   <trkpt lat="-3.1134400" lon="37.3783510">
    <ele>4283.1</ele>
    <time>2026-06-23T10:15:59Z</time>
   </trkpt>
   <trkpt lat="-3.1134460" lon="37.3783480">
    <ele>4283.0</ele>
    <time>2026-06-23T10:16:00Z</time>
   </trkpt>
   <trkpt lat="-3.1134510" lon="37.3783440">
    <ele>4282.8</ele>
    <time>2026-06-23T10:16:01Z</time>
   </trkpt>
   <trkpt lat="-3.1134570" lon="37.3783400">
    <ele>4282.7</ele>
    <time>2026-06-23T10:16:02Z</time>
   </trkpt>
   <trkpt lat="-3.1134630" lon="37.3783380">
    <ele>4282.6</ele>
    <time>2026-06-23T10:16:03Z</time>
   </trkpt>
   <trkpt lat="-3.1134660" lon="37.3783350">
    <ele>4282.5</ele>
    <time>2026-06-23T10:16:04Z</time>
   </trkpt>
   <trkpt lat="-3.1134730" lon="37.3783310">
    <ele>4282.3</ele>
    <time>2026-06-23T10:16:05Z</time>
   </trkpt>
   <trkpt lat="-3.1134780" lon="37.3783270">
    <ele>4282.2</ele>
    <time>2026-06-23T10:16:06Z</time>
   </trkpt>
   <trkpt lat="-3.1134840" lon="37.3783250">
    <ele>4282.1</ele>
    <time>2026-06-23T10:16:07Z</time>
   </trkpt>
   <trkpt lat="-3.1134910" lon="37.3783230">
    <ele>4281.9</ele>
    <time>2026-06-23T10:16:08Z</time>
   </trkpt>
   <trkpt lat="-3.1134990" lon="37.3783220">
    <ele>4281.7</ele>
    <time>2026-06-23T10:16:09Z</time>
   </trkpt>
   <trkpt lat="-3.1135070" lon="37.3783200">
    <ele>4281.5</ele>
    <time>2026-06-23T10:16:10Z</time>
   </trkpt>
   <trkpt lat="-3.1135130" lon="37.3783180">
    <ele>4281.4</ele>
    <time>2026-06-23T10:16:11Z</time>
   </trkpt>
   <trkpt lat="-3.1135220" lon="37.3783140">
    <ele>4281.2</ele>
    <time>2026-06-23T10:16:12Z</time>
   </trkpt>
   <trkpt lat="-3.1135270" lon="37.3783120">
    <ele>4281.1</ele>
    <time>2026-06-23T10:16:13Z</time>
   </trkpt>
   <trkpt lat="-3.1135320" lon="37.3783070">
    <ele>4280.9</ele>
    <time>2026-06-23T10:16:14Z</time>
   </trkpt>
   <trkpt lat="-3.1135390" lon="37.3783030">
    <ele>4280.7</ele>
    <time>2026-06-23T10:16:15Z</time>
   </trkpt>
   <trkpt lat="-3.1135440" lon="37.3783000">
    <ele>4280.6</ele>
    <time>2026-06-23T10:16:16Z</time>
   </trkpt>
   <trkpt lat="-3.1135520" lon="37.3782950">
    <ele>4280.4</ele>
    <time>2026-06-23T10:16:17Z</time>
   </trkpt>
   <trkpt lat="-3.1135580" lon="37.3782930">
    <ele>4280.3</ele>
    <time>2026-06-23T10:16:18Z</time>
   </trkpt>
   <trkpt lat="-3.1135610" lon="37.3782920">
    <ele>4280.2</ele>
    <time>2026-06-23T10:16:19Z</time>
   </trkpt>
   <trkpt lat="-3.1135700" lon="37.3782890">
    <ele>4280.0</ele>
    <time>2026-06-23T10:16:20Z</time>
   </trkpt>
   <trkpt lat="-3.1135870" lon="37.3782910">
    <ele>4279.6</ele>
    <time>2026-06-23T10:16:21Z</time>
   </trkpt>
   <trkpt lat="-3.1135920" lon="37.3782890">
    <ele>4279.5</ele>
    <time>2026-06-23T10:16:22Z</time>
   </trkpt>
   <trkpt lat="-3.1135990" lon="37.3782870">
    <ele>4279.4</ele>
    <time>2026-06-23T10:16:23Z</time>
   </trkpt>
   <trkpt lat="-3.1136030" lon="37.3782850">
    <ele>4279.3</ele>
    <time>2026-06-23T10:16:24Z</time>
   </trkpt>
   <trkpt lat="-3.1136100" lon="37.3782830">
    <ele>4279.1</ele>
    <time>2026-06-23T10:16:25Z</time>
   </trkpt>
   <trkpt lat="-3.1136140" lon="37.3782810">
    <ele>4279.0</ele>
    <time>2026-06-23T10:16:26Z</time>
   </trkpt>
   <trkpt lat="-3.1136190" lon="37.3782810">
    <ele>4278.9</ele>
    <time>2026-06-23T10:16:27Z</time>
   </trkpt>
   <trkpt lat="-3.1136220" lon="37.3782830">
    <ele>4278.8</ele>
    <time>2026-06-23T10:16:28Z</time>
   </trkpt>
   <trkpt lat="-3.1136280" lon="37.3782850">
    <ele>4278.7</ele>
    <time>2026-06-23T10:16:29Z</time>
   </trkpt>
   <trkpt lat="-3.1136320" lon="37.3782880">
    <ele>4278.6</ele>
    <time>2026-06-23T10:16:30Z</time>
   </trkpt>
   <trkpt lat="-3.1136360" lon="37.3782890">
    <ele>4278.5</ele>
    <time>2026-06-23T10:16:31Z</time>
   </trkpt>
   <trkpt lat="-3.1136430" lon="37.3782910">
    <ele>4278.3</ele>
    <time>2026-06-23T10:16:32Z</time>
   </trkpt>
   <trkpt lat="-3.1136460" lon="37.3782950">
    <ele>4278.2</ele>
    <time>2026-06-23T10:16:33Z</time>
   </trkpt>
   <trkpt lat="-3.1136530" lon="37.3782980">
    <ele>4278.0</ele>
    <time>2026-06-23T10:16:34Z</time>
   </trkpt>
   <trkpt lat="-3.1136590" lon="37.3783020">
    <ele>4277.9</ele>
    <time>2026-06-23T10:16:35Z</time>
   </trkpt>
   <trkpt lat="-3.1136670" lon="37.3783030">
    <ele>4277.7</ele>
    <time>2026-06-23T10:16:36Z</time>
   </trkpt>
   <trkpt lat="-3.1136730" lon="37.3783050">
    <ele>4277.6</ele>
    <time>2026-06-23T10:16:37Z</time>
   </trkpt>
   <trkpt lat="-3.1136780" lon="37.3783070">
    <ele>4277.5</ele>
    <time>2026-06-23T10:16:38Z</time>
   </trkpt>
   <trkpt lat="-3.1136850" lon="37.3783070">
    <ele>4277.3</ele>
    <time>2026-06-23T10:16:39Z</time>
   </trkpt>
   <trkpt lat="-3.1136920" lon="37.3783050">
    <ele>4277.2</ele>
    <time>2026-06-23T10:16:40Z</time>
   </trkpt>
   <trkpt lat="-3.1136990" lon="37.3783040">
    <ele>4277.0</ele>
    <time>2026-06-23T10:16:41Z</time>
   </trkpt>
   <trkpt lat="-3.1137050" lon="37.3783030">
    <ele>4276.9</ele>
    <time>2026-06-23T10:16:42Z</time>
   </trkpt>
   <trkpt lat="-3.1137120" lon="37.3783010">
    <ele>4276.7</ele>
    <time>2026-06-23T10:16:43Z</time>
   </trkpt>
   <trkpt lat="-3.1137160" lon="37.3782990">
    <ele>4276.6</ele>
    <time>2026-06-23T10:16:44Z</time>
   </trkpt>
   <trkpt lat="-3.1137220" lon="37.3782970">
    <ele>4276.5</ele>
    <time>2026-06-23T10:16:45Z</time>
   </trkpt>
   <trkpt lat="-3.1137310" lon="37.3782930">
    <ele>4276.3</ele>
    <time>2026-06-23T10:16:46Z</time>
   </trkpt>
   <trkpt lat="-3.1137360" lon="37.3782910">
    <ele>4276.2</ele>
    <time>2026-06-23T10:16:47Z</time>
   </trkpt>
   <trkpt lat="-3.1137440" lon="37.3782910">
    <ele>4276.0</ele>
    <time>2026-06-23T10:16:48Z</time>
   </trkpt>
   <trkpt lat="-3.1137470" lon="37.3782910">
    <ele>4276.0</ele>
    <time>2026-06-23T10:16:49Z</time>
   </trkpt>
   <trkpt lat="-3.1137510" lon="37.3782930">
    <ele>4275.9</ele>
    <time>2026-06-23T10:16:50Z</time>
   </trkpt>
   <trkpt lat="-3.1137560" lon="37.3782950">
    <ele>4275.8</ele>
    <time>2026-06-23T10:16:51Z</time>
   </trkpt>
   <trkpt lat="-3.1137650" lon="37.3782980">
    <ele>4275.6</ele>
    <time>2026-06-23T10:16:52Z</time>
   </trkpt>
   <trkpt lat="-3.1137730" lon="37.3783010">
    <ele>4275.4</ele>
    <time>2026-06-23T10:16:53Z</time>
   </trkpt>
   <trkpt lat="-3.1137800" lon="37.3783030">
    <ele>4275.3</ele>
    <time>2026-06-23T10:16:54Z</time>
   </trkpt>
   <trkpt lat="-3.1137840" lon="37.3783050">
    <ele>4275.2</ele>
    <time>2026-06-23T10:16:55Z</time>
   </trkpt>
   <trkpt lat="-3.1137920" lon="37.3783070">
    <ele>4275.0</ele>
    <time>2026-06-23T10:16:56Z</time>
   </trkpt>
   <trkpt lat="-3.1137990" lon="37.3783070">
    <ele>4274.9</ele>
    <time>2026-06-23T10:16:57Z</time>
   </trkpt>
   <trkpt lat="-3.1138050" lon="37.3783040">
    <ele>4274.8</ele>
    <time>2026-06-23T10:16:58Z</time>
   </trkpt>
   <trkpt lat="-3.1138120" lon="37.3783020">
    <ele>4274.6</ele>
    <time>2026-06-23T10:16:59Z</time>
   </trkpt>
   <trkpt lat="-3.1138220" lon="37.3782990">
    <ele>4274.4</ele>
    <time>2026-06-23T10:17:00Z</time>
   </trkpt>
   <trkpt lat="-3.1138270" lon="37.3783000">
    <ele>4274.3</ele>
    <time>2026-06-23T10:17:01Z</time>
   </trkpt>
   <trkpt lat="-3.1138330" lon="37.3783030">
    <ele>4274.2</ele>
    <time>2026-06-23T10:17:02Z</time>
   </trkpt>
   <trkpt lat="-3.1138380" lon="37.3783060">
    <ele>4274.1</ele>
    <time>2026-06-23T10:17:03Z</time>
   </trkpt>
   <trkpt lat="-3.1138440" lon="37.3783090">
    <ele>4273.9</ele>
    <time>2026-06-23T10:17:04Z</time>
   </trkpt>
   <trkpt lat="-3.1138490" lon="37.3783100">
    <ele>4273.8</ele>
    <time>2026-06-23T10:17:05Z</time>
   </trkpt>
   <trkpt lat="-3.1138560" lon="37.3783150">
    <ele>4273.7</ele>
    <time>2026-06-23T10:17:06Z</time>
   </trkpt>
   <trkpt lat="-3.1138600" lon="37.3783170">
    <ele>4273.6</ele>
    <time>2026-06-23T10:17:07Z</time>
   </trkpt>
   <trkpt lat="-3.1138650" lon="37.3783170">
    <ele>4273.5</ele>
    <time>2026-06-23T10:17:08Z</time>
   </trkpt>
   <trkpt lat="-3.1138720" lon="37.3783190">
    <ele>4273.4</ele>
    <time>2026-06-23T10:17:09Z</time>
   </trkpt>
   <trkpt lat="-3.1138780" lon="37.3783190">
    <ele>4273.3</ele>
    <time>2026-06-23T10:17:10Z</time>
   </trkpt>
   <trkpt lat="-3.1138860" lon="37.3783180">
    <ele>4273.1</ele>
    <time>2026-06-23T10:17:11Z</time>
   </trkpt>
   <trkpt lat="-3.1138940" lon="37.3783170">
    <ele>4273.0</ele>
    <time>2026-06-23T10:17:12Z</time>
   </trkpt>
   <trkpt lat="-3.1139000" lon="37.3783170">
    <ele>4272.9</ele>
    <time>2026-06-23T10:17:13Z</time>
   </trkpt>
   <trkpt lat="-3.1139100" lon="37.3783180">
    <ele>4272.7</ele>
    <time>2026-06-23T10:17:14Z</time>
   </trkpt>
   <trkpt lat="-3.1139160" lon="37.3783200">
    <ele>4272.6</ele>
    <time>2026-06-23T10:17:15Z</time>
   </trkpt>
   <trkpt lat="-3.1139230" lon="37.3783210">
    <ele>4272.5</ele>
    <time>2026-06-23T10:17:16Z</time>
   </trkpt>
   <trkpt lat="-3.1139300" lon="37.3783220">
    <ele>4272.4</ele>
    <time>2026-06-23T10:17:17Z</time>
   </trkpt>
   <trkpt lat="-3.1139380" lon="37.3783220">
    <ele>4272.2</ele>
    <time>2026-06-23T10:17:18Z</time>
   </trkpt>
   <trkpt lat="-3.1139450" lon="37.3783220">
    <ele>4272.1</ele>
    <time>2026-06-23T10:17:19Z</time>
   </trkpt>
   <trkpt lat="-3.1139540" lon="37.3783210">
    <ele>4272.0</ele>
    <time>2026-06-23T10:17:20Z</time>
   </trkpt>
   <trkpt lat="-3.1139640" lon="37.3783210">
    <ele>4271.8</ele>
    <time>2026-06-23T10:17:21Z</time>
   </trkpt>
   <trkpt lat="-3.1139700" lon="37.3783240">
    <ele>4271.7</ele>
    <time>2026-06-23T10:17:22Z</time>
   </trkpt>
   <trkpt lat="-3.1139790" lon="37.3783290">
    <ele>4271.6</ele>
    <time>2026-06-23T10:17:23Z</time>
   </trkpt>
   <trkpt lat="-3.1139870" lon="37.3783350">
    <ele>4271.4</ele>
    <time>2026-06-23T10:17:24Z</time>
   </trkpt>
   <trkpt lat="-3.1139920" lon="37.3783410">
    <ele>4271.3</ele>
    <time>2026-06-23T10:17:25Z</time>
   </trkpt>
   <trkpt lat="-3.1139990" lon="37.3783470">
    <ele>4271.2</ele>
    <time>2026-06-23T10:17:26Z</time>
   </trkpt>
   <trkpt lat="-3.1140070" lon="37.3783500">
    <ele>4271.0</ele>
    <time>2026-06-23T10:17:27Z</time>
   </trkpt>
   <trkpt lat="-3.1140150" lon="37.3783530">
    <ele>4270.9</ele>
    <time>2026-06-23T10:17:28Z</time>
   </trkpt>
   <trkpt lat="-3.1140250" lon="37.3783550">
    <ele>4270.7</ele>
    <time>2026-06-23T10:17:29Z</time>
   </trkpt>
   <trkpt lat="-3.1140340" lon="37.3783590">
    <ele>4270.6</ele>
    <time>2026-06-23T10:17:30Z</time>
   </trkpt>
   <trkpt lat="-3.1140420" lon="37.3783630">
    <ele>4270.5</ele>
    <time>2026-06-23T10:17:31Z</time>
   </trkpt>
   <trkpt lat="-3.1140530" lon="37.3783680">
    <ele>4270.3</ele>
    <time>2026-06-23T10:17:32Z</time>
   </trkpt>
   <trkpt lat="-3.1140600" lon="37.3783720">
    <ele>4270.2</ele>
    <time>2026-06-23T10:17:33Z</time>
   </trkpt>
   <trkpt lat="-3.1140690" lon="37.3783730">
    <ele>4270.0</ele>
    <time>2026-06-23T10:17:34Z</time>
   </trkpt>
   <trkpt lat="-3.1140770" lon="37.3783720">
    <ele>4269.9</ele>
    <time>2026-06-23T10:17:35Z</time>
   </trkpt>
   <trkpt lat="-3.1140840" lon="37.3783690">
    <ele>4269.8</ele>
    <time>2026-06-23T10:17:36Z</time>
   </trkpt>
   <trkpt lat="-3.1140930" lon="37.3783650">
    <ele>4269.7</ele>
    <time>2026-06-23T10:17:37Z</time>
   </trkpt>
   <trkpt lat="-3.1141000" lon="37.3783600">
    <ele>4269.6</ele>
    <time>2026-06-23T10:17:38Z</time>
   </trkpt>
   <trkpt lat="-3.1141050" lon="37.3783530">
    <ele>4269.4</ele>
    <time>2026-06-23T10:17:39Z</time>
   </trkpt>
   <trkpt lat="-3.1141100" lon="37.3783450">
    <ele>4269.3</ele>
    <time>2026-06-23T10:17:40Z</time>
   </trkpt>
   <trkpt lat="-3.1141140" lon="37.3783370">
    <ele>4269.2</ele>
    <time>2026-06-23T10:17:41Z</time>
   </trkpt>
   <trkpt lat="-3.1141160" lon="37.3783280">
    <ele>4269.1</ele>
    <time>2026-06-23T10:17:42Z</time>
   </trkpt>
   <trkpt lat="-3.1141200" lon="37.3783210">
    <ele>4268.9</ele>
    <time>2026-06-23T10:17:43Z</time>
   </trkpt>
   <trkpt lat="-3.1141230" lon="37.3783130">
    <ele>4268.8</ele>
    <time>2026-06-23T10:17:44Z</time>
   </trkpt>
   <trkpt lat="-3.1141250" lon="37.3783050">
    <ele>4268.7</ele>
    <time>2026-06-23T10:17:45Z</time>
   </trkpt>
   <trkpt lat="-3.1141280" lon="37.3782990">
    <ele>4268.6</ele>
    <time>2026-06-23T10:17:46Z</time>
   </trkpt>
   <trkpt lat="-3.1141350" lon="37.3782940">
    <ele>4268.5</ele>
    <time>2026-06-23T10:17:47Z</time>
   </trkpt>
   <trkpt lat="-3.1141450" lon="37.3782910">
    <ele>4268.4</ele>
    <time>2026-06-23T10:17:48Z</time>
   </trkpt>
   <trkpt lat="-3.1141540" lon="37.3782910">
    <ele>4268.2</ele>
    <time>2026-06-23T10:17:49Z</time>
   </trkpt>
   <trkpt lat="-3.1141620" lon="37.3782920">
    <ele>4268.1</ele>
    <time>2026-06-23T10:17:50Z</time>
   </trkpt>
   <trkpt lat="-3.1141730" lon="37.3782950">
    <ele>4268.0</ele>
    <time>2026-06-23T10:17:51Z</time>
   </trkpt>
   <trkpt lat="-3.1141800" lon="37.3782970">
    <ele>4267.9</ele>
    <time>2026-06-23T10:17:52Z</time>
   </trkpt>
   <trkpt lat="-3.1141880" lon="37.3783000">
    <ele>4267.7</ele>
    <time>2026-06-23T10:17:53Z</time>
   </trkpt>
   <trkpt lat="-3.1141960" lon="37.3783030">
    <ele>4267.6</ele>
    <time>2026-06-23T10:17:54Z</time>
   </trkpt>
   <trkpt lat="-3.1142020" lon="37.3783020">
    <ele>4267.5</ele>
    <time>2026-06-23T10:17:55Z</time>
   </trkpt>
   <trkpt lat="-3.1142070" lon="37.3782980">
    <ele>4267.4</ele>
    <time>2026-06-23T10:17:57Z</time>
   </trkpt>
   <trkpt lat="-3.1142190" lon="37.3782940">
    <ele>4267.3</ele>
    <time>2026-06-23T10:17:58Z</time>
   </trkpt>
   <trkpt lat="-3.1142230" lon="37.3782860">
    <ele>4267.1</ele>
    <time>2026-06-23T10:17:59Z</time>
   </trkpt>
   <trkpt lat="-3.1142260" lon="37.3782780">
    <ele>4267.0</ele>
    <time>2026-06-23T10:18:00Z</time>
   </trkpt>
   <trkpt lat="-3.1142300" lon="37.3782710">
    <ele>4266.9</ele>
    <time>2026-06-23T10:18:01Z</time>
   </trkpt>
   <trkpt lat="-3.1142370" lon="37.3782630">
    <ele>4266.8</ele>
    <time>2026-06-23T10:18:02Z</time>
   </trkpt>
   <trkpt lat="-3.1142430" lon="37.3782580">
    <ele>4266.7</ele>
    <time>2026-06-23T10:18:03Z</time>
   </trkpt>
   <trkpt lat="-3.1142470" lon="37.3782530">
    <ele>4266.6</ele>
    <time>2026-06-23T10:18:04Z</time>
   </trkpt>
   <trkpt lat="-3.1142520" lon="37.3782470">
    <ele>4266.5</ele>
    <time>2026-06-23T10:18:05Z</time>
   </trkpt>
   <trkpt lat="-3.1142570" lon="37.3782410">
    <ele>4266.4</ele>
    <time>2026-06-23T10:18:06Z</time>
   </trkpt>
   <trkpt lat="-3.1142620" lon="37.3782350">
    <ele>4266.2</ele>
    <time>2026-06-23T10:18:07Z</time>
   </trkpt>
   <trkpt lat="-3.1142660" lon="37.3782270">
    <ele>4266.1</ele>
    <time>2026-06-23T10:18:08Z</time>
   </trkpt>
   <trkpt lat="-3.1142680" lon="37.3782210">
    <ele>4266.0</ele>
    <time>2026-06-23T10:18:09Z</time>
   </trkpt>
   <trkpt lat="-3.1142730" lon="37.3782160">
    <ele>4265.9</ele>
    <time>2026-06-23T10:18:10Z</time>
   </trkpt>
   <trkpt lat="-3.1142790" lon="37.3782080">
    <ele>4265.8</ele>
    <time>2026-06-23T10:18:11Z</time>
   </trkpt>
   <trkpt lat="-3.1142870" lon="37.3782010">
    <ele>4265.7</ele>
    <time>2026-06-23T10:18:12Z</time>
   </trkpt>
   <trkpt lat="-3.1142940" lon="37.3781990">
    <ele>4265.6</ele>
    <time>2026-06-23T10:18:13Z</time>
   </trkpt>
   <trkpt lat="-3.1143010" lon="37.3782000">
    <ele>4265.5</ele>
    <time>2026-06-23T10:18:14Z</time>
   </trkpt>
   <trkpt lat="-3.1143110" lon="37.3782010">
    <ele>4265.4</ele>
    <time>2026-06-23T10:18:15Z</time>
   </trkpt>
   <trkpt lat="-3.1143170" lon="37.3782000">
    <ele>4265.3</ele>
    <time>2026-06-23T10:18:16Z</time>
   </trkpt>
   <trkpt lat="-3.1143250" lon="37.3781980">
    <ele>4265.2</ele>
    <time>2026-06-23T10:18:17Z</time>
   </trkpt>
   <trkpt lat="-3.1143310" lon="37.3781930">
    <ele>4265.1</ele>
    <time>2026-06-23T10:18:18Z</time>
   </trkpt>
   <trkpt lat="-3.1143390" lon="37.3781890">
    <ele>4265.0</ele>
    <time>2026-06-23T10:18:19Z</time>
   </trkpt>
   <trkpt lat="-3.1143470" lon="37.3781840">
    <ele>4264.8</ele>
    <time>2026-06-23T10:18:20Z</time>
   </trkpt>
   <trkpt lat="-3.1143530" lon="37.3781790">
    <ele>4264.8</ele>
    <time>2026-06-23T10:18:21Z</time>
   </trkpt>
   <trkpt lat="-3.1143680" lon="37.3781660">
    <ele>4264.5</ele>
    <time>2026-06-23T10:18:22Z</time>
   </trkpt>
   <trkpt lat="-3.1143690" lon="37.3781570">
    <ele>4264.4</ele>
    <time>2026-06-23T10:18:23Z</time>
   </trkpt>
   <trkpt lat="-3.1143730" lon="37.3781490">
    <ele>4264.3</ele>
    <time>2026-06-23T10:18:24Z</time>
   </trkpt>
   <trkpt lat="-3.1143800" lon="37.3781400">
    <ele>4264.1</ele>
    <time>2026-06-23T10:18:25Z</time>
   </trkpt>
   <trkpt lat="-3.1143880" lon="37.3781340">
    <ele>4264.0</ele>
    <time>2026-06-23T10:18:26Z</time>
   </trkpt>
   <trkpt lat="-3.1143940" lon="37.3781330">
    <ele>4263.9</ele>
    <time>2026-06-23T10:18:27Z</time>
   </trkpt>
   <trkpt lat="-3.1144050" lon="37.3781290">
    <ele>4263.8</ele>
    <time>2026-06-23T10:18:28Z</time>
   </trkpt>
   <trkpt lat="-3.1144100" lon="37.3781310">
    <ele>4263.7</ele>
    <time>2026-06-23T10:18:29Z</time>
   </trkpt>
   <trkpt lat="-3.1144160" lon="37.3781310">
    <ele>4263.7</ele>
    <time>2026-06-23T10:18:30Z</time>
   </trkpt>
   <trkpt lat="-3.1144250" lon="37.3781290">
    <ele>4263.6</ele>
    <time>2026-06-23T10:18:31Z</time>
   </trkpt>
   <trkpt lat="-3.1144350" lon="37.3781230">
    <ele>4263.4</ele>
    <time>2026-06-23T10:18:32Z</time>
   </trkpt>
   <trkpt lat="-3.1144420" lon="37.3781190">
    <ele>4263.3</ele>
    <time>2026-06-23T10:18:33Z</time>
   </trkpt>
   <trkpt lat="-3.1144510" lon="37.3781170">
    <ele>4263.2</ele>
    <time>2026-06-23T10:18:34Z</time>
   </trkpt>
   <trkpt lat="-3.1144590" lon="37.3781160">
    <ele>4263.1</ele>
    <time>2026-06-23T10:18:35Z</time>
   </trkpt>
   <trkpt lat="-3.1144680" lon="37.3781170">
    <ele>4263.0</ele>
    <time>2026-06-23T10:18:36Z</time>
   </trkpt>
   <trkpt lat="-3.1144770" lon="37.3781170">
    <ele>4262.8</ele>
    <time>2026-06-23T10:18:37Z</time>
   </trkpt>
   <trkpt lat="-3.1144840" lon="37.3781230">
    <ele>4262.7</ele>
    <time>2026-06-23T10:18:38Z</time>
   </trkpt>
   <trkpt lat="-3.1144930" lon="37.3781270">
    <ele>4262.6</ele>
    <time>2026-06-23T10:18:39Z</time>
   </trkpt>
   <trkpt lat="-3.1145010" lon="37.3781300">
    <ele>4262.5</ele>
    <time>2026-06-23T10:18:40Z</time>
   </trkpt>
   <trkpt lat="-3.1145100" lon="37.3781350">
    <ele>4262.3</ele>
    <time>2026-06-23T10:18:41Z</time>
   </trkpt>
   <trkpt lat="-3.1145180" lon="37.3781390">
    <ele>4262.2</ele>
    <time>2026-06-23T10:18:42Z</time>
   </trkpt>
   <trkpt lat="-3.1145260" lon="37.3781390">
    <ele>4262.1</ele>
    <time>2026-06-23T10:18:43Z</time>
   </trkpt>
   <trkpt lat="-3.1145320" lon="37.3781360">
    <ele>4262.0</ele>
    <time>2026-06-23T10:18:44Z</time>
   </trkpt>
   <trkpt lat="-3.1145350" lon="37.3781320">
    <ele>4261.9</ele>
    <time>2026-06-23T10:18:45Z</time>
   </trkpt>
   <trkpt lat="-3.1145410" lon="37.3781300">
    <ele>4261.8</ele>
    <time>2026-06-23T10:18:46Z</time>
   </trkpt>
   <trkpt lat="-3.1145500" lon="37.3781250">
    <ele>4261.7</ele>
    <time>2026-06-23T10:18:47Z</time>
   </trkpt>
   <trkpt lat="-3.1145580" lon="37.3781230">
    <ele>4261.5</ele>
    <time>2026-06-23T10:18:48Z</time>
   </trkpt>
   <trkpt lat="-3.1145650" lon="37.3781190">
    <ele>4261.4</ele>
    <time>2026-06-23T10:18:49Z</time>
   </trkpt>
   <trkpt lat="-3.1145710" lon="37.3781160">
    <ele>4261.3</ele>
    <time>2026-06-23T10:18:50Z</time>
   </trkpt>
   <trkpt lat="-3.1145780" lon="37.3781130">
    <ele>4261.2</ele>
    <time>2026-06-23T10:18:51Z</time>
   </trkpt>
   <trkpt lat="-3.1145840" lon="37.3781110">
    <ele>4261.1</ele>
    <time>2026-06-23T10:18:52Z</time>
   </trkpt>
   <trkpt lat="-3.1145910" lon="37.3781110">
    <ele>4261.0</ele>
    <time>2026-06-23T10:18:53Z</time>
   </trkpt>
   <trkpt lat="-3.1145960" lon="37.3781090">
    <ele>4260.9</ele>
    <time>2026-06-23T10:18:54Z</time>
   </trkpt>
   <trkpt lat="-3.1146060" lon="37.3781070">
    <ele>4260.8</ele>
    <time>2026-06-23T10:18:55Z</time>
   </trkpt>
   <trkpt lat="-3.1146160" lon="37.3781050">
    <ele>4260.6</ele>
    <time>2026-06-23T10:18:56Z</time>
   </trkpt>
   <trkpt lat="-3.1146240" lon="37.3781050">
    <ele>4260.5</ele>
    <time>2026-06-23T10:18:57Z</time>
   </trkpt>
   <trkpt lat="-3.1146300" lon="37.3781040">
    <ele>4260.4</ele>
    <time>2026-06-23T10:18:58Z</time>
   </trkpt>
   <trkpt lat="-3.1146350" lon="37.3781030">
    <ele>4260.3</ele>
    <time>2026-06-23T10:18:59Z</time>
   </trkpt>
   <trkpt lat="-3.1146430" lon="37.3781030">
    <ele>4260.2</ele>
    <time>2026-06-23T10:19:00Z</time>
   </trkpt>
   <trkpt lat="-3.1146500" lon="37.3781010">
    <ele>4260.1</ele>
    <time>2026-06-23T10:19:01Z</time>
   </trkpt>
   <trkpt lat="-3.1146590" lon="37.3780990">
    <ele>4260.0</ele>
    <time>2026-06-23T10:19:02Z</time>
   </trkpt>
   <trkpt lat="-3.1146670" lon="37.3780980">
    <ele>4259.8</ele>
    <time>2026-06-23T10:19:03Z</time>
   </trkpt>
   <trkpt lat="-3.1146740" lon="37.3780970">
    <ele>4259.7</ele>
    <time>2026-06-23T10:19:04Z</time>
   </trkpt>
   <trkpt lat="-3.1146830" lon="37.3780960">
    <ele>4259.6</ele>
    <time>2026-06-23T10:19:05Z</time>
   </trkpt>
   <trkpt lat="-3.1146910" lon="37.3780970">
    <ele>4259.5</ele>
    <time>2026-06-23T10:19:06Z</time>
   </trkpt>
   <trkpt lat="-3.1146970" lon="37.3781000">
    <ele>4259.3</ele>
    <time>2026-06-23T10:19:07Z</time>
   </trkpt>
   <trkpt lat="-3.1147050" lon="37.3781030">
    <ele>4259.2</ele>
    <time>2026-06-23T10:19:08Z</time>
   </trkpt>
   <trkpt lat="-3.1147130" lon="37.3781080">
    <ele>4259.1</ele>
    <time>2026-06-23T10:19:09Z</time>
   </trkpt>
   <trkpt lat="-3.1147200" lon="37.3781140">
    <ele>4258.9</ele>
    <time>2026-06-23T10:19:10Z</time>
   </trkpt>
   <trkpt lat="-3.1147280" lon="37.3781190">
    <ele>4258.8</ele>
    <time>2026-06-23T10:19:11Z</time>
   </trkpt>
   <trkpt lat="-3.1147350" lon="37.3781200">
    <ele>4258.6</ele>
    <time>2026-06-23T10:19:12Z</time>
   </trkpt>
   <trkpt lat="-3.1147440" lon="37.3781220">
    <ele>4258.5</ele>
    <time>2026-06-23T10:19:13Z</time>
   </trkpt>
   <trkpt lat="-3.1147520" lon="37.3781210">
    <ele>4258.4</ele>
    <time>2026-06-23T10:19:14Z</time>
   </trkpt>
   <trkpt lat="-3.1147600" lon="37.3781200">
    <ele>4258.2</ele>
    <time>2026-06-23T10:19:15Z</time>
   </trkpt>
   <trkpt lat="-3.1147690" lon="37.3781170">
    <ele>4258.1</ele>
    <time>2026-06-23T10:19:16Z</time>
   </trkpt>
   <trkpt lat="-3.1147770" lon="37.3781140">
    <ele>4257.9</ele>
    <time>2026-06-23T10:19:17Z</time>
   </trkpt>
   <trkpt lat="-3.1147860" lon="37.3781120">
    <ele>4257.8</ele>
    <time>2026-06-23T10:19:18Z</time>
   </trkpt>
   <trkpt lat="-3.1147940" lon="37.3781090">
    <ele>4257.7</ele>
    <time>2026-06-23T10:19:19Z</time>
   </trkpt>
   <trkpt lat="-3.1148030" lon="37.3781070">
    <ele>4257.5</ele>
    <time>2026-06-23T10:19:20Z</time>
   </trkpt>
   <trkpt lat="-3.1148110" lon="37.3781030">
    <ele>4257.4</ele>
    <time>2026-06-23T10:19:21Z</time>
   </trkpt>
   <trkpt lat="-3.1148170" lon="37.3780990">
    <ele>4257.2</ele>
    <time>2026-06-23T10:19:22Z</time>
   </trkpt>
   <trkpt lat="-3.1148230" lon="37.3780960">
    <ele>4257.1</ele>
    <time>2026-06-23T10:19:23Z</time>
   </trkpt>
   <trkpt lat="-3.1148300" lon="37.3780940">
    <ele>4257.0</ele>
    <time>2026-06-23T10:19:24Z</time>
   </trkpt>
   <trkpt lat="-3.1148400" lon="37.3780910">
    <ele>4256.8</ele>
    <time>2026-06-23T10:19:25Z</time>
   </trkpt>
   <trkpt lat="-3.1148450" lon="37.3780910">
    <ele>4256.8</ele>
    <time>2026-06-23T10:19:26Z</time>
   </trkpt>
   <trkpt lat="-3.1148540" lon="37.3780920">
    <ele>4256.6</ele>
    <time>2026-06-23T10:19:27Z</time>
   </trkpt>
   <trkpt lat="-3.1148650" lon="37.3780910">
    <ele>4256.4</ele>
    <time>2026-06-23T10:19:28Z</time>
   </trkpt>
   <trkpt lat="-3.1148720" lon="37.3780910">
    <ele>4256.3</ele>
    <time>2026-06-23T10:19:29Z</time>
   </trkpt>
   <trkpt lat="-3.1148810" lon="37.3780900">
    <ele>4256.2</ele>
    <time>2026-06-23T10:19:30Z</time>
   </trkpt>
   <trkpt lat="-3.1148870" lon="37.3780880">
    <ele>4256.1</ele>
    <time>2026-06-23T10:19:31Z</time>
   </trkpt>
   <trkpt lat="-3.1148930" lon="37.3780860">
    <ele>4256.0</ele>
    <time>2026-06-23T10:19:32Z</time>
   </trkpt>
   <trkpt lat="-3.1149010" lon="37.3780830">
    <ele>4255.8</ele>
    <time>2026-06-23T10:19:33Z</time>
   </trkpt>
   <trkpt lat="-3.1149090" lon="37.3780800">
    <ele>4255.7</ele>
    <time>2026-06-23T10:19:34Z</time>
   </trkpt>
   <trkpt lat="-3.1149150" lon="37.3780770">
    <ele>4255.6</ele>
    <time>2026-06-23T10:19:35Z</time>
   </trkpt>
   <trkpt lat="-3.1149250" lon="37.3780750">
    <ele>4255.4</ele>
    <time>2026-06-23T10:19:36Z</time>
   </trkpt>
   <trkpt lat="-3.1149360" lon="37.3780730">
    <ele>4255.3</ele>
    <time>2026-06-23T10:19:37Z</time>
   </trkpt>
   <trkpt lat="-3.1149430" lon="37.3780730">
    <ele>4255.1</ele>
    <time>2026-06-23T10:19:38Z</time>
   </trkpt>
   <trkpt lat="-3.1149520" lon="37.3780710">
    <ele>4255.0</ele>
    <time>2026-06-23T10:19:39Z</time>
   </trkpt>
   <trkpt lat="-3.1149590" lon="37.3780710">
    <ele>4254.9</ele>
    <time>2026-06-23T10:19:40Z</time>
   </trkpt>
   <trkpt lat="-3.1149670" lon="37.3780710">
    <ele>4254.7</ele>
    <time>2026-06-23T10:19:41Z</time>
   </trkpt>
   <trkpt lat="-3.1149750" lon="37.3780710">
    <ele>4254.6</ele>
    <time>2026-06-23T10:19:42Z</time>
   </trkpt>
   <trkpt lat="-3.1149850" lon="37.3780690">
    <ele>4254.4</ele>
    <time>2026-06-23T10:19:43Z</time>
   </trkpt>
   <trkpt lat="-3.1149930" lon="37.3780670">
    <ele>4254.3</ele>
    <time>2026-06-23T10:19:44Z</time>
   </trkpt>
   <trkpt lat="-3.1150000" lon="37.3780640">
    <ele>4254.2</ele>
    <time>2026-06-23T10:19:45Z</time>
   </trkpt>
   <trkpt lat="-3.1150090" lon="37.3780590">
    <ele>4254.0</ele>
    <time>2026-06-23T10:19:46Z</time>
   </trkpt>
   <trkpt lat="-3.1150160" lon="37.3780540">
    <ele>4253.8</ele>
    <time>2026-06-23T10:19:47Z</time>
   </trkpt>
   <trkpt lat="-3.1150240" lon="37.3780500">
    <ele>4253.7</ele>
    <time>2026-06-23T10:19:48Z</time>
   </trkpt>
   <trkpt lat="-3.1150320" lon="37.3780460">
    <ele>4253.5</ele>
    <time>2026-06-23T10:19:49Z</time>
   </trkpt>
   <trkpt lat="-3.1150420" lon="37.3780450">
    <ele>4253.4</ele>
    <time>2026-06-23T10:19:50Z</time>
   </trkpt>
   <trkpt lat="-3.1150520" lon="37.3780450">
    <ele>4253.2</ele>
    <time>2026-06-23T10:19:51Z</time>
   </trkpt>
   <trkpt lat="-3.1150610" lon="37.3780440">
    <ele>4253.0</ele>
    <time>2026-06-23T10:19:52Z</time>
   </trkpt>
   <trkpt lat="-3.1150700" lon="37.3780430">
    <ele>4252.9</ele>
    <time>2026-06-23T10:19:53Z</time>
   </trkpt>
   <trkpt lat="-3.1150780" lon="37.3780420">
    <ele>4252.7</ele>
    <time>2026-06-23T10:19:54Z</time>
   </trkpt>
   <trkpt lat="-3.1150850" lon="37.3780410">
    <ele>4252.6</ele>
    <time>2026-06-23T10:19:55Z</time>
   </trkpt>
   <trkpt lat="-3.1150910" lon="37.3780390">
    <ele>4252.5</ele>
    <time>2026-06-23T10:19:56Z</time>
   </trkpt>
   <trkpt lat="-3.1150980" lon="37.3780370">
    <ele>4252.4</ele>
    <time>2026-06-23T10:19:57Z</time>
   </trkpt>
   <trkpt lat="-3.1151050" lon="37.3780390">
    <ele>4252.3</ele>
    <time>2026-06-23T10:19:58Z</time>
   </trkpt>
   <trkpt lat="-3.1151140" lon="37.3780420">
    <ele>4252.1</ele>
    <time>2026-06-23T10:19:59Z</time>
   </trkpt>
   <trkpt lat="-3.1151230" lon="37.3780460">
    <ele>4252.0</ele>
    <time>2026-06-23T10:20:00Z</time>
   </trkpt>
   <trkpt lat="-3.1151320" lon="37.3780480">
    <ele>4251.8</ele>
    <time>2026-06-23T10:20:01Z</time>
   </trkpt>
   <trkpt lat="-3.1151390" lon="37.3780500">
    <ele>4251.7</ele>
    <time>2026-06-23T10:20:03Z</time>
   </trkpt>
   <trkpt lat="-3.1151470" lon="37.3780500">
    <ele>4251.5</ele>
    <time>2026-06-23T10:20:04Z</time>
   </trkpt>
   <trkpt lat="-3.1151570" lon="37.3780500">
    <ele>4251.4</ele>
    <time>2026-06-23T10:20:05Z</time>
   </trkpt>
   <trkpt lat="-3.1151660" lon="37.3780470">
    <ele>4251.2</ele>
    <time>2026-06-23T10:20:06Z</time>
   </trkpt>
   <trkpt lat="-3.1151750" lon="37.3780420">
    <ele>4251.0</ele>
    <time>2026-06-23T10:20:07Z</time>
   </trkpt>
   <trkpt lat="-3.1151800" lon="37.3780360">
    <ele>4250.9</ele>
    <time>2026-06-23T10:20:08Z</time>
   </trkpt>
   <trkpt lat="-3.1151870" lon="37.3780280">
    <ele>4250.7</ele>
    <time>2026-06-23T10:20:09Z</time>
   </trkpt>
   <trkpt lat="-3.1151950" lon="37.3780240">
    <ele>4250.6</ele>
    <time>2026-06-23T10:20:10Z</time>
   </trkpt>
   <trkpt lat="-3.1152010" lon="37.3780200">
    <ele>4250.4</ele>
    <time>2026-06-23T10:20:11Z</time>
   </trkpt>
   <trkpt lat="-3.1152090" lon="37.3780170">
    <ele>4250.3</ele>
    <time>2026-06-23T10:20:12Z</time>
   </trkpt>
   <trkpt lat="-3.1152170" lon="37.3780140">
    <ele>4250.2</ele>
    <time>2026-06-23T10:20:13Z</time>
   </trkpt>
   <trkpt lat="-3.1152260" lon="37.3780120">
    <ele>4250.0</ele>
    <time>2026-06-23T10:20:14Z</time>
   </trkpt>
   <trkpt lat="-3.1152360" lon="37.3780120">
    <ele>4249.8</ele>
    <time>2026-06-23T10:20:15Z</time>
   </trkpt>
   <trkpt lat="-3.1152450" lon="37.3780140">
    <ele>4249.7</ele>
    <time>2026-06-23T10:20:16Z</time>
   </trkpt>
   <trkpt lat="-3.1152570" lon="37.3780160">
    <ele>4249.5</ele>
    <time>2026-06-23T10:20:17Z</time>
   </trkpt>
   <trkpt lat="-3.1152660" lon="37.3780160">
    <ele>4249.3</ele>
    <time>2026-06-23T10:20:18Z</time>
   </trkpt>
   <trkpt lat="-3.1152770" lon="37.3780180">
    <ele>4249.2</ele>
    <time>2026-06-23T10:20:19Z</time>
   </trkpt>
   <trkpt lat="-3.1152860" lon="37.3780190">
    <ele>4249.0</ele>
    <time>2026-06-23T10:20:20Z</time>
   </trkpt>
   <trkpt lat="-3.1152950" lon="37.3780160">
    <ele>4248.9</ele>
    <time>2026-06-23T10:20:21Z</time>
   </trkpt>
   <trkpt lat="-3.1153060" lon="37.3780170">
    <ele>4248.7</ele>
    <time>2026-06-23T10:20:22Z</time>
   </trkpt>
   <trkpt lat="-3.1153150" lon="37.3780160">
    <ele>4248.5</ele>
    <time>2026-06-23T10:20:23Z</time>
   </trkpt>
   <trkpt lat="-3.1153240" lon="37.3780130">
    <ele>4248.4</ele>
    <time>2026-06-23T10:20:24Z</time>
   </trkpt>
   <trkpt lat="-3.1153330" lon="37.3780100">
    <ele>4248.2</ele>
    <time>2026-06-23T10:20:25Z</time>
   </trkpt>
   <trkpt lat="-3.1153410" lon="37.3780060">
    <ele>4248.1</ele>
    <time>2026-06-23T10:20:26Z</time>
   </trkpt>
   <trkpt lat="-3.1153500" lon="37.3780020">
    <ele>4247.9</ele>
    <time>2026-06-23T10:20:27Z</time>
   </trkpt>
   <trkpt lat="-3.1153700" lon="37.3780000">
    <ele>4247.6</ele>
    <time>2026-06-23T10:20:28Z</time>
   </trkpt>
   <trkpt lat="-3.1153790" lon="37.3779990">
    <ele>4247.4</ele>
    <time>2026-06-23T10:20:29Z</time>
   </trkpt>
   <trkpt lat="-3.1153870" lon="37.3779960">
    <ele>4247.3</ele>
    <time>2026-06-23T10:20:30Z</time>
   </trkpt>
   <trkpt lat="-3.1153940" lon="37.3779930">
    <ele>4247.2</ele>
    <time>2026-06-23T10:20:31Z</time>
   </trkpt>
   <trkpt lat="-3.1154020" lon="37.3779910">
    <ele>4247.0</ele>
    <time>2026-06-23T10:20:32Z</time>
   </trkpt>
   <trkpt lat="-3.1154100" lon="37.3779890">
    <ele>4246.9</ele>
    <time>2026-06-23T10:20:33Z</time>
   </trkpt>
   <trkpt lat="-3.1154180" lon="37.3779840">
    <ele>4246.8</ele>
    <time>2026-06-23T10:20:34Z</time>
   </trkpt>
   <trkpt lat="-3.1154250" lon="37.3779810">
    <ele>4246.6</ele>
    <time>2026-06-23T10:20:35Z</time>
   </trkpt>
   <trkpt lat="-3.1154320" lon="37.3779760">
    <ele>4246.5</ele>
    <time>2026-06-23T10:20:36Z</time>
   </trkpt>
   <trkpt lat="-3.1154420" lon="37.3779720">
    <ele>4246.3</ele>
    <time>2026-06-23T10:20:37Z</time>
   </trkpt>
   <trkpt lat="-3.1154480" lon="37.3779690">
    <ele>4246.2</ele>
    <time>2026-06-23T10:20:38Z</time>
   </trkpt>
   <trkpt lat="-3.1154570" lon="37.3779650">
    <ele>4246.1</ele>
    <time>2026-06-23T10:20:39Z</time>
   </trkpt>
   <trkpt lat="-3.1154670" lon="37.3779620">
    <ele>4245.9</ele>
    <time>2026-06-23T10:20:40Z</time>
   </trkpt>
   <trkpt lat="-3.1154770" lon="37.3779600">
    <ele>4245.7</ele>
    <time>2026-06-23T10:20:41Z</time>
   </trkpt>
   <trkpt lat="-3.1154820" lon="37.3779580">
    <ele>4245.6</ele>
    <time>2026-06-23T10:20:42Z</time>
   </trkpt>
   <trkpt lat="-3.1154900" lon="37.3779560">
    <ele>4245.5</ele>
    <time>2026-06-23T10:20:43Z</time>
   </trkpt>
   <trkpt lat="-3.1155010" lon="37.3779540">
    <ele>4245.3</ele>
    <time>2026-06-23T10:20:44Z</time>
   </trkpt>
   <trkpt lat="-3.1155080" lon="37.3779530">
    <ele>4245.2</ele>
    <time>2026-06-23T10:20:45Z</time>
   </trkpt>
   <trkpt lat="-3.1155160" lon="37.3779510">
    <ele>4245.1</ele>
    <time>2026-06-23T10:20:46Z</time>
   </trkpt>
   <trkpt lat="-3.1155240" lon="37.3779500">
    <ele>4244.9</ele>
    <time>2026-06-23T10:20:47Z</time>
   </trkpt>
   <trkpt lat="-3.1155340" lon="37.3779490">
    <ele>4244.8</ele>
    <time>2026-06-23T10:20:48Z</time>
   </trkpt>
   <trkpt lat="-3.1155400" lon="37.3779500">
    <ele>4244.7</ele>
    <time>2026-06-23T10:20:49Z</time>
   </trkpt>
   <trkpt lat="-3.1155490" lon="37.3779500">
    <ele>4244.5</ele>
    <time>2026-06-23T10:20:50Z</time>
   </trkpt>
   <trkpt lat="-3.1155560" lon="37.3779480">
    <ele>4244.4</ele>
    <time>2026-06-23T10:20:51Z</time>
   </trkpt>
   <trkpt lat="-3.1155670" lon="37.3779430">
    <ele>4244.2</ele>
    <time>2026-06-23T10:20:52Z</time>
   </trkpt>
   <trkpt lat="-3.1155770" lon="37.3779400">
    <ele>4244.0</ele>
    <time>2026-06-23T10:20:53Z</time>
   </trkpt>
   <trkpt lat="-3.1155860" lon="37.3779390">
    <ele>4243.9</ele>
    <time>2026-06-23T10:20:54Z</time>
   </trkpt>
   <trkpt lat="-3.1155930" lon="37.3779380">
    <ele>4243.8</ele>
    <time>2026-06-23T10:20:55Z</time>
   </trkpt>
   <trkpt lat="-3.1155990" lon="37.3779350">
    <ele>4243.7</ele>
    <time>2026-06-23T10:20:56Z</time>
   </trkpt>
   <trkpt lat="-3.1156080" lon="37.3779340">
    <ele>4243.5</ele>
    <time>2026-06-23T10:20:57Z</time>
   </trkpt>
   <trkpt lat="-3.1156180" lon="37.3779310">
    <ele>4243.3</ele>
    <time>2026-06-23T10:20:58Z</time>
   </trkpt>
   <trkpt lat="-3.1156270" lon="37.3779280">
    <ele>4243.2</ele>
    <time>2026-06-23T10:20:59Z</time>
   </trkpt>
   <trkpt lat="-3.1156330" lon="37.3779240">
    <ele>4243.1</ele>
    <time>2026-06-23T10:21:00Z</time>
   </trkpt>
   <trkpt lat="-3.1156380" lon="37.3779180">
    <ele>4242.9</ele>
    <time>2026-06-23T10:21:01Z</time>
   </trkpt>
   <trkpt lat="-3.1156450" lon="37.3779140">
    <ele>4242.8</ele>
    <time>2026-06-23T10:21:02Z</time>
   </trkpt>
   <trkpt lat="-3.1156530" lon="37.3779100">
    <ele>4242.6</ele>
    <time>2026-06-23T10:21:03Z</time>
   </trkpt>
   <trkpt lat="-3.1156590" lon="37.3779060">
    <ele>4242.5</ele>
    <time>2026-06-23T10:21:04Z</time>
   </trkpt>
   <trkpt lat="-3.1156650" lon="37.3779030">
    <ele>4242.4</ele>
    <time>2026-06-23T10:21:05Z</time>
   </trkpt>
   <trkpt lat="-3.1156720" lon="37.3778990">
    <ele>4242.2</ele>
    <time>2026-06-23T10:21:06Z</time>
   </trkpt>
   <trkpt lat="-3.1156800" lon="37.3778980">
    <ele>4242.1</ele>
    <time>2026-06-23T10:21:07Z</time>
   </trkpt>
   <trkpt lat="-3.1156890" lon="37.3778970">
    <ele>4241.9</ele>
    <time>2026-06-23T10:21:08Z</time>
   </trkpt>
   <trkpt lat="-3.1157000" lon="37.3778960">
    <ele>4241.7</ele>
    <time>2026-06-23T10:21:09Z</time>
   </trkpt>
   <trkpt lat="-3.1157070" lon="37.3778940">
    <ele>4241.6</ele>
    <time>2026-06-23T10:21:10Z</time>
   </trkpt>
   <trkpt lat="-3.1157120" lon="37.3778910">
    <ele>4241.5</ele>
    <time>2026-06-23T10:21:11Z</time>
   </trkpt>
   <trkpt lat="-3.1157210" lon="37.3778880">
    <ele>4241.3</ele>
    <time>2026-06-23T10:21:12Z</time>
   </trkpt>
   <trkpt lat="-3.1157310" lon="37.3778830">
    <ele>4241.1</ele>
    <time>2026-06-23T10:21:13Z</time>
   </trkpt>
   <trkpt lat="-3.1157390" lon="37.3778800">
    <ele>4241.0</ele>
    <time>2026-06-23T10:21:14Z</time>
   </trkpt>
   <trkpt lat="-3.1157490" lon="37.3778770">
    <ele>4240.8</ele>
    <time>2026-06-23T10:21:15Z</time>
   </trkpt>
   <trkpt lat="-3.1157520" lon="37.3778740">
    <ele>4240.7</ele>
    <time>2026-06-23T10:21:16Z</time>
   </trkpt>
   <trkpt lat="-3.1157570" lon="37.3778710">
    <ele>4240.6</ele>
    <time>2026-06-23T10:21:17Z</time>
   </trkpt>
   <trkpt lat="-3.1157660" lon="37.3778680">
    <ele>4240.4</ele>
    <time>2026-06-23T10:21:18Z</time>
   </trkpt>
   <trkpt lat="-3.1157730" lon="37.3778670">
    <ele>4240.3</ele>
    <time>2026-06-23T10:21:19Z</time>
   </trkpt>
   <trkpt lat="-3.1157810" lon="37.3778660">
    <ele>4240.1</ele>
    <time>2026-06-23T10:21:20Z</time>
   </trkpt>
   <trkpt lat="-3.1157890" lon="37.3778640">
    <ele>4240.0</ele>
    <time>2026-06-23T10:21:21Z</time>
   </trkpt>
   <trkpt lat="-3.1157980" lon="37.3778620">
    <ele>4239.8</ele>
    <time>2026-06-23T10:21:22Z</time>
   </trkpt>
   <trkpt lat="-3.1158060" lon="37.3778610">
    <ele>4239.7</ele>
    <time>2026-06-23T10:21:23Z</time>
   </trkpt>
   <trkpt lat="-3.1158130" lon="37.3778610">
    <ele>4239.5</ele>
    <time>2026-06-23T10:21:24Z</time>
   </trkpt>
   <trkpt lat="-3.1158250" lon="37.3778620">
    <ele>4239.3</ele>
    <time>2026-06-23T10:21:25Z</time>
   </trkpt>
   <trkpt lat="-3.1158320" lon="37.3778650">
    <ele>4239.2</ele>
    <time>2026-06-23T10:21:26Z</time>
   </trkpt>
   <trkpt lat="-3.1158390" lon="37.3778660">
    <ele>4239.0</ele>
    <time>2026-06-23T10:21:27Z</time>
   </trkpt>
   <trkpt lat="-3.1158480" lon="37.3778670">
    <ele>4238.9</ele>
    <time>2026-06-23T10:21:28Z</time>
   </trkpt>
   <trkpt lat="-3.1158550" lon="37.3778650">
    <ele>4238.7</ele>
    <time>2026-06-23T10:21:29Z</time>
   </trkpt>
   <trkpt lat="-3.1158660" lon="37.3778650">
    <ele>4238.5</ele>
    <time>2026-06-23T10:21:30Z</time>
   </trkpt>
   <trkpt lat="-3.1158740" lon="37.3778640">
    <ele>4238.4</ele>
    <time>2026-06-23T10:21:31Z</time>
   </trkpt>
   <trkpt lat="-3.1158830" lon="37.3778630">
    <ele>4238.2</ele>
    <time>2026-06-23T10:21:32Z</time>
   </trkpt>
   <trkpt lat="-3.1158920" lon="37.3778610">
    <ele>4238.0</ele>
    <time>2026-06-23T10:21:33Z</time>
   </trkpt>
   <trkpt lat="-3.1158980" lon="37.3778580">
    <ele>4237.9</ele>
    <time>2026-06-23T10:21:34Z</time>
   </trkpt>
   <trkpt lat="-3.1159050" lon="37.3778580">
    <ele>4237.8</ele>
    <time>2026-06-23T10:21:35Z</time>
   </trkpt>
   <trkpt lat="-3.1159140" lon="37.3778570">
    <ele>4237.6</ele>
    <time>2026-06-23T10:21:36Z</time>
   </trkpt>
   <trkpt lat="-3.1159220" lon="37.3778550">
    <ele>4237.5</ele>
    <time>2026-06-23T10:21:37Z</time>
   </trkpt>
   <trkpt lat="-3.1159330" lon="37.3778540">
    <ele>4237.2</ele>
    <time>2026-06-23T10:21:38Z</time>
   </trkpt>
   <trkpt lat="-3.1159400" lon="37.3778520">
    <ele>4237.1</ele>
    <time>2026-06-23T10:21:39Z</time>
   </trkpt>
   <trkpt lat="-3.1159470" lon="37.3778490">
    <ele>4237.0</ele>
    <time>2026-06-23T10:21:40Z</time>
   </trkpt>
   <trkpt lat="-3.1159540" lon="37.3778460">
    <ele>4236.8</ele>
    <time>2026-06-23T10:21:41Z</time>
   </trkpt>
   <trkpt lat="-3.1159620" lon="37.3778410">
    <ele>4236.6</ele>
    <time>2026-06-23T10:21:42Z</time>
   </trkpt>
   <trkpt lat="-3.1159700" lon="37.3778360">
    <ele>4236.5</ele>
    <time>2026-06-23T10:21:43Z</time>
   </trkpt>
   <trkpt lat="-3.1159770" lon="37.3778340">
    <ele>4236.3</ele>
    <time>2026-06-23T10:21:44Z</time>
   </trkpt>
   <trkpt lat="-3.1159840" lon="37.3778300">
    <ele>4236.2</ele>
    <time>2026-06-23T10:21:45Z</time>
   </trkpt>
   <trkpt lat="-3.1159930" lon="37.3778270">
    <ele>4236.0</ele>
    <time>2026-06-23T10:21:46Z</time>
   </trkpt>
   <trkpt lat="-3.1160030" lon="37.3778260">
    <ele>4235.8</ele>
    <time>2026-06-23T10:21:47Z</time>
   </trkpt>
   <trkpt lat="-3.1160140" lon="37.3778220">
    <ele>4235.6</ele>
    <time>2026-06-23T10:21:48Z</time>
   </trkpt>
   <trkpt lat="-3.1160190" lon="37.3778210">
    <ele>4235.5</ele>
    <time>2026-06-23T10:21:49Z</time>
   </trkpt>
   <trkpt lat="-3.1160280" lon="37.3778180">
    <ele>4235.3</ele>
    <time>2026-06-23T10:21:50Z</time>
   </trkpt>
   <trkpt lat="-3.1160360" lon="37.3778130">
    <ele>4235.2</ele>
    <time>2026-06-23T10:21:51Z</time>
   </trkpt>
   <trkpt lat="-3.1160430" lon="37.3778080">
    <ele>4235.0</ele>
    <time>2026-06-23T10:21:52Z</time>
   </trkpt>
   <trkpt lat="-3.1160500" lon="37.3778040">
    <ele>4234.9</ele>
    <time>2026-06-23T10:21:53Z</time>
   </trkpt>
   <trkpt lat="-3.1160580" lon="37.3778000">
    <ele>4234.7</ele>
    <time>2026-06-23T10:21:54Z</time>
   </trkpt>
   <trkpt lat="-3.1160660" lon="37.3777960">
    <ele>4234.5</ele>
    <time>2026-06-23T10:21:55Z</time>
   </trkpt>
   <trkpt lat="-3.1160740" lon="37.3777940">
    <ele>4234.4</ele>
    <time>2026-06-23T10:21:56Z</time>
   </trkpt>
   <trkpt lat="-3.1160810" lon="37.3777910">
    <ele>4234.2</ele>
    <time>2026-06-23T10:21:57Z</time>
   </trkpt>
   <trkpt lat="-3.1160890" lon="37.3777880">
    <ele>4234.1</ele>
    <time>2026-06-23T10:21:58Z</time>
   </trkpt>
   <trkpt lat="-3.1160970" lon="37.3777840">
    <ele>4233.9</ele>
    <time>2026-06-23T10:21:59Z</time>
   </trkpt>
   <trkpt lat="-3.1161050" lon="37.3777800">
    <ele>4233.8</ele>
    <time>2026-06-23T10:22:00Z</time>
   </trkpt>
   <trkpt lat="-3.1161140" lon="37.3777760">
    <ele>4233.6</ele>
    <time>2026-06-23T10:22:01Z</time>
   </trkpt>
   <trkpt lat="-3.1161210" lon="37.3777730">
    <ele>4233.4</ele>
    <time>2026-06-23T10:22:02Z</time>
   </trkpt>
   <trkpt lat="-3.1161290" lon="37.3777690">
    <ele>4233.3</ele>
    <time>2026-06-23T10:22:03Z</time>
   </trkpt>
   <trkpt lat="-3.1161340" lon="37.3777650">
    <ele>4233.2</ele>
    <time>2026-06-23T10:22:04Z</time>
   </trkpt>
   <trkpt lat="-3.1161410" lon="37.3777590">
    <ele>4233.0</ele>
    <time>2026-06-23T10:22:05Z</time>
   </trkpt>
   <trkpt lat="-3.1161470" lon="37.3777540">
    <ele>4232.9</ele>
    <time>2026-06-23T10:22:06Z</time>
   </trkpt>
   <trkpt lat="-3.1161520" lon="37.3777500">
    <ele>4232.7</ele>
    <time>2026-06-23T10:22:07Z</time>
   </trkpt>
   <trkpt lat="-3.1161570" lon="37.3777460">
    <ele>4232.6</ele>
    <time>2026-06-23T10:22:09Z</time>
   </trkpt>
   <trkpt lat="-3.1161620" lon="37.3777410">
    <ele>4232.5</ele>
    <time>2026-06-23T10:22:10Z</time>
   </trkpt>
   <trkpt lat="-3.1161680" lon="37.3777350">
    <ele>4232.3</ele>
    <time>2026-06-23T10:22:11Z</time>
   </trkpt>
   <trkpt lat="-3.1161710" lon="37.3777310">
    <ele>4232.2</ele>
    <time>2026-06-23T10:22:12Z</time>
   </trkpt>
   <trkpt lat="-3.1161790" lon="37.3777240">
    <ele>4232.1</ele>
    <time>2026-06-23T10:22:13Z</time>
   </trkpt>
   <trkpt lat="-3.1161840" lon="37.3777190">
    <ele>4231.9</ele>
    <time>2026-06-23T10:22:14Z</time>
   </trkpt>
   <trkpt lat="-3.1161890" lon="37.3777140">
    <ele>4231.8</ele>
    <time>2026-06-23T10:22:15Z</time>
   </trkpt>
   <trkpt lat="-3.1161950" lon="37.3777100">
    <ele>4231.7</ele>
    <time>2026-06-23T10:22:16Z</time>
   </trkpt>
   <trkpt lat="-3.1162030" lon="37.3777080">
    <ele>4231.5</ele>
    <time>2026-06-23T10:22:17Z</time>
   </trkpt>
   <trkpt lat="-3.1162100" lon="37.3777070">
    <ele>4231.4</ele>
    <time>2026-06-23T10:22:18Z</time>
   </trkpt>
   <trkpt lat="-3.1162180" lon="37.3777070">
    <ele>4231.2</ele>
    <time>2026-06-23T10:22:19Z</time>
   </trkpt>
   <trkpt lat="-3.1162260" lon="37.3777100">
    <ele>4231.0</ele>
    <time>2026-06-23T10:22:20Z</time>
   </trkpt>
   <trkpt lat="-3.1162320" lon="37.3777120">
    <ele>4230.9</ele>
    <time>2026-06-23T10:22:21Z</time>
   </trkpt>
   <trkpt lat="-3.1162390" lon="37.3777110">
    <ele>4230.8</ele>
    <time>2026-06-23T10:22:22Z</time>
   </trkpt>
   <trkpt lat="-3.1162490" lon="37.3777070">
    <ele>4230.6</ele>
    <time>2026-06-23T10:22:23Z</time>
   </trkpt>
   <trkpt lat="-3.1162540" lon="37.3777010">
    <ele>4230.4</ele>
    <time>2026-06-23T10:22:24Z</time>
   </trkpt>
   <trkpt lat="-3.1162620" lon="37.3776960">
    <ele>4230.2</ele>
    <time>2026-06-23T10:22:25Z</time>
   </trkpt>
   <trkpt lat="-3.1162700" lon="37.3776940">
    <ele>4230.1</ele>
    <time>2026-06-23T10:22:26Z</time>
   </trkpt>
   <trkpt lat="-3.1162780" lon="37.3776940">
    <ele>4229.9</ele>
    <time>2026-06-23T10:22:27Z</time>
   </trkpt>
   <trkpt lat="-3.1162870" lon="37.3776950">
    <ele>4229.7</ele>
    <time>2026-06-23T10:22:28Z</time>
   </trkpt>
   <trkpt lat="-3.1162960" lon="37.3776960">
    <ele>4229.5</ele>
    <time>2026-06-23T10:22:29Z</time>
   </trkpt>
   <trkpt lat="-3.1163050" lon="37.3776970">
    <ele>4229.4</ele>
    <time>2026-06-23T10:22:30Z</time>
   </trkpt>
   <trkpt lat="-3.1163120" lon="37.3776970">
    <ele>4229.2</ele>
    <time>2026-06-23T10:22:31Z</time>
   </trkpt>
   <trkpt lat="-3.1163190" lon="37.3776970">
    <ele>4229.1</ele>
    <time>2026-06-23T10:22:32Z</time>
   </trkpt>
   <trkpt lat="-3.1163310" lon="37.3776980">
    <ele>4228.9</ele>
    <time>2026-06-23T10:22:33Z</time>
   </trkpt>
   <trkpt lat="-3.1163310" lon="37.3776990">
    <ele>4228.8</ele>
    <time>2026-06-23T10:22:34Z</time>
   </trkpt>
   <trkpt lat="-3.1163310" lon="37.3776990">
    <ele>4228.8</ele>
    <time>2026-06-23T10:22:35Z</time>
   </trkpt>
   <trkpt lat="-3.1163310" lon="37.3776990">
    <ele>4228.8</ele>
    <time>2026-06-23T10:22:36Z</time>
   </trkpt>
   <trkpt lat="-3.1163330" lon="37.3776980">
    <ele>4228.8</ele>
    <time>2026-06-23T10:22:37Z</time>
   </trkpt>
   <trkpt lat="-3.1163330" lon="37.3776980">
    <ele>4228.8</ele>
    <time>2026-06-23T10:22:38Z</time>
   </trkpt>
   <trkpt lat="-3.1163340" lon="37.3776980">
    <ele>4228.8</ele>
    <time>2026-06-23T10:22:39Z</time>
   </trkpt>
   <trkpt lat="-3.1163340" lon="37.3776970">
    <ele>4228.8</ele>
    <time>2026-06-23T10:22:40Z</time>
   </trkpt>
   <trkpt lat="-3.1163370" lon="37.3776970">
    <ele>4228.7</ele>
    <time>2026-06-23T10:22:41Z</time>
   </trkpt>
   <trkpt lat="-3.1163380" lon="37.3776950">
    <ele>4228.6</ele>
    <time>2026-06-23T10:22:42Z</time>
   </trkpt>
   <trkpt lat="-3.1163410" lon="37.3776970">
    <ele>4228.6</ele>
    <time>2026-06-23T10:22:43Z</time>
   </trkpt>
   <trkpt lat="-3.1163400" lon="37.3776960">
    <ele>4228.5</ele>
    <time>2026-06-23T10:22:44Z</time>
   </trkpt>
   <trkpt lat="-3.1163430" lon="37.3776960">
    <ele>4228.5</ele>
    <time>2026-06-23T10:22:45Z</time>
   </trkpt>
   <trkpt lat="-3.1163500" lon="37.3776960">
    <ele>4228.4</ele>
    <time>2026-06-23T10:22:46Z</time>
   </trkpt>
   <trkpt lat="-3.1163620" lon="37.3776980">
    <ele>4228.1</ele>
    <time>2026-06-23T10:22:47Z</time>
   </trkpt>
   <trkpt lat="-3.1163700" lon="37.3776960">
    <ele>4227.9</ele>
    <time>2026-06-23T10:22:48Z</time>
   </trkpt>
   <trkpt lat="-3.1163800" lon="37.3776940">
    <ele>4227.7</ele>
    <time>2026-06-23T10:22:49Z</time>
   </trkpt>
   <trkpt lat="-3.1163840" lon="37.3776930">
    <ele>4227.7</ele>
    <time>2026-06-23T10:22:50Z</time>
   </trkpt>
   <trkpt lat="-3.1163900" lon="37.3776910">
    <ele>4227.5</ele>
    <time>2026-06-23T10:22:51Z</time>
   </trkpt>
   <trkpt lat="-3.1163990" lon="37.3776880">
    <ele>4227.4</ele>
    <time>2026-06-23T10:22:52Z</time>
   </trkpt>
   <trkpt lat="-3.1164080" lon="37.3776870">
    <ele>4227.2</ele>
    <time>2026-06-23T10:22:53Z</time>
   </trkpt>
   <trkpt lat="-3.1164170" lon="37.3776880">
    <ele>4227.0</ele>
    <time>2026-06-23T10:22:54Z</time>
   </trkpt>
   <trkpt lat="-3.1164260" lon="37.3776900">
    <ele>4226.8</ele>
    <time>2026-06-23T10:22:55Z</time>
   </trkpt>
   <trkpt lat="-3.1164310" lon="37.3776910">
    <ele>4226.7</ele>
    <time>2026-06-23T10:22:56Z</time>
   </trkpt>
   <trkpt lat="-3.1164400" lon="37.3776970">
    <ele>4226.5</ele>
    <time>2026-06-23T10:22:57Z</time>
   </trkpt>
   <trkpt lat="-3.1164420" lon="37.3776980">
    <ele>4226.5</ele>
    <time>2026-06-23T10:22:58Z</time>
   </trkpt>
   <trkpt lat="-3.1164470" lon="37.3777000">
    <ele>4226.4</ele>
    <time>2026-06-23T10:22:59Z</time>
   </trkpt>
   <trkpt lat="-3.1164530" lon="37.3777030">
    <ele>4226.2</ele>
    <time>2026-06-23T10:23:00Z</time>
   </trkpt>
   <trkpt lat="-3.1164600" lon="37.3777030">
    <ele>4226.1</ele>
    <time>2026-06-23T10:23:01Z</time>
   </trkpt>
   <trkpt lat="-3.1164670" lon="37.3777020">
    <ele>4226.0</ele>
    <time>2026-06-23T10:23:02Z</time>
   </trkpt>
   <trkpt lat="-3.1164750" lon="37.3777030">
    <ele>4225.8</ele>
    <time>2026-06-23T10:23:03Z</time>
   </trkpt>
   <trkpt lat="-3.1164810" lon="37.3777020">
    <ele>4225.7</ele>
    <time>2026-06-23T10:23:04Z</time>
   </trkpt>
   <trkpt lat="-3.1164900" lon="37.3777030">
    <ele>4225.5</ele>
    <time>2026-06-23T10:23:05Z</time>
   </trkpt>
   <trkpt lat="-3.1164970" lon="37.3777040">
    <ele>4225.4</ele>
    <time>2026-06-23T10:23:06Z</time>
   </trkpt>
   <trkpt lat="-3.1165070" lon="37.3777050">
    <ele>4225.2</ele>
    <time>2026-06-23T10:23:07Z</time>
   </trkpt>
   <trkpt lat="-3.1165120" lon="37.3777050">
    <ele>4225.1</ele>
    <time>2026-06-23T10:23:08Z</time>
   </trkpt>
   <trkpt lat="-3.1165200" lon="37.3777070">
    <ele>4224.9</ele>
    <time>2026-06-23T10:23:09Z</time>
   </trkpt>
   <trkpt lat="-3.1165280" lon="37.3777060">
    <ele>4224.8</ele>
    <time>2026-06-23T10:23:10Z</time>
   </trkpt>
   <trkpt lat="-3.1165350" lon="37.3777050">
    <ele>4224.7</ele>
    <time>2026-06-23T10:23:11Z</time>
   </trkpt>
   <trkpt lat="-3.1165430" lon="37.3777030">
    <ele>4224.5</ele>
    <time>2026-06-23T10:23:12Z</time>
   </trkpt>
   <trkpt lat="-3.1165510" lon="37.3777020">
    <ele>4224.3</ele>
    <time>2026-06-23T10:23:13Z</time>
   </trkpt>
   <trkpt lat="-3.1165580" lon="37.3777020">
    <ele>4224.2</ele>
    <time>2026-06-23T10:23:14Z</time>
   </trkpt>
   <trkpt lat="-3.1165660" lon="37.3777040">
    <ele>4224.1</ele>
    <time>2026-06-23T10:23:15Z</time>
   </trkpt>
   <trkpt lat="-3.1165760" lon="37.3777050">
    <ele>4223.9</ele>
    <time>2026-06-23T10:23:16Z</time>
   </trkpt>
   <trkpt lat="-3.1165820" lon="37.3777050">
    <ele>4223.8</ele>
    <time>2026-06-23T10:23:17Z</time>
   </trkpt>
   <trkpt lat="-3.1165880" lon="37.3777030">
    <ele>4223.6</ele>
    <time>2026-06-23T10:23:18Z</time>
   </trkpt>
   <trkpt lat="-3.1165960" lon="37.3777030">
    <ele>4223.5</ele>
    <time>2026-06-23T10:23:19Z</time>
   </trkpt>
   <trkpt lat="-3.1166040" lon="37.3777050">
    <ele>4223.3</ele>
    <time>2026-06-23T10:23:20Z</time>
   </trkpt>
   <trkpt lat="-3.1166110" lon="37.3777050">
    <ele>4223.2</ele>
    <time>2026-06-23T10:23:21Z</time>
   </trkpt>
   <trkpt lat="-3.1166190" lon="37.3777050">
    <ele>4223.0</ele>
    <time>2026-06-23T10:23:22Z</time>
   </trkpt>
   <trkpt lat="-3.1166270" lon="37.3777040">
    <ele>4222.9</ele>
    <time>2026-06-23T10:23:23Z</time>
   </trkpt>
   <trkpt lat="-3.1166330" lon="37.3777020">
    <ele>4222.8</ele>
    <time>2026-06-23T10:23:24Z</time>
   </trkpt>
   <trkpt lat="-3.1166410" lon="37.3777000">
    <ele>4222.6</ele>
    <time>2026-06-23T10:23:25Z</time>
   </trkpt>
   <trkpt lat="-3.1166510" lon="37.3776990">
    <ele>4222.4</ele>
    <time>2026-06-23T10:23:26Z</time>
   </trkpt>
   <trkpt lat="-3.1166580" lon="37.3777010">
    <ele>4222.3</ele>
    <time>2026-06-23T10:23:27Z</time>
   </trkpt>
   <trkpt lat="-3.1166650" lon="37.3777020">
    <ele>4222.1</ele>
    <time>2026-06-23T10:23:28Z</time>
   </trkpt>
   <trkpt lat="-3.1166730" lon="37.3777020">
    <ele>4222.0</ele>
    <time>2026-06-23T10:23:29Z</time>
   </trkpt>
   <trkpt lat="-3.1166810" lon="37.3777010">
    <ele>4221.8</ele>
    <time>2026-06-23T10:23:30Z</time>
   </trkpt>
   <trkpt lat="-3.1166880" lon="37.3777000">
    <ele>4221.7</ele>
    <time>2026-06-23T10:23:31Z</time>
   </trkpt>
   <trkpt lat="-3.1166960" lon="37.3776980">
    <ele>4221.5</ele>
    <time>2026-06-23T10:23:32Z</time>
   </trkpt>
   <trkpt lat="-3.1167020" lon="37.3776950">
    <ele>4221.4</ele>
    <time>2026-06-23T10:23:33Z</time>
   </trkpt>
   <trkpt lat="-3.1167090" lon="37.3776930">
    <ele>4221.2</ele>
    <time>2026-06-23T10:23:34Z</time>
   </trkpt>
   <trkpt lat="-3.1167150" lon="37.3776900">
    <ele>4221.1</ele>
    <time>2026-06-23T10:23:35Z</time>
   </trkpt>
   <trkpt lat="-3.1167200" lon="37.3776890">
    <ele>4221.0</ele>
    <time>2026-06-23T10:23:36Z</time>
   </trkpt>
   <trkpt lat="-3.1167270" lon="37.3776890">
    <ele>4220.8</ele>
    <time>2026-06-23T10:23:37Z</time>
   </trkpt>
   <trkpt lat="-3.1167350" lon="37.3776870">
    <ele>4220.7</ele>
    <time>2026-06-23T10:23:38Z</time>
   </trkpt>
   <trkpt lat="-3.1167420" lon="37.3776850">
    <ele>4220.5</ele>
    <time>2026-06-23T10:23:39Z</time>
   </trkpt>
   <trkpt lat="-3.1167500" lon="37.3776850">
    <ele>4220.4</ele>
    <time>2026-06-23T10:23:40Z</time>
   </trkpt>
   <trkpt lat="-3.1167560" lon="37.3776860">
    <ele>4220.3</ele>
    <time>2026-06-23T10:23:41Z</time>
   </trkpt>
   <trkpt lat="-3.1167640" lon="37.3776870">
    <ele>4220.1</ele>
    <time>2026-06-23T10:23:42Z</time>
   </trkpt>
   <trkpt lat="-3.1167710" lon="37.3776880">
    <ele>4220.0</ele>
    <time>2026-06-23T10:23:43Z</time>
   </trkpt>
   <trkpt lat="-3.1167810" lon="37.3776900">
    <ele>4219.8</ele>
    <time>2026-06-23T10:23:44Z</time>
   </trkpt>
   <trkpt lat="-3.1167870" lon="37.3776910">
    <ele>4219.6</ele>
    <time>2026-06-23T10:23:45Z</time>
   </trkpt>
   <trkpt lat="-3.1167940" lon="37.3776930">
    <ele>4219.5</ele>
    <time>2026-06-23T10:23:46Z</time>
   </trkpt>
   <trkpt lat="-3.1168020" lon="37.3776920">
    <ele>4219.3</ele>
    <time>2026-06-23T10:23:47Z</time>
   </trkpt>
   <trkpt lat="-3.1168090" lon="37.3776920">
    <ele>4219.2</ele>
    <time>2026-06-23T10:23:48Z</time>
   </trkpt>
   <trkpt lat="-3.1168210" lon="37.3776920">
    <ele>4218.9</ele>
    <time>2026-06-23T10:23:49Z</time>
   </trkpt>
   <trkpt lat="-3.1168310" lon="37.3776910">
    <ele>4218.7</ele>
    <time>2026-06-23T10:23:50Z</time>
   </trkpt>
   <trkpt lat="-3.1168390" lon="37.3776880">
    <ele>4218.6</ele>
    <time>2026-06-23T10:23:51Z</time>
   </trkpt>
   <trkpt lat="-3.1168460" lon="37.3776840">
    <ele>4218.4</ele>
    <time>2026-06-23T10:23:52Z</time>
   </trkpt>
   <trkpt lat="-3.1168550" lon="37.3776780">
    <ele>4218.2</ele>
    <time>2026-06-23T10:23:53Z</time>
   </trkpt>
   <trkpt lat="-3.1168600" lon="37.3776740">
    <ele>4218.1</ele>
    <time>2026-06-23T10:23:54Z</time>
   </trkpt>
   <trkpt lat="-3.1168630" lon="37.3776680">
    <ele>4217.9</ele>
    <time>2026-06-23T10:23:55Z</time>
   </trkpt>
   <trkpt lat="-3.1168700" lon="37.3776620">
    <ele>4217.8</ele>
    <time>2026-06-23T10:23:56Z</time>
   </trkpt>
   <trkpt lat="-3.1168760" lon="37.3776590">
    <ele>4217.6</ele>
    <time>2026-06-23T10:23:57Z</time>
   </trkpt>
   <trkpt lat="-3.1168830" lon="37.3776540">
    <ele>4217.5</ele>
    <time>2026-06-23T10:23:58Z</time>
   </trkpt>
   <trkpt lat="-3.1168900" lon="37.3776520">
    <ele>4217.3</ele>
    <time>2026-06-23T10:23:59Z</time>
   </trkpt>
   <trkpt lat="-3.1168990" lon="37.3776490">
    <ele>4217.1</ele>
    <time>2026-06-23T10:24:00Z</time>
   </trkpt>
   <trkpt lat="-3.1169050" lon="37.3776470">
    <ele>4217.0</ele>
    <time>2026-06-23T10:24:01Z</time>
   </trkpt>
   <trkpt lat="-3.1169140" lon="37.3776440">
    <ele>4216.8</ele>
    <time>2026-06-23T10:24:02Z</time>
   </trkpt>
   <trkpt lat="-3.1169210" lon="37.3776410">
    <ele>4216.7</ele>
    <time>2026-06-23T10:24:03Z</time>
   </trkpt>
   <trkpt lat="-3.1169260" lon="37.3776390">
    <ele>4216.6</ele>
    <time>2026-06-23T10:24:04Z</time>
   </trkpt>
   <trkpt lat="-3.1169320" lon="37.3776360">
    <ele>4216.4</ele>
    <time>2026-06-23T10:24:05Z</time>
   </trkpt>
   <trkpt lat="-3.1169400" lon="37.3776330">
    <ele>4216.3</ele>
    <time>2026-06-23T10:24:06Z</time>
   </trkpt>
   <trkpt lat="-3.1169510" lon="37.3776300">
    <ele>4216.0</ele>
    <time>2026-06-23T10:24:07Z</time>
   </trkpt>
   <trkpt lat="-3.1169590" lon="37.3776260">
    <ele>4215.9</ele>
    <time>2026-06-23T10:24:08Z</time>
   </trkpt>
   <trkpt lat="-3.1169670" lon="37.3776240">
    <ele>4215.7</ele>
    <time>2026-06-23T10:24:09Z</time>
   </trkpt>
   <trkpt lat="-3.1169760" lon="37.3776240">
    <ele>4215.5</ele>
    <time>2026-06-23T10:24:10Z</time>
   </trkpt>
   <trkpt lat="-3.1169850" lon="37.3776250">
    <ele>4215.3</ele>
    <time>2026-06-23T10:24:11Z</time>
   </trkpt>
   <trkpt lat="-3.1169940" lon="37.3776250">
    <ele>4215.2</ele>
    <time>2026-06-23T10:24:12Z</time>
   </trkpt>
   <trkpt lat="-3.1170040" lon="37.3776230">
    <ele>4215.0</ele>
    <time>2026-06-23T10:24:13Z</time>
   </trkpt>
   <trkpt lat="-3.1170100" lon="37.3776180">
    <ele>4214.8</ele>
    <time>2026-06-23T10:24:15Z</time>
   </trkpt>
   <trkpt lat="-3.1170170" lon="37.3776140">
    <ele>4214.7</ele>
    <time>2026-06-23T10:24:16Z</time>
   </trkpt>
   <trkpt lat="-3.1170200" lon="37.3776100">
    <ele>4214.6</ele>
    <time>2026-06-23T10:24:17Z</time>
   </trkpt>
   <trkpt lat="-3.1170280" lon="37.3776060">
    <ele>4214.4</ele>
    <time>2026-06-23T10:24:18Z</time>
   </trkpt>
   <trkpt lat="-3.1170380" lon="37.3776020">
    <ele>4214.2</ele>
    <time>2026-06-23T10:24:19Z</time>
   </trkpt>
   <trkpt lat="-3.1170470" lon="37.3775980">
    <ele>4214.0</ele>
    <time>2026-06-23T10:24:20Z</time>
   </trkpt>
   <trkpt lat="-3.1170550" lon="37.3775950">
    <ele>4213.8</ele>
    <time>2026-06-23T10:24:21Z</time>
   </trkpt>
   <trkpt lat="-3.1170620" lon="37.3775770">
    <ele>4213.5</ele>
    <time>2026-06-23T10:24:22Z</time>
   </trkpt>
   <trkpt lat="-3.1170680" lon="37.3775910">
    <ele>4213.2</ele>
    <time>2026-06-23T10:24:23Z</time>
   </trkpt>
   <trkpt lat="-3.1170740" lon="37.3775870">
    <ele>4213.0</ele>
    <time>2026-06-23T10:24:24Z</time>
   </trkpt>
   <trkpt lat="-3.1170830" lon="37.3775820">
    <ele>4212.8</ele>
    <time>2026-06-23T10:24:25Z</time>
   </trkpt>
   <trkpt lat="-3.1170920" lon="37.3775790">
    <ele>4212.6</ele>
    <time>2026-06-23T10:24:26Z</time>
   </trkpt>
   <trkpt lat="-3.1171140" lon="37.3775710">
    <ele>4212.2</ele>
    <time>2026-06-23T10:24:27Z</time>
   </trkpt>
   <trkpt lat="-3.1171240" lon="37.3775670">
    <ele>4212.0</ele>
    <time>2026-06-23T10:24:28Z</time>
   </trkpt>
   <trkpt lat="-3.1171330" lon="37.3775640">
    <ele>4211.8</ele>
    <time>2026-06-23T10:24:29Z</time>
   </trkpt>
   <trkpt lat="-3.1171420" lon="37.3775620">
    <ele>4211.6</ele>
    <time>2026-06-23T10:24:30Z</time>
   </trkpt>
   <trkpt lat="-3.1171500" lon="37.3775600">
    <ele>4211.5</ele>
    <time>2026-06-23T10:24:31Z</time>
   </trkpt>
   <trkpt lat="-3.1171580" lon="37.3775550">
    <ele>4211.3</ele>
    <time>2026-06-23T10:24:32Z</time>
   </trkpt>
   <trkpt lat="-3.1171690" lon="37.3775500">
    <ele>4211.0</ele>
    <time>2026-06-23T10:24:33Z</time>
   </trkpt>
   <trkpt lat="-3.1171790" lon="37.3775480">
    <ele>4210.8</ele>
    <time>2026-06-23T10:24:34Z</time>
   </trkpt>
   <trkpt lat="-3.1171870" lon="37.3775450">
    <ele>4210.7</ele>
    <time>2026-06-23T10:24:35Z</time>
   </trkpt>
   <trkpt lat="-3.1171980" lon="37.3775420">
    <ele>4210.4</ele>
    <time>2026-06-23T10:24:36Z</time>
   </trkpt>
   <trkpt lat="-3.1172080" lon="37.3775440">
    <ele>4210.2</ele>
    <time>2026-06-23T10:24:37Z</time>
   </trkpt>
   <trkpt lat="-3.1172170" lon="37.3775410">
    <ele>4210.1</ele>
    <time>2026-06-23T10:24:38Z</time>
   </trkpt>
   <trkpt lat="-3.1172250" lon="37.3775360">
    <ele>4209.9</ele>
    <time>2026-06-23T10:24:39Z</time>
   </trkpt>
   <trkpt lat="-3.1172340" lon="37.3775310">
    <ele>4209.7</ele>
    <time>2026-06-23T10:24:40Z</time>
   </trkpt>
   <trkpt lat="-3.1172450" lon="37.3775270">
    <ele>4209.4</ele>
    <time>2026-06-23T10:24:41Z</time>
   </trkpt>
   <trkpt lat="-3.1172540" lon="37.3775260">
    <ele>4209.3</ele>
    <time>2026-06-23T10:24:42Z</time>
   </trkpt>
   <trkpt lat="-3.1172630" lon="37.3775260">
    <ele>4209.1</ele>
    <time>2026-06-23T10:24:43Z</time>
   </trkpt>
   <trkpt lat="-3.1172740" lon="37.3775250">
    <ele>4208.9</ele>
    <time>2026-06-23T10:24:44Z</time>
   </trkpt>
   <trkpt lat="-3.1172810" lon="37.3775250">
    <ele>4208.7</ele>
    <time>2026-06-23T10:24:45Z</time>
   </trkpt>
   <trkpt lat="-3.1172880" lon="37.3775220">
    <ele>4208.6</ele>
    <time>2026-06-23T10:24:46Z</time>
   </trkpt>
   <trkpt lat="-3.1172960" lon="37.3775190">
    <ele>4208.4</ele>
    <time>2026-06-23T10:24:47Z</time>
   </trkpt>
   <trkpt lat="-3.1173030" lon="37.3775150">
    <ele>4208.3</ele>
    <time>2026-06-23T10:24:48Z</time>
   </trkpt>
   <trkpt lat="-3.1173060" lon="37.3775140">
    <ele>4208.2</ele>
    <time>2026-06-23T10:24:49Z</time>
   </trkpt>
   <trkpt lat="-3.1173140" lon="37.3775120">
    <ele>4208.0</ele>
    <time>2026-06-23T10:24:50Z</time>
   </trkpt>
   <trkpt lat="-3.1173230" lon="37.3775090">
    <ele>4207.8</ele>
    <time>2026-06-23T10:24:51Z</time>
   </trkpt>
   <trkpt lat="-3.1173310" lon="37.3775080">
    <ele>4207.7</ele>
    <time>2026-06-23T10:24:52Z</time>
   </trkpt>
   <trkpt lat="-3.1173360" lon="37.3775020">
    <ele>4207.5</ele>
    <time>2026-06-23T10:24:53Z</time>
   </trkpt>
   <trkpt lat="-3.1173380" lon="37.3774960">
    <ele>4207.4</ele>
    <time>2026-06-23T10:24:54Z</time>
   </trkpt>
   <trkpt lat="-3.1173400" lon="37.3774910">
    <ele>4207.3</ele>
    <time>2026-06-23T10:24:55Z</time>
   </trkpt>
   <trkpt lat="-3.1173400" lon="37.3774910">
    <ele>4207.3</ele>
    <time>2026-06-23T10:24:56Z</time>
   </trkpt>
   <trkpt lat="-3.1173400" lon="37.3774930">
    <ele>4207.3</ele>
    <time>2026-06-23T10:24:57Z</time>
   </trkpt>
   <trkpt lat="-3.1173390" lon="37.3774930">
    <ele>4207.2</ele>
    <time>2026-06-23T10:24:58Z</time>
   </trkpt>
   <trkpt lat="-3.1173430" lon="37.3774920">
    <ele>4207.2</ele>
    <time>2026-06-23T10:24:59Z</time>
   </trkpt>
   <trkpt lat="-3.1173520" lon="37.3774910">
    <ele>4207.0</ele>
    <time>2026-06-23T10:25:00Z</time>
   </trkpt>
   <trkpt lat="-3.1173640" lon="37.3774910">
    <ele>4206.8</ele>
    <time>2026-06-23T10:25:01Z</time>
   </trkpt>
   <trkpt lat="-3.1173720" lon="37.3774880">
    <ele>4206.6</ele>
    <time>2026-06-23T10:25:02Z</time>
   </trkpt>
   <trkpt lat="-3.1173780" lon="37.3774850">
    <ele>4206.5</ele>
    <time>2026-06-23T10:25:03Z</time>
   </trkpt>
   <trkpt lat="-3.1173860" lon="37.3774840">
    <ele>4206.3</ele>
    <time>2026-06-23T10:25:04Z</time>
   </trkpt>
   <trkpt lat="-3.1173940" lon="37.3774830">
    <ele>4206.1</ele>
    <time>2026-06-23T10:25:05Z</time>
   </trkpt>
   <trkpt lat="-3.1174030" lon="37.3774800">
    <ele>4206.0</ele>
    <time>2026-06-23T10:25:06Z</time>
   </trkpt>
   <trkpt lat="-3.1174110" lon="37.3774780">
    <ele>4205.8</ele>
    <time>2026-06-23T10:25:07Z</time>
   </trkpt>
   <trkpt lat="-3.1174190" lon="37.3774790">
    <ele>4205.6</ele>
    <time>2026-06-23T10:25:08Z</time>
   </trkpt>
   <trkpt lat="-3.1174260" lon="37.3774770">
    <ele>4205.5</ele>
    <time>2026-06-23T10:25:09Z</time>
   </trkpt>
   <trkpt lat="-3.1174350" lon="37.3774720">
    <ele>4205.3</ele>
    <time>2026-06-23T10:25:10Z</time>
   </trkpt>
   <trkpt lat="-3.1174440" lon="37.3774690">
    <ele>4205.1</ele>
    <time>2026-06-23T10:25:11Z</time>
   </trkpt>
   <trkpt lat="-3.1174510" lon="37.3774660">
    <ele>4205.0</ele>
    <time>2026-06-23T10:25:12Z</time>
   </trkpt>
   <trkpt lat="-3.1174600" lon="37.3774630">
    <ele>4204.8</ele>
    <time>2026-06-23T10:25:13Z</time>
   </trkpt>
   <trkpt lat="-3.1174690" lon="37.3774600">
    <ele>4204.6</ele>
    <time>2026-06-23T10:25:14Z</time>
   </trkpt>
   <trkpt lat="-3.1174750" lon="37.3774560">
    <ele>4204.4</ele>
    <time>2026-06-23T10:25:15Z</time>
   </trkpt>
   <trkpt lat="-3.1174830" lon="37.3774510">
    <ele>4204.3</ele>
    <time>2026-06-23T10:25:16Z</time>
   </trkpt>
   <trkpt lat="-3.1174910" lon="37.3774470">
    <ele>4204.1</ele>
    <time>2026-06-23T10:25:17Z</time>
   </trkpt>
   <trkpt lat="-3.1175000" lon="37.3774430">
    <ele>4203.9</ele>
    <time>2026-06-23T10:25:18Z</time>
   </trkpt>
   <trkpt lat="-3.1175070" lon="37.3774400">
    <ele>4203.7</ele>
    <time>2026-06-23T10:25:19Z</time>
   </trkpt>
   <trkpt lat="-3.1175150" lon="37.3774370">
    <ele>4203.6</ele>
    <time>2026-06-23T10:25:20Z</time>
   </trkpt>
   <trkpt lat="-3.1175230" lon="37.3774340">
    <ele>4203.4</ele>
    <time>2026-06-23T10:25:21Z</time>
   </trkpt>
   <trkpt lat="-3.1175320" lon="37.3774310">
    <ele>4203.2</ele>
    <time>2026-06-23T10:25:22Z</time>
   </trkpt>
   <trkpt lat="-3.1175420" lon="37.3774290">
    <ele>4203.0</ele>
    <time>2026-06-23T10:25:23Z</time>
   </trkpt>
   <trkpt lat="-3.1175510" lon="37.3774280">
    <ele>4202.8</ele>
    <time>2026-06-23T10:25:24Z</time>
   </trkpt>
   <trkpt lat="-3.1175590" lon="37.3774260">
    <ele>4202.7</ele>
    <time>2026-06-23T10:25:25Z</time>
   </trkpt>
   <trkpt lat="-3.1175690" lon="37.3774230">
    <ele>4202.5</ele>
    <time>2026-06-23T10:25:26Z</time>
   </trkpt>
   <trkpt lat="-3.1175770" lon="37.3774190">
    <ele>4202.3</ele>
    <time>2026-06-23T10:25:27Z</time>
   </trkpt>
   <trkpt lat="-3.1175850" lon="37.3774150">
    <ele>4202.1</ele>
    <time>2026-06-23T10:25:28Z</time>
   </trkpt>
   <trkpt lat="-3.1175910" lon="37.3774110">
    <ele>4202.0</ele>
    <time>2026-06-23T10:25:29Z</time>
   </trkpt>
   <trkpt lat="-3.1176010" lon="37.3774060">
    <ele>4201.8</ele>
    <time>2026-06-23T10:25:30Z</time>
   </trkpt>
   <trkpt lat="-3.1176100" lon="37.3774000">
    <ele>4201.6</ele>
    <time>2026-06-23T10:25:31Z</time>
   </trkpt>
   <trkpt lat="-3.1176180" lon="37.3773960">
    <ele>4201.4</ele>
    <time>2026-06-23T10:25:32Z</time>
   </trkpt>
   <trkpt lat="-3.1176260" lon="37.3773920">
    <ele>4201.2</ele>
    <time>2026-06-23T10:25:33Z</time>
   </trkpt>
   <trkpt lat="-3.1176320" lon="37.3773910">
    <ele>4201.1</ele>
    <time>2026-06-23T10:25:34Z</time>
   </trkpt>
   <trkpt lat="-3.1176450" lon="37.3773890">
    <ele>4200.8</ele>
    <time>2026-06-23T10:25:35Z</time>
   </trkpt>
   <trkpt lat="-3.1176520" lon="37.3773920">
    <ele>4200.7</ele>
    <time>2026-06-23T10:25:36Z</time>
   </trkpt>
   <trkpt lat="-3.1176610" lon="37.3773940">
    <ele>4200.5</ele>
    <time>2026-06-23T10:25:37Z</time>
   </trkpt>
   <trkpt lat="-3.1176700" lon="37.3773930">
    <ele>4200.3</ele>
    <time>2026-06-23T10:25:38Z</time>
   </trkpt>
   <trkpt lat="-3.1176800" lon="37.3773910">
    <ele>4200.1</ele>
    <time>2026-06-23T10:25:39Z</time>
   </trkpt>
   <trkpt lat="-3.1176870" lon="37.3773920">
    <ele>4200.0</ele>
    <time>2026-06-23T10:25:40Z</time>
   </trkpt>
   <trkpt lat="-3.1176970" lon="37.3773910">
    <ele>4199.8</ele>
    <time>2026-06-23T10:25:41Z</time>
   </trkpt>
   <trkpt lat="-3.1177070" lon="37.3773890">
    <ele>4199.6</ele>
    <time>2026-06-23T10:25:42Z</time>
   </trkpt>
   <trkpt lat="-3.1177170" lon="37.3773870">
    <ele>4199.4</ele>
    <time>2026-06-23T10:25:43Z</time>
   </trkpt>
   <trkpt lat="-3.1177230" lon="37.3773820">
    <ele>4199.2</ele>
    <time>2026-06-23T10:25:44Z</time>
   </trkpt>
   <trkpt lat="-3.1177310" lon="37.3773760">
    <ele>4199.0</ele>
    <time>2026-06-23T10:25:45Z</time>
   </trkpt>
   <trkpt lat="-3.1177370" lon="37.3773730">
    <ele>4198.9</ele>
    <time>2026-06-23T10:25:46Z</time>
   </trkpt>
   <trkpt lat="-3.1177460" lon="37.3773720">
    <ele>4198.7</ele>
    <time>2026-06-23T10:25:47Z</time>
   </trkpt>
   <trkpt lat="-3.1177560" lon="37.3773710">
    <ele>4198.5</ele>
    <time>2026-06-23T10:25:48Z</time>
   </trkpt>
   <trkpt lat="-3.1177630" lon="37.3773700">
    <ele>4198.4</ele>
    <time>2026-06-23T10:25:49Z</time>
   </trkpt>
   <trkpt lat="-3.1177710" lon="37.3773670">
    <ele>4198.2</ele>
    <time>2026-06-23T10:25:50Z</time>
   </trkpt>
   <trkpt lat="-3.1177790" lon="37.3773640">
    <ele>4198.0</ele>
    <time>2026-06-23T10:25:51Z</time>
   </trkpt>
   <trkpt lat="-3.1177880" lon="37.3773620">
    <ele>4197.8</ele>
    <time>2026-06-23T10:25:52Z</time>
   </trkpt>
   <trkpt lat="-3.1177970" lon="37.3773610">
    <ele>4197.7</ele>
    <time>2026-06-23T10:25:53Z</time>
   </trkpt>
   <trkpt lat="-3.1178060" lon="37.3773580">
    <ele>4197.5</ele>
    <time>2026-06-23T10:25:54Z</time>
   </trkpt>
   <trkpt lat="-3.1178170" lon="37.3773550">
    <ele>4197.2</ele>
    <time>2026-06-23T10:25:55Z</time>
   </trkpt>
   <trkpt lat="-3.1178240" lon="37.3773540">
    <ele>4197.1</ele>
    <time>2026-06-23T10:25:56Z</time>
   </trkpt>
   <trkpt lat="-3.1178300" lon="37.3773520">
    <ele>4197.0</ele>
    <time>2026-06-23T10:25:57Z</time>
   </trkpt>
   <trkpt lat="-3.1178400" lon="37.3773480">
    <ele>4196.7</ele>
    <time>2026-06-23T10:25:58Z</time>
   </trkpt>
   <trkpt lat="-3.1178500" lon="37.3773450">
    <ele>4196.5</ele>
    <time>2026-06-23T10:25:59Z</time>
   </trkpt>
   <trkpt lat="-3.1178580" lon="37.3773440">
    <ele>4196.4</ele>
    <time>2026-06-23T10:26:00Z</time>
   </trkpt>
   <trkpt lat="-3.1178650" lon="37.3773410">
    <ele>4196.2</ele>
    <time>2026-06-23T10:26:01Z</time>
   </trkpt>
   <trkpt lat="-3.1178740" lon="37.3773380">
    <ele>4196.0</ele>
    <time>2026-06-23T10:26:02Z</time>
   </trkpt>
   <trkpt lat="-3.1178820" lon="37.3773360">
    <ele>4195.8</ele>
    <time>2026-06-23T10:26:03Z</time>
   </trkpt>
   <trkpt lat="-3.1178910" lon="37.3773320">
    <ele>4195.6</ele>
    <time>2026-06-23T10:26:04Z</time>
   </trkpt>
   <trkpt lat="-3.1179000" lon="37.3773280">
    <ele>4195.4</ele>
    <time>2026-06-23T10:26:05Z</time>
   </trkpt>
   <trkpt lat="-3.1179100" lon="37.3773240">
    <ele>4195.2</ele>
    <time>2026-06-23T10:26:06Z</time>
   </trkpt>
   <trkpt lat="-3.1179200" lon="37.3773220">
    <ele>4195.0</ele>
    <time>2026-06-23T10:26:07Z</time>
   </trkpt>
   <trkpt lat="-3.1179270" lon="37.3773210">
    <ele>4194.9</ele>
    <time>2026-06-23T10:26:08Z</time>
   </trkpt>
   <trkpt lat="-3.1179350" lon="37.3773190">
    <ele>4194.7</ele>
    <time>2026-06-23T10:26:09Z</time>
   </trkpt>
   <trkpt lat="-3.1179450" lon="37.3773150">
    <ele>4194.5</ele>
    <time>2026-06-23T10:26:10Z</time>
   </trkpt>
   <trkpt lat="-3.1179540" lon="37.3773130">
    <ele>4194.3</ele>
    <time>2026-06-23T10:26:11Z</time>
   </trkpt>
   <trkpt lat="-3.1179590" lon="37.3773110">
    <ele>4194.2</ele>
    <time>2026-06-23T10:26:12Z</time>
   </trkpt>
   <trkpt lat="-3.1179690" lon="37.3773060">
    <ele>4194.0</ele>
    <time>2026-06-23T10:26:13Z</time>
   </trkpt>
   <trkpt lat="-3.1179780" lon="37.3773030">
    <ele>4193.8</ele>
    <time>2026-06-23T10:26:14Z</time>
   </trkpt>
   <trkpt lat="-3.1179890" lon="37.3773010">
    <ele>4193.5</ele>
    <time>2026-06-23T10:26:15Z</time>
   </trkpt>
   <trkpt lat="-3.1179950" lon="37.3773000">
    <ele>4193.4</ele>
    <time>2026-06-23T10:26:16Z</time>
   </trkpt>
   <trkpt lat="-3.1180030" lon="37.3772960">
    <ele>4193.2</ele>
    <time>2026-06-23T10:26:17Z</time>
   </trkpt>
   <trkpt lat="-3.1180100" lon="37.3772900">
    <ele>4193.1</ele>
    <time>2026-06-23T10:26:18Z</time>
   </trkpt>
   <trkpt lat="-3.1180180" lon="37.3772850">
    <ele>4192.9</ele>
    <time>2026-06-23T10:26:19Z</time>
   </trkpt>
   <trkpt lat="-3.1180250" lon="37.3772800">
    <ele>4192.7</ele>
    <time>2026-06-23T10:26:21Z</time>
   </trkpt>
   <trkpt lat="-3.1180340" lon="37.3772750">
    <ele>4192.5</ele>
    <time>2026-06-23T10:26:22Z</time>
   </trkpt>
   <trkpt lat="-3.1180400" lon="37.3772720">
    <ele>4192.3</ele>
    <time>2026-06-23T10:26:23Z</time>
   </trkpt>
   <trkpt lat="-3.1180490" lon="37.3772690">
    <ele>4192.1</ele>
    <time>2026-06-23T10:26:24Z</time>
   </trkpt>
   <trkpt lat="-3.1180560" lon="37.3772660">
    <ele>4192.0</ele>
    <time>2026-06-23T10:26:25Z</time>
   </trkpt>
   <trkpt lat="-3.1180650" lon="37.3772640">
    <ele>4191.8</ele>
    <time>2026-06-23T10:26:26Z</time>
   </trkpt>
   <trkpt lat="-3.1180740" lon="37.3772640">
    <ele>4191.6</ele>
    <time>2026-06-23T10:26:27Z</time>
   </trkpt>
   <trkpt lat="-3.1180820" lon="37.3772620">
    <ele>4191.4</ele>
    <time>2026-06-23T10:26:28Z</time>
   </trkpt>
   <trkpt lat="-3.1180910" lon="37.3772630">
    <ele>4191.3</ele>
    <time>2026-06-23T10:26:29Z</time>
   </trkpt>
   <trkpt lat="-3.1180990" lon="37.3772650">
    <ele>4191.1</ele>
    <time>2026-06-23T10:26:30Z</time>
   </trkpt>
   <trkpt lat="-3.1181080" lon="37.3772650">
    <ele>4190.9</ele>
    <time>2026-06-23T10:26:31Z</time>
   </trkpt>
   <trkpt lat="-3.1181140" lon="37.3772600">
    <ele>4190.7</ele>
    <time>2026-06-23T10:26:32Z</time>
   </trkpt>
   <trkpt lat="-3.1181240" lon="37.3772560">
    <ele>4190.5</ele>
    <time>2026-06-23T10:26:33Z</time>
   </trkpt>
   <trkpt lat="-3.1181330" lon="37.3772490">
    <ele>4190.3</ele>
    <time>2026-06-23T10:26:34Z</time>
   </trkpt>
   <trkpt lat="-3.1181380" lon="37.3772420">
    <ele>4190.1</ele>
    <time>2026-06-23T10:26:35Z</time>
   </trkpt>
   <trkpt lat="-3.1181400" lon="37.3772380">
    <ele>4190.0</ele>
    <time>2026-06-23T10:26:36Z</time>
   </trkpt>
   <trkpt lat="-3.1181450" lon="37.3772320">
    <ele>4189.8</ele>
    <time>2026-06-23T10:26:37Z</time>
   </trkpt>
   <trkpt lat="-3.1181480" lon="37.3772310">
    <ele>4189.8</ele>
    <time>2026-06-23T10:26:38Z</time>
   </trkpt>
   <trkpt lat="-3.1181490" lon="37.3772290">
    <ele>4189.7</ele>
    <time>2026-06-23T10:26:39Z</time>
   </trkpt>
   <trkpt lat="-3.1181490" lon="37.3772300">
    <ele>4189.7</ele>
    <time>2026-06-23T10:26:40Z</time>
   </trkpt>
   <trkpt lat="-3.1181480" lon="37.3772300">
    <ele>4189.7</ele>
    <time>2026-06-23T10:26:41Z</time>
   </trkpt>
   <trkpt lat="-3.1181480" lon="37.3772300">
    <ele>4189.7</ele>
    <time>2026-06-23T10:26:42Z</time>
   </trkpt>
   <trkpt lat="-3.1181500" lon="37.3772300">
    <ele>4189.6</ele>
    <time>2026-06-23T10:26:43Z</time>
   </trkpt>
   <trkpt lat="-3.1181510" lon="37.3772270">
    <ele>4189.6</ele>
    <time>2026-06-23T10:26:44Z</time>
   </trkpt>
   <trkpt lat="-3.1181500" lon="37.3772290">
    <ele>4189.5</ele>
    <time>2026-06-23T10:26:45Z</time>
   </trkpt>
   <trkpt lat="-3.1181500" lon="37.3772290">
    <ele>4189.5</ele>
    <time>2026-06-23T10:26:46Z</time>
   </trkpt>
   <trkpt lat="-3.1181500" lon="37.3772290">
    <ele>4189.5</ele>
    <time>2026-06-23T10:26:47Z</time>
   </trkpt>
   <trkpt lat="-3.1181510" lon="37.3772290">
    <ele>4189.5</ele>
    <time>2026-06-23T10:26:48Z</time>
   </trkpt>
   <trkpt lat="-3.1181510" lon="37.3772280">
    <ele>4189.5</ele>
    <time>2026-06-23T10:26:49Z</time>
   </trkpt>
   <trkpt lat="-3.1181510" lon="37.3772280">
    <ele>4189.5</ele>
    <time>2026-06-23T10:26:50Z</time>
   </trkpt>
   <trkpt lat="-3.1181510" lon="37.3772290">
    <ele>4189.5</ele>
    <time>2026-06-23T10:26:51Z</time>
   </trkpt>
   <trkpt lat="-3.1181510" lon="37.3772290">
    <ele>4189.5</ele>
    <time>2026-06-23T10:26:52Z</time>
   </trkpt>
   <trkpt lat="-3.1181510" lon="37.3772290">
    <ele>4189.5</ele>
    <time>2026-06-23T10:26:53Z</time>
   </trkpt>
   <trkpt lat="-3.1181520" lon="37.3772280">
    <ele>4189.4</ele>
    <time>2026-06-23T10:26:54Z</time>
   </trkpt>
   <trkpt lat="-3.1181520" lon="37.3772280">
    <ele>4189.4</ele>
    <time>2026-06-23T10:26:55Z</time>
   </trkpt>
   <trkpt lat="-3.1181530" lon="37.3772280">
    <ele>4189.4</ele>
    <time>2026-06-23T10:26:56Z</time>
   </trkpt>
   <trkpt lat="-3.1181530" lon="37.3772290">
    <ele>4189.4</ele>
    <time>2026-06-23T10:26:57Z</time>
   </trkpt>
   <trkpt lat="-3.1181540" lon="37.3772300">
    <ele>4189.4</ele>
    <time>2026-06-23T10:26:58Z</time>
   </trkpt>
   <trkpt lat="-3.1181540" lon="37.3772300">
    <ele>4189.4</ele>
    <time>2026-06-23T10:26:59Z</time>
   </trkpt>
   <trkpt lat="-3.1181540" lon="37.3772290">
    <ele>4189.3</ele>
    <time>2026-06-23T10:27:00Z</time>
   </trkpt>
   <trkpt lat="-3.1181530" lon="37.3772290">
    <ele>4189.3</ele>
    <time>2026-06-23T10:27:01Z</time>
   </trkpt>
   <trkpt lat="-3.1181530" lon="37.3772290">
    <ele>4189.3</ele>
    <time>2026-06-23T10:27:02Z</time>
   </trkpt>
   <trkpt lat="-3.1181530" lon="37.3772270">
    <ele>4189.3</ele>
    <time>2026-06-23T10:27:03Z</time>
   </trkpt>
   <trkpt lat="-3.1181520" lon="37.3772280">
    <ele>4189.3</ele>
    <time>2026-06-23T10:27:04Z</time>
   </trkpt>
   <trkpt lat="-3.1181530" lon="37.3772280">
    <ele>4189.2</ele>
    <time>2026-06-23T10:27:05Z</time>
   </trkpt>
   <trkpt lat="-3.1181520" lon="37.3772290">
    <ele>4189.2</ele>
    <time>2026-06-23T10:27:06Z</time>
   </trkpt>
   <trkpt lat="-3.1181520" lon="37.3772290">
    <ele>4189.2</ele>
    <time>2026-06-23T10:27:07Z</time>
   </trkpt>
   <trkpt lat="-3.1181520" lon="37.3772290">
    <ele>4189.2</ele>
    <time>2026-06-23T10:27:08Z</time>
   </trkpt>
   <trkpt lat="-3.1181520" lon="37.3772290">
    <ele>4189.2</ele>
    <time>2026-06-23T10:27:09Z</time>
   </trkpt>
   <trkpt lat="-3.1181520" lon="37.3772290">
    <ele>4189.2</ele>
    <time>2026-06-23T10:27:10Z</time>
   </trkpt>
   <trkpt lat="-3.1181520" lon="37.3772290">
    <ele>4189.2</ele>
    <time>2026-06-23T10:27:11Z</time>
   </trkpt>
   <trkpt lat="-3.1181520" lon="37.3772290">
    <ele>4189.2</ele>
    <time>2026-06-23T10:27:12Z</time>
   </trkpt>
   <trkpt lat="-3.1181520" lon="37.3772290">
    <ele>4189.2</ele>
    <time>2026-06-23T10:27:13Z</time>
   </trkpt>
   <trkpt lat="-3.1181520" lon="37.3772290">
    <ele>4189.2</ele>
    <time>2026-06-23T10:27:14Z</time>
   </trkpt>
   <trkpt lat="-3.1181520" lon="37.3772290">
    <ele>4189.2</ele>
    <time>2026-06-23T10:27:15Z</time>
   </trkpt>
   <trkpt lat="-3.1181490" lon="37.3772300">
    <ele>4189.1</ele>
    <time>2026-06-23T10:27:16Z</time>
   </trkpt>
   <trkpt lat="-3.1181490" lon="37.3772300">
    <ele>4189.1</ele>
    <time>2026-06-23T10:27:17Z</time>
   </trkpt>
   <trkpt lat="-3.1181490" lon="37.3772300">
    <ele>4189.1</ele>
    <time>2026-06-23T10:27:18Z</time>
   </trkpt>
   <trkpt lat="-3.1181490" lon="37.3772300">
    <ele>4189.1</ele>
    <time>2026-06-23T10:27:19Z</time>
   </trkpt>
   <trkpt lat="-3.1181490" lon="37.3772300">
    <ele>4189.1</ele>
    <time>2026-06-23T10:27:20Z</time>
   </trkpt>
   <trkpt lat="-3.1181490" lon="37.3772300">
    <ele>4189.1</ele>
    <time>2026-06-23T10:27:21Z</time>
   </trkpt>
   <trkpt lat="-3.1181490" lon="37.3772300">
    <ele>4189.1</ele>
    <time>2026-06-23T10:27:22Z</time>
   </trkpt>
   <trkpt lat="-3.1181480" lon="37.3772300">
    <ele>4189.1</ele>
    <time>2026-06-23T10:27:23Z</time>
   </trkpt>
   <trkpt lat="-3.1181490" lon="37.3772300">
    <ele>4189.1</ele>
    <time>2026-06-23T10:27:24Z</time>
   </trkpt>
   <trkpt lat="-3.1181490" lon="37.3772310">
    <ele>4189.1</ele>
    <time>2026-06-23T10:27:25Z</time>
   </trkpt>
   <trkpt lat="-3.1181490" lon="37.3772310">
    <ele>4189.1</ele>
    <time>2026-06-23T10:27:26Z</time>
   </trkpt>
   <trkpt lat="-3.1181480" lon="37.3772300">
    <ele>4189.0</ele>
    <time>2026-06-23T10:27:27Z</time>
   </trkpt>
   <trkpt lat="-3.1181480" lon="37.3772310">
    <ele>4189.0</ele>
    <time>2026-06-23T10:27:28Z</time>
   </trkpt>
   <trkpt lat="-3.1181490" lon="37.3772290">
    <ele>4189.0</ele>
    <time>2026-06-23T10:27:29Z</time>
   </trkpt>
   <trkpt lat="-3.1181480" lon="37.3772290">
    <ele>4189.0</ele>
    <time>2026-06-23T10:27:30Z</time>
   </trkpt>
   <trkpt lat="-3.1181480" lon="37.3772290">
    <ele>4189.0</ele>
    <time>2026-06-23T10:27:31Z</time>
   </trkpt>
   <trkpt lat="-3.1181480" lon="37.3772290">
    <ele>4189.0</ele>
    <time>2026-06-23T10:27:32Z</time>
   </trkpt>
   <trkpt lat="-3.1181480" lon="37.3772300">
    <ele>4188.9</ele>
    <time>2026-06-23T10:27:33Z</time>
   </trkpt>
   <trkpt lat="-3.1181470" lon="37.3772310">
    <ele>4188.9</ele>
    <time>2026-06-23T10:27:34Z</time>
   </trkpt>
   <trkpt lat="-3.1181470" lon="37.3772310">
    <ele>4188.9</ele>
    <time>2026-06-23T10:27:35Z</time>
   </trkpt>
   <trkpt lat="-3.1181480" lon="37.3772310">
    <ele>4188.9</ele>
    <time>2026-06-23T10:27:36Z</time>
   </trkpt>
   <trkpt lat="-3.1181470" lon="37.3772310">
    <ele>4188.9</ele>
    <time>2026-06-23T10:27:37Z</time>
   </trkpt>
   <trkpt lat="-3.1181470" lon="37.3772310">
    <ele>4188.9</ele>
    <time>2026-06-23T10:27:38Z</time>
   </trkpt>
   <trkpt lat="-3.1181480" lon="37.3772320">
    <ele>4188.8</ele>
    <time>2026-06-23T10:27:39Z</time>
   </trkpt>
   <trkpt lat="-3.1181470" lon="37.3772310">
    <ele>4188.8</ele>
    <time>2026-06-23T10:27:40Z</time>
   </trkpt>
   <trkpt lat="-3.1181480" lon="37.3772310">
    <ele>4188.8</ele>
    <time>2026-06-23T10:27:41Z</time>
   </trkpt>
   <trkpt lat="-3.1181490" lon="37.3772310">
    <ele>4188.8</ele>
    <time>2026-06-23T10:27:42Z</time>
   </trkpt>
   <trkpt lat="-3.1181480" lon="37.3772300">
    <ele>4188.7</ele>
    <time>2026-06-23T10:27:43Z</time>
   </trkpt>
   <trkpt lat="-3.1181510" lon="37.3772290">
    <ele>4188.7</ele>
    <time>2026-06-23T10:27:44Z</time>
   </trkpt>
   <trkpt lat="-3.1181500" lon="37.3772300">
    <ele>4188.6</ele>
    <time>2026-06-23T10:27:45Z</time>
   </trkpt>
   <trkpt lat="-3.1181500" lon="37.3772290">
    <ele>4188.6</ele>
    <time>2026-06-23T10:27:46Z</time>
   </trkpt>
   <trkpt lat="-3.1181490" lon="37.3772300">
    <ele>4188.6</ele>
    <time>2026-06-23T10:27:47Z</time>
   </trkpt>
   <trkpt lat="-3.1181490" lon="37.3772300">
    <ele>4188.6</ele>
    <time>2026-06-23T10:27:48Z</time>
   </trkpt>
   <trkpt lat="-3.1181490" lon="37.3772300">
    <ele>4188.6</ele>
    <time>2026-06-23T10:27:49Z</time>
   </trkpt>
   <trkpt lat="-3.1181490" lon="37.3772310">
    <ele>4188.6</ele>
    <time>2026-06-23T10:27:50Z</time>
   </trkpt>
   <trkpt lat="-3.1181490" lon="37.3772310">
    <ele>4188.6</ele>
    <time>2026-06-23T10:27:51Z</time>
   </trkpt>
   <trkpt lat="-3.1181490" lon="37.3772310">
    <ele>4188.6</ele>
    <time>2026-06-23T10:27:52Z</time>
   </trkpt>
   <trkpt lat="-3.1181480" lon="37.3772320">
    <ele>4188.5</ele>
    <time>2026-06-23T10:27:53Z</time>
   </trkpt>
   <trkpt lat="-3.1181490" lon="37.3772310">
    <ele>4188.5</ele>
    <time>2026-06-23T10:27:54Z</time>
   </trkpt>
   <trkpt lat="-3.1181470" lon="37.3772310">
    <ele>4188.5</ele>
    <time>2026-06-23T10:27:55Z</time>
   </trkpt>
   <trkpt lat="-3.1181480" lon="37.3772300">
    <ele>4188.4</ele>
    <time>2026-06-23T10:27:56Z</time>
   </trkpt>
   <trkpt lat="-3.1181520" lon="37.3772300">
    <ele>4188.4</ele>
    <time>2026-06-23T10:27:57Z</time>
   </trkpt>
   <trkpt lat="-3.1181490" lon="37.3772330">
    <ele>4188.3</ele>
    <time>2026-06-23T10:27:58Z</time>
   </trkpt>
   <trkpt lat="-3.1181560" lon="37.3772250">
    <ele>4188.0</ele>
    <time>2026-06-23T10:27:59Z</time>
   </trkpt>
   <trkpt lat="-3.1181610" lon="37.3772190">
    <ele>4187.9</ele>
    <time>2026-06-23T10:28:00Z</time>
   </trkpt>
   <trkpt lat="-3.1181640" lon="37.3772140">
    <ele>4187.8</ele>
    <time>2026-06-23T10:28:01Z</time>
   </trkpt>
   <trkpt lat="-3.1181680" lon="37.3772110">
    <ele>4187.7</ele>
    <time>2026-06-23T10:28:02Z</time>
   </trkpt>
   <trkpt lat="-3.1181720" lon="37.3772090">
    <ele>4187.6</ele>
    <time>2026-06-23T10:28:03Z</time>
   </trkpt>
   <trkpt lat="-3.1181780" lon="37.3772060">
    <ele>4187.4</ele>
    <time>2026-06-23T10:28:04Z</time>
   </trkpt>
   <trkpt lat="-3.1181860" lon="37.3772020">
    <ele>4187.2</ele>
    <time>2026-06-23T10:28:05Z</time>
   </trkpt>
   <trkpt lat="-3.1181930" lon="37.3772000">
    <ele>4187.1</ele>
    <time>2026-06-23T10:28:06Z</time>
   </trkpt>
   <trkpt lat="-3.1181980" lon="37.3771990">
    <ele>4187.0</ele>
    <time>2026-06-23T10:28:07Z</time>
   </trkpt>
   <trkpt lat="-3.1182040" lon="37.3771990">
    <ele>4186.9</ele>
    <time>2026-06-23T10:28:08Z</time>
   </trkpt>
   <trkpt lat="-3.1182090" lon="37.3771970">
    <ele>4186.7</ele>
    <time>2026-06-23T10:28:09Z</time>
   </trkpt>
   <trkpt lat="-3.1182140" lon="37.3771960">
    <ele>4186.6</ele>
    <time>2026-06-23T10:28:10Z</time>
   </trkpt>
   <trkpt lat="-3.1182190" lon="37.3771960">
    <ele>4186.5</ele>
    <time>2026-06-23T10:28:11Z</time>
   </trkpt>
   <trkpt lat="-3.1182230" lon="37.3771950">
    <ele>4186.4</ele>
    <time>2026-06-23T10:28:12Z</time>
   </trkpt>
   <trkpt lat="-3.1182280" lon="37.3771950">
    <ele>4186.3</ele>
    <time>2026-06-23T10:28:13Z</time>
   </trkpt>
   <trkpt lat="-3.1182330" lon="37.3771960">
    <ele>4186.2</ele>
    <time>2026-06-23T10:28:14Z</time>
   </trkpt>
   <trkpt lat="-3.1182400" lon="37.3771940">
    <ele>4186.1</ele>
    <time>2026-06-23T10:28:15Z</time>
   </trkpt>
   <trkpt lat="-3.1182490" lon="37.3771930">
    <ele>4185.9</ele>
    <time>2026-06-23T10:28:16Z</time>
   </trkpt>
   <trkpt lat="-3.1182540" lon="37.3771930">
    <ele>4185.8</ele>
    <time>2026-06-23T10:28:17Z</time>
   </trkpt>
   <trkpt lat="-3.1182640" lon="37.3771900">
    <ele>4185.6</ele>
    <time>2026-06-23T10:28:18Z</time>
   </trkpt>
   <trkpt lat="-3.1182680" lon="37.3771890">
    <ele>4185.5</ele>
    <time>2026-06-23T10:28:19Z</time>
   </trkpt>
   <trkpt lat="-3.1182760" lon="37.3771890">
    <ele>4185.3</ele>
    <time>2026-06-23T10:28:20Z</time>
   </trkpt>
   <trkpt lat="-3.1182830" lon="37.3771910">
    <ele>4185.2</ele>
    <time>2026-06-23T10:28:21Z</time>
   </trkpt>
   <trkpt lat="-3.1182900" lon="37.3771920">
    <ele>4185.0</ele>
    <time>2026-06-23T10:28:22Z</time>
   </trkpt>
   <trkpt lat="-3.1182970" lon="37.3771890">
    <ele>4184.9</ele>
    <time>2026-06-23T10:28:23Z</time>
   </trkpt>
   <trkpt lat="-3.1183040" lon="37.3771840">
    <ele>4184.7</ele>
    <time>2026-06-23T10:28:24Z</time>
   </trkpt>
   <trkpt lat="-3.1183100" lon="37.3771780">
    <ele>4184.5</ele>
    <time>2026-06-23T10:28:25Z</time>
   </trkpt>
   <trkpt lat="-3.1183120" lon="37.3771760">
    <ele>4184.4</ele>
    <time>2026-06-23T10:28:27Z</time>
   </trkpt>
   <trkpt lat="-3.1183190" lon="37.3771730">
    <ele>4184.3</ele>
    <time>2026-06-23T10:28:28Z</time>
   </trkpt>
   <trkpt lat="-3.1183270" lon="37.3771710">
    <ele>4184.1</ele>
    <time>2026-06-23T10:28:29Z</time>
   </trkpt>
   <trkpt lat="-3.1183340" lon="37.3771700">
    <ele>4184.0</ele>
    <time>2026-06-23T10:28:30Z</time>
   </trkpt>
   <trkpt lat="-3.1183420" lon="37.3771670">
    <ele>4183.8</ele>
    <time>2026-06-23T10:28:31Z</time>
   </trkpt>
   <trkpt lat="-3.1183550" lon="37.3771630">
    <ele>4183.5</ele>
    <time>2026-06-23T10:28:32Z</time>
   </trkpt>
   <trkpt lat="-3.1183600" lon="37.3771600">
    <ele>4183.4</ele>
    <time>2026-06-23T10:28:33Z</time>
   </trkpt>
   <trkpt lat="-3.1183650" lon="37.3771560">
    <ele>4183.3</ele>
    <time>2026-06-23T10:28:34Z</time>
   </trkpt>
   <trkpt lat="-3.1183690" lon="37.3771530">
    <ele>4183.2</ele>
    <time>2026-06-23T10:28:35Z</time>
   </trkpt>
   <trkpt lat="-3.1183750" lon="37.3771500">
    <ele>4183.0</ele>
    <time>2026-06-23T10:28:36Z</time>
   </trkpt>
   <trkpt lat="-3.1183840" lon="37.3771460">
    <ele>4182.8</ele>
    <time>2026-06-23T10:28:37Z</time>
   </trkpt>
   <trkpt lat="-3.1183920" lon="37.3771460">
    <ele>4182.7</ele>
    <time>2026-06-23T10:28:38Z</time>
   </trkpt>
   <trkpt lat="-3.1184010" lon="37.3771440">
    <ele>4182.5</ele>
    <time>2026-06-23T10:28:39Z</time>
   </trkpt>
   <trkpt lat="-3.1184090" lon="37.3771430">
    <ele>4182.3</ele>
    <time>2026-06-23T10:28:40Z</time>
   </trkpt>
   <trkpt lat="-3.1184150" lon="37.3771430">
    <ele>4182.2</ele>
    <time>2026-06-23T10:28:41Z</time>
   </trkpt>
   <trkpt lat="-3.1184180" lon="37.3771400">
    <ele>4182.1</ele>
    <time>2026-06-23T10:28:42Z</time>
   </trkpt>
   <trkpt lat="-3.1184190" lon="37.3771390">
    <ele>4182.1</ele>
    <time>2026-06-23T10:28:43Z</time>
   </trkpt>
   <trkpt lat="-3.1184260" lon="37.3771340">
    <ele>4181.9</ele>
    <time>2026-06-23T10:28:44Z</time>
   </trkpt>
   <trkpt lat="-3.1184340" lon="37.3771330">
    <ele>4181.7</ele>
    <time>2026-06-23T10:28:45Z</time>
   </trkpt>
   <trkpt lat="-3.1184430" lon="37.3771330">
    <ele>4181.5</ele>
    <time>2026-06-23T10:28:46Z</time>
   </trkpt>
   <trkpt lat="-3.1184510" lon="37.3771290">
    <ele>4181.4</ele>
    <time>2026-06-23T10:28:47Z</time>
   </trkpt>
   <trkpt lat="-3.1184550" lon="37.3771260">
    <ele>4181.3</ele>
    <time>2026-06-23T10:28:48Z</time>
   </trkpt>
   <trkpt lat="-3.1184600" lon="37.3771240">
    <ele>4181.1</ele>
    <time>2026-06-23T10:28:49Z</time>
   </trkpt>
   <trkpt lat="-3.1184680" lon="37.3771180">
    <ele>4180.9</ele>
    <time>2026-06-23T10:28:50Z</time>
   </trkpt>
   <trkpt lat="-3.1184740" lon="37.3771130">
    <ele>4180.8</ele>
    <time>2026-06-23T10:28:51Z</time>
   </trkpt>
   <trkpt lat="-3.1184790" lon="37.3771080">
    <ele>4180.6</ele>
    <time>2026-06-23T10:28:52Z</time>
   </trkpt>
   <trkpt lat="-3.1184840" lon="37.3771020">
    <ele>4180.5</ele>
    <time>2026-06-23T10:28:53Z</time>
   </trkpt>
   <trkpt lat="-3.1184880" lon="37.3770970">
    <ele>4180.3</ele>
    <time>2026-06-23T10:28:54Z</time>
   </trkpt>
   <trkpt lat="-3.1184950" lon="37.3770920">
    <ele>4180.2</ele>
    <time>2026-06-23T10:28:55Z</time>
   </trkpt>
   <trkpt lat="-3.1184990" lon="37.3770880">
    <ele>4180.1</ele>
    <time>2026-06-23T10:28:56Z</time>
   </trkpt>
   <trkpt lat="-3.1185060" lon="37.3770840">
    <ele>4179.9</ele>
    <time>2026-06-23T10:28:57Z</time>
   </trkpt>
   <trkpt lat="-3.1185130" lon="37.3770840">
    <ele>4179.7</ele>
    <time>2026-06-23T10:28:58Z</time>
   </trkpt>
   <trkpt lat="-3.1185210" lon="37.3770830">
    <ele>4179.6</ele>
    <time>2026-06-23T10:28:59Z</time>
   </trkpt>
   <trkpt lat="-3.1185290" lon="37.3770810">
    <ele>4179.4</ele>
    <time>2026-06-23T10:29:00Z</time>
   </trkpt>
   <trkpt lat="-3.1185380" lon="37.3770810">
    <ele>4179.2</ele>
    <time>2026-06-23T10:29:01Z</time>
   </trkpt>
   <trkpt lat="-3.1185450" lon="37.3770790">
    <ele>4179.1</ele>
    <time>2026-06-23T10:29:02Z</time>
   </trkpt>
   <trkpt lat="-3.1185500" lon="37.3770780">
    <ele>4178.9</ele>
    <time>2026-06-23T10:29:03Z</time>
   </trkpt>
   <trkpt lat="-3.1185570" lon="37.3770770">
    <ele>4178.8</ele>
    <time>2026-06-23T10:29:04Z</time>
   </trkpt>
   <trkpt lat="-3.1185630" lon="37.3770770">
    <ele>4178.7</ele>
    <time>2026-06-23T10:29:05Z</time>
   </trkpt>
   <trkpt lat="-3.1185720" lon="37.3770790">
    <ele>4178.5</ele>
    <time>2026-06-23T10:29:06Z</time>
   </trkpt>
   <trkpt lat="-3.1185820" lon="37.3770790">
    <ele>4178.2</ele>
    <time>2026-06-23T10:29:07Z</time>
   </trkpt>
   <trkpt lat="-3.1185850" lon="37.3770770">
    <ele>4178.2</ele>
    <time>2026-06-23T10:29:08Z</time>
   </trkpt>
   <trkpt lat="-3.1185880" lon="37.3770750">
    <ele>4178.1</ele>
    <time>2026-06-23T10:29:09Z</time>
   </trkpt>
   <trkpt lat="-3.1185950" lon="37.3770730">
    <ele>4177.9</ele>
    <time>2026-06-23T10:29:10Z</time>
   </trkpt>
   <trkpt lat="-3.1186030" lon="37.3770710">
    <ele>4177.7</ele>
    <time>2026-06-23T10:29:11Z</time>
   </trkpt>
   <trkpt lat="-3.1186090" lon="37.3770690">
    <ele>4177.6</ele>
    <time>2026-06-23T10:29:12Z</time>
   </trkpt>
   <trkpt lat="-3.1186180" lon="37.3770650">
    <ele>4177.4</ele>
    <time>2026-06-23T10:29:13Z</time>
   </trkpt>
   <trkpt lat="-3.1186270" lon="37.3770620">
    <ele>4177.2</ele>
    <time>2026-06-23T10:29:14Z</time>
   </trkpt>
   <trkpt lat="-3.1186340" lon="37.3770610">
    <ele>4177.0</ele>
    <time>2026-06-23T10:29:15Z</time>
   </trkpt>
   <trkpt lat="-3.1186390" lon="37.3770600">
    <ele>4176.9</ele>
    <time>2026-06-23T10:29:16Z</time>
   </trkpt>
   <trkpt lat="-3.1186460" lon="37.3770590">
    <ele>4176.8</ele>
    <time>2026-06-23T10:29:17Z</time>
   </trkpt>
   <trkpt lat="-3.1186530" lon="37.3770570">
    <ele>4176.6</ele>
    <time>2026-06-23T10:29:18Z</time>
   </trkpt>
   <trkpt lat="-3.1186590" lon="37.3770550">
    <ele>4176.4</ele>
    <time>2026-06-23T10:29:19Z</time>
   </trkpt>
   <trkpt lat="-3.1186660" lon="37.3770550">
    <ele>4176.3</ele>
    <time>2026-06-23T10:29:20Z</time>
   </trkpt>
   <trkpt lat="-3.1186730" lon="37.3770530">
    <ele>4176.1</ele>
    <time>2026-06-23T10:29:21Z</time>
   </trkpt>
   <trkpt lat="-3.1186810" lon="37.3770510">
    <ele>4175.9</ele>
    <time>2026-06-23T10:29:22Z</time>
   </trkpt>
   <trkpt lat="-3.1186880" lon="37.3770470">
    <ele>4175.8</ele>
    <time>2026-06-23T10:29:23Z</time>
   </trkpt>
   <trkpt lat="-3.1186940" lon="37.3770420">
    <ele>4175.6</ele>
    <time>2026-06-23T10:29:24Z</time>
   </trkpt>
   <trkpt lat="-3.1186990" lon="37.3770380">
    <ele>4175.4</ele>
    <time>2026-06-23T10:29:25Z</time>
   </trkpt>
   <trkpt lat="-3.1187050" lon="37.3770350">
    <ele>4175.3</ele>
    <time>2026-06-23T10:29:26Z</time>
   </trkpt>
   <trkpt lat="-3.1187120" lon="37.3770330">
    <ele>4175.1</ele>
    <time>2026-06-23T10:29:27Z</time>
   </trkpt>
   <trkpt lat="-3.1187180" lon="37.3770300">
    <ele>4175.0</ele>
    <time>2026-06-23T10:29:28Z</time>
   </trkpt>
   <trkpt lat="-3.1187190" lon="37.3770260">
    <ele>4174.9</ele>
    <time>2026-06-23T10:29:29Z</time>
   </trkpt>
   <trkpt lat="-3.1187250" lon="37.3770190">
    <ele>4174.7</ele>
    <time>2026-06-23T10:29:30Z</time>
   </trkpt>
   <trkpt lat="-3.1187310" lon="37.3770120">
    <ele>4174.5</ele>
    <time>2026-06-23T10:29:31Z</time>
   </trkpt>
   <trkpt lat="-3.1187370" lon="37.3770080">
    <ele>4174.3</ele>
    <time>2026-06-23T10:29:32Z</time>
   </trkpt>
   <trkpt lat="-3.1187430" lon="37.3770010">
    <ele>4174.1</ele>
    <time>2026-06-23T10:29:33Z</time>
   </trkpt>
   <trkpt lat="-3.1187480" lon="37.3769960">
    <ele>4174.0</ele>
    <time>2026-06-23T10:29:34Z</time>
   </trkpt>
   <trkpt lat="-3.1187540" lon="37.3769940">
    <ele>4173.8</ele>
    <time>2026-06-23T10:29:35Z</time>
   </trkpt>
   <trkpt lat="-3.1187640" lon="37.3769910">
    <ele>4173.6</ele>
    <time>2026-06-23T10:29:36Z</time>
   </trkpt>
   <trkpt lat="-3.1187700" lon="37.3769870">
    <ele>4173.4</ele>
    <time>2026-06-23T10:29:37Z</time>
   </trkpt>
   <trkpt lat="-3.1187730" lon="37.3769840">
    <ele>4173.3</ele>
    <time>2026-06-23T10:29:38Z</time>
   </trkpt>
   <trkpt lat="-3.1187790" lon="37.3769830">
    <ele>4173.2</ele>
    <time>2026-06-23T10:29:39Z</time>
   </trkpt>
   <trkpt lat="-3.1187880" lon="37.3769810">
    <ele>4173.0</ele>
    <time>2026-06-23T10:29:40Z</time>
   </trkpt>
   <trkpt lat="-3.1187990" lon="37.3769760">
    <ele>4172.7</ele>
    <time>2026-06-23T10:29:41Z</time>
   </trkpt>
   <trkpt lat="-3.1188060" lon="37.3769700">
    <ele>4172.5</ele>
    <time>2026-06-23T10:29:42Z</time>
   </trkpt>
   <trkpt lat="-3.1188130" lon="37.3769640">
    <ele>4172.3</ele>
    <time>2026-06-23T10:29:43Z</time>
   </trkpt>
   <trkpt lat="-3.1188160" lon="37.3769580">
    <ele>4172.2</ele>
    <time>2026-06-23T10:29:44Z</time>
   </trkpt>
   <trkpt lat="-3.1188180" lon="37.3769510">
    <ele>4172.0</ele>
    <time>2026-06-23T10:29:45Z</time>
   </trkpt>
   <trkpt lat="-3.1188240" lon="37.3769430">
    <ele>4171.8</ele>
    <time>2026-06-23T10:29:46Z</time>
   </trkpt>
   <trkpt lat="-3.1188300" lon="37.3769390">
    <ele>4171.6</ele>
    <time>2026-06-23T10:29:47Z</time>
   </trkpt>
   <trkpt lat="-3.1188400" lon="37.3769400">
    <ele>4171.4</ele>
    <time>2026-06-23T10:29:48Z</time>
   </trkpt>
   <trkpt lat="-3.1188490" lon="37.3769440">
    <ele>4171.2</ele>
    <time>2026-06-23T10:29:49Z</time>
   </trkpt>
   <trkpt lat="-3.1188580" lon="37.3769520">
    <ele>4170.9</ele>
    <time>2026-06-23T10:29:50Z</time>
   </trkpt>
   <trkpt lat="-3.1188640" lon="37.3769580">
    <ele>4170.7</ele>
    <time>2026-06-23T10:29:51Z</time>
   </trkpt>
   <trkpt lat="-3.1188670" lon="37.3769550">
    <ele>4170.6</ele>
    <time>2026-06-23T10:29:52Z</time>
   </trkpt>
   <trkpt lat="-3.1188650" lon="37.3769540">
    <ele>4170.6</ele>
    <time>2026-06-23T10:29:53Z</time>
   </trkpt>
   <trkpt lat="-3.1188660" lon="37.3769510">
    <ele>4170.5</ele>
    <time>2026-06-23T10:29:54Z</time>
   </trkpt>
   <trkpt lat="-3.1188670" lon="37.3769500">
    <ele>4170.5</ele>
    <time>2026-06-23T10:29:55Z</time>
   </trkpt>
   <trkpt lat="-3.1188670" lon="37.3769500">
    <ele>4170.5</ele>
    <time>2026-06-23T10:29:56Z</time>
   </trkpt>
   <trkpt lat="-3.1188680" lon="37.3769500">
    <ele>4170.4</ele>
    <time>2026-06-23T10:29:57Z</time>
   </trkpt>
   <trkpt lat="-3.1188680" lon="37.3769500">
    <ele>4170.4</ele>
    <time>2026-06-23T10:29:58Z</time>
   </trkpt>
   <trkpt lat="-3.1188700" lon="37.3769500">
    <ele>4170.4</ele>
    <time>2026-06-23T10:29:59Z</time>
   </trkpt>
   <trkpt lat="-3.1188700" lon="37.3769500">
    <ele>4170.4</ele>
    <time>2026-06-23T10:30:00Z</time>
   </trkpt>
   <trkpt lat="-3.1188700" lon="37.3769500">
    <ele>4170.4</ele>
    <time>2026-06-23T10:30:01Z</time>
   </trkpt>
   <trkpt lat="-3.1188720" lon="37.3769500">
    <ele>4170.4</ele>
    <time>2026-06-23T10:30:02Z</time>
   </trkpt>
   <trkpt lat="-3.1188770" lon="37.3769480">
    <ele>4170.2</ele>
    <time>2026-06-23T10:30:03Z</time>
   </trkpt>
   <trkpt lat="-3.1188800" lon="37.3769510">
    <ele>4170.2</ele>
    <time>2026-06-23T10:30:04Z</time>
   </trkpt>
   <trkpt lat="-3.1188760" lon="37.3769500">
    <ele>4170.1</ele>
    <time>2026-06-23T10:30:05Z</time>
   </trkpt>
   <trkpt lat="-3.1188740" lon="37.3769490">
    <ele>4170.0</ele>
    <time>2026-06-23T10:30:06Z</time>
   </trkpt>
   <trkpt lat="-3.1188730" lon="37.3769490">
    <ele>4170.0</ele>
    <time>2026-06-23T10:30:07Z</time>
   </trkpt>
   <trkpt lat="-3.1188730" lon="37.3769500">
    <ele>4170.0</ele>
    <time>2026-06-23T10:30:08Z</time>
   </trkpt>
   <trkpt lat="-3.1188730" lon="37.3769490">
    <ele>4170.0</ele>
    <time>2026-06-23T10:30:09Z</time>
   </trkpt>
   <trkpt lat="-3.1188720" lon="37.3769480">
    <ele>4169.9</ele>
    <time>2026-06-23T10:30:10Z</time>
   </trkpt>
   <trkpt lat="-3.1188790" lon="37.3769450">
    <ele>4169.8</ele>
    <time>2026-06-23T10:30:11Z</time>
   </trkpt>
   <trkpt lat="-3.1188840" lon="37.3769400">
    <ele>4169.6</ele>
    <time>2026-06-23T10:30:12Z</time>
   </trkpt>
   <trkpt lat="-3.1188880" lon="37.3769370">
    <ele>4169.5</ele>
    <time>2026-06-23T10:30:13Z</time>
   </trkpt>
   <trkpt lat="-3.1188980" lon="37.3769330">
    <ele>4169.3</ele>
    <time>2026-06-23T10:30:14Z</time>
   </trkpt>
   <trkpt lat="-3.1189010" lon="37.3769340">
    <ele>4169.2</ele>
    <time>2026-06-23T10:30:15Z</time>
   </trkpt>
   <trkpt lat="-3.1189030" lon="37.3769340">
    <ele>4169.2</ele>
    <time>2026-06-23T10:30:16Z</time>
   </trkpt>
   <trkpt lat="-3.1189010" lon="37.3769320">
    <ele>4169.1</ele>
    <time>2026-06-23T10:30:17Z</time>
   </trkpt>
   <trkpt lat="-3.1188960" lon="37.3769270">
    <ele>4168.9</ele>
    <time>2026-06-23T10:30:18Z</time>
   </trkpt>
   <trkpt lat="-3.1188970" lon="37.3769320">
    <ele>4168.8</ele>
    <time>2026-06-23T10:30:19Z</time>
   </trkpt>
   <trkpt lat="-3.1188970" lon="37.3769300">
    <ele>4168.8</ele>
    <time>2026-06-23T10:30:20Z</time>
   </trkpt>
   <trkpt lat="-3.1188970" lon="37.3769300">
    <ele>4168.8</ele>
    <time>2026-06-23T10:30:21Z</time>
   </trkpt>
   <trkpt lat="-3.1188970" lon="37.3769300">
    <ele>4168.8</ele>
    <time>2026-06-23T10:30:22Z</time>
   </trkpt>
   <trkpt lat="-3.1188960" lon="37.3769300">
    <ele>4168.8</ele>
    <time>2026-06-23T10:30:23Z</time>
   </trkpt>
   <trkpt lat="-3.1188950" lon="37.3769290">
    <ele>4168.7</ele>
    <time>2026-06-23T10:30:24Z</time>
   </trkpt>
   <trkpt lat="-3.1188940" lon="37.3769300">
    <ele>4168.7</ele>
    <time>2026-06-23T10:30:25Z</time>
   </trkpt>
   <trkpt lat="-3.1188950" lon="37.3769290">
    <ele>4168.7</ele>
    <time>2026-06-23T10:30:26Z</time>
   </trkpt>
   <trkpt lat="-3.1188950" lon="37.3769270">
    <ele>4168.6</ele>
    <time>2026-06-23T10:30:27Z</time>
   </trkpt>
   <trkpt lat="-3.1189020" lon="37.3769260">
    <ele>4168.5</ele>
    <time>2026-06-23T10:30:28Z</time>
   </trkpt>
   <trkpt lat="-3.1188990" lon="37.3769310">
    <ele>4168.4</ele>
    <time>2026-06-23T10:30:29Z</time>
   </trkpt>
   <trkpt lat="-3.1188990" lon="37.3769320">
    <ele>4168.3</ele>
    <time>2026-06-23T10:30:30Z</time>
   </trkpt>
   <trkpt lat="-3.1188980" lon="37.3769310">
    <ele>4168.3</ele>
    <time>2026-06-23T10:30:31Z</time>
   </trkpt>
   <trkpt lat="-3.1188970" lon="37.3769310">
    <ele>4168.3</ele>
    <time>2026-06-23T10:30:32Z</time>
   </trkpt>
   <trkpt lat="-3.1188990" lon="37.3769330">
    <ele>4168.2</ele>
    <time>2026-06-23T10:30:34Z</time>
   </trkpt>
   <trkpt lat="-3.1188990" lon="37.3769360">
    <ele>4168.2</ele>
    <time>2026-06-23T10:30:35Z</time>
   </trkpt>
   <trkpt lat="-3.1188990" lon="37.3769370">
    <ele>4168.1</ele>
    <time>2026-06-23T10:30:37Z</time>
   </trkpt>
   <trkpt lat="-3.1188990" lon="37.3769380">
    <ele>4168.1</ele>
    <time>2026-06-23T10:30:38Z</time>
   </trkpt>
   <trkpt lat="-3.1188980" lon="37.3769390">
    <ele>4168.1</ele>
    <time>2026-06-23T10:30:40Z</time>
   </trkpt>
   <trkpt lat="-3.1188980" lon="37.3769380">
    <ele>4168.1</ele>
    <time>2026-06-23T10:30:41Z</time>
   </trkpt>
   <trkpt lat="-3.1188980" lon="37.3769380">
    <ele>4168.1</ele>
    <time>2026-06-23T10:30:43Z</time>
   </trkpt>
   <trkpt lat="-3.1188980" lon="37.3769380">
    <ele>4168.1</ele>
    <time>2026-06-23T10:30:44Z</time>
   </trkpt>
   <trkpt lat="-3.1188980" lon="37.3769380">
    <ele>4168.1</ele>
    <time>2026-06-23T10:30:45Z</time>
   </trkpt>
   <trkpt lat="-3.1188980" lon="37.3769380">
    <ele>4168.1</ele>
    <time>2026-06-23T10:30:46Z</time>
   </trkpt>
   <trkpt lat="-3.1188970" lon="37.3769350">
    <ele>4168.0</ele>
    <time>2026-06-23T10:30:47Z</time>
   </trkpt>
   <trkpt lat="-3.1188980" lon="37.3769370">
    <ele>4167.9</ele>
    <time>2026-06-23T10:30:48Z</time>
   </trkpt>
   <trkpt lat="-3.1188970" lon="37.3769350">
    <ele>4167.9</ele>
    <time>2026-06-23T10:30:49Z</time>
   </trkpt>
   <trkpt lat="-3.1188970" lon="37.3769350">
    <ele>4167.9</ele>
    <time>2026-06-23T10:30:50Z</time>
   </trkpt>
   <trkpt lat="-3.1188970" lon="37.3769350">
    <ele>4167.9</ele>
    <time>2026-06-23T10:30:51Z</time>
   </trkpt>
   <trkpt lat="-3.1188970" lon="37.3769370">
    <ele>4167.9</ele>
    <time>2026-06-23T10:30:52Z</time>
   </trkpt>
   <trkpt lat="-3.1188970" lon="37.3769370">
    <ele>4167.9</ele>
    <time>2026-06-23T10:30:53Z</time>
   </trkpt>
   <trkpt lat="-3.1188970" lon="37.3769370">
    <ele>4167.9</ele>
    <time>2026-06-23T10:30:54Z</time>
   </trkpt>
   <trkpt lat="-3.1188970" lon="37.3769370">
    <ele>4167.9</ele>
    <time>2026-06-23T10:30:55Z</time>
   </trkpt>
   <trkpt lat="-3.1188970" lon="37.3769370">
    <ele>4167.9</ele>
    <time>2026-06-23T10:30:56Z</time>
   </trkpt>
   <trkpt lat="-3.1188970" lon="37.3769370">
    <ele>4167.9</ele>
    <time>2026-06-23T10:30:57Z</time>
   </trkpt>
   <trkpt lat="-3.1188990" lon="37.3769380">
    <ele>4167.8</ele>
    <time>2026-06-23T10:30:58Z</time>
   </trkpt>
   <trkpt lat="-3.1189040" lon="37.3769370">
    <ele>4167.7</ele>
    <time>2026-06-23T10:30:59Z</time>
   </trkpt>
   <trkpt lat="-3.1189080" lon="37.3769330">
    <ele>4167.6</ele>
    <time>2026-06-23T10:31:00Z</time>
   </trkpt>
   <trkpt lat="-3.1189160" lon="37.3769310">
    <ele>4167.4</ele>
    <time>2026-06-23T10:31:01Z</time>
   </trkpt>
   <trkpt lat="-3.1189200" lon="37.3769270">
    <ele>4167.3</ele>
    <time>2026-06-23T10:31:02Z</time>
   </trkpt>
   <trkpt lat="-3.1189240" lon="37.3769230">
    <ele>4167.2</ele>
    <time>2026-06-23T10:31:03Z</time>
   </trkpt>
   <trkpt lat="-3.1189270" lon="37.3769200">
    <ele>4167.1</ele>
    <time>2026-06-23T10:31:04Z</time>
   </trkpt>
   <trkpt lat="-3.1189300" lon="37.3769190">
    <ele>4167.0</ele>
    <time>2026-06-23T10:31:05Z</time>
   </trkpt>
   <trkpt lat="-3.1189330" lon="37.3769170">
    <ele>4166.9</ele>
    <time>2026-06-23T10:31:06Z</time>
   </trkpt>
   <trkpt lat="-3.1189360" lon="37.3769160">
    <ele>4166.9</ele>
    <time>2026-06-23T10:31:07Z</time>
   </trkpt>
   <trkpt lat="-3.1189400" lon="37.3769150">
    <ele>4166.8</ele>
    <time>2026-06-23T10:31:08Z</time>
   </trkpt>
   <trkpt lat="-3.1189440" lon="37.3769130">
    <ele>4166.7</ele>
    <time>2026-06-23T10:31:09Z</time>
   </trkpt>
   <trkpt lat="-3.1189500" lon="37.3769130">
    <ele>4166.6</ele>
    <time>2026-06-23T10:31:10Z</time>
   </trkpt>
   <trkpt lat="-3.1189530" lon="37.3769130">
    <ele>4166.5</ele>
    <time>2026-06-23T10:31:11Z</time>
   </trkpt>
   <trkpt lat="-3.1189600" lon="37.3769100">
    <ele>4166.3</ele>
    <time>2026-06-23T10:31:12Z</time>
   </trkpt>
   <trkpt lat="-3.1189640" lon="37.3769040">
    <ele>4166.2</ele>
    <time>2026-06-23T10:31:13Z</time>
   </trkpt>
   <trkpt lat="-3.1189690" lon="37.3768990">
    <ele>4166.0</ele>
    <time>2026-06-23T10:31:14Z</time>
   </trkpt>
   <trkpt lat="-3.1189730" lon="37.3768960">
    <ele>4165.9</ele>
    <time>2026-06-23T10:31:15Z</time>
   </trkpt>
   <trkpt lat="-3.1189790" lon="37.3768910">
    <ele>4165.8</ele>
    <time>2026-06-23T10:31:16Z</time>
   </trkpt>
   <trkpt lat="-3.1189850" lon="37.3768870">
    <ele>4165.6</ele>
    <time>2026-06-23T10:31:17Z</time>
   </trkpt>
   <trkpt lat="-3.1189910" lon="37.3768840">
    <ele>4165.5</ele>
    <time>2026-06-23T10:31:18Z</time>
   </trkpt>
   <trkpt lat="-3.1189980" lon="37.3768780">
    <ele>4165.3</ele>
    <time>2026-06-23T10:31:19Z</time>
   </trkpt>
   <trkpt lat="-3.1190020" lon="37.3768770">
    <ele>4165.2</ele>
    <time>2026-06-23T10:31:20Z</time>
   </trkpt>
   <trkpt lat="-3.1190090" lon="37.3768760">
    <ele>4165.0</ele>
    <time>2026-06-23T10:31:21Z</time>
   </trkpt>
   <trkpt lat="-3.1190150" lon="37.3768760">
    <ele>4164.9</ele>
    <time>2026-06-23T10:31:22Z</time>
   </trkpt>
   <trkpt lat="-3.1190200" lon="37.3768780">
    <ele>4164.8</ele>
    <time>2026-06-23T10:31:23Z</time>
   </trkpt>
   <trkpt lat="-3.1190250" lon="37.3768770">
    <ele>4164.7</ele>
    <time>2026-06-23T10:31:24Z</time>
   </trkpt>
   <trkpt lat="-3.1190320" lon="37.3768760">
    <ele>4164.5</ele>
    <time>2026-06-23T10:31:25Z</time>
   </trkpt>
   <trkpt lat="-3.1190370" lon="37.3768740">
    <ele>4164.4</ele>
    <time>2026-06-23T10:31:26Z</time>
   </trkpt>
   <trkpt lat="-3.1190420" lon="37.3768690">
    <ele>4164.3</ele>
    <time>2026-06-23T10:31:27Z</time>
   </trkpt>
   <trkpt lat="-3.1190470" lon="37.3768610">
    <ele>4164.1</ele>
    <time>2026-06-23T10:31:28Z</time>
   </trkpt>
   <trkpt lat="-3.1190500" lon="37.3768540">
    <ele>4163.9</ele>
    <time>2026-06-23T10:31:29Z</time>
   </trkpt>
   <trkpt lat="-3.1190530" lon="37.3768470">
    <ele>4163.8</ele>
    <time>2026-06-23T10:31:30Z</time>
   </trkpt>
   <trkpt lat="-3.1190560" lon="37.3768400">
    <ele>4163.6</ele>
    <time>2026-06-23T10:31:31Z</time>
   </trkpt>
   <trkpt lat="-3.1190590" lon="37.3768330">
    <ele>4163.4</ele>
    <time>2026-06-23T10:31:32Z</time>
   </trkpt>
   <trkpt lat="-3.1190610" lon="37.3768280">
    <ele>4163.3</ele>
    <time>2026-06-23T10:31:33Z</time>
   </trkpt>
   <trkpt lat="-3.1190660" lon="37.3768230">
    <ele>4163.2</ele>
    <time>2026-06-23T10:31:34Z</time>
   </trkpt>
   <trkpt lat="-3.1190720" lon="37.3768190">
    <ele>4163.0</ele>
    <time>2026-06-23T10:31:35Z</time>
   </trkpt>
   <trkpt lat="-3.1190780" lon="37.3768160">
    <ele>4162.9</ele>
    <time>2026-06-23T10:31:36Z</time>
   </trkpt>
   <trkpt lat="-3.1190830" lon="37.3768130">
    <ele>4162.7</ele>
    <time>2026-06-23T10:31:37Z</time>
   </trkpt>
   <trkpt lat="-3.1190900" lon="37.3768090">
    <ele>4162.6</ele>
    <time>2026-06-23T10:31:38Z</time>
   </trkpt>
   <trkpt lat="-3.1190960" lon="37.3768040">
    <ele>4162.4</ele>
    <time>2026-06-23T10:31:39Z</time>
   </trkpt>
   <trkpt lat="-3.1191010" lon="37.3768010">
    <ele>4162.3</ele>
    <time>2026-06-23T10:31:40Z</time>
   </trkpt>
   <trkpt lat="-3.1191090" lon="37.3768000">
    <ele>4162.1</ele>
    <time>2026-06-23T10:31:41Z</time>
   </trkpt>
   <trkpt lat="-3.1191170" lon="37.3767970">
    <ele>4161.9</ele>
    <time>2026-06-23T10:31:42Z</time>
   </trkpt>
   <trkpt lat="-3.1191230" lon="37.3767910">
    <ele>4161.7</ele>
    <time>2026-06-23T10:31:43Z</time>
   </trkpt>
   <trkpt lat="-3.1191280" lon="37.3767860">
    <ele>4161.6</ele>
    <time>2026-06-23T10:31:44Z</time>
   </trkpt>
   <trkpt lat="-3.1191340" lon="37.3767810">
    <ele>4161.4</ele>
    <time>2026-06-23T10:31:45Z</time>
   </trkpt>
   <trkpt lat="-3.1191410" lon="37.3767770">
    <ele>4161.2</ele>
    <time>2026-06-23T10:31:46Z</time>
   </trkpt>
   <trkpt lat="-3.1191490" lon="37.3767730">
    <ele>4161.0</ele>
    <time>2026-06-23T10:31:47Z</time>
   </trkpt>
   <trkpt lat="-3.1191550" lon="37.3767700">
    <ele>4160.9</ele>
    <time>2026-06-23T10:31:48Z</time>
   </trkpt>
   <trkpt lat="-3.1191590" lon="37.3767670">
    <ele>4160.8</ele>
    <time>2026-06-23T10:31:49Z</time>
   </trkpt>
   <trkpt lat="-3.1191640" lon="37.3767670">
    <ele>4160.7</ele>
    <time>2026-06-23T10:31:50Z</time>
   </trkpt>
   <trkpt lat="-3.1191720" lon="37.3767690">
    <ele>4160.5</ele>
    <time>2026-06-23T10:31:51Z</time>
   </trkpt>
   <trkpt lat="-3.1191750" lon="37.3767670">
    <ele>4160.4</ele>
    <time>2026-06-23T10:31:52Z</time>
   </trkpt>
   <trkpt lat="-3.1191820" lon="37.3767650">
    <ele>4160.2</ele>
    <time>2026-06-23T10:31:53Z</time>
   </trkpt>
   <trkpt lat="-3.1191870" lon="37.3767620">
    <ele>4160.1</ele>
    <time>2026-06-23T10:31:54Z</time>
   </trkpt>
   <trkpt lat="-3.1191930" lon="37.3767580">
    <ele>4160.0</ele>
    <time>2026-06-23T10:31:55Z</time>
   </trkpt>
   <trkpt lat="-3.1191970" lon="37.3767530">
    <ele>4159.8</ele>
    <time>2026-06-23T10:31:56Z</time>
   </trkpt>
   <trkpt lat="-3.1192010" lon="37.3767480">
    <ele>4159.7</ele>
    <time>2026-06-23T10:31:57Z</time>
   </trkpt>
   <trkpt lat="-3.1192070" lon="37.3767410">
    <ele>4159.5</ele>
    <time>2026-06-23T10:31:58Z</time>
   </trkpt>
   <trkpt lat="-3.1192120" lon="37.3767380">
    <ele>4159.3</ele>
    <time>2026-06-23T10:31:59Z</time>
   </trkpt>
   <trkpt lat="-3.1192220" lon="37.3767330">
    <ele>4159.1</ele>
    <time>2026-06-23T10:32:00Z</time>
   </trkpt>
   <trkpt lat="-3.1192270" lon="37.3767290">
    <ele>4158.9</ele>
    <time>2026-06-23T10:32:01Z</time>
   </trkpt>
   <trkpt lat="-3.1192340" lon="37.3767240">
    <ele>4158.7</ele>
    <time>2026-06-23T10:32:02Z</time>
   </trkpt>
   <trkpt lat="-3.1192410" lon="37.3767190">
    <ele>4158.5</ele>
    <time>2026-06-23T10:32:03Z</time>
   </trkpt>
   <trkpt lat="-3.1192460" lon="37.3767150">
    <ele>4158.4</ele>
    <time>2026-06-23T10:32:04Z</time>
   </trkpt>
   <trkpt lat="-3.1192500" lon="37.3767130">
    <ele>4158.3</ele>
    <time>2026-06-23T10:32:05Z</time>
   </trkpt>
   <trkpt lat="-3.1192570" lon="37.3767110">
    <ele>4158.1</ele>
    <time>2026-06-23T10:32:06Z</time>
   </trkpt>
   <trkpt lat="-3.1192620" lon="37.3767070">
    <ele>4158.0</ele>
    <time>2026-06-23T10:32:07Z</time>
   </trkpt>
   <trkpt lat="-3.1192700" lon="37.3767040">
    <ele>4157.8</ele>
    <time>2026-06-23T10:32:08Z</time>
   </trkpt>
   <trkpt lat="-3.1192740" lon="37.3767020">
    <ele>4157.7</ele>
    <time>2026-06-23T10:32:09Z</time>
   </trkpt>
   <trkpt lat="-3.1192790" lon="37.3766990">
    <ele>4157.5</ele>
    <time>2026-06-23T10:32:10Z</time>
   </trkpt>
   <trkpt lat="-3.1192860" lon="37.3766970">
    <ele>4157.3</ele>
    <time>2026-06-23T10:32:11Z</time>
   </trkpt>
   <trkpt lat="-3.1192920" lon="37.3766940">
    <ele>4157.2</ele>
    <time>2026-06-23T10:32:12Z</time>
   </trkpt>
   <trkpt lat="-3.1193000" lon="37.3766970">
    <ele>4157.0</ele>
    <time>2026-06-23T10:32:13Z</time>
   </trkpt>
   <trkpt lat="-3.1193060" lon="37.3766990">
    <ele>4156.8</ele>
    <time>2026-06-23T10:32:14Z</time>
   </trkpt>
   <trkpt lat="-3.1193120" lon="37.3767000">
    <ele>4156.7</ele>
    <time>2026-06-23T10:32:15Z</time>
   </trkpt>
   <trkpt lat="-3.1193200" lon="37.3766990">
    <ele>4156.5</ele>
    <time>2026-06-23T10:32:16Z</time>
   </trkpt>
   <trkpt lat="-3.1193270" lon="37.3766980">
    <ele>4156.3</ele>
    <time>2026-06-23T10:32:17Z</time>
   </trkpt>
   <trkpt lat="-3.1193350" lon="37.3766940">
    <ele>4156.1</ele>
    <time>2026-06-23T10:32:18Z</time>
   </trkpt>
   <trkpt lat="-3.1193400" lon="37.3766900">
    <ele>4156.0</ele>
    <time>2026-06-23T10:32:19Z</time>
   </trkpt>
   <trkpt lat="-3.1193460" lon="37.3766890">
    <ele>4155.8</ele>
    <time>2026-06-23T10:32:20Z</time>
   </trkpt>
   <trkpt lat="-3.1193550" lon="37.3766830">
    <ele>4155.6</ele>
    <time>2026-06-23T10:32:21Z</time>
   </trkpt>
   <trkpt lat="-3.1193570" lon="37.3766780">
    <ele>4155.4</ele>
    <time>2026-06-23T10:32:22Z</time>
   </trkpt>
   <trkpt lat="-3.1193640" lon="37.3766740">
    <ele>4155.2</ele>
    <time>2026-06-23T10:32:23Z</time>
   </trkpt>
   <trkpt lat="-3.1193690" lon="37.3766720">
    <ele>4155.1</ele>
    <time>2026-06-23T10:32:24Z</time>
   </trkpt>
   <trkpt lat="-3.1193740" lon="37.3766690">
    <ele>4155.0</ele>
    <time>2026-06-23T10:32:25Z</time>
   </trkpt>
   <trkpt lat="-3.1193810" lon="37.3766660">
    <ele>4154.8</ele>
    <time>2026-06-23T10:32:26Z</time>
   </trkpt>
   <trkpt lat="-3.1193880" lon="37.3766620">
    <ele>4154.6</ele>
    <time>2026-06-23T10:32:27Z</time>
   </trkpt>
   <trkpt lat="-3.1193930" lon="37.3766590">
    <ele>4154.5</ele>
    <time>2026-06-23T10:32:28Z</time>
   </trkpt>
   <trkpt lat="-3.1193970" lon="37.3766550">
    <ele>4154.3</ele>
    <time>2026-06-23T10:32:29Z</time>
   </trkpt>
   <trkpt lat="-3.1194020" lon="37.3766510">
    <ele>4154.2</ele>
    <time>2026-06-23T10:32:30Z</time>
   </trkpt>
   <trkpt lat="-3.1194020" lon="37.3766460">
    <ele>4154.1</ele>
    <time>2026-06-23T10:32:31Z</time>
   </trkpt>
   <trkpt lat="-3.1194110" lon="37.3766410">
    <ele>4153.8</ele>
    <time>2026-06-23T10:32:32Z</time>
   </trkpt>
   <trkpt lat="-3.1194160" lon="37.3766350">
    <ele>4153.6</ele>
    <time>2026-06-23T10:32:33Z</time>
   </trkpt>
   <trkpt lat="-3.1194210" lon="37.3766300">
    <ele>4153.5</ele>
    <time>2026-06-23T10:32:34Z</time>
   </trkpt>
   <trkpt lat="-3.1194270" lon="37.3766310">
    <ele>4153.3</ele>
    <time>2026-06-23T10:32:35Z</time>
   </trkpt>
   <trkpt lat="-3.1194320" lon="37.3766280">
    <ele>4153.2</ele>
    <time>2026-06-23T10:32:36Z</time>
   </trkpt>
   <trkpt lat="-3.1194380" lon="37.3766240">
    <ele>4153.0</ele>
    <time>2026-06-23T10:32:37Z</time>
   </trkpt>
   <trkpt lat="-3.1194440" lon="37.3766190">
    <ele>4152.8</ele>
    <time>2026-06-23T10:32:38Z</time>
   </trkpt>
   <trkpt lat="-3.1194450" lon="37.3766160">
    <ele>4152.8</ele>
    <time>2026-06-23T10:32:39Z</time>
   </trkpt>
   <trkpt lat="-3.1194480" lon="37.3766110">
    <ele>4152.6</ele>
    <time>2026-06-23T10:32:40Z</time>
   </trkpt>
   <trkpt lat="-3.1194520" lon="37.3766050">
    <ele>4152.5</ele>
    <time>2026-06-23T10:32:41Z</time>
   </trkpt>
   <trkpt lat="-3.1194560" lon="37.3766000">
    <ele>4152.3</ele>
    <time>2026-06-23T10:32:42Z</time>
   </trkpt>
   <trkpt lat="-3.1194610" lon="37.3765940">
    <ele>4152.1</ele>
    <time>2026-06-23T10:32:43Z</time>
   </trkpt>
   <trkpt lat="-3.1194650" lon="37.3765890">
    <ele>4152.0</ele>
    <time>2026-06-23T10:32:44Z</time>
   </trkpt>
   <trkpt lat="-3.1194710" lon="37.3765830">
    <ele>4151.8</ele>
    <time>2026-06-23T10:32:45Z</time>
   </trkpt>
   <trkpt lat="-3.1194760" lon="37.3765790">
    <ele>4151.7</ele>
    <time>2026-06-23T10:32:46Z</time>
   </trkpt>
   <trkpt lat="-3.1194790" lon="37.3765750">
    <ele>4151.5</ele>
    <time>2026-06-23T10:32:47Z</time>
   </trkpt>
   <trkpt lat="-3.1194820" lon="37.3765710">
    <ele>4151.4</ele>
    <time>2026-06-23T10:32:48Z</time>
   </trkpt>
   <trkpt lat="-3.1194870" lon="37.3765670">
    <ele>4151.3</ele>
    <time>2026-06-23T10:32:49Z</time>
   </trkpt>
   <trkpt lat="-3.1194920" lon="37.3765600">
    <ele>4151.1</ele>
    <time>2026-06-23T10:32:50Z</time>
   </trkpt>
   <trkpt lat="-3.1194980" lon="37.3765540">
    <ele>4150.9</ele>
    <time>2026-06-23T10:32:51Z</time>
   </trkpt>
   <trkpt lat="-3.1195040" lon="37.3765480">
    <ele>4150.7</ele>
    <time>2026-06-23T10:32:52Z</time>
   </trkpt>
   <trkpt lat="-3.1195090" lon="37.3765410">
    <ele>4150.5</ele>
    <time>2026-06-23T10:32:53Z</time>
   </trkpt>
   <trkpt lat="-3.1195130" lon="37.3765360">
    <ele>4150.4</ele>
    <time>2026-06-23T10:32:54Z</time>
   </trkpt>
   <trkpt lat="-3.1195190" lon="37.3765350">
    <ele>4150.2</ele>
    <time>2026-06-23T10:32:55Z</time>
   </trkpt>
   <trkpt lat="-3.1195250" lon="37.3765360">
    <ele>4150.1</ele>
    <time>2026-06-23T10:32:56Z</time>
   </trkpt>
   <trkpt lat="-3.1195340" lon="37.3765360">
    <ele>4149.9</ele>
    <time>2026-06-23T10:32:57Z</time>
   </trkpt>
   <trkpt lat="-3.1195400" lon="37.3765350">
    <ele>4149.8</ele>
    <time>2026-06-23T10:32:58Z</time>
   </trkpt>
   <trkpt lat="-3.1195480" lon="37.3765330">
    <ele>4149.6</ele>
    <time>2026-06-23T10:32:59Z</time>
   </trkpt>
   <trkpt lat="-3.1195550" lon="37.3765310">
    <ele>4149.4</ele>
    <time>2026-06-23T10:33:00Z</time>
   </trkpt>
   <trkpt lat="-3.1195620" lon="37.3765310">
    <ele>4149.3</ele>
    <time>2026-06-23T10:33:01Z</time>
   </trkpt>
   <trkpt lat="-3.1195690" lon="37.3765320">
    <ele>4149.1</ele>
    <time>2026-06-23T10:33:02Z</time>
   </trkpt>
   <trkpt lat="-3.1195760" lon="37.3765310">
    <ele>4149.0</ele>
    <time>2026-06-23T10:33:03Z</time>
   </trkpt>
   <trkpt lat="-3.1195830" lon="37.3765290">
    <ele>4148.8</ele>
    <time>2026-06-23T10:33:04Z</time>
   </trkpt>
   <trkpt lat="-3.1195890" lon="37.3765260">
    <ele>4148.6</ele>
    <time>2026-06-23T10:33:05Z</time>
   </trkpt>
   <trkpt lat="-3.1195930" lon="37.3765210">
    <ele>4148.5</ele>
    <time>2026-06-23T10:33:06Z</time>
   </trkpt>
   <trkpt lat="-3.1195980" lon="37.3765170">
    <ele>4148.4</ele>
    <time>2026-06-23T10:33:07Z</time>
   </trkpt>
   <trkpt lat="-3.1196040" lon="37.3765160">
    <ele>4148.2</ele>
    <time>2026-06-23T10:33:08Z</time>
   </trkpt>
   <trkpt lat="-3.1196110" lon="37.3765140">
    <ele>4148.1</ele>
    <time>2026-06-23T10:33:09Z</time>
   </trkpt>
   <trkpt lat="-3.1196180" lon="37.3765120">
    <ele>4147.9</ele>
    <time>2026-06-23T10:33:10Z</time>
   </trkpt>
   <trkpt lat="-3.1196250" lon="37.3765090">
    <ele>4147.7</ele>
    <time>2026-06-23T10:33:11Z</time>
   </trkpt>
   <trkpt lat="-3.1196310" lon="37.3765080">
    <ele>4147.6</ele>
    <time>2026-06-23T10:33:12Z</time>
   </trkpt>
   <trkpt lat="-3.1196380" lon="37.3765060">
    <ele>4147.4</ele>
    <time>2026-06-23T10:33:13Z</time>
   </trkpt>
   <trkpt lat="-3.1196430" lon="37.3765050">
    <ele>4147.3</ele>
    <time>2026-06-23T10:33:14Z</time>
   </trkpt>
   <trkpt lat="-3.1196500" lon="37.3765050">
    <ele>4147.2</ele>
    <time>2026-06-23T10:33:15Z</time>
   </trkpt>
   <trkpt lat="-3.1196560" lon="37.3765020">
    <ele>4147.0</ele>
    <time>2026-06-23T10:33:16Z</time>
   </trkpt>
   <trkpt lat="-3.1196620" lon="37.3764990">
    <ele>4146.9</ele>
    <time>2026-06-23T10:33:17Z</time>
   </trkpt>
   <trkpt lat="-3.1196700" lon="37.3764970">
    <ele>4146.7</ele>
    <time>2026-06-23T10:33:18Z</time>
   </trkpt>
   <trkpt lat="-3.1196770" lon="37.3764920">
    <ele>4146.5</ele>
    <time>2026-06-23T10:33:19Z</time>
   </trkpt>
   <trkpt lat="-3.1196830" lon="37.3764880">
    <ele>4146.3</ele>
    <time>2026-06-23T10:33:20Z</time>
   </trkpt>
   <trkpt lat="-3.1196900" lon="37.3764820">
    <ele>4146.1</ele>
    <time>2026-06-23T10:33:21Z</time>
   </trkpt>
   <trkpt lat="-3.1196940" lon="37.3764750">
    <ele>4145.9</ele>
    <time>2026-06-23T10:33:22Z</time>
   </trkpt>
   <trkpt lat="-3.1196990" lon="37.3764680">
    <ele>4145.7</ele>
    <time>2026-06-23T10:33:23Z</time>
   </trkpt>
   <trkpt lat="-3.1197020" lon="37.3764620">
    <ele>4145.6</ele>
    <time>2026-06-23T10:33:24Z</time>
   </trkpt>
   <trkpt lat="-3.1197040" lon="37.3764560">
    <ele>4145.4</ele>
    <time>2026-06-23T10:33:25Z</time>
   </trkpt>
   <trkpt lat="-3.1197050" lon="37.3764500">
    <ele>4145.3</ele>
    <time>2026-06-23T10:33:26Z</time>
   </trkpt>
   <trkpt lat="-3.1197140" lon="37.3764460">
    <ele>4145.1</ele>
    <time>2026-06-23T10:33:27Z</time>
   </trkpt>
   <trkpt lat="-3.1197190" lon="37.3764400">
    <ele>4144.9</ele>
    <time>2026-06-23T10:33:28Z</time>
   </trkpt>
   <trkpt lat="-3.1197240" lon="37.3764350">
    <ele>4144.8</ele>
    <time>2026-06-23T10:33:29Z</time>
   </trkpt>
   <trkpt lat="-3.1197290" lon="37.3764300">
    <ele>4144.6</ele>
    <time>2026-06-23T10:33:30Z</time>
   </trkpt>
   <trkpt lat="-3.1197340" lon="37.3764290">
    <ele>4144.5</ele>
    <time>2026-06-23T10:33:31Z</time>
   </trkpt>
   <trkpt lat="-3.1197410" lon="37.3764280">
    <ele>4144.3</ele>
    <time>2026-06-23T10:33:32Z</time>
   </trkpt>
   <trkpt lat="-3.1197480" lon="37.3764250">
    <ele>4144.2</ele>
    <time>2026-06-23T10:33:33Z</time>
   </trkpt>
   <trkpt lat="-3.1197540" lon="37.3764260">
    <ele>4144.0</ele>
    <time>2026-06-23T10:33:34Z</time>
   </trkpt>
   <trkpt lat="-3.1197600" lon="37.3764300">
    <ele>4143.9</ele>
    <time>2026-06-23T10:33:35Z</time>
   </trkpt>
   <trkpt lat="-3.1197670" lon="37.3764310">
    <ele>4143.7</ele>
    <time>2026-06-23T10:33:36Z</time>
   </trkpt>
   <trkpt lat="-3.1197720" lon="37.3764330">
    <ele>4143.6</ele>
    <time>2026-06-23T10:33:37Z</time>
   </trkpt>
   <trkpt lat="-3.1197780" lon="37.3764350">
    <ele>4143.4</ele>
    <time>2026-06-23T10:33:38Z</time>
   </trkpt>
   <trkpt lat="-3.1197820" lon="37.3764380">
    <ele>4143.3</ele>
    <time>2026-06-23T10:33:39Z</time>
   </trkpt>
   <trkpt lat="-3.1197920" lon="37.3764370">
    <ele>4143.1</ele>
    <time>2026-06-23T10:33:40Z</time>
   </trkpt>
   <trkpt lat="-3.1197980" lon="37.3764360">
    <ele>4143.0</ele>
    <time>2026-06-23T10:33:41Z</time>
   </trkpt>
   <trkpt lat="-3.1198050" lon="37.3764340">
    <ele>4142.8</ele>
    <time>2026-06-23T10:33:42Z</time>
   </trkpt>
   <trkpt lat="-3.1198140" lon="37.3764350">
    <ele>4142.6</ele>
    <time>2026-06-23T10:33:43Z</time>
   </trkpt>
   <trkpt lat="-3.1198210" lon="37.3764360">
    <ele>4142.4</ele>
    <time>2026-06-23T10:33:44Z</time>
   </trkpt>
   <trkpt lat="-3.1198280" lon="37.3764410">
    <ele>4142.2</ele>
    <time>2026-06-23T10:33:45Z</time>
   </trkpt>
   <trkpt lat="-3.1198380" lon="37.3764400">
    <ele>4142.0</ele>
    <time>2026-06-23T10:33:46Z</time>
   </trkpt>
   <trkpt lat="-3.1198450" lon="37.3764390">
    <ele>4141.8</ele>
    <time>2026-06-23T10:33:47Z</time>
   </trkpt>
   <trkpt lat="-3.1198510" lon="37.3764350">
    <ele>4141.7</ele>
    <time>2026-06-23T10:33:48Z</time>
   </trkpt>
   <trkpt lat="-3.1198540" lon="37.3764290">
    <ele>4141.5</ele>
    <time>2026-06-23T10:33:49Z</time>
   </trkpt>
   <trkpt lat="-3.1198590" lon="37.3764250">
    <ele>4141.4</ele>
    <time>2026-06-23T10:33:50Z</time>
   </trkpt>
   <trkpt lat="-3.1198620" lon="37.3764210">
    <ele>4141.3</ele>
    <time>2026-06-23T10:33:51Z</time>
   </trkpt>
   <trkpt lat="-3.1198690" lon="37.3764210">
    <ele>4141.1</ele>
    <time>2026-06-23T10:33:52Z</time>
   </trkpt>
   <trkpt lat="-3.1198780" lon="37.3764200">
    <ele>4140.9</ele>
    <time>2026-06-23T10:33:53Z</time>
   </trkpt>
   <trkpt lat="-3.1198830" lon="37.3764180">
    <ele>4140.8</ele>
    <time>2026-06-23T10:33:54Z</time>
   </trkpt>
   <trkpt lat="-3.1198840" lon="37.3764140">
    <ele>4140.7</ele>
    <time>2026-06-23T10:33:55Z</time>
   </trkpt>
   <trkpt lat="-3.1198890" lon="37.3764120">
    <ele>4140.5</ele>
    <time>2026-06-23T10:33:56Z</time>
   </trkpt>
   <trkpt lat="-3.1198930" lon="37.3764110">
    <ele>4140.5</ele>
    <time>2026-06-23T10:33:57Z</time>
   </trkpt>
   <trkpt lat="-3.1198980" lon="37.3764100">
    <ele>4140.3</ele>
    <time>2026-06-23T10:33:58Z</time>
   </trkpt>
   <trkpt lat="-3.1199030" lon="37.3764110">
    <ele>4140.2</ele>
    <time>2026-06-23T10:33:59Z</time>
   </trkpt>
   <trkpt lat="-3.1199090" lon="37.3764110">
    <ele>4140.1</ele>
    <time>2026-06-23T10:34:00Z</time>
   </trkpt>
   <trkpt lat="-3.1199130" lon="37.3764110">
    <ele>4140.0</ele>
    <time>2026-06-23T10:34:01Z</time>
   </trkpt>
   <trkpt lat="-3.1199160" lon="37.3764090">
    <ele>4139.9</ele>
    <time>2026-06-23T10:34:02Z</time>
   </trkpt>
   <trkpt lat="-3.1199190" lon="37.3764060">
    <ele>4139.8</ele>
    <time>2026-06-23T10:34:03Z</time>
   </trkpt>
   <trkpt lat="-3.1199230" lon="37.3764010">
    <ele>4139.7</ele>
    <time>2026-06-23T10:34:04Z</time>
   </trkpt>
   <trkpt lat="-3.1199260" lon="37.3763950">
    <ele>4139.5</ele>
    <time>2026-06-23T10:34:05Z</time>
   </trkpt>
   <trkpt lat="-3.1199290" lon="37.3763910">
    <ele>4139.4</ele>
    <time>2026-06-23T10:34:06Z</time>
   </trkpt>
   <trkpt lat="-3.1199280" lon="37.3763850">
    <ele>4139.3</ele>
    <time>2026-06-23T10:34:07Z</time>
   </trkpt>
   <trkpt lat="-3.1199290" lon="37.3763780">
    <ele>4139.1</ele>
    <time>2026-06-23T10:34:08Z</time>
   </trkpt>
   <trkpt lat="-3.1199310" lon="37.3763720">
    <ele>4138.9</ele>
    <time>2026-06-23T10:34:09Z</time>
   </trkpt>
   <trkpt lat="-3.1199320" lon="37.3763670">
    <ele>4138.8</ele>
    <time>2026-06-23T10:34:10Z</time>
   </trkpt>
   <trkpt lat="-3.1199360" lon="37.3763640">
    <ele>4138.7</ele>
    <time>2026-06-23T10:34:11Z</time>
   </trkpt>
   <trkpt lat="-3.1199390" lon="37.3763600">
    <ele>4138.6</ele>
    <time>2026-06-23T10:34:12Z</time>
   </trkpt>
   <trkpt lat="-3.1199440" lon="37.3763570">
    <ele>4138.5</ele>
    <time>2026-06-23T10:34:13Z</time>
   </trkpt>
   <trkpt lat="-3.1199500" lon="37.3763540">
    <ele>4138.3</ele>
    <time>2026-06-23T10:34:14Z</time>
   </trkpt>
   <trkpt lat="-3.1199550" lon="37.3763500">
    <ele>4138.2</ele>
    <time>2026-06-23T10:34:15Z</time>
   </trkpt>
   <trkpt lat="-3.1199600" lon="37.3763460">
    <ele>4138.0</ele>
    <time>2026-06-23T10:34:16Z</time>
   </trkpt>
   <trkpt lat="-3.1199650" lon="37.3763420">
    <ele>4137.9</ele>
    <time>2026-06-23T10:34:17Z</time>
   </trkpt>
   <trkpt lat="-3.1199720" lon="37.3763360">
    <ele>4137.7</ele>
    <time>2026-06-23T10:34:18Z</time>
   </trkpt>
   <trkpt lat="-3.1199760" lon="37.3763320">
    <ele>4137.5</ele>
    <time>2026-06-23T10:34:19Z</time>
   </trkpt>
   <trkpt lat="-3.1199820" lon="37.3763290">
    <ele>4137.4</ele>
    <time>2026-06-23T10:34:20Z</time>
   </trkpt>
   <trkpt lat="-3.1199920" lon="37.3763280">
    <ele>4137.2</ele>
    <time>2026-06-23T10:34:21Z</time>
   </trkpt>
   <trkpt lat="-3.1199980" lon="37.3763250">
    <ele>4137.0</ele>
    <time>2026-06-23T10:34:22Z</time>
   </trkpt>
   <trkpt lat="-3.1200050" lon="37.3763220">
    <ele>4136.8</ele>
    <time>2026-06-23T10:34:23Z</time>
   </trkpt>
   <trkpt lat="-3.1200100" lon="37.3763210">
    <ele>4136.7</ele>
    <time>2026-06-23T10:34:24Z</time>
   </trkpt>
   <trkpt lat="-3.1200160" lon="37.3763190">
    <ele>4136.6</ele>
    <time>2026-06-23T10:34:25Z</time>
   </trkpt>
   <trkpt lat="-3.1200220" lon="37.3763170">
    <ele>4136.4</ele>
    <time>2026-06-23T10:34:26Z</time>
   </trkpt>
   <trkpt lat="-3.1200280" lon="37.3763150">
    <ele>4136.3</ele>
    <time>2026-06-23T10:34:27Z</time>
   </trkpt>
   <trkpt lat="-3.1200340" lon="37.3763120">
    <ele>4136.1</ele>
    <time>2026-06-23T10:34:28Z</time>
   </trkpt>
   <trkpt lat="-3.1200390" lon="37.3763090">
    <ele>4136.0</ele>
    <time>2026-06-23T10:34:29Z</time>
   </trkpt>
   <trkpt lat="-3.1200440" lon="37.3763070">
    <ele>4135.9</ele>
    <time>2026-06-23T10:34:30Z</time>
   </trkpt>
   <trkpt lat="-3.1200510" lon="37.3763020">
    <ele>4135.7</ele>
    <time>2026-06-23T10:34:31Z</time>
   </trkpt>
   <trkpt lat="-3.1200560" lon="37.3762950">
    <ele>4135.5</ele>
    <time>2026-06-23T10:34:32Z</time>
   </trkpt>
   <trkpt lat="-3.1200600" lon="37.3762910">
    <ele>4135.4</ele>
    <time>2026-06-23T10:34:33Z</time>
   </trkpt>
   <trkpt lat="-3.1200620" lon="37.3762840">
    <ele>4135.2</ele>
    <time>2026-06-23T10:34:34Z</time>
   </trkpt>
   <trkpt lat="-3.1200640" lon="37.3762800">
    <ele>4135.1</ele>
    <time>2026-06-23T10:34:35Z</time>
   </trkpt>
   <trkpt lat="-3.1200680" lon="37.3762730">
    <ele>4134.9</ele>
    <time>2026-06-23T10:34:36Z</time>
   </trkpt>
   <trkpt lat="-3.1200720" lon="37.3762680">
    <ele>4134.8</ele>
    <time>2026-06-23T10:34:37Z</time>
   </trkpt>
   <trkpt lat="-3.1200780" lon="37.3762650">
    <ele>4134.6</ele>
    <time>2026-06-23T10:34:38Z</time>
   </trkpt>
   <trkpt lat="-3.1200850" lon="37.3762640">
    <ele>4134.4</ele>
    <time>2026-06-23T10:34:39Z</time>
   </trkpt>
   <trkpt lat="-3.1200920" lon="37.3762630">
    <ele>4134.3</ele>
    <time>2026-06-23T10:34:40Z</time>
   </trkpt>
   <trkpt lat="-3.1200990" lon="37.3762600">
    <ele>4134.1</ele>
    <time>2026-06-23T10:34:41Z</time>
   </trkpt>
   <trkpt lat="-3.1201040" lon="37.3762580">
    <ele>4134.0</ele>
    <time>2026-06-23T10:34:42Z</time>
   </trkpt>
   <trkpt lat="-3.1201090" lon="37.3762550">
    <ele>4133.9</ele>
    <time>2026-06-23T10:34:43Z</time>
   </trkpt>
   <trkpt lat="-3.1201120" lon="37.3762520">
    <ele>4133.8</ele>
    <time>2026-06-23T10:34:44Z</time>
   </trkpt>
   <trkpt lat="-3.1201190" lon="37.3762480">
    <ele>4133.6</ele>
    <time>2026-06-23T10:34:45Z</time>
   </trkpt>
   <trkpt lat="-3.1201240" lon="37.3762470">
    <ele>4133.5</ele>
    <time>2026-06-23T10:34:46Z</time>
   </trkpt>
   <trkpt lat="-3.1201300" lon="37.3762430">
    <ele>4133.3</ele>
    <time>2026-06-23T10:34:47Z</time>
   </trkpt>
   <trkpt lat="-3.1201350" lon="37.3762400">
    <ele>4133.2</ele>
    <time>2026-06-23T10:34:48Z</time>
   </trkpt>
   <trkpt lat="-3.1201420" lon="37.3762380">
    <ele>4133.0</ele>
    <time>2026-06-23T10:34:49Z</time>
   </trkpt>
   <trkpt lat="-3.1201470" lon="37.3762350">
    <ele>4132.9</ele>
    <time>2026-06-23T10:34:50Z</time>
   </trkpt>
   <trkpt lat="-3.1201460" lon="37.3762340">
    <ele>4132.8</ele>
    <time>2026-06-23T10:34:51Z</time>
   </trkpt>
   <trkpt lat="-3.1201540" lon="37.3762260">
    <ele>4132.6</ele>
    <time>2026-06-23T10:34:52Z</time>
   </trkpt>
   <trkpt lat="-3.1201620" lon="37.3762220">
    <ele>4132.4</ele>
    <time>2026-06-23T10:34:53Z</time>
   </trkpt>
   <trkpt lat="-3.1201670" lon="37.3762170">
    <ele>4132.2</ele>
    <time>2026-06-23T10:34:54Z</time>
   </trkpt>
   <trkpt lat="-3.1201720" lon="37.3762120">
    <ele>4132.1</ele>
    <time>2026-06-23T10:34:55Z</time>
   </trkpt>
   <trkpt lat="-3.1201760" lon="37.3762070">
    <ele>4131.9</ele>
    <time>2026-06-23T10:34:56Z</time>
   </trkpt>
   <trkpt lat="-3.1201810" lon="37.3762010">
    <ele>4131.7</ele>
    <time>2026-06-23T10:34:57Z</time>
   </trkpt>
   <trkpt lat="-3.1201860" lon="37.3762000">
    <ele>4131.6</ele>
    <time>2026-06-23T10:34:58Z</time>
   </trkpt>
   <trkpt lat="-3.1201930" lon="37.3761950">
    <ele>4131.4</ele>
    <time>2026-06-23T10:34:59Z</time>
   </trkpt>
   <trkpt lat="-3.1202000" lon="37.3761920">
    <ele>4131.2</ele>
    <time>2026-06-23T10:35:00Z</time>
   </trkpt>
   <trkpt lat="-3.1202070" lon="37.3761890">
    <ele>4131.1</ele>
    <time>2026-06-23T10:35:01Z</time>
   </trkpt>
   <trkpt lat="-3.1202120" lon="37.3761850">
    <ele>4130.9</ele>
    <time>2026-06-23T10:35:02Z</time>
   </trkpt>
   <trkpt lat="-3.1202180" lon="37.3761820">
    <ele>4130.8</ele>
    <time>2026-06-23T10:35:03Z</time>
   </trkpt>
   <trkpt lat="-3.1202240" lon="37.3761770">
    <ele>4130.6</ele>
    <time>2026-06-23T10:35:04Z</time>
   </trkpt>
   <trkpt lat="-3.1202270" lon="37.3761730">
    <ele>4130.5</ele>
    <time>2026-06-23T10:35:05Z</time>
   </trkpt>
   <trkpt lat="-3.1202320" lon="37.3761700">
    <ele>4130.3</ele>
    <time>2026-06-23T10:35:06Z</time>
   </trkpt>
   <trkpt lat="-3.1202370" lon="37.3761680">
    <ele>4130.2</ele>
    <time>2026-06-23T10:35:07Z</time>
   </trkpt>
   <trkpt lat="-3.1202460" lon="37.3761630">
    <ele>4130.0</ele>
    <time>2026-06-23T10:35:08Z</time>
   </trkpt>
   <trkpt lat="-3.1202500" lon="37.3761620">
    <ele>4129.9</ele>
    <time>2026-06-23T10:35:09Z</time>
   </trkpt>
   <trkpt lat="-3.1202580" lon="37.3761580">
    <ele>4129.7</ele>
    <time>2026-06-23T10:35:10Z</time>
   </trkpt>
   <trkpt lat="-3.1202620" lon="37.3761570">
    <ele>4129.6</ele>
    <time>2026-06-23T10:35:11Z</time>
   </trkpt>
   <trkpt lat="-3.1202680" lon="37.3761560">
    <ele>4129.5</ele>
    <time>2026-06-23T10:35:12Z</time>
   </trkpt>
   <trkpt lat="-3.1202740" lon="37.3761540">
    <ele>4129.3</ele>
    <time>2026-06-23T10:35:13Z</time>
   </trkpt>
   <trkpt lat="-3.1202800" lon="37.3761530">
    <ele>4129.2</ele>
    <time>2026-06-23T10:35:14Z</time>
   </trkpt>
   <trkpt lat="-3.1202840" lon="37.3761500">
    <ele>4129.1</ele>
    <time>2026-06-23T10:35:15Z</time>
   </trkpt>
   <trkpt lat="-3.1202900" lon="37.3761490">
    <ele>4128.9</ele>
    <time>2026-06-23T10:35:16Z</time>
   </trkpt>
   <trkpt lat="-3.1202960" lon="37.3761490">
    <ele>4128.8</ele>
    <time>2026-06-23T10:35:17Z</time>
   </trkpt>
   <trkpt lat="-3.1203030" lon="37.3761490">
    <ele>4128.6</ele>
    <time>2026-06-23T10:35:18Z</time>
   </trkpt>
   <trkpt lat="-3.1203070" lon="37.3761480">
    <ele>4128.5</ele>
    <time>2026-06-23T10:35:19Z</time>
   </trkpt>
   <trkpt lat="-3.1203120" lon="37.3761450">
    <ele>4128.4</ele>
    <time>2026-06-23T10:35:20Z</time>
   </trkpt>
   <trkpt lat="-3.1203180" lon="37.3761410">
    <ele>4128.3</ele>
    <time>2026-06-23T10:35:21Z</time>
   </trkpt>
   <trkpt lat="-3.1203200" lon="37.3761380">
    <ele>4128.2</ele>
    <time>2026-06-23T10:35:22Z</time>
   </trkpt>
   <trkpt lat="-3.1203240" lon="37.3761320">
    <ele>4128.0</ele>
    <time>2026-06-23T10:35:23Z</time>
   </trkpt>
   <trkpt lat="-3.1203260" lon="37.3761270">
    <ele>4127.9</ele>
    <time>2026-06-23T10:35:24Z</time>
   </trkpt>
   <trkpt lat="-3.1203260" lon="37.3761230">
    <ele>4127.8</ele>
    <time>2026-06-23T10:35:25Z</time>
   </trkpt>
   <trkpt lat="-3.1203290" lon="37.3761160">
    <ele>4127.6</ele>
    <time>2026-06-23T10:35:26Z</time>
   </trkpt>
   <trkpt lat="-3.1203280" lon="37.3761130">
    <ele>4127.6</ele>
    <time>2026-06-23T10:35:27Z</time>
   </trkpt>
   <trkpt lat="-3.1203270" lon="37.3761110">
    <ele>4127.5</ele>
    <time>2026-06-23T10:35:28Z</time>
   </trkpt>
   <trkpt lat="-3.1203280" lon="37.3761130">
    <ele>4127.5</ele>
    <time>2026-06-23T10:35:29Z</time>
   </trkpt>
   <trkpt lat="-3.1203320" lon="37.3761060">
    <ele>4127.3</ele>
    <time>2026-06-23T10:35:30Z</time>
   </trkpt>
   <trkpt lat="-3.1203340" lon="37.3761000">
    <ele>4127.1</ele>
    <time>2026-06-23T10:35:31Z</time>
   </trkpt>
   <trkpt lat="-3.1203410" lon="37.3760990">
    <ele>4127.0</ele>
    <time>2026-06-23T10:35:32Z</time>
   </trkpt>
   <trkpt lat="-3.1203470" lon="37.3760990">
    <ele>4126.8</ele>
    <time>2026-06-23T10:35:33Z</time>
   </trkpt>
   <trkpt lat="-3.1203550" lon="37.3761010">
    <ele>4126.7</ele>
    <time>2026-06-23T10:35:34Z</time>
   </trkpt>
   <trkpt lat="-3.1203570" lon="37.3761020">
    <ele>4126.6</ele>
    <time>2026-06-23T10:35:35Z</time>
   </trkpt>
   <trkpt lat="-3.1203630" lon="37.3761040">
    <ele>4126.5</ele>
    <time>2026-06-23T10:35:36Z</time>
   </trkpt>
   <trkpt lat="-3.1203690" lon="37.3761070">
    <ele>4126.3</ele>
    <time>2026-06-23T10:35:37Z</time>
   </trkpt>
   <trkpt lat="-3.1203710" lon="37.3761080">
    <ele>4126.3</ele>
    <time>2026-06-23T10:35:38Z</time>
   </trkpt>
   <trkpt lat="-3.1203730" lon="37.3761060">
    <ele>4126.2</ele>
    <time>2026-06-23T10:35:39Z</time>
   </trkpt>
   <trkpt lat="-3.1203820" lon="37.3761030">
    <ele>4126.0</ele>
    <time>2026-06-23T10:35:40Z</time>
   </trkpt>
   <trkpt lat="-3.1203910" lon="37.3760990">
    <ele>4125.8</ele>
    <time>2026-06-23T10:35:41Z</time>
   </trkpt>
   <trkpt lat="-3.1203970" lon="37.3760970">
    <ele>4125.6</ele>
    <time>2026-06-23T10:35:42Z</time>
   </trkpt>
   <trkpt lat="-3.1204040" lon="37.3760950">
    <ele>4125.5</ele>
    <time>2026-06-23T10:35:43Z</time>
   </trkpt>
   <trkpt lat="-3.1204080" lon="37.3760950">
    <ele>4125.4</ele>
    <time>2026-06-23T10:35:44Z</time>
   </trkpt>
   <trkpt lat="-3.1204160" lon="37.3760900">
    <ele>4125.1</ele>
    <time>2026-06-23T10:35:45Z</time>
   </trkpt>
   <trkpt lat="-3.1204210" lon="37.3760860">
    <ele>4125.0</ele>
    <time>2026-06-23T10:35:46Z</time>
   </trkpt>
   <trkpt lat="-3.1204260" lon="37.3760840">
    <ele>4124.9</ele>
    <time>2026-06-23T10:35:47Z</time>
   </trkpt>
   <trkpt lat="-3.1204300" lon="37.3760840">
    <ele>4124.8</ele>
    <time>2026-06-23T10:35:48Z</time>
   </trkpt>
   <trkpt lat="-3.1204370" lon="37.3760830">
    <ele>4124.6</ele>
    <time>2026-06-23T10:35:49Z</time>
   </trkpt>
   <trkpt lat="-3.1204440" lon="37.3760840">
    <ele>4124.5</ele>
    <time>2026-06-23T10:35:50Z</time>
   </trkpt>
   <trkpt lat="-3.1204510" lon="37.3760800">
    <ele>4124.3</ele>
    <time>2026-06-23T10:35:51Z</time>
   </trkpt>
   <trkpt lat="-3.1204530" lon="37.3760770">
    <ele>4124.2</ele>
    <time>2026-06-23T10:35:52Z</time>
   </trkpt>
   <trkpt lat="-3.1204560" lon="37.3760720">
    <ele>4124.1</ele>
    <time>2026-06-23T10:35:53Z</time>
   </trkpt>
   <trkpt lat="-3.1204600" lon="37.3760650">
    <ele>4123.9</ele>
    <time>2026-06-23T10:35:54Z</time>
   </trkpt>
   <trkpt lat="-3.1204640" lon="37.3760590">
    <ele>4123.7</ele>
    <time>2026-06-23T10:35:55Z</time>
   </trkpt>
   <trkpt lat="-3.1204680" lon="37.3760510">
    <ele>4123.5</ele>
    <time>2026-06-23T10:35:56Z</time>
   </trkpt>
   <trkpt lat="-3.1204720" lon="37.3760470">
    <ele>4123.4</ele>
    <time>2026-06-23T10:35:57Z</time>
   </trkpt>
   <trkpt lat="-3.1204770" lon="37.3760420">
    <ele>4123.3</ele>
    <time>2026-06-23T10:35:58Z</time>
   </trkpt>
   <trkpt lat="-3.1204810" lon="37.3760400">
    <ele>4123.2</ele>
    <time>2026-06-23T10:35:59Z</time>
   </trkpt>
   <trkpt lat="-3.1204790" lon="37.3760440">
    <ele>4123.1</ele>
    <time>2026-06-23T10:36:00Z</time>
   </trkpt>
   <trkpt lat="-3.1204940" lon="37.3760360">
    <ele>4122.7</ele>
    <time>2026-06-23T10:36:01Z</time>
   </trkpt>
   <trkpt lat="-3.1204970" lon="37.3760340">
    <ele>4122.6</ele>
    <time>2026-06-23T10:36:02Z</time>
   </trkpt>
   <trkpt lat="-3.1205010" lon="37.3760300">
    <ele>4122.5</ele>
    <time>2026-06-23T10:36:03Z</time>
   </trkpt>
   <trkpt lat="-3.1205070" lon="37.3760240">
    <ele>4122.3</ele>
    <time>2026-06-23T10:36:04Z</time>
   </trkpt>
   <trkpt lat="-3.1205120" lon="37.3760180">
    <ele>4122.1</ele>
    <time>2026-06-23T10:36:05Z</time>
   </trkpt>
   <trkpt lat="-3.1205140" lon="37.3760170">
    <ele>4122.0</ele>
    <time>2026-06-23T10:36:06Z</time>
   </trkpt>
   <trkpt lat="-3.1205190" lon="37.3760120">
    <ele>4121.9</ele>
    <time>2026-06-23T10:36:07Z</time>
   </trkpt>
   <trkpt lat="-3.1205260" lon="37.3760100">
    <ele>4121.7</ele>
    <time>2026-06-23T10:36:08Z</time>
   </trkpt>
   <trkpt lat="-3.1205360" lon="37.3760070">
    <ele>4121.5</ele>
    <time>2026-06-23T10:36:09Z</time>
   </trkpt>
   <trkpt lat="-3.1205420" lon="37.3760040">
    <ele>4121.3</ele>
    <time>2026-06-23T10:36:10Z</time>
   </trkpt>
   <trkpt lat="-3.1205470" lon="37.3759990">
    <ele>4121.2</ele>
    <time>2026-06-23T10:36:11Z</time>
   </trkpt>
   <trkpt lat="-3.1205540" lon="37.3759940">
    <ele>4121.0</ele>
    <time>2026-06-23T10:36:12Z</time>
   </trkpt>
   <trkpt lat="-3.1205610" lon="37.3759920">
    <ele>4120.8</ele>
    <time>2026-06-23T10:36:13Z</time>
   </trkpt>
   <trkpt lat="-3.1205660" lon="37.3759910">
    <ele>4120.7</ele>
    <time>2026-06-23T10:36:14Z</time>
   </trkpt>
   <trkpt lat="-3.1205730" lon="37.3759870">
    <ele>4120.5</ele>
    <time>2026-06-23T10:36:15Z</time>
   </trkpt>
   <trkpt lat="-3.1205780" lon="37.3759860">
    <ele>4120.4</ele>
    <time>2026-06-23T10:36:16Z</time>
   </trkpt>
   <trkpt lat="-3.1205840" lon="37.3759860">
    <ele>4120.2</ele>
    <time>2026-06-23T10:36:17Z</time>
   </trkpt>
   <trkpt lat="-3.1205910" lon="37.3759830">
    <ele>4120.1</ele>
    <time>2026-06-23T10:36:18Z</time>
   </trkpt>
   <trkpt lat="-3.1205960" lon="37.3759800">
    <ele>4119.9</ele>
    <time>2026-06-23T10:36:19Z</time>
   </trkpt>
   <trkpt lat="-3.1206020" lon="37.3759750">
    <ele>4119.7</ele>
    <time>2026-06-23T10:36:20Z</time>
   </trkpt>
   <trkpt lat="-3.1206080" lon="37.3759740">
    <ele>4119.6</ele>
    <time>2026-06-23T10:36:21Z</time>
   </trkpt>
   <trkpt lat="-3.1206160" lon="37.3759750">
    <ele>4119.4</ele>
    <time>2026-06-23T10:36:22Z</time>
   </trkpt>
   <trkpt lat="-3.1206250" lon="37.3759770">
    <ele>4119.2</ele>
    <time>2026-06-23T10:36:23Z</time>
   </trkpt>
   <trkpt lat="-3.1206290" lon="37.3759780">
    <ele>4119.1</ele>
    <time>2026-06-23T10:36:24Z</time>
   </trkpt>
   <trkpt lat="-3.1206340" lon="37.3759800">
    <ele>4119.0</ele>
    <time>2026-06-23T10:36:25Z</time>
   </trkpt>
   <trkpt lat="-3.1206400" lon="37.3759790">
    <ele>4118.8</ele>
    <time>2026-06-23T10:36:26Z</time>
   </trkpt>
   <trkpt lat="-3.1206470" lon="37.3759760">
    <ele>4118.6</ele>
    <time>2026-06-23T10:36:27Z</time>
   </trkpt>
   <trkpt lat="-3.1206530" lon="37.3759750">
    <ele>4118.5</ele>
    <time>2026-06-23T10:36:28Z</time>
   </trkpt>
   <trkpt lat="-3.1206570" lon="37.3759720">
    <ele>4118.4</ele>
    <time>2026-06-23T10:36:29Z</time>
   </trkpt>
   <trkpt lat="-3.1206600" lon="37.3759730">
    <ele>4118.3</ele>
    <time>2026-06-23T10:36:30Z</time>
   </trkpt>
   <trkpt lat="-3.1206650" lon="37.3759730">
    <ele>4118.2</ele>
    <time>2026-06-23T10:36:31Z</time>
   </trkpt>
   <trkpt lat="-3.1206690" lon="37.3759760">
    <ele>4118.1</ele>
    <time>2026-06-23T10:36:32Z</time>
   </trkpt>
   <trkpt lat="-3.1206750" lon="37.3759800">
    <ele>4117.9</ele>
    <time>2026-06-23T10:36:33Z</time>
   </trkpt>
   <trkpt lat="-3.1206810" lon="37.3759840">
    <ele>4117.7</ele>
    <time>2026-06-23T10:36:34Z</time>
   </trkpt>
   <trkpt lat="-3.1206870" lon="37.3759880">
    <ele>4117.5</ele>
    <time>2026-06-23T10:36:35Z</time>
   </trkpt>
   <trkpt lat="-3.1206880" lon="37.3759890">
    <ele>4117.5</ele>
    <time>2026-06-23T10:36:36Z</time>
   </trkpt>
   <trkpt lat="-3.1206950" lon="37.3759930">
    <ele>4117.3</ele>
    <time>2026-06-23T10:36:37Z</time>
   </trkpt>
   <trkpt lat="-3.1207050" lon="37.3759980">
    <ele>4117.0</ele>
    <time>2026-06-23T10:36:38Z</time>
   </trkpt>
   <trkpt lat="-3.1207090" lon="37.3760000">
    <ele>4116.9</ele>
    <time>2026-06-23T10:36:39Z</time>
   </trkpt>
   <trkpt lat="-3.1207140" lon="37.3759990">
    <ele>4116.8</ele>
    <time>2026-06-23T10:36:40Z</time>
   </trkpt>
   <trkpt lat="-3.1207150" lon="37.3759990">
    <ele>4116.7</ele>
    <time>2026-06-23T10:36:41Z</time>
   </trkpt>
   <trkpt lat="-3.1207180" lon="37.3759970">
    <ele>4116.6</ele>
    <time>2026-06-23T10:36:42Z</time>
   </trkpt>
   <trkpt lat="-3.1207230" lon="37.3759980">
    <ele>4116.5</ele>
    <time>2026-06-23T10:36:43Z</time>
   </trkpt>
   <trkpt lat="-3.1207290" lon="37.3759960">
    <ele>4116.4</ele>
    <time>2026-06-23T10:36:44Z</time>
   </trkpt>
   <trkpt lat="-3.1207340" lon="37.3759920">
    <ele>4116.2</ele>
    <time>2026-06-23T10:36:45Z</time>
   </trkpt>
   <trkpt lat="-3.1207410" lon="37.3759900">
    <ele>4116.0</ele>
    <time>2026-06-23T10:36:46Z</time>
   </trkpt>
   <trkpt lat="-3.1207470" lon="37.3759900">
    <ele>4115.9</ele>
    <time>2026-06-23T10:36:47Z</time>
   </trkpt>
   <trkpt lat="-3.1207520" lon="37.3759880">
    <ele>4115.7</ele>
    <time>2026-06-23T10:36:48Z</time>
   </trkpt>
   <trkpt lat="-3.1207540" lon="37.3759860">
    <ele>4115.7</ele>
    <time>2026-06-23T10:36:49Z</time>
   </trkpt>
   <trkpt lat="-3.1207600" lon="37.3759840">
    <ele>4115.5</ele>
    <time>2026-06-23T10:36:50Z</time>
   </trkpt>
   <trkpt lat="-3.1207690" lon="37.3759810">
    <ele>4115.3</ele>
    <time>2026-06-23T10:36:51Z</time>
   </trkpt>
   <trkpt lat="-3.1207760" lon="37.3759780">
    <ele>4115.1</ele>
    <time>2026-06-23T10:36:52Z</time>
   </trkpt>
   <trkpt lat="-3.1207810" lon="37.3759780">
    <ele>4114.9</ele>
    <time>2026-06-23T10:36:53Z</time>
   </trkpt>
   <trkpt lat="-3.1207890" lon="37.3759800">
    <ele>4114.7</ele>
    <time>2026-06-23T10:36:54Z</time>
   </trkpt>
   <trkpt lat="-3.1207930" lon="37.3759810">
    <ele>4114.6</ele>
    <time>2026-06-23T10:36:55Z</time>
   </trkpt>
   <trkpt lat="-3.1207960" lon="37.3759800">
    <ele>4114.5</ele>
    <time>2026-06-23T10:36:56Z</time>
   </trkpt>
   <trkpt lat="-3.1208000" lon="37.3759800">
    <ele>4114.4</ele>
    <time>2026-06-23T10:36:57Z</time>
   </trkpt>
   <trkpt lat="-3.1208070" lon="37.3759780">
    <ele>4114.2</ele>
    <time>2026-06-23T10:36:58Z</time>
   </trkpt>
   <trkpt lat="-3.1208110" lon="37.3759760">
    <ele>4114.1</ele>
    <time>2026-06-23T10:36:59Z</time>
   </trkpt>
   <trkpt lat="-3.1208130" lon="37.3759740">
    <ele>4114.0</ele>
    <time>2026-06-23T10:37:00Z</time>
   </trkpt>
   <trkpt lat="-3.1208220" lon="37.3759720">
    <ele>4113.8</ele>
    <time>2026-06-23T10:37:01Z</time>
   </trkpt>
   <trkpt lat="-3.1208260" lon="37.3759730">
    <ele>4113.7</ele>
    <time>2026-06-23T10:37:02Z</time>
   </trkpt>
   <trkpt lat="-3.1208320" lon="37.3759750">
    <ele>4113.5</ele>
    <time>2026-06-23T10:37:03Z</time>
   </trkpt>
   <trkpt lat="-3.1208390" lon="37.3759780">
    <ele>4113.3</ele>
    <time>2026-06-23T10:37:04Z</time>
   </trkpt>
   <trkpt lat="-3.1208430" lon="37.3759810">
    <ele>4113.2</ele>
    <time>2026-06-23T10:37:05Z</time>
   </trkpt>
   <trkpt lat="-3.1208480" lon="37.3759810">
    <ele>4113.1</ele>
    <time>2026-06-23T10:37:06Z</time>
   </trkpt>
   <trkpt lat="-3.1208550" lon="37.3759800">
    <ele>4112.9</ele>
    <time>2026-06-23T10:37:07Z</time>
   </trkpt>
   <trkpt lat="-3.1208610" lon="37.3759770">
    <ele>4112.7</ele>
    <time>2026-06-23T10:37:08Z</time>
   </trkpt>
   <trkpt lat="-3.1208650" lon="37.3759780">
    <ele>4112.6</ele>
    <time>2026-06-23T10:37:09Z</time>
   </trkpt>
   <trkpt lat="-3.1208710" lon="37.3759810">
    <ele>4112.4</ele>
    <time>2026-06-23T10:37:10Z</time>
   </trkpt>
   <trkpt lat="-3.1208790" lon="37.3759850">
    <ele>4112.2</ele>
    <time>2026-06-23T10:37:11Z</time>
   </trkpt>
   <trkpt lat="-3.1208850" lon="37.3759880">
    <ele>4112.0</ele>
    <time>2026-06-23T10:37:12Z</time>
   </trkpt>
   <trkpt lat="-3.1208920" lon="37.3759910">
    <ele>4111.8</ele>
    <time>2026-06-23T10:37:13Z</time>
   </trkpt>
   <trkpt lat="-3.1208970" lon="37.3759910">
    <ele>4111.7</ele>
    <time>2026-06-23T10:37:14Z</time>
   </trkpt>
   <trkpt lat="-3.1209050" lon="37.3759930">
    <ele>4111.5</ele>
    <time>2026-06-23T10:37:15Z</time>
   </trkpt>
   <trkpt lat="-3.1209110" lon="37.3759940">
    <ele>4111.3</ele>
    <time>2026-06-23T10:37:16Z</time>
   </trkpt>
   <trkpt lat="-3.1209160" lon="37.3759950">
    <ele>4111.2</ele>
    <time>2026-06-23T10:37:17Z</time>
   </trkpt>
   <trkpt lat="-3.1209240" lon="37.3759950">
    <ele>4111.0</ele>
    <time>2026-06-23T10:37:18Z</time>
   </trkpt>
   <trkpt lat="-3.1209300" lon="37.3759960">
    <ele>4110.8</ele>
    <time>2026-06-23T10:37:19Z</time>
   </trkpt>
   <trkpt lat="-3.1209380" lon="37.3759970">
    <ele>4110.6</ele>
    <time>2026-06-23T10:37:20Z</time>
   </trkpt>
   <trkpt lat="-3.1209440" lon="37.3759950">
    <ele>4110.5</ele>
    <time>2026-06-23T10:37:21Z</time>
   </trkpt>
   <trkpt lat="-3.1209520" lon="37.3759910">
    <ele>4110.2</ele>
    <time>2026-06-23T10:37:22Z</time>
   </trkpt>
   <trkpt lat="-3.1209590" lon="37.3759870">
    <ele>4110.0</ele>
    <time>2026-06-23T10:37:23Z</time>
   </trkpt>
   <trkpt lat="-3.1209660" lon="37.3759810">
    <ele>4109.8</ele>
    <time>2026-06-23T10:37:24Z</time>
   </trkpt>
   <trkpt lat="-3.1209710" lon="37.3759770">
    <ele>4109.6</ele>
    <time>2026-06-23T10:37:25Z</time>
   </trkpt>
   <trkpt lat="-3.1209750" lon="37.3759720">
    <ele>4109.5</ele>
    <time>2026-06-23T10:37:26Z</time>
   </trkpt>
   <trkpt lat="-3.1209770" lon="37.3759670">
    <ele>4109.3</ele>
    <time>2026-06-23T10:37:27Z</time>
   </trkpt>
   <trkpt lat="-3.1209810" lon="37.3759600">
    <ele>4109.1</ele>
    <time>2026-06-23T10:37:28Z</time>
   </trkpt>
   <trkpt lat="-3.1209840" lon="37.3759570">
    <ele>4109.0</ele>
    <time>2026-06-23T10:37:29Z</time>
   </trkpt>
   <trkpt lat="-3.1209870" lon="37.3759530">
    <ele>4108.9</ele>
    <time>2026-06-23T10:37:30Z</time>
   </trkpt>
   <trkpt lat="-3.1209920" lon="37.3759500">
    <ele>4108.7</ele>
    <time>2026-06-23T10:37:31Z</time>
   </trkpt>
   <trkpt lat="-3.1209980" lon="37.3759500">
    <ele>4108.6</ele>
    <time>2026-06-23T10:37:32Z</time>
   </trkpt>
   <trkpt lat="-3.1210040" lon="37.3759480">
    <ele>4108.4</ele>
    <time>2026-06-23T10:37:33Z</time>
   </trkpt>
   <trkpt lat="-3.1210070" lon="37.3759490">
    <ele>4108.3</ele>
    <time>2026-06-23T10:37:34Z</time>
   </trkpt>
   <trkpt lat="-3.1210150" lon="37.3759490">
    <ele>4108.1</ele>
    <time>2026-06-23T10:37:35Z</time>
   </trkpt>
   <trkpt lat="-3.1210200" lon="37.3759490">
    <ele>4108.0</ele>
    <time>2026-06-23T10:37:36Z</time>
   </trkpt>
   <trkpt lat="-3.1210230" lon="37.3759470">
    <ele>4107.9</ele>
    <time>2026-06-23T10:37:37Z</time>
   </trkpt>
   <trkpt lat="-3.1210270" lon="37.3759460">
    <ele>4107.8</ele>
    <time>2026-06-23T10:37:38Z</time>
   </trkpt>
   <trkpt lat="-3.1210320" lon="37.3759440">
    <ele>4107.6</ele>
    <time>2026-06-23T10:37:39Z</time>
   </trkpt>
   <trkpt lat="-3.1210400" lon="37.3759410">
    <ele>4107.4</ele>
    <time>2026-06-23T10:37:40Z</time>
   </trkpt>
   <trkpt lat="-3.1210430" lon="37.3759400">
    <ele>4107.3</ele>
    <time>2026-06-23T10:37:41Z</time>
   </trkpt>
   <trkpt lat="-3.1210460" lon="37.3759380">
    <ele>4107.2</ele>
    <time>2026-06-23T10:37:42Z</time>
   </trkpt>
   <trkpt lat="-3.1210520" lon="37.3759330">
    <ele>4107.0</ele>
    <time>2026-06-23T10:37:43Z</time>
   </trkpt>
   <trkpt lat="-3.1210590" lon="37.3759310">
    <ele>4106.9</ele>
    <time>2026-06-23T10:37:44Z</time>
   </trkpt>
   <trkpt lat="-3.1210610" lon="37.3759300">
    <ele>4106.8</ele>
    <time>2026-06-23T10:37:45Z</time>
   </trkpt>
   <trkpt lat="-3.1210680" lon="37.3759280">
    <ele>4106.6</ele>
    <time>2026-06-23T10:37:46Z</time>
   </trkpt>
   <trkpt lat="-3.1210730" lon="37.3759270">
    <ele>4106.5</ele>
    <time>2026-06-23T10:37:47Z</time>
   </trkpt>
   <trkpt lat="-3.1210790" lon="37.3759280">
    <ele>4106.3</ele>
    <time>2026-06-23T10:37:48Z</time>
   </trkpt>
   <trkpt lat="-3.1210830" lon="37.3759280">
    <ele>4106.2</ele>
    <time>2026-06-23T10:37:49Z</time>
   </trkpt>
   <trkpt lat="-3.1210890" lon="37.3759280">
    <ele>4106.1</ele>
    <time>2026-06-23T10:37:50Z</time>
   </trkpt>
   <trkpt lat="-3.1210940" lon="37.3759280">
    <ele>4105.9</ele>
    <time>2026-06-23T10:37:51Z</time>
   </trkpt>
   <trkpt lat="-3.1210980" lon="37.3759300">
    <ele>4105.8</ele>
    <time>2026-06-23T10:37:52Z</time>
   </trkpt>
   <trkpt lat="-3.1211060" lon="37.3759330">
    <ele>4105.6</ele>
    <time>2026-06-23T10:37:53Z</time>
   </trkpt>
   <trkpt lat="-3.1211110" lon="37.3759330">
    <ele>4105.5</ele>
    <time>2026-06-23T10:37:54Z</time>
   </trkpt>
   <trkpt lat="-3.1211200" lon="37.3759340">
    <ele>4105.2</ele>
    <time>2026-06-23T10:37:55Z</time>
   </trkpt>
   <trkpt lat="-3.1211250" lon="37.3759350">
    <ele>4105.1</ele>
    <time>2026-06-23T10:37:56Z</time>
   </trkpt>
   <trkpt lat="-3.1211310" lon="37.3759340">
    <ele>4104.9</ele>
    <time>2026-06-23T10:37:57Z</time>
   </trkpt>
   <trkpt lat="-3.1211330" lon="37.3759300">
    <ele>4104.8</ele>
    <time>2026-06-23T10:37:58Z</time>
   </trkpt>
   <trkpt lat="-3.1211420" lon="37.3759270">
    <ele>4104.6</ele>
    <time>2026-06-23T10:37:59Z</time>
   </trkpt>
   <trkpt lat="-3.1211440" lon="37.3759240">
    <ele>4104.5</ele>
    <time>2026-06-23T10:38:00Z</time>
   </trkpt>
   <trkpt lat="-3.1211440" lon="37.3759220">
    <ele>4104.4</ele>
    <time>2026-06-23T10:38:01Z</time>
   </trkpt>
   <trkpt lat="-3.1211490" lon="37.3759170">
    <ele>4104.3</ele>
    <time>2026-06-23T10:38:02Z</time>
   </trkpt>
   <trkpt lat="-3.1211520" lon="37.3759150">
    <ele>4104.2</ele>
    <time>2026-06-23T10:38:03Z</time>
   </trkpt>
   <trkpt lat="-3.1211550" lon="37.3759130">
    <ele>4104.1</ele>
    <time>2026-06-23T10:38:04Z</time>
   </trkpt>
   <trkpt lat="-3.1211540" lon="37.3759140">
    <ele>4104.1</ele>
    <time>2026-06-23T10:38:05Z</time>
   </trkpt>
   <trkpt lat="-3.1211540" lon="37.3759150">
    <ele>4104.0</ele>
    <time>2026-06-23T10:38:06Z</time>
   </trkpt>
   <trkpt lat="-3.1211550" lon="37.3759150">
    <ele>4104.0</ele>
    <time>2026-06-23T10:38:07Z</time>
   </trkpt>
   <trkpt lat="-3.1211580" lon="37.3759150">
    <ele>4103.9</ele>
    <time>2026-06-23T10:38:08Z</time>
   </trkpt>
   <trkpt lat="-3.1211630" lon="37.3759140">
    <ele>4103.8</ele>
    <time>2026-06-23T10:38:09Z</time>
   </trkpt>
   <trkpt lat="-3.1211690" lon="37.3759130">
    <ele>4103.6</ele>
    <time>2026-06-23T10:38:10Z</time>
   </trkpt>
   <trkpt lat="-3.1211730" lon="37.3759120">
    <ele>4103.5</ele>
    <time>2026-06-23T10:38:11Z</time>
   </trkpt>
   <trkpt lat="-3.1211780" lon="37.3759110">
    <ele>4103.4</ele>
    <time>2026-06-23T10:38:12Z</time>
   </trkpt>
   <trkpt lat="-3.1211840" lon="37.3759130">
    <ele>4103.3</ele>
    <time>2026-06-23T10:38:13Z</time>
   </trkpt>
   <trkpt lat="-3.1211870" lon="37.3759110">
    <ele>4103.2</ele>
    <time>2026-06-23T10:38:14Z</time>
   </trkpt>
   <trkpt lat="-3.1211970" lon="37.3759080">
    <ele>4102.9</ele>
    <time>2026-06-23T10:38:15Z</time>
   </trkpt>
   <trkpt lat="-3.1212060" lon="37.3759060">
    <ele>4102.7</ele>
    <time>2026-06-23T10:38:16Z</time>
   </trkpt>
   <trkpt lat="-3.1212080" lon="37.3759070">
    <ele>4102.6</ele>
    <time>2026-06-23T10:38:17Z</time>
   </trkpt>
   <trkpt lat="-3.1212170" lon="37.3759080">
    <ele>4102.4</ele>
    <time>2026-06-23T10:38:18Z</time>
   </trkpt>
   <trkpt lat="-3.1212240" lon="37.3759100">
    <ele>4102.2</ele>
    <time>2026-06-23T10:38:19Z</time>
   </trkpt>
   <trkpt lat="-3.1212300" lon="37.3759050">
    <ele>4102.0</ele>
    <time>2026-06-23T10:38:20Z</time>
   </trkpt>
   <trkpt lat="-3.1212340" lon="37.3759040">
    <ele>4101.9</ele>
    <time>2026-06-23T10:38:21Z</time>
   </trkpt>
   <trkpt lat="-3.1212400" lon="37.3759040">
    <ele>4101.8</ele>
    <time>2026-06-23T10:38:22Z</time>
   </trkpt>
   <trkpt lat="-3.1212450" lon="37.3759050">
    <ele>4101.6</ele>
    <time>2026-06-23T10:38:23Z</time>
   </trkpt>
   <trkpt lat="-3.1212530" lon="37.3759040">
    <ele>4101.4</ele>
    <time>2026-06-23T10:38:24Z</time>
   </trkpt>
   <trkpt lat="-3.1212630" lon="37.3759040">
    <ele>4101.2</ele>
    <time>2026-06-23T10:38:25Z</time>
   </trkpt>
   <trkpt lat="-3.1212670" lon="37.3759060">
    <ele>4101.1</ele>
    <time>2026-06-23T10:38:26Z</time>
   </trkpt>
   <trkpt lat="-3.1212760" lon="37.3759090">
    <ele>4100.8</ele>
    <time>2026-06-23T10:38:27Z</time>
   </trkpt>
   <trkpt lat="-3.1212840" lon="37.3759100">
    <ele>4100.6</ele>
    <time>2026-06-23T10:38:28Z</time>
   </trkpt>
   <trkpt lat="-3.1212920" lon="37.3759090">
    <ele>4100.4</ele>
    <time>2026-06-23T10:38:29Z</time>
   </trkpt>
   <trkpt lat="-3.1212990" lon="37.3759050">
    <ele>4100.2</ele>
    <time>2026-06-23T10:38:30Z</time>
   </trkpt>
   <trkpt lat="-3.1213050" lon="37.3759010">
    <ele>4100.0</ele>
    <time>2026-06-23T10:38:31Z</time>
   </trkpt>
   <trkpt lat="-3.1213110" lon="37.3758980">
    <ele>4099.9</ele>
    <time>2026-06-23T10:38:32Z</time>
   </trkpt>
   <trkpt lat="-3.1213150" lon="37.3758980">
    <ele>4099.8</ele>
    <time>2026-06-23T10:38:33Z</time>
   </trkpt>
   <trkpt lat="-3.1213220" lon="37.3758980">
    <ele>4099.6</ele>
    <time>2026-06-23T10:38:34Z</time>
   </trkpt>
   <trkpt lat="-3.1213280" lon="37.3758980">
    <ele>4099.4</ele>
    <time>2026-06-23T10:38:35Z</time>
   </trkpt>
   <trkpt lat="-3.1213350" lon="37.3758990">
    <ele>4099.3</ele>
    <time>2026-06-23T10:38:36Z</time>
   </trkpt>
   <trkpt lat="-3.1213400" lon="37.3758990">
    <ele>4099.1</ele>
    <time>2026-06-23T10:38:37Z</time>
   </trkpt>
   <trkpt lat="-3.1213490" lon="37.3759010">
    <ele>4098.9</ele>
    <time>2026-06-23T10:38:38Z</time>
   </trkpt>
   <trkpt lat="-3.1213540" lon="37.3759030">
    <ele>4098.8</ele>
    <time>2026-06-23T10:38:39Z</time>
   </trkpt>
   <trkpt lat="-3.1213620" lon="37.3759060">
    <ele>4098.6</ele>
    <time>2026-06-23T10:38:40Z</time>
   </trkpt>
   <trkpt lat="-3.1213690" lon="37.3759100">
    <ele>4098.4</ele>
    <time>2026-06-23T10:38:41Z</time>
   </trkpt>
   <trkpt lat="-3.1213760" lon="37.3759180">
    <ele>4098.1</ele>
    <time>2026-06-23T10:38:42Z</time>
   </trkpt>
   <trkpt lat="-3.1213840" lon="37.3759270">
    <ele>4097.8</ele>
    <time>2026-06-23T10:38:43Z</time>
   </trkpt>
   <trkpt lat="-3.1213900" lon="37.3759340">
    <ele>4097.6</ele>
    <time>2026-06-23T10:38:44Z</time>
   </trkpt>
   <trkpt lat="-3.1213970" lon="37.3759370">
    <ele>4097.4</ele>
    <time>2026-06-23T10:38:45Z</time>
   </trkpt>
   <trkpt lat="-3.1214020" lon="37.3759380">
    <ele>4097.2</ele>
    <time>2026-06-23T10:38:46Z</time>
   </trkpt>
   <trkpt lat="-3.1214090" lon="37.3759400">
    <ele>4097.1</ele>
    <time>2026-06-23T10:38:47Z</time>
   </trkpt>
   <trkpt lat="-3.1214180" lon="37.3759400">
    <ele>4096.8</ele>
    <time>2026-06-23T10:38:48Z</time>
   </trkpt>
   <trkpt lat="-3.1214240" lon="37.3759370">
    <ele>4096.7</ele>
    <time>2026-06-23T10:38:49Z</time>
   </trkpt>
   <trkpt lat="-3.1214310" lon="37.3759340">
    <ele>4096.5</ele>
    <time>2026-06-23T10:38:50Z</time>
   </trkpt>
   <trkpt lat="-3.1214330" lon="37.3759310">
    <ele>4096.4</ele>
    <time>2026-06-23T10:38:51Z</time>
   </trkpt>
   <trkpt lat="-3.1214380" lon="37.3759250">
    <ele>4096.2</ele>
    <time>2026-06-23T10:38:52Z</time>
   </trkpt>
   <trkpt lat="-3.1214400" lon="37.3759220">
    <ele>4096.1</ele>
    <time>2026-06-23T10:38:53Z</time>
   </trkpt>
   <trkpt lat="-3.1214430" lon="37.3759170">
    <ele>4095.9</ele>
    <time>2026-06-23T10:38:54Z</time>
   </trkpt>
   <trkpt lat="-3.1214480" lon="37.3759100">
    <ele>4095.7</ele>
    <time>2026-06-23T10:38:55Z</time>
   </trkpt>
   <trkpt lat="-3.1214520" lon="37.3759040">
    <ele>4095.6</ele>
    <time>2026-06-23T10:38:56Z</time>
   </trkpt>
   <trkpt lat="-3.1214530" lon="37.3759010">
    <ele>4095.5</ele>
    <time>2026-06-23T10:38:57Z</time>
   </trkpt>
   <trkpt lat="-3.1214550" lon="37.3758970">
    <ele>4095.4</ele>
    <time>2026-06-23T10:38:58Z</time>
   </trkpt>
   <trkpt lat="-3.1214580" lon="37.3758930">
    <ele>4095.2</ele>
    <time>2026-06-23T10:38:59Z</time>
   </trkpt>
   <trkpt lat="-3.1214600" lon="37.3758890">
    <ele>4095.1</ele>
    <time>2026-06-23T10:39:00Z</time>
   </trkpt>
   <trkpt lat="-3.1214630" lon="37.3758860">
    <ele>4095.0</ele>
    <time>2026-06-23T10:39:01Z</time>
   </trkpt>
   <trkpt lat="-3.1214650" lon="37.3758850">
    <ele>4095.0</ele>
    <time>2026-06-23T10:39:02Z</time>
   </trkpt>
   <trkpt lat="-3.1214700" lon="37.3758810">
    <ele>4094.8</ele>
    <time>2026-06-23T10:39:03Z</time>
   </trkpt>
   <trkpt lat="-3.1214760" lon="37.3758750">
    <ele>4094.6</ele>
    <time>2026-06-23T10:39:04Z</time>
   </trkpt>
   <trkpt lat="-3.1214790" lon="37.3758720">
    <ele>4094.5</ele>
    <time>2026-06-23T10:39:05Z</time>
   </trkpt>
   <trkpt lat="-3.1214840" lon="37.3758660">
    <ele>4094.3</ele>
    <time>2026-06-23T10:39:06Z</time>
   </trkpt>
   <trkpt lat="-3.1214880" lon="37.3758600">
    <ele>4094.1</ele>
    <time>2026-06-23T10:39:07Z</time>
   </trkpt>
   <trkpt lat="-3.1214920" lon="37.3758540">
    <ele>4093.9</ele>
    <time>2026-06-23T10:39:08Z</time>
   </trkpt>
   <trkpt lat="-3.1214970" lon="37.3758510">
    <ele>4093.8</ele>
    <time>2026-06-23T10:39:09Z</time>
   </trkpt>
   <trkpt lat="-3.1215020" lon="37.3758500">
    <ele>4093.7</ele>
    <time>2026-06-23T10:39:10Z</time>
   </trkpt>
   <trkpt lat="-3.1215070" lon="37.3758480">
    <ele>4093.5</ele>
    <time>2026-06-23T10:39:11Z</time>
   </trkpt>
   <trkpt lat="-3.1215110" lon="37.3758450">
    <ele>4093.4</ele>
    <time>2026-06-23T10:39:12Z</time>
   </trkpt>
   <trkpt lat="-3.1215160" lon="37.3758450">
    <ele>4093.3</ele>
    <time>2026-06-23T10:39:13Z</time>
   </trkpt>
   <trkpt lat="-3.1215210" lon="37.3758440">
    <ele>4093.1</ele>
    <time>2026-06-23T10:39:14Z</time>
   </trkpt>
   <trkpt lat="-3.1215270" lon="37.3758410">
    <ele>4093.0</ele>
    <time>2026-06-23T10:39:15Z</time>
   </trkpt>
   <trkpt lat="-3.1215340" lon="37.3758360">
    <ele>4092.7</ele>
    <time>2026-06-23T10:39:16Z</time>
   </trkpt>
   <trkpt lat="-3.1215380" lon="37.3758370">
    <ele>4092.6</ele>
    <time>2026-06-23T10:39:17Z</time>
   </trkpt>
   <trkpt lat="-3.1215450" lon="37.3758370">
    <ele>4092.5</ele>
    <time>2026-06-23T10:39:18Z</time>
   </trkpt>
   <trkpt lat="-3.1215530" lon="37.3758370">
    <ele>4092.2</ele>
    <time>2026-06-23T10:39:19Z</time>
   </trkpt>
   <trkpt lat="-3.1215580" lon="37.3758380">
    <ele>4092.1</ele>
    <time>2026-06-23T10:39:20Z</time>
   </trkpt>
   <trkpt lat="-3.1215610" lon="37.3758370">
    <ele>4092.0</ele>
    <time>2026-06-23T10:39:21Z</time>
   </trkpt>
   <trkpt lat="-3.1215670" lon="37.3758340">
    <ele>4091.9</ele>
    <time>2026-06-23T10:39:22Z</time>
   </trkpt>
   <trkpt lat="-3.1215700" lon="37.3758300">
    <ele>4091.7</ele>
    <time>2026-06-23T10:39:23Z</time>
   </trkpt>
   <trkpt lat="-3.1215740" lon="37.3758290">
    <ele>4091.6</ele>
    <time>2026-06-23T10:39:24Z</time>
   </trkpt>
   <trkpt lat="-3.1215820" lon="37.3758290">
    <ele>4091.4</ele>
    <time>2026-06-23T10:39:25Z</time>
   </trkpt>
   <trkpt lat="-3.1215870" lon="37.3758300">
    <ele>4091.3</ele>
    <time>2026-06-23T10:39:26Z</time>
   </trkpt>
   <trkpt lat="-3.1215930" lon="37.3758310">
    <ele>4091.1</ele>
    <time>2026-06-23T10:39:27Z</time>
   </trkpt>
   <trkpt lat="-3.1215970" lon="37.3758310">
    <ele>4091.0</ele>
    <time>2026-06-23T10:39:28Z</time>
   </trkpt>
   <trkpt lat="-3.1216040" lon="37.3758300">
    <ele>4090.9</ele>
    <time>2026-06-23T10:39:29Z</time>
   </trkpt>
   <trkpt lat="-3.1216080" lon="37.3758260">
    <ele>4090.7</ele>
    <time>2026-06-23T10:39:30Z</time>
   </trkpt>
   <trkpt lat="-3.1216110" lon="37.3758240">
    <ele>4090.6</ele>
    <time>2026-06-23T10:39:31Z</time>
   </trkpt>
   <trkpt lat="-3.1216190" lon="37.3758210">
    <ele>4090.4</ele>
    <time>2026-06-23T10:39:32Z</time>
   </trkpt>
   <trkpt lat="-3.1216250" lon="37.3758200">
    <ele>4090.2</ele>
    <time>2026-06-23T10:39:33Z</time>
   </trkpt>
   <trkpt lat="-3.1216300" lon="37.3758190">
    <ele>4090.1</ele>
    <time>2026-06-23T10:39:34Z</time>
   </trkpt>
   <trkpt lat="-3.1216340" lon="37.3758160">
    <ele>4090.0</ele>
    <time>2026-06-23T10:39:35Z</time>
   </trkpt>
   <trkpt lat="-3.1216410" lon="37.3758110">
    <ele>4089.7</ele>
    <time>2026-06-23T10:39:36Z</time>
   </trkpt>
   <trkpt lat="-3.1216450" lon="37.3758100">
    <ele>4089.6</ele>
    <time>2026-06-23T10:39:37Z</time>
   </trkpt>
   <trkpt lat="-3.1216530" lon="37.3758120">
    <ele>4089.4</ele>
    <time>2026-06-23T10:39:38Z</time>
   </trkpt>
   <trkpt lat="-3.1216560" lon="37.3758090">
    <ele>4089.3</ele>
    <time>2026-06-23T10:39:39Z</time>
   </trkpt>
   <trkpt lat="-3.1216600" lon="37.3758050">
    <ele>4089.1</ele>
    <time>2026-06-23T10:39:40Z</time>
   </trkpt>
   <trkpt lat="-3.1216640" lon="37.3757990">
    <ele>4088.9</ele>
    <time>2026-06-23T10:39:41Z</time>
   </trkpt>
   <trkpt lat="-3.1216680" lon="37.3757940">
    <ele>4088.8</ele>
    <time>2026-06-23T10:39:42Z</time>
   </trkpt>
   <trkpt lat="-3.1216720" lon="37.3757900">
    <ele>4088.6</ele>
    <time>2026-06-23T10:39:43Z</time>
   </trkpt>
   <trkpt lat="-3.1216730" lon="37.3757870">
    <ele>4088.5</ele>
    <time>2026-06-23T10:39:44Z</time>
   </trkpt>
   <trkpt lat="-3.1216800" lon="37.3757820">
    <ele>4088.3</ele>
    <time>2026-06-23T10:39:45Z</time>
   </trkpt>
   <trkpt lat="-3.1216850" lon="37.3757780">
    <ele>4088.1</ele>
    <time>2026-06-23T10:39:46Z</time>
   </trkpt>
   <trkpt lat="-3.1216880" lon="37.3757750">
    <ele>4088.0</ele>
    <time>2026-06-23T10:39:47Z</time>
   </trkpt>
   <trkpt lat="-3.1216920" lon="37.3757740">
    <ele>4087.9</ele>
    <time>2026-06-23T10:39:48Z</time>
   </trkpt>
   <trkpt lat="-3.1216980" lon="37.3757740">
    <ele>4087.7</ele>
    <time>2026-06-23T10:39:49Z</time>
   </trkpt>
   <trkpt lat="-3.1217020" lon="37.3757760">
    <ele>4087.6</ele>
    <time>2026-06-23T10:39:50Z</time>
   </trkpt>
   <trkpt lat="-3.1217070" lon="37.3757760">
    <ele>4087.4</ele>
    <time>2026-06-23T10:39:51Z</time>
   </trkpt>
   <trkpt lat="-3.1217120" lon="37.3757740">
    <ele>4087.3</ele>
    <time>2026-06-23T10:39:52Z</time>
   </trkpt>
   <trkpt lat="-3.1217160" lon="37.3757730">
    <ele>4087.2</ele>
    <time>2026-06-23T10:39:53Z</time>
   </trkpt>
   <trkpt lat="-3.1217210" lon="37.3757710">
    <ele>4087.0</ele>
    <time>2026-06-23T10:39:54Z</time>
   </trkpt>
   <trkpt lat="-3.1217250" lon="37.3757690">
    <ele>4086.9</ele>
    <time>2026-06-23T10:39:55Z</time>
   </trkpt>
   <trkpt lat="-3.1217290" lon="37.3757680">
    <ele>4086.8</ele>
    <time>2026-06-23T10:39:56Z</time>
   </trkpt>
   <trkpt lat="-3.1217360" lon="37.3757650">
    <ele>4086.6</ele>
    <time>2026-06-23T10:39:57Z</time>
   </trkpt>
   <trkpt lat="-3.1217410" lon="37.3757620">
    <ele>4086.4</ele>
    <time>2026-06-23T10:39:58Z</time>
   </trkpt>
   <trkpt lat="-3.1217460" lon="37.3757580">
    <ele>4086.2</ele>
    <time>2026-06-23T10:39:59Z</time>
   </trkpt>
   <trkpt lat="-3.1217500" lon="37.3757540">
    <ele>4086.0</ele>
    <time>2026-06-23T10:40:00Z</time>
   </trkpt>
   <trkpt lat="-3.1217550" lon="37.3757510">
    <ele>4085.9</ele>
    <time>2026-06-23T10:40:01Z</time>
   </trkpt>
   <trkpt lat="-3.1217610" lon="37.3757490">
    <ele>4085.7</ele>
    <time>2026-06-23T10:40:02Z</time>
   </trkpt>
   <trkpt lat="-3.1217680" lon="37.3757470">
    <ele>4085.5</ele>
    <time>2026-06-23T10:40:03Z</time>
   </trkpt>
   <trkpt lat="-3.1217720" lon="37.3757480">
    <ele>4085.4</ele>
    <time>2026-06-23T10:40:04Z</time>
   </trkpt>
   <trkpt lat="-3.1217760" lon="37.3757470">
    <ele>4085.3</ele>
    <time>2026-06-23T10:40:05Z</time>
   </trkpt>
   <trkpt lat="-3.1217790" lon="37.3757470">
    <ele>4085.2</ele>
    <time>2026-06-23T10:40:06Z</time>
   </trkpt>
   <trkpt lat="-3.1217830" lon="37.3757470">
    <ele>4085.1</ele>
    <time>2026-06-23T10:40:07Z</time>
   </trkpt>
   <trkpt lat="-3.1217910" lon="37.3757460">
    <ele>4084.8</ele>
    <time>2026-06-23T10:40:08Z</time>
   </trkpt>
   <trkpt lat="-3.1217970" lon="37.3757470">
    <ele>4084.7</ele>
    <time>2026-06-23T10:40:09Z</time>
   </trkpt>
   <trkpt lat="-3.1218020" lon="37.3757500">
    <ele>4084.5</ele>
    <time>2026-06-23T10:40:10Z</time>
   </trkpt>
   <trkpt lat="-3.1218090" lon="37.3757520">
    <ele>4084.3</ele>
    <time>2026-06-23T10:40:11Z</time>
   </trkpt>
   <trkpt lat="-3.1218170" lon="37.3757530">
    <ele>4084.1</ele>
    <time>2026-06-23T10:40:12Z</time>
   </trkpt>
   <trkpt lat="-3.1218230" lon="37.3757520">
    <ele>4083.9</ele>
    <time>2026-06-23T10:40:13Z</time>
   </trkpt>
   <trkpt lat="-3.1218310" lon="37.3757530">
    <ele>4083.7</ele>
    <time>2026-06-23T10:40:14Z</time>
   </trkpt>
   <trkpt lat="-3.1218370" lon="37.3757540">
    <ele>4083.5</ele>
    <time>2026-06-23T10:40:15Z</time>
   </trkpt>
   <trkpt lat="-3.1218440" lon="37.3757510">
    <ele>4083.3</ele>
    <time>2026-06-23T10:40:16Z</time>
   </trkpt>
   <trkpt lat="-3.1218480" lon="37.3757460">
    <ele>4083.1</ele>
    <time>2026-06-23T10:40:17Z</time>
   </trkpt>
   <trkpt lat="-3.1218500" lon="37.3757400">
    <ele>4082.9</ele>
    <time>2026-06-23T10:40:18Z</time>
   </trkpt>
   <trkpt lat="-3.1218530" lon="37.3757330">
    <ele>4082.7</ele>
    <time>2026-06-23T10:40:19Z</time>
   </trkpt>
   <trkpt lat="-3.1218550" lon="37.3757240">
    <ele>4082.5</ele>
    <time>2026-06-23T10:40:20Z</time>
   </trkpt>
   <trkpt lat="-3.1218570" lon="37.3757190">
    <ele>4082.3</ele>
    <time>2026-06-23T10:40:21Z</time>
   </trkpt>
   <trkpt lat="-3.1218610" lon="37.3757130">
    <ele>4082.1</ele>
    <time>2026-06-23T10:40:22Z</time>
   </trkpt>
   <trkpt lat="-3.1218640" lon="37.3757100">
    <ele>4082.0</ele>
    <time>2026-06-23T10:40:23Z</time>
   </trkpt>
   <trkpt lat="-3.1218690" lon="37.3757090">
    <ele>4081.9</ele>
    <time>2026-06-23T10:40:24Z</time>
   </trkpt>
   <trkpt lat="-3.1218760" lon="37.3757100">
    <ele>4081.7</ele>
    <time>2026-06-23T10:40:25Z</time>
   </trkpt>
   <trkpt lat="-3.1218840" lon="37.3757110">
    <ele>4081.4</ele>
    <time>2026-06-23T10:40:26Z</time>
   </trkpt>
   <trkpt lat="-3.1218900" lon="37.3757110">
    <ele>4081.3</ele>
    <time>2026-06-23T10:40:27Z</time>
   </trkpt>
   <trkpt lat="-3.1218970" lon="37.3757100">
    <ele>4081.1</ele>
    <time>2026-06-23T10:40:28Z</time>
   </trkpt>
   <trkpt lat="-3.1219040" lon="37.3757110">
    <ele>4080.9</ele>
    <time>2026-06-23T10:40:29Z</time>
   </trkpt>
   <trkpt lat="-3.1219100" lon="37.3757120">
    <ele>4080.7</ele>
    <time>2026-06-23T10:40:30Z</time>
   </trkpt>
   <trkpt lat="-3.1219160" lon="37.3757080">
    <ele>4080.5</ele>
    <time>2026-06-23T10:40:31Z</time>
   </trkpt>
   <trkpt lat="-3.1219210" lon="37.3757060">
    <ele>4080.4</ele>
    <time>2026-06-23T10:40:32Z</time>
   </trkpt>
   <trkpt lat="-3.1219230" lon="37.3757040">
    <ele>4080.3</ele>
    <time>2026-06-23T10:40:33Z</time>
   </trkpt>
   <trkpt lat="-3.1219290" lon="37.3757010">
    <ele>4080.1</ele>
    <time>2026-06-23T10:40:34Z</time>
   </trkpt>
   <trkpt lat="-3.1219350" lon="37.3757010">
    <ele>4079.9</ele>
    <time>2026-06-23T10:40:35Z</time>
   </trkpt>
   <trkpt lat="-3.1219410" lon="37.3756990">
    <ele>4079.8</ele>
    <time>2026-06-23T10:40:36Z</time>
   </trkpt>
   <trkpt lat="-3.1219490" lon="37.3756940">
    <ele>4079.5</ele>
    <time>2026-06-23T10:40:37Z</time>
   </trkpt>
   <trkpt lat="-3.1219500" lon="37.3756900">
    <ele>4079.4</ele>
    <time>2026-06-23T10:40:38Z</time>
   </trkpt>
   <trkpt lat="-3.1219500" lon="37.3756860">
    <ele>4079.3</ele>
    <time>2026-06-23T10:40:39Z</time>
   </trkpt>
   <trkpt lat="-3.1219510" lon="37.3756810">
    <ele>4079.1</ele>
    <time>2026-06-23T10:40:40Z</time>
   </trkpt>
   <trkpt lat="-3.1219530" lon="37.3756770">
    <ele>4079.0</ele>
    <time>2026-06-23T10:40:41Z</time>
   </trkpt>
   <trkpt lat="-3.1219550" lon="37.3756720">
    <ele>4078.9</ele>
    <time>2026-06-23T10:40:42Z</time>
   </trkpt>
   <trkpt lat="-3.1219570" lon="37.3756660">
    <ele>4078.7</ele>
    <time>2026-06-23T10:40:43Z</time>
   </trkpt>
   <trkpt lat="-3.1219590" lon="37.3756600">
    <ele>4078.5</ele>
    <time>2026-06-23T10:40:44Z</time>
   </trkpt>
   <trkpt lat="-3.1219610" lon="37.3756570">
    <ele>4078.4</ele>
    <time>2026-06-23T10:40:45Z</time>
   </trkpt>
   <trkpt lat="-3.1219630" lon="37.3756520">
    <ele>4078.3</ele>
    <time>2026-06-23T10:40:46Z</time>
   </trkpt>
   <trkpt lat="-3.1219660" lon="37.3756490">
    <ele>4078.2</ele>
    <time>2026-06-23T10:40:47Z</time>
   </trkpt>
   <trkpt lat="-3.1219710" lon="37.3756460">
    <ele>4078.0</ele>
    <time>2026-06-23T10:40:48Z</time>
   </trkpt>
   <trkpt lat="-3.1219720" lon="37.3756450">
    <ele>4078.0</ele>
    <time>2026-06-23T10:40:49Z</time>
   </trkpt>
   <trkpt lat="-3.1219770" lon="37.3756460">
    <ele>4077.8</ele>
    <time>2026-06-23T10:40:50Z</time>
   </trkpt>
   <trkpt lat="-3.1219820" lon="37.3756440">
    <ele>4077.7</ele>
    <time>2026-06-23T10:40:51Z</time>
   </trkpt>
   <trkpt lat="-3.1219880" lon="37.3756420">
    <ele>4077.5</ele>
    <time>2026-06-23T10:40:52Z</time>
   </trkpt>
   <trkpt lat="-3.1219950" lon="37.3756430">
    <ele>4077.3</ele>
    <time>2026-06-23T10:40:53Z</time>
   </trkpt>
   <trkpt lat="-3.1220020" lon="37.3756410">
    <ele>4077.1</ele>
    <time>2026-06-23T10:40:54Z</time>
   </trkpt>
   <trkpt lat="-3.1220080" lon="37.3756390">
    <ele>4077.0</ele>
    <time>2026-06-23T10:40:55Z</time>
   </trkpt>
   <trkpt lat="-3.1220140" lon="37.3756370">
    <ele>4076.8</ele>
    <time>2026-06-23T10:40:56Z</time>
   </trkpt>
   <trkpt lat="-3.1220190" lon="37.3756370">
    <ele>4076.7</ele>
    <time>2026-06-23T10:40:57Z</time>
   </trkpt>
   <trkpt lat="-3.1220250" lon="37.3756360">
    <ele>4076.5</ele>
    <time>2026-06-23T10:40:58Z</time>
   </trkpt>
   <trkpt lat="-3.1220300" lon="37.3756310">
    <ele>4076.3</ele>
    <time>2026-06-23T10:40:59Z</time>
   </trkpt>
   <trkpt lat="-3.1220370" lon="37.3756300">
    <ele>4076.1</ele>
    <time>2026-06-23T10:41:00Z</time>
   </trkpt>
   <trkpt lat="-3.1220390" lon="37.3756270">
    <ele>4076.0</ele>
    <time>2026-06-23T10:41:01Z</time>
   </trkpt>
   <trkpt lat="-3.1220380" lon="37.3756240">
    <ele>4075.9</ele>
    <time>2026-06-23T10:41:02Z</time>
   </trkpt>
   <trkpt lat="-3.1220410" lon="37.3756190">
    <ele>4075.8</ele>
    <time>2026-06-23T10:41:03Z</time>
   </trkpt>
   <trkpt lat="-3.1220420" lon="37.3756190">
    <ele>4075.7</ele>
    <time>2026-06-23T10:41:04Z</time>
   </trkpt>
   <trkpt lat="-3.1220520" lon="37.3756140">
    <ele>4075.5</ele>
    <time>2026-06-23T10:41:05Z</time>
   </trkpt>
   <trkpt lat="-3.1220580" lon="37.3756110">
    <ele>4075.3</ele>
    <time>2026-06-23T10:41:06Z</time>
   </trkpt>
   <trkpt lat="-3.1220640" lon="37.3756080">
    <ele>4075.1</ele>
    <time>2026-06-23T10:41:07Z</time>
   </trkpt>
   <trkpt lat="-3.1220710" lon="37.3756050">
    <ele>4074.9</ele>
    <time>2026-06-23T10:41:08Z</time>
   </trkpt>
   <trkpt lat="-3.1220760" lon="37.3756050">
    <ele>4074.8</ele>
    <time>2026-06-23T10:41:09Z</time>
   </trkpt>
   <trkpt lat="-3.1220810" lon="37.3756030">
    <ele>4074.6</ele>
    <time>2026-06-23T10:41:10Z</time>
   </trkpt>
   <trkpt lat="-3.1220850" lon="37.3756000">
    <ele>4074.5</ele>
    <time>2026-06-23T10:41:11Z</time>
   </trkpt>
   <trkpt lat="-3.1220900" lon="37.3755950">
    <ele>4074.3</ele>
    <time>2026-06-23T10:41:12Z</time>
   </trkpt>
   <trkpt lat="-3.1220970" lon="37.3755900">
    <ele>4074.1</ele>
    <time>2026-06-23T10:41:13Z</time>
   </trkpt>
   <trkpt lat="-3.1221010" lon="37.3755880">
    <ele>4073.9</ele>
    <time>2026-06-23T10:41:14Z</time>
   </trkpt>
   <trkpt lat="-3.1221070" lon="37.3755850">
    <ele>4073.8</ele>
    <time>2026-06-23T10:41:15Z</time>
   </trkpt>
   <trkpt lat="-3.1221110" lon="37.3755840">
    <ele>4073.7</ele>
    <time>2026-06-23T10:41:16Z</time>
   </trkpt>
   <trkpt lat="-3.1221170" lon="37.3755810">
    <ele>4073.5</ele>
    <time>2026-06-23T10:41:17Z</time>
   </trkpt>
   <trkpt lat="-3.1221220" lon="37.3755760">
    <ele>4073.3</ele>
    <time>2026-06-23T10:41:18Z</time>
   </trkpt>
   <trkpt lat="-3.1221260" lon="37.3755720">
    <ele>4073.1</ele>
    <time>2026-06-23T10:41:19Z</time>
   </trkpt>
   <trkpt lat="-3.1221320" lon="37.3755680">
    <ele>4072.9</ele>
    <time>2026-06-23T10:41:20Z</time>
   </trkpt>
   <trkpt lat="-3.1221390" lon="37.3755660">
    <ele>4072.7</ele>
    <time>2026-06-23T10:41:21Z</time>
   </trkpt>
   <trkpt lat="-3.1221450" lon="37.3755650">
    <ele>4072.6</ele>
    <time>2026-06-23T10:41:22Z</time>
   </trkpt>
   <trkpt lat="-3.1221500" lon="37.3755670">
    <ele>4072.4</ele>
    <time>2026-06-23T10:41:23Z</time>
   </trkpt>
   <trkpt lat="-3.1221610" lon="37.3755690">
    <ele>4072.1</ele>
    <time>2026-06-23T10:41:24Z</time>
   </trkpt>
   <trkpt lat="-3.1221630" lon="37.3755690">
    <ele>4072.1</ele>
    <time>2026-06-23T10:41:25Z</time>
   </trkpt>
   <trkpt lat="-3.1221700" lon="37.3755690">
    <ele>4071.9</ele>
    <time>2026-06-23T10:41:26Z</time>
   </trkpt>
   <trkpt lat="-3.1221750" lon="37.3755690">
    <ele>4071.8</ele>
    <time>2026-06-23T10:41:27Z</time>
   </trkpt>
   <trkpt lat="-3.1221830" lon="37.3755690">
    <ele>4071.6</ele>
    <time>2026-06-23T10:41:28Z</time>
   </trkpt>
   <trkpt lat="-3.1221900" lon="37.3755690">
    <ele>4071.4</ele>
    <time>2026-06-23T10:41:29Z</time>
   </trkpt>
   <trkpt lat="-3.1221980" lon="37.3755690">
    <ele>4071.2</ele>
    <time>2026-06-23T10:41:30Z</time>
   </trkpt>
   <trkpt lat="-3.1222060" lon="37.3755700">
    <ele>4071.0</ele>
    <time>2026-06-23T10:41:31Z</time>
   </trkpt>
   <trkpt lat="-3.1222130" lon="37.3755730">
    <ele>4070.8</ele>
    <time>2026-06-23T10:41:32Z</time>
   </trkpt>
   <trkpt lat="-3.1222200" lon="37.3755760">
    <ele>4070.6</ele>
    <time>2026-06-23T10:41:33Z</time>
   </trkpt>
   <trkpt lat="-3.1222290" lon="37.3755790">
    <ele>4070.3</ele>
    <time>2026-06-23T10:41:34Z</time>
   </trkpt>
   <trkpt lat="-3.1222370" lon="37.3755800">
    <ele>4070.1</ele>
    <time>2026-06-23T10:41:35Z</time>
   </trkpt>
   <trkpt lat="-3.1222410" lon="37.3755800">
    <ele>4070.0</ele>
    <time>2026-06-23T10:41:36Z</time>
   </trkpt>
   <trkpt lat="-3.1222460" lon="37.3755780">
    <ele>4069.9</ele>
    <time>2026-06-23T10:41:37Z</time>
   </trkpt>
   <trkpt lat="-3.1222510" lon="37.3755760">
    <ele>4069.7</ele>
    <time>2026-06-23T10:41:38Z</time>
   </trkpt>
   <trkpt lat="-3.1222510" lon="37.3755750">
    <ele>4069.7</ele>
    <time>2026-06-23T10:41:39Z</time>
   </trkpt>
   <trkpt lat="-3.1222530" lon="37.3755720">
    <ele>4069.6</ele>
    <time>2026-06-23T10:41:40Z</time>
   </trkpt>
   <trkpt lat="-3.1222540" lon="37.3755720">
    <ele>4069.6</ele>
    <time>2026-06-23T10:41:41Z</time>
   </trkpt>
   <trkpt lat="-3.1222560" lon="37.3755720">
    <ele>4069.5</ele>
    <time>2026-06-23T10:41:42Z</time>
   </trkpt>
   <trkpt lat="-3.1222560" lon="37.3755720">
    <ele>4069.5</ele>
    <time>2026-06-23T10:41:43Z</time>
   </trkpt>
   <trkpt lat="-3.1222560" lon="37.3755710">
    <ele>4069.5</ele>
    <time>2026-06-23T10:41:44Z</time>
   </trkpt>
   <trkpt lat="-3.1222560" lon="37.3755700">
    <ele>4069.5</ele>
    <time>2026-06-23T10:41:45Z</time>
   </trkpt>
   <trkpt lat="-3.1222550" lon="37.3755690">
    <ele>4069.5</ele>
    <time>2026-06-23T10:41:46Z</time>
   </trkpt>
   <trkpt lat="-3.1222560" lon="37.3755690">
    <ele>4069.4</ele>
    <time>2026-06-23T10:41:47Z</time>
   </trkpt>
   <trkpt lat="-3.1222560" lon="37.3755690">
    <ele>4069.4</ele>
    <time>2026-06-23T10:41:48Z</time>
   </trkpt>
   <trkpt lat="-3.1222560" lon="37.3755670">
    <ele>4069.4</ele>
    <time>2026-06-23T10:41:49Z</time>
   </trkpt>
   <trkpt lat="-3.1222580" lon="37.3755660">
    <ele>4069.3</ele>
    <time>2026-06-23T10:41:50Z</time>
   </trkpt>
   <trkpt lat="-3.1222600" lon="37.3755660">
    <ele>4069.3</ele>
    <time>2026-06-23T10:41:51Z</time>
   </trkpt>
   <trkpt lat="-3.1222620" lon="37.3755680">
    <ele>4069.2</ele>
    <time>2026-06-23T10:41:52Z</time>
   </trkpt>
   <trkpt lat="-3.1222630" lon="37.3755680">
    <ele>4069.2</ele>
    <time>2026-06-23T10:41:53Z</time>
   </trkpt>
   <trkpt lat="-3.1222660" lon="37.3755670">
    <ele>4069.1</ele>
    <time>2026-06-23T10:41:54Z</time>
   </trkpt>
   <trkpt lat="-3.1222670" lon="37.3755670">
    <ele>4069.1</ele>
    <time>2026-06-23T10:41:55Z</time>
   </trkpt>
   <trkpt lat="-3.1222720" lon="37.3755670">
    <ele>4069.0</ele>
    <time>2026-06-23T10:41:56Z</time>
   </trkpt>
   <trkpt lat="-3.1222740" lon="37.3755650">
    <ele>4068.9</ele>
    <time>2026-06-23T10:41:57Z</time>
   </trkpt>
   <trkpt lat="-3.1222770" lon="37.3755620">
    <ele>4068.8</ele>
    <time>2026-06-23T10:41:58Z</time>
   </trkpt>
   <trkpt lat="-3.1222810" lon="37.3755590">
    <ele>4068.7</ele>
    <time>2026-06-23T10:41:59Z</time>
   </trkpt>
   <trkpt lat="-3.1222860" lon="37.3755540">
    <ele>4068.5</ele>
    <time>2026-06-23T10:42:00Z</time>
   </trkpt>
   <trkpt lat="-3.1222920" lon="37.3755540">
    <ele>4068.3</ele>
    <time>2026-06-23T10:42:01Z</time>
   </trkpt>
   <trkpt lat="-3.1222970" lon="37.3755550">
    <ele>4068.2</ele>
    <time>2026-06-23T10:42:02Z</time>
   </trkpt>
   <trkpt lat="-3.1223050" lon="37.3755550">
    <ele>4068.0</ele>
    <time>2026-06-23T10:42:03Z</time>
   </trkpt>
   <trkpt lat="-3.1223090" lon="37.3755530">
    <ele>4067.9</ele>
    <time>2026-06-23T10:42:04Z</time>
   </trkpt>
   <trkpt lat="-3.1223150" lon="37.3755520">
    <ele>4067.7</ele>
    <time>2026-06-23T10:42:05Z</time>
   </trkpt>
   <trkpt lat="-3.1223220" lon="37.3755510">
    <ele>4067.6</ele>
    <time>2026-06-23T10:42:06Z</time>
   </trkpt>
   <trkpt lat="-3.1223270" lon="37.3755470">
    <ele>4067.4</ele>
    <time>2026-06-23T10:42:07Z</time>
   </trkpt>
   <trkpt lat="-3.1223300" lon="37.3755420">
    <ele>4067.3</ele>
    <time>2026-06-23T10:42:08Z</time>
   </trkpt>
   <trkpt lat="-3.1223350" lon="37.3755350">
    <ele>4067.1</ele>
    <time>2026-06-23T10:42:09Z</time>
   </trkpt>
   <trkpt lat="-3.1223360" lon="37.3755300">
    <ele>4066.9</ele>
    <time>2026-06-23T10:42:10Z</time>
   </trkpt>
   <trkpt lat="-3.1223400" lon="37.3755230">
    <ele>4066.7</ele>
    <time>2026-06-23T10:42:11Z</time>
   </trkpt>
   <trkpt lat="-3.1223430" lon="37.3755190">
    <ele>4066.6</ele>
    <time>2026-06-23T10:42:12Z</time>
   </trkpt>
   <trkpt lat="-3.1223470" lon="37.3755130">
    <ele>4066.4</ele>
    <time>2026-06-23T10:42:13Z</time>
   </trkpt>
   <trkpt lat="-3.1223520" lon="37.3755090">
    <ele>4066.3</ele>
    <time>2026-06-23T10:42:14Z</time>
   </trkpt>
   <trkpt lat="-3.1223560" lon="37.3755070">
    <ele>4066.2</ele>
    <time>2026-06-23T10:42:15Z</time>
   </trkpt>
   <trkpt lat="-3.1223630" lon="37.3755020">
    <ele>4065.9</ele>
    <time>2026-06-23T10:42:16Z</time>
   </trkpt>
   <trkpt lat="-3.1223690" lon="37.3755000">
    <ele>4065.8</ele>
    <time>2026-06-23T10:42:17Z</time>
   </trkpt>
   <trkpt lat="-3.1223770" lon="37.3755000">
    <ele>4065.6</ele>
    <time>2026-06-23T10:42:18Z</time>
   </trkpt>
   <trkpt lat="-3.1223830" lon="37.3754980">
    <ele>4065.4</ele>
    <time>2026-06-23T10:42:19Z</time>
   </trkpt>
   <trkpt lat="-3.1223890" lon="37.3754950">
    <ele>4065.3</ele>
    <time>2026-06-23T10:42:20Z</time>
   </trkpt>
   <trkpt lat="-3.1223960" lon="37.3754910">
    <ele>4065.1</ele>
    <time>2026-06-23T10:42:21Z</time>
   </trkpt>
   <trkpt lat="-3.1224030" lon="37.3754860">
    <ele>4064.9</ele>
    <time>2026-06-23T10:42:22Z</time>
   </trkpt>
   <trkpt lat="-3.1224090" lon="37.3754820">
    <ele>4064.7</ele>
    <time>2026-06-23T10:42:23Z</time>
   </trkpt>
   <trkpt lat="-3.1224160" lon="37.3754790">
    <ele>4064.5</ele>
    <time>2026-06-23T10:42:24Z</time>
   </trkpt>
   <trkpt lat="-3.1224210" lon="37.3754770">
    <ele>4064.4</ele>
    <time>2026-06-23T10:42:25Z</time>
   </trkpt>
   <trkpt lat="-3.1224240" lon="37.3754750">
    <ele>4064.3</ele>
    <time>2026-06-23T10:42:26Z</time>
   </trkpt>
   <trkpt lat="-3.1224340" lon="37.3754730">
    <ele>4064.0</ele>
    <time>2026-06-23T10:42:27Z</time>
   </trkpt>
   <trkpt lat="-3.1224390" lon="37.3754740">
    <ele>4063.9</ele>
    <time>2026-06-23T10:42:28Z</time>
   </trkpt>
   <trkpt lat="-3.1224480" lon="37.3754740">
    <ele>4063.7</ele>
    <time>2026-06-23T10:42:29Z</time>
   </trkpt>
   <trkpt lat="-3.1224530" lon="37.3754700">
    <ele>4063.5</ele>
    <time>2026-06-23T10:42:30Z</time>
   </trkpt>
   <trkpt lat="-3.1224550" lon="37.3754670">
    <ele>4063.4</ele>
    <time>2026-06-23T10:42:31Z</time>
   </trkpt>
   <trkpt lat="-3.1224620" lon="37.3754640">
    <ele>4063.3</ele>
    <time>2026-06-23T10:42:32Z</time>
   </trkpt>
   <trkpt lat="-3.1224680" lon="37.3754610">
    <ele>4063.1</ele>
    <time>2026-06-23T10:42:33Z</time>
   </trkpt>
   <trkpt lat="-3.1224720" lon="37.3754590">
    <ele>4063.0</ele>
    <time>2026-06-23T10:42:34Z</time>
   </trkpt>
   <trkpt lat="-3.1224800" lon="37.3754550">
    <ele>4062.8</ele>
    <time>2026-06-23T10:42:35Z</time>
   </trkpt>
   <trkpt lat="-3.1224860" lon="37.3754480">
    <ele>4062.6</ele>
    <time>2026-06-23T10:42:36Z</time>
   </trkpt>
   <trkpt lat="-3.1224910" lon="37.3754420">
    <ele>4062.4</ele>
    <time>2026-06-23T10:42:37Z</time>
   </trkpt>
   <trkpt lat="-3.1224970" lon="37.3754380">
    <ele>4062.2</ele>
    <time>2026-06-23T10:42:38Z</time>
   </trkpt>
   <trkpt lat="-3.1225050" lon="37.3754350">
    <ele>4062.0</ele>
    <time>2026-06-23T10:42:39Z</time>
   </trkpt>
   <trkpt lat="-3.1225100" lon="37.3754310">
    <ele>4061.8</ele>
    <time>2026-06-23T10:42:40Z</time>
   </trkpt>
   <trkpt lat="-3.1225170" lon="37.3754270">
    <ele>4061.6</ele>
    <time>2026-06-23T10:42:41Z</time>
   </trkpt>
   <trkpt lat="-3.1225220" lon="37.3754220">
    <ele>4061.5</ele>
    <time>2026-06-23T10:42:42Z</time>
   </trkpt>
   <trkpt lat="-3.1225280" lon="37.3754210">
    <ele>4061.3</ele>
    <time>2026-06-23T10:42:43Z</time>
   </trkpt>
   <trkpt lat="-3.1225300" lon="37.3754240">
    <ele>4061.2</ele>
    <time>2026-06-23T10:42:44Z</time>
   </trkpt>
   <trkpt lat="-3.1225400" lon="37.3754240">
    <ele>4061.0</ele>
    <time>2026-06-23T10:42:45Z</time>
   </trkpt>
   <trkpt lat="-3.1225490" lon="37.3754230">
    <ele>4060.8</ele>
    <time>2026-06-23T10:42:46Z</time>
   </trkpt>
   <trkpt lat="-3.1225550" lon="37.3754240">
    <ele>4060.6</ele>
    <time>2026-06-23T10:42:47Z</time>
   </trkpt>
   <trkpt lat="-3.1225640" lon="37.3754190">
    <ele>4060.4</ele>
    <time>2026-06-23T10:42:48Z</time>
   </trkpt>
   <trkpt lat="-3.1225730" lon="37.3754130">
    <ele>4060.1</ele>
    <time>2026-06-23T10:42:49Z</time>
   </trkpt>
   <trkpt lat="-3.1225820" lon="37.3754080">
    <ele>4059.9</ele>
    <time>2026-06-23T10:42:50Z</time>
   </trkpt>
   <trkpt lat="-3.1225890" lon="37.3754050">
    <ele>4059.7</ele>
    <time>2026-06-23T10:42:51Z</time>
   </trkpt>
   <trkpt lat="-3.1225940" lon="37.3754000">
    <ele>4059.5</ele>
    <time>2026-06-23T10:42:52Z</time>
   </trkpt>
   <trkpt lat="-3.1225980" lon="37.3753910">
    <ele>4059.3</ele>
    <time>2026-06-23T10:42:53Z</time>
   </trkpt>
   <trkpt lat="-3.1226020" lon="37.3753820">
    <ele>4059.0</ele>
    <time>2026-06-23T10:42:54Z</time>
   </trkpt>
   <trkpt lat="-3.1226040" lon="37.3753740">
    <ele>4058.8</ele>
    <time>2026-06-23T10:42:55Z</time>
   </trkpt>
   <trkpt lat="-3.1226080" lon="37.3753700">
    <ele>4058.7</ele>
    <time>2026-06-23T10:42:56Z</time>
   </trkpt>
   <trkpt lat="-3.1226140" lon="37.3753610">
    <ele>4058.4</ele>
    <time>2026-06-23T10:42:57Z</time>
   </trkpt>
   <trkpt lat="-3.1226160" lon="37.3753570">
    <ele>4058.3</ele>
    <time>2026-06-23T10:42:58Z</time>
   </trkpt>
   <trkpt lat="-3.1226200" lon="37.3753520">
    <ele>4058.1</ele>
    <time>2026-06-23T10:42:59Z</time>
   </trkpt>
   <trkpt lat="-3.1226270" lon="37.3753480">
    <ele>4057.9</ele>
    <time>2026-06-23T10:43:00Z</time>
   </trkpt>
   <trkpt lat="-3.1226320" lon="37.3753450">
    <ele>4057.8</ele>
    <time>2026-06-23T10:43:01Z</time>
   </trkpt>
   <trkpt lat="-3.1226370" lon="37.3753420">
    <ele>4057.6</ele>
    <time>2026-06-23T10:43:02Z</time>
   </trkpt>
   <trkpt lat="-3.1226420" lon="37.3753400">
    <ele>4057.5</ele>
    <time>2026-06-23T10:43:03Z</time>
   </trkpt>
   <trkpt lat="-3.1226490" lon="37.3753360">
    <ele>4057.3</ele>
    <time>2026-06-23T10:43:04Z</time>
   </trkpt>
   <trkpt lat="-3.1226540" lon="37.3753330">
    <ele>4057.1</ele>
    <time>2026-06-23T10:43:05Z</time>
   </trkpt>
   <trkpt lat="-3.1226610" lon="37.3753280">
    <ele>4056.9</ele>
    <time>2026-06-23T10:43:06Z</time>
   </trkpt>
   <trkpt lat="-3.1226660" lon="37.3753220">
    <ele>4056.7</ele>
    <time>2026-06-23T10:43:07Z</time>
   </trkpt>
   <trkpt lat="-3.1226680" lon="37.3753160">
    <ele>4056.6</ele>
    <time>2026-06-23T10:43:08Z</time>
   </trkpt>
   <trkpt lat="-3.1226720" lon="37.3753090">
    <ele>4056.4</ele>
    <time>2026-06-23T10:43:09Z</time>
   </trkpt>
   <trkpt lat="-3.1226760" lon="37.3753030">
    <ele>4056.2</ele>
    <time>2026-06-23T10:43:10Z</time>
   </trkpt>
   <trkpt lat="-3.1226800" lon="37.3752990">
    <ele>4056.0</ele>
    <time>2026-06-23T10:43:11Z</time>
   </trkpt>
   <trkpt lat="-3.1226840" lon="37.3752970">
    <ele>4055.9</ele>
    <time>2026-06-23T10:43:12Z</time>
   </trkpt>
   <trkpt lat="-3.1226890" lon="37.3752970">
    <ele>4055.8</ele>
    <time>2026-06-23T10:43:13Z</time>
   </trkpt>
   <trkpt lat="-3.1226980" lon="37.3752950">
    <ele>4055.6</ele>
    <time>2026-06-23T10:43:14Z</time>
   </trkpt>
   <trkpt lat="-3.1227060" lon="37.3752950">
    <ele>4055.4</ele>
    <time>2026-06-23T10:43:15Z</time>
   </trkpt>
   <trkpt lat="-3.1227160" lon="37.3752960">
    <ele>4055.1</ele>
    <time>2026-06-23T10:43:16Z</time>
   </trkpt>
   <trkpt lat="-3.1227250" lon="37.3752940">
    <ele>4054.9</ele>
    <time>2026-06-23T10:43:17Z</time>
   </trkpt>
   <trkpt lat="-3.1227310" lon="37.3752900">
    <ele>4054.7</ele>
    <time>2026-06-23T10:43:18Z</time>
   </trkpt>
   <trkpt lat="-3.1227380" lon="37.3752870">
    <ele>4054.5</ele>
    <time>2026-06-23T10:43:19Z</time>
   </trkpt>
   <trkpt lat="-3.1227460" lon="37.3752840">
    <ele>4054.3</ele>
    <time>2026-06-23T10:43:20Z</time>
   </trkpt>
   <trkpt lat="-3.1227540" lon="37.3752800">
    <ele>4054.1</ele>
    <time>2026-06-23T10:43:21Z</time>
   </trkpt>
   <trkpt lat="-3.1227600" lon="37.3752750">
    <ele>4053.9</ele>
    <time>2026-06-23T10:43:22Z</time>
   </trkpt>
   <trkpt lat="-3.1227680" lon="37.3752700">
    <ele>4053.6</ele>
    <time>2026-06-23T10:43:23Z</time>
   </trkpt>
   <trkpt lat="-3.1227740" lon="37.3752670">
    <ele>4053.5</ele>
    <time>2026-06-23T10:43:24Z</time>
   </trkpt>
   <trkpt lat="-3.1227830" lon="37.3752650">
    <ele>4053.2</ele>
    <time>2026-06-23T10:43:25Z</time>
   </trkpt>
   <trkpt lat="-3.1227880" lon="37.3752660">
    <ele>4053.1</ele>
    <time>2026-06-23T10:43:26Z</time>
   </trkpt>
   <trkpt lat="-3.1227980" lon="37.3752660">
    <ele>4052.9</ele>
    <time>2026-06-23T10:43:27Z</time>
   </trkpt>
   <trkpt lat="-3.1228080" lon="37.3752670">
    <ele>4052.6</ele>
    <time>2026-06-23T10:43:28Z</time>
   </trkpt>
   <trkpt lat="-3.1228140" lon="37.3752680">
    <ele>4052.5</ele>
    <time>2026-06-23T10:43:29Z</time>
   </trkpt>
   <trkpt lat="-3.1228210" lon="37.3752670">
    <ele>4052.3</ele>
    <time>2026-06-23T10:43:30Z</time>
   </trkpt>
   <trkpt lat="-3.1228280" lon="37.3752660">
    <ele>4052.1</ele>
    <time>2026-06-23T10:43:31Z</time>
   </trkpt>
   <trkpt lat="-3.1228340" lon="37.3752650">
    <ele>4052.0</ele>
    <time>2026-06-23T10:43:32Z</time>
   </trkpt>
   <trkpt lat="-3.1228420" lon="37.3752650">
    <ele>4051.8</ele>
    <time>2026-06-23T10:43:33Z</time>
   </trkpt>
   <trkpt lat="-3.1228500" lon="37.3752640">
    <ele>4051.6</ele>
    <time>2026-06-23T10:43:34Z</time>
   </trkpt>
   <trkpt lat="-3.1228580" lon="37.3752640">
    <ele>4051.4</ele>
    <time>2026-06-23T10:43:35Z</time>
   </trkpt>
   <trkpt lat="-3.1228660" lon="37.3752640">
    <ele>4051.2</ele>
    <time>2026-06-23T10:43:36Z</time>
   </trkpt>
   <trkpt lat="-3.1228730" lon="37.3752630">
    <ele>4051.0</ele>
    <time>2026-06-23T10:43:37Z</time>
   </trkpt>
   <trkpt lat="-3.1228800" lon="37.3752590">
    <ele>4050.8</ele>
    <time>2026-06-23T10:43:38Z</time>
   </trkpt>
   <trkpt lat="-3.1228850" lon="37.3752550">
    <ele>4050.6</ele>
    <time>2026-06-23T10:43:39Z</time>
   </trkpt>
   <trkpt lat="-3.1228940" lon="37.3752510">
    <ele>4050.4</ele>
    <time>2026-06-23T10:43:40Z</time>
   </trkpt>
   <trkpt lat="-3.1229030" lon="37.3752480">
    <ele>4050.1</ele>
    <time>2026-06-23T10:43:41Z</time>
   </trkpt>
   <trkpt lat="-3.1229050" lon="37.3752430">
    <ele>4050.0</ele>
    <time>2026-06-23T10:43:42Z</time>
   </trkpt>
   <trkpt lat="-3.1229100" lon="37.3752350">
    <ele>4049.8</ele>
    <time>2026-06-23T10:43:43Z</time>
   </trkpt>
   <trkpt lat="-3.1229150" lon="37.3752310">
    <ele>4049.6</ele>
    <time>2026-06-23T10:43:44Z</time>
   </trkpt>
   <trkpt lat="-3.1229200" lon="37.3752260">
    <ele>4049.4</ele>
    <time>2026-06-23T10:43:45Z</time>
   </trkpt>
   <trkpt lat="-3.1229270" lon="37.3752260">
    <ele>4049.2</ele>
    <time>2026-06-23T10:43:46Z</time>
   </trkpt>
   <trkpt lat="-3.1229350" lon="37.3752230">
    <ele>4049.0</ele>
    <time>2026-06-23T10:43:47Z</time>
   </trkpt>
   <trkpt lat="-3.1229420" lon="37.3752180">
    <ele>4048.8</ele>
    <time>2026-06-23T10:43:48Z</time>
   </trkpt>
   <trkpt lat="-3.1229450" lon="37.3752150">
    <ele>4048.7</ele>
    <time>2026-06-23T10:43:49Z</time>
   </trkpt>
   <trkpt lat="-3.1229510" lon="37.3752130">
    <ele>4048.5</ele>
    <time>2026-06-23T10:43:50Z</time>
   </trkpt>
   <trkpt lat="-3.1229540" lon="37.3752120">
    <ele>4048.5</ele>
    <time>2026-06-23T10:43:51Z</time>
   </trkpt>
   <trkpt lat="-3.1229580" lon="37.3752120">
    <ele>4048.4</ele>
    <time>2026-06-23T10:43:52Z</time>
   </trkpt>
   <trkpt lat="-3.1229620" lon="37.3752100">
    <ele>4048.2</ele>
    <time>2026-06-23T10:43:53Z</time>
   </trkpt>
   <trkpt lat="-3.1229670" lon="37.3752070">
    <ele>4048.1</ele>
    <time>2026-06-23T10:43:54Z</time>
   </trkpt>
   <trkpt lat="-3.1229740" lon="37.3752060">
    <ele>4047.9</ele>
    <time>2026-06-23T10:43:55Z</time>
   </trkpt>
   <trkpt lat="-3.1229820" lon="37.3752060">
    <ele>4047.7</ele>
    <time>2026-06-23T10:43:56Z</time>
   </trkpt>
   <trkpt lat="-3.1229900" lon="37.3752060">
    <ele>4047.5</ele>
    <time>2026-06-23T10:43:57Z</time>
   </trkpt>
   <trkpt lat="-3.1229960" lon="37.3752040">
    <ele>4047.3</ele>
    <time>2026-06-23T10:43:58Z</time>
   </trkpt>
   <trkpt lat="-3.1230020" lon="37.3751990">
    <ele>4047.1</ele>
    <time>2026-06-23T10:43:59Z</time>
   </trkpt>
   <trkpt lat="-3.1230060" lon="37.3751960">
    <ele>4047.0</ele>
    <time>2026-06-23T10:44:00Z</time>
   </trkpt>
   <trkpt lat="-3.1230090" lon="37.3751920">
    <ele>4046.9</ele>
    <time>2026-06-23T10:44:01Z</time>
   </trkpt>
   <trkpt lat="-3.1230090" lon="37.3751910">
    <ele>4046.9</ele>
    <time>2026-06-23T10:44:02Z</time>
   </trkpt>
   <trkpt lat="-3.1230070" lon="37.3751920">
    <ele>4046.8</ele>
    <time>2026-06-23T10:44:03Z</time>
   </trkpt>
   <trkpt lat="-3.1230080" lon="37.3751910">
    <ele>4046.8</ele>
    <time>2026-06-23T10:44:04Z</time>
   </trkpt>
   <trkpt lat="-3.1230090" lon="37.3751910">
    <ele>4046.7</ele>
    <time>2026-06-23T10:44:05Z</time>
   </trkpt>
   <trkpt lat="-3.1230080" lon="37.3751910">
    <ele>4046.7</ele>
    <time>2026-06-23T10:44:06Z</time>
   </trkpt>
   <trkpt lat="-3.1230100" lon="37.3751900">
    <ele>4046.7</ele>
    <time>2026-06-23T10:44:07Z</time>
   </trkpt>
   <trkpt lat="-3.1230140" lon="37.3751860">
    <ele>4046.5</ele>
    <time>2026-06-23T10:44:08Z</time>
   </trkpt>
   <trkpt lat="-3.1230180" lon="37.3751780">
    <ele>4046.3</ele>
    <time>2026-06-23T10:44:09Z</time>
   </trkpt>
   <trkpt lat="-3.1230190" lon="37.3751710">
    <ele>4046.1</ele>
    <time>2026-06-23T10:44:10Z</time>
   </trkpt>
   <trkpt lat="-3.1230220" lon="37.3751640">
    <ele>4045.9</ele>
    <time>2026-06-23T10:44:11Z</time>
   </trkpt>
   <trkpt lat="-3.1230280" lon="37.3751600">
    <ele>4045.7</ele>
    <time>2026-06-23T10:44:12Z</time>
   </trkpt>
   <trkpt lat="-3.1230370" lon="37.3751560">
    <ele>4045.5</ele>
    <time>2026-06-23T10:44:13Z</time>
   </trkpt>
   <trkpt lat="-3.1230440" lon="37.3751540">
    <ele>4045.3</ele>
    <time>2026-06-23T10:44:14Z</time>
   </trkpt>
   <trkpt lat="-3.1230500" lon="37.3751500">
    <ele>4045.1</ele>
    <time>2026-06-23T10:44:15Z</time>
   </trkpt>
   <trkpt lat="-3.1230550" lon="37.3751480">
    <ele>4045.0</ele>
    <time>2026-06-23T10:44:16Z</time>
   </trkpt>
   <trkpt lat="-3.1230600" lon="37.3751430">
    <ele>4044.8</ele>
    <time>2026-06-23T10:44:17Z</time>
   </trkpt>
   <trkpt lat="-3.1230650" lon="37.3751400">
    <ele>4044.7</ele>
    <time>2026-06-23T10:44:18Z</time>
   </trkpt>
   <trkpt lat="-3.1230720" lon="37.3751370">
    <ele>4044.5</ele>
    <time>2026-06-23T10:44:19Z</time>
   </trkpt>
   <trkpt lat="-3.1230760" lon="37.3751350">
    <ele>4044.4</ele>
    <time>2026-06-23T10:44:20Z</time>
   </trkpt>
   <trkpt lat="-3.1230800" lon="37.3751310">
    <ele>4044.2</ele>
    <time>2026-06-23T10:44:21Z</time>
   </trkpt>
   <trkpt lat="-3.1230860" lon="37.3751250">
    <ele>4044.0</ele>
    <time>2026-06-23T10:44:22Z</time>
   </trkpt>
   <trkpt lat="-3.1230930" lon="37.3751190">
    <ele>4043.8</ele>
    <time>2026-06-23T10:44:23Z</time>
   </trkpt>
   <trkpt lat="-3.1230980" lon="37.3751160">
    <ele>4043.6</ele>
    <time>2026-06-23T10:44:24Z</time>
   </trkpt>
   <trkpt lat="-3.1231050" lon="37.3751210">
    <ele>4043.4</ele>
    <time>2026-06-23T10:44:25Z</time>
   </trkpt>
   <trkpt lat="-3.1231120" lon="37.3751200">
    <ele>4043.2</ele>
    <time>2026-06-23T10:44:26Z</time>
   </trkpt>
   <trkpt lat="-3.1231170" lon="37.3751160">
    <ele>4043.1</ele>
    <time>2026-06-23T10:44:27Z</time>
   </trkpt>
   <trkpt lat="-3.1231220" lon="37.3751140">
    <ele>4042.9</ele>
    <time>2026-06-23T10:44:28Z</time>
   </trkpt>
   <trkpt lat="-3.1231280" lon="37.3751090">
    <ele>4042.7</ele>
    <time>2026-06-23T10:44:29Z</time>
   </trkpt>
   <trkpt lat="-3.1231360" lon="37.3751060">
    <ele>4042.5</ele>
    <time>2026-06-23T10:44:30Z</time>
   </trkpt>
   <trkpt lat="-3.1231420" lon="37.3751040">
    <ele>4042.4</ele>
    <time>2026-06-23T10:44:31Z</time>
   </trkpt>
   <trkpt lat="-3.1231480" lon="37.3751020">
    <ele>4042.2</ele>
    <time>2026-06-23T10:44:32Z</time>
   </trkpt>
   <trkpt lat="-3.1231560" lon="37.3751000">
    <ele>4042.0</ele>
    <time>2026-06-23T10:44:33Z</time>
   </trkpt>
   <trkpt lat="-3.1231600" lon="37.3750980">
    <ele>4041.9</ele>
    <time>2026-06-23T10:44:34Z</time>
   </trkpt>
   <trkpt lat="-3.1231660" lon="37.3750940">
    <ele>4041.7</ele>
    <time>2026-06-23T10:44:35Z</time>
   </trkpt>
   <trkpt lat="-3.1231710" lon="37.3750900">
    <ele>4041.6</ele>
    <time>2026-06-23T10:44:36Z</time>
   </trkpt>
   <trkpt lat="-3.1231770" lon="37.3750870">
    <ele>4041.4</ele>
    <time>2026-06-23T10:44:37Z</time>
   </trkpt>
   <trkpt lat="-3.1231840" lon="37.3750840">
    <ele>4041.2</ele>
    <time>2026-06-23T10:44:38Z</time>
   </trkpt>
   <trkpt lat="-3.1231900" lon="37.3750820">
    <ele>4041.1</ele>
    <time>2026-06-23T10:44:39Z</time>
   </trkpt>
   <trkpt lat="-3.1232000" lon="37.3750790">
    <ele>4040.8</ele>
    <time>2026-06-23T10:44:40Z</time>
   </trkpt>
   <trkpt lat="-3.1232060" lon="37.3750750">
    <ele>4040.6</ele>
    <time>2026-06-23T10:44:41Z</time>
   </trkpt>
   <trkpt lat="-3.1232120" lon="37.3750690">
    <ele>4040.4</ele>
    <time>2026-06-23T10:44:42Z</time>
   </trkpt>
   <trkpt lat="-3.1232170" lon="37.3750610">
    <ele>4040.2</ele>
    <time>2026-06-23T10:44:43Z</time>
   </trkpt>
   <trkpt lat="-3.1232200" lon="37.3750560">
    <ele>4040.0</ele>
    <time>2026-06-23T10:44:44Z</time>
   </trkpt>
   <trkpt lat="-3.1232240" lon="37.3750530">
    <ele>4039.9</ele>
    <time>2026-06-23T10:44:45Z</time>
   </trkpt>
   <trkpt lat="-3.1232280" lon="37.3750500">
    <ele>4039.8</ele>
    <time>2026-06-23T10:44:46Z</time>
   </trkpt>
   <trkpt lat="-3.1232330" lon="37.3750470">
    <ele>4039.7</ele>
    <time>2026-06-23T10:44:47Z</time>
   </trkpt>
   <trkpt lat="-3.1232400" lon="37.3750440">
    <ele>4039.5</ele>
    <time>2026-06-23T10:44:48Z</time>
   </trkpt>
   <trkpt lat="-3.1232450" lon="37.3750420">
    <ele>4039.3</ele>
    <time>2026-06-23T10:44:49Z</time>
   </trkpt>
   <trkpt lat="-3.1232520" lon="37.3750380">
    <ele>4039.2</ele>
    <time>2026-06-23T10:44:50Z</time>
   </trkpt>
   <trkpt lat="-3.1232590" lon="37.3750330">
    <ele>4038.9</ele>
    <time>2026-06-23T10:44:51Z</time>
   </trkpt>
   <trkpt lat="-3.1232660" lon="37.3750300">
    <ele>4038.8</ele>
    <time>2026-06-23T10:44:52Z</time>
   </trkpt>
   <trkpt lat="-3.1232740" lon="37.3750290">
    <ele>4038.6</ele>
    <time>2026-06-23T10:44:53Z</time>
   </trkpt>
   <trkpt lat="-3.1232780" lon="37.3750290">
    <ele>4038.5</ele>
    <time>2026-06-23T10:44:54Z</time>
   </trkpt>
   <trkpt lat="-3.1232830" lon="37.3750280">
    <ele>4038.4</ele>
    <time>2026-06-23T10:44:55Z</time>
   </trkpt>
   <trkpt lat="-3.1232890" lon="37.3750250">
    <ele>4038.2</ele>
    <time>2026-06-23T10:44:56Z</time>
   </trkpt>
   <trkpt lat="-3.1232940" lon="37.3750210">
    <ele>4038.0</ele>
    <time>2026-06-23T10:44:57Z</time>
   </trkpt>
   <trkpt lat="-3.1232990" lon="37.3750190">
    <ele>4037.9</ele>
    <time>2026-06-23T10:44:58Z</time>
   </trkpt>
   <trkpt lat="-3.1233040" lon="37.3750160">
    <ele>4037.8</ele>
    <time>2026-06-23T10:44:59Z</time>
   </trkpt>
   <trkpt lat="-3.1233100" lon="37.3750140">
    <ele>4037.6</ele>
    <time>2026-06-23T10:45:00Z</time>
   </trkpt>
   <trkpt lat="-3.1233150" lon="37.3750100">
    <ele>4037.5</ele>
    <time>2026-06-23T10:45:01Z</time>
   </trkpt>
   <trkpt lat="-3.1233200" lon="37.3750050">
    <ele>4037.3</ele>
    <time>2026-06-23T10:45:02Z</time>
   </trkpt>
   <trkpt lat="-3.1233240" lon="37.3749980">
    <ele>4037.1</ele>
    <time>2026-06-23T10:45:03Z</time>
   </trkpt>
   <trkpt lat="-3.1233250" lon="37.3749930">
    <ele>4037.0</ele>
    <time>2026-06-23T10:45:04Z</time>
   </trkpt>
   <trkpt lat="-3.1233300" lon="37.3749860">
    <ele>4036.8</ele>
    <time>2026-06-23T10:45:05Z</time>
   </trkpt>
   <trkpt lat="-3.1233330" lon="37.3749830">
    <ele>4036.7</ele>
    <time>2026-06-23T10:45:06Z</time>
   </trkpt>
   <trkpt lat="-3.1233420" lon="37.3749750">
    <ele>4036.4</ele>
    <time>2026-06-23T10:45:07Z</time>
   </trkpt>
   <trkpt lat="-3.1233480" lon="37.3749720">
    <ele>4036.2</ele>
    <time>2026-06-23T10:45:08Z</time>
   </trkpt>
   <trkpt lat="-3.1233530" lon="37.3749670">
    <ele>4036.0</ele>
    <time>2026-06-23T10:45:09Z</time>
   </trkpt>
   <trkpt lat="-3.1233590" lon="37.3749630">
    <ele>4035.9</ele>
    <time>2026-06-23T10:45:10Z</time>
   </trkpt>
   <trkpt lat="-3.1233650" lon="37.3749610">
    <ele>4035.7</ele>
    <time>2026-06-23T10:45:11Z</time>
   </trkpt>
   <trkpt lat="-3.1233720" lon="37.3749550">
    <ele>4035.5</ele>
    <time>2026-06-23T10:45:12Z</time>
   </trkpt>
   <trkpt lat="-3.1233740" lon="37.3749490">
    <ele>4035.3</ele>
    <time>2026-06-23T10:45:13Z</time>
   </trkpt>
   <trkpt lat="-3.1233850" lon="37.3749410">
    <ele>4035.0</ele>
    <time>2026-06-23T10:45:14Z</time>
   </trkpt>
   <trkpt lat="-3.1233910" lon="37.3749390">
    <ele>4034.9</ele>
    <time>2026-06-23T10:45:15Z</time>
   </trkpt>
   <trkpt lat="-3.1233950" lon="37.3749360">
    <ele>4034.7</ele>
    <time>2026-06-23T10:45:16Z</time>
   </trkpt>
   <trkpt lat="-3.1233990" lon="37.3749330">
    <ele>4034.6</ele>
    <time>2026-06-23T10:45:17Z</time>
   </trkpt>
   <trkpt lat="-3.1234040" lon="37.3749290">
    <ele>4034.5</ele>
    <time>2026-06-23T10:45:18Z</time>
   </trkpt>
   <trkpt lat="-3.1234100" lon="37.3749250">
    <ele>4034.3</ele>
    <time>2026-06-23T10:45:19Z</time>
   </trkpt>
   <trkpt lat="-3.1234140" lon="37.3749230">
    <ele>4034.2</ele>
    <time>2026-06-23T10:45:20Z</time>
   </trkpt>
   <trkpt lat="-3.1234190" lon="37.3749200">
    <ele>4034.0</ele>
    <time>2026-06-23T10:45:21Z</time>
   </trkpt>
   <trkpt lat="-3.1234230" lon="37.3749170">
    <ele>4033.9</ele>
    <time>2026-06-23T10:45:22Z</time>
   </trkpt>
   <trkpt lat="-3.1234300" lon="37.3749140">
    <ele>4033.7</ele>
    <time>2026-06-23T10:45:23Z</time>
   </trkpt>
   <trkpt lat="-3.1234370" lon="37.3749110">
    <ele>4033.5</ele>
    <time>2026-06-23T10:45:24Z</time>
   </trkpt>
   <trkpt lat="-3.1234390" lon="37.3749060">
    <ele>4033.4</ele>
    <time>2026-06-23T10:45:25Z</time>
   </trkpt>
   <trkpt lat="-3.1234440" lon="37.3749040">
    <ele>4033.2</ele>
    <time>2026-06-23T10:45:26Z</time>
   </trkpt>
   <trkpt lat="-3.1234520" lon="37.3749000">
    <ele>4033.0</ele>
    <time>2026-06-23T10:45:27Z</time>
   </trkpt>
   <trkpt lat="-3.1234600" lon="37.3748970">
    <ele>4032.8</ele>
    <time>2026-06-23T10:45:28Z</time>
   </trkpt>
   <trkpt lat="-3.1234640" lon="37.3748960">
    <ele>4032.7</ele>
    <time>2026-06-23T10:45:29Z</time>
   </trkpt>
   <trkpt lat="-3.1234720" lon="37.3748910">
    <ele>4032.5</ele>
    <time>2026-06-23T10:45:30Z</time>
   </trkpt>
   <trkpt lat="-3.1234800" lon="37.3748870">
    <ele>4032.2</ele>
    <time>2026-06-23T10:45:31Z</time>
   </trkpt>
   <trkpt lat="-3.1234850" lon="37.3748850">
    <ele>4032.1</ele>
    <time>2026-06-23T10:45:32Z</time>
   </trkpt>
   <trkpt lat="-3.1234910" lon="37.3748830">
    <ele>4031.9</ele>
    <time>2026-06-23T10:45:33Z</time>
   </trkpt>
   <trkpt lat="-3.1234990" lon="37.3748790">
    <ele>4031.7</ele>
    <time>2026-06-23T10:45:34Z</time>
   </trkpt>
   <trkpt lat="-3.1235040" lon="37.3748760">
    <ele>4031.6</ele>
    <time>2026-06-23T10:45:35Z</time>
   </trkpt>
   <trkpt lat="-3.1235130" lon="37.3748730">
    <ele>4031.3</ele>
    <time>2026-06-23T10:45:36Z</time>
   </trkpt>
   <trkpt lat="-3.1235170" lon="37.3748690">
    <ele>4031.2</ele>
    <time>2026-06-23T10:45:37Z</time>
   </trkpt>
   <trkpt lat="-3.1235230" lon="37.3748630">
    <ele>4031.0</ele>
    <time>2026-06-23T10:45:38Z</time>
   </trkpt>
   <trkpt lat="-3.1235270" lon="37.3748590">
    <ele>4030.8</ele>
    <time>2026-06-23T10:45:39Z</time>
   </trkpt>
   <trkpt lat="-3.1235320" lon="37.3748520">
    <ele>4030.6</ele>
    <time>2026-06-23T10:45:40Z</time>
   </trkpt>
   <trkpt lat="-3.1235400" lon="37.3748470">
    <ele>4030.4</ele>
    <time>2026-06-23T10:45:41Z</time>
   </trkpt>
   <trkpt lat="-3.1235440" lon="37.3748410">
    <ele>4030.2</ele>
    <time>2026-06-23T10:45:42Z</time>
   </trkpt>
   <trkpt lat="-3.1235500" lon="37.3748370">
    <ele>4030.0</ele>
    <time>2026-06-23T10:45:43Z</time>
   </trkpt>
   <trkpt lat="-3.1235560" lon="37.3748340">
    <ele>4029.9</ele>
    <time>2026-06-23T10:45:44Z</time>
   </trkpt>
   <trkpt lat="-3.1235630" lon="37.3748290">
    <ele>4029.7</ele>
    <time>2026-06-23T10:45:45Z</time>
   </trkpt>
   <trkpt lat="-3.1235680" lon="37.3748230">
    <ele>4029.5</ele>
    <time>2026-06-23T10:45:46Z</time>
   </trkpt>
   <trkpt lat="-3.1235720" lon="37.3748150">
    <ele>4029.3</ele>
    <time>2026-06-23T10:45:47Z</time>
   </trkpt>
   <trkpt lat="-3.1235760" lon="37.3748070">
    <ele>4029.1</ele>
    <time>2026-06-23T10:45:48Z</time>
   </trkpt>
   <trkpt lat="-3.1235810" lon="37.3748050">
    <ele>4029.0</ele>
    <time>2026-06-23T10:45:49Z</time>
   </trkpt>
   <trkpt lat="-3.1235820" lon="37.3748080">
    <ele>4028.9</ele>
    <time>2026-06-23T10:45:50Z</time>
   </trkpt>
   <trkpt lat="-3.1235900" lon="37.3748050">
    <ele>4028.7</ele>
    <time>2026-06-23T10:45:51Z</time>
   </trkpt>
   <trkpt lat="-3.1236000" lon="37.3747980">
    <ele>4028.4</ele>
    <time>2026-06-23T10:45:52Z</time>
   </trkpt>
   <trkpt lat="-3.1236060" lon="37.3747950">
    <ele>4028.3</ele>
    <time>2026-06-23T10:45:53Z</time>
   </trkpt>
   <trkpt lat="-3.1236070" lon="37.3747920">
    <ele>4028.2</ele>
    <time>2026-06-23T10:45:54Z</time>
   </trkpt>
   <trkpt lat="-3.1236130" lon="37.3747910">
    <ele>4028.1</ele>
    <time>2026-06-23T10:45:55Z</time>
   </trkpt>
   <trkpt lat="-3.1236220" lon="37.3747870">
    <ele>4027.8</ele>
    <time>2026-06-23T10:45:56Z</time>
   </trkpt>
   <trkpt lat="-3.1236260" lon="37.3747840">
    <ele>4027.7</ele>
    <time>2026-06-23T10:45:57Z</time>
   </trkpt>
   <trkpt lat="-3.1236330" lon="37.3747770">
    <ele>4027.5</ele>
    <time>2026-06-23T10:45:58Z</time>
   </trkpt>
   <trkpt lat="-3.1236380" lon="37.3747710">
    <ele>4027.3</ele>
    <time>2026-06-23T10:45:59Z</time>
   </trkpt>
   <trkpt lat="-3.1236450" lon="37.3747670">
    <ele>4027.1</ele>
    <time>2026-06-23T10:46:00Z</time>
   </trkpt>
   <trkpt lat="-3.1236520" lon="37.3747620">
    <ele>4026.9</ele>
    <time>2026-06-23T10:46:01Z</time>
   </trkpt>
   <trkpt lat="-3.1236600" lon="37.3747570">
    <ele>4026.7</ele>
    <time>2026-06-23T10:46:02Z</time>
   </trkpt>
   <trkpt lat="-3.1236690" lon="37.3747550">
    <ele>4026.5</ele>
    <time>2026-06-23T10:46:03Z</time>
   </trkpt>
   <trkpt lat="-3.1236760" lon="37.3747530">
    <ele>4026.4</ele>
    <time>2026-06-23T10:46:04Z</time>
   </trkpt>
   <trkpt lat="-3.1236820" lon="37.3747510">
    <ele>4026.2</ele>
    <time>2026-06-23T10:46:05Z</time>
   </trkpt>
   <trkpt lat="-3.1236920" lon="37.3747480">
    <ele>4026.0</ele>
    <time>2026-06-23T10:46:06Z</time>
   </trkpt>
   <trkpt lat="-3.1236980" lon="37.3747480">
    <ele>4025.8</ele>
    <time>2026-06-23T10:46:07Z</time>
   </trkpt>
   <trkpt lat="-3.1237040" lon="37.3747460">
    <ele>4025.7</ele>
    <time>2026-06-23T10:46:08Z</time>
   </trkpt>
   <trkpt lat="-3.1237100" lon="37.3747410">
    <ele>4025.5</ele>
    <time>2026-06-23T10:46:09Z</time>
   </trkpt>
   <trkpt lat="-3.1237180" lon="37.3747330">
    <ele>4025.3</ele>
    <time>2026-06-23T10:46:10Z</time>
   </trkpt>
   <trkpt lat="-3.1237220" lon="37.3747250">
    <ele>4025.1</ele>
    <time>2026-06-23T10:46:11Z</time>
   </trkpt>
   <trkpt lat="-3.1237260" lon="37.3747170">
    <ele>4024.9</ele>
    <time>2026-06-23T10:46:12Z</time>
   </trkpt>
   <trkpt lat="-3.1237290" lon="37.3747070">
    <ele>4024.6</ele>
    <time>2026-06-23T10:46:13Z</time>
   </trkpt>
   <trkpt lat="-3.1237310" lon="37.3747030">
    <ele>4024.5</ele>
    <time>2026-06-23T10:46:14Z</time>
   </trkpt>
   <trkpt lat="-3.1237370" lon="37.3746970">
    <ele>4024.3</ele>
    <time>2026-06-23T10:46:15Z</time>
   </trkpt>
   <trkpt lat="-3.1237410" lon="37.3746920">
    <ele>4024.2</ele>
    <time>2026-06-23T10:46:16Z</time>
   </trkpt>
   <trkpt lat="-3.1237450" lon="37.3746890">
    <ele>4024.1</ele>
    <time>2026-06-23T10:46:17Z</time>
   </trkpt>
   <trkpt lat="-3.1237510" lon="37.3746850">
    <ele>4023.9</ele>
    <time>2026-06-23T10:46:18Z</time>
   </trkpt>
   <trkpt lat="-3.1237530" lon="37.3746810">
    <ele>4023.8</ele>
    <time>2026-06-23T10:46:19Z</time>
   </trkpt>
   <trkpt lat="-3.1237570" lon="37.3746750">
    <ele>4023.6</ele>
    <time>2026-06-23T10:46:20Z</time>
   </trkpt>
   <trkpt lat="-3.1237600" lon="37.3746680">
    <ele>4023.5</ele>
    <time>2026-06-23T10:46:21Z</time>
   </trkpt>
   <trkpt lat="-3.1237650" lon="37.3746630">
    <ele>4023.3</ele>
    <time>2026-06-23T10:46:22Z</time>
   </trkpt>
   <trkpt lat="-3.1237710" lon="37.3746580">
    <ele>4023.1</ele>
    <time>2026-06-23T10:46:23Z</time>
   </trkpt>
   <trkpt lat="-3.1237750" lon="37.3746520">
    <ele>4022.9</ele>
    <time>2026-06-23T10:46:24Z</time>
   </trkpt>
   <trkpt lat="-3.1237800" lon="37.3746470">
    <ele>4022.8</ele>
    <time>2026-06-23T10:46:25Z</time>
   </trkpt>
   <trkpt lat="-3.1237820" lon="37.3746460">
    <ele>4022.7</ele>
    <time>2026-06-23T10:46:26Z</time>
   </trkpt>
   <trkpt lat="-3.1237880" lon="37.3746450">
    <ele>4022.6</ele>
    <time>2026-06-23T10:46:27Z</time>
   </trkpt>
   <trkpt lat="-3.1237950" lon="37.3746450">
    <ele>4022.4</ele>
    <time>2026-06-23T10:46:28Z</time>
   </trkpt>
   <trkpt lat="-3.1238010" lon="37.3746430">
    <ele>4022.3</ele>
    <time>2026-06-23T10:46:29Z</time>
   </trkpt>
   <trkpt lat="-3.1238060" lon="37.3746390">
    <ele>4022.1</ele>
    <time>2026-06-23T10:46:30Z</time>
   </trkpt>
   <trkpt lat="-3.1238080" lon="37.3746340">
    <ele>4022.0</ele>
    <time>2026-06-23T10:46:31Z</time>
   </trkpt>
   <trkpt lat="-3.1238150" lon="37.3746310">
    <ele>4021.8</ele>
    <time>2026-06-23T10:46:32Z</time>
   </trkpt>
   <trkpt lat="-3.1238210" lon="37.3746260">
    <ele>4021.7</ele>
    <time>2026-06-23T10:46:33Z</time>
   </trkpt>
   <trkpt lat="-3.1238270" lon="37.3746220">
    <ele>4021.5</ele>
    <time>2026-06-23T10:46:34Z</time>
   </trkpt>
   <trkpt lat="-3.1238310" lon="37.3746170">
    <ele>4021.3</ele>
    <time>2026-06-23T10:46:35Z</time>
   </trkpt>
   <trkpt lat="-3.1238350" lon="37.3746140">
    <ele>4021.2</ele>
    <time>2026-06-23T10:46:36Z</time>
   </trkpt>
   <trkpt lat="-3.1238430" lon="37.3746110">
    <ele>4021.0</ele>
    <time>2026-06-23T10:46:37Z</time>
   </trkpt>
   <trkpt lat="-3.1238520" lon="37.3746080">
    <ele>4020.8</ele>
    <time>2026-06-23T10:46:38Z</time>
   </trkpt>
   <trkpt lat="-3.1238550" lon="37.3746020">
    <ele>4020.7</ele>
    <time>2026-06-23T10:46:39Z</time>
   </trkpt>
   <trkpt lat="-3.1238560" lon="37.3745950">
    <ele>4020.5</ele>
    <time>2026-06-23T10:46:40Z</time>
   </trkpt>
   <trkpt lat="-3.1238610" lon="37.3745890">
    <ele>4020.3</ele>
    <time>2026-06-23T10:46:41Z</time>
   </trkpt>
   <trkpt lat="-3.1238660" lon="37.3745840">
    <ele>4020.2</ele>
    <time>2026-06-23T10:46:42Z</time>
   </trkpt>
   <trkpt lat="-3.1238710" lon="37.3745830">
    <ele>4020.0</ele>
    <time>2026-06-23T10:46:43Z</time>
   </trkpt>
   <trkpt lat="-3.1238780" lon="37.3745800">
    <ele>4019.9</ele>
    <time>2026-06-23T10:46:44Z</time>
   </trkpt>
   <trkpt lat="-3.1238840" lon="37.3745780">
    <ele>4019.7</ele>
    <time>2026-06-23T10:46:45Z</time>
   </trkpt>
   <trkpt lat="-3.1238910" lon="37.3745740">
    <ele>4019.5</ele>
    <time>2026-06-23T10:46:46Z</time>
   </trkpt>
   <trkpt lat="-3.1238930" lon="37.3745700">
    <ele>4019.4</ele>
    <time>2026-06-23T10:46:47Z</time>
   </trkpt>
   <trkpt lat="-3.1239000" lon="37.3745650">
    <ele>4019.3</ele>
    <time>2026-06-23T10:46:48Z</time>
   </trkpt>
   <trkpt lat="-3.1239040" lon="37.3745600">
    <ele>4019.1</ele>
    <time>2026-06-23T10:46:49Z</time>
   </trkpt>
   <trkpt lat="-3.1239080" lon="37.3745540">
    <ele>4019.0</ele>
    <time>2026-06-23T10:46:50Z</time>
   </trkpt>
   <trkpt lat="-3.1239140" lon="37.3745500">
    <ele>4018.8</ele>
    <time>2026-06-23T10:46:51Z</time>
   </trkpt>
   <trkpt lat="-3.1239200" lon="37.3745450">
    <ele>4018.6</ele>
    <time>2026-06-23T10:46:52Z</time>
   </trkpt>
   <trkpt lat="-3.1239280" lon="37.3745390">
    <ele>4018.4</ele>
    <time>2026-06-23T10:46:53Z</time>
   </trkpt>
   <trkpt lat="-3.1239330" lon="37.3745340">
    <ele>4018.3</ele>
    <time>2026-06-23T10:46:54Z</time>
   </trkpt>
   <trkpt lat="-3.1239380" lon="37.3745310">
    <ele>4018.2</ele>
    <time>2026-06-23T10:46:55Z</time>
   </trkpt>
   <trkpt lat="-3.1239450" lon="37.3745270">
    <ele>4018.0</ele>
    <time>2026-06-23T10:46:56Z</time>
   </trkpt>
   <trkpt lat="-3.1239510" lon="37.3745240">
    <ele>4017.9</ele>
    <time>2026-06-23T10:46:57Z</time>
   </trkpt>
   <trkpt lat="-3.1239560" lon="37.3745180">
    <ele>4017.7</ele>
    <time>2026-06-23T10:46:58Z</time>
   </trkpt>
   <trkpt lat="-3.1239620" lon="37.3745120">
    <ele>4017.5</ele>
    <time>2026-06-23T10:46:59Z</time>
   </trkpt>
   <trkpt lat="-3.1239660" lon="37.3745070">
    <ele>4017.4</ele>
    <time>2026-06-23T10:47:00Z</time>
   </trkpt>
   <trkpt lat="-3.1239690" lon="37.3745030">
    <ele>4017.3</ele>
    <time>2026-06-23T10:47:01Z</time>
   </trkpt>
   <trkpt lat="-3.1239760" lon="37.3745000">
    <ele>4017.2</ele>
    <time>2026-06-23T10:47:02Z</time>
   </trkpt>
   <trkpt lat="-3.1239830" lon="37.3744970">
    <ele>4017.0</ele>
    <time>2026-06-23T10:47:03Z</time>
   </trkpt>
   <trkpt lat="-3.1239900" lon="37.3744950">
    <ele>4016.9</ele>
    <time>2026-06-23T10:47:04Z</time>
   </trkpt>
   <trkpt lat="-3.1239990" lon="37.3744890">
    <ele>4016.6</ele>
    <time>2026-06-23T10:47:05Z</time>
   </trkpt>
   <trkpt lat="-3.1240040" lon="37.3744820">
    <ele>4016.5</ele>
    <time>2026-06-23T10:47:06Z</time>
   </trkpt>
   <trkpt lat="-3.1240090" lon="37.3744720">
    <ele>4016.2</ele>
    <time>2026-06-23T10:47:07Z</time>
   </trkpt>
   <trkpt lat="-3.1240160" lon="37.3744640">
    <ele>4016.0</ele>
    <time>2026-06-23T10:47:08Z</time>
   </trkpt>
   <trkpt lat="-3.1240150" lon="37.3744540">
    <ele>4015.8</ele>
    <time>2026-06-23T10:47:09Z</time>
   </trkpt>
   <trkpt lat="-3.1240200" lon="37.3744510">
    <ele>4015.7</ele>
    <time>2026-06-23T10:47:10Z</time>
   </trkpt>
   <trkpt lat="-3.1240290" lon="37.3744510">
    <ele>4015.5</ele>
    <time>2026-06-23T10:47:11Z</time>
   </trkpt>
   <trkpt lat="-3.1240360" lon="37.3744490">
    <ele>4015.4</ele>
    <time>2026-06-23T10:47:12Z</time>
   </trkpt>
   <trkpt lat="-3.1240460" lon="37.3744470">
    <ele>4015.2</ele>
    <time>2026-06-23T10:47:13Z</time>
   </trkpt>
   <trkpt lat="-3.1240530" lon="37.3744460">
    <ele>4015.0</ele>
    <time>2026-06-23T10:47:14Z</time>
   </trkpt>
   <trkpt lat="-3.1240620" lon="37.3744420">
    <ele>4014.8</ele>
    <time>2026-06-23T10:47:15Z</time>
   </trkpt>
   <trkpt lat="-3.1240670" lon="37.3744380">
    <ele>4014.7</ele>
    <time>2026-06-23T10:47:16Z</time>
   </trkpt>
   <trkpt lat="-3.1240730" lon="37.3744320">
    <ele>4014.5</ele>
    <time>2026-06-23T10:47:17Z</time>
   </trkpt>
   <trkpt lat="-3.1240760" lon="37.3744310">
    <ele>4014.4</ele>
    <time>2026-06-23T10:47:18Z</time>
   </trkpt>
   <trkpt lat="-3.1240840" lon="37.3744300">
    <ele>4014.2</ele>
    <time>2026-06-23T10:47:19Z</time>
   </trkpt>
   <trkpt lat="-3.1240850" lon="37.3744270">
    <ele>4014.2</ele>
    <time>2026-06-23T10:47:20Z</time>
   </trkpt>
   <trkpt lat="-3.1240900" lon="37.3744210">
    <ele>4014.0</ele>
    <time>2026-06-23T10:47:21Z</time>
   </trkpt>
   <trkpt lat="-3.1240970" lon="37.3744180">
    <ele>4013.8</ele>
    <time>2026-06-23T10:47:22Z</time>
   </trkpt>
   <trkpt lat="-3.1241040" lon="37.3744160">
    <ele>4013.7</ele>
    <time>2026-06-23T10:47:23Z</time>
   </trkpt>
   <trkpt lat="-3.1241090" lon="37.3744130">
    <ele>4013.6</ele>
    <time>2026-06-23T10:47:24Z</time>
   </trkpt>
   <trkpt lat="-3.1241140" lon="37.3744110">
    <ele>4013.4</ele>
    <time>2026-06-23T10:47:25Z</time>
   </trkpt>
   <trkpt lat="-3.1241220" lon="37.3744060">
    <ele>4013.2</ele>
    <time>2026-06-23T10:47:26Z</time>
   </trkpt>
   <trkpt lat="-3.1241290" lon="37.3744020">
    <ele>4013.1</ele>
    <time>2026-06-23T10:47:27Z</time>
   </trkpt>
   <trkpt lat="-3.1241350" lon="37.3743990">
    <ele>4012.9</ele>
    <time>2026-06-23T10:47:28Z</time>
   </trkpt>
   <trkpt lat="-3.1241410" lon="37.3743950">
    <ele>4012.8</ele>
    <time>2026-06-23T10:47:29Z</time>
   </trkpt>
   <trkpt lat="-3.1241450" lon="37.3743910">
    <ele>4012.6</ele>
    <time>2026-06-23T10:47:30Z</time>
   </trkpt>
   <trkpt lat="-3.1241470" lon="37.3743840">
    <ele>4012.5</ele>
    <time>2026-06-23T10:47:31Z</time>
   </trkpt>
   <trkpt lat="-3.1241490" lon="37.3743800">
    <ele>4012.4</ele>
    <time>2026-06-23T10:47:32Z</time>
   </trkpt>
   <trkpt lat="-3.1241490" lon="37.3743790">
    <ele>4012.4</ele>
    <time>2026-06-23T10:47:33Z</time>
   </trkpt>
   <trkpt lat="-3.1241470" lon="37.3743800">
    <ele>4012.3</ele>
    <time>2026-06-23T10:47:34Z</time>
   </trkpt>
   <trkpt lat="-3.1241470" lon="37.3743790">
    <ele>4012.3</ele>
    <time>2026-06-23T10:47:35Z</time>
   </trkpt>
   <trkpt lat="-3.1241490" lon="37.3743760">
    <ele>4012.2</ele>
    <time>2026-06-23T10:47:36Z</time>
   </trkpt>
   <trkpt lat="-3.1241550" lon="37.3743720">
    <ele>4012.0</ele>
    <time>2026-06-23T10:47:37Z</time>
   </trkpt>
   <trkpt lat="-3.1241600" lon="37.3743630">
    <ele>4011.8</ele>
    <time>2026-06-23T10:47:38Z</time>
   </trkpt>
   <trkpt lat="-3.1241620" lon="37.3743570">
    <ele>4011.7</ele>
    <time>2026-06-23T10:47:39Z</time>
   </trkpt>
   <trkpt lat="-3.1241650" lon="37.3743510">
    <ele>4011.5</ele>
    <time>2026-06-23T10:47:40Z</time>
   </trkpt>
   <trkpt lat="-3.1241720" lon="37.3743470">
    <ele>4011.4</ele>
    <time>2026-06-23T10:47:41Z</time>
   </trkpt>
   <trkpt lat="-3.1241790" lon="37.3743460">
    <ele>4011.2</ele>
    <time>2026-06-23T10:47:42Z</time>
   </trkpt>
   <trkpt lat="-3.1241870" lon="37.3743410">
    <ele>4011.0</ele>
    <time>2026-06-23T10:47:43Z</time>
   </trkpt>
   <trkpt lat="-3.1241960" lon="37.3743380">
    <ele>4010.8</ele>
    <time>2026-06-23T10:47:44Z</time>
   </trkpt>
   <trkpt lat="-3.1242050" lon="37.3743360">
    <ele>4010.6</ele>
    <time>2026-06-23T10:47:45Z</time>
   </trkpt>
   <trkpt lat="-3.1242110" lon="37.3743340">
    <ele>4010.5</ele>
    <time>2026-06-23T10:47:46Z</time>
   </trkpt>
   <trkpt lat="-3.1242180" lon="37.3743320">
    <ele>4010.3</ele>
    <time>2026-06-23T10:47:47Z</time>
   </trkpt>
   <trkpt lat="-3.1242220" lon="37.3743290">
    <ele>4010.2</ele>
    <time>2026-06-23T10:47:48Z</time>
   </trkpt>
   <trkpt lat="-3.1242260" lon="37.3743240">
    <ele>4010.1</ele>
    <time>2026-06-23T10:47:49Z</time>
   </trkpt>
   <trkpt lat="-3.1242320" lon="37.3743180">
    <ele>4009.9</ele>
    <time>2026-06-23T10:47:50Z</time>
   </trkpt>
   <trkpt lat="-3.1242380" lon="37.3743110">
    <ele>4009.7</ele>
    <time>2026-06-23T10:47:51Z</time>
   </trkpt>
   <trkpt lat="-3.1242440" lon="37.3743060">
    <ele>4009.5</ele>
    <time>2026-06-23T10:47:52Z</time>
   </trkpt>
   <trkpt lat="-3.1242500" lon="37.3743000">
    <ele>4009.3</ele>
    <time>2026-06-23T10:47:53Z</time>
   </trkpt>
   <trkpt lat="-3.1242620" lon="37.3742910">
    <ele>4009.0</ele>
    <time>2026-06-23T10:47:54Z</time>
   </trkpt>
   <trkpt lat="-3.1242680" lon="37.3742890">
    <ele>4008.9</ele>
    <time>2026-06-23T10:47:55Z</time>
   </trkpt>
   <trkpt lat="-3.1242740" lon="37.3742840">
    <ele>4008.7</ele>
    <time>2026-06-23T10:47:56Z</time>
   </trkpt>
   <trkpt lat="-3.1242810" lon="37.3742790">
    <ele>4008.5</ele>
    <time>2026-06-23T10:47:57Z</time>
   </trkpt>
   <trkpt lat="-3.1242910" lon="37.3742730">
    <ele>4008.3</ele>
    <time>2026-06-23T10:47:58Z</time>
   </trkpt>
   <trkpt lat="-3.1242980" lon="37.3742690">
    <ele>4008.1</ele>
    <time>2026-06-23T10:47:59Z</time>
   </trkpt>
   <trkpt lat="-3.1243040" lon="37.3742630">
    <ele>4007.9</ele>
    <time>2026-06-23T10:48:00Z</time>
   </trkpt>
   <trkpt lat="-3.1243070" lon="37.3742590">
    <ele>4007.8</ele>
    <time>2026-06-23T10:48:01Z</time>
   </trkpt>
   <trkpt lat="-3.1243130" lon="37.3742560">
    <ele>4007.7</ele>
    <time>2026-06-23T10:48:02Z</time>
   </trkpt>
   <trkpt lat="-3.1243210" lon="37.3742510">
    <ele>4007.5</ele>
    <time>2026-06-23T10:48:03Z</time>
   </trkpt>
   <trkpt lat="-3.1243290" lon="37.3742470">
    <ele>4007.3</ele>
    <time>2026-06-23T10:48:04Z</time>
   </trkpt>
   <trkpt lat="-3.1243370" lon="37.3742440">
    <ele>4007.1</ele>
    <time>2026-06-23T10:48:05Z</time>
   </trkpt>
   <trkpt lat="-3.1243440" lon="37.3742390">
    <ele>4006.9</ele>
    <time>2026-06-23T10:48:06Z</time>
   </trkpt>
   <trkpt lat="-3.1243470" lon="37.3742340">
    <ele>4006.8</ele>
    <time>2026-06-23T10:48:07Z</time>
   </trkpt>
   <trkpt lat="-3.1243510" lon="37.3742280">
    <ele>4006.7</ele>
    <time>2026-06-23T10:48:08Z</time>
   </trkpt>
   <trkpt lat="-3.1243570" lon="37.3742210">
    <ele>4006.5</ele>
    <time>2026-06-23T10:48:09Z</time>
   </trkpt>
   <trkpt lat="-3.1243600" lon="37.3742140">
    <ele>4006.3</ele>
    <time>2026-06-23T10:48:10Z</time>
   </trkpt>
   <trkpt lat="-3.1243660" lon="37.3742070">
    <ele>4006.1</ele>
    <time>2026-06-23T10:48:11Z</time>
   </trkpt>
   <trkpt lat="-3.1243700" lon="37.3742040">
    <ele>4006.0</ele>
    <time>2026-06-23T10:48:12Z</time>
   </trkpt>
   <trkpt lat="-3.1243760" lon="37.3742000">
    <ele>4005.9</ele>
    <time>2026-06-23T10:48:13Z</time>
   </trkpt>
   <trkpt lat="-3.1243820" lon="37.3741940">
    <ele>4005.7</ele>
    <time>2026-06-23T10:48:14Z</time>
   </trkpt>
   <trkpt lat="-3.1243860" lon="37.3741870">
    <ele>4005.5</ele>
    <time>2026-06-23T10:48:15Z</time>
   </trkpt>
   <trkpt lat="-3.1243920" lon="37.3741820">
    <ele>4005.4</ele>
    <time>2026-06-23T10:48:16Z</time>
   </trkpt>
   <trkpt lat="-3.1243990" lon="37.3741780">
    <ele>4005.2</ele>
    <time>2026-06-23T10:48:17Z</time>
   </trkpt>
   <trkpt lat="-3.1244040" lon="37.3741780">
    <ele>4005.1</ele>
    <time>2026-06-23T10:48:18Z</time>
   </trkpt>
   <trkpt lat="-3.1244100" lon="37.3741790">
    <ele>4005.0</ele>
    <time>2026-06-23T10:48:19Z</time>
   </trkpt>
   <trkpt lat="-3.1244180" lon="37.3741790">
    <ele>4004.8</ele>
    <time>2026-06-23T10:48:20Z</time>
   </trkpt>
   <trkpt lat="-3.1244250" lon="37.3741790">
    <ele>4004.7</ele>
    <time>2026-06-23T10:48:21Z</time>
   </trkpt>
   <trkpt lat="-3.1244310" lon="37.3741790">
    <ele>4004.6</ele>
    <time>2026-06-23T10:48:22Z</time>
   </trkpt>
   <trkpt lat="-3.1244330" lon="37.3741780">
    <ele>4004.5</ele>
    <time>2026-06-23T10:48:23Z</time>
   </trkpt>
   <trkpt lat="-3.1244320" lon="37.3741770">
    <ele>4004.5</ele>
    <time>2026-06-23T10:48:24Z</time>
   </trkpt>
   <trkpt lat="-3.1244390" lon="37.3741780">
    <ele>4004.3</ele>
    <time>2026-06-23T10:48:25Z</time>
   </trkpt>
   <trkpt lat="-3.1244480" lon="37.3741750">
    <ele>4004.2</ele>
    <time>2026-06-23T10:48:26Z</time>
   </trkpt>
   <trkpt lat="-3.1244600" lon="37.3741700">
    <ele>4003.9</ele>
    <time>2026-06-23T10:48:27Z</time>
   </trkpt>
   <trkpt lat="-3.1244650" lon="37.3741650">
    <ele>4003.8</ele>
    <time>2026-06-23T10:48:28Z</time>
   </trkpt>
   <trkpt lat="-3.1244730" lon="37.3741580">
    <ele>4003.6</ele>
    <time>2026-06-23T10:48:29Z</time>
   </trkpt>
   <trkpt lat="-3.1244780" lon="37.3741520">
    <ele>4003.4</ele>
    <time>2026-06-23T10:48:30Z</time>
   </trkpt>
   <trkpt lat="-3.1244850" lon="37.3741430">
    <ele>4003.2</ele>
    <time>2026-06-23T10:48:31Z</time>
   </trkpt>
   <trkpt lat="-3.1244900" lon="37.3741370">
    <ele>4003.1</ele>
    <time>2026-06-23T10:48:32Z</time>
   </trkpt>
   <trkpt lat="-3.1244940" lon="37.3741320">
    <ele>4002.9</ele>
    <time>2026-06-23T10:48:33Z</time>
   </trkpt>
   <trkpt lat="-3.1245030" lon="37.3741250">
    <ele>4002.7</ele>
    <time>2026-06-23T10:48:34Z</time>
   </trkpt>
   <trkpt lat="-3.1245120" lon="37.3741210">
    <ele>4002.5</ele>
    <time>2026-06-23T10:48:35Z</time>
   </trkpt>
   <trkpt lat="-3.1245160" lon="37.3741160">
    <ele>4002.4</ele>
    <time>2026-06-23T10:48:36Z</time>
   </trkpt>
   <trkpt lat="-3.1245200" lon="37.3741090">
    <ele>4002.3</ele>
    <time>2026-06-23T10:48:37Z</time>
   </trkpt>
   <trkpt lat="-3.1245270" lon="37.3741050">
    <ele>4002.1</ele>
    <time>2026-06-23T10:48:38Z</time>
   </trkpt>
   <trkpt lat="-3.1245350" lon="37.3741010">
    <ele>4002.0</ele>
    <time>2026-06-23T10:48:39Z</time>
   </trkpt>
   <trkpt lat="-3.1245430" lon="37.3740960">
    <ele>4001.8</ele>
    <time>2026-06-23T10:48:40Z</time>
   </trkpt>
   <trkpt lat="-3.1245490" lon="37.3740920">
    <ele>4001.7</ele>
    <time>2026-06-23T10:48:41Z</time>
   </trkpt>
   <trkpt lat="-3.1245560" lon="37.3740880">
    <ele>4001.5</ele>
    <time>2026-06-23T10:48:42Z</time>
   </trkpt>
   <trkpt lat="-3.1245630" lon="37.3740840">
    <ele>4001.4</ele>
    <time>2026-06-23T10:48:43Z</time>
   </trkpt>
   <trkpt lat="-3.1245650" lon="37.3740800">
    <ele>4001.3</ele>
    <time>2026-06-23T10:48:44Z</time>
   </trkpt>
   <trkpt lat="-3.1245700" lon="37.3740750">
    <ele>4001.2</ele>
    <time>2026-06-23T10:48:45Z</time>
   </trkpt>
   <trkpt lat="-3.1245770" lon="37.3740700">
    <ele>4001.0</ele>
    <time>2026-06-23T10:48:46Z</time>
   </trkpt>
   <trkpt lat="-3.1245840" lon="37.3740650">
    <ele>4000.9</ele>
    <time>2026-06-23T10:48:47Z</time>
   </trkpt>
   <trkpt lat="-3.1245870" lon="37.3740610">
    <ele>4000.8</ele>
    <time>2026-06-23T10:48:48Z</time>
   </trkpt>
   <trkpt lat="-3.1245920" lon="37.3740590">
    <ele>4000.7</ele>
    <time>2026-06-23T10:48:49Z</time>
   </trkpt>
   <trkpt lat="-3.1245960" lon="37.3740550">
    <ele>4000.6</ele>
    <time>2026-06-23T10:48:50Z</time>
   </trkpt>
   <trkpt lat="-3.1246050" lon="37.3740500">
    <ele>4000.4</ele>
    <time>2026-06-23T10:48:51Z</time>
   </trkpt>
   <trkpt lat="-3.1246120" lon="37.3740470">
    <ele>4000.3</ele>
    <time>2026-06-23T10:48:52Z</time>
   </trkpt>
   <trkpt lat="-3.1246160" lon="37.3740470">
    <ele>4000.3</ele>
    <time>2026-06-23T10:48:53Z</time>
   </trkpt>
   <trkpt lat="-3.1246210" lon="37.3740450">
    <ele>4000.2</ele>
    <time>2026-06-23T10:48:54Z</time>
   </trkpt>
   <trkpt lat="-3.1246280" lon="37.3740410">
    <ele>4000.1</ele>
    <time>2026-06-23T10:48:55Z</time>
   </trkpt>
   <trkpt lat="-3.1246340" lon="37.3740380">
    <ele>3999.9</ele>
    <time>2026-06-23T10:48:56Z</time>
   </trkpt>
   <trkpt lat="-3.1246370" lon="37.3740330">
    <ele>3999.9</ele>
    <time>2026-06-23T10:48:57Z</time>
   </trkpt>
   <trkpt lat="-3.1246400" lon="37.3740290">
    <ele>3999.8</ele>
    <time>2026-06-23T10:48:58Z</time>
   </trkpt>
   <trkpt lat="-3.1246460" lon="37.3740260">
    <ele>3999.7</ele>
    <time>2026-06-23T10:48:59Z</time>
   </trkpt>
   <trkpt lat="-3.1246540" lon="37.3740220">
    <ele>3999.5</ele>
    <time>2026-06-23T10:49:00Z</time>
   </trkpt>
   <trkpt lat="-3.1246600" lon="37.3740210">
    <ele>3999.5</ele>
    <time>2026-06-23T10:49:01Z</time>
   </trkpt>
   <trkpt lat="-3.1246680" lon="37.3740210">
    <ele>3999.3</ele>
    <time>2026-06-23T10:49:02Z</time>
   </trkpt>
   <trkpt lat="-3.1246740" lon="37.3740190">
    <ele>3999.2</ele>
    <time>2026-06-23T10:49:03Z</time>
   </trkpt>
   <trkpt lat="-3.1246800" lon="37.3740190">
    <ele>3999.2</ele>
    <time>2026-06-23T10:49:04Z</time>
   </trkpt>
   <trkpt lat="-3.1246870" lon="37.3740160">
    <ele>3999.0</ele>
    <time>2026-06-23T10:49:05Z</time>
   </trkpt>
   <trkpt lat="-3.1246930" lon="37.3740130">
    <ele>3998.9</ele>
    <time>2026-06-23T10:49:06Z</time>
   </trkpt>
   <trkpt lat="-3.1246950" lon="37.3740100">
    <ele>3998.9</ele>
    <time>2026-06-23T10:49:07Z</time>
   </trkpt>
   <trkpt lat="-3.1247010" lon="37.3740040">
    <ele>3998.8</ele>
    <time>2026-06-23T10:49:08Z</time>
   </trkpt>
   <trkpt lat="-3.1247050" lon="37.3739990">
    <ele>3998.7</ele>
    <time>2026-06-23T10:49:09Z</time>
   </trkpt>
   <trkpt lat="-3.1247070" lon="37.3739950">
    <ele>3998.6</ele>
    <time>2026-06-23T10:49:10Z</time>
   </trkpt>
   <trkpt lat="-3.1247110" lon="37.3739890">
    <ele>3998.5</ele>
    <time>2026-06-23T10:49:11Z</time>
   </trkpt>
   <trkpt lat="-3.1247170" lon="37.3739820">
    <ele>3998.3</ele>
    <time>2026-06-23T10:49:12Z</time>
   </trkpt>
   <trkpt lat="-3.1247240" lon="37.3739750">
    <ele>3998.2</ele>
    <time>2026-06-23T10:49:13Z</time>
   </trkpt>
   <trkpt lat="-3.1247290" lon="37.3739700">
    <ele>3998.1</ele>
    <time>2026-06-23T10:49:14Z</time>
   </trkpt>
   <trkpt lat="-3.1247360" lon="37.3739650">
    <ele>3997.9</ele>
    <time>2026-06-23T10:49:15Z</time>
   </trkpt>
   <trkpt lat="-3.1247450" lon="37.3739580">
    <ele>3997.8</ele>
    <time>2026-06-23T10:49:16Z</time>
   </trkpt>
   <trkpt lat="-3.1247510" lon="37.3739520">
    <ele>3997.6</ele>
    <time>2026-06-23T10:49:17Z</time>
   </trkpt>
   <trkpt lat="-3.1247580" lon="37.3739490">
    <ele>3997.5</ele>
    <time>2026-06-23T10:49:18Z</time>
   </trkpt>
   <trkpt lat="-3.1247630" lon="37.3739480">
    <ele>3997.4</ele>
    <time>2026-06-23T10:49:19Z</time>
   </trkpt>
   <trkpt lat="-3.1247690" lon="37.3739440">
    <ele>3997.3</ele>
    <time>2026-06-23T10:49:20Z</time>
   </trkpt>
   <trkpt lat="-3.1247760" lon="37.3739400">
    <ele>3997.2</ele>
    <time>2026-06-23T10:49:21Z</time>
   </trkpt>
   <trkpt lat="-3.1247820" lon="37.3739340">
    <ele>3997.1</ele>
    <time>2026-06-23T10:49:22Z</time>
   </trkpt>
   <trkpt lat="-3.1247880" lon="37.3739280">
    <ele>3996.9</ele>
    <time>2026-06-23T10:49:23Z</time>
   </trkpt>
   <trkpt lat="-3.1247910" lon="37.3739220">
    <ele>3996.8</ele>
    <time>2026-06-23T10:49:24Z</time>
   </trkpt>
   <trkpt lat="-3.1247950" lon="37.3739120">
    <ele>3996.6</ele>
    <time>2026-06-23T10:49:25Z</time>
   </trkpt>
   <trkpt lat="-3.1247990" lon="37.3739060">
    <ele>3996.5</ele>
    <time>2026-06-23T10:49:26Z</time>
   </trkpt>
   <trkpt lat="-3.1248050" lon="37.3739030">
    <ele>3996.4</ele>
    <time>2026-06-23T10:49:27Z</time>
   </trkpt>
   <trkpt lat="-3.1248150" lon="37.3738980">
    <ele>3996.2</ele>
    <time>2026-06-23T10:49:28Z</time>
   </trkpt>
   <trkpt lat="-3.1248250" lon="37.3738920">
    <ele>3996.0</ele>
    <time>2026-06-23T10:49:29Z</time>
   </trkpt>
   <trkpt lat="-3.1248300" lon="37.3738880">
    <ele>3995.9</ele>
    <time>2026-06-23T10:49:30Z</time>
   </trkpt>
   <trkpt lat="-3.1248320" lon="37.3738830">
    <ele>3995.8</ele>
    <time>2026-06-23T10:49:31Z</time>
   </trkpt>
   <trkpt lat="-3.1248370" lon="37.3738780">
    <ele>3995.7</ele>
    <time>2026-06-23T10:49:32Z</time>
   </trkpt>
   <trkpt lat="-3.1248430" lon="37.3738730">
    <ele>3995.5</ele>
    <time>2026-06-23T10:49:33Z</time>
   </trkpt>
   <trkpt lat="-3.1248490" lon="37.3738700">
    <ele>3995.4</ele>
    <time>2026-06-23T10:49:34Z</time>
   </trkpt>
   <trkpt lat="-3.1248550" lon="37.3738680">
    <ele>3995.3</ele>
    <time>2026-06-23T10:49:35Z</time>
   </trkpt>
   <trkpt lat="-3.1248620" lon="37.3738650">
    <ele>3995.2</ele>
    <time>2026-06-23T10:49:36Z</time>
   </trkpt>
   <trkpt lat="-3.1248690" lon="37.3738630">
    <ele>3995.0</ele>
    <time>2026-06-23T10:49:37Z</time>
   </trkpt>
   <trkpt lat="-3.1248730" lon="37.3738620">
    <ele>3995.0</ele>
    <time>2026-06-23T10:49:38Z</time>
   </trkpt>
   <trkpt lat="-3.1248790" lon="37.3738600">
    <ele>3994.9</ele>
    <time>2026-06-23T10:49:39Z</time>
   </trkpt>
   <trkpt lat="-3.1248850" lon="37.3738570">
    <ele>3994.7</ele>
    <time>2026-06-23T10:49:40Z</time>
   </trkpt>
   <trkpt lat="-3.1248910" lon="37.3738540">
    <ele>3994.6</ele>
    <time>2026-06-23T10:49:41Z</time>
   </trkpt>
   <trkpt lat="-3.1248970" lon="37.3738500">
    <ele>3994.5</ele>
    <time>2026-06-23T10:49:42Z</time>
   </trkpt>
   <trkpt lat="-3.1249040" lon="37.3738470">
    <ele>3994.3</ele>
    <time>2026-06-23T10:49:43Z</time>
   </trkpt>
   <trkpt lat="-3.1249100" lon="37.3738430">
    <ele>3994.2</ele>
    <time>2026-06-23T10:49:44Z</time>
   </trkpt>
   <trkpt lat="-3.1249140" lon="37.3738390">
    <ele>3994.1</ele>
    <time>2026-06-23T10:49:45Z</time>
   </trkpt>
   <trkpt lat="-3.1249220" lon="37.3738360">
    <ele>3993.9</ele>
    <time>2026-06-23T10:49:46Z</time>
   </trkpt>
   <trkpt lat="-3.1249310" lon="37.3738330">
    <ele>3993.8</ele>
    <time>2026-06-23T10:49:47Z</time>
   </trkpt>
   <trkpt lat="-3.1249410" lon="37.3738280">
    <ele>3993.5</ele>
    <time>2026-06-23T10:49:48Z</time>
   </trkpt>
   <trkpt lat="-3.1249470" lon="37.3738260">
    <ele>3993.4</ele>
    <time>2026-06-23T10:49:49Z</time>
   </trkpt>
   <trkpt lat="-3.1249500" lon="37.3738250">
    <ele>3993.4</ele>
    <time>2026-06-23T10:49:50Z</time>
   </trkpt>
   <trkpt lat="-3.1249540" lon="37.3738220">
    <ele>3993.3</ele>
    <time>2026-06-23T10:49:51Z</time>
   </trkpt>
   <trkpt lat="-3.1249580" lon="37.3738160">
    <ele>3993.1</ele>
    <time>2026-06-23T10:49:52Z</time>
   </trkpt>
   <trkpt lat="-3.1249620" lon="37.3738070">
    <ele>3993.0</ele>
    <time>2026-06-23T10:49:53Z</time>
   </trkpt>
   <trkpt lat="-3.1249670" lon="37.3738020">
    <ele>3992.8</ele>
    <time>2026-06-23T10:49:54Z</time>
   </trkpt>
   <trkpt lat="-3.1249740" lon="37.3737960">
    <ele>3992.7</ele>
    <time>2026-06-23T10:49:55Z</time>
   </trkpt>
   <trkpt lat="-3.1249810" lon="37.3737880">
    <ele>3992.5</ele>
    <time>2026-06-23T10:49:56Z</time>
   </trkpt>
   <trkpt lat="-3.1249860" lon="37.3737800">
    <ele>3992.3</ele>
    <time>2026-06-23T10:49:57Z</time>
   </trkpt>
   <trkpt lat="-3.1249910" lon="37.3737750">
    <ele>3992.2</ele>
    <time>2026-06-23T10:49:58Z</time>
   </trkpt>
   <trkpt lat="-3.1249910" lon="37.3737740">
    <ele>3992.1</ele>
    <time>2026-06-23T10:49:59Z</time>
   </trkpt>
   <trkpt lat="-3.1249970" lon="37.3737690">
    <ele>3992.0</ele>
    <time>2026-06-23T10:50:00Z</time>
   </trkpt>
   <trkpt lat="-3.1250010" lon="37.3737660">
    <ele>3991.9</ele>
    <time>2026-06-23T10:50:01Z</time>
   </trkpt>
   <trkpt lat="-3.1250080" lon="37.3737620">
    <ele>3991.7</ele>
    <time>2026-06-23T10:50:02Z</time>
   </trkpt>
   <trkpt lat="-3.1250170" lon="37.3737560">
    <ele>3991.5</ele>
    <time>2026-06-23T10:50:03Z</time>
   </trkpt>
   <trkpt lat="-3.1250230" lon="37.3737550">
    <ele>3991.4</ele>
    <time>2026-06-23T10:50:04Z</time>
   </trkpt>
   <trkpt lat="-3.1250330" lon="37.3737510">
    <ele>3991.2</ele>
    <time>2026-06-23T10:50:05Z</time>
   </trkpt>
   <trkpt lat="-3.1250410" lon="37.3737470">
    <ele>3991.1</ele>
    <time>2026-06-23T10:50:06Z</time>
   </trkpt>
   <trkpt lat="-3.1250460" lon="37.3737430">
    <ele>3990.9</ele>
    <time>2026-06-23T10:50:07Z</time>
   </trkpt>
   <trkpt lat="-3.1250490" lon="37.3737400">
    <ele>3990.9</ele>
    <time>2026-06-23T10:50:08Z</time>
   </trkpt>
   <trkpt lat="-3.1250560" lon="37.3737340">
    <ele>3990.7</ele>
    <time>2026-06-23T10:50:09Z</time>
   </trkpt>
   <trkpt lat="-3.1250610" lon="37.3737280">
    <ele>3990.6</ele>
    <time>2026-06-23T10:50:10Z</time>
   </trkpt>
   <trkpt lat="-3.1250650" lon="37.3737260">
    <ele>3990.5</ele>
    <time>2026-06-23T10:50:11Z</time>
   </trkpt>
   <trkpt lat="-3.1250730" lon="37.3737220">
    <ele>3990.3</ele>
    <time>2026-06-23T10:50:12Z</time>
   </trkpt>
   <trkpt lat="-3.1250790" lon="37.3737200">
    <ele>3990.2</ele>
    <time>2026-06-23T10:50:13Z</time>
   </trkpt>
   <trkpt lat="-3.1250830" lon="37.3737160">
    <ele>3990.1</ele>
    <time>2026-06-23T10:50:14Z</time>
   </trkpt>
   <trkpt lat="-3.1250900" lon="37.3737100">
    <ele>3989.9</ele>
    <time>2026-06-23T10:50:15Z</time>
   </trkpt>
   <trkpt lat="-3.1250950" lon="37.3737050">
    <ele>3989.8</ele>
    <time>2026-06-23T10:50:16Z</time>
   </trkpt>
   <trkpt lat="-3.1251020" lon="37.3737010">
    <ele>3989.6</ele>
    <time>2026-06-23T10:50:17Z</time>
   </trkpt>
   <trkpt lat="-3.1251100" lon="37.3736940">
    <ele>3989.4</ele>
    <time>2026-06-23T10:50:18Z</time>
   </trkpt>
   <trkpt lat="-3.1251150" lon="37.3736900">
    <ele>3989.3</ele>
    <time>2026-06-23T10:50:19Z</time>
   </trkpt>
   <trkpt lat="-3.1251190" lon="37.3736880">
    <ele>3989.2</ele>
    <time>2026-06-23T10:50:20Z</time>
   </trkpt>
   <trkpt lat="-3.1251270" lon="37.3736840">
    <ele>3989.1</ele>
    <time>2026-06-23T10:50:21Z</time>
   </trkpt>
   <trkpt lat="-3.1251320" lon="37.3736790">
    <ele>3988.9</ele>
    <time>2026-06-23T10:50:22Z</time>
   </trkpt>
   <trkpt lat="-3.1251390" lon="37.3736750">
    <ele>3988.8</ele>
    <time>2026-06-23T10:50:23Z</time>
   </trkpt>
   <trkpt lat="-3.1251390" lon="37.3736730">
    <ele>3988.7</ele>
    <time>2026-06-23T10:50:24Z</time>
   </trkpt>
   <trkpt lat="-3.1251420" lon="37.3736700">
    <ele>3988.7</ele>
    <time>2026-06-23T10:50:25Z</time>
   </trkpt>
   <trkpt lat="-3.1251500" lon="37.3736630">
    <ele>3988.5</ele>
    <time>2026-06-23T10:50:26Z</time>
   </trkpt>
   <trkpt lat="-3.1251540" lon="37.3736610">
    <ele>3988.4</ele>
    <time>2026-06-23T10:50:27Z</time>
   </trkpt>
   <trkpt lat="-3.1251580" lon="37.3736600">
    <ele>3988.3</ele>
    <time>2026-06-23T10:50:28Z</time>
   </trkpt>
   <trkpt lat="-3.1251640" lon="37.3736580">
    <ele>3988.2</ele>
    <time>2026-06-23T10:50:29Z</time>
   </trkpt>
   <trkpt lat="-3.1251670" lon="37.3736570">
    <ele>3988.1</ele>
    <time>2026-06-23T10:50:30Z</time>
   </trkpt>
   <trkpt lat="-3.1251760" lon="37.3736530">
    <ele>3987.9</ele>
    <time>2026-06-23T10:50:31Z</time>
   </trkpt>
   <trkpt lat="-3.1251840" lon="37.3736540">
    <ele>3987.8</ele>
    <time>2026-06-23T10:50:32Z</time>
   </trkpt>
   <trkpt lat="-3.1251920" lon="37.3736520">
    <ele>3987.6</ele>
    <time>2026-06-23T10:50:33Z</time>
   </trkpt>
   <trkpt lat="-3.1251980" lon="37.3736490">
    <ele>3987.5</ele>
    <time>2026-06-23T10:50:34Z</time>
   </trkpt>
   <trkpt lat="-3.1252030" lon="37.3736460">
    <ele>3987.4</ele>
    <time>2026-06-23T10:50:35Z</time>
   </trkpt>
   <trkpt lat="-3.1252100" lon="37.3736440">
    <ele>3987.3</ele>
    <time>2026-06-23T10:50:36Z</time>
   </trkpt>
   <trkpt lat="-3.1252150" lon="37.3736430">
    <ele>3987.2</ele>
    <time>2026-06-23T10:50:37Z</time>
   </trkpt>
   <trkpt lat="-3.1252130" lon="37.3736440">
    <ele>3987.1</ele>
    <time>2026-06-23T10:50:38Z</time>
   </trkpt>
   <trkpt lat="-3.1252130" lon="37.3736450">
    <ele>3987.1</ele>
    <time>2026-06-23T10:50:39Z</time>
   </trkpt>
   <trkpt lat="-3.1252130" lon="37.3736460">
    <ele>3987.1</ele>
    <time>2026-06-23T10:50:40Z</time>
   </trkpt>
   <trkpt lat="-3.1252130" lon="37.3736460">
    <ele>3987.1</ele>
    <time>2026-06-23T10:50:41Z</time>
   </trkpt>
   <trkpt lat="-3.1252140" lon="37.3736460">
    <ele>3987.1</ele>
    <time>2026-06-23T10:50:42Z</time>
   </trkpt>
   <trkpt lat="-3.1252130" lon="37.3736460">
    <ele>3987.1</ele>
    <time>2026-06-23T10:50:43Z</time>
   </trkpt>
   <trkpt lat="-3.1252150" lon="37.3736460">
    <ele>3987.0</ele>
    <time>2026-06-23T10:50:44Z</time>
   </trkpt>
   <trkpt lat="-3.1252210" lon="37.3736430">
    <ele>3986.9</ele>
    <time>2026-06-23T10:50:45Z</time>
   </trkpt>
   <trkpt lat="-3.1252290" lon="37.3736410">
    <ele>3986.7</ele>
    <time>2026-06-23T10:50:46Z</time>
   </trkpt>
   <trkpt lat="-3.1252340" lon="37.3736380">
    <ele>3986.6</ele>
    <time>2026-06-23T10:50:47Z</time>
   </trkpt>
   <trkpt lat="-3.1252400" lon="37.3736340">
    <ele>3986.5</ele>
    <time>2026-06-23T10:50:48Z</time>
   </trkpt>
   <trkpt lat="-3.1252450" lon="37.3736310">
    <ele>3986.4</ele>
    <time>2026-06-23T10:50:49Z</time>
   </trkpt>
   <trkpt lat="-3.1252520" lon="37.3736270">
    <ele>3986.2</ele>
    <time>2026-06-23T10:50:50Z</time>
   </trkpt>
   <trkpt lat="-3.1252560" lon="37.3736230">
    <ele>3986.1</ele>
    <time>2026-06-23T10:50:51Z</time>
   </trkpt>
   <trkpt lat="-3.1252620" lon="37.3736170">
    <ele>3986.0</ele>
    <time>2026-06-23T10:50:52Z</time>
   </trkpt>
   <trkpt lat="-3.1252680" lon="37.3736120">
    <ele>3985.8</ele>
    <time>2026-06-23T10:50:53Z</time>
   </trkpt>
   <trkpt lat="-3.1252720" lon="37.3736070">
    <ele>3985.7</ele>
    <time>2026-06-23T10:50:54Z</time>
   </trkpt>
   <trkpt lat="-3.1252760" lon="37.3736040">
    <ele>3985.6</ele>
    <time>2026-06-23T10:50:55Z</time>
   </trkpt>
   <trkpt lat="-3.1252800" lon="37.3736000">
    <ele>3985.5</ele>
    <time>2026-06-23T10:50:56Z</time>
   </trkpt>
   <trkpt lat="-3.1252870" lon="37.3735990">
    <ele>3985.3</ele>
    <time>2026-06-23T10:50:57Z</time>
   </trkpt>
   <trkpt lat="-3.1252940" lon="37.3735970">
    <ele>3985.2</ele>
    <time>2026-06-23T10:50:58Z</time>
   </trkpt>
   <trkpt lat="-3.1252990" lon="37.3735910">
    <ele>3985.0</ele>
    <time>2026-06-23T10:50:59Z</time>
   </trkpt>
   <trkpt lat="-3.1253030" lon="37.3735860">
    <ele>3984.9</ele>
    <time>2026-06-23T10:51:00Z</time>
   </trkpt>
   <trkpt lat="-3.1253100" lon="37.3735810">
    <ele>3984.7</ele>
    <time>2026-06-23T10:51:01Z</time>
   </trkpt>
   <trkpt lat="-3.1253130" lon="37.3735810">
    <ele>3984.7</ele>
    <time>2026-06-23T10:51:02Z</time>
   </trkpt>
   <trkpt lat="-3.1253210" lon="37.3735740">
    <ele>3984.5</ele>
    <time>2026-06-23T10:51:03Z</time>
   </trkpt>
   <trkpt lat="-3.1253230" lon="37.3735720">
    <ele>3984.4</ele>
    <time>2026-06-23T10:51:04Z</time>
   </trkpt>
   <trkpt lat="-3.1253270" lon="37.3735670">
    <ele>3984.3</ele>
    <time>2026-06-23T10:51:05Z</time>
   </trkpt>
   <trkpt lat="-3.1253300" lon="37.3735660">
    <ele>3984.2</ele>
    <time>2026-06-23T10:51:06Z</time>
   </trkpt>
   <trkpt lat="-3.1253370" lon="37.3735620">
    <ele>3984.0</ele>
    <time>2026-06-23T10:51:07Z</time>
   </trkpt>
   <trkpt lat="-3.1253410" lon="37.3735610">
    <ele>3984.0</ele>
    <time>2026-06-23T10:51:08Z</time>
   </trkpt>
   <trkpt lat="-3.1253460" lon="37.3735570">
    <ele>3983.8</ele>
    <time>2026-06-23T10:51:09Z</time>
   </trkpt>
   <trkpt lat="-3.1253510" lon="37.3735550">
    <ele>3983.7</ele>
    <time>2026-06-23T10:51:10Z</time>
   </trkpt>
   <trkpt lat="-3.1253620" lon="37.3735500">
    <ele>3983.5</ele>
    <time>2026-06-23T10:51:11Z</time>
   </trkpt>
   <trkpt lat="-3.1253650" lon="37.3735480">
    <ele>3983.4</ele>
    <time>2026-06-23T10:51:12Z</time>
   </trkpt>
   <trkpt lat="-3.1253720" lon="37.3735440">
    <ele>3983.2</ele>
    <time>2026-06-23T10:51:13Z</time>
   </trkpt>
   <trkpt lat="-3.1253790" lon="37.3735380">
    <ele>3983.0</ele>
    <time>2026-06-23T10:51:14Z</time>
   </trkpt>
   <trkpt lat="-3.1253870" lon="37.3735360">
    <ele>3982.9</ele>
    <time>2026-06-23T10:51:15Z</time>
   </trkpt>
   <trkpt lat="-3.1253900" lon="37.3735340">
    <ele>3982.8</ele>
    <time>2026-06-23T10:51:16Z</time>
   </trkpt>
   <trkpt lat="-3.1253970" lon="37.3735320">
    <ele>3982.6</ele>
    <time>2026-06-23T10:51:17Z</time>
   </trkpt>
   <trkpt lat="-3.1254050" lon="37.3735320">
    <ele>3982.5</ele>
    <time>2026-06-23T10:51:18Z</time>
   </trkpt>
   <trkpt lat="-3.1254100" lon="37.3735310">
    <ele>3982.4</ele>
    <time>2026-06-23T10:51:19Z</time>
   </trkpt>
   <trkpt lat="-3.1254170" lon="37.3735270">
    <ele>3982.2</ele>
    <time>2026-06-23T10:51:20Z</time>
   </trkpt>
   <trkpt lat="-3.1254270" lon="37.3735200">
    <ele>3981.9</ele>
    <time>2026-06-23T10:51:21Z</time>
   </trkpt>
   <trkpt lat="-3.1254380" lon="37.3735140">
    <ele>3981.7</ele>
    <time>2026-06-23T10:51:22Z</time>
   </trkpt>
   <trkpt lat="-3.1254470" lon="37.3735080">
    <ele>3981.5</ele>
    <time>2026-06-23T10:51:23Z</time>
   </trkpt>
   <trkpt lat="-3.1254540" lon="37.3735020">
    <ele>3981.3</ele>
    <time>2026-06-23T10:51:24Z</time>
   </trkpt>
   <trkpt lat="-3.1254610" lon="37.3734970">
    <ele>3981.1</ele>
    <time>2026-06-23T10:51:25Z</time>
   </trkpt>
   <trkpt lat="-3.1254670" lon="37.3734970">
    <ele>3981.0</ele>
    <time>2026-06-23T10:51:26Z</time>
   </trkpt>
   <trkpt lat="-3.1254770" lon="37.3734940">
    <ele>3980.8</ele>
    <time>2026-06-23T10:51:27Z</time>
   </trkpt>
   <trkpt lat="-3.1254870" lon="37.3734920">
    <ele>3980.6</ele>
    <time>2026-06-23T10:51:28Z</time>
   </trkpt>
   <trkpt lat="-3.1254980" lon="37.3734920">
    <ele>3980.4</ele>
    <time>2026-06-23T10:51:29Z</time>
   </trkpt>
   <trkpt lat="-3.1255100" lon="37.3734880">
    <ele>3980.2</ele>
    <time>2026-06-23T10:51:30Z</time>
   </trkpt>
   <trkpt lat="-3.1255150" lon="37.3734810">
    <ele>3980.1</ele>
    <time>2026-06-23T10:51:31Z</time>
   </trkpt>
   <trkpt lat="-3.1255220" lon="37.3734750">
    <ele>3979.9</ele>
    <time>2026-06-23T10:51:32Z</time>
   </trkpt>
   <trkpt lat="-3.1255280" lon="37.3734660">
    <ele>3979.7</ele>
    <time>2026-06-23T10:51:33Z</time>
   </trkpt>
   <trkpt lat="-3.1255350" lon="37.3734580">
    <ele>3979.6</ele>
    <time>2026-06-23T10:51:34Z</time>
   </trkpt>
   <trkpt lat="-3.1255460" lon="37.3734530">
    <ele>3979.4</ele>
    <time>2026-06-23T10:51:35Z</time>
   </trkpt>
   <trkpt lat="-3.1255560" lon="37.3734490">
    <ele>3979.2</ele>
    <time>2026-06-23T10:51:36Z</time>
   </trkpt>
   <trkpt lat="-3.1255660" lon="37.3734420">
    <ele>3979.0</ele>
    <time>2026-06-23T10:51:37Z</time>
   </trkpt>
   <trkpt lat="-3.1255760" lon="37.3734360">
    <ele>3978.9</ele>
    <time>2026-06-23T10:51:38Z</time>
   </trkpt>
   <trkpt lat="-3.1255820" lon="37.3734270">
    <ele>3978.7</ele>
    <time>2026-06-23T10:51:39Z</time>
   </trkpt>
   <trkpt lat="-3.1255890" lon="37.3734220">
    <ele>3978.6</ele>
    <time>2026-06-23T10:51:40Z</time>
   </trkpt>
   <trkpt lat="-3.1255990" lon="37.3734140">
    <ele>3978.4</ele>
    <time>2026-06-23T10:51:41Z</time>
   </trkpt>
   <trkpt lat="-3.1256040" lon="37.3734060">
    <ele>3978.3</ele>
    <time>2026-06-23T10:51:42Z</time>
   </trkpt>
   <trkpt lat="-3.1256130" lon="37.3733980">
    <ele>3978.2</ele>
    <time>2026-06-23T10:51:43Z</time>
   </trkpt>
   <trkpt lat="-3.1256220" lon="37.3733930">
    <ele>3978.0</ele>
    <time>2026-06-23T10:51:44Z</time>
   </trkpt>
   <trkpt lat="-3.1256330" lon="37.3733880">
    <ele>3977.9</ele>
    <time>2026-06-23T10:51:45Z</time>
   </trkpt>
   <trkpt lat="-3.1256420" lon="37.3733830">
    <ele>3977.8</ele>
    <time>2026-06-23T10:51:46Z</time>
   </trkpt>
   <trkpt lat="-3.1256500" lon="37.3733750">
    <ele>3977.6</ele>
    <time>2026-06-23T10:51:47Z</time>
   </trkpt>
   <trkpt lat="-3.1256590" lon="37.3733700">
    <ele>3977.5</ele>
    <time>2026-06-23T10:51:48Z</time>
   </trkpt>
   <trkpt lat="-3.1256680" lon="37.3733640">
    <ele>3977.4</ele>
    <time>2026-06-23T10:51:49Z</time>
   </trkpt>
   <trkpt lat="-3.1256780" lon="37.3733600">
    <ele>3977.3</ele>
    <time>2026-06-23T10:51:50Z</time>
   </trkpt>
   <trkpt lat="-3.1256850" lon="37.3733550">
    <ele>3977.2</ele>
    <time>2026-06-23T10:51:51Z</time>
   </trkpt>
   <trkpt lat="-3.1256950" lon="37.3733480">
    <ele>3977.0</ele>
    <time>2026-06-23T10:51:52Z</time>
   </trkpt>
   <trkpt lat="-3.1257020" lon="37.3733450">
    <ele>3977.0</ele>
    <time>2026-06-23T10:51:53Z</time>
   </trkpt>
   <trkpt lat="-3.1257130" lon="37.3733380">
    <ele>3976.8</ele>
    <time>2026-06-23T10:51:54Z</time>
   </trkpt>
   <trkpt lat="-3.1257200" lon="37.3733300">
    <ele>3976.7</ele>
    <time>2026-06-23T10:51:55Z</time>
   </trkpt>
   <trkpt lat="-3.1257270" lon="37.3733240">
    <ele>3976.6</ele>
    <time>2026-06-23T10:51:56Z</time>
   </trkpt>
   <trkpt lat="-3.1257350" lon="37.3733210">
    <ele>3976.5</ele>
    <time>2026-06-23T10:51:57Z</time>
   </trkpt>
   <trkpt lat="-3.1257440" lon="37.3733200">
    <ele>3976.4</ele>
    <time>2026-06-23T10:51:58Z</time>
   </trkpt>
   <trkpt lat="-3.1257520" lon="37.3733180">
    <ele>3976.3</ele>
    <time>2026-06-23T10:51:59Z</time>
   </trkpt>
   <trkpt lat="-3.1257640" lon="37.3733120">
    <ele>3976.2</ele>
    <time>2026-06-23T10:52:00Z</time>
   </trkpt>
   <trkpt lat="-3.1257710" lon="37.3733090">
    <ele>3976.1</ele>
    <time>2026-06-23T10:52:01Z</time>
   </trkpt>
   <trkpt lat="-3.1257790" lon="37.3733070">
    <ele>3976.0</ele>
    <time>2026-06-23T10:52:02Z</time>
   </trkpt>
   <trkpt lat="-3.1257870" lon="37.3733040">
    <ele>3975.9</ele>
    <time>2026-06-23T10:52:03Z</time>
   </trkpt>
   <trkpt lat="-3.1257950" lon="37.3732980">
    <ele>3975.8</ele>
    <time>2026-06-23T10:52:04Z</time>
   </trkpt>
   <trkpt lat="-3.1258030" lon="37.3732940">
    <ele>3975.7</ele>
    <time>2026-06-23T10:52:05Z</time>
   </trkpt>
   <trkpt lat="-3.1258100" lon="37.3732890">
    <ele>3975.6</ele>
    <time>2026-06-23T10:52:06Z</time>
   </trkpt>
   <trkpt lat="-3.1258180" lon="37.3732850">
    <ele>3975.5</ele>
    <time>2026-06-23T10:52:07Z</time>
   </trkpt>
   <trkpt lat="-3.1258270" lon="37.3732820">
    <ele>3975.4</ele>
    <time>2026-06-23T10:52:08Z</time>
   </trkpt>
   <trkpt lat="-3.1258350" lon="37.3732820">
    <ele>3975.3</ele>
    <time>2026-06-23T10:52:09Z</time>
   </trkpt>
   <trkpt lat="-3.1258450" lon="37.3732790">
    <ele>3975.2</ele>
    <time>2026-06-23T10:52:10Z</time>
   </trkpt>
   <trkpt lat="-3.1258510" lon="37.3732770">
    <ele>3975.1</ele>
    <time>2026-06-23T10:52:11Z</time>
   </trkpt>
   <trkpt lat="-3.1258550" lon="37.3732740">
    <ele>3975.1</ele>
    <time>2026-06-23T10:52:12Z</time>
   </trkpt>
   <trkpt lat="-3.1258540" lon="37.3732760">
    <ele>3975.0</ele>
    <time>2026-06-23T10:52:13Z</time>
   </trkpt>
   <trkpt lat="-3.1258520" lon="37.3732760">
    <ele>3975.0</ele>
    <time>2026-06-23T10:52:14Z</time>
   </trkpt>
   <trkpt lat="-3.1258560" lon="37.3732750">
    <ele>3975.0</ele>
    <time>2026-06-23T10:52:15Z</time>
   </trkpt>
   <trkpt lat="-3.1258620" lon="37.3732690">
    <ele>3974.9</ele>
    <time>2026-06-23T10:52:16Z</time>
   </trkpt>
   <trkpt lat="-3.1258650" lon="37.3732690">
    <ele>3974.8</ele>
    <time>2026-06-23T10:52:17Z</time>
   </trkpt>
   <trkpt lat="-3.1258750" lon="37.3732670">
    <ele>3974.7</ele>
    <time>2026-06-23T10:52:18Z</time>
   </trkpt>
   <trkpt lat="-3.1258820" lon="37.3732620">
    <ele>3974.6</ele>
    <time>2026-06-23T10:52:19Z</time>
   </trkpt>
   <trkpt lat="-3.1258890" lon="37.3732560">
    <ele>3974.5</ele>
    <time>2026-06-23T10:52:20Z</time>
   </trkpt>
   <trkpt lat="-3.1258980" lon="37.3732500">
    <ele>3974.3</ele>
    <time>2026-06-23T10:52:21Z</time>
   </trkpt>
   <trkpt lat="-3.1259070" lon="37.3732450">
    <ele>3974.2</ele>
    <time>2026-06-23T10:52:22Z</time>
   </trkpt>
   <trkpt lat="-3.1259180" lon="37.3732380">
    <ele>3974.0</ele>
    <time>2026-06-23T10:52:23Z</time>
   </trkpt>
   <trkpt lat="-3.1259230" lon="37.3732340">
    <ele>3974.0</ele>
    <time>2026-06-23T10:52:24Z</time>
   </trkpt>
   <trkpt lat="-3.1259300" lon="37.3732290">
    <ele>3973.9</ele>
    <time>2026-06-23T10:52:25Z</time>
   </trkpt>
   <trkpt lat="-3.1259380" lon="37.3732230">
    <ele>3973.7</ele>
    <time>2026-06-23T10:52:26Z</time>
   </trkpt>
   <trkpt lat="-3.1259490" lon="37.3732160">
    <ele>3973.6</ele>
    <time>2026-06-23T10:52:27Z</time>
   </trkpt>
   <trkpt lat="-3.1259550" lon="37.3732130">
    <ele>3973.5</ele>
    <time>2026-06-23T10:52:28Z</time>
   </trkpt>
   <trkpt lat="-3.1259650" lon="37.3732060">
    <ele>3973.3</ele>
    <time>2026-06-23T10:52:29Z</time>
   </trkpt>
   <trkpt lat="-3.1259740" lon="37.3732000">
    <ele>3973.2</ele>
    <time>2026-06-23T10:52:30Z</time>
   </trkpt>
   <trkpt lat="-3.1259830" lon="37.3731930">
    <ele>3973.1</ele>
    <time>2026-06-23T10:52:31Z</time>
   </trkpt>
   <trkpt lat="-3.1259900" lon="37.3731880">
    <ele>3972.9</ele>
    <time>2026-06-23T10:52:32Z</time>
   </trkpt>
   <trkpt lat="-3.1259950" lon="37.3731810">
    <ele>3972.8</ele>
    <time>2026-06-23T10:52:33Z</time>
   </trkpt>
   <trkpt lat="-3.1260010" lon="37.3731740">
    <ele>3972.7</ele>
    <time>2026-06-23T10:52:34Z</time>
   </trkpt>
   <trkpt lat="-3.1260030" lon="37.3731680">
    <ele>3972.6</ele>
    <time>2026-06-23T10:52:35Z</time>
   </trkpt>
   <trkpt lat="-3.1260030" lon="37.3731630">
    <ele>3972.6</ele>
    <time>2026-06-23T10:52:36Z</time>
   </trkpt>
   <trkpt lat="-3.1260010" lon="37.3731670">
    <ele>3972.5</ele>
    <time>2026-06-23T10:52:37Z</time>
   </trkpt>
   <trkpt lat="-3.1260020" lon="37.3731680">
    <ele>3972.5</ele>
    <time>2026-06-23T10:52:38Z</time>
   </trkpt>
   <trkpt lat="-3.1260030" lon="37.3731670">
    <ele>3972.5</ele>
    <time>2026-06-23T10:52:39Z</time>
   </trkpt>
   <trkpt lat="-3.1260030" lon="37.3731670">
    <ele>3972.5</ele>
    <time>2026-06-23T10:52:40Z</time>
   </trkpt>
   <trkpt lat="-3.1260030" lon="37.3731660">
    <ele>3972.5</ele>
    <time>2026-06-23T10:52:41Z</time>
   </trkpt>
   <trkpt lat="-3.1260030" lon="37.3731660">
    <ele>3972.5</ele>
    <time>2026-06-23T10:52:42Z</time>
   </trkpt>
   <trkpt lat="-3.1260030" lon="37.3731680">
    <ele>3972.4</ele>
    <time>2026-06-23T10:52:43Z</time>
   </trkpt>
   <trkpt lat="-3.1260040" lon="37.3731660">
    <ele>3972.4</ele>
    <time>2026-06-23T10:52:44Z</time>
   </trkpt>
   <trkpt lat="-3.1260020" lon="37.3731670">
    <ele>3972.4</ele>
    <time>2026-06-23T10:52:45Z</time>
   </trkpt>
   <trkpt lat="-3.1260040" lon="37.3731670">
    <ele>3972.4</ele>
    <time>2026-06-23T10:52:46Z</time>
   </trkpt>
   <trkpt lat="-3.1260040" lon="37.3731680">
    <ele>3972.4</ele>
    <time>2026-06-23T10:52:47Z</time>
   </trkpt>
   <trkpt lat="-3.1260030" lon="37.3731670">
    <ele>3972.3</ele>
    <time>2026-06-23T10:52:48Z</time>
   </trkpt>
   <trkpt lat="-3.1260030" lon="37.3731680">
    <ele>3972.3</ele>
    <time>2026-06-23T10:52:49Z</time>
   </trkpt>
   <trkpt lat="-3.1260030" lon="37.3731670">
    <ele>3972.3</ele>
    <time>2026-06-23T10:52:50Z</time>
   </trkpt>
   <trkpt lat="-3.1260030" lon="37.3731670">
    <ele>3972.3</ele>
    <time>2026-06-23T10:52:51Z</time>
   </trkpt>
   <trkpt lat="-3.1260030" lon="37.3731670">
    <ele>3972.3</ele>
    <time>2026-06-23T10:52:52Z</time>
   </trkpt>
   <trkpt lat="-3.1260030" lon="37.3731670">
    <ele>3972.3</ele>
    <time>2026-06-23T10:52:53Z</time>
   </trkpt>
   <trkpt lat="-3.1260030" lon="37.3731670">
    <ele>3972.3</ele>
    <time>2026-06-23T10:52:54Z</time>
   </trkpt>
   <trkpt lat="-3.1260030" lon="37.3731680">
    <ele>3972.3</ele>
    <time>2026-06-23T10:52:55Z</time>
   </trkpt>
   <trkpt lat="-3.1260010" lon="37.3731680">
    <ele>3972.3</ele>
    <time>2026-06-23T10:52:56Z</time>
   </trkpt>
   <trkpt lat="-3.1259990" lon="37.3731670">
    <ele>3972.2</ele>
    <time>2026-06-23T10:52:57Z</time>
   </trkpt>
   <trkpt lat="-3.1259980" lon="37.3731660">
    <ele>3972.2</ele>
    <time>2026-06-23T10:52:58Z</time>
   </trkpt>
   <trkpt lat="-3.1259980" lon="37.3731680">
    <ele>3972.2</ele>
    <time>2026-06-23T10:52:59Z</time>
   </trkpt>
   <trkpt lat="-3.1259980" lon="37.3731690">
    <ele>3972.2</ele>
    <time>2026-06-23T10:53:00Z</time>
   </trkpt>
   <trkpt lat="-3.1259980" lon="37.3731690">
    <ele>3972.2</ele>
    <time>2026-06-23T10:53:01Z</time>
   </trkpt>
   <trkpt lat="-3.1259980" lon="37.3731690">
    <ele>3972.2</ele>
    <time>2026-06-23T10:53:02Z</time>
   </trkpt>
   <trkpt lat="-3.1259970" lon="37.3731670">
    <ele>3972.2</ele>
    <time>2026-06-23T10:53:03Z</time>
   </trkpt>
   <trkpt lat="-3.1259960" lon="37.3731660">
    <ele>3972.1</ele>
    <time>2026-06-23T10:53:04Z</time>
   </trkpt>
   <trkpt lat="-3.1259960" lon="37.3731660">
    <ele>3972.1</ele>
    <time>2026-06-23T10:53:05Z</time>
   </trkpt>
   <trkpt lat="-3.1259960" lon="37.3731650">
    <ele>3972.1</ele>
    <time>2026-06-23T10:53:06Z</time>
   </trkpt>
   <trkpt lat="-3.1259960" lon="37.3731680">
    <ele>3972.1</ele>
    <time>2026-06-23T10:53:07Z</time>
   </trkpt>
   <trkpt lat="-3.1259950" lon="37.3731670">
    <ele>3972.1</ele>
    <time>2026-06-23T10:53:08Z</time>
   </trkpt>
   <trkpt lat="-3.1259950" lon="37.3731680">
    <ele>3972.1</ele>
    <time>2026-06-23T10:53:09Z</time>
   </trkpt>
   <trkpt lat="-3.1259960" lon="37.3731660">
    <ele>3972.1</ele>
    <time>2026-06-23T10:53:10Z</time>
   </trkpt>
   <trkpt lat="-3.1259970" lon="37.3731690">
    <ele>3972.0</ele>
    <time>2026-06-23T10:53:11Z</time>
   </trkpt>
   <trkpt lat="-3.1259960" lon="37.3731690">
    <ele>3972.0</ele>
    <time>2026-06-23T10:53:12Z</time>
   </trkpt>
   <trkpt lat="-3.1259960" lon="37.3731680">
    <ele>3972.0</ele>
    <time>2026-06-23T10:53:13Z</time>
   </trkpt>
   <trkpt lat="-3.1259960" lon="37.3731690">
    <ele>3972.0</ele>
    <time>2026-06-23T10:53:14Z</time>
   </trkpt>
   <trkpt lat="-3.1259960" lon="37.3731680">
    <ele>3972.0</ele>
    <time>2026-06-23T10:53:15Z</time>
   </trkpt>
   <trkpt lat="-3.1259960" lon="37.3731670">
    <ele>3972.0</ele>
    <time>2026-06-23T10:53:16Z</time>
   </trkpt>
   <trkpt lat="-3.1259950" lon="37.3731670">
    <ele>3971.9</ele>
    <time>2026-06-23T10:53:17Z</time>
   </trkpt>
   <trkpt lat="-3.1259950" lon="37.3731670">
    <ele>3971.9</ele>
    <time>2026-06-23T10:53:18Z</time>
   </trkpt>
   <trkpt lat="-3.1259950" lon="37.3731670">
    <ele>3971.9</ele>
    <time>2026-06-23T10:53:19Z</time>
   </trkpt>
   <trkpt lat="-3.1259960" lon="37.3731670">
    <ele>3971.9</ele>
    <time>2026-06-23T10:53:20Z</time>
   </trkpt>
   <trkpt lat="-3.1259960" lon="37.3731670">
    <ele>3971.9</ele>
    <time>2026-06-23T10:53:21Z</time>
   </trkpt>
   <trkpt lat="-3.1259960" lon="37.3731670">
    <ele>3971.9</ele>
    <time>2026-06-23T10:53:22Z</time>
   </trkpt>
   <trkpt lat="-3.1259960" lon="37.3731660">
    <ele>3971.9</ele>
    <time>2026-06-23T10:53:23Z</time>
   </trkpt>
   <trkpt lat="-3.1259960" lon="37.3731660">
    <ele>3971.9</ele>
    <time>2026-06-23T10:53:24Z</time>
   </trkpt>
   <trkpt lat="-3.1259960" lon="37.3731650">
    <ele>3971.9</ele>
    <time>2026-06-23T10:53:25Z</time>
   </trkpt>
   <trkpt lat="-3.1259960" lon="37.3731650">
    <ele>3971.9</ele>
    <time>2026-06-23T10:53:26Z</time>
   </trkpt>
   <trkpt lat="-3.1259960" lon="37.3731650">
    <ele>3971.9</ele>
    <time>2026-06-23T10:53:27Z</time>
   </trkpt>
   <trkpt lat="-3.1259950" lon="37.3731650">
    <ele>3971.9</ele>
    <time>2026-06-23T10:53:28Z</time>
   </trkpt>
   <trkpt lat="-3.1259950" lon="37.3731650">
    <ele>3971.9</ele>
    <time>2026-06-23T10:53:29Z</time>
   </trkpt>
   <trkpt lat="-3.1259950" lon="37.3731640">
    <ele>3971.9</ele>
    <time>2026-06-23T10:53:30Z</time>
   </trkpt>
   <trkpt lat="-3.1259980" lon="37.3731650">
    <ele>3971.9</ele>
    <time>2026-06-23T10:53:31Z</time>
   </trkpt>
   <trkpt lat="-3.1259980" lon="37.3731630">
    <ele>3971.8</ele>
    <time>2026-06-23T10:53:32Z</time>
   </trkpt>
   <trkpt lat="-3.1259980" lon="37.3731640">
    <ele>3971.8</ele>
    <time>2026-06-23T10:53:33Z</time>
   </trkpt>
   <trkpt lat="-3.1259980" lon="37.3731630">
    <ele>3971.8</ele>
    <time>2026-06-23T10:53:34Z</time>
   </trkpt>
   <trkpt lat="-3.1259980" lon="37.3731630">
    <ele>3971.8</ele>
    <time>2026-06-23T10:53:35Z</time>
   </trkpt>
   <trkpt lat="-3.1259980" lon="37.3731630">
    <ele>3971.8</ele>
    <time>2026-06-23T10:53:36Z</time>
   </trkpt>
   <trkpt lat="-3.1259980" lon="37.3731630">
    <ele>3971.8</ele>
    <time>2026-06-23T10:53:37Z</time>
   </trkpt>
   <trkpt lat="-3.1259980" lon="37.3731640">
    <ele>3971.8</ele>
    <time>2026-06-23T10:53:38Z</time>
   </trkpt>
   <trkpt lat="-3.1259980" lon="37.3731650">
    <ele>3971.8</ele>
    <time>2026-06-23T10:53:39Z</time>
   </trkpt>
   <trkpt lat="-3.1259970" lon="37.3731660">
    <ele>3971.8</ele>
    <time>2026-06-23T10:53:40Z</time>
   </trkpt>
   <trkpt lat="-3.1259970" lon="37.3731640">
    <ele>3971.8</ele>
    <time>2026-06-23T10:53:41Z</time>
   </trkpt>
   <trkpt lat="-3.1259980" lon="37.3731670">
    <ele>3971.7</ele>
    <time>2026-06-23T10:53:42Z</time>
   </trkpt>
   <trkpt lat="-3.1260000" lon="37.3731670">
    <ele>3971.7</ele>
    <time>2026-06-23T10:53:43Z</time>
   </trkpt>
   <trkpt lat="-3.1259990" lon="37.3731670">
    <ele>3971.7</ele>
    <time>2026-06-23T10:53:44Z</time>
   </trkpt>
   <trkpt lat="-3.1259990" lon="37.3731680">
    <ele>3971.7</ele>
    <time>2026-06-23T10:53:45Z</time>
   </trkpt>
   <trkpt lat="-3.1259980" lon="37.3731690">
    <ele>3971.7</ele>
    <time>2026-06-23T10:53:46Z</time>
   </trkpt>
   <trkpt lat="-3.1259990" lon="37.3731710">
    <ele>3971.6</ele>
    <time>2026-06-23T10:53:47Z</time>
   </trkpt>
   <trkpt lat="-3.1260010" lon="37.3731670">
    <ele>3971.6</ele>
    <time>2026-06-23T10:53:48Z</time>
   </trkpt>
   <trkpt lat="-3.1260010" lon="37.3731680">
    <ele>3971.6</ele>
    <time>2026-06-23T10:53:49Z</time>
   </trkpt>
   <trkpt lat="-3.1260010" lon="37.3731680">
    <ele>3971.6</ele>
    <time>2026-06-23T10:53:50Z</time>
   </trkpt>
   <trkpt lat="-3.1259990" lon="37.3731680">
    <ele>3971.6</ele>
    <time>2026-06-23T10:53:51Z</time>
   </trkpt>
   <trkpt lat="-3.1259990" lon="37.3731670">
    <ele>3971.5</ele>
    <time>2026-06-23T10:53:52Z</time>
   </trkpt>
   <trkpt lat="-3.1259990" lon="37.3731670">
    <ele>3971.5</ele>
    <time>2026-06-23T10:53:53Z</time>
   </trkpt>
   <trkpt lat="-3.1259980" lon="37.3731670">
    <ele>3971.5</ele>
    <time>2026-06-23T10:53:54Z</time>
   </trkpt>
   <trkpt lat="-3.1259970" lon="37.3731670">
    <ele>3971.5</ele>
    <time>2026-06-23T10:53:55Z</time>
   </trkpt>
   <trkpt lat="-3.1259970" lon="37.3731660">
    <ele>3971.5</ele>
    <time>2026-06-23T10:53:56Z</time>
   </trkpt>
   <trkpt lat="-3.1259970" lon="37.3731660">
    <ele>3971.5</ele>
    <time>2026-06-23T10:53:57Z</time>
   </trkpt>
   <trkpt lat="-3.1259970" lon="37.3731690">
    <ele>3971.5</ele>
    <time>2026-06-23T10:53:58Z</time>
   </trkpt>
   <trkpt lat="-3.1259980" lon="37.3731630">
    <ele>3971.4</ele>
    <time>2026-06-23T10:53:59Z</time>
   </trkpt>
   <trkpt lat="-3.1259980" lon="37.3731660">
    <ele>3971.4</ele>
    <time>2026-06-23T10:54:00Z</time>
   </trkpt>
   <trkpt lat="-3.1259990" lon="37.3731640">
    <ele>3971.4</ele>
    <time>2026-06-23T10:54:01Z</time>
   </trkpt>
   <trkpt lat="-3.1259990" lon="37.3731650">
    <ele>3971.3</ele>
    <time>2026-06-23T10:54:02Z</time>
   </trkpt>
   <trkpt lat="-3.1260000" lon="37.3731630">
    <ele>3971.3</ele>
    <time>2026-06-23T10:54:03Z</time>
   </trkpt>
   <trkpt lat="-3.1260000" lon="37.3731640">
    <ele>3971.3</ele>
    <time>2026-06-23T10:54:04Z</time>
   </trkpt>
   <trkpt lat="-3.1260000" lon="37.3731640">
    <ele>3971.3</ele>
    <time>2026-06-23T10:54:05Z</time>
   </trkpt>
   <trkpt lat="-3.1260000" lon="37.3731640">
    <ele>3971.3</ele>
    <time>2026-06-23T10:54:06Z</time>
   </trkpt>
   <trkpt lat="-3.1259980" lon="37.3731640">
    <ele>3971.3</ele>
    <time>2026-06-23T10:54:07Z</time>
   </trkpt>
   <trkpt lat="-3.1259970" lon="37.3731650">
    <ele>3971.3</ele>
    <time>2026-06-23T10:54:08Z</time>
   </trkpt>
   <trkpt lat="-3.1259980" lon="37.3731640">
    <ele>3971.3</ele>
    <time>2026-06-23T10:54:09Z</time>
   </trkpt>
   <trkpt lat="-3.1259990" lon="37.3731630">
    <ele>3971.2</ele>
    <time>2026-06-23T10:54:10Z</time>
   </trkpt>
   <trkpt lat="-3.1260000" lon="37.3731620">
    <ele>3971.2</ele>
    <time>2026-06-23T10:54:11Z</time>
   </trkpt>
   <trkpt lat="-3.1259990" lon="37.3731640">
    <ele>3971.2</ele>
    <time>2026-06-23T10:54:12Z</time>
   </trkpt>
   <trkpt lat="-3.1260000" lon="37.3731630">
    <ele>3971.2</ele>
    <time>2026-06-23T10:54:13Z</time>
   </trkpt>
   <trkpt lat="-3.1260000" lon="37.3731640">
    <ele>3971.2</ele>
    <time>2026-06-23T10:54:14Z</time>
   </trkpt>
   <trkpt lat="-3.1260000" lon="37.3731660">
    <ele>3971.2</ele>
    <time>2026-06-23T10:54:15Z</time>
   </trkpt>
   <trkpt lat="-3.1260000" lon="37.3731660">
    <ele>3971.2</ele>
    <time>2026-06-23T10:54:16Z</time>
   </trkpt>
   <trkpt lat="-3.1260010" lon="37.3731660">
    <ele>3971.1</ele>
    <time>2026-06-23T10:54:17Z</time>
   </trkpt>
   <trkpt lat="-3.1260010" lon="37.3731670">
    <ele>3971.1</ele>
    <time>2026-06-23T10:54:18Z</time>
   </trkpt>
   <trkpt lat="-3.1260010" lon="37.3731680">
    <ele>3971.1</ele>
    <time>2026-06-23T10:54:19Z</time>
   </trkpt>
   <trkpt lat="-3.1260010" lon="37.3731670">
    <ele>3971.1</ele>
    <time>2026-06-23T10:54:20Z</time>
   </trkpt>
   <trkpt lat="-3.1260000" lon="37.3731670">
    <ele>3971.1</ele>
    <time>2026-06-23T10:54:21Z</time>
   </trkpt>
   <trkpt lat="-3.1260020" lon="37.3731670">
    <ele>3971.1</ele>
    <time>2026-06-23T10:54:22Z</time>
   </trkpt>
   <trkpt lat="-3.1260010" lon="37.3731670">
    <ele>3971.1</ele>
    <time>2026-06-23T10:54:23Z</time>
   </trkpt>
   <trkpt lat="-3.1260010" lon="37.3731670">
    <ele>3971.1</ele>
    <time>2026-06-23T10:54:24Z</time>
   </trkpt>
   <trkpt lat="-3.1260010" lon="37.3731690">
    <ele>3971.1</ele>
    <time>2026-06-23T10:54:25Z</time>
   </trkpt>
   <trkpt lat="-3.1260010" lon="37.3731690">
    <ele>3971.1</ele>
    <time>2026-06-23T10:54:26Z</time>
   </trkpt>
   <trkpt lat="-3.1260010" lon="37.3731690">
    <ele>3971.1</ele>
    <time>2026-06-23T10:54:27Z</time>
   </trkpt>
   <trkpt lat="-3.1260030" lon="37.3731700">
    <ele>3971.0</ele>
    <time>2026-06-23T10:54:28Z</time>
   </trkpt>
   <trkpt lat="-3.1260030" lon="37.3731700">
    <ele>3971.0</ele>
    <time>2026-06-23T10:54:29Z</time>
   </trkpt>
   <trkpt lat="-3.1260040" lon="37.3731700">
    <ele>3971.0</ele>
    <time>2026-06-23T10:54:30Z</time>
   </trkpt>
   <trkpt lat="-3.1260040" lon="37.3731700">
    <ele>3971.0</ele>
    <time>2026-06-23T10:54:31Z</time>
   </trkpt>
   <trkpt lat="-3.1260040" lon="37.3731700">
    <ele>3971.0</ele>
    <time>2026-06-23T10:54:32Z</time>
   </trkpt>
   <trkpt lat="-3.1260040" lon="37.3731710">
    <ele>3971.0</ele>
    <time>2026-06-23T10:54:33Z</time>
   </trkpt>
   <trkpt lat="-3.1260040" lon="37.3731710">
    <ele>3971.0</ele>
    <time>2026-06-23T10:54:34Z</time>
   </trkpt>
   <trkpt lat="-3.1260040" lon="37.3731710">
    <ele>3971.0</ele>
    <time>2026-06-23T10:54:35Z</time>
   </trkpt>
   <trkpt lat="-3.1260040" lon="37.3731710">
    <ele>3971.0</ele>
    <time>2026-06-23T10:54:36Z</time>
   </trkpt>
   <trkpt lat="-3.1260050" lon="37.3731710">
    <ele>3971.0</ele>
    <time>2026-06-23T10:54:37Z</time>
   </trkpt>
   <trkpt lat="-3.1260050" lon="37.3731710">
    <ele>3971.0</ele>
    <time>2026-06-23T10:54:38Z</time>
   </trkpt>
   <trkpt lat="-3.1260050" lon="37.3731710">
    <ele>3971.0</ele>
    <time>2026-06-23T10:54:39Z</time>
   </trkpt>
   <trkpt lat="-3.1260050" lon="37.3731710">
    <ele>3971.0</ele>
    <time>2026-06-23T10:54:40Z</time>
   </trkpt>
   <trkpt lat="-3.1260050" lon="37.3731680">
    <ele>3971.0</ele>
    <time>2026-06-23T10:54:41Z</time>
   </trkpt>
   <trkpt lat="-3.1260020" lon="37.3731680">
    <ele>3970.9</ele>
    <time>2026-06-23T10:54:42Z</time>
   </trkpt>
   <trkpt lat="-3.1260030" lon="37.3731670">
    <ele>3970.9</ele>
    <time>2026-06-23T10:54:43Z</time>
   </trkpt>
   <trkpt lat="-3.1260070" lon="37.3731680">
    <ele>3970.9</ele>
    <time>2026-06-23T10:54:44Z</time>
   </trkpt>
   <trkpt lat="-3.1260120" lon="37.3731630">
    <ele>3970.8</ele>
    <time>2026-06-23T10:54:45Z</time>
   </trkpt>
   <trkpt lat="-3.1260170" lon="37.3731600">
    <ele>3970.7</ele>
    <time>2026-06-23T10:54:46Z</time>
   </trkpt>
   <trkpt lat="-3.1260260" lon="37.3731550">
    <ele>3970.6</ele>
    <time>2026-06-23T10:54:47Z</time>
   </trkpt>
   <trkpt lat="-3.1260340" lon="37.3731520">
    <ele>3970.6</ele>
    <time>2026-06-23T10:54:48Z</time>
   </trkpt>
   <trkpt lat="-3.1260400" lon="37.3731470">
    <ele>3970.5</ele>
    <time>2026-06-23T10:54:49Z</time>
   </trkpt>
   <trkpt lat="-3.1260480" lon="37.3731420">
    <ele>3970.4</ele>
    <time>2026-06-23T10:54:50Z</time>
   </trkpt>
   <trkpt lat="-3.1260540" lon="37.3731380">
    <ele>3970.3</ele>
    <time>2026-06-23T10:54:51Z</time>
   </trkpt>
   <trkpt lat="-3.1260590" lon="37.3731360">
    <ele>3970.2</ele>
    <time>2026-06-23T10:54:52Z</time>
   </trkpt>
   <trkpt lat="-3.1260660" lon="37.3731340">
    <ele>3970.2</ele>
    <time>2026-06-23T10:54:53Z</time>
   </trkpt>
   <trkpt lat="-3.1260760" lon="37.3731310">
    <ele>3970.1</ele>
    <time>2026-06-23T10:54:54Z</time>
   </trkpt>
   <trkpt lat="-3.1260850" lon="37.3731290">
    <ele>3970.0</ele>
    <time>2026-06-23T10:54:55Z</time>
   </trkpt>
   <trkpt lat="-3.1260930" lon="37.3731260">
    <ele>3969.9</ele>
    <time>2026-06-23T10:54:56Z</time>
   </trkpt>
   <trkpt lat="-3.1261030" lon="37.3731250">
    <ele>3969.8</ele>
    <time>2026-06-23T10:54:57Z</time>
   </trkpt>
   <trkpt lat="-3.1261100" lon="37.3731240">
    <ele>3969.7</ele>
    <time>2026-06-23T10:54:58Z</time>
   </trkpt>
   <trkpt lat="-3.1261210" lon="37.3731240">
    <ele>3969.6</ele>
    <time>2026-06-23T10:54:59Z</time>
   </trkpt>
   <trkpt lat="-3.1261310" lon="37.3731230">
    <ele>3969.5</ele>
    <time>2026-06-23T10:55:00Z</time>
   </trkpt>
   <trkpt lat="-3.1261380" lon="37.3731220">
    <ele>3969.4</ele>
    <time>2026-06-23T10:55:01Z</time>
   </trkpt>
   <trkpt lat="-3.1261460" lon="37.3731220">
    <ele>3969.3</ele>
    <time>2026-06-23T10:55:02Z</time>
   </trkpt>
   <trkpt lat="-3.1261540" lon="37.3731230">
    <ele>3969.2</ele>
    <time>2026-06-23T10:55:03Z</time>
   </trkpt>
   <trkpt lat="-3.1261680" lon="37.3731240">
    <ele>3969.1</ele>
    <time>2026-06-23T10:55:04Z</time>
   </trkpt>
   <trkpt lat="-3.1261750" lon="37.3731230">
    <ele>3969.0</ele>
    <time>2026-06-23T10:55:05Z</time>
   </trkpt>
   <trkpt lat="-3.1261840" lon="37.3731190">
    <ele>3968.9</ele>
    <time>2026-06-23T10:55:06Z</time>
   </trkpt>
   <trkpt lat="-3.1261950" lon="37.3731150">
    <ele>3968.8</ele>
    <time>2026-06-23T10:55:07Z</time>
   </trkpt>
   <trkpt lat="-3.1262060" lon="37.3731090">
    <ele>3968.7</ele>
    <time>2026-06-23T10:55:08Z</time>
   </trkpt>
   <trkpt lat="-3.1262150" lon="37.3731040">
    <ele>3968.6</ele>
    <time>2026-06-23T10:55:09Z</time>
   </trkpt>
   <trkpt lat="-3.1262240" lon="37.3730990">
    <ele>3968.5</ele>
    <time>2026-06-23T10:55:10Z</time>
   </trkpt>
   <trkpt lat="-3.1262310" lon="37.3730910">
    <ele>3968.4</ele>
    <time>2026-06-23T10:55:11Z</time>
   </trkpt>
   <trkpt lat="-3.1262380" lon="37.3730820">
    <ele>3968.3</ele>
    <time>2026-06-23T10:55:12Z</time>
   </trkpt>
   <trkpt lat="-3.1262450" lon="37.3730740">
    <ele>3968.2</ele>
    <time>2026-06-23T10:55:13Z</time>
   </trkpt>
   <trkpt lat="-3.1262520" lon="37.3730710">
    <ele>3968.1</ele>
    <time>2026-06-23T10:55:14Z</time>
   </trkpt>
   <trkpt lat="-3.1262570" lon="37.3730650">
    <ele>3968.1</ele>
    <time>2026-06-23T10:55:15Z</time>
   </trkpt>
   <trkpt lat="-3.1262680" lon="37.3730600">
    <ele>3968.0</ele>
    <time>2026-06-23T10:55:16Z</time>
   </trkpt>
   <trkpt lat="-3.1262790" lon="37.3730620">
    <ele>3967.9</ele>
    <time>2026-06-23T10:55:17Z</time>
   </trkpt>
   <trkpt lat="-3.1262900" lon="37.3730630">
    <ele>3967.8</ele>
    <time>2026-06-23T10:55:18Z</time>
   </trkpt>
   <trkpt lat="-3.1263000" lon="37.3730600">
    <ele>3967.7</ele>
    <time>2026-06-23T10:55:19Z</time>
   </trkpt>
   <trkpt lat="-3.1263080" lon="37.3730520">
    <ele>3967.6</ele>
    <time>2026-06-23T10:55:20Z</time>
   </trkpt>
   <trkpt lat="-3.1263200" lon="37.3730440">
    <ele>3967.5</ele>
    <time>2026-06-23T10:55:21Z</time>
   </trkpt>
   <trkpt lat="-3.1263310" lon="37.3730400">
    <ele>3967.4</ele>
    <time>2026-06-23T10:55:22Z</time>
   </trkpt>
   <trkpt lat="-3.1263390" lon="37.3730350">
    <ele>3967.4</ele>
    <time>2026-06-23T10:55:23Z</time>
   </trkpt>
   <trkpt lat="-3.1263470" lon="37.3730280">
    <ele>3967.3</ele>
    <time>2026-06-23T10:55:24Z</time>
   </trkpt>
   <trkpt lat="-3.1263570" lon="37.3730220">
    <ele>3967.2</ele>
    <time>2026-06-23T10:55:25Z</time>
   </trkpt>
   <trkpt lat="-3.1263640" lon="37.3730160">
    <ele>3967.1</ele>
    <time>2026-06-23T10:55:26Z</time>
   </trkpt>
   <trkpt lat="-3.1263690" lon="37.3730090">
    <ele>3967.0</ele>
    <time>2026-06-23T10:55:27Z</time>
   </trkpt>
   <trkpt lat="-3.1263730" lon="37.3730030">
    <ele>3967.0</ele>
    <time>2026-06-23T10:55:28Z</time>
   </trkpt>
   <trkpt lat="-3.1263770" lon="37.3729960">
    <ele>3966.9</ele>
    <time>2026-06-23T10:55:29Z</time>
   </trkpt>
   <trkpt lat="-3.1263860" lon="37.3729890">
    <ele>3966.8</ele>
    <time>2026-06-23T10:55:30Z</time>
   </trkpt>
   <trkpt lat="-3.1263950" lon="37.3729860">
    <ele>3966.7</ele>
    <time>2026-06-23T10:55:31Z</time>
   </trkpt>
   <trkpt lat="-3.1264020" lon="37.3729840">
    <ele>3966.6</ele>
    <time>2026-06-23T10:55:32Z</time>
   </trkpt>
   <trkpt lat="-3.1264080" lon="37.3729830">
    <ele>3966.5</ele>
    <time>2026-06-23T10:55:33Z</time>
   </trkpt>
   <trkpt lat="-3.1264110" lon="37.3729830">
    <ele>3966.5</ele>
    <time>2026-06-23T10:55:34Z</time>
   </trkpt>
   <trkpt lat="-3.1264170" lon="37.3729840">
    <ele>3966.4</ele>
    <time>2026-06-23T10:55:35Z</time>
   </trkpt>
   <trkpt lat="-3.1264240" lon="37.3729820">
    <ele>3966.3</ele>
    <time>2026-06-23T10:55:36Z</time>
   </trkpt>
   <trkpt lat="-3.1264350" lon="37.3729760">
    <ele>3966.2</ele>
    <time>2026-06-23T10:55:37Z</time>
   </trkpt>
   <trkpt lat="-3.1264460" lon="37.3729720">
    <ele>3966.1</ele>
    <time>2026-06-23T10:55:38Z</time>
   </trkpt>
   <trkpt lat="-3.1264530" lon="37.3729720">
    <ele>3966.0</ele>
    <time>2026-06-23T10:55:39Z</time>
   </trkpt>
   <trkpt lat="-3.1264590" lon="37.3729680">
    <ele>3965.9</ele>
    <time>2026-06-23T10:55:40Z</time>
   </trkpt>
   <trkpt lat="-3.1264660" lon="37.3729670">
    <ele>3965.8</ele>
    <time>2026-06-23T10:55:41Z</time>
   </trkpt>
   <trkpt lat="-3.1264750" lon="37.3729650">
    <ele>3965.6</ele>
    <time>2026-06-23T10:55:42Z</time>
   </trkpt>
   <trkpt lat="-3.1264840" lon="37.3729630">
    <ele>3965.5</ele>
    <time>2026-06-23T10:55:43Z</time>
   </trkpt>
   <trkpt lat="-3.1264910" lon="37.3729580">
    <ele>3965.4</ele>
    <time>2026-06-23T10:55:44Z</time>
   </trkpt>
   <trkpt lat="-3.1264950" lon="37.3729490">
    <ele>3965.2</ele>
    <time>2026-06-23T10:55:45Z</time>
   </trkpt>
   <trkpt lat="-3.1264980" lon="37.3729400">
    <ele>3965.1</ele>
    <time>2026-06-23T10:55:46Z</time>
   </trkpt>
   <trkpt lat="-3.1265060" lon="37.3729320">
    <ele>3964.9</ele>
    <time>2026-06-23T10:55:47Z</time>
   </trkpt>
   <trkpt lat="-3.1265120" lon="37.3729280">
    <ele>3964.8</ele>
    <time>2026-06-23T10:55:48Z</time>
   </trkpt>
   <trkpt lat="-3.1265180" lon="37.3729250">
    <ele>3964.7</ele>
    <time>2026-06-23T10:55:49Z</time>
   </trkpt>
   <trkpt lat="-3.1265190" lon="37.3729250">
    <ele>3964.7</ele>
    <time>2026-06-23T10:55:50Z</time>
   </trkpt>
   <trkpt lat="-3.1265160" lon="37.3729270">
    <ele>3964.6</ele>
    <time>2026-06-23T10:55:51Z</time>
   </trkpt>
   <trkpt lat="-3.1265170" lon="37.3729270">
    <ele>3964.6</ele>
    <time>2026-06-23T10:55:52Z</time>
   </trkpt>
   <trkpt lat="-3.1265260" lon="37.3729250">
    <ele>3964.4</ele>
    <time>2026-06-23T10:55:53Z</time>
   </trkpt>
   <trkpt lat="-3.1265350" lon="37.3729250">
    <ele>3964.2</ele>
    <time>2026-06-23T10:55:54Z</time>
   </trkpt>
   <trkpt lat="-3.1265410" lon="37.3729230">
    <ele>3964.1</ele>
    <time>2026-06-23T10:55:55Z</time>
   </trkpt>
   <trkpt lat="-3.1265460" lon="37.3729220">
    <ele>3964.0</ele>
    <time>2026-06-23T10:55:56Z</time>
   </trkpt>
   <trkpt lat="-3.1265520" lon="37.3729260">
    <ele>3963.9</ele>
    <time>2026-06-23T10:55:57Z</time>
   </trkpt>
   <trkpt lat="-3.1265580" lon="37.3729300">
    <ele>3963.8</ele>
    <time>2026-06-23T10:55:58Z</time>
   </trkpt>
   <trkpt lat="-3.1265650" lon="37.3729310">
    <ele>3963.6</ele>
    <time>2026-06-23T10:55:59Z</time>
   </trkpt>
   <trkpt lat="-3.1265700" lon="37.3729300">
    <ele>3963.5</ele>
    <time>2026-06-23T10:56:00Z</time>
   </trkpt>
   <trkpt lat="-3.1265770" lon="37.3729270">
    <ele>3963.4</ele>
    <time>2026-06-23T10:56:01Z</time>
   </trkpt>
   <trkpt lat="-3.1265830" lon="37.3729240">
    <ele>3963.3</ele>
    <time>2026-06-23T10:56:02Z</time>
   </trkpt>
   <trkpt lat="-3.1265870" lon="37.3729220">
    <ele>3963.2</ele>
    <time>2026-06-23T10:56:03Z</time>
   </trkpt>
   <trkpt lat="-3.1265890" lon="37.3729220">
    <ele>3963.1</ele>
    <time>2026-06-23T10:56:04Z</time>
   </trkpt>
   <trkpt lat="-3.1265940" lon="37.3729180">
    <ele>3963.0</ele>
    <time>2026-06-23T10:56:05Z</time>
   </trkpt>
   <trkpt lat="-3.1266030" lon="37.3729150">
    <ele>3962.8</ele>
    <time>2026-06-23T10:56:06Z</time>
   </trkpt>
   <trkpt lat="-3.1266090" lon="37.3729160">
    <ele>3962.7</ele>
    <time>2026-06-23T10:56:07Z</time>
   </trkpt>
   <trkpt lat="-3.1266150" lon="37.3729140">
    <ele>3962.5</ele>
    <time>2026-06-23T10:56:08Z</time>
   </trkpt>
   <trkpt lat="-3.1266200" lon="37.3729070">
    <ele>3962.4</ele>
    <time>2026-06-23T10:56:09Z</time>
   </trkpt>
   <trkpt lat="-3.1266250" lon="37.3729000">
    <ele>3962.2</ele>
    <time>2026-06-23T10:56:10Z</time>
   </trkpt>
   <trkpt lat="-3.1266300" lon="37.3728970">
    <ele>3962.1</ele>
    <time>2026-06-23T10:56:11Z</time>
   </trkpt>
   <trkpt lat="-3.1266350" lon="37.3728950">
    <ele>3961.9</ele>
    <time>2026-06-23T10:56:12Z</time>
   </trkpt>
   <trkpt lat="-3.1266410" lon="37.3728890">
    <ele>3961.8</ele>
    <time>2026-06-23T10:56:13Z</time>
   </trkpt>
   <trkpt lat="-3.1266440" lon="37.3728820">
    <ele>3961.6</ele>
    <time>2026-06-23T10:56:14Z</time>
   </trkpt>
   <trkpt lat="-3.1266490" lon="37.3728780">
    <ele>3961.4</ele>
    <time>2026-06-23T10:56:15Z</time>
   </trkpt>
   <trkpt lat="-3.1266570" lon="37.3728760">
    <ele>3961.3</ele>
    <time>2026-06-23T10:56:16Z</time>
   </trkpt>
   <trkpt lat="-3.1266630" lon="37.3728760">
    <ele>3961.1</ele>
    <time>2026-06-23T10:56:17Z</time>
   </trkpt>
   <trkpt lat="-3.1266720" lon="37.3728720">
    <ele>3960.9</ele>
    <time>2026-06-23T10:56:18Z</time>
   </trkpt>
   <trkpt lat="-3.1266740" lon="37.3728690">
    <ele>3960.8</ele>
    <time>2026-06-23T10:56:19Z</time>
   </trkpt>
   <trkpt lat="-3.1266780" lon="37.3728610">
    <ele>3960.6</ele>
    <time>2026-06-23T10:56:20Z</time>
   </trkpt>
   <trkpt lat="-3.1266820" lon="37.3728490">
    <ele>3960.3</ele>
    <time>2026-06-23T10:56:21Z</time>
   </trkpt>
   <trkpt lat="-3.1266860" lon="37.3728450">
    <ele>3960.2</ele>
    <time>2026-06-23T10:56:22Z</time>
   </trkpt>
   <trkpt lat="-3.1266930" lon="37.3728430">
    <ele>3960.0</ele>
    <time>2026-06-23T10:56:23Z</time>
   </trkpt>
   <trkpt lat="-3.1267040" lon="37.3728380">
    <ele>3959.8</ele>
    <time>2026-06-23T10:56:24Z</time>
   </trkpt>
   <trkpt lat="-3.1267090" lon="37.3728390">
    <ele>3959.6</ele>
    <time>2026-06-23T10:56:25Z</time>
   </trkpt>
   <trkpt lat="-3.1267160" lon="37.3728420">
    <ele>3959.5</ele>
    <time>2026-06-23T10:56:26Z</time>
   </trkpt>
   <trkpt lat="-3.1267260" lon="37.3728410">
    <ele>3959.2</ele>
    <time>2026-06-23T10:56:27Z</time>
   </trkpt>
   <trkpt lat="-3.1267310" lon="37.3728340">
    <ele>3959.1</ele>
    <time>2026-06-23T10:56:28Z</time>
   </trkpt>
   <trkpt lat="-3.1267330" lon="37.3728270">
    <ele>3958.9</ele>
    <time>2026-06-23T10:56:29Z</time>
   </trkpt>
   <trkpt lat="-3.1267380" lon="37.3728190">
    <ele>3958.7</ele>
    <time>2026-06-23T10:56:30Z</time>
   </trkpt>
   <trkpt lat="-3.1267410" lon="37.3728120">
    <ele>3958.5</ele>
    <time>2026-06-23T10:56:31Z</time>
   </trkpt>
   <trkpt lat="-3.1267460" lon="37.3728070">
    <ele>3958.3</ele>
    <time>2026-06-23T10:56:32Z</time>
   </trkpt>
   <trkpt lat="-3.1267510" lon="37.3728040">
    <ele>3958.2</ele>
    <time>2026-06-23T10:56:33Z</time>
   </trkpt>
   <trkpt lat="-3.1267570" lon="37.3727990">
    <ele>3958.0</ele>
    <time>2026-06-23T10:56:34Z</time>
   </trkpt>
   <trkpt lat="-3.1267640" lon="37.3727950">
    <ele>3957.9</ele>
    <time>2026-06-23T10:56:35Z</time>
   </trkpt>
   <trkpt lat="-3.1267660" lon="37.3727900">
    <ele>3957.7</ele>
    <time>2026-06-23T10:56:36Z</time>
   </trkpt>
   <trkpt lat="-3.1267680" lon="37.3727890">
    <ele>3957.7</ele>
    <time>2026-06-23T10:56:37Z</time>
   </trkpt>
   <trkpt lat="-3.1267740" lon="37.3727860">
    <ele>3957.5</ele>
    <time>2026-06-23T10:56:38Z</time>
   </trkpt>
   <trkpt lat="-3.1267800" lon="37.3727820">
    <ele>3957.4</ele>
    <time>2026-06-23T10:56:39Z</time>
   </trkpt>
   <trkpt lat="-3.1267850" lon="37.3727760">
    <ele>3957.2</ele>
    <time>2026-06-23T10:56:40Z</time>
   </trkpt>
   <trkpt lat="-3.1267910" lon="37.3727720">
    <ele>3957.0</ele>
    <time>2026-06-23T10:56:41Z</time>
   </trkpt>
   <trkpt lat="-3.1268000" lon="37.3727680">
    <ele>3956.8</ele>
    <time>2026-06-23T10:56:42Z</time>
   </trkpt>
   <trkpt lat="-3.1268080" lon="37.3727640">
    <ele>3956.6</ele>
    <time>2026-06-23T10:56:43Z</time>
   </trkpt>
   <trkpt lat="-3.1268140" lon="37.3727600">
    <ele>3956.4</ele>
    <time>2026-06-23T10:56:44Z</time>
   </trkpt>
   <trkpt lat="-3.1268150" lon="37.3727570">
    <ele>3956.4</ele>
    <time>2026-06-23T10:56:45Z</time>
   </trkpt>
   <trkpt lat="-3.1268180" lon="37.3727510">
    <ele>3956.2</ele>
    <time>2026-06-23T10:56:46Z</time>
   </trkpt>
   <trkpt lat="-3.1268240" lon="37.3727430">
    <ele>3956.0</ele>
    <time>2026-06-23T10:56:47Z</time>
   </trkpt>
   <trkpt lat="-3.1268300" lon="37.3727370">
    <ele>3955.8</ele>
    <time>2026-06-23T10:56:48Z</time>
   </trkpt>
   <trkpt lat="-3.1268350" lon="37.3727330">
    <ele>3955.7</ele>
    <time>2026-06-23T10:56:49Z</time>
   </trkpt>
   <trkpt lat="-3.1268420" lon="37.3727270">
    <ele>3955.5</ele>
    <time>2026-06-23T10:56:50Z</time>
   </trkpt>
   <trkpt lat="-3.1268500" lon="37.3727210">
    <ele>3955.2</ele>
    <time>2026-06-23T10:56:51Z</time>
   </trkpt>
   <trkpt lat="-3.1268580" lon="37.3727140">
    <ele>3955.0</ele>
    <time>2026-06-23T10:56:52Z</time>
   </trkpt>
   <trkpt lat="-3.1268640" lon="37.3727080">
    <ele>3954.8</ele>
    <time>2026-06-23T10:56:53Z</time>
   </trkpt>
   <trkpt lat="-3.1268720" lon="37.3727010">
    <ele>3954.6</ele>
    <time>2026-06-23T10:56:54Z</time>
   </trkpt>
   <trkpt lat="-3.1268770" lon="37.3726980">
    <ele>3954.5</ele>
    <time>2026-06-23T10:56:55Z</time>
   </trkpt>
   <trkpt lat="-3.1268810" lon="37.3726960">
    <ele>3954.4</ele>
    <time>2026-06-23T10:56:56Z</time>
   </trkpt>
   <trkpt lat="-3.1268860" lon="37.3726930">
    <ele>3954.3</ele>
    <time>2026-06-23T10:56:57Z</time>
   </trkpt>
   <trkpt lat="-3.1268900" lon="37.3726880">
    <ele>3954.1</ele>
    <time>2026-06-23T10:56:58Z</time>
   </trkpt>
   <trkpt lat="-3.1268990" lon="37.3726800">
    <ele>3953.9</ele>
    <time>2026-06-23T10:56:59Z</time>
   </trkpt>
   <trkpt lat="-3.1269080" lon="37.3726760">
    <ele>3953.6</ele>
    <time>2026-06-23T10:57:00Z</time>
   </trkpt>
   <trkpt lat="-3.1269150" lon="37.3726720">
    <ele>3953.5</ele>
    <time>2026-06-23T10:57:01Z</time>
   </trkpt>
   <trkpt lat="-3.1269220" lon="37.3726660">
    <ele>3953.3</ele>
    <time>2026-06-23T10:57:02Z</time>
   </trkpt>
   <trkpt lat="-3.1269270" lon="37.3726650">
    <ele>3953.2</ele>
    <time>2026-06-23T10:57:03Z</time>
   </trkpt>
   <trkpt lat="-3.1269350" lon="37.3726590">
    <ele>3953.0</ele>
    <time>2026-06-23T10:57:04Z</time>
   </trkpt>
   <trkpt lat="-3.1269410" lon="37.3726540">
    <ele>3952.8</ele>
    <time>2026-06-23T10:57:05Z</time>
   </trkpt>
   <trkpt lat="-3.1269460" lon="37.3726480">
    <ele>3952.6</ele>
    <time>2026-06-23T10:57:06Z</time>
   </trkpt>
   <trkpt lat="-3.1269520" lon="37.3726410">
    <ele>3952.4</ele>
    <time>2026-06-23T10:57:07Z</time>
   </trkpt>
   <trkpt lat="-3.1269560" lon="37.3726390">
    <ele>3952.3</ele>
    <time>2026-06-23T10:57:08Z</time>
   </trkpt>
   <trkpt lat="-3.1269640" lon="37.3726350">
    <ele>3952.2</ele>
    <time>2026-06-23T10:57:09Z</time>
   </trkpt>
   <trkpt lat="-3.1269700" lon="37.3726300">
    <ele>3952.0</ele>
    <time>2026-06-23T10:57:10Z</time>
   </trkpt>
   <trkpt lat="-3.1269760" lon="37.3726260">
    <ele>3951.8</ele>
    <time>2026-06-23T10:57:11Z</time>
   </trkpt>
   <trkpt lat="-3.1269800" lon="37.3726200">
    <ele>3951.7</ele>
    <time>2026-06-23T10:57:12Z</time>
   </trkpt>
   <trkpt lat="-3.1269860" lon="37.3726110">
    <ele>3951.5</ele>
    <time>2026-06-23T10:57:13Z</time>
   </trkpt>
   <trkpt lat="-3.1269870" lon="37.3726040">
    <ele>3951.3</ele>
    <time>2026-06-23T10:57:14Z</time>
   </trkpt>
   <trkpt lat="-3.1269870" lon="37.3726000">
    <ele>3951.2</ele>
    <time>2026-06-23T10:57:15Z</time>
   </trkpt>
   <trkpt lat="-3.1269880" lon="37.3725930">
    <ele>3951.1</ele>
    <time>2026-06-23T10:57:16Z</time>
   </trkpt>
   <trkpt lat="-3.1269920" lon="37.3725890">
    <ele>3951.0</ele>
    <time>2026-06-23T10:57:17Z</time>
   </trkpt>
   <trkpt lat="-3.1269990" lon="37.3725820">
    <ele>3950.8</ele>
    <time>2026-06-23T10:57:18Z</time>
   </trkpt>
   <trkpt lat="-3.1270060" lon="37.3725790">
    <ele>3950.6</ele>
    <time>2026-06-23T10:57:19Z</time>
   </trkpt>
   <trkpt lat="-3.1270120" lon="37.3725730">
    <ele>3950.4</ele>
    <time>2026-06-23T10:57:20Z</time>
   </trkpt>
   <trkpt lat="-3.1270180" lon="37.3725720">
    <ele>3950.3</ele>
    <time>2026-06-23T10:57:21Z</time>
   </trkpt>
   <trkpt lat="-3.1270270" lon="37.3725690">
    <ele>3950.1</ele>
    <time>2026-06-23T10:57:22Z</time>
   </trkpt>
   <trkpt lat="-3.1270350" lon="37.3725680">
    <ele>3949.9</ele>
    <time>2026-06-23T10:57:23Z</time>
   </trkpt>
   <trkpt lat="-3.1270440" lon="37.3725670">
    <ele>3949.7</ele>
    <time>2026-06-23T10:57:24Z</time>
   </trkpt>
   <trkpt lat="-3.1270540" lon="37.3725680">
    <ele>3949.5</ele>
    <time>2026-06-23T10:57:25Z</time>
   </trkpt>
   <trkpt lat="-3.1270630" lon="37.3725710">
    <ele>3949.3</ele>
    <time>2026-06-23T10:57:26Z</time>
   </trkpt>
   <trkpt lat="-3.1270710" lon="37.3725710">
    <ele>3949.2</ele>
    <time>2026-06-23T10:57:27Z</time>
   </trkpt>
   <trkpt lat="-3.1270790" lon="37.3725670">
    <ele>3949.0</ele>
    <time>2026-06-23T10:57:28Z</time>
   </trkpt>
   <trkpt lat="-3.1270860" lon="37.3725610">
    <ele>3948.8</ele>
    <time>2026-06-23T10:57:29Z</time>
   </trkpt>
   <trkpt lat="-3.1270930" lon="37.3725540">
    <ele>3948.6</ele>
    <time>2026-06-23T10:57:30Z</time>
   </trkpt>
   <trkpt lat="-3.1271000" lon="37.3725500">
    <ele>3948.4</ele>
    <time>2026-06-23T10:57:31Z</time>
   </trkpt>
   <trkpt lat="-3.1271080" lon="37.3725480">
    <ele>3948.2</ele>
    <time>2026-06-23T10:57:32Z</time>
   </trkpt>
   <trkpt lat="-3.1271150" lon="37.3725480">
    <ele>3948.1</ele>
    <time>2026-06-23T10:57:33Z</time>
   </trkpt>
   <trkpt lat="-3.1271230" lon="37.3725440">
    <ele>3947.9</ele>
    <time>2026-06-23T10:57:34Z</time>
   </trkpt>
   <trkpt lat="-3.1271290" lon="37.3725390">
    <ele>3947.7</ele>
    <time>2026-06-23T10:57:35Z</time>
   </trkpt>
   <trkpt lat="-3.1271340" lon="37.3725280">
    <ele>3947.5</ele>
    <time>2026-06-23T10:57:36Z</time>
   </trkpt>
   <trkpt lat="-3.1271370" lon="37.3725180">
    <ele>3947.2</ele>
    <time>2026-06-23T10:57:37Z</time>
   </trkpt>
   <trkpt lat="-3.1271380" lon="37.3725110">
    <ele>3947.1</ele>
    <time>2026-06-23T10:57:38Z</time>
   </trkpt>
   <trkpt lat="-3.1271430" lon="37.3725020">
    <ele>3946.9</ele>
    <time>2026-06-23T10:57:39Z</time>
   </trkpt>
   <trkpt lat="-3.1271480" lon="37.3725000">
    <ele>3946.8</ele>
    <time>2026-06-23T10:57:40Z</time>
   </trkpt>
   <trkpt lat="-3.1271530" lon="37.3724970">
    <ele>3946.6</ele>
    <time>2026-06-23T10:57:41Z</time>
   </trkpt>
   <trkpt lat="-3.1271590" lon="37.3724910">
    <ele>3946.4</ele>
    <time>2026-06-23T10:57:42Z</time>
   </trkpt>
   <trkpt lat="-3.1271620" lon="37.3724840">
    <ele>3946.3</ele>
    <time>2026-06-23T10:57:43Z</time>
   </trkpt>
   <trkpt lat="-3.1271670" lon="37.3724780">
    <ele>3946.1</ele>
    <time>2026-06-23T10:57:44Z</time>
   </trkpt>
   <trkpt lat="-3.1271760" lon="37.3724760">
    <ele>3945.9</ele>
    <time>2026-06-23T10:57:45Z</time>
   </trkpt>
   <trkpt lat="-3.1271880" lon="37.3724740">
    <ele>3945.7</ele>
    <time>2026-06-23T10:57:46Z</time>
   </trkpt>
   <trkpt lat="-3.1271980" lon="37.3724720">
    <ele>3945.4</ele>
    <time>2026-06-23T10:57:47Z</time>
   </trkpt>
   <trkpt lat="-3.1272080" lon="37.3724720">
    <ele>3945.2</ele>
    <time>2026-06-23T10:57:48Z</time>
   </trkpt>
   <trkpt lat="-3.1272170" lon="37.3724700">
    <ele>3945.0</ele>
    <time>2026-06-23T10:57:49Z</time>
   </trkpt>
   <trkpt lat="-3.1272240" lon="37.3724670">
    <ele>3944.9</ele>
    <time>2026-06-23T10:57:50Z</time>
   </trkpt>
   <trkpt lat="-3.1272320" lon="37.3724600">
    <ele>3944.6</ele>
    <time>2026-06-23T10:57:51Z</time>
   </trkpt>
   <trkpt lat="-3.1272380" lon="37.3724540">
    <ele>3944.5</ele>
    <time>2026-06-23T10:57:52Z</time>
   </trkpt>
   <trkpt lat="-3.1272450" lon="37.3724490">
    <ele>3944.3</ele>
    <time>2026-06-23T10:57:53Z</time>
   </trkpt>
   <trkpt lat="-3.1272530" lon="37.3724430">
    <ele>3944.1</ele>
    <time>2026-06-23T10:57:54Z</time>
   </trkpt>
   <trkpt lat="-3.1272600" lon="37.3724360">
    <ele>3943.8</ele>
    <time>2026-06-23T10:57:55Z</time>
   </trkpt>
   <trkpt lat="-3.1272650" lon="37.3724300">
    <ele>3943.7</ele>
    <time>2026-06-23T10:57:56Z</time>
   </trkpt>
   <trkpt lat="-3.1272710" lon="37.3724230">
    <ele>3943.5</ele>
    <time>2026-06-23T10:57:57Z</time>
   </trkpt>
   <trkpt lat="-3.1272790" lon="37.3724190">
    <ele>3943.3</ele>
    <time>2026-06-23T10:57:58Z</time>
   </trkpt>
   <trkpt lat="-3.1272880" lon="37.3724110">
    <ele>3943.0</ele>
    <time>2026-06-23T10:57:59Z</time>
   </trkpt>
   <trkpt lat="-3.1272950" lon="37.3724050">
    <ele>3942.8</ele>
    <time>2026-06-23T10:58:00Z</time>
   </trkpt>
   <trkpt lat="-3.1272980" lon="37.3723980">
    <ele>3942.7</ele>
    <time>2026-06-23T10:58:01Z</time>
   </trkpt>
   <trkpt lat="-3.1273020" lon="37.3723880">
    <ele>3942.4</ele>
    <time>2026-06-23T10:58:02Z</time>
   </trkpt>
   <trkpt lat="-3.1273060" lon="37.3723810">
    <ele>3942.2</ele>
    <time>2026-06-23T10:58:03Z</time>
   </trkpt>
   <trkpt lat="-3.1273100" lon="37.3723760">
    <ele>3942.1</ele>
    <time>2026-06-23T10:58:04Z</time>
   </trkpt>
   <trkpt lat="-3.1273140" lon="37.3723690">
    <ele>3941.9</ele>
    <time>2026-06-23T10:58:05Z</time>
   </trkpt>
   <trkpt lat="-3.1273200" lon="37.3723630">
    <ele>3941.7</ele>
    <time>2026-06-23T10:58:06Z</time>
   </trkpt>
   <trkpt lat="-3.1273240" lon="37.3723570">
    <ele>3941.6</ele>
    <time>2026-06-23T10:58:07Z</time>
   </trkpt>
   <trkpt lat="-3.1273300" lon="37.3723510">
    <ele>3941.4</ele>
    <time>2026-06-23T10:58:08Z</time>
   </trkpt>
   <trkpt lat="-3.1273340" lon="37.3723500">
    <ele>3941.3</ele>
    <time>2026-06-23T10:58:09Z</time>
   </trkpt>
   <trkpt lat="-3.1273430" lon="37.3723470">
    <ele>3941.1</ele>
    <time>2026-06-23T10:58:10Z</time>
   </trkpt>
   <trkpt lat="-3.1273510" lon="37.3723450">
    <ele>3940.9</ele>
    <time>2026-06-23T10:58:11Z</time>
   </trkpt>
   <trkpt lat="-3.1273540" lon="37.3723410">
    <ele>3940.8</ele>
    <time>2026-06-23T10:58:12Z</time>
   </trkpt>
   <trkpt lat="-3.1273580" lon="37.3723370">
    <ele>3940.7</ele>
    <time>2026-06-23T10:58:13Z</time>
   </trkpt>
   <trkpt lat="-3.1273650" lon="37.3723360">
    <ele>3940.5</ele>
    <time>2026-06-23T10:58:14Z</time>
   </trkpt>
   <trkpt lat="-3.1273720" lon="37.3723370">
    <ele>3940.4</ele>
    <time>2026-06-23T10:58:15Z</time>
   </trkpt>
   <trkpt lat="-3.1273800" lon="37.3723370">
    <ele>3940.2</ele>
    <time>2026-06-23T10:58:16Z</time>
   </trkpt>
   <trkpt lat="-3.1273870" lon="37.3723350">
    <ele>3940.0</ele>
    <time>2026-06-23T10:58:17Z</time>
   </trkpt>
   <trkpt lat="-3.1273950" lon="37.3723330">
    <ele>3939.8</ele>
    <time>2026-06-23T10:58:18Z</time>
   </trkpt>
   <trkpt lat="-3.1274000" lon="37.3723290">
    <ele>3939.7</ele>
    <time>2026-06-23T10:58:19Z</time>
   </trkpt>
   <trkpt lat="-3.1274070" lon="37.3723250">
    <ele>3939.5</ele>
    <time>2026-06-23T10:58:20Z</time>
   </trkpt>
   <trkpt lat="-3.1274120" lon="37.3723220">
    <ele>3939.4</ele>
    <time>2026-06-23T10:58:21Z</time>
   </trkpt>
   <trkpt lat="-3.1274160" lon="37.3723180">
    <ele>3939.3</ele>
    <time>2026-06-23T10:58:22Z</time>
   </trkpt>
   <trkpt lat="-3.1274170" lon="37.3723160">
    <ele>3939.2</ele>
    <time>2026-06-23T10:58:23Z</time>
   </trkpt>
   <trkpt lat="-3.1274210" lon="37.3723130">
    <ele>3939.1</ele>
    <time>2026-06-23T10:58:24Z</time>
   </trkpt>
   <trkpt lat="-3.1274270" lon="37.3723090">
    <ele>3938.9</ele>
    <time>2026-06-23T10:58:25Z</time>
   </trkpt>
   <trkpt lat="-3.1274300" lon="37.3723070">
    <ele>3938.8</ele>
    <time>2026-06-23T10:58:26Z</time>
   </trkpt>
   <trkpt lat="-3.1274370" lon="37.3723030">
    <ele>3938.6</ele>
    <time>2026-06-23T10:58:27Z</time>
   </trkpt>
   <trkpt lat="-3.1274420" lon="37.3723020">
    <ele>3938.4</ele>
    <time>2026-06-23T10:58:28Z</time>
   </trkpt>
   <trkpt lat="-3.1274480" lon="37.3723030">
    <ele>3938.3</ele>
    <time>2026-06-23T10:58:29Z</time>
   </trkpt>
   <trkpt lat="-3.1274550" lon="37.3723020">
    <ele>3938.1</ele>
    <time>2026-06-23T10:58:30Z</time>
   </trkpt>
   <trkpt lat="-3.1274620" lon="37.3723030">
    <ele>3937.9</ele>
    <time>2026-06-23T10:58:31Z</time>
   </trkpt>
   <trkpt lat="-3.1274660" lon="37.3722990">
    <ele>3937.8</ele>
    <time>2026-06-23T10:58:32Z</time>
   </trkpt>
   <trkpt lat="-3.1274740" lon="37.3722940">
    <ele>3937.5</ele>
    <time>2026-06-23T10:58:33Z</time>
   </trkpt>
   <trkpt lat="-3.1274780" lon="37.3722950">
    <ele>3937.4</ele>
    <time>2026-06-23T10:58:34Z</time>
   </trkpt>
   <trkpt lat="-3.1274780" lon="37.3723000">
    <ele>3937.3</ele>
    <time>2026-06-23T10:58:35Z</time>
   </trkpt>
   <trkpt lat="-3.1274820" lon="37.3723060">
    <ele>3937.1</ele>
    <time>2026-06-23T10:58:36Z</time>
   </trkpt>
   <trkpt lat="-3.1274810" lon="37.3723070">
    <ele>3937.1</ele>
    <time>2026-06-23T10:58:37Z</time>
   </trkpt>
   <trkpt lat="-3.1274820" lon="37.3723060">
    <ele>3937.0</ele>
    <time>2026-06-23T10:58:38Z</time>
   </trkpt>
   <trkpt lat="-3.1274880" lon="37.3723080">
    <ele>3936.9</ele>
    <time>2026-06-23T10:58:39Z</time>
   </trkpt>
   <trkpt lat="-3.1274960" lon="37.3723100">
    <ele>3936.7</ele>
    <time>2026-06-23T10:58:40Z</time>
   </trkpt>
   <trkpt lat="-3.1275030" lon="37.3723110">
    <ele>3936.5</ele>
    <time>2026-06-23T10:58:41Z</time>
   </trkpt>
   <trkpt lat="-3.1275060" lon="37.3723120">
    <ele>3936.4</ele>
    <time>2026-06-23T10:58:42Z</time>
   </trkpt>
   <trkpt lat="-3.1275130" lon="37.3723150">
    <ele>3936.2</ele>
    <time>2026-06-23T10:58:43Z</time>
   </trkpt>
   <trkpt lat="-3.1275150" lon="37.3723200">
    <ele>3936.1</ele>
    <time>2026-06-23T10:58:44Z</time>
   </trkpt>
   <trkpt lat="-3.1275160" lon="37.3723240">
    <ele>3936.0</ele>
    <time>2026-06-23T10:58:45Z</time>
   </trkpt>
   <trkpt lat="-3.1275190" lon="37.3723270">
    <ele>3935.9</ele>
    <time>2026-06-23T10:58:46Z</time>
   </trkpt>
   <trkpt lat="-3.1275270" lon="37.3723330">
    <ele>3935.6</ele>
    <time>2026-06-23T10:58:47Z</time>
   </trkpt>
   <trkpt lat="-3.1275350" lon="37.3723370">
    <ele>3935.4</ele>
    <time>2026-06-23T10:58:48Z</time>
   </trkpt>
   <trkpt lat="-3.1275440" lon="37.3723400">
    <ele>3935.1</ele>
    <time>2026-06-23T10:58:49Z</time>
   </trkpt>
   <trkpt lat="-3.1275500" lon="37.3723410">
    <ele>3935.0</ele>
    <time>2026-06-23T10:58:50Z</time>
   </trkpt>
   <trkpt lat="-3.1275570" lon="37.3723400">
    <ele>3934.8</ele>
    <time>2026-06-23T10:58:51Z</time>
   </trkpt>
   <trkpt lat="-3.1275640" lon="37.3723390">
    <ele>3934.6</ele>
    <time>2026-06-23T10:58:52Z</time>
   </trkpt>
   <trkpt lat="-3.1275720" lon="37.3723370">
    <ele>3934.4</ele>
    <time>2026-06-23T10:58:53Z</time>
   </trkpt>
   <trkpt lat="-3.1275790" lon="37.3723330">
    <ele>3934.2</ele>
    <time>2026-06-23T10:58:54Z</time>
   </trkpt>
   <trkpt lat="-3.1275860" lon="37.3723290">
    <ele>3934.0</ele>
    <time>2026-06-23T10:58:55Z</time>
   </trkpt>
   <trkpt lat="-3.1275910" lon="37.3723250">
    <ele>3933.8</ele>
    <time>2026-06-23T10:58:56Z</time>
   </trkpt>
   <trkpt lat="-3.1275950" lon="37.3723220">
    <ele>3933.7</ele>
    <time>2026-06-23T10:58:57Z</time>
   </trkpt>
   <trkpt lat="-3.1275990" lon="37.3723220">
    <ele>3933.6</ele>
    <time>2026-06-23T10:58:58Z</time>
   </trkpt>
   <trkpt lat="-3.1276060" lon="37.3723220">
    <ele>3933.4</ele>
    <time>2026-06-23T10:58:59Z</time>
   </trkpt>
   <trkpt lat="-3.1276120" lon="37.3723200">
    <ele>3933.3</ele>
    <time>2026-06-23T10:59:00Z</time>
   </trkpt>
   <trkpt lat="-3.1276150" lon="37.3723200">
    <ele>3933.2</ele>
    <time>2026-06-23T10:59:01Z</time>
   </trkpt>
   <trkpt lat="-3.1276200" lon="37.3723200">
    <ele>3933.1</ele>
    <time>2026-06-23T10:59:02Z</time>
   </trkpt>
   <trkpt lat="-3.1276250" lon="37.3723210">
    <ele>3932.9</ele>
    <time>2026-06-23T10:59:03Z</time>
   </trkpt>
   <trkpt lat="-3.1276340" lon="37.3723200">
    <ele>3932.7</ele>
    <time>2026-06-23T10:59:04Z</time>
   </trkpt>
   <trkpt lat="-3.1276410" lon="37.3723190">
    <ele>3932.5</ele>
    <time>2026-06-23T10:59:05Z</time>
   </trkpt>
   <trkpt lat="-3.1276470" lon="37.3723190">
    <ele>3932.4</ele>
    <time>2026-06-23T10:59:06Z</time>
   </trkpt>
   <trkpt lat="-3.1276530" lon="37.3723190">
    <ele>3932.2</ele>
    <time>2026-06-23T10:59:07Z</time>
   </trkpt>
   <trkpt lat="-3.1276570" lon="37.3723190">
    <ele>3932.1</ele>
    <time>2026-06-23T10:59:08Z</time>
   </trkpt>
   <trkpt lat="-3.1276670" lon="37.3723220">
    <ele>3931.8</ele>
    <time>2026-06-23T10:59:09Z</time>
   </trkpt>
   <trkpt lat="-3.1276740" lon="37.3723210">
    <ele>3931.7</ele>
    <time>2026-06-23T10:59:10Z</time>
   </trkpt>
   <trkpt lat="-3.1276800" lon="37.3723160">
    <ele>3931.5</ele>
    <time>2026-06-23T10:59:11Z</time>
   </trkpt>
   <trkpt lat="-3.1276830" lon="37.3723150">
    <ele>3931.4</ele>
    <time>2026-06-23T10:59:12Z</time>
   </trkpt>
   <trkpt lat="-3.1276910" lon="37.3723120">
    <ele>3931.2</ele>
    <time>2026-06-23T10:59:13Z</time>
   </trkpt>
   <trkpt lat="-3.1276950" lon="37.3723100">
    <ele>3931.1</ele>
    <time>2026-06-23T10:59:14Z</time>
   </trkpt>
   <trkpt lat="-3.1277000" lon="37.3723090">
    <ele>3930.9</ele>
    <time>2026-06-23T10:59:15Z</time>
   </trkpt>
   <trkpt lat="-3.1277070" lon="37.3723060">
    <ele>3930.7</ele>
    <time>2026-06-23T10:59:16Z</time>
   </trkpt>
   <trkpt lat="-3.1277130" lon="37.3723070">
    <ele>3930.6</ele>
    <time>2026-06-23T10:59:17Z</time>
   </trkpt>
   <trkpt lat="-3.1277210" lon="37.3723070">
    <ele>3930.4</ele>
    <time>2026-06-23T10:59:18Z</time>
   </trkpt>
   <trkpt lat="-3.1277290" lon="37.3723080">
    <ele>3930.2</ele>
    <time>2026-06-23T10:59:19Z</time>
   </trkpt>
   <trkpt lat="-3.1277340" lon="37.3723110">
    <ele>3930.0</ele>
    <time>2026-06-23T10:59:20Z</time>
   </trkpt>
   <trkpt lat="-3.1277430" lon="37.3723150">
    <ele>3929.8</ele>
    <time>2026-06-23T10:59:21Z</time>
   </trkpt>
   <trkpt lat="-3.1277510" lon="37.3723190">
    <ele>3929.5</ele>
    <time>2026-06-23T10:59:22Z</time>
   </trkpt>
   <trkpt lat="-3.1277570" lon="37.3723240">
    <ele>3929.3</ele>
    <time>2026-06-23T10:59:23Z</time>
   </trkpt>
   <trkpt lat="-3.1277620" lon="37.3723280">
    <ele>3929.2</ele>
    <time>2026-06-23T10:59:24Z</time>
   </trkpt>
   <trkpt lat="-3.1277710" lon="37.3723320">
    <ele>3928.9</ele>
    <time>2026-06-23T10:59:25Z</time>
   </trkpt>
   <trkpt lat="-3.1277770" lon="37.3723320">
    <ele>3928.8</ele>
    <time>2026-06-23T10:59:26Z</time>
   </trkpt>
   <trkpt lat="-3.1277830" lon="37.3723280">
    <ele>3928.6</ele>
    <time>2026-06-23T10:59:27Z</time>
   </trkpt>
   <trkpt lat="-3.1277850" lon="37.3723210">
    <ele>3928.4</ele>
    <time>2026-06-23T10:59:28Z</time>
   </trkpt>
   <trkpt lat="-3.1277900" lon="37.3723120">
    <ele>3928.1</ele>
    <time>2026-06-23T10:59:29Z</time>
   </trkpt>
   <trkpt lat="-3.1277970" lon="37.3723060">
    <ele>3927.9</ele>
    <time>2026-06-23T10:59:30Z</time>
   </trkpt>
   <trkpt lat="-3.1278050" lon="37.3723030">
    <ele>3927.7</ele>
    <time>2026-06-23T10:59:31Z</time>
   </trkpt>
   <trkpt lat="-3.1278110" lon="37.3723030">
    <ele>3927.5</ele>
    <time>2026-06-23T10:59:32Z</time>
   </trkpt>
   <trkpt lat="-3.1278210" lon="37.3723020">
    <ele>3927.3</ele>
    <time>2026-06-23T10:59:33Z</time>
   </trkpt>
   <trkpt lat="-3.1278300" lon="37.3723010">
    <ele>3927.0</ele>
    <time>2026-06-23T10:59:34Z</time>
   </trkpt>
   <trkpt lat="-3.1278360" lon="37.3722990">
    <ele>3926.9</ele>
    <time>2026-06-23T10:59:35Z</time>
   </trkpt>
   <trkpt lat="-3.1278420" lon="37.3722980">
    <ele>3926.7</ele>
    <time>2026-06-23T10:59:36Z</time>
   </trkpt>
   <trkpt lat="-3.1278490" lon="37.3723000">
    <ele>3926.5</ele>
    <time>2026-06-23T10:59:37Z</time>
   </trkpt>
   <trkpt lat="-3.1278550" lon="37.3723010">
    <ele>3926.4</ele>
    <time>2026-06-23T10:59:38Z</time>
   </trkpt>
   <trkpt lat="-3.1278590" lon="37.3723020">
    <ele>3926.3</ele>
    <time>2026-06-23T10:59:39Z</time>
   </trkpt>
   <trkpt lat="-3.1278650" lon="37.3723040">
    <ele>3926.1</ele>
    <time>2026-06-23T10:59:40Z</time>
   </trkpt>
   <trkpt lat="-3.1278690" lon="37.3723070">
    <ele>3926.0</ele>
    <time>2026-06-23T10:59:41Z</time>
   </trkpt>
   <trkpt lat="-3.1278740" lon="37.3723130">
    <ele>3925.8</ele>
    <time>2026-06-23T10:59:42Z</time>
   </trkpt>
   <trkpt lat="-3.1278770" lon="37.3723190">
    <ele>3925.6</ele>
    <time>2026-06-23T10:59:43Z</time>
   </trkpt>
   <trkpt lat="-3.1278800" lon="37.3723210">
    <ele>3925.5</ele>
    <time>2026-06-23T10:59:44Z</time>
   </trkpt>
   <trkpt lat="-3.1278780" lon="37.3723170">
    <ele>3925.4</ele>
    <time>2026-06-23T10:59:45Z</time>
   </trkpt>
   <trkpt lat="-3.1278770" lon="37.3723160">
    <ele>3925.4</ele>
    <time>2026-06-23T10:59:46Z</time>
   </trkpt>
   <trkpt lat="-3.1278760" lon="37.3723160">
    <ele>3925.4</ele>
    <time>2026-06-23T10:59:47Z</time>
   </trkpt>
   <trkpt lat="-3.1278790" lon="37.3723180">
    <ele>3925.3</ele>
    <time>2026-06-23T10:59:48Z</time>
   </trkpt>
   <trkpt lat="-3.1278830" lon="37.3723210">
    <ele>3925.1</ele>
    <time>2026-06-23T10:59:49Z</time>
   </trkpt>
   <trkpt lat="-3.1278910" lon="37.3723240">
    <ele>3924.9</ele>
    <time>2026-06-23T10:59:50Z</time>
   </trkpt>
   <trkpt lat="-3.1278960" lon="37.3723250">
    <ele>3924.8</ele>
    <time>2026-06-23T10:59:51Z</time>
   </trkpt>
   <trkpt lat="-3.1279020" lon="37.3723240">
    <ele>3924.6</ele>
    <time>2026-06-23T10:59:52Z</time>
   </trkpt>
   <trkpt lat="-3.1279110" lon="37.3723230">
    <ele>3924.4</ele>
    <time>2026-06-23T10:59:53Z</time>
   </trkpt>
   <trkpt lat="-3.1279160" lon="37.3723220">
    <ele>3924.3</ele>
    <time>2026-06-23T10:59:54Z</time>
   </trkpt>
   <trkpt lat="-3.1279180" lon="37.3723200">
    <ele>3924.2</ele>
    <time>2026-06-23T10:59:55Z</time>
   </trkpt>
   <trkpt lat="-3.1279180" lon="37.3723180">
    <ele>3924.2</ele>
    <time>2026-06-23T10:59:56Z</time>
   </trkpt>
   <trkpt lat="-3.1279230" lon="37.3723150">
    <ele>3924.0</ele>
    <time>2026-06-23T10:59:57Z</time>
   </trkpt>
   <trkpt lat="-3.1279280" lon="37.3723110">
    <ele>3923.8</ele>
    <time>2026-06-23T10:59:58Z</time>
   </trkpt>
   <trkpt lat="-3.1279320" lon="37.3723080">
    <ele>3923.7</ele>
    <time>2026-06-23T10:59:59Z</time>
   </trkpt>
   <trkpt lat="-3.1279360" lon="37.3723080">
    <ele>3923.6</ele>
    <time>2026-06-23T11:00:00Z</time>
   </trkpt>
   <trkpt lat="-3.1279380" lon="37.3723090">
    <ele>3923.6</ele>
    <time>2026-06-23T11:00:01Z</time>
   </trkpt>
   <trkpt lat="-3.1279390" lon="37.3723100">
    <ele>3923.5</ele>
    <time>2026-06-23T11:00:02Z</time>
   </trkpt>
   <trkpt lat="-3.1279410" lon="37.3723120">
    <ele>3923.4</ele>
    <time>2026-06-23T11:00:03Z</time>
   </trkpt>
   <trkpt lat="-3.1279480" lon="37.3723170">
    <ele>3923.2</ele>
    <time>2026-06-23T11:00:04Z</time>
   </trkpt>
   <trkpt lat="-3.1279510" lon="37.3723190">
    <ele>3923.1</ele>
    <time>2026-06-23T11:00:05Z</time>
   </trkpt>
   <trkpt lat="-3.1279560" lon="37.3723220">
    <ele>3923.0</ele>
    <time>2026-06-23T11:00:06Z</time>
   </trkpt>
   <trkpt lat="-3.1279590" lon="37.3723260">
    <ele>3922.9</ele>
    <time>2026-06-23T11:00:07Z</time>
   </trkpt>
   <trkpt lat="-3.1279650" lon="37.3723280">
    <ele>3922.7</ele>
    <time>2026-06-23T11:00:08Z</time>
   </trkpt>
   <trkpt lat="-3.1279710" lon="37.3723300">
    <ele>3922.5</ele>
    <time>2026-06-23T11:00:09Z</time>
   </trkpt>
   <trkpt lat="-3.1279760" lon="37.3723320">
    <ele>3922.4</ele>
    <time>2026-06-23T11:00:10Z</time>
   </trkpt>
   <trkpt lat="-3.1279820" lon="37.3723340">
    <ele>3922.2</ele>
    <time>2026-06-23T11:00:11Z</time>
   </trkpt>
   <trkpt lat="-3.1279850" lon="37.3723350">
    <ele>3922.2</ele>
    <time>2026-06-23T11:00:12Z</time>
   </trkpt>
   <trkpt lat="-3.1279900" lon="37.3723330">
    <ele>3922.0</ele>
    <time>2026-06-23T11:00:13Z</time>
   </trkpt>
   <trkpt lat="-3.1279960" lon="37.3723320">
    <ele>3921.9</ele>
    <time>2026-06-23T11:00:14Z</time>
   </trkpt>
   <trkpt lat="-3.1279960" lon="37.3723300">
    <ele>3921.8</ele>
    <time>2026-06-23T11:00:15Z</time>
   </trkpt>
   <trkpt lat="-3.1279950" lon="37.3723310">
    <ele>3921.8</ele>
    <time>2026-06-23T11:00:16Z</time>
   </trkpt>
   <trkpt lat="-3.1280000" lon="37.3723300">
    <ele>3921.6</ele>
    <time>2026-06-23T11:00:17Z</time>
   </trkpt>
   <trkpt lat="-3.1280080" lon="37.3723240">
    <ele>3921.4</ele>
    <time>2026-06-23T11:00:18Z</time>
   </trkpt>
   <trkpt lat="-3.1280110" lon="37.3723210">
    <ele>3921.3</ele>
    <time>2026-06-23T11:00:19Z</time>
   </trkpt>
   <trkpt lat="-3.1280180" lon="37.3723220">
    <ele>3921.1</ele>
    <time>2026-06-23T11:00:20Z</time>
   </trkpt>
   <trkpt lat="-3.1280230" lon="37.3723240">
    <ele>3921.0</ele>
    <time>2026-06-23T11:00:21Z</time>
   </trkpt>
   <trkpt lat="-3.1280330" lon="37.3723280">
    <ele>3920.7</ele>
    <time>2026-06-23T11:00:22Z</time>
   </trkpt>
   <trkpt lat="-3.1280380" lon="37.3723300">
    <ele>3920.6</ele>
    <time>2026-06-23T11:00:23Z</time>
   </trkpt>
   <trkpt lat="-3.1280400" lon="37.3723350">
    <ele>3920.4</ele>
    <time>2026-06-23T11:00:24Z</time>
   </trkpt>
   <trkpt lat="-3.1280430" lon="37.3723390">
    <ele>3920.3</ele>
    <time>2026-06-23T11:00:25Z</time>
   </trkpt>
   <trkpt lat="-3.1280490" lon="37.3723420">
    <ele>3920.1</ele>
    <time>2026-06-23T11:00:26Z</time>
   </trkpt>
   <trkpt lat="-3.1280550" lon="37.3723430">
    <ele>3920.0</ele>
    <time>2026-06-23T11:00:27Z</time>
   </trkpt>
   <trkpt lat="-3.1280600" lon="37.3723420">
    <ele>3919.8</ele>
    <time>2026-06-23T11:00:28Z</time>
   </trkpt>
   <trkpt lat="-3.1280700" lon="37.3723430">
    <ele>3919.6</ele>
    <time>2026-06-23T11:00:29Z</time>
   </trkpt>
   <trkpt lat="-3.1280740" lon="37.3723440">
    <ele>3919.5</ele>
    <time>2026-06-23T11:00:30Z</time>
   </trkpt>
   <trkpt lat="-3.1280810" lon="37.3723480">
    <ele>3919.3</ele>
    <time>2026-06-23T11:00:31Z</time>
   </trkpt>
   <trkpt lat="-3.1280870" lon="37.3723490">
    <ele>3919.1</ele>
    <time>2026-06-23T11:00:32Z</time>
   </trkpt>
   <trkpt lat="-3.1280930" lon="37.3723500">
    <ele>3919.0</ele>
    <time>2026-06-23T11:00:33Z</time>
   </trkpt>
   <trkpt lat="-3.1280990" lon="37.3723520">
    <ele>3918.8</ele>
    <time>2026-06-23T11:00:34Z</time>
   </trkpt>
   <trkpt lat="-3.1281010" lon="37.3723540">
    <ele>3918.7</ele>
    <time>2026-06-23T11:00:35Z</time>
   </trkpt>
   <trkpt lat="-3.1281080" lon="37.3723550">
    <ele>3918.5</ele>
    <time>2026-06-23T11:00:36Z</time>
   </trkpt>
   <trkpt lat="-3.1281110" lon="37.3723530">
    <ele>3918.5</ele>
    <time>2026-06-23T11:00:37Z</time>
   </trkpt>
   <trkpt lat="-3.1281180" lon="37.3723500">
    <ele>3918.3</ele>
    <time>2026-06-23T11:00:38Z</time>
   </trkpt>
   <trkpt lat="-3.1281270" lon="37.3723510">
    <ele>3918.0</ele>
    <time>2026-06-23T11:00:39Z</time>
   </trkpt>
   <trkpt lat="-3.1281320" lon="37.3723510">
    <ele>3917.9</ele>
    <time>2026-06-23T11:00:40Z</time>
   </trkpt>
   <trkpt lat="-3.1281400" lon="37.3723500">
    <ele>3917.7</ele>
    <time>2026-06-23T11:00:41Z</time>
   </trkpt>
   <trkpt lat="-3.1281460" lon="37.3723520">
    <ele>3917.5</ele>
    <time>2026-06-23T11:00:42Z</time>
   </trkpt>
   <trkpt lat="-3.1281520" lon="37.3723550">
    <ele>3917.4</ele>
    <time>2026-06-23T11:00:43Z</time>
   </trkpt>
   <trkpt lat="-3.1281580" lon="37.3723560">
    <ele>3917.2</ele>
    <time>2026-06-23T11:00:44Z</time>
   </trkpt>
   <trkpt lat="-3.1281650" lon="37.3723590">
    <ele>3917.0</ele>
    <time>2026-06-23T11:00:45Z</time>
   </trkpt>
   <trkpt lat="-3.1281710" lon="37.3723650">
    <ele>3916.8</ele>
    <time>2026-06-23T11:00:46Z</time>
   </trkpt>
   <trkpt lat="-3.1281730" lon="37.3723680">
    <ele>3916.7</ele>
    <time>2026-06-23T11:00:47Z</time>
   </trkpt>
   <trkpt lat="-3.1281800" lon="37.3723710">
    <ele>3916.5</ele>
    <time>2026-06-23T11:00:48Z</time>
   </trkpt>
   <trkpt lat="-3.1281870" lon="37.3723720">
    <ele>3916.3</ele>
    <time>2026-06-23T11:00:49Z</time>
   </trkpt>
   <trkpt lat="-3.1281940" lon="37.3723760">
    <ele>3916.1</ele>
    <time>2026-06-23T11:00:50Z</time>
   </trkpt>
   <trkpt lat="-3.1282030" lon="37.3723810">
    <ele>3915.8</ele>
    <time>2026-06-23T11:00:51Z</time>
   </trkpt>
   <trkpt lat="-3.1282110" lon="37.3723820">
    <ele>3915.6</ele>
    <time>2026-06-23T11:00:52Z</time>
   </trkpt>
   <trkpt lat="-3.1282160" lon="37.3723810">
    <ele>3915.5</ele>
    <time>2026-06-23T11:00:53Z</time>
   </trkpt>
   <trkpt lat="-3.1282250" lon="37.3723770">
    <ele>3915.3</ele>
    <time>2026-06-23T11:00:54Z</time>
   </trkpt>
   <trkpt lat="-3.1282290" lon="37.3723720">
    <ele>3915.1</ele>
    <time>2026-06-23T11:00:55Z</time>
   </trkpt>
   <trkpt lat="-3.1282340" lon="37.3723690">
    <ele>3914.9</ele>
    <time>2026-06-23T11:00:56Z</time>
   </trkpt>
   <trkpt lat="-3.1282380" lon="37.3723670">
    <ele>3914.8</ele>
    <time>2026-06-23T11:00:57Z</time>
   </trkpt>
   <trkpt lat="-3.1282390" lon="37.3723670">
    <ele>3914.8</ele>
    <time>2026-06-23T11:00:58Z</time>
   </trkpt>
   <trkpt lat="-3.1282440" lon="37.3723690">
    <ele>3914.6</ele>
    <time>2026-06-23T11:00:59Z</time>
   </trkpt>
   <trkpt lat="-3.1282520" lon="37.3723710">
    <ele>3914.4</ele>
    <time>2026-06-23T11:01:00Z</time>
   </trkpt>
   <trkpt lat="-3.1282600" lon="37.3723740">
    <ele>3914.2</ele>
    <time>2026-06-23T11:01:01Z</time>
   </trkpt>
   <trkpt lat="-3.1282660" lon="37.3723740">
    <ele>3914.0</ele>
    <time>2026-06-23T11:01:02Z</time>
   </trkpt>
   <trkpt lat="-3.1282700" lon="37.3723730">
    <ele>3913.9</ele>
    <time>2026-06-23T11:01:03Z</time>
   </trkpt>
   <trkpt lat="-3.1282770" lon="37.3723690">
    <ele>3913.7</ele>
    <time>2026-06-23T11:01:04Z</time>
   </trkpt>
   <trkpt lat="-3.1282830" lon="37.3723670">
    <ele>3913.6</ele>
    <time>2026-06-23T11:01:05Z</time>
   </trkpt>
   <trkpt lat="-3.1282900" lon="37.3723650">
    <ele>3913.4</ele>
    <time>2026-06-23T11:01:06Z</time>
   </trkpt>
   <trkpt lat="-3.1282980" lon="37.3723630">
    <ele>3913.1</ele>
    <time>2026-06-23T11:01:07Z</time>
   </trkpt>
   <trkpt lat="-3.1283050" lon="37.3723630">
    <ele>3913.0</ele>
    <time>2026-06-23T11:01:08Z</time>
   </trkpt>
   <trkpt lat="-3.1283130" lon="37.3723630">
    <ele>3912.7</ele>
    <time>2026-06-23T11:01:09Z</time>
   </trkpt>
   <trkpt lat="-3.1283170" lon="37.3723660">
    <ele>3912.6</ele>
    <time>2026-06-23T11:01:10Z</time>
   </trkpt>
   <trkpt lat="-3.1283230" lon="37.3723690">
    <ele>3912.4</ele>
    <time>2026-06-23T11:01:11Z</time>
   </trkpt>
   <trkpt lat="-3.1283310" lon="37.3723700">
    <ele>3912.2</ele>
    <time>2026-06-23T11:01:12Z</time>
   </trkpt>
   <trkpt lat="-3.1283370" lon="37.3723700">
    <ele>3912.1</ele>
    <time>2026-06-23T11:01:13Z</time>
   </trkpt>
   <trkpt lat="-3.1283410" lon="37.3723670">
    <ele>3911.9</ele>
    <time>2026-06-23T11:01:14Z</time>
   </trkpt>
   <trkpt lat="-3.1283490" lon="37.3723640">
    <ele>3911.7</ele>
    <time>2026-06-23T11:01:15Z</time>
   </trkpt>
   <trkpt lat="-3.1283560" lon="37.3723610">
    <ele>3911.5</ele>
    <time>2026-06-23T11:01:16Z</time>
   </trkpt>
   <trkpt lat="-3.1283590" lon="37.3723590">
    <ele>3911.4</ele>
    <time>2026-06-23T11:01:17Z</time>
   </trkpt>
   <trkpt lat="-3.1283670" lon="37.3723570">
    <ele>3911.2</ele>
    <time>2026-06-23T11:01:18Z</time>
   </trkpt>
   <trkpt lat="-3.1283710" lon="37.3723590">
    <ele>3911.1</ele>
    <time>2026-06-23T11:01:19Z</time>
   </trkpt>
   <trkpt lat="-3.1283780" lon="37.3723630">
    <ele>3910.9</ele>
    <time>2026-06-23T11:01:20Z</time>
   </trkpt>
   <trkpt lat="-3.1283840" lon="37.3723680">
    <ele>3910.6</ele>
    <time>2026-06-23T11:01:21Z</time>
   </trkpt>
   <trkpt lat="-3.1283880" lon="37.3723710">
    <ele>3910.5</ele>
    <time>2026-06-23T11:01:22Z</time>
   </trkpt>
   <trkpt lat="-3.1283920" lon="37.3723700">
    <ele>3910.4</ele>
    <time>2026-06-23T11:01:23Z</time>
   </trkpt>
   <trkpt lat="-3.1283970" lon="37.3723670">
    <ele>3910.3</ele>
    <time>2026-06-23T11:01:24Z</time>
   </trkpt>
   <trkpt lat="-3.1284040" lon="37.3723630">
    <ele>3910.0</ele>
    <time>2026-06-23T11:01:25Z</time>
   </trkpt>
   <trkpt lat="-3.1284050" lon="37.3723580">
    <ele>3909.9</ele>
    <time>2026-06-23T11:01:26Z</time>
   </trkpt>
   <trkpt lat="-3.1284070" lon="37.3723560">
    <ele>3909.8</ele>
    <time>2026-06-23T11:01:27Z</time>
   </trkpt>
   <trkpt lat="-3.1284110" lon="37.3723530">
    <ele>3909.7</ele>
    <time>2026-06-23T11:01:28Z</time>
   </trkpt>
   <trkpt lat="-3.1284190" lon="37.3723510">
    <ele>3909.5</ele>
    <time>2026-06-23T11:01:29Z</time>
   </trkpt>
   <trkpt lat="-3.1284230" lon="37.3723530">
    <ele>3909.4</ele>
    <time>2026-06-23T11:01:30Z</time>
   </trkpt>
   <trkpt lat="-3.1284280" lon="37.3723590">
    <ele>3909.2</ele>
    <time>2026-06-23T11:01:31Z</time>
   </trkpt>
   <trkpt lat="-3.1284360" lon="37.3723660">
    <ele>3908.9</ele>
    <time>2026-06-23T11:01:32Z</time>
   </trkpt>
   <trkpt lat="-3.1284380" lon="37.3723700">
    <ele>3908.8</ele>
    <time>2026-06-23T11:01:33Z</time>
   </trkpt>
   <trkpt lat="-3.1284430" lon="37.3723740">
    <ele>3908.6</ele>
    <time>2026-06-23T11:01:34Z</time>
   </trkpt>
   <trkpt lat="-3.1284500" lon="37.3723790">
    <ele>3908.4</ele>
    <time>2026-06-23T11:01:35Z</time>
   </trkpt>
   <trkpt lat="-3.1284560" lon="37.3723780">
    <ele>3908.3</ele>
    <time>2026-06-23T11:01:36Z</time>
   </trkpt>
   <trkpt lat="-3.1284630" lon="37.3723770">
    <ele>3908.1</ele>
    <time>2026-06-23T11:01:37Z</time>
   </trkpt>
   <trkpt lat="-3.1284700" lon="37.3723750">
    <ele>3907.9</ele>
    <time>2026-06-23T11:01:38Z</time>
   </trkpt>
   <trkpt lat="-3.1284780" lon="37.3723730">
    <ele>3907.7</ele>
    <time>2026-06-23T11:01:39Z</time>
   </trkpt>
   <trkpt lat="-3.1284840" lon="37.3723720">
    <ele>3907.5</ele>
    <time>2026-06-23T11:01:40Z</time>
   </trkpt>
   <trkpt lat="-3.1284880" lon="37.3723690">
    <ele>3907.4</ele>
    <time>2026-06-23T11:01:41Z</time>
   </trkpt>
   <trkpt lat="-3.1284890" lon="37.3723670">
    <ele>3907.4</ele>
    <time>2026-06-23T11:01:42Z</time>
   </trkpt>
   <trkpt lat="-3.1284920" lon="37.3723630">
    <ele>3907.2</ele>
    <time>2026-06-23T11:01:43Z</time>
   </trkpt>
   <trkpt lat="-3.1284940" lon="37.3723620">
    <ele>3907.2</ele>
    <time>2026-06-23T11:01:44Z</time>
   </trkpt>
   <trkpt lat="-3.1284950" lon="37.3723610">
    <ele>3907.1</ele>
    <time>2026-06-23T11:01:45Z</time>
   </trkpt>
   <trkpt lat="-3.1284980" lon="37.3723610">
    <ele>3907.1</ele>
    <time>2026-06-23T11:01:46Z</time>
   </trkpt>
   <trkpt lat="-3.1285030" lon="37.3723620">
    <ele>3906.9</ele>
    <time>2026-06-23T11:01:47Z</time>
   </trkpt>
   <trkpt lat="-3.1285110" lon="37.3723600">
    <ele>3906.7</ele>
    <time>2026-06-23T11:01:48Z</time>
   </trkpt>
   <trkpt lat="-3.1285150" lon="37.3723610">
    <ele>3906.6</ele>
    <time>2026-06-23T11:01:49Z</time>
   </trkpt>
   <trkpt lat="-3.1285190" lon="37.3723590">
    <ele>3906.5</ele>
    <time>2026-06-23T11:01:50Z</time>
   </trkpt>
   <trkpt lat="-3.1285240" lon="37.3723580">
    <ele>3906.4</ele>
    <time>2026-06-23T11:01:51Z</time>
   </trkpt>
   <trkpt lat="-3.1285310" lon="37.3723580">
    <ele>3906.2</ele>
    <time>2026-06-23T11:01:52Z</time>
   </trkpt>
   <trkpt lat="-3.1285350" lon="37.3723570">
    <ele>3906.1</ele>
    <time>2026-06-23T11:01:53Z</time>
   </trkpt>
   <trkpt lat="-3.1285390" lon="37.3723540">
    <ele>3906.0</ele>
    <time>2026-06-23T11:01:54Z</time>
   </trkpt>
   <trkpt lat="-3.1285480" lon="37.3723490">
    <ele>3905.7</ele>
    <time>2026-06-23T11:01:55Z</time>
   </trkpt>
   <trkpt lat="-3.1285540" lon="37.3723460">
    <ele>3905.5</ele>
    <time>2026-06-23T11:01:56Z</time>
   </trkpt>
   <trkpt lat="-3.1285560" lon="37.3723410">
    <ele>3905.4</ele>
    <time>2026-06-23T11:01:57Z</time>
   </trkpt>
   <trkpt lat="-3.1285600" lon="37.3723360">
    <ele>3905.3</ele>
    <time>2026-06-23T11:01:58Z</time>
   </trkpt>
   <trkpt lat="-3.1285630" lon="37.3723310">
    <ele>3905.1</ele>
    <time>2026-06-23T11:01:59Z</time>
   </trkpt>
   <trkpt lat="-3.1285670" lon="37.3723250">
    <ele>3904.9</ele>
    <time>2026-06-23T11:02:00Z</time>
   </trkpt>
   <trkpt lat="-3.1285680" lon="37.3723220">
    <ele>3904.8</ele>
    <time>2026-06-23T11:02:01Z</time>
   </trkpt>
   <trkpt lat="-3.1285680" lon="37.3723210">
    <ele>3904.8</ele>
    <time>2026-06-23T11:02:02Z</time>
   </trkpt>
   <trkpt lat="-3.1285720" lon="37.3723150">
    <ele>3904.6</ele>
    <time>2026-06-23T11:02:03Z</time>
   </trkpt>
   <trkpt lat="-3.1285770" lon="37.3723120">
    <ele>3904.5</ele>
    <time>2026-06-23T11:02:04Z</time>
   </trkpt>
   <trkpt lat="-3.1285840" lon="37.3723060">
    <ele>3904.3</ele>
    <time>2026-06-23T11:02:05Z</time>
   </trkpt>
   <trkpt lat="-3.1285900" lon="37.3723030">
    <ele>3904.1</ele>
    <time>2026-06-23T11:02:06Z</time>
   </trkpt>
   <trkpt lat="-3.1285980" lon="37.3722980">
    <ele>3903.9</ele>
    <time>2026-06-23T11:02:07Z</time>
   </trkpt>
   <trkpt lat="-3.1286040" lon="37.3723000">
    <ele>3903.7</ele>
    <time>2026-06-23T11:02:08Z</time>
   </trkpt>
   <trkpt lat="-3.1286090" lon="37.3723070">
    <ele>3903.5</ele>
    <time>2026-06-23T11:02:09Z</time>
   </trkpt>
   <trkpt lat="-3.1286160" lon="37.3723140">
    <ele>3903.3</ele>
    <time>2026-06-23T11:02:10Z</time>
   </trkpt>
   <trkpt lat="-3.1286190" lon="37.3723190">
    <ele>3903.1</ele>
    <time>2026-06-23T11:02:11Z</time>
   </trkpt>
   <trkpt lat="-3.1286240" lon="37.3723240">
    <ele>3902.9</ele>
    <time>2026-06-23T11:02:12Z</time>
   </trkpt>
   <trkpt lat="-3.1286310" lon="37.3723260">
    <ele>3902.8</ele>
    <time>2026-06-23T11:02:13Z</time>
   </trkpt>
   <trkpt lat="-3.1286370" lon="37.3723280">
    <ele>3902.6</ele>
    <time>2026-06-23T11:02:14Z</time>
   </trkpt>
   <trkpt lat="-3.1286430" lon="37.3723300">
    <ele>3902.4</ele>
    <time>2026-06-23T11:02:15Z</time>
   </trkpt>
   <trkpt lat="-3.1286460" lon="37.3723290">
    <ele>3902.4</ele>
    <time>2026-06-23T11:02:16Z</time>
   </trkpt>
   <trkpt lat="-3.1286530" lon="37.3723330">
    <ele>3902.2</ele>
    <time>2026-06-23T11:02:17Z</time>
   </trkpt>
   <trkpt lat="-3.1286610" lon="37.3723360">
    <ele>3902.0</ele>
    <time>2026-06-23T11:02:18Z</time>
   </trkpt>
   <trkpt lat="-3.1286660" lon="37.3723370">
    <ele>3901.8</ele>
    <time>2026-06-23T11:02:19Z</time>
   </trkpt>
   <trkpt lat="-3.1286670" lon="37.3723400">
    <ele>3901.7</ele>
    <time>2026-06-23T11:02:20Z</time>
   </trkpt>
   <trkpt lat="-3.1286680" lon="37.3723390">
    <ele>3901.7</ele>
    <time>2026-06-23T11:02:21Z</time>
   </trkpt>
   <trkpt lat="-3.1286730" lon="37.3723390">
    <ele>3901.6</ele>
    <time>2026-06-23T11:02:22Z</time>
   </trkpt>
   <trkpt lat="-3.1286790" lon="37.3723420">
    <ele>3901.4</ele>
    <time>2026-06-23T11:02:23Z</time>
   </trkpt>
   <trkpt lat="-3.1286840" lon="37.3723480">
    <ele>3901.2</ele>
    <time>2026-06-23T11:02:24Z</time>
   </trkpt>
   <trkpt lat="-3.1286910" lon="37.3723540">
    <ele>3901.0</ele>
    <time>2026-06-23T11:02:25Z</time>
   </trkpt>
   <trkpt lat="-3.1286970" lon="37.3723610">
    <ele>3900.8</ele>
    <time>2026-06-23T11:02:26Z</time>
   </trkpt>
   <trkpt lat="-3.1287020" lon="37.3723640">
    <ele>3900.6</ele>
    <time>2026-06-23T11:02:27Z</time>
   </trkpt>
   <trkpt lat="-3.1287090" lon="37.3723710">
    <ele>3900.4</ele>
    <time>2026-06-23T11:02:28Z</time>
   </trkpt>
   <trkpt lat="-3.1287150" lon="37.3723740">
    <ele>3900.2</ele>
    <time>2026-06-23T11:02:29Z</time>
   </trkpt>
   <trkpt lat="-3.1287200" lon="37.3723780">
    <ele>3900.1</ele>
    <time>2026-06-23T11:02:30Z</time>
   </trkpt>
   <trkpt lat="-3.1287270" lon="37.3723820">
    <ele>3899.9</ele>
    <time>2026-06-23T11:02:31Z</time>
   </trkpt>
   <trkpt lat="-3.1287350" lon="37.3723830">
    <ele>3899.7</ele>
    <time>2026-06-23T11:02:32Z</time>
   </trkpt>
   <trkpt lat="-3.1287380" lon="37.3723800">
    <ele>3899.6</ele>
    <time>2026-06-23T11:02:33Z</time>
   </trkpt>
   <trkpt lat="-3.1287480" lon="37.3723800">
    <ele>3899.3</ele>
    <time>2026-06-23T11:02:34Z</time>
   </trkpt>
   <trkpt lat="-3.1287530" lon="37.3723790">
    <ele>3899.2</ele>
    <time>2026-06-23T11:02:35Z</time>
   </trkpt>
   <trkpt lat="-3.1287600" lon="37.3723770">
    <ele>3899.0</ele>
    <time>2026-06-23T11:02:36Z</time>
   </trkpt>
   <trkpt lat="-3.1287670" lon="37.3723760">
    <ele>3898.8</ele>
    <time>2026-06-23T11:02:37Z</time>
   </trkpt>
   <trkpt lat="-3.1287760" lon="37.3723760">
    <ele>3898.6</ele>
    <time>2026-06-23T11:02:38Z</time>
   </trkpt>
   <trkpt lat="-3.1287840" lon="37.3723750">
    <ele>3898.4</ele>
    <time>2026-06-23T11:02:39Z</time>
   </trkpt>
   <trkpt lat="-3.1287910" lon="37.3723740">
    <ele>3898.2</ele>
    <time>2026-06-23T11:02:40Z</time>
   </trkpt>
   <trkpt lat="-3.1287990" lon="37.3723710">
    <ele>3898.0</ele>
    <time>2026-06-23T11:02:41Z</time>
   </trkpt>
   <trkpt lat="-3.1288040" lon="37.3723690">
    <ele>3897.9</ele>
    <time>2026-06-23T11:02:42Z</time>
   </trkpt>
   <trkpt lat="-3.1288080" lon="37.3723640">
    <ele>3897.7</ele>
    <time>2026-06-23T11:02:43Z</time>
   </trkpt>
   <trkpt lat="-3.1288080" lon="37.3723600">
    <ele>3897.6</ele>
    <time>2026-06-23T11:02:44Z</time>
   </trkpt>
   <trkpt lat="-3.1288110" lon="37.3723540">
    <ele>3897.5</ele>
    <time>2026-06-23T11:02:45Z</time>
   </trkpt>
   <trkpt lat="-3.1288130" lon="37.3723520">
    <ele>3897.4</ele>
    <time>2026-06-23T11:02:46Z</time>
   </trkpt>
   <trkpt lat="-3.1288140" lon="37.3723510">
    <ele>3897.4</ele>
    <time>2026-06-23T11:02:47Z</time>
   </trkpt>
   <trkpt lat="-3.1288160" lon="37.3723460">
    <ele>3897.2</ele>
    <time>2026-06-23T11:02:48Z</time>
   </trkpt>
   <trkpt lat="-3.1288180" lon="37.3723430">
    <ele>3897.1</ele>
    <time>2026-06-23T11:02:49Z</time>
   </trkpt>
   <trkpt lat="-3.1288220" lon="37.3723390">
    <ele>3897.0</ele>
    <time>2026-06-23T11:02:50Z</time>
   </trkpt>
   <trkpt lat="-3.1288300" lon="37.3723390">
    <ele>3896.8</ele>
    <time>2026-06-23T11:02:51Z</time>
   </trkpt>
   <trkpt lat="-3.1288360" lon="37.3723340">
    <ele>3896.6</ele>
    <time>2026-06-23T11:02:52Z</time>
   </trkpt>
   <trkpt lat="-3.1288420" lon="37.3723310">
    <ele>3896.4</ele>
    <time>2026-06-23T11:02:53Z</time>
   </trkpt>
   <trkpt lat="-3.1288500" lon="37.3723280">
    <ele>3896.2</ele>
    <time>2026-06-23T11:02:54Z</time>
   </trkpt>
   <trkpt lat="-3.1288570" lon="37.3723250">
    <ele>3896.0</ele>
    <time>2026-06-23T11:02:55Z</time>
   </trkpt>
   <trkpt lat="-3.1288570" lon="37.3723290">
    <ele>3895.9</ele>
    <time>2026-06-23T11:02:56Z</time>
   </trkpt>
   <trkpt lat="-3.1288600" lon="37.3723340">
    <ele>3895.8</ele>
    <time>2026-06-23T11:02:57Z</time>
   </trkpt>
   <trkpt lat="-3.1288620" lon="37.3723410">
    <ele>3895.6</ele>
    <time>2026-06-23T11:02:58Z</time>
   </trkpt>
   <trkpt lat="-3.1288640" lon="37.3723440">
    <ele>3895.5</ele>
    <time>2026-06-23T11:02:59Z</time>
   </trkpt>
   <trkpt lat="-3.1288670" lon="37.3723480">
    <ele>3895.4</ele>
    <time>2026-06-23T11:03:00Z</time>
   </trkpt>
   <trkpt lat="-3.1288700" lon="37.3723530">
    <ele>3895.2</ele>
    <time>2026-06-23T11:03:01Z</time>
   </trkpt>
   <trkpt lat="-3.1288740" lon="37.3723560">
    <ele>3895.1</ele>
    <time>2026-06-23T11:03:02Z</time>
   </trkpt>
   <trkpt lat="-3.1288800" lon="37.3723570">
    <ele>3895.0</ele>
    <time>2026-06-23T11:03:03Z</time>
   </trkpt>
   <trkpt lat="-3.1288860" lon="37.3723600">
    <ele>3894.8</ele>
    <time>2026-06-23T11:03:04Z</time>
   </trkpt>
   <trkpt lat="-3.1288920" lon="37.3723610">
    <ele>3894.7</ele>
    <time>2026-06-23T11:03:05Z</time>
   </trkpt>
   <trkpt lat="-3.1289000" lon="37.3723610">
    <ele>3894.5</ele>
    <time>2026-06-23T11:03:06Z</time>
   </trkpt>
   <trkpt lat="-3.1289080" lon="37.3723600">
    <ele>3894.3</ele>
    <time>2026-06-23T11:03:07Z</time>
   </trkpt>
   <trkpt lat="-3.1289160" lon="37.3723590">
    <ele>3894.1</ele>
    <time>2026-06-23T11:03:08Z</time>
   </trkpt>
   <trkpt lat="-3.1289190" lon="37.3723550">
    <ele>3893.9</ele>
    <time>2026-06-23T11:03:09Z</time>
   </trkpt>
   <trkpt lat="-3.1289240" lon="37.3723510">
    <ele>3893.8</ele>
    <time>2026-06-23T11:03:10Z</time>
   </trkpt>
   <trkpt lat="-3.1289270" lon="37.3723470">
    <ele>3893.7</ele>
    <time>2026-06-23T11:03:11Z</time>
   </trkpt>
   <trkpt lat="-3.1289360" lon="37.3723410">
    <ele>3893.4</ele>
    <time>2026-06-23T11:03:12Z</time>
   </trkpt>
   <trkpt lat="-3.1289450" lon="37.3723370">
    <ele>3893.1</ele>
    <time>2026-06-23T11:03:13Z</time>
   </trkpt>
   <trkpt lat="-3.1289480" lon="37.3723360">
    <ele>3893.1</ele>
    <time>2026-06-23T11:03:14Z</time>
   </trkpt>
   <trkpt lat="-3.1289540" lon="37.3723350">
    <ele>3892.9</ele>
    <time>2026-06-23T11:03:15Z</time>
   </trkpt>
   <trkpt lat="-3.1289610" lon="37.3723340">
    <ele>3892.7</ele>
    <time>2026-06-23T11:03:16Z</time>
   </trkpt>
   <trkpt lat="-3.1289640" lon="37.3723340">
    <ele>3892.7</ele>
    <time>2026-06-23T11:03:17Z</time>
   </trkpt>
   <trkpt lat="-3.1289690" lon="37.3723330">
    <ele>3892.5</ele>
    <time>2026-06-23T11:03:18Z</time>
   </trkpt>
   <trkpt lat="-3.1289780" lon="37.3723310">
    <ele>3892.3</ele>
    <time>2026-06-23T11:03:19Z</time>
   </trkpt>
   <trkpt lat="-3.1289840" lon="37.3723300">
    <ele>3892.2</ele>
    <time>2026-06-23T11:03:20Z</time>
   </trkpt>
   <trkpt lat="-3.1289860" lon="37.3723300">
    <ele>3892.1</ele>
    <time>2026-06-23T11:03:21Z</time>
   </trkpt>
   <trkpt lat="-3.1289910" lon="37.3723310">
    <ele>3892.0</ele>
    <time>2026-06-23T11:03:22Z</time>
   </trkpt>
   <trkpt lat="-3.1289920" lon="37.3723310">
    <ele>3892.0</ele>
    <time>2026-06-23T11:03:23Z</time>
   </trkpt>
   <trkpt lat="-3.1289930" lon="37.3723300">
    <ele>3891.9</ele>
    <time>2026-06-23T11:03:24Z</time>
   </trkpt>
   <trkpt lat="-3.1289930" lon="37.3723300">
    <ele>3891.9</ele>
    <time>2026-06-23T11:03:25Z</time>
   </trkpt>
   <trkpt lat="-3.1289970" lon="37.3723310">
    <ele>3891.8</ele>
    <time>2026-06-23T11:03:26Z</time>
   </trkpt>
   <trkpt lat="-3.1290050" lon="37.3723300">
    <ele>3891.6</ele>
    <time>2026-06-23T11:03:27Z</time>
   </trkpt>
   <trkpt lat="-3.1290120" lon="37.3723280">
    <ele>3891.5</ele>
    <time>2026-06-23T11:03:28Z</time>
   </trkpt>
   <trkpt lat="-3.1290160" lon="37.3723280">
    <ele>3891.4</ele>
    <time>2026-06-23T11:03:29Z</time>
   </trkpt>
   <trkpt lat="-3.1290230" lon="37.3723270">
    <ele>3891.2</ele>
    <time>2026-06-23T11:03:30Z</time>
   </trkpt>
   <trkpt lat="-3.1290290" lon="37.3723280">
    <ele>3891.0</ele>
    <time>2026-06-23T11:03:31Z</time>
   </trkpt>
   <trkpt lat="-3.1290300" lon="37.3723300">
    <ele>3891.0</ele>
    <time>2026-06-23T11:03:32Z</time>
   </trkpt>
   <trkpt lat="-3.1290340" lon="37.3723320">
    <ele>3890.9</ele>
    <time>2026-06-23T11:03:33Z</time>
   </trkpt>
   <trkpt lat="-3.1290410" lon="37.3723340">
    <ele>3890.7</ele>
    <time>2026-06-23T11:03:34Z</time>
   </trkpt>
   <trkpt lat="-3.1290490" lon="37.3723400">
    <ele>3890.4</ele>
    <time>2026-06-23T11:03:35Z</time>
   </trkpt>
   <trkpt lat="-3.1290520" lon="37.3723430">
    <ele>3890.3</ele>
    <time>2026-06-23T11:03:36Z</time>
   </trkpt>
   <trkpt lat="-3.1290590" lon="37.3723450">
    <ele>3890.2</ele>
    <time>2026-06-23T11:03:37Z</time>
   </trkpt>
   <trkpt lat="-3.1290640" lon="37.3723470">
    <ele>3890.0</ele>
    <time>2026-06-23T11:03:38Z</time>
   </trkpt>
   <trkpt lat="-3.1290680" lon="37.3723500">
    <ele>3889.9</ele>
    <time>2026-06-23T11:03:39Z</time>
   </trkpt>
   <trkpt lat="-3.1290720" lon="37.3723500">
    <ele>3889.8</ele>
    <time>2026-06-23T11:03:40Z</time>
   </trkpt>
   <trkpt lat="-3.1290790" lon="37.3723520">
    <ele>3889.6</ele>
    <time>2026-06-23T11:03:41Z</time>
   </trkpt>
   <trkpt lat="-3.1290830" lon="37.3723550">
    <ele>3889.5</ele>
    <time>2026-06-23T11:03:42Z</time>
   </trkpt>
   <trkpt lat="-3.1290890" lon="37.3723550">
    <ele>3889.4</ele>
    <time>2026-06-23T11:03:43Z</time>
   </trkpt>
   <trkpt lat="-3.1290980" lon="37.3723570">
    <ele>3889.1</ele>
    <time>2026-06-23T11:03:44Z</time>
   </trkpt>
   <trkpt lat="-3.1291050" lon="37.3723560">
    <ele>3889.0</ele>
    <time>2026-06-23T11:03:45Z</time>
   </trkpt>
   <trkpt lat="-3.1291110" lon="37.3723550">
    <ele>3888.8</ele>
    <time>2026-06-23T11:03:46Z</time>
   </trkpt>
   <trkpt lat="-3.1291170" lon="37.3723530">
    <ele>3888.6</ele>
    <time>2026-06-23T11:03:47Z</time>
   </trkpt>
   <trkpt lat="-3.1291260" lon="37.3723500">
    <ele>3888.4</ele>
    <time>2026-06-23T11:03:48Z</time>
   </trkpt>
   <trkpt lat="-3.1291330" lon="37.3723470">
    <ele>3888.2</ele>
    <time>2026-06-23T11:03:49Z</time>
   </trkpt>
   <trkpt lat="-3.1291390" lon="37.3723440">
    <ele>3888.1</ele>
    <time>2026-06-23T11:03:50Z</time>
   </trkpt>
   <trkpt lat="-3.1291460" lon="37.3723390">
    <ele>3887.8</ele>
    <time>2026-06-23T11:03:51Z</time>
   </trkpt>
   <trkpt lat="-3.1291510" lon="37.3723350">
    <ele>3887.7</ele>
    <time>2026-06-23T11:03:52Z</time>
   </trkpt>
   <trkpt lat="-3.1291550" lon="37.3723340">
    <ele>3887.6</ele>
    <time>2026-06-23T11:03:53Z</time>
   </trkpt>
   <trkpt lat="-3.1291620" lon="37.3723330">
    <ele>3887.4</ele>
    <time>2026-06-23T11:03:54Z</time>
   </trkpt>
   <trkpt lat="-3.1291640" lon="37.3723330">
    <ele>3887.4</ele>
    <time>2026-06-23T11:03:55Z</time>
   </trkpt>
   <trkpt lat="-3.1291710" lon="37.3723280">
    <ele>3887.2</ele>
    <time>2026-06-23T11:03:56Z</time>
   </trkpt>
   <trkpt lat="-3.1291770" lon="37.3723270">
    <ele>3887.0</ele>
    <time>2026-06-23T11:03:57Z</time>
   </trkpt>
   <trkpt lat="-3.1291790" lon="37.3723290">
    <ele>3886.9</ele>
    <time>2026-06-23T11:03:58Z</time>
   </trkpt>
   <trkpt lat="-3.1291890" lon="37.3723280">
    <ele>3886.7</ele>
    <time>2026-06-23T11:03:59Z</time>
   </trkpt>
   <trkpt lat="-3.1291960" lon="37.3723270">
    <ele>3886.5</ele>
    <time>2026-06-23T11:04:00Z</time>
   </trkpt>
   <trkpt lat="-3.1292020" lon="37.3723230">
    <ele>3886.3</ele>
    <time>2026-06-23T11:04:01Z</time>
   </trkpt>
   <trkpt lat="-3.1292110" lon="37.3723190">
    <ele>3886.1</ele>
    <time>2026-06-23T11:04:02Z</time>
   </trkpt>
   <trkpt lat="-3.1292190" lon="37.3723210">
    <ele>3885.9</ele>
    <time>2026-06-23T11:04:03Z</time>
   </trkpt>
   <trkpt lat="-3.1292280" lon="37.3723220">
    <ele>3885.7</ele>
    <time>2026-06-23T11:04:04Z</time>
   </trkpt>
   <trkpt lat="-3.1292350" lon="37.3723210">
    <ele>3885.5</ele>
    <time>2026-06-23T11:04:05Z</time>
   </trkpt>
   <trkpt lat="-3.1292430" lon="37.3723200">
    <ele>3885.3</ele>
    <time>2026-06-23T11:04:06Z</time>
   </trkpt>
   <trkpt lat="-3.1292490" lon="37.3723190">
    <ele>3885.1</ele>
    <time>2026-06-23T11:04:07Z</time>
   </trkpt>
   <trkpt lat="-3.1292570" lon="37.3723190">
    <ele>3884.9</ele>
    <time>2026-06-23T11:04:08Z</time>
   </trkpt>
   <trkpt lat="-3.1292640" lon="37.3723200">
    <ele>3884.8</ele>
    <time>2026-06-23T11:04:09Z</time>
   </trkpt>
   <trkpt lat="-3.1292720" lon="37.3723230">
    <ele>3884.5</ele>
    <time>2026-06-23T11:04:10Z</time>
   </trkpt>
   <trkpt lat="-3.1292780" lon="37.3723260">
    <ele>3884.4</ele>
    <time>2026-06-23T11:04:11Z</time>
   </trkpt>
   <trkpt lat="-3.1292800" lon="37.3723310">
    <ele>3884.2</ele>
    <time>2026-06-23T11:04:12Z</time>
   </trkpt>
   <trkpt lat="-3.1292840" lon="37.3723370">
    <ele>3884.1</ele>
    <time>2026-06-23T11:04:13Z</time>
   </trkpt>
   <trkpt lat="-3.1292910" lon="37.3723440">
    <ele>3883.8</ele>
    <time>2026-06-23T11:04:14Z</time>
   </trkpt>
   <trkpt lat="-3.1292980" lon="37.3723560">
    <ele>3883.5</ele>
    <time>2026-06-23T11:04:15Z</time>
   </trkpt>
   <trkpt lat="-3.1293030" lon="37.3723570">
    <ele>3883.3</ele>
    <time>2026-06-23T11:04:16Z</time>
   </trkpt>
   <trkpt lat="-3.1293090" lon="37.3723540">
    <ele>3883.2</ele>
    <time>2026-06-23T11:04:17Z</time>
   </trkpt>
   <trkpt lat="-3.1293160" lon="37.3723510">
    <ele>3883.0</ele>
    <time>2026-06-23T11:04:18Z</time>
   </trkpt>
   <trkpt lat="-3.1293200" lon="37.3723470">
    <ele>3882.8</ele>
    <time>2026-06-23T11:04:19Z</time>
   </trkpt>
   <trkpt lat="-3.1293250" lon="37.3723420">
    <ele>3882.7</ele>
    <time>2026-06-23T11:04:20Z</time>
   </trkpt>
   <trkpt lat="-3.1293280" lon="37.3723390">
    <ele>3882.5</ele>
    <time>2026-06-23T11:04:21Z</time>
   </trkpt>
   <trkpt lat="-3.1293360" lon="37.3723390">
    <ele>3882.3</ele>
    <time>2026-06-23T11:04:22Z</time>
   </trkpt>
   <trkpt lat="-3.1293420" lon="37.3723400">
    <ele>3882.2</ele>
    <time>2026-06-23T11:04:23Z</time>
   </trkpt>
   <trkpt lat="-3.1293490" lon="37.3723390">
    <ele>3882.0</ele>
    <time>2026-06-23T11:04:24Z</time>
   </trkpt>
   <trkpt lat="-3.1293540" lon="37.3723350">
    <ele>3881.9</ele>
    <time>2026-06-23T11:04:25Z</time>
   </trkpt>
   <trkpt lat="-3.1293650" lon="37.3723300">
    <ele>3881.5</ele>
    <time>2026-06-23T11:04:26Z</time>
   </trkpt>
   <trkpt lat="-3.1293720" lon="37.3723230">
    <ele>3881.2</ele>
    <time>2026-06-23T11:04:27Z</time>
   </trkpt>
   <trkpt lat="-3.1293810" lon="37.3723180">
    <ele>3881.0</ele>
    <time>2026-06-23T11:04:28Z</time>
   </trkpt>
   <trkpt lat="-3.1293860" lon="37.3723200">
    <ele>3880.8</ele>
    <time>2026-06-23T11:04:29Z</time>
   </trkpt>
   <trkpt lat="-3.1293910" lon="37.3723250">
    <ele>3880.6</ele>
    <time>2026-06-23T11:04:30Z</time>
   </trkpt>
   <trkpt lat="-3.1293990" lon="37.3723310">
    <ele>3880.4</ele>
    <time>2026-06-23T11:04:31Z</time>
   </trkpt>
   <trkpt lat="-3.1294060" lon="37.3723350">
    <ele>3880.2</ele>
    <time>2026-06-23T11:04:32Z</time>
   </trkpt>
   <trkpt lat="-3.1294130" lon="37.3723370">
    <ele>3880.0</ele>
    <time>2026-06-23T11:04:33Z</time>
   </trkpt>
   <trkpt lat="-3.1294230" lon="37.3723350">
    <ele>3879.7</ele>
    <time>2026-06-23T11:04:34Z</time>
   </trkpt>
   <trkpt lat="-3.1294300" lon="37.3723320">
    <ele>3879.5</ele>
    <time>2026-06-23T11:04:35Z</time>
   </trkpt>
   <trkpt lat="-3.1294380" lon="37.3723300">
    <ele>3879.3</ele>
    <time>2026-06-23T11:04:36Z</time>
   </trkpt>
   <trkpt lat="-3.1294450" lon="37.3723290">
    <ele>3879.2</ele>
    <time>2026-06-23T11:04:37Z</time>
   </trkpt>
   <trkpt lat="-3.1294540" lon="37.3723260">
    <ele>3878.9</ele>
    <time>2026-06-23T11:04:38Z</time>
   </trkpt>
   <trkpt lat="-3.1294580" lon="37.3723230">
    <ele>3878.8</ele>
    <time>2026-06-23T11:04:39Z</time>
   </trkpt>
   <trkpt lat="-3.1294640" lon="37.3723230">
    <ele>3878.6</ele>
    <time>2026-06-23T11:04:40Z</time>
   </trkpt>
   <trkpt lat="-3.1294680" lon="37.3723220">
    <ele>3878.5</ele>
    <time>2026-06-23T11:04:41Z</time>
   </trkpt>
   <trkpt lat="-3.1294750" lon="37.3723230">
    <ele>3878.4</ele>
    <time>2026-06-23T11:04:42Z</time>
   </trkpt>
   <trkpt lat="-3.1294820" lon="37.3723250">
    <ele>3878.2</ele>
    <time>2026-06-23T11:04:43Z</time>
   </trkpt>
   <trkpt lat="-3.1294860" lon="37.3723300">
    <ele>3878.0</ele>
    <time>2026-06-23T11:04:44Z</time>
   </trkpt>
   <trkpt lat="-3.1294890" lon="37.3723370">
    <ele>3877.8</ele>
    <time>2026-06-23T11:04:45Z</time>
   </trkpt>
   <trkpt lat="-3.1294950" lon="37.3723430">
    <ele>3877.6</ele>
    <time>2026-06-23T11:04:46Z</time>
   </trkpt>
   <trkpt lat="-3.1294990" lon="37.3723460">
    <ele>3877.5</ele>
    <time>2026-06-23T11:04:47Z</time>
   </trkpt>
   <trkpt lat="-3.1295040" lon="37.3723500">
    <ele>3877.3</ele>
    <time>2026-06-23T11:04:48Z</time>
   </trkpt>
   <trkpt lat="-3.1295090" lon="37.3723560">
    <ele>3877.1</ele>
    <time>2026-06-23T11:04:49Z</time>
   </trkpt>
   <trkpt lat="-3.1295140" lon="37.3723650">
    <ele>3876.9</ele>
    <time>2026-06-23T11:04:50Z</time>
   </trkpt>
   <trkpt lat="-3.1295200" lon="37.3723710">
    <ele>3876.7</ele>
    <time>2026-06-23T11:04:51Z</time>
   </trkpt>
   <trkpt lat="-3.1295290" lon="37.3723730">
    <ele>3876.4</ele>
    <time>2026-06-23T11:04:52Z</time>
   </trkpt>
   <trkpt lat="-3.1295360" lon="37.3723710">
    <ele>3876.3</ele>
    <time>2026-06-23T11:04:53Z</time>
   </trkpt>
   <trkpt lat="-3.1295440" lon="37.3723660">
    <ele>3876.0</ele>
    <time>2026-06-23T11:04:54Z</time>
   </trkpt>
   <trkpt lat="-3.1295510" lon="37.3723610">
    <ele>3875.8</ele>
    <time>2026-06-23T11:04:55Z</time>
   </trkpt>
   <trkpt lat="-3.1295590" lon="37.3723580">
    <ele>3875.6</ele>
    <time>2026-06-23T11:04:56Z</time>
   </trkpt>
   <trkpt lat="-3.1295680" lon="37.3723550">
    <ele>3875.4</ele>
    <time>2026-06-23T11:04:57Z</time>
   </trkpt>
   <trkpt lat="-3.1295740" lon="37.3723530">
    <ele>3875.2</ele>
    <time>2026-06-23T11:04:58Z</time>
   </trkpt>
   <trkpt lat="-3.1295850" lon="37.3723490">
    <ele>3874.9</ele>
    <time>2026-06-23T11:04:59Z</time>
   </trkpt>
   <trkpt lat="-3.1295940" lon="37.3723470">
    <ele>3874.7</ele>
    <time>2026-06-23T11:05:00Z</time>
   </trkpt>
   <trkpt lat="-3.1296010" lon="37.3723490">
    <ele>3874.5</ele>
    <time>2026-06-23T11:05:01Z</time>
   </trkpt>
   <trkpt lat="-3.1296020" lon="37.3723530">
    <ele>3874.4</ele>
    <time>2026-06-23T11:05:02Z</time>
   </trkpt>
   <trkpt lat="-3.1296100" lon="37.3723580">
    <ele>3874.2</ele>
    <time>2026-06-23T11:05:03Z</time>
   </trkpt>
   <trkpt lat="-3.1296150" lon="37.3723650">
    <ele>3873.9</ele>
    <time>2026-06-23T11:05:04Z</time>
   </trkpt>
   <trkpt lat="-3.1296210" lon="37.3723710">
    <ele>3873.7</ele>
    <time>2026-06-23T11:05:05Z</time>
   </trkpt>
   <trkpt lat="-3.1296290" lon="37.3723760">
    <ele>3873.5</ele>
    <time>2026-06-23T11:05:06Z</time>
   </trkpt>
   <trkpt lat="-3.1296390" lon="37.3723820">
    <ele>3873.2</ele>
    <time>2026-06-23T11:05:07Z</time>
   </trkpt>
   <trkpt lat="-3.1296460" lon="37.3723870">
    <ele>3873.0</ele>
    <time>2026-06-23T11:05:08Z</time>
   </trkpt>
   <trkpt lat="-3.1296500" lon="37.3723900">
    <ele>3872.9</ele>
    <time>2026-06-23T11:05:09Z</time>
   </trkpt>
   <trkpt lat="-3.1296580" lon="37.3723920">
    <ele>3872.7</ele>
    <time>2026-06-23T11:05:10Z</time>
   </trkpt>
   <trkpt lat="-3.1296670" lon="37.3723940">
    <ele>3872.4</ele>
    <time>2026-06-23T11:05:11Z</time>
   </trkpt>
   <trkpt lat="-3.1296770" lon="37.3723930">
    <ele>3872.2</ele>
    <time>2026-06-23T11:05:12Z</time>
   </trkpt>
   <trkpt lat="-3.1296840" lon="37.3723930">
    <ele>3872.0</ele>
    <time>2026-06-23T11:05:13Z</time>
   </trkpt>
   <trkpt lat="-3.1296920" lon="37.3723940">
    <ele>3871.8</ele>
    <time>2026-06-23T11:05:14Z</time>
   </trkpt>
   <trkpt lat="-3.1296980" lon="37.3723970">
    <ele>3871.6</ele>
    <time>2026-06-23T11:05:15Z</time>
   </trkpt>
   <trkpt lat="-3.1297060" lon="37.3724010">
    <ele>3871.4</ele>
    <time>2026-06-23T11:05:16Z</time>
   </trkpt>
   <trkpt lat="-3.1297130" lon="37.3724050">
    <ele>3871.2</ele>
    <time>2026-06-23T11:05:17Z</time>
   </trkpt>
   <trkpt lat="-3.1297190" lon="37.3724110">
    <ele>3871.0</ele>
    <time>2026-06-23T11:05:18Z</time>
   </trkpt>
   <trkpt lat="-3.1297250" lon="37.3724150">
    <ele>3870.8</ele>
    <time>2026-06-23T11:05:19Z</time>
   </trkpt>
   <trkpt lat="-3.1297310" lon="37.3724160">
    <ele>3870.7</ele>
    <time>2026-06-23T11:05:20Z</time>
   </trkpt>
   <trkpt lat="-3.1297380" lon="37.3724180">
    <ele>3870.5</ele>
    <time>2026-06-23T11:05:21Z</time>
   </trkpt>
   <trkpt lat="-3.1297450" lon="37.3724190">
    <ele>3870.3</ele>
    <time>2026-06-23T11:05:22Z</time>
   </trkpt>
   <trkpt lat="-3.1297500" lon="37.3724210">
    <ele>3870.2</ele>
    <time>2026-06-23T11:05:23Z</time>
   </trkpt>
   <trkpt lat="-3.1297590" lon="37.3724250">
    <ele>3869.9</ele>
    <time>2026-06-23T11:05:24Z</time>
   </trkpt>
   <trkpt lat="-3.1297630" lon="37.3724260">
    <ele>3869.8</ele>
    <time>2026-06-23T11:05:25Z</time>
   </trkpt>
   <trkpt lat="-3.1297660" lon="37.3724250">
    <ele>3869.8</ele>
    <time>2026-06-23T11:05:26Z</time>
   </trkpt>
   <trkpt lat="-3.1297720" lon="37.3724200">
    <ele>3869.6</ele>
    <time>2026-06-23T11:05:27Z</time>
   </trkpt>
   <trkpt lat="-3.1297780" lon="37.3724130">
    <ele>3869.3</ele>
    <time>2026-06-23T11:05:28Z</time>
   </trkpt>
   <trkpt lat="-3.1297840" lon="37.3724040">
    <ele>3869.1</ele>
    <time>2026-06-23T11:05:29Z</time>
   </trkpt>
   <trkpt lat="-3.1297870" lon="37.3723960">
    <ele>3868.9</ele>
    <time>2026-06-23T11:05:30Z</time>
   </trkpt>
   <trkpt lat="-3.1297890" lon="37.3723890">
    <ele>3868.7</ele>
    <time>2026-06-23T11:05:31Z</time>
   </trkpt>
   <trkpt lat="-3.1297920" lon="37.3723830">
    <ele>3868.5</ele>
    <time>2026-06-23T11:05:32Z</time>
   </trkpt>
   <trkpt lat="-3.1297950" lon="37.3723750">
    <ele>3868.3</ele>
    <time>2026-06-23T11:05:33Z</time>
   </trkpt>
   <trkpt lat="-3.1297970" lon="37.3723700">
    <ele>3868.2</ele>
    <time>2026-06-23T11:05:34Z</time>
   </trkpt>
   <trkpt lat="-3.1298000" lon="37.3723690">
    <ele>3868.1</ele>
    <time>2026-06-23T11:05:35Z</time>
   </trkpt>
   <trkpt lat="-3.1298040" lon="37.3723670">
    <ele>3868.0</ele>
    <time>2026-06-23T11:05:36Z</time>
   </trkpt>
   <trkpt lat="-3.1298080" lon="37.3723700">
    <ele>3867.9</ele>
    <time>2026-06-23T11:05:37Z</time>
   </trkpt>
   <trkpt lat="-3.1298150" lon="37.3723740">
    <ele>3867.7</ele>
    <time>2026-06-23T11:05:38Z</time>
   </trkpt>
   <trkpt lat="-3.1298170" lon="37.3723780">
    <ele>3867.6</ele>
    <time>2026-06-23T11:05:39Z</time>
   </trkpt>
   <trkpt lat="-3.1298190" lon="37.3723830">
    <ele>3867.4</ele>
    <time>2026-06-23T11:05:40Z</time>
   </trkpt>
   <trkpt lat="-3.1298270" lon="37.3723840">
    <ele>3867.2</ele>
    <time>2026-06-23T11:05:41Z</time>
   </trkpt>
   <trkpt lat="-3.1298310" lon="37.3723880">
    <ele>3867.1</ele>
    <time>2026-06-23T11:05:42Z</time>
   </trkpt>
   <trkpt lat="-3.1298330" lon="37.3723920">
    <ele>3867.0</ele>
    <time>2026-06-23T11:05:43Z</time>
   </trkpt>
   <trkpt lat="-3.1298400" lon="37.3723960">
    <ele>3866.8</ele>
    <time>2026-06-23T11:05:44Z</time>
   </trkpt>
   <trkpt lat="-3.1298450" lon="37.3724000">
    <ele>3866.6</ele>
    <time>2026-06-23T11:05:45Z</time>
   </trkpt>
   <trkpt lat="-3.1298480" lon="37.3724030">
    <ele>3866.5</ele>
    <time>2026-06-23T11:05:46Z</time>
   </trkpt>
   <trkpt lat="-3.1298550" lon="37.3724050">
    <ele>3866.3</ele>
    <time>2026-06-23T11:05:47Z</time>
   </trkpt>
   <trkpt lat="-3.1298610" lon="37.3724110">
    <ele>3866.1</ele>
    <time>2026-06-23T11:05:48Z</time>
   </trkpt>
   <trkpt lat="-3.1298650" lon="37.3724140">
    <ele>3866.0</ele>
    <time>2026-06-23T11:05:49Z</time>
   </trkpt>
   <trkpt lat="-3.1298760" lon="37.3724160">
    <ele>3865.7</ele>
    <time>2026-06-23T11:05:50Z</time>
   </trkpt>
   <trkpt lat="-3.1298830" lon="37.3724210">
    <ele>3865.5</ele>
    <time>2026-06-23T11:05:51Z</time>
   </trkpt>
   <trkpt lat="-3.1298900" lon="37.3724210">
    <ele>3865.4</ele>
    <time>2026-06-23T11:05:52Z</time>
   </trkpt>
   <trkpt lat="-3.1298970" lon="37.3724240">
    <ele>3865.2</ele>
    <time>2026-06-23T11:05:53Z</time>
   </trkpt>
   <trkpt lat="-3.1299020" lon="37.3724270">
    <ele>3865.0</ele>
    <time>2026-06-23T11:05:54Z</time>
   </trkpt>
   <trkpt lat="-3.1299060" lon="37.3724300">
    <ele>3864.9</ele>
    <time>2026-06-23T11:05:55Z</time>
   </trkpt>
   <trkpt lat="-3.1299100" lon="37.3724320">
    <ele>3864.8</ele>
    <time>2026-06-23T11:05:56Z</time>
   </trkpt>
   <trkpt lat="-3.1299130" lon="37.3724290">
    <ele>3864.7</ele>
    <time>2026-06-23T11:05:57Z</time>
   </trkpt>
   <trkpt lat="-3.1299190" lon="37.3724250">
    <ele>3864.5</ele>
    <time>2026-06-23T11:05:58Z</time>
   </trkpt>
   <trkpt lat="-3.1299250" lon="37.3724220">
    <ele>3864.4</ele>
    <time>2026-06-23T11:05:59Z</time>
   </trkpt>
   <trkpt lat="-3.1299300" lon="37.3724200">
    <ele>3864.2</ele>
    <time>2026-06-23T11:06:00Z</time>
   </trkpt>
   <trkpt lat="-3.1299330" lon="37.3724210">
    <ele>3864.1</ele>
    <time>2026-06-23T11:06:01Z</time>
   </trkpt>
   <trkpt lat="-3.1299360" lon="37.3724240">
    <ele>3864.0</ele>
    <time>2026-06-23T11:06:02Z</time>
   </trkpt>
   <trkpt lat="-3.1299410" lon="37.3724290">
    <ele>3863.9</ele>
    <time>2026-06-23T11:06:03Z</time>
   </trkpt>
   <trkpt lat="-3.1299460" lon="37.3724340">
    <ele>3863.7</ele>
    <time>2026-06-23T11:06:04Z</time>
   </trkpt>
   <trkpt lat="-3.1299500" lon="37.3724380">
    <ele>3863.6</ele>
    <time>2026-06-23T11:06:05Z</time>
   </trkpt>
   <trkpt lat="-3.1299560" lon="37.3724420">
    <ele>3863.4</ele>
    <time>2026-06-23T11:06:06Z</time>
   </trkpt>
   <trkpt lat="-3.1299630" lon="37.3724440">
    <ele>3863.2</ele>
    <time>2026-06-23T11:06:07Z</time>
   </trkpt>
   <trkpt lat="-3.1299690" lon="37.3724440">
    <ele>3863.1</ele>
    <time>2026-06-23T11:06:08Z</time>
   </trkpt>
   <trkpt lat="-3.1299760" lon="37.3724440">
    <ele>3862.9</ele>
    <time>2026-06-23T11:06:09Z</time>
   </trkpt>
   <trkpt lat="-3.1299760" lon="37.3724450">
    <ele>3862.9</ele>
    <time>2026-06-23T11:06:10Z</time>
   </trkpt>
   <trkpt lat="-3.1299800" lon="37.3724470">
    <ele>3862.7</ele>
    <time>2026-06-23T11:06:11Z</time>
   </trkpt>
   <trkpt lat="-3.1299860" lon="37.3724530">
    <ele>3862.5</ele>
    <time>2026-06-23T11:06:12Z</time>
   </trkpt>
   <trkpt lat="-3.1299950" lon="37.3724570">
    <ele>3862.3</ele>
    <time>2026-06-23T11:06:13Z</time>
   </trkpt>
   <trkpt lat="-3.1300010" lon="37.3724600">
    <ele>3862.1</ele>
    <time>2026-06-23T11:06:14Z</time>
   </trkpt>
   <trkpt lat="-3.1300080" lon="37.3724590">
    <ele>3862.0</ele>
    <time>2026-06-23T11:06:15Z</time>
   </trkpt>
   <trkpt lat="-3.1300180" lon="37.3724590">
    <ele>3861.7</ele>
    <time>2026-06-23T11:06:16Z</time>
   </trkpt>
   <trkpt lat="-3.1300260" lon="37.3724590">
    <ele>3861.5</ele>
    <time>2026-06-23T11:06:17Z</time>
   </trkpt>
   <trkpt lat="-3.1300260" lon="37.3724590">
    <ele>3861.5</ele>
    <time>2026-06-23T11:06:18Z</time>
   </trkpt>
   <trkpt lat="-3.1300310" lon="37.3724610">
    <ele>3861.4</ele>
    <time>2026-06-23T11:06:19Z</time>
   </trkpt>
   <trkpt lat="-3.1300390" lon="37.3724670">
    <ele>3861.1</ele>
    <time>2026-06-23T11:06:20Z</time>
   </trkpt>
   <trkpt lat="-3.1300470" lon="37.3724690">
    <ele>3860.9</ele>
    <time>2026-06-23T11:06:21Z</time>
   </trkpt>
   <trkpt lat="-3.1300550" lon="37.3724700">
    <ele>3860.7</ele>
    <time>2026-06-23T11:06:22Z</time>
   </trkpt>
   <trkpt lat="-3.1300640" lon="37.3724710">
    <ele>3860.5</ele>
    <time>2026-06-23T11:06:23Z</time>
   </trkpt>
   <trkpt lat="-3.1300740" lon="37.3724720">
    <ele>3860.3</ele>
    <time>2026-06-23T11:06:24Z</time>
   </trkpt>
   <trkpt lat="-3.1300790" lon="37.3724770">
    <ele>3860.1</ele>
    <time>2026-06-23T11:06:25Z</time>
   </trkpt>
   <trkpt lat="-3.1300850" lon="37.3724820">
    <ele>3859.9</ele>
    <time>2026-06-23T11:06:26Z</time>
   </trkpt>
   <trkpt lat="-3.1300940" lon="37.3724820">
    <ele>3859.7</ele>
    <time>2026-06-23T11:06:27Z</time>
   </trkpt>
   <trkpt lat="-3.1301030" lon="37.3724770">
    <ele>3859.5</ele>
    <time>2026-06-23T11:06:28Z</time>
   </trkpt>
   <trkpt lat="-3.1301150" lon="37.3724710">
    <ele>3859.1</ele>
    <time>2026-06-23T11:06:29Z</time>
   </trkpt>
   <trkpt lat="-3.1301210" lon="37.3724650">
    <ele>3858.9</ele>
    <time>2026-06-23T11:06:30Z</time>
   </trkpt>
   <trkpt lat="-3.1301260" lon="37.3724580">
    <ele>3858.7</ele>
    <time>2026-06-23T11:06:31Z</time>
   </trkpt>
   <trkpt lat="-3.1301300" lon="37.3724570">
    <ele>3858.6</ele>
    <time>2026-06-23T11:06:32Z</time>
   </trkpt>
   <trkpt lat="-3.1301400" lon="37.3724550">
    <ele>3858.4</ele>
    <time>2026-06-23T11:06:33Z</time>
   </trkpt>
   <trkpt lat="-3.1301520" lon="37.3724540">
    <ele>3858.1</ele>
    <time>2026-06-23T11:06:34Z</time>
   </trkpt>
   <trkpt lat="-3.1301600" lon="37.3724500">
    <ele>3857.9</ele>
    <time>2026-06-23T11:06:35Z</time>
   </trkpt>
   <trkpt lat="-3.1301650" lon="37.3724430">
    <ele>3857.7</ele>
    <time>2026-06-23T11:06:36Z</time>
   </trkpt>
   <trkpt lat="-3.1301720" lon="37.3724340">
    <ele>3857.4</ele>
    <time>2026-06-23T11:06:37Z</time>
   </trkpt>
   <trkpt lat="-3.1301780" lon="37.3724280">
    <ele>3857.2</ele>
    <time>2026-06-23T11:06:38Z</time>
   </trkpt>
   <trkpt lat="-3.1301850" lon="37.3724240">
    <ele>3857.0</ele>
    <time>2026-06-23T11:06:39Z</time>
   </trkpt>
   <trkpt lat="-3.1301950" lon="37.3724220">
    <ele>3856.7</ele>
    <time>2026-06-23T11:06:40Z</time>
   </trkpt>
   <trkpt lat="-3.1302030" lon="37.3724240">
    <ele>3856.5</ele>
    <time>2026-06-23T11:06:41Z</time>
   </trkpt>
   <trkpt lat="-3.1302120" lon="37.3724250">
    <ele>3856.3</ele>
    <time>2026-06-23T11:06:42Z</time>
   </trkpt>
   <trkpt lat="-3.1302180" lon="37.3724270">
    <ele>3856.2</ele>
    <time>2026-06-23T11:06:43Z</time>
   </trkpt>
   <trkpt lat="-3.1302170" lon="37.3724280">
    <ele>3856.1</ele>
    <time>2026-06-23T11:06:44Z</time>
   </trkpt>
   <trkpt lat="-3.1302170" lon="37.3724300">
    <ele>3856.1</ele>
    <time>2026-06-23T11:06:45Z</time>
   </trkpt>
   <trkpt lat="-3.1302230" lon="37.3724320">
    <ele>3855.9</ele>
    <time>2026-06-23T11:06:46Z</time>
   </trkpt>
   <trkpt lat="-3.1302310" lon="37.3724360">
    <ele>3855.7</ele>
    <time>2026-06-23T11:06:47Z</time>
   </trkpt>
   <trkpt lat="-3.1302420" lon="37.3724400">
    <ele>3855.4</ele>
    <time>2026-06-23T11:06:48Z</time>
   </trkpt>
   <trkpt lat="-3.1302490" lon="37.3724450">
    <ele>3855.2</ele>
    <time>2026-06-23T11:06:49Z</time>
   </trkpt>
   <trkpt lat="-3.1302560" lon="37.3724480">
    <ele>3855.0</ele>
    <time>2026-06-23T11:06:50Z</time>
   </trkpt>
   <trkpt lat="-3.1302630" lon="37.3724500">
    <ele>3854.9</ele>
    <time>2026-06-23T11:06:51Z</time>
   </trkpt>
   <trkpt lat="-3.1302710" lon="37.3724530">
    <ele>3854.7</ele>
    <time>2026-06-23T11:06:52Z</time>
   </trkpt>
   <trkpt lat="-3.1302760" lon="37.3724520">
    <ele>3854.5</ele>
    <time>2026-06-23T11:06:53Z</time>
   </trkpt>
   <trkpt lat="-3.1302760" lon="37.3724510">
    <ele>3854.5</ele>
    <time>2026-06-23T11:06:54Z</time>
   </trkpt>
   <trkpt lat="-3.1302810" lon="37.3724520">
    <ele>3854.4</ele>
    <time>2026-06-23T11:06:55Z</time>
   </trkpt>
   <trkpt lat="-3.1302870" lon="37.3724610">
    <ele>3854.1</ele>
    <time>2026-06-23T11:06:56Z</time>
   </trkpt>
   <trkpt lat="-3.1302890" lon="37.3724670">
    <ele>3854.0</ele>
    <time>2026-06-23T11:06:57Z</time>
   </trkpt>
   <trkpt lat="-3.1302910" lon="37.3724700">
    <ele>3853.9</ele>
    <time>2026-06-23T11:06:58Z</time>
   </trkpt>
   <trkpt lat="-3.1302960" lon="37.3724730">
    <ele>3853.7</ele>
    <time>2026-06-23T11:06:59Z</time>
   </trkpt>
   <trkpt lat="-3.1303020" lon="37.3724760">
    <ele>3853.6</ele>
    <time>2026-06-23T11:07:00Z</time>
   </trkpt>
   <trkpt lat="-3.1303040" lon="37.3724750">
    <ele>3853.5</ele>
    <time>2026-06-23T11:07:01Z</time>
   </trkpt>
   <trkpt lat="-3.1303030" lon="37.3724730">
    <ele>3853.5</ele>
    <time>2026-06-23T11:07:02Z</time>
   </trkpt>
   <trkpt lat="-3.1303020" lon="37.3724730">
    <ele>3853.4</ele>
    <time>2026-06-23T11:07:03Z</time>
   </trkpt>
   <trkpt lat="-3.1303060" lon="37.3724740">
    <ele>3853.3</ele>
    <time>2026-06-23T11:07:04Z</time>
   </trkpt>
   <trkpt lat="-3.1303090" lon="37.3724750">
    <ele>3853.3</ele>
    <time>2026-06-23T11:07:05Z</time>
   </trkpt>
   <trkpt lat="-3.1303180" lon="37.3724750">
    <ele>3853.0</ele>
    <time>2026-06-23T11:07:06Z</time>
   </trkpt>
   <trkpt lat="-3.1303240" lon="37.3724680">
    <ele>3852.8</ele>
    <time>2026-06-23T11:07:07Z</time>
   </trkpt>
   <trkpt lat="-3.1303320" lon="37.3724620">
    <ele>3852.6</ele>
    <time>2026-06-23T11:07:08Z</time>
   </trkpt>
   <trkpt lat="-3.1303400" lon="37.3724600">
    <ele>3852.4</ele>
    <time>2026-06-23T11:07:09Z</time>
   </trkpt>
   <trkpt lat="-3.1303480" lon="37.3724580">
    <ele>3852.2</ele>
    <time>2026-06-23T11:07:10Z</time>
   </trkpt>
   <trkpt lat="-3.1303590" lon="37.3724540">
    <ele>3851.9</ele>
    <time>2026-06-23T11:07:11Z</time>
   </trkpt>
   <trkpt lat="-3.1303660" lon="37.3724530">
    <ele>3851.7</ele>
    <time>2026-06-23T11:07:12Z</time>
   </trkpt>
   <trkpt lat="-3.1303710" lon="37.3724540">
    <ele>3851.6</ele>
    <time>2026-06-23T11:07:13Z</time>
   </trkpt>
   <trkpt lat="-3.1303780" lon="37.3724570">
    <ele>3851.4</ele>
    <time>2026-06-23T11:07:14Z</time>
   </trkpt>
   <trkpt lat="-3.1303850" lon="37.3724610">
    <ele>3851.2</ele>
    <time>2026-06-23T11:07:15Z</time>
   </trkpt>
   <trkpt lat="-3.1303930" lon="37.3724660">
    <ele>3851.0</ele>
    <time>2026-06-23T11:07:16Z</time>
   </trkpt>
   <trkpt lat="-3.1304000" lon="37.3724680">
    <ele>3850.8</ele>
    <time>2026-06-23T11:07:17Z</time>
   </trkpt>
   <trkpt lat="-3.1304050" lon="37.3724660">
    <ele>3850.7</ele>
    <time>2026-06-23T11:07:18Z</time>
   </trkpt>
   <trkpt lat="-3.1304130" lon="37.3724640">
    <ele>3850.5</ele>
    <time>2026-06-23T11:07:19Z</time>
   </trkpt>
   <trkpt lat="-3.1304210" lon="37.3724630">
    <ele>3850.3</ele>
    <time>2026-06-23T11:07:20Z</time>
   </trkpt>
   <trkpt lat="-3.1304290" lon="37.3724640">
    <ele>3850.1</ele>
    <time>2026-06-23T11:07:21Z</time>
   </trkpt>
   <trkpt lat="-3.1304330" lon="37.3724630">
    <ele>3850.0</ele>
    <time>2026-06-23T11:07:22Z</time>
   </trkpt>
   <trkpt lat="-3.1304400" lon="37.3724590">
    <ele>3849.8</ele>
    <time>2026-06-23T11:07:23Z</time>
   </trkpt>
   <trkpt lat="-3.1304520" lon="37.3724560">
    <ele>3849.5</ele>
    <time>2026-06-23T11:07:24Z</time>
   </trkpt>
   <trkpt lat="-3.1304530" lon="37.3724580">
    <ele>3849.4</ele>
    <time>2026-06-23T11:07:25Z</time>
   </trkpt>
   <trkpt lat="-3.1304620" lon="37.3724610">
    <ele>3849.2</ele>
    <time>2026-06-23T11:07:26Z</time>
   </trkpt>
   <trkpt lat="-3.1304700" lon="37.3724650">
    <ele>3849.0</ele>
    <time>2026-06-23T11:07:27Z</time>
   </trkpt>
   <trkpt lat="-3.1304760" lon="37.3724680">
    <ele>3848.9</ele>
    <time>2026-06-23T11:07:28Z</time>
   </trkpt>
   <trkpt lat="-3.1304840" lon="37.3724710">
    <ele>3848.7</ele>
    <time>2026-06-23T11:07:29Z</time>
   </trkpt>
   <trkpt lat="-3.1304880" lon="37.3724720">
    <ele>3848.6</ele>
    <time>2026-06-23T11:07:30Z</time>
   </trkpt>
   <trkpt lat="-3.1304970" lon="37.3724700">
    <ele>3848.3</ele>
    <time>2026-06-23T11:07:31Z</time>
   </trkpt>
   <trkpt lat="-3.1305040" lon="37.3724690">
    <ele>3848.2</ele>
    <time>2026-06-23T11:07:32Z</time>
   </trkpt>
   <trkpt lat="-3.1305120" lon="37.3724690">
    <ele>3848.0</ele>
    <time>2026-06-23T11:07:33Z</time>
   </trkpt>
   <trkpt lat="-3.1305170" lon="37.3724710">
    <ele>3847.9</ele>
    <time>2026-06-23T11:07:34Z</time>
   </trkpt>
   <trkpt lat="-3.1305220" lon="37.3724750">
    <ele>3847.7</ele>
    <time>2026-06-23T11:07:35Z</time>
   </trkpt>
   <trkpt lat="-3.1305290" lon="37.3724780">
    <ele>3847.5</ele>
    <time>2026-06-23T11:07:36Z</time>
   </trkpt>
   <trkpt lat="-3.1305350" lon="37.3724790">
    <ele>3847.4</ele>
    <time>2026-06-23T11:07:37Z</time>
   </trkpt>
   <trkpt lat="-3.1305440" lon="37.3724750">
    <ele>3847.2</ele>
    <time>2026-06-23T11:07:38Z</time>
   </trkpt>
   <trkpt lat="-3.1305480" lon="37.3724710">
    <ele>3847.1</ele>
    <time>2026-06-23T11:07:39Z</time>
   </trkpt>
   <trkpt lat="-3.1305510" lon="37.3724670">
    <ele>3847.0</ele>
    <time>2026-06-23T11:07:40Z</time>
   </trkpt>
   <trkpt lat="-3.1305560" lon="37.3724600">
    <ele>3846.8</ele>
    <time>2026-06-23T11:07:41Z</time>
   </trkpt>
   <trkpt lat="-3.1305600" lon="37.3724550">
    <ele>3846.6</ele>
    <time>2026-06-23T11:07:42Z</time>
   </trkpt>
   <trkpt lat="-3.1305690" lon="37.3724500">
    <ele>3846.4</ele>
    <time>2026-06-23T11:07:43Z</time>
   </trkpt>
   <trkpt lat="-3.1305760" lon="37.3724480">
    <ele>3846.2</ele>
    <time>2026-06-23T11:07:44Z</time>
   </trkpt>
   <trkpt lat="-3.1305860" lon="37.3724470">
    <ele>3846.0</ele>
    <time>2026-06-23T11:07:45Z</time>
   </trkpt>
   <trkpt lat="-3.1305880" lon="37.3724470">
    <ele>3845.9</ele>
    <time>2026-06-23T11:07:46Z</time>
   </trkpt>
   <trkpt lat="-3.1305950" lon="37.3724440">
    <ele>3845.8</ele>
    <time>2026-06-23T11:07:47Z</time>
   </trkpt>
   <trkpt lat="-3.1306050" lon="37.3724400">
    <ele>3845.5</ele>
    <time>2026-06-23T11:07:48Z</time>
   </trkpt>
   <trkpt lat="-3.1306170" lon="37.3724390">
    <ele>3845.3</ele>
    <time>2026-06-23T11:07:49Z</time>
   </trkpt>
   <trkpt lat="-3.1306200" lon="37.3724440">
    <ele>3845.1</ele>
    <time>2026-06-23T11:07:50Z</time>
   </trkpt>
   <trkpt lat="-3.1306240" lon="37.3724490">
    <ele>3845.0</ele>
    <time>2026-06-23T11:07:51Z</time>
   </trkpt>
   <trkpt lat="-3.1306330" lon="37.3724520">
    <ele>3844.8</ele>
    <time>2026-06-23T11:07:52Z</time>
   </trkpt>
   <trkpt lat="-3.1306410" lon="37.3724550">
    <ele>3844.6</ele>
    <time>2026-06-23T11:07:53Z</time>
   </trkpt>
   <trkpt lat="-3.1306490" lon="37.3724580">
    <ele>3844.4</ele>
    <time>2026-06-23T11:07:54Z</time>
   </trkpt>
   <trkpt lat="-3.1306530" lon="37.3724590">
    <ele>3844.3</ele>
    <time>2026-06-23T11:07:55Z</time>
   </trkpt>
   <trkpt lat="-3.1306560" lon="37.3724590">
    <ele>3844.2</ele>
    <time>2026-06-23T11:07:56Z</time>
   </trkpt>
   <trkpt lat="-3.1306620" lon="37.3724580">
    <ele>3844.1</ele>
    <time>2026-06-23T11:07:57Z</time>
   </trkpt>
   <trkpt lat="-3.1306720" lon="37.3724570">
    <ele>3843.9</ele>
    <time>2026-06-23T11:07:58Z</time>
   </trkpt>
   <trkpt lat="-3.1306800" lon="37.3724510">
    <ele>3843.7</ele>
    <time>2026-06-23T11:07:59Z</time>
   </trkpt>
   <trkpt lat="-3.1306870" lon="37.3724420">
    <ele>3843.4</ele>
    <time>2026-06-23T11:08:00Z</time>
   </trkpt>
   <trkpt lat="-3.1306910" lon="37.3724380">
    <ele>3843.3</ele>
    <time>2026-06-23T11:08:01Z</time>
   </trkpt>
   <trkpt lat="-3.1306980" lon="37.3724320">
    <ele>3843.1</ele>
    <time>2026-06-23T11:08:02Z</time>
   </trkpt>
   <trkpt lat="-3.1307050" lon="37.3724250">
    <ele>3842.8</ele>
    <time>2026-06-23T11:08:03Z</time>
   </trkpt>
   <trkpt lat="-3.1307080" lon="37.3724190">
    <ele>3842.7</ele>
    <time>2026-06-23T11:08:04Z</time>
   </trkpt>
   <trkpt lat="-3.1307120" lon="37.3724180">
    <ele>3842.6</ele>
    <time>2026-06-23T11:08:05Z</time>
   </trkpt>
   <trkpt lat="-3.1307200" lon="37.3724080">
    <ele>3842.3</ele>
    <time>2026-06-23T11:08:06Z</time>
   </trkpt>
   <trkpt lat="-3.1307190" lon="37.3724070">
    <ele>3842.3</ele>
    <time>2026-06-23T11:08:07Z</time>
   </trkpt>
   <trkpt lat="-3.1307220" lon="37.3724040">
    <ele>3842.2</ele>
    <time>2026-06-23T11:08:08Z</time>
   </trkpt>
   <trkpt lat="-3.1307290" lon="37.3724000">
    <ele>3842.0</ele>
    <time>2026-06-23T11:08:09Z</time>
   </trkpt>
   <trkpt lat="-3.1307350" lon="37.3724000">
    <ele>3841.9</ele>
    <time>2026-06-23T11:08:10Z</time>
   </trkpt>
   <trkpt lat="-3.1307420" lon="37.3724020">
    <ele>3841.7</ele>
    <time>2026-06-23T11:08:11Z</time>
   </trkpt>
   <trkpt lat="-3.1307480" lon="37.3724060">
    <ele>3841.5</ele>
    <time>2026-06-23T11:08:12Z</time>
   </trkpt>
   <trkpt lat="-3.1307520" lon="37.3724080">
    <ele>3841.4</ele>
    <time>2026-06-23T11:08:13Z</time>
   </trkpt>
   <trkpt lat="-3.1307610" lon="37.3724110">
    <ele>3841.2</ele>
    <time>2026-06-23T11:08:14Z</time>
   </trkpt>
   <trkpt lat="-3.1307640" lon="37.3724130">
    <ele>3841.1</ele>
    <time>2026-06-23T11:08:15Z</time>
   </trkpt>
   <trkpt lat="-3.1307670" lon="37.3724150">
    <ele>3841.1</ele>
    <time>2026-06-23T11:08:16Z</time>
   </trkpt>
   <trkpt lat="-3.1307760" lon="37.3724170">
    <ele>3840.8</ele>
    <time>2026-06-23T11:08:17Z</time>
   </trkpt>
   <trkpt lat="-3.1307860" lon="37.3724160">
    <ele>3840.6</ele>
    <time>2026-06-23T11:08:18Z</time>
   </trkpt>
   <trkpt lat="-3.1307940" lon="37.3724160">
    <ele>3840.4</ele>
    <time>2026-06-23T11:08:19Z</time>
   </trkpt>
   <trkpt lat="-3.1307980" lon="37.3724150">
    <ele>3840.3</ele>
    <time>2026-06-23T11:08:20Z</time>
   </trkpt>
   <trkpt lat="-3.1308010" lon="37.3724140">
    <ele>3840.3</ele>
    <time>2026-06-23T11:08:21Z</time>
   </trkpt>
   <trkpt lat="-3.1308100" lon="37.3724110">
    <ele>3840.0</ele>
    <time>2026-06-23T11:08:22Z</time>
   </trkpt>
   <trkpt lat="-3.1308180" lon="37.3724090">
    <ele>3839.9</ele>
    <time>2026-06-23T11:08:23Z</time>
   </trkpt>
   <trkpt lat="-3.1308270" lon="37.3724060">
    <ele>3839.6</ele>
    <time>2026-06-23T11:08:24Z</time>
   </trkpt>
   <trkpt lat="-3.1308330" lon="37.3724040">
    <ele>3839.5</ele>
    <time>2026-06-23T11:08:25Z</time>
   </trkpt>
   <trkpt lat="-3.1308400" lon="37.3724010">
    <ele>3839.3</ele>
    <time>2026-06-23T11:08:26Z</time>
   </trkpt>
   <trkpt lat="-3.1308460" lon="37.3724010">
    <ele>3839.2</ele>
    <time>2026-06-23T11:08:27Z</time>
   </trkpt>
   <trkpt lat="-3.1308520" lon="37.3724010">
    <ele>3839.0</ele>
    <time>2026-06-23T11:08:28Z</time>
   </trkpt>
   <trkpt lat="-3.1308590" lon="37.3724010">
    <ele>3838.9</ele>
    <time>2026-06-23T11:08:29Z</time>
   </trkpt>
   <trkpt lat="-3.1308670" lon="37.3724000">
    <ele>3838.7</ele>
    <time>2026-06-23T11:08:30Z</time>
   </trkpt>
   <trkpt lat="-3.1308750" lon="37.3723990">
    <ele>3838.5</ele>
    <time>2026-06-23T11:08:31Z</time>
   </trkpt>
   <trkpt lat="-3.1308780" lon="37.3724020">
    <ele>3838.4</ele>
    <time>2026-06-23T11:08:32Z</time>
   </trkpt>
   <trkpt lat="-3.1308860" lon="37.3724060">
    <ele>3838.2</ele>
    <time>2026-06-23T11:08:33Z</time>
   </trkpt>
   <trkpt lat="-3.1308910" lon="37.3724090">
    <ele>3838.1</ele>
    <time>2026-06-23T11:08:34Z</time>
   </trkpt>
   <trkpt lat="-3.1308940" lon="37.3724070">
    <ele>3838.0</ele>
    <time>2026-06-23T11:08:35Z</time>
   </trkpt>
   <trkpt lat="-3.1308960" lon="37.3724030">
    <ele>3837.9</ele>
    <time>2026-06-23T11:08:36Z</time>
   </trkpt>
   <trkpt lat="-3.1309050" lon="37.3723980">
    <ele>3837.7</ele>
    <time>2026-06-23T11:08:37Z</time>
   </trkpt>
   <trkpt lat="-3.1309120" lon="37.3723930">
    <ele>3837.5</ele>
    <time>2026-06-23T11:08:38Z</time>
   </trkpt>
   <trkpt lat="-3.1309150" lon="37.3723890">
    <ele>3837.3</ele>
    <time>2026-06-23T11:08:39Z</time>
   </trkpt>
   <trkpt lat="-3.1309190" lon="37.3723840">
    <ele>3837.2</ele>
    <time>2026-06-23T11:08:40Z</time>
   </trkpt>
   <trkpt lat="-3.1309220" lon="37.3723760">
    <ele>3837.0</ele>
    <time>2026-06-23T11:08:41Z</time>
   </trkpt>
   <trkpt lat="-3.1309210" lon="37.3723710">
    <ele>3836.9</ele>
    <time>2026-06-23T11:08:42Z</time>
   </trkpt>
   <trkpt lat="-3.1309240" lon="37.3723700">
    <ele>3836.8</ele>
    <time>2026-06-23T11:08:43Z</time>
   </trkpt>
   <trkpt lat="-3.1309300" lon="37.3723680">
    <ele>3836.7</ele>
    <time>2026-06-23T11:08:44Z</time>
   </trkpt>
   <trkpt lat="-3.1309350" lon="37.3723680">
    <ele>3836.6</ele>
    <time>2026-06-23T11:08:45Z</time>
   </trkpt>
   <trkpt lat="-3.1309410" lon="37.3723650">
    <ele>3836.4</ele>
    <time>2026-06-23T11:08:46Z</time>
   </trkpt>
   <trkpt lat="-3.1309450" lon="37.3723680">
    <ele>3836.3</ele>
    <time>2026-06-23T11:08:47Z</time>
   </trkpt>
   <trkpt lat="-3.1309470" lon="37.3723740">
    <ele>3836.1</ele>
    <time>2026-06-23T11:08:48Z</time>
   </trkpt>
   <trkpt lat="-3.1309550" lon="37.3723810">
    <ele>3835.9</ele>
    <time>2026-06-23T11:08:49Z</time>
   </trkpt>
   <trkpt lat="-3.1309630" lon="37.3723860">
    <ele>3835.7</ele>
    <time>2026-06-23T11:08:50Z</time>
   </trkpt>
   <trkpt lat="-3.1309720" lon="37.3723860">
    <ele>3835.5</ele>
    <time>2026-06-23T11:08:51Z</time>
   </trkpt>
   <trkpt lat="-3.1309800" lon="37.3723880">
    <ele>3835.3</ele>
    <time>2026-06-23T11:08:52Z</time>
   </trkpt>
   <trkpt lat="-3.1309880" lon="37.3723870">
    <ele>3835.1</ele>
    <time>2026-06-23T11:08:53Z</time>
   </trkpt>
   <trkpt lat="-3.1309950" lon="37.3723850">
    <ele>3835.0</ele>
    <time>2026-06-23T11:08:54Z</time>
   </trkpt>
   <trkpt lat="-3.1310010" lon="37.3723800">
    <ele>3834.8</ele>
    <time>2026-06-23T11:08:55Z</time>
   </trkpt>
   <trkpt lat="-3.1310070" lon="37.3723710">
    <ele>3834.5</ele>
    <time>2026-06-23T11:08:56Z</time>
   </trkpt>
   <trkpt lat="-3.1310150" lon="37.3723630">
    <ele>3834.3</ele>
    <time>2026-06-23T11:08:57Z</time>
   </trkpt>
   <trkpt lat="-3.1310220" lon="37.3723600">
    <ele>3834.1</ele>
    <time>2026-06-23T11:08:58Z</time>
   </trkpt>
   <trkpt lat="-3.1310330" lon="37.3723550">
    <ele>3833.8</ele>
    <time>2026-06-23T11:08:59Z</time>
   </trkpt>
   <trkpt lat="-3.1310410" lon="37.3723520">
    <ele>3833.6</ele>
    <time>2026-06-23T11:09:00Z</time>
   </trkpt>
   <trkpt lat="-3.1310510" lon="37.3723470">
    <ele>3833.4</ele>
    <time>2026-06-23T11:09:01Z</time>
   </trkpt>
   <trkpt lat="-3.1310530" lon="37.3723450">
    <ele>3833.3</ele>
    <time>2026-06-23T11:09:02Z</time>
   </trkpt>
   <trkpt lat="-3.1310580" lon="37.3723440">
    <ele>3833.2</ele>
    <time>2026-06-23T11:09:03Z</time>
   </trkpt>
   <trkpt lat="-3.1310660" lon="37.3723430">
    <ele>3833.0</ele>
    <time>2026-06-23T11:09:04Z</time>
   </trkpt>
   <trkpt lat="-3.1310740" lon="37.3723410">
    <ele>3832.8</ele>
    <time>2026-06-23T11:09:05Z</time>
   </trkpt>
   <trkpt lat="-3.1310830" lon="37.3723400">
    <ele>3832.6</ele>
    <time>2026-06-23T11:09:06Z</time>
   </trkpt>
   <trkpt lat="-3.1310900" lon="37.3723380">
    <ele>3832.5</ele>
    <time>2026-06-23T11:09:07Z</time>
   </trkpt>
   <trkpt lat="-3.1310960" lon="37.3723360">
    <ele>3832.3</ele>
    <time>2026-06-23T11:09:08Z</time>
   </trkpt>
   <trkpt lat="-3.1311030" lon="37.3723300">
    <ele>3832.1</ele>
    <time>2026-06-23T11:09:09Z</time>
   </trkpt>
   <trkpt lat="-3.1311100" lon="37.3723290">
    <ele>3832.0</ele>
    <time>2026-06-23T11:09:10Z</time>
   </trkpt>
   <trkpt lat="-3.1311130" lon="37.3723280">
    <ele>3831.9</ele>
    <time>2026-06-23T11:09:11Z</time>
   </trkpt>
   <trkpt lat="-3.1311180" lon="37.3723280">
    <ele>3831.8</ele>
    <time>2026-06-23T11:09:12Z</time>
   </trkpt>
   <trkpt lat="-3.1311250" lon="37.3723260">
    <ele>3831.6</ele>
    <time>2026-06-23T11:09:13Z</time>
   </trkpt>
   <trkpt lat="-3.1311310" lon="37.3723240">
    <ele>3831.5</ele>
    <time>2026-06-23T11:09:14Z</time>
   </trkpt>
   <trkpt lat="-3.1311360" lon="37.3723230">
    <ele>3831.3</ele>
    <time>2026-06-23T11:09:15Z</time>
   </trkpt>
   <trkpt lat="-3.1311450" lon="37.3723180">
    <ele>3831.1</ele>
    <time>2026-06-23T11:09:16Z</time>
   </trkpt>
   <trkpt lat="-3.1311500" lon="37.3723160">
    <ele>3831.0</ele>
    <time>2026-06-23T11:09:17Z</time>
   </trkpt>
   <trkpt lat="-3.1311560" lon="37.3723180">
    <ele>3830.8</ele>
    <time>2026-06-23T11:09:18Z</time>
   </trkpt>
   <trkpt lat="-3.1311600" lon="37.3723200">
    <ele>3830.7</ele>
    <time>2026-06-23T11:09:19Z</time>
   </trkpt>
   <trkpt lat="-3.1311670" lon="37.3723210">
    <ele>3830.6</ele>
    <time>2026-06-23T11:09:20Z</time>
   </trkpt>
   <trkpt lat="-3.1311770" lon="37.3723200">
    <ele>3830.4</ele>
    <time>2026-06-23T11:09:21Z</time>
   </trkpt>
   <trkpt lat="-3.1311830" lon="37.3723190">
    <ele>3830.2</ele>
    <time>2026-06-23T11:09:22Z</time>
   </trkpt>
   <trkpt lat="-3.1311870" lon="37.3723160">
    <ele>3830.1</ele>
    <time>2026-06-23T11:09:23Z</time>
   </trkpt>
   <trkpt lat="-3.1311910" lon="37.3723100">
    <ele>3829.9</ele>
    <time>2026-06-23T11:09:24Z</time>
   </trkpt>
   <trkpt lat="-3.1311970" lon="37.3723040">
    <ele>3829.8</ele>
    <time>2026-06-23T11:09:25Z</time>
   </trkpt>
   <trkpt lat="-3.1312030" lon="37.3723000">
    <ele>3829.6</ele>
    <time>2026-06-23T11:09:26Z</time>
   </trkpt>
   <trkpt lat="-3.1312090" lon="37.3722980">
    <ele>3829.4</ele>
    <time>2026-06-23T11:09:27Z</time>
   </trkpt>
   <trkpt lat="-3.1312170" lon="37.3722980">
    <ele>3829.3</ele>
    <time>2026-06-23T11:09:28Z</time>
   </trkpt>
   <trkpt lat="-3.1312210" lon="37.3722990">
    <ele>3829.2</ele>
    <time>2026-06-23T11:09:29Z</time>
   </trkpt>
   <trkpt lat="-3.1312260" lon="37.3723010">
    <ele>3829.0</ele>
    <time>2026-06-23T11:09:30Z</time>
   </trkpt>
   <trkpt lat="-3.1312310" lon="37.3723060">
    <ele>3828.9</ele>
    <time>2026-06-23T11:09:31Z</time>
   </trkpt>
   <trkpt lat="-3.1312390" lon="37.3723140">
    <ele>3828.6</ele>
    <time>2026-06-23T11:09:32Z</time>
   </trkpt>
   <trkpt lat="-3.1312450" lon="37.3723160">
    <ele>3828.5</ele>
    <time>2026-06-23T11:09:33Z</time>
   </trkpt>
   <trkpt lat="-3.1312490" lon="37.3723160">
    <ele>3828.4</ele>
    <time>2026-06-23T11:09:34Z</time>
   </trkpt>
   <trkpt lat="-3.1312560" lon="37.3723130">
    <ele>3828.2</ele>
    <time>2026-06-23T11:09:35Z</time>
   </trkpt>
   <trkpt lat="-3.1312650" lon="37.3723100">
    <ele>3828.0</ele>
    <time>2026-06-23T11:09:36Z</time>
   </trkpt>
   <trkpt lat="-3.1312750" lon="37.3723060">
    <ele>3827.8</ele>
    <time>2026-06-23T11:09:37Z</time>
   </trkpt>
   <trkpt lat="-3.1312830" lon="37.3723040">
    <ele>3827.6</ele>
    <time>2026-06-23T11:09:38Z</time>
   </trkpt>
   <trkpt lat="-3.1312900" lon="37.3723050">
    <ele>3827.4</ele>
    <time>2026-06-23T11:09:39Z</time>
   </trkpt>
   <trkpt lat="-3.1312980" lon="37.3723030">
    <ele>3827.2</ele>
    <time>2026-06-23T11:09:40Z</time>
   </trkpt>
   <trkpt lat="-3.1313000" lon="37.3723060">
    <ele>3827.1</ele>
    <time>2026-06-23T11:09:41Z</time>
   </trkpt>
   <trkpt lat="-3.1313000" lon="37.3723100">
    <ele>3827.0</ele>
    <time>2026-06-23T11:09:42Z</time>
   </trkpt>
   <trkpt lat="-3.1313100" lon="37.3723160">
    <ele>3826.8</ele>
    <time>2026-06-23T11:09:43Z</time>
   </trkpt>
   <trkpt lat="-3.1313180" lon="37.3723180">
    <ele>3826.6</ele>
    <time>2026-06-23T11:09:44Z</time>
   </trkpt>
   <trkpt lat="-3.1313270" lon="37.3723170">
    <ele>3826.4</ele>
    <time>2026-06-23T11:09:45Z</time>
   </trkpt>
   <trkpt lat="-3.1313340" lon="37.3723150">
    <ele>3826.2</ele>
    <time>2026-06-23T11:09:46Z</time>
   </trkpt>
   <trkpt lat="-3.1313390" lon="37.3723110">
    <ele>3826.1</ele>
    <time>2026-06-23T11:09:47Z</time>
   </trkpt>
   <trkpt lat="-3.1313480" lon="37.3723090">
    <ele>3825.8</ele>
    <time>2026-06-23T11:09:48Z</time>
   </trkpt>
   <trkpt lat="-3.1313540" lon="37.3723090">
    <ele>3825.7</ele>
    <time>2026-06-23T11:09:49Z</time>
   </trkpt>
   <trkpt lat="-3.1313620" lon="37.3723090">
    <ele>3825.5</ele>
    <time>2026-06-23T11:09:50Z</time>
   </trkpt>
   <trkpt lat="-3.1313650" lon="37.3723040">
    <ele>3825.4</ele>
    <time>2026-06-23T11:09:51Z</time>
   </trkpt>
   <trkpt lat="-3.1313680" lon="37.3722980">
    <ele>3825.2</ele>
    <time>2026-06-23T11:09:52Z</time>
   </trkpt>
   <trkpt lat="-3.1313770" lon="37.3722950">
    <ele>3825.0</ele>
    <time>2026-06-23T11:09:53Z</time>
   </trkpt>
   <trkpt lat="-3.1313870" lon="37.3722950">
    <ele>3824.8</ele>
    <time>2026-06-23T11:09:54Z</time>
   </trkpt>
   <trkpt lat="-3.1313970" lon="37.3722960">
    <ele>3824.6</ele>
    <time>2026-06-23T11:09:55Z</time>
   </trkpt>
   <trkpt lat="-3.1314000" lon="37.3722990">
    <ele>3824.5</ele>
    <time>2026-06-23T11:09:56Z</time>
   </trkpt>
   <trkpt lat="-3.1314110" lon="37.3723000">
    <ele>3824.2</ele>
    <time>2026-06-23T11:09:57Z</time>
   </trkpt>
   <trkpt lat="-3.1314180" lon="37.3722980">
    <ele>3824.0</ele>
    <time>2026-06-23T11:09:58Z</time>
   </trkpt>
   <trkpt lat="-3.1314280" lon="37.3722930">
    <ele>3823.8</ele>
    <time>2026-06-23T11:09:59Z</time>
   </trkpt>
   <trkpt lat="-3.1314320" lon="37.3722900">
    <ele>3823.7</ele>
    <time>2026-06-23T11:10:00Z</time>
   </trkpt>
   <trkpt lat="-3.1314370" lon="37.3722870">
    <ele>3823.5</ele>
    <time>2026-06-23T11:10:01Z</time>
   </trkpt>
   <trkpt lat="-3.1314440" lon="37.3722840">
    <ele>3823.4</ele>
    <time>2026-06-23T11:10:02Z</time>
   </trkpt>
   <trkpt lat="-3.1314530" lon="37.3722830">
    <ele>3823.2</ele>
    <time>2026-06-23T11:10:03Z</time>
   </trkpt>
   <trkpt lat="-3.1314590" lon="37.3722860">
    <ele>3823.0</ele>
    <time>2026-06-23T11:10:04Z</time>
   </trkpt>
   <trkpt lat="-3.1314640" lon="37.3722890">
    <ele>3822.9</ele>
    <time>2026-06-23T11:10:05Z</time>
   </trkpt>
   <trkpt lat="-3.1314700" lon="37.3722910">
    <ele>3822.7</ele>
    <time>2026-06-23T11:10:06Z</time>
   </trkpt>
   <trkpt lat="-3.1314800" lon="37.3722930">
    <ele>3822.5</ele>
    <time>2026-06-23T11:10:07Z</time>
   </trkpt>
   <trkpt lat="-3.1314880" lon="37.3722920">
    <ele>3822.3</ele>
    <time>2026-06-23T11:10:08Z</time>
   </trkpt>
   <trkpt lat="-3.1314960" lon="37.3722920">
    <ele>3822.1</ele>
    <time>2026-06-23T11:10:09Z</time>
   </trkpt>
   <trkpt lat="-3.1315000" lon="37.3722920">
    <ele>3822.0</ele>
    <time>2026-06-23T11:10:10Z</time>
   </trkpt>
   <trkpt lat="-3.1315060" lon="37.3722900">
    <ele>3821.9</ele>
    <time>2026-06-23T11:10:11Z</time>
   </trkpt>
   <trkpt lat="-3.1315080" lon="37.3722900">
    <ele>3821.8</ele>
    <time>2026-06-23T11:10:12Z</time>
   </trkpt>
   <trkpt lat="-3.1315130" lon="37.3722920">
    <ele>3821.7</ele>
    <time>2026-06-23T11:10:13Z</time>
   </trkpt>
   <trkpt lat="-3.1315180" lon="37.3722930">
    <ele>3821.6</ele>
    <time>2026-06-23T11:10:14Z</time>
   </trkpt>
   <trkpt lat="-3.1315260" lon="37.3722930">
    <ele>3821.4</ele>
    <time>2026-06-23T11:10:15Z</time>
   </trkpt>
   <trkpt lat="-3.1315300" lon="37.3722950">
    <ele>3821.3</ele>
    <time>2026-06-23T11:10:16Z</time>
   </trkpt>
   <trkpt lat="-3.1315330" lon="37.3723000">
    <ele>3821.2</ele>
    <time>2026-06-23T11:10:17Z</time>
   </trkpt>
   <trkpt lat="-3.1315390" lon="37.3723060">
    <ele>3821.0</ele>
    <time>2026-06-23T11:10:18Z</time>
   </trkpt>
   <trkpt lat="-3.1315410" lon="37.3723140">
    <ele>3820.8</ele>
    <time>2026-06-23T11:10:19Z</time>
   </trkpt>
   <trkpt lat="-3.1315420" lon="37.3723210">
    <ele>3820.6</ele>
    <time>2026-06-23T11:10:20Z</time>
   </trkpt>
   <trkpt lat="-3.1315490" lon="37.3723290">
    <ele>3820.4</ele>
    <time>2026-06-23T11:10:21Z</time>
   </trkpt>
   <trkpt lat="-3.1315600" lon="37.3723340">
    <ele>3820.1</ele>
    <time>2026-06-23T11:10:22Z</time>
   </trkpt>
   <trkpt lat="-3.1315690" lon="37.3723350">
    <ele>3819.9</ele>
    <time>2026-06-23T11:10:23Z</time>
   </trkpt>
   <trkpt lat="-3.1315760" lon="37.3723370">
    <ele>3819.8</ele>
    <time>2026-06-23T11:10:24Z</time>
   </trkpt>
   <trkpt lat="-3.1315800" lon="37.3723390">
    <ele>3819.7</ele>
    <time>2026-06-23T11:10:25Z</time>
   </trkpt>
   <trkpt lat="-3.1315860" lon="37.3723430">
    <ele>3819.5</ele>
    <time>2026-06-23T11:10:26Z</time>
   </trkpt>
   <trkpt lat="-3.1315930" lon="37.3723480">
    <ele>3819.3</ele>
    <time>2026-06-23T11:10:27Z</time>
   </trkpt>
   <trkpt lat="-3.1316030" lon="37.3723520">
    <ele>3819.1</ele>
    <time>2026-06-23T11:10:28Z</time>
   </trkpt>
   <trkpt lat="-3.1316100" lon="37.3723540">
    <ele>3818.9</ele>
    <time>2026-06-23T11:10:29Z</time>
   </trkpt>
   <trkpt lat="-3.1316130" lon="37.3723530">
    <ele>3818.8</ele>
    <time>2026-06-23T11:10:30Z</time>
   </trkpt>
   <trkpt lat="-3.1316230" lon="37.3723530">
    <ele>3818.6</ele>
    <time>2026-06-23T11:10:31Z</time>
   </trkpt>
   <trkpt lat="-3.1316350" lon="37.3723510">
    <ele>3818.4</ele>
    <time>2026-06-23T11:10:32Z</time>
   </trkpt>
   <trkpt lat="-3.1316470" lon="37.3723490">
    <ele>3818.1</ele>
    <time>2026-06-23T11:10:33Z</time>
   </trkpt>
   <trkpt lat="-3.1316500" lon="37.3723500">
    <ele>3818.0</ele>
    <time>2026-06-23T11:10:34Z</time>
   </trkpt>
   <trkpt lat="-3.1316560" lon="37.3723520">
    <ele>3817.9</ele>
    <time>2026-06-23T11:10:35Z</time>
   </trkpt>
   <trkpt lat="-3.1316600" lon="37.3723520">
    <ele>3817.8</ele>
    <time>2026-06-23T11:10:36Z</time>
   </trkpt>
   <trkpt lat="-3.1316610" lon="37.3723540">
    <ele>3817.7</ele>
    <time>2026-06-23T11:10:37Z</time>
   </trkpt>
   <trkpt lat="-3.1316710" lon="37.3723580">
    <ele>3817.5</ele>
    <time>2026-06-23T11:10:38Z</time>
   </trkpt>
   <trkpt lat="-3.1316790" lon="37.3723640">
    <ele>3817.3</ele>
    <time>2026-06-23T11:10:39Z</time>
   </trkpt>
   <trkpt lat="-3.1316820" lon="37.3723680">
    <ele>3817.2</ele>
    <time>2026-06-23T11:10:40Z</time>
   </trkpt>
   <trkpt lat="-3.1316910" lon="37.3723740">
    <ele>3816.9</ele>
    <time>2026-06-23T11:10:41Z</time>
   </trkpt>
   <trkpt lat="-3.1316960" lon="37.3723770">
    <ele>3816.8</ele>
    <time>2026-06-23T11:10:42Z</time>
   </trkpt>
   <trkpt lat="-3.1317020" lon="37.3723810">
    <ele>3816.6</ele>
    <time>2026-06-23T11:10:43Z</time>
   </trkpt>
   <trkpt lat="-3.1317130" lon="37.3723840">
    <ele>3816.4</ele>
    <time>2026-06-23T11:10:44Z</time>
   </trkpt>
   <trkpt lat="-3.1317170" lon="37.3723860">
    <ele>3816.3</ele>
    <time>2026-06-23T11:10:45Z</time>
   </trkpt>
   <trkpt lat="-3.1317210" lon="37.3723890">
    <ele>3816.2</ele>
    <time>2026-06-23T11:10:46Z</time>
   </trkpt>
   <trkpt lat="-3.1317280" lon="37.3723950">
    <ele>3816.0</ele>
    <time>2026-06-23T11:10:47Z</time>
   </trkpt>
   <trkpt lat="-3.1317340" lon="37.3723980">
    <ele>3815.8</ele>
    <time>2026-06-23T11:10:48Z</time>
   </trkpt>
   <trkpt lat="-3.1317380" lon="37.3723990">
    <ele>3815.8</ele>
    <time>2026-06-23T11:10:49Z</time>
   </trkpt>
   <trkpt lat="-3.1317430" lon="37.3724020">
    <ele>3815.6</ele>
    <time>2026-06-23T11:10:50Z</time>
   </trkpt>
   <trkpt lat="-3.1317430" lon="37.3724030">
    <ele>3815.6</ele>
    <time>2026-06-23T11:10:51Z</time>
   </trkpt>
   <trkpt lat="-3.1317500" lon="37.3724100">
    <ele>3815.4</ele>
    <time>2026-06-23T11:10:52Z</time>
   </trkpt>
   <trkpt lat="-3.1317570" lon="37.3724180">
    <ele>3815.2</ele>
    <time>2026-06-23T11:10:53Z</time>
   </trkpt>
   <trkpt lat="-3.1317620" lon="37.3724230">
    <ele>3815.0</ele>
    <time>2026-06-23T11:10:54Z</time>
   </trkpt>
   <trkpt lat="-3.1317670" lon="37.3724260">
    <ele>3814.9</ele>
    <time>2026-06-23T11:10:55Z</time>
   </trkpt>
   <trkpt lat="-3.1317690" lon="37.3724250">
    <ele>3814.8</ele>
    <time>2026-06-23T11:10:56Z</time>
   </trkpt>
   <trkpt lat="-3.1317740" lon="37.3724240">
    <ele>3814.7</ele>
    <time>2026-06-23T11:10:57Z</time>
   </trkpt>
   <trkpt lat="-3.1317750" lon="37.3724230">
    <ele>3814.7</ele>
    <time>2026-06-23T11:10:58Z</time>
   </trkpt>
   <trkpt lat="-3.1317800" lon="37.3724240">
    <ele>3814.6</ele>
    <time>2026-06-23T11:10:59Z</time>
   </trkpt>
   <trkpt lat="-3.1317860" lon="37.3724270">
    <ele>3814.4</ele>
    <time>2026-06-23T11:11:00Z</time>
   </trkpt>
   <trkpt lat="-3.1317890" lon="37.3724250">
    <ele>3814.4</ele>
    <time>2026-06-23T11:11:02Z</time>
   </trkpt>
   <trkpt lat="-3.1317960" lon="37.3724250">
    <ele>3814.2</ele>
    <time>2026-06-23T11:11:03Z</time>
   </trkpt>
   <trkpt lat="-3.1318030" lon="37.3724230">
    <ele>3814.0</ele>
    <time>2026-06-23T11:11:04Z</time>
   </trkpt>
   <trkpt lat="-3.1318110" lon="37.3724240">
    <ele>3813.9</ele>
    <time>2026-06-23T11:11:05Z</time>
   </trkpt>
   <trkpt lat="-3.1318170" lon="37.3724270">
    <ele>3813.7</ele>
    <time>2026-06-23T11:11:06Z</time>
   </trkpt>
   <trkpt lat="-3.1318270" lon="37.3724310">
    <ele>3813.5</ele>
    <time>2026-06-23T11:11:07Z</time>
   </trkpt>
   <trkpt lat="-3.1318350" lon="37.3724350">
    <ele>3813.3</ele>
    <time>2026-06-23T11:11:08Z</time>
   </trkpt>
   <trkpt lat="-3.1318470" lon="37.3724320">
    <ele>3813.0</ele>
    <time>2026-06-23T11:11:09Z</time>
   </trkpt>
   <trkpt lat="-3.1318540" lon="37.3724250">
    <ele>3812.8</ele>
    <time>2026-06-23T11:11:10Z</time>
   </trkpt>
   <trkpt lat="-3.1318620" lon="37.3724200">
    <ele>3812.6</ele>
    <time>2026-06-23T11:11:11Z</time>
   </trkpt>
   <trkpt lat="-3.1318770" lon="37.3724160">
    <ele>3812.3</ele>
    <time>2026-06-23T11:11:12Z</time>
   </trkpt>
   <trkpt lat="-3.1318850" lon="37.3724130">
    <ele>3812.1</ele>
    <time>2026-06-23T11:11:13Z</time>
   </trkpt>
   <trkpt lat="-3.1318960" lon="37.3724070">
    <ele>3811.9</ele>
    <time>2026-06-23T11:11:14Z</time>
   </trkpt>
   <trkpt lat="-3.1319040" lon="37.3724020">
    <ele>3811.7</ele>
    <time>2026-06-23T11:11:15Z</time>
   </trkpt>
   <trkpt lat="-3.1319130" lon="37.3723960">
    <ele>3811.5</ele>
    <time>2026-06-23T11:11:16Z</time>
   </trkpt>
   <trkpt lat="-3.1319210" lon="37.3723920">
    <ele>3811.3</ele>
    <time>2026-06-23T11:11:17Z</time>
   </trkpt>
   <trkpt lat="-3.1319290" lon="37.3723890">
    <ele>3811.1</ele>
    <time>2026-06-23T11:11:18Z</time>
   </trkpt>
   <trkpt lat="-3.1319330" lon="37.3723840">
    <ele>3811.0</ele>
    <time>2026-06-23T11:11:19Z</time>
   </trkpt>
   <trkpt lat="-3.1319380" lon="37.3723750">
    <ele>3810.8</ele>
    <time>2026-06-23T11:11:20Z</time>
   </trkpt>
   <trkpt lat="-3.1319420" lon="37.3723670">
    <ele>3810.6</ele>
    <time>2026-06-23T11:11:21Z</time>
   </trkpt>
   <trkpt lat="-3.1319490" lon="37.3723590">
    <ele>3810.5</ele>
    <time>2026-06-23T11:11:22Z</time>
   </trkpt>
   <trkpt lat="-3.1319610" lon="37.3723520">
    <ele>3810.2</ele>
    <time>2026-06-23T11:11:23Z</time>
   </trkpt>
   <trkpt lat="-3.1319720" lon="37.3723440">
    <ele>3810.0</ele>
    <time>2026-06-23T11:11:24Z</time>
   </trkpt>
   <trkpt lat="-3.1319830" lon="37.3723370">
    <ele>3809.7</ele>
    <time>2026-06-23T11:11:25Z</time>
   </trkpt>
   <trkpt lat="-3.1319900" lon="37.3723310">
    <ele>3809.6</ele>
    <time>2026-06-23T11:11:26Z</time>
   </trkpt>
   <trkpt lat="-3.1319960" lon="37.3723260">
    <ele>3809.5</ele>
    <time>2026-06-23T11:11:27Z</time>
   </trkpt>
   <trkpt lat="-3.1320050" lon="37.3723220">
    <ele>3809.3</ele>
    <time>2026-06-23T11:11:28Z</time>
   </trkpt>
   <trkpt lat="-3.1320150" lon="37.3723200">
    <ele>3809.1</ele>
    <time>2026-06-23T11:11:29Z</time>
   </trkpt>
   <trkpt lat="-3.1320270" lon="37.3723150">
    <ele>3808.9</ele>
    <time>2026-06-23T11:11:30Z</time>
   </trkpt>
   <trkpt lat="-3.1320390" lon="37.3723130">
    <ele>3808.7</ele>
    <time>2026-06-23T11:11:31Z</time>
   </trkpt>
   <trkpt lat="-3.1320460" lon="37.3723090">
    <ele>3808.6</ele>
    <time>2026-06-23T11:11:32Z</time>
   </trkpt>
   <trkpt lat="-3.1320560" lon="37.3723050">
    <ele>3808.4</ele>
    <time>2026-06-23T11:11:33Z</time>
   </trkpt>
   <trkpt lat="-3.1320640" lon="37.3723020">
    <ele>3808.3</ele>
    <time>2026-06-23T11:11:34Z</time>
   </trkpt>
   <trkpt lat="-3.1320730" lon="37.3722980">
    <ele>3808.1</ele>
    <time>2026-06-23T11:11:35Z</time>
   </trkpt>
   <trkpt lat="-3.1320820" lon="37.3722930">
    <ele>3808.0</ele>
    <time>2026-06-23T11:11:36Z</time>
   </trkpt>
   <trkpt lat="-3.1320860" lon="37.3722910">
    <ele>3807.9</ele>
    <time>2026-06-23T11:11:37Z</time>
   </trkpt>
   <trkpt lat="-3.1320950" lon="37.3722880">
    <ele>3807.7</ele>
    <time>2026-06-23T11:11:38Z</time>
   </trkpt>
   <trkpt lat="-3.1321010" lon="37.3722810">
    <ele>3807.6</ele>
    <time>2026-06-23T11:11:39Z</time>
   </trkpt>
   <trkpt lat="-3.1321140" lon="37.3722750">
    <ele>3807.4</ele>
    <time>2026-06-23T11:11:40Z</time>
   </trkpt>
   <trkpt lat="-3.1321260" lon="37.3722640">
    <ele>3807.1</ele>
    <time>2026-06-23T11:11:41Z</time>
   </trkpt>
   <trkpt lat="-3.1321300" lon="37.3722600">
    <ele>3807.0</ele>
    <time>2026-06-23T11:11:42Z</time>
   </trkpt>
   <trkpt lat="-3.1321280" lon="37.3722570">
    <ele>3807.0</ele>
    <time>2026-06-23T11:11:43Z</time>
   </trkpt>
   <trkpt lat="-3.1321330" lon="37.3722500">
    <ele>3806.8</ele>
    <time>2026-06-23T11:11:44Z</time>
   </trkpt>
   <trkpt lat="-3.1321380" lon="37.3722410">
    <ele>3806.7</ele>
    <time>2026-06-23T11:11:45Z</time>
   </trkpt>
   <trkpt lat="-3.1321420" lon="37.3722330">
    <ele>3806.6</ele>
    <time>2026-06-23T11:11:46Z</time>
   </trkpt>
   <trkpt lat="-3.1321490" lon="37.3722240">
    <ele>3806.4</ele>
    <time>2026-06-23T11:11:47Z</time>
   </trkpt>
   <trkpt lat="-3.1321560" lon="37.3722150">
    <ele>3806.2</ele>
    <time>2026-06-23T11:11:48Z</time>
   </trkpt>
   <trkpt lat="-3.1321590" lon="37.3722090">
    <ele>3806.1</ele>
    <time>2026-06-23T11:11:49Z</time>
   </trkpt>
   <trkpt lat="-3.1321620" lon="37.3722050">
    <ele>3806.0</ele>
    <time>2026-06-23T11:11:50Z</time>
   </trkpt>
   <trkpt lat="-3.1321650" lon="37.3721990">
    <ele>3806.0</ele>
    <time>2026-06-23T11:11:51Z</time>
   </trkpt>
   <trkpt lat="-3.1321710" lon="37.3721920">
    <ele>3805.8</ele>
    <time>2026-06-23T11:11:52Z</time>
   </trkpt>
   <trkpt lat="-3.1321800" lon="37.3721850">
    <ele>3805.7</ele>
    <time>2026-06-23T11:11:53Z</time>
   </trkpt>
   <trkpt lat="-3.1321890" lon="37.3721810">
    <ele>3805.5</ele>
    <time>2026-06-23T11:11:54Z</time>
   </trkpt>
   <trkpt lat="-3.1321990" lon="37.3721720">
    <ele>3805.3</ele>
    <time>2026-06-23T11:11:55Z</time>
   </trkpt>
   <trkpt lat="-3.1322070" lon="37.3721630">
    <ele>3805.1</ele>
    <time>2026-06-23T11:11:56Z</time>
   </trkpt>
   <trkpt lat="-3.1322110" lon="37.3721540">
    <ele>3805.0</ele>
    <time>2026-06-23T11:11:57Z</time>
   </trkpt>
   <trkpt lat="-3.1322160" lon="37.3721480">
    <ele>3804.9</ele>
    <time>2026-06-23T11:11:58Z</time>
   </trkpt>
   <trkpt lat="-3.1322250" lon="37.3721400">
    <ele>3804.7</ele>
    <time>2026-06-23T11:11:59Z</time>
   </trkpt>
   <trkpt lat="-3.1322290" lon="37.3721370">
    <ele>3804.6</ele>
    <time>2026-06-23T11:12:00Z</time>
   </trkpt>
   <trkpt lat="-3.1322370" lon="37.3721300">
    <ele>3804.5</ele>
    <time>2026-06-23T11:12:01Z</time>
   </trkpt>
   <trkpt lat="-3.1322470" lon="37.3721290">
    <ele>3804.3</ele>
    <time>2026-06-23T11:12:02Z</time>
   </trkpt>
   <trkpt lat="-3.1322560" lon="37.3721280">
    <ele>3804.2</ele>
    <time>2026-06-23T11:12:03Z</time>
   </trkpt>
   <trkpt lat="-3.1322660" lon="37.3721240">
    <ele>3804.0</ele>
    <time>2026-06-23T11:12:04Z</time>
   </trkpt>
   <trkpt lat="-3.1322690" lon="37.3721240">
    <ele>3804.0</ele>
    <time>2026-06-23T11:12:05Z</time>
   </trkpt>
   <trkpt lat="-3.1322770" lon="37.3721230">
    <ele>3803.8</ele>
    <time>2026-06-23T11:12:06Z</time>
   </trkpt>
   <trkpt lat="-3.1322830" lon="37.3721240">
    <ele>3803.8</ele>
    <time>2026-06-23T11:12:07Z</time>
   </trkpt>
   <trkpt lat="-3.1322920" lon="37.3721210">
    <ele>3803.6</ele>
    <time>2026-06-23T11:12:08Z</time>
   </trkpt>
   <trkpt lat="-3.1323010" lon="37.3721200">
    <ele>3803.5</ele>
    <time>2026-06-23T11:12:09Z</time>
   </trkpt>
   <trkpt lat="-3.1323130" lon="37.3721190">
    <ele>3803.3</ele>
    <time>2026-06-23T11:12:10Z</time>
   </trkpt>
   <trkpt lat="-3.1323190" lon="37.3721200">
    <ele>3803.2</ele>
    <time>2026-06-23T11:12:11Z</time>
   </trkpt>
   <trkpt lat="-3.1323260" lon="37.3721180">
    <ele>3803.1</ele>
    <time>2026-06-23T11:12:12Z</time>
   </trkpt>
   <trkpt lat="-3.1323340" lon="37.3721180">
    <ele>3802.9</ele>
    <time>2026-06-23T11:12:13Z</time>
   </trkpt>
   <trkpt lat="-3.1323410" lon="37.3721180">
    <ele>3802.8</ele>
    <time>2026-06-23T11:12:14Z</time>
   </trkpt>
   <trkpt lat="-3.1323490" lon="37.3721210">
    <ele>3802.7</ele>
    <time>2026-06-23T11:12:15Z</time>
   </trkpt>
   <trkpt lat="-3.1323550" lon="37.3721220">
    <ele>3802.6</ele>
    <time>2026-06-23T11:12:16Z</time>
   </trkpt>
   <trkpt lat="-3.1323630" lon="37.3721200">
    <ele>3802.5</ele>
    <time>2026-06-23T11:12:17Z</time>
   </trkpt>
   <trkpt lat="-3.1323710" lon="37.3721160">
    <ele>3802.3</ele>
    <time>2026-06-23T11:12:18Z</time>
   </trkpt>
   <trkpt lat="-3.1323790" lon="37.3721150">
    <ele>3802.2</ele>
    <time>2026-06-23T11:12:19Z</time>
   </trkpt>
   <trkpt lat="-3.1323870" lon="37.3721140">
    <ele>3802.0</ele>
    <time>2026-06-23T11:12:20Z</time>
   </trkpt>
   <trkpt lat="-3.1323950" lon="37.3721110">
    <ele>3801.9</ele>
    <time>2026-06-23T11:12:21Z</time>
   </trkpt>
   <trkpt lat="-3.1324050" lon="37.3721100">
    <ele>3801.7</ele>
    <time>2026-06-23T11:12:22Z</time>
   </trkpt>
   <trkpt lat="-3.1324070" lon="37.3721120">
    <ele>3801.7</ele>
    <time>2026-06-23T11:12:23Z</time>
   </trkpt>
   <trkpt lat="-3.1324140" lon="37.3721110">
    <ele>3801.5</ele>
    <time>2026-06-23T11:12:24Z</time>
   </trkpt>
   <trkpt lat="-3.1324200" lon="37.3721080">
    <ele>3801.4</ele>
    <time>2026-06-23T11:12:25Z</time>
   </trkpt>
   <trkpt lat="-3.1324270" lon="37.3721060">
    <ele>3801.3</ele>
    <time>2026-06-23T11:12:26Z</time>
   </trkpt>
   <trkpt lat="-3.1324330" lon="37.3721030">
    <ele>3801.2</ele>
    <time>2026-06-23T11:12:27Z</time>
   </trkpt>
   <trkpt lat="-3.1324390" lon="37.3721000">
    <ele>3801.0</ele>
    <time>2026-06-23T11:12:28Z</time>
   </trkpt>
   <trkpt lat="-3.1324450" lon="37.3720980">
    <ele>3800.9</ele>
    <time>2026-06-23T11:12:29Z</time>
   </trkpt>
   <trkpt lat="-3.1324530" lon="37.3720960">
    <ele>3800.8</ele>
    <time>2026-06-23T11:12:30Z</time>
   </trkpt>
   <trkpt lat="-3.1324630" lon="37.3720930">
    <ele>3800.6</ele>
    <time>2026-06-23T11:12:32Z</time>
   </trkpt>
   <trkpt lat="-3.1324690" lon="37.3720920">
    <ele>3800.5</ele>
    <time>2026-06-23T11:12:33Z</time>
   </trkpt>
   <trkpt lat="-3.1324730" lon="37.3720910">
    <ele>3800.4</ele>
    <time>2026-06-23T11:12:34Z</time>
   </trkpt>
   <trkpt lat="-3.1324800" lon="37.3720880">
    <ele>3800.3</ele>
    <time>2026-06-23T11:12:35Z</time>
   </trkpt>
   <trkpt lat="-3.1324850" lon="37.3720860">
    <ele>3800.2</ele>
    <time>2026-06-23T11:12:36Z</time>
   </trkpt>
   <trkpt lat="-3.1324890" lon="37.3720860">
    <ele>3800.1</ele>
    <time>2026-06-23T11:12:37Z</time>
   </trkpt>
   <trkpt lat="-3.1324960" lon="37.3720850">
    <ele>3800.0</ele>
    <time>2026-06-23T11:12:38Z</time>
   </trkpt>
   <trkpt lat="-3.1325030" lon="37.3720830">
    <ele>3799.8</ele>
    <time>2026-06-23T11:12:39Z</time>
   </trkpt>
   <trkpt lat="-3.1325100" lon="37.3720800">
    <ele>3799.7</ele>
    <time>2026-06-23T11:12:40Z</time>
   </trkpt>
   <trkpt lat="-3.1325160" lon="37.3720770">
    <ele>3799.6</ele>
    <time>2026-06-23T11:12:41Z</time>
   </trkpt>
   <trkpt lat="-3.1325210" lon="37.3720760">
    <ele>3799.5</ele>
    <time>2026-06-23T11:12:42Z</time>
   </trkpt>
   <trkpt lat="-3.1325280" lon="37.3720730">
    <ele>3799.3</ele>
    <time>2026-06-23T11:12:43Z</time>
   </trkpt>
   <trkpt lat="-3.1325340" lon="37.3720710">
    <ele>3799.2</ele>
    <time>2026-06-23T11:12:44Z</time>
   </trkpt>
   <trkpt lat="-3.1325410" lon="37.3720680">
    <ele>3799.1</ele>
    <time>2026-06-23T11:12:45Z</time>
   </trkpt>
   <trkpt lat="-3.1325470" lon="37.3720650">
    <ele>3798.9</ele>
    <time>2026-06-23T11:12:46Z</time>
   </trkpt>
   <trkpt lat="-3.1325530" lon="37.3720610">
    <ele>3798.8</ele>
    <time>2026-06-23T11:12:47Z</time>
   </trkpt>
   <trkpt lat="-3.1325600" lon="37.3720570">
    <ele>3798.7</ele>
    <time>2026-06-23T11:12:48Z</time>
   </trkpt>
   <trkpt lat="-3.1325670" lon="37.3720530">
    <ele>3798.5</ele>
    <time>2026-06-23T11:12:49Z</time>
   </trkpt>
   <trkpt lat="-3.1325720" lon="37.3720500">
    <ele>3798.4</ele>
    <time>2026-06-23T11:12:50Z</time>
   </trkpt>
   <trkpt lat="-3.1325750" lon="37.3720490">
    <ele>3798.4</ele>
    <time>2026-06-23T11:12:51Z</time>
   </trkpt>
   <trkpt lat="-3.1325850" lon="37.3720470">
    <ele>3798.2</ele>
    <time>2026-06-23T11:12:52Z</time>
   </trkpt>
   <trkpt lat="-3.1325950" lon="37.3720440">
    <ele>3798.0</ele>
    <time>2026-06-23T11:12:53Z</time>
   </trkpt>
   <trkpt lat="-3.1326010" lon="37.3720420">
    <ele>3797.9</ele>
    <time>2026-06-23T11:12:54Z</time>
   </trkpt>
   <trkpt lat="-3.1326080" lon="37.3720400">
    <ele>3797.7</ele>
    <time>2026-06-23T11:12:55Z</time>
   </trkpt>
   <trkpt lat="-3.1326140" lon="37.3720390">
    <ele>3797.6</ele>
    <time>2026-06-23T11:12:56Z</time>
   </trkpt>
   <trkpt lat="-3.1326230" lon="37.3720390">
    <ele>3797.4</ele>
    <time>2026-06-23T11:12:57Z</time>
   </trkpt>
   <trkpt lat="-3.1326300" lon="37.3720380">
    <ele>3797.3</ele>
    <time>2026-06-23T11:12:58Z</time>
   </trkpt>
   <trkpt lat="-3.1326350" lon="37.3720380">
    <ele>3797.2</ele>
    <time>2026-06-23T11:12:59Z</time>
   </trkpt>
   <trkpt lat="-3.1326430" lon="37.3720360">
    <ele>3797.1</ele>
    <time>2026-06-23T11:13:00Z</time>
   </trkpt>
   <trkpt lat="-3.1326460" lon="37.3720360">
    <ele>3797.0</ele>
    <time>2026-06-23T11:13:01Z</time>
   </trkpt>
   <trkpt lat="-3.1326500" lon="37.3720360">
    <ele>3796.9</ele>
    <time>2026-06-23T11:13:02Z</time>
   </trkpt>
   <trkpt lat="-3.1326560" lon="37.3720350">
    <ele>3796.8</ele>
    <time>2026-06-23T11:13:03Z</time>
   </trkpt>
   <trkpt lat="-3.1326690" lon="37.3720300">
    <ele>3796.6</ele>
    <time>2026-06-23T11:13:04Z</time>
   </trkpt>
   <trkpt lat="-3.1326730" lon="37.3720260">
    <ele>3796.5</ele>
    <time>2026-06-23T11:13:05Z</time>
   </trkpt>
   <trkpt lat="-3.1326790" lon="37.3720250">
    <ele>3796.4</ele>
    <time>2026-06-23T11:13:06Z</time>
   </trkpt>
   <trkpt lat="-3.1326820" lon="37.3720220">
    <ele>3796.3</ele>
    <time>2026-06-23T11:13:07Z</time>
   </trkpt>
   <trkpt lat="-3.1326890" lon="37.3720200">
    <ele>3796.2</ele>
    <time>2026-06-23T11:13:08Z</time>
   </trkpt>
   <trkpt lat="-3.1326950" lon="37.3720180">
    <ele>3796.1</ele>
    <time>2026-06-23T11:13:09Z</time>
   </trkpt>
   <trkpt lat="-3.1327000" lon="37.3720140">
    <ele>3796.0</ele>
    <time>2026-06-23T11:13:10Z</time>
   </trkpt>
   <trkpt lat="-3.1327050" lon="37.3720100">
    <ele>3795.9</ele>
    <time>2026-06-23T11:13:11Z</time>
   </trkpt>
   <trkpt lat="-3.1327110" lon="37.3720050">
    <ele>3795.7</ele>
    <time>2026-06-23T11:13:12Z</time>
   </trkpt>
   <trkpt lat="-3.1327190" lon="37.3720000">
    <ele>3795.6</ele>
    <time>2026-06-23T11:13:13Z</time>
   </trkpt>
   <trkpt lat="-3.1327250" lon="37.3719950">
    <ele>3795.4</ele>
    <time>2026-06-23T11:13:14Z</time>
   </trkpt>
   <trkpt lat="-3.1327300" lon="37.3719930">
    <ele>3795.3</ele>
    <time>2026-06-23T11:13:15Z</time>
   </trkpt>
   <trkpt lat="-3.1327350" lon="37.3719910">
    <ele>3795.2</ele>
    <time>2026-06-23T11:13:16Z</time>
   </trkpt>
   <trkpt lat="-3.1327410" lon="37.3719880">
    <ele>3795.1</ele>
    <time>2026-06-23T11:13:17Z</time>
   </trkpt>
   <trkpt lat="-3.1327540" lon="37.3719840">
    <ele>3794.9</ele>
    <time>2026-06-23T11:13:18Z</time>
   </trkpt>
   <trkpt lat="-3.1327600" lon="37.3719830">
    <ele>3794.8</ele>
    <time>2026-06-23T11:13:19Z</time>
   </trkpt>
   <trkpt lat="-3.1327660" lon="37.3719810">
    <ele>3794.7</ele>
    <time>2026-06-23T11:13:20Z</time>
   </trkpt>
   <trkpt lat="-3.1327710" lon="37.3719790">
    <ele>3794.6</ele>
    <time>2026-06-23T11:13:21Z</time>
   </trkpt>
   <trkpt lat="-3.1327770" lon="37.3719760">
    <ele>3794.5</ele>
    <time>2026-06-23T11:13:22Z</time>
   </trkpt>
   <trkpt lat="-3.1327860" lon="37.3719730">
    <ele>3794.3</ele>
    <time>2026-06-23T11:13:23Z</time>
   </trkpt>
   <trkpt lat="-3.1327930" lon="37.3719710">
    <ele>3794.2</ele>
    <time>2026-06-23T11:13:24Z</time>
   </trkpt>
   <trkpt lat="-3.1327980" lon="37.3719690">
    <ele>3794.1</ele>
    <time>2026-06-23T11:13:25Z</time>
   </trkpt>
   <trkpt lat="-3.1328010" lon="37.3719660">
    <ele>3794.0</ele>
    <time>2026-06-23T11:13:26Z</time>
   </trkpt>
   <trkpt lat="-3.1328070" lon="37.3719620">
    <ele>3793.9</ele>
    <time>2026-06-23T11:13:27Z</time>
   </trkpt>
   <trkpt lat="-3.1328120" lon="37.3719580">
    <ele>3793.8</ele>
    <time>2026-06-23T11:13:28Z</time>
   </trkpt>
   <trkpt lat="-3.1328190" lon="37.3719530">
    <ele>3793.6</ele>
    <time>2026-06-23T11:13:29Z</time>
   </trkpt>
   <trkpt lat="-3.1328240" lon="37.3719480">
    <ele>3793.5</ele>
    <time>2026-06-23T11:13:30Z</time>
   </trkpt>
   <trkpt lat="-3.1328300" lon="37.3719440">
    <ele>3793.3</ele>
    <time>2026-06-23T11:13:31Z</time>
   </trkpt>
   <trkpt lat="-3.1328360" lon="37.3719400">
    <ele>3793.2</ele>
    <time>2026-06-23T11:13:32Z</time>
   </trkpt>
   <trkpt lat="-3.1328420" lon="37.3719360">
    <ele>3793.1</ele>
    <time>2026-06-23T11:13:33Z</time>
   </trkpt>
   <trkpt lat="-3.1328460" lon="37.3719330">
    <ele>3793.0</ele>
    <time>2026-06-23T11:13:34Z</time>
   </trkpt>
   <trkpt lat="-3.1328510" lon="37.3719280">
    <ele>3792.9</ele>
    <time>2026-06-23T11:13:35Z</time>
   </trkpt>
   <trkpt lat="-3.1328540" lon="37.3719250">
    <ele>3792.8</ele>
    <time>2026-06-23T11:13:36Z</time>
   </trkpt>
   <trkpt lat="-3.1328620" lon="37.3719200">
    <ele>3792.6</ele>
    <time>2026-06-23T11:13:37Z</time>
   </trkpt>
   <trkpt lat="-3.1328660" lon="37.3719150">
    <ele>3792.5</ele>
    <time>2026-06-23T11:13:38Z</time>
   </trkpt>
   <trkpt lat="-3.1328680" lon="37.3719100">
    <ele>3792.4</ele>
    <time>2026-06-23T11:13:39Z</time>
   </trkpt>
   <trkpt lat="-3.1328670" lon="37.3719030">
    <ele>3792.3</ele>
    <time>2026-06-23T11:13:40Z</time>
   </trkpt>
   <trkpt lat="-3.1328690" lon="37.3718980">
    <ele>3792.2</ele>
    <time>2026-06-23T11:13:41Z</time>
   </trkpt>
   <trkpt lat="-3.1328720" lon="37.3718930">
    <ele>3792.1</ele>
    <time>2026-06-23T11:13:42Z</time>
   </trkpt>
   <trkpt lat="-3.1328750" lon="37.3718910">
    <ele>3792.0</ele>
    <time>2026-06-23T11:13:43Z</time>
   </trkpt>
   <trkpt lat="-3.1328830" lon="37.3718870">
    <ele>3791.8</ele>
    <time>2026-06-23T11:13:44Z</time>
   </trkpt>
   <trkpt lat="-3.1328850" lon="37.3718850">
    <ele>3791.8</ele>
    <time>2026-06-23T11:13:45Z</time>
   </trkpt>
   <trkpt lat="-3.1328920" lon="37.3718830">
    <ele>3791.6</ele>
    <time>2026-06-23T11:13:46Z</time>
   </trkpt>
   <trkpt lat="-3.1328960" lon="37.3718800">
    <ele>3791.6</ele>
    <time>2026-06-23T11:13:47Z</time>
   </trkpt>
   <trkpt lat="-3.1329010" lon="37.3718770">
    <ele>3791.4</ele>
    <time>2026-06-23T11:13:48Z</time>
   </trkpt>
   <trkpt lat="-3.1329050" lon="37.3718730">
    <ele>3791.3</ele>
    <time>2026-06-23T11:13:49Z</time>
   </trkpt>
   <trkpt lat="-3.1329070" lon="37.3718730">
    <ele>3791.3</ele>
    <time>2026-06-23T11:13:50Z</time>
   </trkpt>
   <trkpt lat="-3.1329020" lon="37.3718740">
    <ele>3791.2</ele>
    <time>2026-06-23T11:13:51Z</time>
   </trkpt>
   <trkpt lat="-3.1329040" lon="37.3718700">
    <ele>3791.1</ele>
    <time>2026-06-23T11:13:52Z</time>
   </trkpt>
   <trkpt lat="-3.1329030" lon="37.3718700">
    <ele>3791.1</ele>
    <time>2026-06-23T11:13:53Z</time>
   </trkpt>
   <trkpt lat="-3.1329030" lon="37.3718670">
    <ele>3791.0</ele>
    <time>2026-06-23T11:13:54Z</time>
   </trkpt>
   <trkpt lat="-3.1329030" lon="37.3718680">
    <ele>3791.0</ele>
    <time>2026-06-23T11:13:55Z</time>
   </trkpt>
   <trkpt lat="-3.1329040" lon="37.3718670">
    <ele>3791.0</ele>
    <time>2026-06-23T11:13:56Z</time>
   </trkpt>
   <trkpt lat="-3.1329060" lon="37.3718660">
    <ele>3791.0</ele>
    <time>2026-06-23T11:13:57Z</time>
   </trkpt>
   <trkpt lat="-3.1329090" lon="37.3718610">
    <ele>3790.8</ele>
    <time>2026-06-23T11:13:58Z</time>
   </trkpt>
   <trkpt lat="-3.1329110" lon="37.3718600">
    <ele>3790.8</ele>
    <time>2026-06-23T11:13:59Z</time>
   </trkpt>
   <trkpt lat="-3.1329120" lon="37.3718600">
    <ele>3790.8</ele>
    <time>2026-06-23T11:14:00Z</time>
   </trkpt>
   <trkpt lat="-3.1329180" lon="37.3718540">
    <ele>3790.6</ele>
    <time>2026-06-23T11:14:01Z</time>
   </trkpt>
   <trkpt lat="-3.1329230" lon="37.3718510">
    <ele>3790.5</ele>
    <time>2026-06-23T11:14:02Z</time>
   </trkpt>
   <trkpt lat="-3.1329270" lon="37.3718500">
    <ele>3790.4</ele>
    <time>2026-06-23T11:14:03Z</time>
   </trkpt>
   <trkpt lat="-3.1329360" lon="37.3718460">
    <ele>3790.2</ele>
    <time>2026-06-23T11:14:04Z</time>
   </trkpt>
   <trkpt lat="-3.1329340" lon="37.3718480">
    <ele>3790.2</ele>
    <time>2026-06-23T11:14:05Z</time>
   </trkpt>
   <trkpt lat="-3.1329410" lon="37.3718460">
    <ele>3790.0</ele>
    <time>2026-06-23T11:14:06Z</time>
   </trkpt>
   <trkpt lat="-3.1329450" lon="37.3718470">
    <ele>3790.0</ele>
    <time>2026-06-23T11:14:07Z</time>
   </trkpt>
   <trkpt lat="-3.1329510" lon="37.3718450">
    <ele>3789.8</ele>
    <time>2026-06-23T11:14:08Z</time>
   </trkpt>
   <trkpt lat="-3.1329570" lon="37.3718440">
    <ele>3789.7</ele>
    <time>2026-06-23T11:14:09Z</time>
   </trkpt>
   <trkpt lat="-3.1329620" lon="37.3718430">
    <ele>3789.6</ele>
    <time>2026-06-23T11:14:10Z</time>
   </trkpt>
   <trkpt lat="-3.1329670" lon="37.3718410">
    <ele>3789.5</ele>
    <time>2026-06-23T11:14:11Z</time>
   </trkpt>
   <trkpt lat="-3.1329690" lon="37.3718380">
    <ele>3789.4</ele>
    <time>2026-06-23T11:14:12Z</time>
   </trkpt>
   <trkpt lat="-3.1329740" lon="37.3718330">
    <ele>3789.3</ele>
    <time>2026-06-23T11:14:13Z</time>
   </trkpt>
   <trkpt lat="-3.1329750" lon="37.3718310">
    <ele>3789.2</ele>
    <time>2026-06-23T11:14:14Z</time>
   </trkpt>
   <trkpt lat="-3.1329790" lon="37.3718290">
    <ele>3789.1</ele>
    <time>2026-06-23T11:14:15Z</time>
   </trkpt>
   <trkpt lat="-3.1329850" lon="37.3718270">
    <ele>3789.0</ele>
    <time>2026-06-23T11:14:16Z</time>
   </trkpt>
   <trkpt lat="-3.1329890" lon="37.3718230">
    <ele>3788.9</ele>
    <time>2026-06-23T11:14:17Z</time>
   </trkpt>
   <trkpt lat="-3.1329940" lon="37.3718220">
    <ele>3788.8</ele>
    <time>2026-06-23T11:14:18Z</time>
   </trkpt>
   <trkpt lat="-3.1329990" lon="37.3718200">
    <ele>3788.7</ele>
    <time>2026-06-23T11:14:19Z</time>
   </trkpt>
   <trkpt lat="-3.1330040" lon="37.3718180">
    <ele>3788.5</ele>
    <time>2026-06-23T11:14:20Z</time>
   </trkpt>
   <trkpt lat="-3.1330080" lon="37.3718160">
    <ele>3788.5</ele>
    <time>2026-06-23T11:14:21Z</time>
   </trkpt>
   <trkpt lat="-3.1330120" lon="37.3718150">
    <ele>3788.4</ele>
    <time>2026-06-23T11:14:22Z</time>
   </trkpt>
   <trkpt lat="-3.1330170" lon="37.3718140">
    <ele>3788.3</ele>
    <time>2026-06-23T11:14:23Z</time>
   </trkpt>
   <trkpt lat="-3.1330220" lon="37.3718110">
    <ele>3788.1</ele>
    <time>2026-06-23T11:14:24Z</time>
   </trkpt>
   <trkpt lat="-3.1330280" lon="37.3718090">
    <ele>3788.0</ele>
    <time>2026-06-23T11:14:25Z</time>
   </trkpt>
   <trkpt lat="-3.1330330" lon="37.3718070">
    <ele>3787.9</ele>
    <time>2026-06-23T11:14:26Z</time>
   </trkpt>
   <trkpt lat="-3.1330380" lon="37.3718050">
    <ele>3787.8</ele>
    <time>2026-06-23T11:14:27Z</time>
   </trkpt>
   <trkpt lat="-3.1330440" lon="37.3718030">
    <ele>3787.6</ele>
    <time>2026-06-23T11:14:28Z</time>
   </trkpt>
   <trkpt lat="-3.1330440" lon="37.3718040">
    <ele>3787.6</ele>
    <time>2026-06-23T11:14:29Z</time>
   </trkpt>
   <trkpt lat="-3.1330510" lon="37.3718010">
    <ele>3787.4</ele>
    <time>2026-06-23T11:14:30Z</time>
   </trkpt>
   <trkpt lat="-3.1330530" lon="37.3717990">
    <ele>3787.4</ele>
    <time>2026-06-23T11:14:31Z</time>
   </trkpt>
   <trkpt lat="-3.1330630" lon="37.3717960">
    <ele>3787.1</ele>
    <time>2026-06-23T11:14:32Z</time>
   </trkpt>
   <trkpt lat="-3.1330660" lon="37.3717950">
    <ele>3787.1</ele>
    <time>2026-06-23T11:14:33Z</time>
   </trkpt>
   <trkpt lat="-3.1330700" lon="37.3717940">
    <ele>3787.0</ele>
    <time>2026-06-23T11:14:34Z</time>
   </trkpt>
   <trkpt lat="-3.1330750" lon="37.3717920">
    <ele>3786.8</ele>
    <time>2026-06-23T11:14:35Z</time>
   </trkpt>
   <trkpt lat="-3.1330800" lon="37.3717900">
    <ele>3786.7</ele>
    <time>2026-06-23T11:14:36Z</time>
   </trkpt>
   <trkpt lat="-3.1330860" lon="37.3717890">
    <ele>3786.6</ele>
    <time>2026-06-23T11:14:38Z</time>
   </trkpt>
   <trkpt lat="-3.1330920" lon="37.3717860">
    <ele>3786.4</ele>
    <time>2026-06-23T11:14:39Z</time>
   </trkpt>
   <trkpt lat="-3.1330950" lon="37.3717840">
    <ele>3786.4</ele>
    <time>2026-06-23T11:14:40Z</time>
   </trkpt>
   <trkpt lat="-3.1331000" lon="37.3717810">
    <ele>3786.2</ele>
    <time>2026-06-23T11:14:41Z</time>
   </trkpt>
   <trkpt lat="-3.1331030" lon="37.3717800">
    <ele>3786.2</ele>
    <time>2026-06-23T11:14:42Z</time>
   </trkpt>
   <trkpt lat="-3.1331080" lon="37.3717780">
    <ele>3786.0</ele>
    <time>2026-06-23T11:14:43Z</time>
   </trkpt>
   <trkpt lat="-3.1331140" lon="37.3717760">
    <ele>3785.9</ele>
    <time>2026-06-23T11:14:44Z</time>
   </trkpt>
   <trkpt lat="-3.1331160" lon="37.3717750">
    <ele>3785.9</ele>
    <time>2026-06-23T11:14:45Z</time>
   </trkpt>
   <trkpt lat="-3.1331220" lon="37.3717750">
    <ele>3785.7</ele>
    <time>2026-06-23T11:14:46Z</time>
   </trkpt>
   <trkpt lat="-3.1331260" lon="37.3717740">
    <ele>3785.6</ele>
    <time>2026-06-23T11:14:47Z</time>
   </trkpt>
   <trkpt lat="-3.1331300" lon="37.3717750">
    <ele>3785.5</ele>
    <time>2026-06-23T11:14:48Z</time>
   </trkpt>
   <trkpt lat="-3.1331360" lon="37.3717740">
    <ele>3785.4</ele>
    <time>2026-06-23T11:14:49Z</time>
   </trkpt>
   <trkpt lat="-3.1331390" lon="37.3717730">
    <ele>3785.3</ele>
    <time>2026-06-23T11:14:50Z</time>
   </trkpt>
   <trkpt lat="-3.1331430" lon="37.3717720">
    <ele>3785.2</ele>
    <time>2026-06-23T11:14:51Z</time>
   </trkpt>
   <trkpt lat="-3.1331430" lon="37.3717730">
    <ele>3785.2</ele>
    <time>2026-06-23T11:14:52Z</time>
   </trkpt>
   <trkpt lat="-3.1331430" lon="37.3717720">
    <ele>3785.2</ele>
    <time>2026-06-23T11:14:53Z</time>
   </trkpt>
   <trkpt lat="-3.1331450" lon="37.3717720">
    <ele>3785.1</ele>
    <time>2026-06-23T11:14:54Z</time>
   </trkpt>
   <trkpt lat="-3.1331500" lon="37.3717690">
    <ele>3785.0</ele>
    <time>2026-06-23T11:14:55Z</time>
   </trkpt>
   <trkpt lat="-3.1331570" lon="37.3717680">
    <ele>3784.8</ele>
    <time>2026-06-23T11:14:56Z</time>
   </trkpt>
   <trkpt lat="-3.1331620" lon="37.3717670">
    <ele>3784.7</ele>
    <time>2026-06-23T11:14:57Z</time>
   </trkpt>
   <trkpt lat="-3.1331690" lon="37.3717690">
    <ele>3784.5</ele>
    <time>2026-06-23T11:14:58Z</time>
   </trkpt>
   <trkpt lat="-3.1331770" lon="37.3717680">
    <ele>3784.3</ele>
    <time>2026-06-23T11:14:59Z</time>
   </trkpt>
   <trkpt lat="-3.1331780" lon="37.3717670">
    <ele>3784.3</ele>
    <time>2026-06-23T11:15:00Z</time>
   </trkpt>
   <trkpt lat="-3.1331830" lon="37.3717650">
    <ele>3784.2</ele>
    <time>2026-06-23T11:15:01Z</time>
   </trkpt>
   <trkpt lat="-3.1331890" lon="37.3717640">
    <ele>3784.0</ele>
    <time>2026-06-23T11:15:02Z</time>
   </trkpt>
   <trkpt lat="-3.1331970" lon="37.3717610">
    <ele>3783.8</ele>
    <time>2026-06-23T11:15:03Z</time>
   </trkpt>
   <trkpt lat="-3.1332010" lon="37.3717590">
    <ele>3783.7</ele>
    <time>2026-06-23T11:15:04Z</time>
   </trkpt>
   <trkpt lat="-3.1332060" lon="37.3717590">
    <ele>3783.6</ele>
    <time>2026-06-23T11:15:05Z</time>
   </trkpt>
   <trkpt lat="-3.1332090" lon="37.3717590">
    <ele>3783.5</ele>
    <time>2026-06-23T11:15:06Z</time>
   </trkpt>
   <trkpt lat="-3.1332140" lon="37.3717590">
    <ele>3783.4</ele>
    <time>2026-06-23T11:15:07Z</time>
   </trkpt>
   <trkpt lat="-3.1332180" lon="37.3717590">
    <ele>3783.3</ele>
    <time>2026-06-23T11:15:08Z</time>
   </trkpt>
   <trkpt lat="-3.1332220" lon="37.3717610">
    <ele>3783.2</ele>
    <time>2026-06-23T11:15:09Z</time>
   </trkpt>
   <trkpt lat="-3.1332270" lon="37.3717610">
    <ele>3783.1</ele>
    <time>2026-06-23T11:15:10Z</time>
   </trkpt>
   <trkpt lat="-3.1332280" lon="37.3717610">
    <ele>3783.1</ele>
    <time>2026-06-23T11:15:11Z</time>
   </trkpt>
   <trkpt lat="-3.1332300" lon="37.3717620">
    <ele>3783.0</ele>
    <time>2026-06-23T11:15:12Z</time>
   </trkpt>
   <trkpt lat="-3.1332350" lon="37.3717640">
    <ele>3782.9</ele>
    <time>2026-06-23T11:15:13Z</time>
   </trkpt>
   <trkpt lat="-3.1332350" lon="37.3717650">
    <ele>3782.9</ele>
    <time>2026-06-23T11:15:14Z</time>
   </trkpt>
   <trkpt lat="-3.1332340" lon="37.3717650">
    <ele>3782.8</ele>
    <time>2026-06-23T11:15:15Z</time>
   </trkpt>
   <trkpt lat="-3.1332380" lon="37.3717640">
    <ele>3782.7</ele>
    <time>2026-06-23T11:15:16Z</time>
   </trkpt>
   <trkpt lat="-3.1332420" lon="37.3717630">
    <ele>3782.6</ele>
    <time>2026-06-23T11:15:17Z</time>
   </trkpt>
   <trkpt lat="-3.1332460" lon="37.3717610">
    <ele>3782.5</ele>
    <time>2026-06-23T11:15:18Z</time>
   </trkpt>
   <trkpt lat="-3.1332500" lon="37.3717580">
    <ele>3782.4</ele>
    <time>2026-06-23T11:15:19Z</time>
   </trkpt>
   <trkpt lat="-3.1332540" lon="37.3717570">
    <ele>3782.3</ele>
    <time>2026-06-23T11:15:20Z</time>
   </trkpt>
   <trkpt lat="-3.1332620" lon="37.3717530">
    <ele>3782.1</ele>
    <time>2026-06-23T11:15:21Z</time>
   </trkpt>
   <trkpt lat="-3.1332650" lon="37.3717520">
    <ele>3782.0</ele>
    <time>2026-06-23T11:15:22Z</time>
   </trkpt>
   <trkpt lat="-3.1332670" lon="37.3717500">
    <ele>3782.0</ele>
    <time>2026-06-23T11:15:23Z</time>
   </trkpt>
   <trkpt lat="-3.1332710" lon="37.3717500">
    <ele>3781.9</ele>
    <time>2026-06-23T11:15:24Z</time>
   </trkpt>
   <trkpt lat="-3.1332780" lon="37.3717480">
    <ele>3781.7</ele>
    <time>2026-06-23T11:15:25Z</time>
   </trkpt>
   <trkpt lat="-3.1332800" lon="37.3717470">
    <ele>3781.6</ele>
    <time>2026-06-23T11:15:26Z</time>
   </trkpt>
   <trkpt lat="-3.1332850" lon="37.3717460">
    <ele>3781.5</ele>
    <time>2026-06-23T11:15:27Z</time>
   </trkpt>
   <trkpt lat="-3.1332900" lon="37.3717460">
    <ele>3781.4</ele>
    <time>2026-06-23T11:15:28Z</time>
   </trkpt>
   <trkpt lat="-3.1332950" lon="37.3717450">
    <ele>3781.3</ele>
    <time>2026-06-23T11:15:29Z</time>
   </trkpt>
   <trkpt lat="-3.1333010" lon="37.3717440">
    <ele>3781.1</ele>
    <time>2026-06-23T11:15:30Z</time>
   </trkpt>
   <trkpt lat="-3.1333040" lon="37.3717440">
    <ele>3781.1</ele>
    <time>2026-06-23T11:15:31Z</time>
   </trkpt>
   <trkpt lat="-3.1333100" lon="37.3717430">
    <ele>3780.9</ele>
    <time>2026-06-23T11:15:32Z</time>
   </trkpt>
   <trkpt lat="-3.1333150" lon="37.3717430">
    <ele>3780.8</ele>
    <time>2026-06-23T11:15:33Z</time>
   </trkpt>
   <trkpt lat="-3.1333230" lon="37.3717430">
    <ele>3780.6</ele>
    <time>2026-06-23T11:15:34Z</time>
   </trkpt>
   <trkpt lat="-3.1333280" lon="37.3717460">
    <ele>3780.5</ele>
    <time>2026-06-23T11:15:35Z</time>
   </trkpt>
   <trkpt lat="-3.1333330" lon="37.3717480">
    <ele>3780.3</ele>
    <time>2026-06-23T11:15:36Z</time>
   </trkpt>
   <trkpt lat="-3.1333370" lon="37.3717490">
    <ele>3780.2</ele>
    <time>2026-06-23T11:15:37Z</time>
   </trkpt>
   <trkpt lat="-3.1333410" lon="37.3717500">
    <ele>3780.1</ele>
    <time>2026-06-23T11:15:38Z</time>
   </trkpt>
   <trkpt lat="-3.1333500" lon="37.3717500">
    <ele>3779.9</ele>
    <time>2026-06-23T11:15:39Z</time>
   </trkpt>
   <trkpt lat="-3.1333560" lon="37.3717500">
    <ele>3779.8</ele>
    <time>2026-06-23T11:15:40Z</time>
   </trkpt>
   <trkpt lat="-3.1333590" lon="37.3717520">
    <ele>3779.7</ele>
    <time>2026-06-23T11:15:41Z</time>
   </trkpt>
   <trkpt lat="-3.1333650" lon="37.3717530">
    <ele>3779.5</ele>
    <time>2026-06-23T11:15:42Z</time>
   </trkpt>
   <trkpt lat="-3.1333710" lon="37.3717540">
    <ele>3779.4</ele>
    <time>2026-06-23T11:15:43Z</time>
   </trkpt>
   <trkpt lat="-3.1333740" lon="37.3717560">
    <ele>3779.3</ele>
    <time>2026-06-23T11:15:44Z</time>
   </trkpt>
   <trkpt lat="-3.1333810" lon="37.3717610">
    <ele>3779.1</ele>
    <time>2026-06-23T11:15:45Z</time>
   </trkpt>
   <trkpt lat="-3.1333870" lon="37.3717660">
    <ele>3778.9</ele>
    <time>2026-06-23T11:15:46Z</time>
   </trkpt>
   <trkpt lat="-3.1333920" lon="37.3717670">
    <ele>3778.8</ele>
    <time>2026-06-23T11:15:47Z</time>
   </trkpt>
   <trkpt lat="-3.1333950" lon="37.3717680">
    <ele>3778.7</ele>
    <time>2026-06-23T11:15:48Z</time>
   </trkpt>
   <trkpt lat="-3.1333980" lon="37.3717700">
    <ele>3778.6</ele>
    <time>2026-06-23T11:15:49Z</time>
   </trkpt>
   <trkpt lat="-3.1334020" lon="37.3717740">
    <ele>3778.5</ele>
    <time>2026-06-23T11:15:50Z</time>
   </trkpt>
   <trkpt lat="-3.1334060" lon="37.3717780">
    <ele>3778.3</ele>
    <time>2026-06-23T11:15:51Z</time>
   </trkpt>
   <trkpt lat="-3.1334100" lon="37.3717820">
    <ele>3778.2</ele>
    <time>2026-06-23T11:15:52Z</time>
   </trkpt>
   <trkpt lat="-3.1334160" lon="37.3717840">
    <ele>3778.0</ele>
    <time>2026-06-23T11:15:53Z</time>
   </trkpt>
   <trkpt lat="-3.1334190" lon="37.3717860">
    <ele>3778.0</ele>
    <time>2026-06-23T11:15:54Z</time>
   </trkpt>
   <trkpt lat="-3.1334210" lon="37.3717890">
    <ele>3777.9</ele>
    <time>2026-06-23T11:15:55Z</time>
   </trkpt>
   <trkpt lat="-3.1334250" lon="37.3717920">
    <ele>3777.7</ele>
    <time>2026-06-23T11:15:56Z</time>
   </trkpt>
   <trkpt lat="-3.1334280" lon="37.3717930">
    <ele>3777.7</ele>
    <time>2026-06-23T11:15:57Z</time>
   </trkpt>
   <trkpt lat="-3.1334360" lon="37.3717980">
    <ele>3777.4</ele>
    <time>2026-06-23T11:15:58Z</time>
   </trkpt>
   <trkpt lat="-3.1334380" lon="37.3718000">
    <ele>3777.4</ele>
    <time>2026-06-23T11:15:59Z</time>
   </trkpt>
   <trkpt lat="-3.1334410" lon="37.3718020">
    <ele>3777.3</ele>
    <time>2026-06-23T11:16:00Z</time>
   </trkpt>
   <trkpt lat="-3.1334460" lon="37.3718050">
    <ele>3777.1</ele>
    <time>2026-06-23T11:16:01Z</time>
   </trkpt>
   <trkpt lat="-3.1334520" lon="37.3718090">
    <ele>3777.0</ele>
    <time>2026-06-23T11:16:02Z</time>
   </trkpt>
   <trkpt lat="-3.1334560" lon="37.3718130">
    <ele>3776.8</ele>
    <time>2026-06-23T11:16:03Z</time>
   </trkpt>
   <trkpt lat="-3.1334600" lon="37.3718160">
    <ele>3776.7</ele>
    <time>2026-06-23T11:16:04Z</time>
   </trkpt>
   <trkpt lat="-3.1334660" lon="37.3718210">
    <ele>3776.5</ele>
    <time>2026-06-23T11:16:05Z</time>
   </trkpt>
   <trkpt lat="-3.1334670" lon="37.3718270">
    <ele>3776.4</ele>
    <time>2026-06-23T11:16:06Z</time>
   </trkpt>
   <trkpt lat="-3.1334680" lon="37.3718310">
    <ele>3776.3</ele>
    <time>2026-06-23T11:16:07Z</time>
   </trkpt>
   <trkpt lat="-3.1334690" lon="37.3718330">
    <ele>3776.2</ele>
    <time>2026-06-23T11:16:08Z</time>
   </trkpt>
   <trkpt lat="-3.1334700" lon="37.3718390">
    <ele>3776.1</ele>
    <time>2026-06-23T11:16:09Z</time>
   </trkpt>
   <trkpt lat="-3.1334730" lon="37.3718390">
    <ele>3776.0</ele>
    <time>2026-06-23T11:16:10Z</time>
   </trkpt>
   <trkpt lat="-3.1334770" lon="37.3718400">
    <ele>3775.9</ele>
    <time>2026-06-23T11:16:11Z</time>
   </trkpt>
   <trkpt lat="-3.1334820" lon="37.3718410">
    <ele>3775.8</ele>
    <time>2026-06-23T11:16:12Z</time>
   </trkpt>
   <trkpt lat="-3.1334850" lon="37.3718360">
    <ele>3775.6</ele>
    <time>2026-06-23T11:16:13Z</time>
   </trkpt>
   <trkpt lat="-3.1334910" lon="37.3718360">
    <ele>3775.5</ele>
    <time>2026-06-23T11:16:14Z</time>
   </trkpt>
   <trkpt lat="-3.1334960" lon="37.3718330">
    <ele>3775.3</ele>
    <time>2026-06-23T11:16:15Z</time>
   </trkpt>
   <trkpt lat="-3.1335020" lon="37.3718330">
    <ele>3775.2</ele>
    <time>2026-06-23T11:16:16Z</time>
   </trkpt>
   <trkpt lat="-3.1335050" lon="37.3718310">
    <ele>3775.1</ele>
    <time>2026-06-23T11:16:17Z</time>
   </trkpt>
   <trkpt lat="-3.1335110" lon="37.3718290">
    <ele>3774.9</ele>
    <time>2026-06-23T11:16:18Z</time>
   </trkpt>
   <trkpt lat="-3.1335160" lon="37.3718240">
    <ele>3774.7</ele>
    <time>2026-06-23T11:16:19Z</time>
   </trkpt>
   <trkpt lat="-3.1335210" lon="37.3718240">
    <ele>3774.6</ele>
    <time>2026-06-23T11:16:20Z</time>
   </trkpt>
   <trkpt lat="-3.1335250" lon="37.3718210">
    <ele>3774.5</ele>
    <time>2026-06-23T11:16:21Z</time>
   </trkpt>
   <trkpt lat="-3.1335290" lon="37.3718210">
    <ele>3774.4</ele>
    <time>2026-06-23T11:16:22Z</time>
   </trkpt>
   <trkpt lat="-3.1335300" lon="37.3718180">
    <ele>3774.3</ele>
    <time>2026-06-23T11:16:23Z</time>
   </trkpt>
   <trkpt lat="-3.1335340" lon="37.3718190">
    <ele>3774.2</ele>
    <time>2026-06-23T11:16:24Z</time>
   </trkpt>
   <trkpt lat="-3.1335370" lon="37.3718190">
    <ele>3774.1</ele>
    <time>2026-06-23T11:16:25Z</time>
   </trkpt>
   <trkpt lat="-3.1335400" lon="37.3718140">
    <ele>3773.9</ele>
    <time>2026-06-23T11:16:26Z</time>
   </trkpt>
   <trkpt lat="-3.1335450" lon="37.3718130">
    <ele>3773.8</ele>
    <time>2026-06-23T11:16:27Z</time>
   </trkpt>
   <trkpt lat="-3.1335500" lon="37.3718100">
    <ele>3773.6</ele>
    <time>2026-06-23T11:16:28Z</time>
   </trkpt>
   <trkpt lat="-3.1335520" lon="37.3718080">
    <ele>3773.6</ele>
    <time>2026-06-23T11:16:29Z</time>
   </trkpt>
   <trkpt lat="-3.1335560" lon="37.3718070">
    <ele>3773.4</ele>
    <time>2026-06-23T11:16:30Z</time>
   </trkpt>
   <trkpt lat="-3.1335630" lon="37.3718090">
    <ele>3773.2</ele>
    <time>2026-06-23T11:16:31Z</time>
   </trkpt>
   <trkpt lat="-3.1335680" lon="37.3718080">
    <ele>3773.1</ele>
    <time>2026-06-23T11:16:32Z</time>
   </trkpt>
   <trkpt lat="-3.1335730" lon="37.3718060">
    <ele>3773.0</ele>
    <time>2026-06-23T11:16:33Z</time>
   </trkpt>
   <trkpt lat="-3.1335770" lon="37.3718050">
    <ele>3772.8</ele>
    <time>2026-06-23T11:16:34Z</time>
   </trkpt>
   <trkpt lat="-3.1335820" lon="37.3718050">
    <ele>3772.7</ele>
    <time>2026-06-23T11:16:35Z</time>
   </trkpt>
   <trkpt lat="-3.1335880" lon="37.3718060">
    <ele>3772.5</ele>
    <time>2026-06-23T11:16:36Z</time>
   </trkpt>
   <trkpt lat="-3.1335930" lon="37.3718040">
    <ele>3772.4</ele>
    <time>2026-06-23T11:16:37Z</time>
   </trkpt>
   <trkpt lat="-3.1335980" lon="37.3718050">
    <ele>3772.2</ele>
    <time>2026-06-23T11:16:38Z</time>
   </trkpt>
   <trkpt lat="-3.1336030" lon="37.3718070">
    <ele>3772.1</ele>
    <time>2026-06-23T11:16:39Z</time>
   </trkpt>
   <trkpt lat="-3.1336090" lon="37.3718060">
    <ele>3771.9</ele>
    <time>2026-06-23T11:16:40Z</time>
   </trkpt>
   <trkpt lat="-3.1336130" lon="37.3718060">
    <ele>3771.8</ele>
    <time>2026-06-23T11:16:41Z</time>
   </trkpt>
   <trkpt lat="-3.1336170" lon="37.3718050">
    <ele>3771.7</ele>
    <time>2026-06-23T11:16:42Z</time>
   </trkpt>
   <trkpt lat="-3.1336220" lon="37.3718060">
    <ele>3771.5</ele>
    <time>2026-06-23T11:16:44Z</time>
   </trkpt>
   <trkpt lat="-3.1336260" lon="37.3718080">
    <ele>3771.4</ele>
    <time>2026-06-23T11:16:45Z</time>
   </trkpt>
   <trkpt lat="-3.1336300" lon="37.3718090">
    <ele>3771.3</ele>
    <time>2026-06-23T11:16:46Z</time>
   </trkpt>
   <trkpt lat="-3.1336360" lon="37.3718110">
    <ele>3771.1</ele>
    <time>2026-06-23T11:16:47Z</time>
   </trkpt>
   <trkpt lat="-3.1336440" lon="37.3718110">
    <ele>3770.9</ele>
    <time>2026-06-23T11:16:48Z</time>
   </trkpt>
   <trkpt lat="-3.1336500" lon="37.3718120">
    <ele>3770.7</ele>
    <time>2026-06-23T11:16:49Z</time>
   </trkpt>
   <trkpt lat="-3.1336530" lon="37.3718140">
    <ele>3770.6</ele>
    <time>2026-06-23T11:16:50Z</time>
   </trkpt>
   <trkpt lat="-3.1336580" lon="37.3718140">
    <ele>3770.5</ele>
    <time>2026-06-23T11:16:51Z</time>
   </trkpt>
   <trkpt lat="-3.1336670" lon="37.3718150">
    <ele>3770.2</ele>
    <time>2026-06-23T11:16:52Z</time>
   </trkpt>
   <trkpt lat="-3.1336740" lon="37.3718150">
    <ele>3770.0</ele>
    <time>2026-06-23T11:16:53Z</time>
   </trkpt>
   <trkpt lat="-3.1336820" lon="37.3718150">
    <ele>3769.8</ele>
    <time>2026-06-23T11:16:54Z</time>
   </trkpt>
   <trkpt lat="-3.1336840" lon="37.3718130">
    <ele>3769.7</ele>
    <time>2026-06-23T11:16:55Z</time>
   </trkpt>
   <trkpt lat="-3.1336870" lon="37.3718130">
    <ele>3769.6</ele>
    <time>2026-06-23T11:16:56Z</time>
   </trkpt>
   <trkpt lat="-3.1336890" lon="37.3718140">
    <ele>3769.6</ele>
    <time>2026-06-23T11:16:57Z</time>
   </trkpt>
   <trkpt lat="-3.1336930" lon="37.3718130">
    <ele>3769.5</ele>
    <time>2026-06-23T11:16:58Z</time>
   </trkpt>
   <trkpt lat="-3.1336970" lon="37.3718130">
    <ele>3769.4</ele>
    <time>2026-06-23T11:16:59Z</time>
   </trkpt>
   <trkpt lat="-3.1337020" lon="37.3718140">
    <ele>3769.2</ele>
    <time>2026-06-23T11:17:00Z</time>
   </trkpt>
   <trkpt lat="-3.1337100" lon="37.3718150">
    <ele>3769.0</ele>
    <time>2026-06-23T11:17:01Z</time>
   </trkpt>
   <trkpt lat="-3.1337130" lon="37.3718150">
    <ele>3768.9</ele>
    <time>2026-06-23T11:17:02Z</time>
   </trkpt>
   <trkpt lat="-3.1337200" lon="37.3718130">
    <ele>3768.8</ele>
    <time>2026-06-23T11:17:03Z</time>
   </trkpt>
   <trkpt lat="-3.1337270" lon="37.3718100">
    <ele>3768.6</ele>
    <time>2026-06-23T11:17:04Z</time>
   </trkpt>
   <trkpt lat="-3.1337310" lon="37.3718080">
    <ele>3768.4</ele>
    <time>2026-06-23T11:17:05Z</time>
   </trkpt>
   <trkpt lat="-3.1337350" lon="37.3718060">
    <ele>3768.3</ele>
    <time>2026-06-23T11:17:06Z</time>
   </trkpt>
   <trkpt lat="-3.1337400" lon="37.3718030">
    <ele>3768.2</ele>
    <time>2026-06-23T11:17:07Z</time>
   </trkpt>
   <trkpt lat="-3.1337430" lon="37.3718020">
    <ele>3768.1</ele>
    <time>2026-06-23T11:17:08Z</time>
   </trkpt>
   <trkpt lat="-3.1337470" lon="37.3718000">
    <ele>3768.0</ele>
    <time>2026-06-23T11:17:09Z</time>
   </trkpt>
   <trkpt lat="-3.1337510" lon="37.3718000">
    <ele>3767.9</ele>
    <time>2026-06-23T11:17:10Z</time>
   </trkpt>
   <trkpt lat="-3.1337570" lon="37.3717990">
    <ele>3767.8</ele>
    <time>2026-06-23T11:17:11Z</time>
   </trkpt>
   <trkpt lat="-3.1337620" lon="37.3717990">
    <ele>3767.6</ele>
    <time>2026-06-23T11:17:12Z</time>
   </trkpt>
   <trkpt lat="-3.1337680" lon="37.3717980">
    <ele>3767.5</ele>
    <time>2026-06-23T11:17:13Z</time>
   </trkpt>
   <trkpt lat="-3.1337730" lon="37.3717980">
    <ele>3767.4</ele>
    <time>2026-06-23T11:17:14Z</time>
   </trkpt>
   <trkpt lat="-3.1337780" lon="37.3717980">
    <ele>3767.2</ele>
    <time>2026-06-23T11:17:15Z</time>
   </trkpt>
   <trkpt lat="-3.1337830" lon="37.3717980">
    <ele>3767.1</ele>
    <time>2026-06-23T11:17:16Z</time>
   </trkpt>
   <trkpt lat="-3.1337880" lon="37.3717960">
    <ele>3767.0</ele>
    <time>2026-06-23T11:17:17Z</time>
   </trkpt>
   <trkpt lat="-3.1337920" lon="37.3717970">
    <ele>3766.9</ele>
    <time>2026-06-23T11:17:18Z</time>
   </trkpt>
   <trkpt lat="-3.1337940" lon="37.3717950">
    <ele>3766.8</ele>
    <time>2026-06-23T11:17:19Z</time>
   </trkpt>
   <trkpt lat="-3.1338010" lon="37.3717960">
    <ele>3766.7</ele>
    <time>2026-06-23T11:17:20Z</time>
   </trkpt>
   <trkpt lat="-3.1338050" lon="37.3717960">
    <ele>3766.6</ele>
    <time>2026-06-23T11:17:21Z</time>
   </trkpt>
   <trkpt lat="-3.1338070" lon="37.3717960">
    <ele>3766.6</ele>
    <time>2026-06-23T11:17:22Z</time>
   </trkpt>
   <trkpt lat="-3.1338170" lon="37.3717950">
    <ele>3766.3</ele>
    <time>2026-06-23T11:17:23Z</time>
   </trkpt>
   <trkpt lat="-3.1338180" lon="37.3717960">
    <ele>3766.3</ele>
    <time>2026-06-23T11:17:24Z</time>
   </trkpt>
   <trkpt lat="-3.1338250" lon="37.3717980">
    <ele>3766.1</ele>
    <time>2026-06-23T11:17:25Z</time>
   </trkpt>
   <trkpt lat="-3.1338270" lon="37.3717980">
    <ele>3766.1</ele>
    <time>2026-06-23T11:17:26Z</time>
   </trkpt>
   <trkpt lat="-3.1338310" lon="37.3717980">
    <ele>3766.0</ele>
    <time>2026-06-23T11:17:27Z</time>
   </trkpt>
   <trkpt lat="-3.1338330" lon="37.3718020">
    <ele>3765.9</ele>
    <time>2026-06-23T11:17:28Z</time>
   </trkpt>
   <trkpt lat="-3.1338370" lon="37.3718060">
    <ele>3765.8</ele>
    <time>2026-06-23T11:17:29Z</time>
   </trkpt>
   <trkpt lat="-3.1338410" lon="37.3718140">
    <ele>3765.6</ele>
    <time>2026-06-23T11:17:30Z</time>
   </trkpt>
   <trkpt lat="-3.1338450" lon="37.3718140">
    <ele>3765.5</ele>
    <time>2026-06-23T11:17:31Z</time>
   </trkpt>
   <trkpt lat="-3.1338470" lon="37.3718150">
    <ele>3765.5</ele>
    <time>2026-06-23T11:17:32Z</time>
   </trkpt>
   <trkpt lat="-3.1338510" lon="37.3718170">
    <ele>3765.4</ele>
    <time>2026-06-23T11:17:33Z</time>
   </trkpt>
   <trkpt lat="-3.1338550" lon="37.3718200">
    <ele>3765.3</ele>
    <time>2026-06-23T11:17:34Z</time>
   </trkpt>
   <trkpt lat="-3.1338630" lon="37.3718220">
    <ele>3765.1</ele>
    <time>2026-06-23T11:17:35Z</time>
   </trkpt>
   <trkpt lat="-3.1338680" lon="37.3718230">
    <ele>3765.0</ele>
    <time>2026-06-23T11:17:36Z</time>
   </trkpt>
   <trkpt lat="-3.1338740" lon="37.3718240">
    <ele>3764.8</ele>
    <time>2026-06-23T11:17:37Z</time>
   </trkpt>
   <trkpt lat="-3.1338770" lon="37.3718240">
    <ele>3764.8</ele>
    <time>2026-06-23T11:17:38Z</time>
   </trkpt>
   <trkpt lat="-3.1338810" lon="37.3718240">
    <ele>3764.7</ele>
    <time>2026-06-23T11:17:39Z</time>
   </trkpt>
   <trkpt lat="-3.1338830" lon="37.3718230">
    <ele>3764.6</ele>
    <time>2026-06-23T11:17:40Z</time>
   </trkpt>
   <trkpt lat="-3.1338920" lon="37.3718280">
    <ele>3764.4</ele>
    <time>2026-06-23T11:17:41Z</time>
   </trkpt>
   <trkpt lat="-3.1338950" lon="37.3718280">
    <ele>3764.3</ele>
    <time>2026-06-23T11:17:42Z</time>
   </trkpt>
   <trkpt lat="-3.1338920" lon="37.3718280">
    <ele>3764.3</ele>
    <time>2026-06-23T11:17:43Z</time>
   </trkpt>
   <trkpt lat="-3.1338940" lon="37.3718270">
    <ele>3764.2</ele>
    <time>2026-06-23T11:17:44Z</time>
   </trkpt>
   <trkpt lat="-3.1338960" lon="37.3718260">
    <ele>3764.2</ele>
    <time>2026-06-23T11:17:45Z</time>
   </trkpt>
   <trkpt lat="-3.1339000" lon="37.3718270">
    <ele>3764.1</ele>
    <time>2026-06-23T11:17:46Z</time>
   </trkpt>
   <trkpt lat="-3.1339040" lon="37.3718270">
    <ele>3764.0</ele>
    <time>2026-06-23T11:17:47Z</time>
   </trkpt>
   <trkpt lat="-3.1339100" lon="37.3718280">
    <ele>3763.9</ele>
    <time>2026-06-23T11:17:48Z</time>
   </trkpt>
   <trkpt lat="-3.1339120" lon="37.3718300">
    <ele>3763.8</ele>
    <time>2026-06-23T11:17:49Z</time>
   </trkpt>
   <trkpt lat="-3.1339170" lon="37.3718330">
    <ele>3763.7</ele>
    <time>2026-06-23T11:17:50Z</time>
   </trkpt>
   <trkpt lat="-3.1339220" lon="37.3718360">
    <ele>3763.6</ele>
    <time>2026-06-23T11:17:51Z</time>
   </trkpt>
   <trkpt lat="-3.1339250" lon="37.3718370">
    <ele>3763.5</ele>
    <time>2026-06-23T11:17:52Z</time>
   </trkpt>
   <trkpt lat="-3.1339280" lon="37.3718370">
    <ele>3763.4</ele>
    <time>2026-06-23T11:17:53Z</time>
   </trkpt>
   <trkpt lat="-3.1339290" lon="37.3718390">
    <ele>3763.4</ele>
    <time>2026-06-23T11:17:54Z</time>
   </trkpt>
   <trkpt lat="-3.1339330" lon="37.3718420">
    <ele>3763.3</ele>
    <time>2026-06-23T11:17:55Z</time>
   </trkpt>
   <trkpt lat="-3.1339350" lon="37.3718430">
    <ele>3763.2</ele>
    <time>2026-06-23T11:17:56Z</time>
   </trkpt>
   <trkpt lat="-3.1339390" lon="37.3718450">
    <ele>3763.1</ele>
    <time>2026-06-23T11:17:57Z</time>
   </trkpt>
   <trkpt lat="-3.1339410" lon="37.3718440">
    <ele>3763.1</ele>
    <time>2026-06-23T11:17:58Z</time>
   </trkpt>
   <trkpt lat="-3.1339460" lon="37.3718420">
    <ele>3763.0</ele>
    <time>2026-06-23T11:17:59Z</time>
   </trkpt>
   <trkpt lat="-3.1339480" lon="37.3718370">
    <ele>3762.9</ele>
    <time>2026-06-23T11:18:00Z</time>
   </trkpt>
   <trkpt lat="-3.1339510" lon="37.3718310">
    <ele>3762.7</ele>
    <time>2026-06-23T11:18:01Z</time>
   </trkpt>
   <trkpt lat="-3.1339520" lon="37.3718300">
    <ele>3762.7</ele>
    <time>2026-06-23T11:18:02Z</time>
   </trkpt>
   <trkpt lat="-3.1339530" lon="37.3718290">
    <ele>3762.6</ele>
    <time>2026-06-23T11:18:03Z</time>
   </trkpt>
   <trkpt lat="-3.1339570" lon="37.3718250">
    <ele>3762.5</ele>
    <time>2026-06-23T11:18:04Z</time>
   </trkpt>
   <trkpt lat="-3.1339590" lon="37.3718220">
    <ele>3762.4</ele>
    <time>2026-06-23T11:18:05Z</time>
   </trkpt>
   <trkpt lat="-3.1339600" lon="37.3718220">
    <ele>3762.4</ele>
    <time>2026-06-23T11:18:06Z</time>
   </trkpt>
   <trkpt lat="-3.1339610" lon="37.3718260">
    <ele>3762.3</ele>
    <time>2026-06-23T11:18:07Z</time>
   </trkpt>
   <trkpt lat="-3.1339610" lon="37.3718340">
    <ele>3762.2</ele>
    <time>2026-06-23T11:18:08Z</time>
   </trkpt>
   <trkpt lat="-3.1339610" lon="37.3718400">
    <ele>3762.0</ele>
    <time>2026-06-23T11:18:09Z</time>
   </trkpt>
   <trkpt lat="-3.1339600" lon="37.3718440">
    <ele>3761.9</ele>
    <time>2026-06-23T11:18:10Z</time>
   </trkpt>
   <trkpt lat="-3.1339590" lon="37.3718490">
    <ele>3761.8</ele>
    <time>2026-06-23T11:18:11Z</time>
   </trkpt>
   <trkpt lat="-3.1339620" lon="37.3718520">
    <ele>3761.7</ele>
    <time>2026-06-23T11:18:12Z</time>
   </trkpt>
   <trkpt lat="-3.1339720" lon="37.3718530">
    <ele>3761.5</ele>
    <time>2026-06-23T11:18:13Z</time>
   </trkpt>
   <trkpt lat="-3.1339750" lon="37.3718540">
    <ele>3761.4</ele>
    <time>2026-06-23T11:18:14Z</time>
   </trkpt>
   <trkpt lat="-3.1339780" lon="37.3718550">
    <ele>3761.3</ele>
    <time>2026-06-23T11:18:15Z</time>
   </trkpt>
   <trkpt lat="-3.1339780" lon="37.3718590">
    <ele>3761.3</ele>
    <time>2026-06-23T11:18:16Z</time>
   </trkpt>
   <trkpt lat="-3.1339800" lon="37.3718670">
    <ele>3761.1</ele>
    <time>2026-06-23T11:18:17Z</time>
   </trkpt>
   <trkpt lat="-3.1339790" lon="37.3718730">
    <ele>3760.9</ele>
    <time>2026-06-23T11:18:18Z</time>
   </trkpt>
   <trkpt lat="-3.1339850" lon="37.3718770">
    <ele>3760.8</ele>
    <time>2026-06-23T11:18:19Z</time>
   </trkpt>
   <trkpt lat="-3.1339910" lon="37.3718760">
    <ele>3760.6</ele>
    <time>2026-06-23T11:18:20Z</time>
   </trkpt>
   <trkpt lat="-3.1339990" lon="37.3718770">
    <ele>3760.4</ele>
    <time>2026-06-23T11:18:21Z</time>
   </trkpt>
   <trkpt lat="-3.1340060" lon="37.3718780">
    <ele>3760.3</ele>
    <time>2026-06-23T11:18:22Z</time>
   </trkpt>
   <trkpt lat="-3.1340100" lon="37.3718820">
    <ele>3760.1</ele>
    <time>2026-06-23T11:18:23Z</time>
   </trkpt>
   <trkpt lat="-3.1340170" lon="37.3718890">
    <ele>3759.9</ele>
    <time>2026-06-23T11:18:24Z</time>
   </trkpt>
   <trkpt lat="-3.1340230" lon="37.3718940">
    <ele>3759.7</ele>
    <time>2026-06-23T11:18:25Z</time>
   </trkpt>
   <trkpt lat="-3.1340290" lon="37.3718960">
    <ele>3759.6</ele>
    <time>2026-06-23T11:18:26Z</time>
   </trkpt>
   <trkpt lat="-3.1340340" lon="37.3718960">
    <ele>3759.5</ele>
    <time>2026-06-23T11:18:27Z</time>
   </trkpt>
   <trkpt lat="-3.1340380" lon="37.3718940">
    <ele>3759.3</ele>
    <time>2026-06-23T11:18:28Z</time>
   </trkpt>
   <trkpt lat="-3.1340430" lon="37.3718920">
    <ele>3759.2</ele>
    <time>2026-06-23T11:18:29Z</time>
   </trkpt>
   <trkpt lat="-3.1340460" lon="37.3718890">
    <ele>3759.1</ele>
    <time>2026-06-23T11:18:30Z</time>
   </trkpt>
   <trkpt lat="-3.1340510" lon="37.3718860">
    <ele>3759.0</ele>
    <time>2026-06-23T11:18:31Z</time>
   </trkpt>
   <trkpt lat="-3.1340560" lon="37.3718850">
    <ele>3758.9</ele>
    <time>2026-06-23T11:18:32Z</time>
   </trkpt>
   <trkpt lat="-3.1340640" lon="37.3718830">
    <ele>3758.7</ele>
    <time>2026-06-23T11:18:33Z</time>
   </trkpt>
   <trkpt lat="-3.1340710" lon="37.3718810">
    <ele>3758.5</ele>
    <time>2026-06-23T11:18:34Z</time>
   </trkpt>
   <trkpt lat="-3.1340760" lon="37.3718810">
    <ele>3758.4</ele>
    <time>2026-06-23T11:18:35Z</time>
   </trkpt>
   <trkpt lat="-3.1340790" lon="37.3718780">
    <ele>3758.3</ele>
    <time>2026-06-23T11:18:36Z</time>
   </trkpt>
   <trkpt lat="-3.1340830" lon="37.3718730">
    <ele>3758.1</ele>
    <time>2026-06-23T11:18:37Z</time>
   </trkpt>
   <trkpt lat="-3.1340860" lon="37.3718700">
    <ele>3758.0</ele>
    <time>2026-06-23T11:18:38Z</time>
   </trkpt>
   <trkpt lat="-3.1340910" lon="37.3718670">
    <ele>3757.9</ele>
    <time>2026-06-23T11:18:39Z</time>
   </trkpt>
   <trkpt lat="-3.1340930" lon="37.3718670">
    <ele>3757.9</ele>
    <time>2026-06-23T11:18:40Z</time>
   </trkpt>
   <trkpt lat="-3.1340980" lon="37.3718640">
    <ele>3757.7</ele>
    <time>2026-06-23T11:18:41Z</time>
   </trkpt>
   <trkpt lat="-3.1341050" lon="37.3718600">
    <ele>3757.5</ele>
    <time>2026-06-23T11:18:42Z</time>
   </trkpt>
   <trkpt lat="-3.1341080" lon="37.3718580">
    <ele>3757.5</ele>
    <time>2026-06-23T11:18:43Z</time>
   </trkpt>
   <trkpt lat="-3.1341150" lon="37.3718560">
    <ele>3757.3</ele>
    <time>2026-06-23T11:18:44Z</time>
   </trkpt>
   <trkpt lat="-3.1341200" lon="37.3718520">
    <ele>3757.1</ele>
    <time>2026-06-23T11:18:45Z</time>
   </trkpt>
   <trkpt lat="-3.1341250" lon="37.3718490">
    <ele>3757.0</ele>
    <time>2026-06-23T11:18:46Z</time>
   </trkpt>
   <trkpt lat="-3.1341300" lon="37.3718460">
    <ele>3756.9</ele>
    <time>2026-06-23T11:18:47Z</time>
   </trkpt>
   <trkpt lat="-3.1341340" lon="37.3718430">
    <ele>3756.7</ele>
    <time>2026-06-23T11:18:48Z</time>
   </trkpt>
   <trkpt lat="-3.1341390" lon="37.3718400">
    <ele>3756.6</ele>
    <time>2026-06-23T11:18:50Z</time>
   </trkpt>
   <trkpt lat="-3.1341460" lon="37.3718370">
    <ele>3756.4</ele>
    <time>2026-06-23T11:18:51Z</time>
   </trkpt>
   <trkpt lat="-3.1341490" lon="37.3718350">
    <ele>3756.4</ele>
    <time>2026-06-23T11:18:52Z</time>
   </trkpt>
   <trkpt lat="-3.1341520" lon="37.3718340">
    <ele>3756.3</ele>
    <time>2026-06-23T11:18:53Z</time>
   </trkpt>
   <trkpt lat="-3.1341540" lon="37.3718350">
    <ele>3756.2</ele>
    <time>2026-06-23T11:18:54Z</time>
   </trkpt>
   <trkpt lat="-3.1341620" lon="37.3718360">
    <ele>3756.0</ele>
    <time>2026-06-23T11:18:55Z</time>
   </trkpt>
   <trkpt lat="-3.1341670" lon="37.3718350">
    <ele>3755.9</ele>
    <time>2026-06-23T11:18:56Z</time>
   </trkpt>
   <trkpt lat="-3.1341710" lon="37.3718320">
    <ele>3755.8</ele>
    <time>2026-06-23T11:18:57Z</time>
   </trkpt>
   <trkpt lat="-3.1341750" lon="37.3718290">
    <ele>3755.7</ele>
    <time>2026-06-23T11:18:58Z</time>
   </trkpt>
   <trkpt lat="-3.1341800" lon="37.3718270">
    <ele>3755.6</ele>
    <time>2026-06-23T11:18:59Z</time>
   </trkpt>
   <trkpt lat="-3.1341840" lon="37.3718250">
    <ele>3755.5</ele>
    <time>2026-06-23T11:19:00Z</time>
   </trkpt>
   <trkpt lat="-3.1341880" lon="37.3718220">
    <ele>3755.4</ele>
    <time>2026-06-23T11:19:01Z</time>
   </trkpt>
   <trkpt lat="-3.1341930" lon="37.3718180">
    <ele>3755.2</ele>
    <time>2026-06-23T11:19:02Z</time>
   </trkpt>
   <trkpt lat="-3.1341980" lon="37.3718150">
    <ele>3755.1</ele>
    <time>2026-06-23T11:19:03Z</time>
   </trkpt>
   <trkpt lat="-3.1342020" lon="37.3718130">
    <ele>3755.0</ele>
    <time>2026-06-23T11:19:04Z</time>
   </trkpt>
   <trkpt lat="-3.1342090" lon="37.3718120">
    <ele>3754.8</ele>
    <time>2026-06-23T11:19:05Z</time>
   </trkpt>
   <trkpt lat="-3.1342140" lon="37.3718120">
    <ele>3754.7</ele>
    <time>2026-06-23T11:19:06Z</time>
   </trkpt>
   <trkpt lat="-3.1342170" lon="37.3718120">
    <ele>3754.7</ele>
    <time>2026-06-23T11:19:07Z</time>
   </trkpt>
   <trkpt lat="-3.1342210" lon="37.3718100">
    <ele>3754.6</ele>
    <time>2026-06-23T11:19:08Z</time>
   </trkpt>
   <trkpt lat="-3.1342280" lon="37.3718090">
    <ele>3754.4</ele>
    <time>2026-06-23T11:19:09Z</time>
   </trkpt>
   <trkpt lat="-3.1342330" lon="37.3718080">
    <ele>3754.3</ele>
    <time>2026-06-23T11:19:10Z</time>
   </trkpt>
   <trkpt lat="-3.1342390" lon="37.3718090">
    <ele>3754.2</ele>
    <time>2026-06-23T11:19:11Z</time>
   </trkpt>
   <trkpt lat="-3.1342450" lon="37.3718110">
    <ele>3754.0</ele>
    <time>2026-06-23T11:19:12Z</time>
   </trkpt>
   <trkpt lat="-3.1342480" lon="37.3718140">
    <ele>3753.9</ele>
    <time>2026-06-23T11:19:13Z</time>
   </trkpt>
   <trkpt lat="-3.1342530" lon="37.3718160">
    <ele>3753.8</ele>
    <time>2026-06-23T11:19:14Z</time>
   </trkpt>
   <trkpt lat="-3.1342580" lon="37.3718180">
    <ele>3753.7</ele>
    <time>2026-06-23T11:19:15Z</time>
   </trkpt>
   <trkpt lat="-3.1342630" lon="37.3718220">
    <ele>3753.6</ele>
    <time>2026-06-23T11:19:16Z</time>
   </trkpt>
   <trkpt lat="-3.1342680" lon="37.3718270">
    <ele>3753.4</ele>
    <time>2026-06-23T11:19:17Z</time>
   </trkpt>
   <trkpt lat="-3.1342710" lon="37.3718310">
    <ele>3753.3</ele>
    <time>2026-06-23T11:19:18Z</time>
   </trkpt>
   <trkpt lat="-3.1342720" lon="37.3718310">
    <ele>3753.3</ele>
    <time>2026-06-23T11:19:19Z</time>
   </trkpt>
   <trkpt lat="-3.1342780" lon="37.3718300">
    <ele>3753.1</ele>
    <time>2026-06-23T11:19:20Z</time>
   </trkpt>
   <trkpt lat="-3.1342840" lon="37.3718310">
    <ele>3753.0</ele>
    <time>2026-06-23T11:19:21Z</time>
   </trkpt>
   <trkpt lat="-3.1342870" lon="37.3718310">
    <ele>3752.9</ele>
    <time>2026-06-23T11:19:22Z</time>
   </trkpt>
   <trkpt lat="-3.1342910" lon="37.3718330">
    <ele>3752.9</ele>
    <time>2026-06-23T11:19:23Z</time>
   </trkpt>
   <trkpt lat="-3.1342910" lon="37.3718340">
    <ele>3752.8</ele>
    <time>2026-06-23T11:19:24Z</time>
   </trkpt>
   <trkpt lat="-3.1342960" lon="37.3718340">
    <ele>3752.7</ele>
    <time>2026-06-23T11:19:25Z</time>
   </trkpt>
   <trkpt lat="-3.1343020" lon="37.3718420">
    <ele>3752.5</ele>
    <time>2026-06-23T11:19:26Z</time>
   </trkpt>
   <trkpt lat="-3.1343090" lon="37.3718420">
    <ele>3752.4</ele>
    <time>2026-06-23T11:19:27Z</time>
   </trkpt>
   <trkpt lat="-3.1343170" lon="37.3718450">
    <ele>3752.2</ele>
    <time>2026-06-23T11:19:28Z</time>
   </trkpt>
   <trkpt lat="-3.1343290" lon="37.3718420">
    <ele>3751.9</ele>
    <time>2026-06-23T11:19:29Z</time>
   </trkpt>
   <trkpt lat="-3.1343330" lon="37.3718380">
    <ele>3751.8</ele>
    <time>2026-06-23T11:19:30Z</time>
   </trkpt>
   <trkpt lat="-3.1343380" lon="37.3718350">
    <ele>3751.6</ele>
    <time>2026-06-23T11:19:31Z</time>
   </trkpt>
   <trkpt lat="-3.1343400" lon="37.3718340">
    <ele>3751.6</ele>
    <time>2026-06-23T11:19:32Z</time>
   </trkpt>
   <trkpt lat="-3.1343450" lon="37.3718320">
    <ele>3751.4</ele>
    <time>2026-06-23T11:19:33Z</time>
   </trkpt>
   <trkpt lat="-3.1343510" lon="37.3718340">
    <ele>3751.3</ele>
    <time>2026-06-23T11:19:34Z</time>
   </trkpt>
   <trkpt lat="-3.1343530" lon="37.3718310">
    <ele>3751.2</ele>
    <time>2026-06-23T11:19:35Z</time>
   </trkpt>
   <trkpt lat="-3.1343610" lon="37.3718290">
    <ele>3751.0</ele>
    <time>2026-06-23T11:19:36Z</time>
   </trkpt>
   <trkpt lat="-3.1343700" lon="37.3718290">
    <ele>3750.8</ele>
    <time>2026-06-23T11:19:37Z</time>
   </trkpt>
   <trkpt lat="-3.1343720" lon="37.3718300">
    <ele>3750.8</ele>
    <time>2026-06-23T11:19:38Z</time>
   </trkpt>
   <trkpt lat="-3.1343760" lon="37.3718310">
    <ele>3750.7</ele>
    <time>2026-06-23T11:19:39Z</time>
   </trkpt>
   <trkpt lat="-3.1343790" lon="37.3718320">
    <ele>3750.6</ele>
    <time>2026-06-23T11:19:40Z</time>
   </trkpt>
   <trkpt lat="-3.1343790" lon="37.3718330">
    <ele>3750.6</ele>
    <time>2026-06-23T11:19:41Z</time>
   </trkpt>
   <trkpt lat="-3.1343810" lon="37.3718370">
    <ele>3750.5</ele>
    <time>2026-06-23T11:19:42Z</time>
   </trkpt>
   <trkpt lat="-3.1343870" lon="37.3718380">
    <ele>3750.3</ele>
    <time>2026-06-23T11:19:43Z</time>
   </trkpt>
   <trkpt lat="-3.1343890" lon="37.3718400">
    <ele>3750.3</ele>
    <time>2026-06-23T11:19:44Z</time>
   </trkpt>
   <trkpt lat="-3.1343920" lon="37.3718430">
    <ele>3750.2</ele>
    <time>2026-06-23T11:19:45Z</time>
   </trkpt>
   <trkpt lat="-3.1343930" lon="37.3718470">
    <ele>3750.1</ele>
    <time>2026-06-23T11:19:46Z</time>
   </trkpt>
   <trkpt lat="-3.1343980" lon="37.3718490">
    <ele>3750.0</ele>
    <time>2026-06-23T11:19:47Z</time>
   </trkpt>
   <trkpt lat="-3.1344020" lon="37.3718540">
    <ele>3749.8</ele>
    <time>2026-06-23T11:19:48Z</time>
   </trkpt>
   <trkpt lat="-3.1344040" lon="37.3718560">
    <ele>3749.7</ele>
    <time>2026-06-23T11:19:49Z</time>
   </trkpt>
   <trkpt lat="-3.1344080" lon="37.3718620">
    <ele>3749.6</ele>
    <time>2026-06-23T11:19:50Z</time>
   </trkpt>
   <trkpt lat="-3.1344160" lon="37.3718660">
    <ele>3749.3</ele>
    <time>2026-06-23T11:19:51Z</time>
   </trkpt>
   <trkpt lat="-3.1344170" lon="37.3718680">
    <ele>3749.3</ele>
    <time>2026-06-23T11:19:52Z</time>
   </trkpt>
   <trkpt lat="-3.1344190" lon="37.3718670">
    <ele>3749.2</ele>
    <time>2026-06-23T11:19:53Z</time>
   </trkpt>
   <trkpt lat="-3.1344240" lon="37.3718690">
    <ele>3749.1</ele>
    <time>2026-06-23T11:19:54Z</time>
   </trkpt>
   <trkpt lat="-3.1344270" lon="37.3718700">
    <ele>3749.0</ele>
    <time>2026-06-23T11:19:55Z</time>
   </trkpt>
   <trkpt lat="-3.1344330" lon="37.3718730">
    <ele>3748.9</ele>
    <time>2026-06-23T11:19:56Z</time>
   </trkpt>
   <trkpt lat="-3.1344310" lon="37.3718710">
    <ele>3748.8</ele>
    <time>2026-06-23T11:19:57Z</time>
   </trkpt>
   <trkpt lat="-3.1344320" lon="37.3718720">
    <ele>3748.8</ele>
    <time>2026-06-23T11:19:58Z</time>
   </trkpt>
   <trkpt lat="-3.1344340" lon="37.3718760">
    <ele>3748.6</ele>
    <time>2026-06-23T11:19:59Z</time>
   </trkpt>
   <trkpt lat="-3.1344340" lon="37.3718800">
    <ele>3748.5</ele>
    <time>2026-06-23T11:20:00Z</time>
   </trkpt>
   <trkpt lat="-3.1344470" lon="37.3718840">
    <ele>3748.2</ele>
    <time>2026-06-23T11:20:01Z</time>
   </trkpt>
   <trkpt lat="-3.1344550" lon="37.3718910">
    <ele>3747.9</ele>
    <time>2026-06-23T11:20:02Z</time>
   </trkpt>
   <trkpt lat="-3.1344560" lon="37.3718960">
    <ele>3747.8</ele>
    <time>2026-06-23T11:20:03Z</time>
   </trkpt>
   <trkpt lat="-3.1344590" lon="37.3718990">
    <ele>3747.7</ele>
    <time>2026-06-23T11:20:04Z</time>
   </trkpt>
   <trkpt lat="-3.1344620" lon="37.3718990">
    <ele>3747.6</ele>
    <time>2026-06-23T11:20:05Z</time>
   </trkpt>
   <trkpt lat="-3.1344670" lon="37.3719020">
    <ele>3747.5</ele>
    <time>2026-06-23T11:20:06Z</time>
   </trkpt>
   <trkpt lat="-3.1344720" lon="37.3719030">
    <ele>3747.4</ele>
    <time>2026-06-23T11:20:07Z</time>
   </trkpt>
   <trkpt lat="-3.1344780" lon="37.3719050">
    <ele>3747.2</ele>
    <time>2026-06-23T11:20:08Z</time>
   </trkpt>
   <trkpt lat="-3.1344820" lon="37.3719050">
    <ele>3747.1</ele>
    <time>2026-06-23T11:20:09Z</time>
   </trkpt>
   <trkpt lat="-3.1344870" lon="37.3719050">
    <ele>3747.0</ele>
    <time>2026-06-23T11:20:10Z</time>
   </trkpt>
   <trkpt lat="-3.1344930" lon="37.3719050">
    <ele>3746.8</ele>
    <time>2026-06-23T11:20:11Z</time>
   </trkpt>
   <trkpt lat="-3.1344980" lon="37.3719040">
    <ele>3746.7</ele>
    <time>2026-06-23T11:20:12Z</time>
   </trkpt>
   <trkpt lat="-3.1345010" lon="37.3719030">
    <ele>3746.6</ele>
    <time>2026-06-23T11:20:13Z</time>
   </trkpt>
   <trkpt lat="-3.1345050" lon="37.3719060">
    <ele>3746.5</ele>
    <time>2026-06-23T11:20:14Z</time>
   </trkpt>
   <trkpt lat="-3.1345090" lon="37.3719100">
    <ele>3746.3</ele>
    <time>2026-06-23T11:20:15Z</time>
   </trkpt>
   <trkpt lat="-3.1345120" lon="37.3719130">
    <ele>3746.2</ele>
    <time>2026-06-23T11:20:16Z</time>
   </trkpt>
   <trkpt lat="-3.1345170" lon="37.3719170">
    <ele>3746.0</ele>
    <time>2026-06-23T11:20:17Z</time>
   </trkpt>
   <trkpt lat="-3.1345160" lon="37.3719200">
    <ele>3745.9</ele>
    <time>2026-06-23T11:20:18Z</time>
   </trkpt>
   <trkpt lat="-3.1345210" lon="37.3719230">
    <ele>3745.8</ele>
    <time>2026-06-23T11:20:19Z</time>
   </trkpt>
   <trkpt lat="-3.1345210" lon="37.3719240">
    <ele>3745.8</ele>
    <time>2026-06-23T11:20:20Z</time>
   </trkpt>
   <trkpt lat="-3.1345230" lon="37.3719240">
    <ele>3745.7</ele>
    <time>2026-06-23T11:20:21Z</time>
   </trkpt>
   <trkpt lat="-3.1345320" lon="37.3719300">
    <ele>3745.4</ele>
    <time>2026-06-23T11:20:22Z</time>
   </trkpt>
   <trkpt lat="-3.1345350" lon="37.3719310">
    <ele>3745.3</ele>
    <time>2026-06-23T11:20:23Z</time>
   </trkpt>
   <trkpt lat="-3.1345370" lon="37.3719340">
    <ele>3745.2</ele>
    <time>2026-06-23T11:20:24Z</time>
   </trkpt>
   <trkpt lat="-3.1345390" lon="37.3719340">
    <ele>3745.2</ele>
    <time>2026-06-23T11:20:25Z</time>
   </trkpt>
   <trkpt lat="-3.1345430" lon="37.3719340">
    <ele>3745.1</ele>
    <time>2026-06-23T11:20:26Z</time>
   </trkpt>
   <trkpt lat="-3.1345460" lon="37.3719330">
    <ele>3745.0</ele>
    <time>2026-06-23T11:20:27Z</time>
   </trkpt>
   <trkpt lat="-3.1345510" lon="37.3719340">
    <ele>3744.9</ele>
    <time>2026-06-23T11:20:28Z</time>
   </trkpt>
   <trkpt lat="-3.1345550" lon="37.3719320">
    <ele>3744.8</ele>
    <time>2026-06-23T11:20:29Z</time>
   </trkpt>
   <trkpt lat="-3.1345570" lon="37.3719290">
    <ele>3744.7</ele>
    <time>2026-06-23T11:20:30Z</time>
   </trkpt>
   <trkpt lat="-3.1345600" lon="37.3719280">
    <ele>3744.6</ele>
    <time>2026-06-23T11:20:31Z</time>
   </trkpt>
   <trkpt lat="-3.1345640" lon="37.3719280">
    <ele>3744.5</ele>
    <time>2026-06-23T11:20:32Z</time>
   </trkpt>
   <trkpt lat="-3.1345670" lon="37.3719280">
    <ele>3744.4</ele>
    <time>2026-06-23T11:20:33Z</time>
   </trkpt>
   <trkpt lat="-3.1345700" lon="37.3719290">
    <ele>3744.3</ele>
    <time>2026-06-23T11:20:34Z</time>
   </trkpt>
   <trkpt lat="-3.1345750" lon="37.3719310">
    <ele>3744.2</ele>
    <time>2026-06-23T11:20:35Z</time>
   </trkpt>
   <trkpt lat="-3.1345830" lon="37.3719340">
    <ele>3743.9</ele>
    <time>2026-06-23T11:20:36Z</time>
   </trkpt>
   <trkpt lat="-3.1345880" lon="37.3719370">
    <ele>3743.8</ele>
    <time>2026-06-23T11:20:37Z</time>
   </trkpt>
   <trkpt lat="-3.1345930" lon="37.3719390">
    <ele>3743.6</ele>
    <time>2026-06-23T11:20:38Z</time>
   </trkpt>
   <trkpt lat="-3.1346010" lon="37.3719370">
    <ele>3743.4</ele>
    <time>2026-06-23T11:20:39Z</time>
   </trkpt>
   <trkpt lat="-3.1346050" lon="37.3719350">
    <ele>3743.3</ele>
    <time>2026-06-23T11:20:40Z</time>
   </trkpt>
   <trkpt lat="-3.1346080" lon="37.3719320">
    <ele>3743.2</ele>
    <time>2026-06-23T11:20:41Z</time>
   </trkpt>
   <trkpt lat="-3.1346110" lon="37.3719290">
    <ele>3743.1</ele>
    <time>2026-06-23T11:20:42Z</time>
   </trkpt>
   <trkpt lat="-3.1346150" lon="37.3719270">
    <ele>3743.0</ele>
    <time>2026-06-23T11:20:43Z</time>
   </trkpt>
   <trkpt lat="-3.1346150" lon="37.3719230">
    <ele>3742.8</ele>
    <time>2026-06-23T11:20:44Z</time>
   </trkpt>
   <trkpt lat="-3.1346130" lon="37.3719160">
    <ele>3742.7</ele>
    <time>2026-06-23T11:20:45Z</time>
   </trkpt>
   <trkpt lat="-3.1346130" lon="37.3719120">
    <ele>3742.5</ele>
    <time>2026-06-23T11:20:46Z</time>
   </trkpt>
   <trkpt lat="-3.1346140" lon="37.3719100">
    <ele>3742.5</ele>
    <time>2026-06-23T11:20:47Z</time>
   </trkpt>
   <trkpt lat="-3.1346120" lon="37.3719110">
    <ele>3742.4</ele>
    <time>2026-06-23T11:20:48Z</time>
   </trkpt>
   <trkpt lat="-3.1346130" lon="37.3719100">
    <ele>3742.4</ele>
    <time>2026-06-23T11:20:49Z</time>
   </trkpt>
   <trkpt lat="-3.1346150" lon="37.3719080">
    <ele>3742.3</ele>
    <time>2026-06-23T11:20:50Z</time>
   </trkpt>
   <trkpt lat="-3.1346150" lon="37.3719080">
    <ele>3742.3</ele>
    <time>2026-06-23T11:20:51Z</time>
   </trkpt>
   <trkpt lat="-3.1346220" lon="37.3719050">
    <ele>3742.1</ele>
    <time>2026-06-23T11:20:52Z</time>
   </trkpt>
   <trkpt lat="-3.1346220" lon="37.3719010">
    <ele>3742.0</ele>
    <time>2026-06-23T11:20:53Z</time>
   </trkpt>
   <trkpt lat="-3.1346220" lon="37.3719020">
    <ele>3742.0</ele>
    <time>2026-06-23T11:20:54Z</time>
   </trkpt>
   <trkpt lat="-3.1346210" lon="37.3719040">
    <ele>3741.9</ele>
    <time>2026-06-23T11:20:56Z</time>
   </trkpt>
   <trkpt lat="-3.1346210" lon="37.3719050">
    <ele>3741.9</ele>
    <time>2026-06-23T11:20:57Z</time>
   </trkpt>
   <trkpt lat="-3.1346210" lon="37.3719050">
    <ele>3741.9</ele>
    <time>2026-06-23T11:20:58Z</time>
   </trkpt>
   <trkpt lat="-3.1346380" lon="37.3718850">
    <ele>3741.2</ele>
    <time>2026-06-23T11:20:59Z</time>
   </trkpt>
   <trkpt lat="-3.1346290" lon="37.3718940">
    <ele>3740.9</ele>
    <time>2026-06-23T11:21:00Z</time>
   </trkpt>
   <trkpt lat="-3.1346320" lon="37.3718950">
    <ele>3740.8</ele>
    <time>2026-06-23T11:21:01Z</time>
   </trkpt>
   <trkpt lat="-3.1346310" lon="37.3718980">
    <ele>3740.7</ele>
    <time>2026-06-23T11:21:02Z</time>
   </trkpt>
   <trkpt lat="-3.1346300" lon="37.3718990">
    <ele>3740.7</ele>
    <time>2026-06-23T11:21:03Z</time>
   </trkpt>
   <trkpt lat="-3.1346300" lon="37.3719010">
    <ele>3740.6</ele>
    <time>2026-06-23T11:21:04Z</time>
   </trkpt>
   <trkpt lat="-3.1346370" lon="37.3718970">
    <ele>3740.4</ele>
    <time>2026-06-23T11:21:05Z</time>
   </trkpt>
   <trkpt lat="-3.1346440" lon="37.3718940">
    <ele>3740.2</ele>
    <time>2026-06-23T11:21:06Z</time>
   </trkpt>
   <trkpt lat="-3.1346520" lon="37.3718920">
    <ele>3740.0</ele>
    <time>2026-06-23T11:21:07Z</time>
   </trkpt>
   <trkpt lat="-3.1346560" lon="37.3718920">
    <ele>3739.9</ele>
    <time>2026-06-23T11:21:08Z</time>
   </trkpt>
   <trkpt lat="-3.1346580" lon="37.3718910">
    <ele>3739.8</ele>
    <time>2026-06-23T11:21:09Z</time>
   </trkpt>
   <trkpt lat="-3.1346620" lon="37.3718900">
    <ele>3739.7</ele>
    <time>2026-06-23T11:21:10Z</time>
   </trkpt>
   <trkpt lat="-3.1346690" lon="37.3718860">
    <ele>3739.5</ele>
    <time>2026-06-23T11:21:11Z</time>
   </trkpt>
   <trkpt lat="-3.1346740" lon="37.3718860">
    <ele>3739.4</ele>
    <time>2026-06-23T11:21:12Z</time>
   </trkpt>
   <trkpt lat="-3.1346790" lon="37.3718870">
    <ele>3739.2</ele>
    <time>2026-06-23T11:21:13Z</time>
   </trkpt>
   <trkpt lat="-3.1346840" lon="37.3718870">
    <ele>3739.1</ele>
    <time>2026-06-23T11:21:14Z</time>
   </trkpt>
   <trkpt lat="-3.1346860" lon="37.3718830">
    <ele>3739.0</ele>
    <time>2026-06-23T11:21:15Z</time>
   </trkpt>
   <trkpt lat="-3.1346860" lon="37.3718770">
    <ele>3738.8</ele>
    <time>2026-06-23T11:21:16Z</time>
   </trkpt>
   <trkpt lat="-3.1346850" lon="37.3718720">
    <ele>3738.7</ele>
    <time>2026-06-23T11:21:17Z</time>
   </trkpt>
   <trkpt lat="-3.1346830" lon="37.3718670">
    <ele>3738.6</ele>
    <time>2026-06-23T11:21:18Z</time>
   </trkpt>
   <trkpt lat="-3.1346810" lon="37.3718600">
    <ele>3738.4</ele>
    <time>2026-06-23T11:21:19Z</time>
   </trkpt>
   <trkpt lat="-3.1346780" lon="37.3718540">
    <ele>3738.2</ele>
    <time>2026-06-23T11:21:20Z</time>
   </trkpt>
   <trkpt lat="-3.1346770" lon="37.3718500">
    <ele>3738.1</ele>
    <time>2026-06-23T11:21:21Z</time>
   </trkpt>
   <trkpt lat="-3.1346770" lon="37.3718390">
    <ele>3737.8</ele>
    <time>2026-06-23T11:21:22Z</time>
   </trkpt>
   <trkpt lat="-3.1346770" lon="37.3718310">
    <ele>3737.6</ele>
    <time>2026-06-23T11:21:23Z</time>
   </trkpt>
   <trkpt lat="-3.1346750" lon="37.3718250">
    <ele>3737.5</ele>
    <time>2026-06-23T11:21:24Z</time>
   </trkpt>
   <trkpt lat="-3.1346760" lon="37.3718150">
    <ele>3737.2</ele>
    <time>2026-06-23T11:21:25Z</time>
   </trkpt>
   <trkpt lat="-3.1346750" lon="37.3718040">
    <ele>3737.0</ele>
    <time>2026-06-23T11:21:26Z</time>
   </trkpt>
   <trkpt lat="-3.1346760" lon="37.3717950">
    <ele>3736.7</ele>
    <time>2026-06-23T11:21:27Z</time>
   </trkpt>
   <trkpt lat="-3.1346760" lon="37.3717850">
    <ele>3736.5</ele>
    <time>2026-06-23T11:21:28Z</time>
   </trkpt>
   <trkpt lat="-3.1346810" lon="37.3717800">
    <ele>3736.3</ele>
    <time>2026-06-23T11:21:29Z</time>
   </trkpt>
   <trkpt lat="-3.1346870" lon="37.3717730">
    <ele>3736.1</ele>
    <time>2026-06-23T11:21:30Z</time>
   </trkpt>
   <trkpt lat="-3.1346900" lon="37.3717640">
    <ele>3735.9</ele>
    <time>2026-06-23T11:21:31Z</time>
   </trkpt>
   <trkpt lat="-3.1346900" lon="37.3717520">
    <ele>3735.6</ele>
    <time>2026-06-23T11:21:32Z</time>
   </trkpt>
   <trkpt lat="-3.1346960" lon="37.3717370">
    <ele>3735.2</ele>
    <time>2026-06-23T11:21:33Z</time>
   </trkpt>
   <trkpt lat="-3.1347010" lon="37.3717300">
    <ele>3735.0</ele>
    <time>2026-06-23T11:21:34Z</time>
   </trkpt>
   <trkpt lat="-3.1347060" lon="37.3717240">
    <ele>3734.9</ele>
    <time>2026-06-23T11:21:35Z</time>
   </trkpt>
   <trkpt lat="-3.1347110" lon="37.3717190">
    <ele>3734.7</ele>
    <time>2026-06-23T11:21:36Z</time>
   </trkpt>
   <trkpt lat="-3.1347150" lon="37.3717170">
    <ele>3734.6</ele>
    <time>2026-06-23T11:21:37Z</time>
   </trkpt>
   <trkpt lat="-3.1347200" lon="37.3717110">
    <ele>3734.4</ele>
    <time>2026-06-23T11:21:38Z</time>
   </trkpt>
   <trkpt lat="-3.1347270" lon="37.3717080">
    <ele>3734.2</ele>
    <time>2026-06-23T11:21:39Z</time>
   </trkpt>
   <trkpt lat="-3.1347340" lon="37.3717080">
    <ele>3734.0</ele>
    <time>2026-06-23T11:21:40Z</time>
   </trkpt>
   <trkpt lat="-3.1347430" lon="37.3717100">
    <ele>3733.8</ele>
    <time>2026-06-23T11:21:41Z</time>
   </trkpt>
   <trkpt lat="-3.1347480" lon="37.3717140">
    <ele>3733.7</ele>
    <time>2026-06-23T11:21:42Z</time>
   </trkpt>
   <trkpt lat="-3.1347520" lon="37.3717210">
    <ele>3733.5</ele>
    <time>2026-06-23T11:21:43Z</time>
   </trkpt>
   <trkpt lat="-3.1347530" lon="37.3717320">
    <ele>3733.3</ele>
    <time>2026-06-23T11:21:44Z</time>
   </trkpt>
   <trkpt lat="-3.1347550" lon="37.3717400">
    <ele>3733.1</ele>
    <time>2026-06-23T11:21:45Z</time>
   </trkpt>
   <trkpt lat="-3.1347580" lon="37.3717420">
    <ele>3733.0</ele>
    <time>2026-06-23T11:21:46Z</time>
   </trkpt>
   <trkpt lat="-3.1347660" lon="37.3717420">
    <ele>3732.8</ele>
    <time>2026-06-23T11:21:47Z</time>
   </trkpt>
   <trkpt lat="-3.1347710" lon="37.3717430">
    <ele>3732.7</ele>
    <time>2026-06-23T11:21:48Z</time>
   </trkpt>
   <trkpt lat="-3.1347770" lon="37.3717390">
    <ele>3732.5</ele>
    <time>2026-06-23T11:21:49Z</time>
   </trkpt>
   <trkpt lat="-3.1347800" lon="37.3717400">
    <ele>3732.5</ele>
    <time>2026-06-23T11:21:50Z</time>
   </trkpt>
   <trkpt lat="-3.1347860" lon="37.3717380">
    <ele>3732.3</ele>
    <time>2026-06-23T11:21:51Z</time>
   </trkpt>
   <trkpt lat="-3.1347930" lon="37.3717400">
    <ele>3732.1</ele>
    <time>2026-06-23T11:21:52Z</time>
   </trkpt>
   <trkpt lat="-3.1348020" lon="37.3717410">
    <ele>3731.9</ele>
    <time>2026-06-23T11:21:53Z</time>
   </trkpt>
   <trkpt lat="-3.1348090" lon="37.3717400">
    <ele>3731.8</ele>
    <time>2026-06-23T11:21:54Z</time>
   </trkpt>
   <trkpt lat="-3.1348120" lon="37.3717380">
    <ele>3731.7</ele>
    <time>2026-06-23T11:21:55Z</time>
   </trkpt>
   <trkpt lat="-3.1348200" lon="37.3717330">
    <ele>3731.5</ele>
    <time>2026-06-23T11:21:56Z</time>
   </trkpt>
   <trkpt lat="-3.1348280" lon="37.3717290">
    <ele>3731.3</ele>
    <time>2026-06-23T11:21:57Z</time>
   </trkpt>
   <trkpt lat="-3.1348350" lon="37.3717260">
    <ele>3731.1</ele>
    <time>2026-06-23T11:21:58Z</time>
   </trkpt>
   <trkpt lat="-3.1348440" lon="37.3717240">
    <ele>3730.9</ele>
    <time>2026-06-23T11:21:59Z</time>
   </trkpt>
   <trkpt lat="-3.1348530" lon="37.3717230">
    <ele>3730.7</ele>
    <time>2026-06-23T11:22:00Z</time>
   </trkpt>
   <trkpt lat="-3.1348570" lon="37.3717200">
    <ele>3730.6</ele>
    <time>2026-06-23T11:22:01Z</time>
   </trkpt>
   <trkpt lat="-3.1348630" lon="37.3717180">
    <ele>3730.5</ele>
    <time>2026-06-23T11:22:02Z</time>
   </trkpt>
   <trkpt lat="-3.1348670" lon="37.3717160">
    <ele>3730.4</ele>
    <time>2026-06-23T11:22:03Z</time>
   </trkpt>
   <trkpt lat="-3.1348730" lon="37.3717130">
    <ele>3730.2</ele>
    <time>2026-06-23T11:22:04Z</time>
   </trkpt>
   <trkpt lat="-3.1348800" lon="37.3717100">
    <ele>3730.0</ele>
    <time>2026-06-23T11:22:05Z</time>
   </trkpt>
   <trkpt lat="-3.1348870" lon="37.3717070">
    <ele>3729.9</ele>
    <time>2026-06-23T11:22:06Z</time>
   </trkpt>
   <trkpt lat="-3.1348890" lon="37.3717050">
    <ele>3729.8</ele>
    <time>2026-06-23T11:22:07Z</time>
   </trkpt>
   <trkpt lat="-3.1348890" lon="37.3717030">
    <ele>3729.8</ele>
    <time>2026-06-23T11:22:08Z</time>
   </trkpt>
   <trkpt lat="-3.1348940" lon="37.3716980">
    <ele>3729.6</ele>
    <time>2026-06-23T11:22:09Z</time>
   </trkpt>
   <trkpt lat="-3.1349020" lon="37.3716930">
    <ele>3729.4</ele>
    <time>2026-06-23T11:22:10Z</time>
   </trkpt>
   <trkpt lat="-3.1349070" lon="37.3716910">
    <ele>3729.3</ele>
    <time>2026-06-23T11:22:11Z</time>
   </trkpt>
   <trkpt lat="-3.1349080" lon="37.3716900">
    <ele>3729.2</ele>
    <time>2026-06-23T11:22:12Z</time>
   </trkpt>
   <trkpt lat="-3.1349110" lon="37.3716870">
    <ele>3729.1</ele>
    <time>2026-06-23T11:22:13Z</time>
   </trkpt>
   <trkpt lat="-3.1349140" lon="37.3716880">
    <ele>3729.1</ele>
    <time>2026-06-23T11:22:14Z</time>
   </trkpt>
   <trkpt lat="-3.1349190" lon="37.3716910">
    <ele>3728.9</ele>
    <time>2026-06-23T11:22:15Z</time>
   </trkpt>
   <trkpt lat="-3.1349250" lon="37.3716920">
    <ele>3728.8</ele>
    <time>2026-06-23T11:22:16Z</time>
   </trkpt>
   <trkpt lat="-3.1349310" lon="37.3716930">
    <ele>3728.6</ele>
    <time>2026-06-23T11:22:17Z</time>
   </trkpt>
   <trkpt lat="-3.1349420" lon="37.3716980">
    <ele>3728.4</ele>
    <time>2026-06-23T11:22:18Z</time>
   </trkpt>
   <trkpt lat="-3.1349500" lon="37.3716990">
    <ele>3728.2</ele>
    <time>2026-06-23T11:22:19Z</time>
   </trkpt>
   <trkpt lat="-3.1349560" lon="37.3716960">
    <ele>3728.0</ele>
    <time>2026-06-23T11:22:20Z</time>
   </trkpt>
   <trkpt lat="-3.1349630" lon="37.3716910">
    <ele>3727.8</ele>
    <time>2026-06-23T11:22:21Z</time>
   </trkpt>
   <trkpt lat="-3.1349590" lon="37.3716880">
    <ele>3727.7</ele>
    <time>2026-06-23T11:22:22Z</time>
   </trkpt>
   <trkpt lat="-3.1349650" lon="37.3716840">
    <ele>3727.5</ele>
    <time>2026-06-23T11:22:23Z</time>
   </trkpt>
   <trkpt lat="-3.1349740" lon="37.3716790">
    <ele>3727.3</ele>
    <time>2026-06-23T11:22:24Z</time>
   </trkpt>
   <trkpt lat="-3.1349800" lon="37.3716750">
    <ele>3727.1</ele>
    <time>2026-06-23T11:22:25Z</time>
   </trkpt>
   <trkpt lat="-3.1349870" lon="37.3716730">
    <ele>3726.9</ele>
    <time>2026-06-23T11:22:26Z</time>
   </trkpt>
   <trkpt lat="-3.1349930" lon="37.3716700">
    <ele>3726.8</ele>
    <time>2026-06-23T11:22:27Z</time>
   </trkpt>
   <trkpt lat="-3.1350020" lon="37.3716650">
    <ele>3726.5</ele>
    <time>2026-06-23T11:22:28Z</time>
   </trkpt>
   <trkpt lat="-3.1350080" lon="37.3716630">
    <ele>3726.4</ele>
    <time>2026-06-23T11:22:29Z</time>
   </trkpt>
   <trkpt lat="-3.1350120" lon="37.3716640">
    <ele>3726.3</ele>
    <time>2026-06-23T11:22:30Z</time>
   </trkpt>
   <trkpt lat="-3.1350160" lon="37.3716700">
    <ele>3726.1</ele>
    <time>2026-06-23T11:22:31Z</time>
   </trkpt>
   <trkpt lat="-3.1350240" lon="37.3716740">
    <ele>3725.8</ele>
    <time>2026-06-23T11:22:32Z</time>
   </trkpt>
   <trkpt lat="-3.1350340" lon="37.3716770">
    <ele>3725.6</ele>
    <time>2026-06-23T11:22:33Z</time>
   </trkpt>
   <trkpt lat="-3.1350410" lon="37.3716770">
    <ele>3725.4</ele>
    <time>2026-06-23T11:22:34Z</time>
   </trkpt>
   <trkpt lat="-3.1350430" lon="37.3716740">
    <ele>3725.3</ele>
    <time>2026-06-23T11:22:35Z</time>
   </trkpt>
   <trkpt lat="-3.1350470" lon="37.3716730">
    <ele>3725.2</ele>
    <time>2026-06-23T11:22:36Z</time>
   </trkpt>
   <trkpt lat="-3.1350550" lon="37.3716690">
    <ele>3725.0</ele>
    <time>2026-06-23T11:22:37Z</time>
   </trkpt>
   <trkpt lat="-3.1350610" lon="37.3716650">
    <ele>3724.8</ele>
    <time>2026-06-23T11:22:38Z</time>
   </trkpt>
   <trkpt lat="-3.1350690" lon="37.3716610">
    <ele>3724.5</ele>
    <time>2026-06-23T11:22:39Z</time>
   </trkpt>
   <trkpt lat="-3.1350730" lon="37.3716570">
    <ele>3724.4</ele>
    <time>2026-06-23T11:22:40Z</time>
   </trkpt>
   <trkpt lat="-3.1350760" lon="37.3716550">
    <ele>3724.3</ele>
    <time>2026-06-23T11:22:41Z</time>
   </trkpt>
   <trkpt lat="-3.1350800" lon="37.3716500">
    <ele>3724.1</ele>
    <time>2026-06-23T11:22:42Z</time>
   </trkpt>
   <trkpt lat="-3.1350860" lon="37.3716530">
    <ele>3724.0</ele>
    <time>2026-06-23T11:22:43Z</time>
   </trkpt>
   <trkpt lat="-3.1350910" lon="37.3716580">
    <ele>3723.8</ele>
    <time>2026-06-23T11:22:44Z</time>
   </trkpt>
   <trkpt lat="-3.1350910" lon="37.3716600">
    <ele>3723.7</ele>
    <time>2026-06-23T11:22:45Z</time>
   </trkpt>
   <trkpt lat="-3.1350980" lon="37.3716630">
    <ele>3723.5</ele>
    <time>2026-06-23T11:22:46Z</time>
   </trkpt>
   <trkpt lat="-3.1351080" lon="37.3716690">
    <ele>3723.2</ele>
    <time>2026-06-23T11:22:47Z</time>
   </trkpt>
   <trkpt lat="-3.1351130" lon="37.3716760">
    <ele>3723.0</ele>
    <time>2026-06-23T11:22:48Z</time>
   </trkpt>
   <trkpt lat="-3.1351150" lon="37.3716790">
    <ele>3722.9</ele>
    <time>2026-06-23T11:22:49Z</time>
   </trkpt>
   <trkpt lat="-3.1351220" lon="37.3716830">
    <ele>3722.7</ele>
    <time>2026-06-23T11:22:50Z</time>
   </trkpt>
   <trkpt lat="-3.1351270" lon="37.3716860">
    <ele>3722.5</ele>
    <time>2026-06-23T11:22:51Z</time>
   </trkpt>
   <trkpt lat="-3.1351300" lon="37.3716850">
    <ele>3722.4</ele>
    <time>2026-06-23T11:22:52Z</time>
   </trkpt>
   <trkpt lat="-3.1351380" lon="37.3716840">
    <ele>3722.2</ele>
    <time>2026-06-23T11:22:53Z</time>
   </trkpt>
   <trkpt lat="-3.1351460" lon="37.3716820">
    <ele>3722.0</ele>
    <time>2026-06-23T11:22:54Z</time>
   </trkpt>
   <trkpt lat="-3.1351590" lon="37.3716810">
    <ele>3721.6</ele>
    <time>2026-06-23T11:22:55Z</time>
   </trkpt>
   <trkpt lat="-3.1351610" lon="37.3716770">
    <ele>3721.5</ele>
    <time>2026-06-23T11:22:56Z</time>
   </trkpt>
   <trkpt lat="-3.1351650" lon="37.3716730">
    <ele>3721.3</ele>
    <time>2026-06-23T11:22:57Z</time>
   </trkpt>
   <trkpt lat="-3.1351710" lon="37.3716700">
    <ele>3721.1</ele>
    <time>2026-06-23T11:22:58Z</time>
   </trkpt>
   <trkpt lat="-3.1351750" lon="37.3716670">
    <ele>3721.0</ele>
    <time>2026-06-23T11:22:59Z</time>
   </trkpt>
   <trkpt lat="-3.1351800" lon="37.3716630">
    <ele>3720.8</ele>
    <time>2026-06-23T11:23:01Z</time>
   </trkpt>
   <trkpt lat="-3.1351810" lon="37.3716620">
    <ele>3720.8</ele>
    <time>2026-06-23T11:23:02Z</time>
   </trkpt>
   <trkpt lat="-3.1351820" lon="37.3716620">
    <ele>3720.8</ele>
    <time>2026-06-23T11:23:03Z</time>
   </trkpt>
   <trkpt lat="-3.1351810" lon="37.3716640">
    <ele>3720.7</ele>
    <time>2026-06-23T11:23:04Z</time>
   </trkpt>
   <trkpt lat="-3.1351820" lon="37.3716630">
    <ele>3720.7</ele>
    <time>2026-06-23T11:23:05Z</time>
   </trkpt>
   <trkpt lat="-3.1351830" lon="37.3716630">
    <ele>3720.6</ele>
    <time>2026-06-23T11:23:06Z</time>
   </trkpt>
   <trkpt lat="-3.1351860" lon="37.3716580">
    <ele>3720.5</ele>
    <time>2026-06-23T11:23:07Z</time>
   </trkpt>
   <trkpt lat="-3.1351880" lon="37.3716540">
    <ele>3720.4</ele>
    <time>2026-06-23T11:23:08Z</time>
   </trkpt>
   <trkpt lat="-3.1351890" lon="37.3716530">
    <ele>3720.3</ele>
    <time>2026-06-23T11:23:09Z</time>
   </trkpt>
   <trkpt lat="-3.1351910" lon="37.3716530">
    <ele>3720.3</ele>
    <time>2026-06-23T11:23:10Z</time>
   </trkpt>
   <trkpt lat="-3.1351980" lon="37.3716470">
    <ele>3720.0</ele>
    <time>2026-06-23T11:23:11Z</time>
   </trkpt>
   <trkpt lat="-3.1352050" lon="37.3716480">
    <ele>3719.8</ele>
    <time>2026-06-23T11:23:12Z</time>
   </trkpt>
   <trkpt lat="-3.1352100" lon="37.3716530">
    <ele>3719.6</ele>
    <time>2026-06-23T11:23:13Z</time>
   </trkpt>
   <trkpt lat="-3.1352160" lon="37.3716520">
    <ele>3719.5</ele>
    <time>2026-06-23T11:23:14Z</time>
   </trkpt>
   <trkpt lat="-3.1352240" lon="37.3716480">
    <ele>3719.2</ele>
    <time>2026-06-23T11:23:15Z</time>
   </trkpt>
   <trkpt lat="-3.1352320" lon="37.3716440">
    <ele>3719.0</ele>
    <time>2026-06-23T11:23:16Z</time>
   </trkpt>
   <trkpt lat="-3.1352390" lon="37.3716420">
    <ele>3718.8</ele>
    <time>2026-06-23T11:23:17Z</time>
   </trkpt>
   <trkpt lat="-3.1352460" lon="37.3716410">
    <ele>3718.6</ele>
    <time>2026-06-23T11:23:18Z</time>
   </trkpt>
   <trkpt lat="-3.1352510" lon="37.3716390">
    <ele>3718.5</ele>
    <time>2026-06-23T11:23:19Z</time>
   </trkpt>
   <trkpt lat="-3.1352570" lon="37.3716350">
    <ele>3718.3</ele>
    <time>2026-06-23T11:23:20Z</time>
   </trkpt>
   <trkpt lat="-3.1352620" lon="37.3716280">
    <ele>3718.0</ele>
    <time>2026-06-23T11:23:21Z</time>
   </trkpt>
   <trkpt lat="-3.1352690" lon="37.3716200">
    <ele>3717.8</ele>
    <time>2026-06-23T11:23:22Z</time>
   </trkpt>
   <trkpt lat="-3.1352770" lon="37.3716130">
    <ele>3717.5</ele>
    <time>2026-06-23T11:23:23Z</time>
   </trkpt>
   <trkpt lat="-3.1352840" lon="37.3716120">
    <ele>3717.3</ele>
    <time>2026-06-23T11:23:24Z</time>
   </trkpt>
   <trkpt lat="-3.1352920" lon="37.3716150">
    <ele>3717.1</ele>
    <time>2026-06-23T11:23:25Z</time>
   </trkpt>
   <trkpt lat="-3.1353020" lon="37.3716180">
    <ele>3716.9</ele>
    <time>2026-06-23T11:23:26Z</time>
   </trkpt>
   <trkpt lat="-3.1353070" lon="37.3716230">
    <ele>3716.7</ele>
    <time>2026-06-23T11:23:27Z</time>
   </trkpt>
   <trkpt lat="-3.1353120" lon="37.3716260">
    <ele>3716.6</ele>
    <time>2026-06-23T11:23:28Z</time>
   </trkpt>
   <trkpt lat="-3.1353200" lon="37.3716300">
    <ele>3716.3</ele>
    <time>2026-06-23T11:23:29Z</time>
   </trkpt>
   <trkpt lat="-3.1353290" lon="37.3716330">
    <ele>3716.1</ele>
    <time>2026-06-23T11:23:30Z</time>
   </trkpt>
   <trkpt lat="-3.1353390" lon="37.3716320">
    <ele>3715.9</ele>
    <time>2026-06-23T11:23:31Z</time>
   </trkpt>
   <trkpt lat="-3.1353450" lon="37.3716310">
    <ele>3715.7</ele>
    <time>2026-06-23T11:23:32Z</time>
   </trkpt>
   <trkpt lat="-3.1353530" lon="37.3716280">
    <ele>3715.5</ele>
    <time>2026-06-23T11:23:33Z</time>
   </trkpt>
   <trkpt lat="-3.1353610" lon="37.3716220">
    <ele>3715.3</ele>
    <time>2026-06-23T11:23:34Z</time>
   </trkpt>
   <trkpt lat="-3.1353660" lon="37.3716190">
    <ele>3715.1</ele>
    <time>2026-06-23T11:23:35Z</time>
   </trkpt>
   <trkpt lat="-3.1353700" lon="37.3716190">
    <ele>3715.0</ele>
    <time>2026-06-23T11:23:36Z</time>
   </trkpt>
   <trkpt lat="-3.1353850" lon="37.3716240">
    <ele>3714.7</ele>
    <time>2026-06-23T11:23:37Z</time>
   </trkpt>
   <trkpt lat="-3.1353910" lon="37.3716280">
    <ele>3714.5</ele>
    <time>2026-06-23T11:23:38Z</time>
   </trkpt>
   <trkpt lat="-3.1353990" lon="37.3716300">
    <ele>3714.3</ele>
    <time>2026-06-23T11:23:39Z</time>
   </trkpt>
   <trkpt lat="-3.1354010" lon="37.3716340">
    <ele>3714.2</ele>
    <time>2026-06-23T11:23:40Z</time>
   </trkpt>
   <trkpt lat="-3.1354030" lon="37.3716420">
    <ele>3714.0</ele>
    <time>2026-06-23T11:23:41Z</time>
   </trkpt>
   <trkpt lat="-3.1354070" lon="37.3716490">
    <ele>3713.8</ele>
    <time>2026-06-23T11:23:42Z</time>
   </trkpt>
   <trkpt lat="-3.1354130" lon="37.3716550">
    <ele>3713.6</ele>
    <time>2026-06-23T11:23:43Z</time>
   </trkpt>
   <trkpt lat="-3.1354200" lon="37.3716580">
    <ele>3713.5</ele>
    <time>2026-06-23T11:23:44Z</time>
   </trkpt>
   <trkpt lat="-3.1354280" lon="37.3716600">
    <ele>3713.3</ele>
    <time>2026-06-23T11:23:45Z</time>
   </trkpt>
   <trkpt lat="-3.1354340" lon="37.3716620">
    <ele>3713.1</ele>
    <time>2026-06-23T11:23:46Z</time>
   </trkpt>
   <trkpt lat="-3.1354390" lon="37.3716660">
    <ele>3713.0</ele>
    <time>2026-06-23T11:23:47Z</time>
   </trkpt>
   <trkpt lat="-3.1354440" lon="37.3716690">
    <ele>3712.9</ele>
    <time>2026-06-23T11:23:48Z</time>
   </trkpt>
   <trkpt lat="-3.1354460" lon="37.3716730">
    <ele>3712.8</ele>
    <time>2026-06-23T11:23:49Z</time>
   </trkpt>
   <trkpt lat="-3.1354520" lon="37.3716770">
    <ele>3712.6</ele>
    <time>2026-06-23T11:23:50Z</time>
   </trkpt>
   <trkpt lat="-3.1354560" lon="37.3716830">
    <ele>3712.5</ele>
    <time>2026-06-23T11:23:51Z</time>
   </trkpt>
   <trkpt lat="-3.1354650" lon="37.3716880">
    <ele>3712.2</ele>
    <time>2026-06-23T11:23:52Z</time>
   </trkpt>
   <trkpt lat="-3.1354770" lon="37.3716860">
    <ele>3712.0</ele>
    <time>2026-06-23T11:23:53Z</time>
   </trkpt>
   <trkpt lat="-3.1354880" lon="37.3716800">
    <ele>3711.7</ele>
    <time>2026-06-23T11:23:54Z</time>
   </trkpt>
   <trkpt lat="-3.1354980" lon="37.3716730">
    <ele>3711.4</ele>
    <time>2026-06-23T11:23:55Z</time>
   </trkpt>
   <trkpt lat="-3.1355070" lon="37.3716700">
    <ele>3711.2</ele>
    <time>2026-06-23T11:23:56Z</time>
   </trkpt>
   <trkpt lat="-3.1355130" lon="37.3716660">
    <ele>3711.0</ele>
    <time>2026-06-23T11:23:57Z</time>
   </trkpt>
   <trkpt lat="-3.1355180" lon="37.3716640">
    <ele>3710.9</ele>
    <time>2026-06-23T11:23:58Z</time>
   </trkpt>
   <trkpt lat="-3.1355280" lon="37.3716600">
    <ele>3710.7</ele>
    <time>2026-06-23T11:23:59Z</time>
   </trkpt>
   <trkpt lat="-3.1355380" lon="37.3716550">
    <ele>3710.4</ele>
    <time>2026-06-23T11:24:00Z</time>
   </trkpt>
   <trkpt lat="-3.1355470" lon="37.3716480">
    <ele>3710.2</ele>
    <time>2026-06-23T11:24:01Z</time>
   </trkpt>
   <trkpt lat="-3.1355480" lon="37.3716450">
    <ele>3710.1</ele>
    <time>2026-06-23T11:24:02Z</time>
   </trkpt>
   <trkpt lat="-3.1355510" lon="37.3716420">
    <ele>3710.0</ele>
    <time>2026-06-23T11:24:03Z</time>
   </trkpt>
   <trkpt lat="-3.1355550" lon="37.3716380">
    <ele>3709.9</ele>
    <time>2026-06-23T11:24:04Z</time>
   </trkpt>
   <trkpt lat="-3.1355640" lon="37.3716340">
    <ele>3709.6</ele>
    <time>2026-06-23T11:24:05Z</time>
   </trkpt>
   <trkpt lat="-3.1355710" lon="37.3716320">
    <ele>3709.5</ele>
    <time>2026-06-23T11:24:06Z</time>
   </trkpt>
   <trkpt lat="-3.1355780" lon="37.3716340">
    <ele>3709.3</ele>
    <time>2026-06-23T11:24:07Z</time>
   </trkpt>
   <trkpt lat="-3.1355850" lon="37.3716350">
    <ele>3709.2</ele>
    <time>2026-06-23T11:24:08Z</time>
   </trkpt>
   <trkpt lat="-3.1355920" lon="37.3716350">
    <ele>3709.0</ele>
    <time>2026-06-23T11:24:09Z</time>
   </trkpt>
   <trkpt lat="-3.1356000" lon="37.3716390">
    <ele>3708.8</ele>
    <time>2026-06-23T11:24:10Z</time>
   </trkpt>
   <trkpt lat="-3.1356020" lon="37.3716440">
    <ele>3708.7</ele>
    <time>2026-06-23T11:24:11Z</time>
   </trkpt>
   <trkpt lat="-3.1356040" lon="37.3716510">
    <ele>3708.5</ele>
    <time>2026-06-23T11:24:12Z</time>
   </trkpt>
   <trkpt lat="-3.1356060" lon="37.3716580">
    <ele>3708.4</ele>
    <time>2026-06-23T11:24:13Z</time>
   </trkpt>
   <trkpt lat="-3.1356070" lon="37.3716580">
    <ele>3708.3</ele>
    <time>2026-06-23T11:24:14Z</time>
   </trkpt>
   <trkpt lat="-3.1356140" lon="37.3716600">
    <ele>3708.2</ele>
    <time>2026-06-23T11:24:15Z</time>
   </trkpt>
   <trkpt lat="-3.1356240" lon="37.3716620">
    <ele>3707.9</ele>
    <time>2026-06-23T11:24:16Z</time>
   </trkpt>
   <trkpt lat="-3.1356310" lon="37.3716670">
    <ele>3707.7</ele>
    <time>2026-06-23T11:24:17Z</time>
   </trkpt>
   <trkpt lat="-3.1356400" lon="37.3716690">
    <ele>3707.5</ele>
    <time>2026-06-23T11:24:18Z</time>
   </trkpt>
   <trkpt lat="-3.1356460" lon="37.3716710">
    <ele>3707.4</ele>
    <time>2026-06-23T11:24:19Z</time>
   </trkpt>
   <trkpt lat="-3.1356530" lon="37.3716690">
    <ele>3707.2</ele>
    <time>2026-06-23T11:24:20Z</time>
   </trkpt>
   <trkpt lat="-3.1356610" lon="37.3716630">
    <ele>3707.0</ele>
    <time>2026-06-23T11:24:21Z</time>
   </trkpt>
   <trkpt lat="-3.1356680" lon="37.3716580">
    <ele>3706.8</ele>
    <time>2026-06-23T11:24:22Z</time>
   </trkpt>
   <trkpt lat="-3.1356770" lon="37.3716550">
    <ele>3706.6</ele>
    <time>2026-06-23T11:24:23Z</time>
   </trkpt>
   <trkpt lat="-3.1356820" lon="37.3716560">
    <ele>3706.4</ele>
    <time>2026-06-23T11:24:24Z</time>
   </trkpt>
   <trkpt lat="-3.1356890" lon="37.3716560">
    <ele>3706.3</ele>
    <time>2026-06-23T11:24:25Z</time>
   </trkpt>
   <trkpt lat="-3.1356930" lon="37.3716580">
    <ele>3706.2</ele>
    <time>2026-06-23T11:24:26Z</time>
   </trkpt>
   <trkpt lat="-3.1356980" lon="37.3716590">
    <ele>3706.1</ele>
    <time>2026-06-23T11:24:27Z</time>
   </trkpt>
   <trkpt lat="-3.1357050" lon="37.3716580">
    <ele>3705.9</ele>
    <time>2026-06-23T11:24:28Z</time>
   </trkpt>
   <trkpt lat="-3.1357070" lon="37.3716570">
    <ele>3705.8</ele>
    <time>2026-06-23T11:24:29Z</time>
   </trkpt>
   <trkpt lat="-3.1357120" lon="37.3716570">
    <ele>3705.7</ele>
    <time>2026-06-23T11:24:30Z</time>
   </trkpt>
   <trkpt lat="-3.1357180" lon="37.3716560">
    <ele>3705.6</ele>
    <time>2026-06-23T11:24:31Z</time>
   </trkpt>
   <trkpt lat="-3.1357250" lon="37.3716560">
    <ele>3705.4</ele>
    <time>2026-06-23T11:24:32Z</time>
   </trkpt>
   <trkpt lat="-3.1357320" lon="37.3716580">
    <ele>3705.2</ele>
    <time>2026-06-23T11:24:33Z</time>
   </trkpt>
   <trkpt lat="-3.1357370" lon="37.3716620">
    <ele>3705.1</ele>
    <time>2026-06-23T11:24:34Z</time>
   </trkpt>
   <trkpt lat="-3.1357440" lon="37.3716640">
    <ele>3704.9</ele>
    <time>2026-06-23T11:24:35Z</time>
   </trkpt>
   <trkpt lat="-3.1357480" lon="37.3716680">
    <ele>3704.7</ele>
    <time>2026-06-23T11:24:36Z</time>
   </trkpt>
   <trkpt lat="-3.1357530" lon="37.3716700">
    <ele>3704.6</ele>
    <time>2026-06-23T11:24:37Z</time>
   </trkpt>
   <trkpt lat="-3.1357580" lon="37.3716750">
    <ele>3704.4</ele>
    <time>2026-06-23T11:24:38Z</time>
   </trkpt>
   <trkpt lat="-3.1357620" lon="37.3716810">
    <ele>3704.2</ele>
    <time>2026-06-23T11:24:39Z</time>
   </trkpt>
   <trkpt lat="-3.1357680" lon="37.3716840">
    <ele>3704.1</ele>
    <time>2026-06-23T11:24:40Z</time>
   </trkpt>
   <trkpt lat="-3.1357740" lon="37.3716810">
    <ele>3703.9</ele>
    <time>2026-06-23T11:24:41Z</time>
   </trkpt>
   <trkpt lat="-3.1357840" lon="37.3716750">
    <ele>3703.6</ele>
    <time>2026-06-23T11:24:42Z</time>
   </trkpt>
   <trkpt lat="-3.1357890" lon="37.3716660">
    <ele>3703.4</ele>
    <time>2026-06-23T11:24:43Z</time>
   </trkpt>
   <trkpt lat="-3.1357940" lon="37.3716560">
    <ele>3703.1</ele>
    <time>2026-06-23T11:24:44Z</time>
   </trkpt>
   <trkpt lat="-3.1357970" lon="37.3716470">
    <ele>3702.8</ele>
    <time>2026-06-23T11:24:45Z</time>
   </trkpt>
   <trkpt lat="-3.1358010" lon="37.3716450">
    <ele>3702.7</ele>
    <time>2026-06-23T11:24:46Z</time>
   </trkpt>
   <trkpt lat="-3.1358070" lon="37.3716460">
    <ele>3702.6</ele>
    <time>2026-06-23T11:24:47Z</time>
   </trkpt>
   <trkpt lat="-3.1358110" lon="37.3716500">
    <ele>3702.4</ele>
    <time>2026-06-23T11:24:48Z</time>
   </trkpt>
   <trkpt lat="-3.1358150" lon="37.3716550">
    <ele>3702.2</ele>
    <time>2026-06-23T11:24:49Z</time>
   </trkpt>
   <trkpt lat="-3.1358200" lon="37.3716620">
    <ele>3702.0</ele>
    <time>2026-06-23T11:24:50Z</time>
   </trkpt>
   <trkpt lat="-3.1358250" lon="37.3716720">
    <ele>3701.7</ele>
    <time>2026-06-23T11:24:51Z</time>
   </trkpt>
   <trkpt lat="-3.1358280" lon="37.3716800">
    <ele>3701.5</ele>
    <time>2026-06-23T11:24:52Z</time>
   </trkpt>
   <trkpt lat="-3.1358320" lon="37.3716820">
    <ele>3701.4</ele>
    <time>2026-06-23T11:24:53Z</time>
   </trkpt>
   <trkpt lat="-3.1358370" lon="37.3716790">
    <ele>3701.2</ele>
    <time>2026-06-23T11:24:54Z</time>
   </trkpt>
   <trkpt lat="-3.1358470" lon="37.3716750">
    <ele>3700.9</ele>
    <time>2026-06-23T11:24:55Z</time>
   </trkpt>
   <trkpt lat="-3.1358550" lon="37.3716660">
    <ele>3700.6</ele>
    <time>2026-06-23T11:24:56Z</time>
   </trkpt>
   <trkpt lat="-3.1358600" lon="37.3716600">
    <ele>3700.4</ele>
    <time>2026-06-23T11:24:57Z</time>
   </trkpt>
   <trkpt lat="-3.1358650" lon="37.3716560">
    <ele>3700.2</ele>
    <time>2026-06-23T11:24:58Z</time>
   </trkpt>
   <trkpt lat="-3.1358730" lon="37.3716540">
    <ele>3700.0</ele>
    <time>2026-06-23T11:24:59Z</time>
   </trkpt>
   <trkpt lat="-3.1358820" lon="37.3716530">
    <ele>3699.8</ele>
    <time>2026-06-23T11:25:00Z</time>
   </trkpt>
   <trkpt lat="-3.1358920" lon="37.3716530">
    <ele>3699.5</ele>
    <time>2026-06-23T11:25:01Z</time>
   </trkpt>
   <trkpt lat="-3.1358930" lon="37.3716580">
    <ele>3699.4</ele>
    <time>2026-06-23T11:25:02Z</time>
   </trkpt>
   <trkpt lat="-3.1358950" lon="37.3716640">
    <ele>3699.2</ele>
    <time>2026-06-23T11:25:03Z</time>
   </trkpt>
   <trkpt lat="-3.1358950" lon="37.3716670">
    <ele>3699.1</ele>
    <time>2026-06-23T11:25:04Z</time>
   </trkpt>
   <trkpt lat="-3.1359000" lon="37.3716740">
    <ele>3698.9</ele>
    <time>2026-06-23T11:25:05Z</time>
   </trkpt>
   <trkpt lat="-3.1359040" lon="37.3716770">
    <ele>3698.8</ele>
    <time>2026-06-23T11:25:07Z</time>
   </trkpt>
   <trkpt lat="-3.1359050" lon="37.3716790">
    <ele>3698.7</ele>
    <time>2026-06-23T11:25:08Z</time>
   </trkpt>
   <trkpt lat="-3.1359090" lon="37.3716830">
    <ele>3698.6</ele>
    <time>2026-06-23T11:25:09Z</time>
   </trkpt>
   <trkpt lat="-3.1359140" lon="37.3716890">
    <ele>3698.4</ele>
    <time>2026-06-23T11:25:10Z</time>
   </trkpt>
   <trkpt lat="-3.1359210" lon="37.3716950">
    <ele>3698.1</ele>
    <time>2026-06-23T11:25:11Z</time>
   </trkpt>
   <trkpt lat="-3.1359220" lon="37.3716970">
    <ele>3698.1</ele>
    <time>2026-06-23T11:25:12Z</time>
   </trkpt>
   <trkpt lat="-3.1359290" lon="37.3716990">
    <ele>3697.9</ele>
    <time>2026-06-23T11:25:13Z</time>
   </trkpt>
   <trkpt lat="-3.1359360" lon="37.3716970">
    <ele>3697.7</ele>
    <time>2026-06-23T11:25:14Z</time>
   </trkpt>
   <trkpt lat="-3.1359480" lon="37.3716940">
    <ele>3697.4</ele>
    <time>2026-06-23T11:25:15Z</time>
   </trkpt>
   <trkpt lat="-3.1359550" lon="37.3716910">
    <ele>3697.2</ele>
    <time>2026-06-23T11:25:16Z</time>
   </trkpt>
   <trkpt lat="-3.1359630" lon="37.3716940">
    <ele>3697.0</ele>
    <time>2026-06-23T11:25:17Z</time>
   </trkpt>
   <trkpt lat="-3.1359710" lon="37.3716950">
    <ele>3696.8</ele>
    <time>2026-06-23T11:25:18Z</time>
   </trkpt>
   <trkpt lat="-3.1359770" lon="37.3716950">
    <ele>3696.6</ele>
    <time>2026-06-23T11:25:19Z</time>
   </trkpt>
   <trkpt lat="-3.1359840" lon="37.3716960">
    <ele>3696.5</ele>
    <time>2026-06-23T11:25:20Z</time>
   </trkpt>
   <trkpt lat="-3.1359930" lon="37.3716970">
    <ele>3696.3</ele>
    <time>2026-06-23T11:25:21Z</time>
   </trkpt>
   <trkpt lat="-3.1360010" lon="37.3716970">
    <ele>3696.1</ele>
    <time>2026-06-23T11:25:22Z</time>
   </trkpt>
   <trkpt lat="-3.1360020" lon="37.3716920">
    <ele>3696.0</ele>
    <time>2026-06-23T11:25:23Z</time>
   </trkpt>
   <trkpt lat="-3.1360110" lon="37.3716840">
    <ele>3695.7</ele>
    <time>2026-06-23T11:25:24Z</time>
   </trkpt>
   <trkpt lat="-3.1360170" lon="37.3716770">
    <ele>3695.5</ele>
    <time>2026-06-23T11:25:25Z</time>
   </trkpt>
   <trkpt lat="-3.1360240" lon="37.3716730">
    <ele>3695.3</ele>
    <time>2026-06-23T11:25:26Z</time>
   </trkpt>
   <trkpt lat="-3.1360340" lon="37.3716700">
    <ele>3695.0</ele>
    <time>2026-06-23T11:25:27Z</time>
   </trkpt>
   <trkpt lat="-3.1360400" lon="37.3716710">
    <ele>3694.9</ele>
    <time>2026-06-23T11:25:28Z</time>
   </trkpt>
   <trkpt lat="-3.1360520" lon="37.3716710">
    <ele>3694.6</ele>
    <time>2026-06-23T11:25:29Z</time>
   </trkpt>
   <trkpt lat="-3.1360600" lon="37.3716710">
    <ele>3694.5</ele>
    <time>2026-06-23T11:25:30Z</time>
   </trkpt>
   <trkpt lat="-3.1360660" lon="37.3716720">
    <ele>3694.3</ele>
    <time>2026-06-23T11:25:31Z</time>
   </trkpt>
   <trkpt lat="-3.1360760" lon="37.3716660">
    <ele>3694.1</ele>
    <time>2026-06-23T11:25:32Z</time>
   </trkpt>
   <trkpt lat="-3.1360810" lon="37.3716600">
    <ele>3693.9</ele>
    <time>2026-06-23T11:25:33Z</time>
   </trkpt>
   <trkpt lat="-3.1360770" lon="37.3716600">
    <ele>3693.8</ele>
    <time>2026-06-23T11:25:34Z</time>
   </trkpt>
   <trkpt lat="-3.1360810" lon="37.3716600">
    <ele>3693.8</ele>
    <time>2026-06-23T11:25:35Z</time>
   </trkpt>
   <trkpt lat="-3.1360880" lon="37.3716610">
    <ele>3693.6</ele>
    <time>2026-06-23T11:25:36Z</time>
   </trkpt>
   <trkpt lat="-3.1360950" lon="37.3716640">
    <ele>3693.5</ele>
    <time>2026-06-23T11:25:37Z</time>
   </trkpt>
   <trkpt lat="-3.1361070" lon="37.3716620">
    <ele>3693.2</ele>
    <time>2026-06-23T11:25:38Z</time>
   </trkpt>
   <trkpt lat="-3.1361150" lon="37.3716620">
    <ele>3693.0</ele>
    <time>2026-06-23T11:25:39Z</time>
   </trkpt>
   <trkpt lat="-3.1361230" lon="37.3716620">
    <ele>3692.9</ele>
    <time>2026-06-23T11:25:40Z</time>
   </trkpt>
   <trkpt lat="-3.1361280" lon="37.3716610">
    <ele>3692.8</ele>
    <time>2026-06-23T11:25:41Z</time>
   </trkpt>
   <trkpt lat="-3.1361370" lon="37.3716610">
    <ele>3692.6</ele>
    <time>2026-06-23T11:25:42Z</time>
   </trkpt>
   <trkpt lat="-3.1361450" lon="37.3716600">
    <ele>3692.4</ele>
    <time>2026-06-23T11:25:43Z</time>
   </trkpt>
   <trkpt lat="-3.1361610" lon="37.3716600">
    <ele>3692.1</ele>
    <time>2026-06-23T11:25:44Z</time>
   </trkpt>
   <trkpt lat="-3.1361670" lon="37.3716630">
    <ele>3691.9</ele>
    <time>2026-06-23T11:25:45Z</time>
   </trkpt>
   <trkpt lat="-3.1361760" lon="37.3716630">
    <ele>3691.8</ele>
    <time>2026-06-23T11:25:46Z</time>
   </trkpt>
   <trkpt lat="-3.1361820" lon="37.3716590">
    <ele>3691.6</ele>
    <time>2026-06-23T11:25:47Z</time>
   </trkpt>
   <trkpt lat="-3.1361900" lon="37.3716530">
    <ele>3691.4</ele>
    <time>2026-06-23T11:25:48Z</time>
   </trkpt>
   <trkpt lat="-3.1361970" lon="37.3716470">
    <ele>3691.2</ele>
    <time>2026-06-23T11:25:49Z</time>
   </trkpt>
   <trkpt lat="-3.1362080" lon="37.3716420">
    <ele>3691.0</ele>
    <time>2026-06-23T11:25:50Z</time>
   </trkpt>
   <trkpt lat="-3.1362110" lon="37.3716350">
    <ele>3690.8</ele>
    <time>2026-06-23T11:25:51Z</time>
   </trkpt>
   <trkpt lat="-3.1362200" lon="37.3716270">
    <ele>3690.6</ele>
    <time>2026-06-23T11:25:52Z</time>
   </trkpt>
   <trkpt lat="-3.1362250" lon="37.3716220">
    <ele>3690.5</ele>
    <time>2026-06-23T11:25:53Z</time>
   </trkpt>
   <trkpt lat="-3.1362300" lon="37.3716160">
    <ele>3690.3</ele>
    <time>2026-06-23T11:25:54Z</time>
   </trkpt>
   <trkpt lat="-3.1362350" lon="37.3716130">
    <ele>3690.2</ele>
    <time>2026-06-23T11:25:55Z</time>
   </trkpt>
   <trkpt lat="-3.1362400" lon="37.3716110">
    <ele>3690.1</ele>
    <time>2026-06-23T11:25:56Z</time>
   </trkpt>
   <trkpt lat="-3.1362480" lon="37.3716080">
    <ele>3689.9</ele>
    <time>2026-06-23T11:25:57Z</time>
   </trkpt>
   <trkpt lat="-3.1362530" lon="37.3716090">
    <ele>3689.8</ele>
    <time>2026-06-23T11:25:58Z</time>
   </trkpt>
   <trkpt lat="-3.1362580" lon="37.3716130">
    <ele>3689.7</ele>
    <time>2026-06-23T11:25:59Z</time>
   </trkpt>
   <trkpt lat="-3.1362670" lon="37.3716190">
    <ele>3689.5</ele>
    <time>2026-06-23T11:26:00Z</time>
   </trkpt>
   <trkpt lat="-3.1362780" lon="37.3716280">
    <ele>3689.2</ele>
    <time>2026-06-23T11:26:01Z</time>
   </trkpt>
   <trkpt lat="-3.1362800" lon="37.3716330">
    <ele>3689.1</ele>
    <time>2026-06-23T11:26:02Z</time>
   </trkpt>
   <trkpt lat="-3.1362810" lon="37.3716380">
    <ele>3689.0</ele>
    <time>2026-06-23T11:26:03Z</time>
   </trkpt>
   <trkpt lat="-3.1362840" lon="37.3716400">
    <ele>3688.9</ele>
    <time>2026-06-23T11:26:04Z</time>
   </trkpt>
   <trkpt lat="-3.1362950" lon="37.3716410">
    <ele>3688.7</ele>
    <time>2026-06-23T11:26:05Z</time>
   </trkpt>
   <trkpt lat="-3.1363080" lon="37.3716440">
    <ele>3688.4</ele>
    <time>2026-06-23T11:26:06Z</time>
   </trkpt>
   <trkpt lat="-3.1363190" lon="37.3716460">
    <ele>3688.2</ele>
    <time>2026-06-23T11:26:07Z</time>
   </trkpt>
   <trkpt lat="-3.1363240" lon="37.3716520">
    <ele>3688.0</ele>
    <time>2026-06-23T11:26:08Z</time>
   </trkpt>
   <trkpt lat="-3.1363310" lon="37.3716580">
    <ele>3687.9</ele>
    <time>2026-06-23T11:26:09Z</time>
   </trkpt>
   <trkpt lat="-3.1363360" lon="37.3716670">
    <ele>3687.7</ele>
    <time>2026-06-23T11:26:10Z</time>
   </trkpt>
   <trkpt lat="-3.1363400" lon="37.3716730">
    <ele>3687.5</ele>
    <time>2026-06-23T11:26:11Z</time>
   </trkpt>
   <trkpt lat="-3.1363470" lon="37.3716770">
    <ele>3687.3</ele>
    <time>2026-06-23T11:26:12Z</time>
   </trkpt>
   <trkpt lat="-3.1363530" lon="37.3716790">
    <ele>3687.2</ele>
    <time>2026-06-23T11:26:13Z</time>
   </trkpt>
   <trkpt lat="-3.1363600" lon="37.3716810">
    <ele>3687.1</ele>
    <time>2026-06-23T11:26:14Z</time>
   </trkpt>
   <trkpt lat="-3.1363630" lon="37.3716830">
    <ele>3687.0</ele>
    <time>2026-06-23T11:26:15Z</time>
   </trkpt>
   <trkpt lat="-3.1363670" lon="37.3716890">
    <ele>3686.9</ele>
    <time>2026-06-23T11:26:16Z</time>
   </trkpt>
   <trkpt lat="-3.1363710" lon="37.3716970">
    <ele>3686.7</ele>
    <time>2026-06-23T11:26:17Z</time>
   </trkpt>
   <trkpt lat="-3.1363800" lon="37.3717080">
    <ele>3686.4</ele>
    <time>2026-06-23T11:26:18Z</time>
   </trkpt>
   <trkpt lat="-3.1363880" lon="37.3717100">
    <ele>3686.2</ele>
    <time>2026-06-23T11:26:19Z</time>
   </trkpt>
   <trkpt lat="-3.1363920" lon="37.3717130">
    <ele>3686.1</ele>
    <time>2026-06-23T11:26:20Z</time>
   </trkpt>
   <trkpt lat="-3.1363960" lon="37.3717200">
    <ele>3686.0</ele>
    <time>2026-06-23T11:26:21Z</time>
   </trkpt>
   <trkpt lat="-3.1364010" lon="37.3717280">
    <ele>3685.8</ele>
    <time>2026-06-23T11:26:22Z</time>
   </trkpt>
   <trkpt lat="-3.1364080" lon="37.3717310">
    <ele>3685.6</ele>
    <time>2026-06-23T11:26:23Z</time>
   </trkpt>
   <trkpt lat="-3.1364170" lon="37.3717340">
    <ele>3685.4</ele>
    <time>2026-06-23T11:26:24Z</time>
   </trkpt>
   <trkpt lat="-3.1364270" lon="37.3717400">
    <ele>3685.2</ele>
    <time>2026-06-23T11:26:25Z</time>
   </trkpt>
   <trkpt lat="-3.1364380" lon="37.3717460">
    <ele>3685.0</ele>
    <time>2026-06-23T11:26:26Z</time>
   </trkpt>
   <trkpt lat="-3.1364440" lon="37.3717480">
    <ele>3684.8</ele>
    <time>2026-06-23T11:26:27Z</time>
   </trkpt>
   <trkpt lat="-3.1364530" lon="37.3717480">
    <ele>3684.7</ele>
    <time>2026-06-23T11:26:28Z</time>
   </trkpt>
   <trkpt lat="-3.1364620" lon="37.3717470">
    <ele>3684.5</ele>
    <time>2026-06-23T11:26:29Z</time>
   </trkpt>
   <trkpt lat="-3.1364710" lon="37.3717420">
    <ele>3684.3</ele>
    <time>2026-06-23T11:26:30Z</time>
   </trkpt>
   <trkpt lat="-3.1364840" lon="37.3717370">
    <ele>3684.0</ele>
    <time>2026-06-23T11:26:31Z</time>
   </trkpt>
   <trkpt lat="-3.1364890" lon="37.3717330">
    <ele>3683.9</ele>
    <time>2026-06-23T11:26:32Z</time>
   </trkpt>
   <trkpt lat="-3.1364950" lon="37.3717290">
    <ele>3683.7</ele>
    <time>2026-06-23T11:26:33Z</time>
   </trkpt>
   <trkpt lat="-3.1365040" lon="37.3717320">
    <ele>3683.5</ele>
    <time>2026-06-23T11:26:34Z</time>
   </trkpt>
   <trkpt lat="-3.1365090" lon="37.3717400">
    <ele>3683.3</ele>
    <time>2026-06-23T11:26:35Z</time>
   </trkpt>
   <trkpt lat="-3.1365130" lon="37.3717490">
    <ele>3683.2</ele>
    <time>2026-06-23T11:26:36Z</time>
   </trkpt>
   <trkpt lat="-3.1365150" lon="37.3717530">
    <ele>3683.1</ele>
    <time>2026-06-23T11:26:37Z</time>
   </trkpt>
   <trkpt lat="-3.1365200" lon="37.3717510">
    <ele>3683.0</ele>
    <time>2026-06-23T11:26:38Z</time>
   </trkpt>
   <trkpt lat="-3.1365290" lon="37.3717500">
    <ele>3682.8</ele>
    <time>2026-06-23T11:26:39Z</time>
   </trkpt>
   <trkpt lat="-3.1365350" lon="37.3717490">
    <ele>3682.7</ele>
    <time>2026-06-23T11:26:40Z</time>
   </trkpt>
   <trkpt lat="-3.1365320" lon="37.3717490">
    <ele>3682.6</ele>
    <time>2026-06-23T11:26:41Z</time>
   </trkpt>
   <trkpt lat="-3.1365320" lon="37.3717530">
    <ele>3682.5</ele>
    <time>2026-06-23T11:26:42Z</time>
   </trkpt>
   <trkpt lat="-3.1365330" lon="37.3717520">
    <ele>3682.5</ele>
    <time>2026-06-23T11:26:43Z</time>
   </trkpt>
   <trkpt lat="-3.1365390" lon="37.3717530">
    <ele>3682.4</ele>
    <time>2026-06-23T11:26:44Z</time>
   </trkpt>
   <trkpt lat="-3.1365470" lon="37.3717520">
    <ele>3682.2</ele>
    <time>2026-06-23T11:26:45Z</time>
   </trkpt>
   <trkpt lat="-3.1365540" lon="37.3717520">
    <ele>3682.0</ele>
    <time>2026-06-23T11:26:46Z</time>
   </trkpt>
   <trkpt lat="-3.1365610" lon="37.3717510">
    <ele>3681.9</ele>
    <time>2026-06-23T11:26:47Z</time>
   </trkpt>
   <trkpt lat="-3.1365660" lon="37.3717490">
    <ele>3681.8</ele>
    <time>2026-06-23T11:26:48Z</time>
   </trkpt>
   <trkpt lat="-3.1365740" lon="37.3717450">
    <ele>3681.6</ele>
    <time>2026-06-23T11:26:49Z</time>
   </trkpt>
   <trkpt lat="-3.1365850" lon="37.3717380">
    <ele>3681.3</ele>
    <time>2026-06-23T11:26:50Z</time>
   </trkpt>
   <trkpt lat="-3.1365870" lon="37.3717390">
    <ele>3681.3</ele>
    <time>2026-06-23T11:26:51Z</time>
   </trkpt>
   <trkpt lat="-3.1365920" lon="37.3717450">
    <ele>3681.1</ele>
    <time>2026-06-23T11:26:52Z</time>
   </trkpt>
   <trkpt lat="-3.1365980" lon="37.3717550">
    <ele>3680.8</ele>
    <time>2026-06-23T11:26:53Z</time>
   </trkpt>
   <trkpt lat="-3.1366020" lon="37.3717630">
    <ele>3680.6</ele>
    <time>2026-06-23T11:26:54Z</time>
   </trkpt>
   <trkpt lat="-3.1366090" lon="37.3717670">
    <ele>3680.5</ele>
    <time>2026-06-23T11:26:55Z</time>
   </trkpt>
   <trkpt lat="-3.1366180" lon="37.3717690">
    <ele>3680.3</ele>
    <time>2026-06-23T11:26:56Z</time>
   </trkpt>
   <trkpt lat="-3.1366300" lon="37.3717630">
    <ele>3680.0</ele>
    <time>2026-06-23T11:26:57Z</time>
   </trkpt>
   <trkpt lat="-3.1366390" lon="37.3717610">
    <ele>3679.8</ele>
    <time>2026-06-23T11:26:58Z</time>
   </trkpt>
   <trkpt lat="-3.1366460" lon="37.3717590">
    <ele>3679.6</ele>
    <time>2026-06-23T11:26:59Z</time>
   </trkpt>
   <trkpt lat="-3.1366530" lon="37.3717570">
    <ele>3679.5</ele>
    <time>2026-06-23T11:27:00Z</time>
   </trkpt>
   <trkpt lat="-3.1366670" lon="37.3717550">
    <ele>3679.2</ele>
    <time>2026-06-23T11:27:01Z</time>
   </trkpt>
   <trkpt lat="-3.1366780" lon="37.3717550">
    <ele>3679.0</ele>
    <time>2026-06-23T11:27:02Z</time>
   </trkpt>
   <trkpt lat="-3.1366850" lon="37.3717540">
    <ele>3678.8</ele>
    <time>2026-06-23T11:27:03Z</time>
   </trkpt>
   <trkpt lat="-3.1366910" lon="37.3717500">
    <ele>3678.6</ele>
    <time>2026-06-23T11:27:04Z</time>
   </trkpt>
   <trkpt lat="-3.1366930" lon="37.3717470">
    <ele>3678.6</ele>
    <time>2026-06-23T11:27:05Z</time>
   </trkpt>
   <trkpt lat="-3.1366940" lon="37.3717460">
    <ele>3678.5</ele>
    <time>2026-06-23T11:27:06Z</time>
   </trkpt>
   <trkpt lat="-3.1366990" lon="37.3717430">
    <ele>3678.4</ele>
    <time>2026-06-23T11:27:07Z</time>
   </trkpt>
   <trkpt lat="-3.1367080" lon="37.3717390">
    <ele>3678.2</ele>
    <time>2026-06-23T11:27:08Z</time>
   </trkpt>
   <trkpt lat="-3.1367150" lon="37.3717330">
    <ele>3678.0</ele>
    <time>2026-06-23T11:27:09Z</time>
   </trkpt>
   <trkpt lat="-3.1367220" lon="37.3717260">
    <ele>3677.8</ele>
    <time>2026-06-23T11:27:10Z</time>
   </trkpt>
   <trkpt lat="-3.1367300" lon="37.3717210">
    <ele>3677.6</ele>
    <time>2026-06-23T11:27:11Z</time>
   </trkpt>
   <trkpt lat="-3.1367350" lon="37.3717170">
    <ele>3677.5</ele>
    <time>2026-06-23T11:27:13Z</time>
   </trkpt>
   <trkpt lat="-3.1367340" lon="37.3717160">
    <ele>3677.4</ele>
    <time>2026-06-23T11:27:14Z</time>
   </trkpt>
   <trkpt lat="-3.1367310" lon="37.3717190">
    <ele>3677.3</ele>
    <time>2026-06-23T11:27:15Z</time>
   </trkpt>
   <trkpt lat="-3.1367300" lon="37.3717180">
    <ele>3677.3</ele>
    <time>2026-06-23T11:27:16Z</time>
   </trkpt>
   <trkpt lat="-3.1367290" lon="37.3717180">
    <ele>3677.3</ele>
    <time>2026-06-23T11:27:17Z</time>
   </trkpt>
   <trkpt lat="-3.1367280" lon="37.3717190">
    <ele>3677.3</ele>
    <time>2026-06-23T11:27:18Z</time>
   </trkpt>
   <trkpt lat="-3.1367280" lon="37.3717190">
    <ele>3677.3</ele>
    <time>2026-06-23T11:27:19Z</time>
   </trkpt>
   <trkpt lat="-3.1367290" lon="37.3717180">
    <ele>3677.2</ele>
    <time>2026-06-23T11:27:20Z</time>
   </trkpt>
   <trkpt lat="-3.1367340" lon="37.3717170">
    <ele>3677.1</ele>
    <time>2026-06-23T11:27:21Z</time>
   </trkpt>
   <trkpt lat="-3.1367400" lon="37.3717160">
    <ele>3677.0</ele>
    <time>2026-06-23T11:27:22Z</time>
   </trkpt>
   <trkpt lat="-3.1367480" lon="37.3717150">
    <ele>3676.8</ele>
    <time>2026-06-23T11:27:23Z</time>
   </trkpt>
   <trkpt lat="-3.1367610" lon="37.3717140">
    <ele>3676.6</ele>
    <time>2026-06-23T11:27:24Z</time>
   </trkpt>
   <trkpt lat="-3.1367680" lon="37.3717110">
    <ele>3676.4</ele>
    <time>2026-06-23T11:27:25Z</time>
   </trkpt>
   <trkpt lat="-3.1367740" lon="37.3717090">
    <ele>3676.3</ele>
    <time>2026-06-23T11:27:26Z</time>
   </trkpt>
   <trkpt lat="-3.1367780" lon="37.3717040">
    <ele>3676.1</ele>
    <time>2026-06-23T11:27:27Z</time>
   </trkpt>
   <trkpt lat="-3.1367850" lon="37.3717000">
    <ele>3676.0</ele>
    <time>2026-06-23T11:27:28Z</time>
   </trkpt>
   <trkpt lat="-3.1367940" lon="37.3716970">
    <ele>3675.8</ele>
    <time>2026-06-23T11:27:29Z</time>
   </trkpt>
   <trkpt lat="-3.1368000" lon="37.3716990">
    <ele>3675.6</ele>
    <time>2026-06-23T11:27:30Z</time>
   </trkpt>
   <trkpt lat="-3.1368090" lon="37.3717000">
    <ele>3675.5</ele>
    <time>2026-06-23T11:27:31Z</time>
   </trkpt>
   <trkpt lat="-3.1368160" lon="37.3717000">
    <ele>3675.3</ele>
    <time>2026-06-23T11:27:32Z</time>
   </trkpt>
   <trkpt lat="-3.1368240" lon="37.3717000">
    <ele>3675.1</ele>
    <time>2026-06-23T11:27:33Z</time>
   </trkpt>
   <trkpt lat="-3.1368260" lon="37.3716940">
    <ele>3675.0</ele>
    <time>2026-06-23T11:27:34Z</time>
   </trkpt>
   <trkpt lat="-3.1368320" lon="37.3716900">
    <ele>3674.9</ele>
    <time>2026-06-23T11:27:35Z</time>
   </trkpt>
   <trkpt lat="-3.1368400" lon="37.3716870">
    <ele>3674.7</ele>
    <time>2026-06-23T11:27:36Z</time>
   </trkpt>
   <trkpt lat="-3.1368470" lon="37.3716880">
    <ele>3674.5</ele>
    <time>2026-06-23T11:27:37Z</time>
   </trkpt>
   <trkpt lat="-3.1368530" lon="37.3716910">
    <ele>3674.4</ele>
    <time>2026-06-23T11:27:38Z</time>
   </trkpt>
   <trkpt lat="-3.1368620" lon="37.3716960">
    <ele>3674.2</ele>
    <time>2026-06-23T11:27:39Z</time>
   </trkpt>
   <trkpt lat="-3.1368700" lon="37.3717010">
    <ele>3674.0</ele>
    <time>2026-06-23T11:27:40Z</time>
   </trkpt>
   <trkpt lat="-3.1368770" lon="37.3717050">
    <ele>3673.8</ele>
    <time>2026-06-23T11:27:41Z</time>
   </trkpt>
   <trkpt lat="-3.1368820" lon="37.3717050">
    <ele>3673.7</ele>
    <time>2026-06-23T11:27:42Z</time>
   </trkpt>
   <trkpt lat="-3.1368910" lon="37.3717060">
    <ele>3673.5</ele>
    <time>2026-06-23T11:27:43Z</time>
   </trkpt>
   <trkpt lat="-3.1368970" lon="37.3717060">
    <ele>3673.4</ele>
    <time>2026-06-23T11:27:44Z</time>
   </trkpt>
   <trkpt lat="-3.1368950" lon="37.3717090">
    <ele>3673.3</ele>
    <time>2026-06-23T11:27:45Z</time>
   </trkpt>
   <trkpt lat="-3.1368960" lon="37.3717090">
    <ele>3673.3</ele>
    <time>2026-06-23T11:27:46Z</time>
   </trkpt>
   <trkpt lat="-3.1368970" lon="37.3717080">
    <ele>3673.3</ele>
    <time>2026-06-23T11:27:47Z</time>
   </trkpt>
   <trkpt lat="-3.1368960" lon="37.3717090">
    <ele>3673.3</ele>
    <time>2026-06-23T11:27:48Z</time>
   </trkpt>
   <trkpt lat="-3.1369010" lon="37.3717100">
    <ele>3673.1</ele>
    <time>2026-06-23T11:27:49Z</time>
   </trkpt>
   <trkpt lat="-3.1369060" lon="37.3717120">
    <ele>3673.0</ele>
    <time>2026-06-23T11:27:50Z</time>
   </trkpt>
   <trkpt lat="-3.1369110" lon="37.3717130">
    <ele>3672.9</ele>
    <time>2026-06-23T11:27:51Z</time>
   </trkpt>
   <trkpt lat="-3.1369160" lon="37.3717170">
    <ele>3672.8</ele>
    <time>2026-06-23T11:27:52Z</time>
   </trkpt>
   <trkpt lat="-3.1369250" lon="37.3717160">
    <ele>3672.6</ele>
    <time>2026-06-23T11:27:53Z</time>
   </trkpt>
   <trkpt lat="-3.1369330" lon="37.3717170">
    <ele>3672.4</ele>
    <time>2026-06-23T11:27:54Z</time>
   </trkpt>
   <trkpt lat="-3.1369440" lon="37.3717170">
    <ele>3672.2</ele>
    <time>2026-06-23T11:27:55Z</time>
   </trkpt>
   <trkpt lat="-3.1369530" lon="37.3717140">
    <ele>3672.0</ele>
    <time>2026-06-23T11:27:56Z</time>
   </trkpt>
   <trkpt lat="-3.1369620" lon="37.3717110">
    <ele>3671.8</ele>
    <time>2026-06-23T11:27:57Z</time>
   </trkpt>
   <trkpt lat="-3.1369690" lon="37.3717090">
    <ele>3671.6</ele>
    <time>2026-06-23T11:27:58Z</time>
   </trkpt>
   <trkpt lat="-3.1369760" lon="37.3717080">
    <ele>3671.5</ele>
    <time>2026-06-23T11:27:59Z</time>
   </trkpt>
   <trkpt lat="-3.1369880" lon="37.3717040">
    <ele>3671.2</ele>
    <time>2026-06-23T11:28:00Z</time>
   </trkpt>
   <trkpt lat="-3.1369940" lon="37.3717010">
    <ele>3671.0</ele>
    <time>2026-06-23T11:28:01Z</time>
   </trkpt>
   <trkpt lat="-3.1369950" lon="37.3716950">
    <ele>3670.9</ele>
    <time>2026-06-23T11:28:02Z</time>
   </trkpt>
   <trkpt lat="-3.1369980" lon="37.3716860">
    <ele>3670.6</ele>
    <time>2026-06-23T11:28:03Z</time>
   </trkpt>
   <trkpt lat="-3.1370040" lon="37.3716740">
    <ele>3670.3</ele>
    <time>2026-06-23T11:28:04Z</time>
   </trkpt>
   <trkpt lat="-3.1370070" lon="37.3716710">
    <ele>3670.2</ele>
    <time>2026-06-23T11:28:05Z</time>
   </trkpt>
   <trkpt lat="-3.1370110" lon="37.3716630">
    <ele>3670.0</ele>
    <time>2026-06-23T11:28:06Z</time>
   </trkpt>
   <trkpt lat="-3.1370160" lon="37.3716640">
    <ele>3669.9</ele>
    <time>2026-06-23T11:28:07Z</time>
   </trkpt>
   <trkpt lat="-3.1370210" lon="37.3716660">
    <ele>3669.8</ele>
    <time>2026-06-23T11:28:08Z</time>
   </trkpt>
   <trkpt lat="-3.1370270" lon="37.3716720">
    <ele>3669.6</ele>
    <time>2026-06-23T11:28:09Z</time>
   </trkpt>
   <trkpt lat="-3.1370330" lon="37.3716810">
    <ele>3669.3</ele>
    <time>2026-06-23T11:28:10Z</time>
   </trkpt>
   <trkpt lat="-3.1370400" lon="37.3716880">
    <ele>3669.1</ele>
    <time>2026-06-23T11:28:11Z</time>
   </trkpt>
   <trkpt lat="-3.1370460" lon="37.3716930">
    <ele>3668.9</ele>
    <time>2026-06-23T11:28:12Z</time>
   </trkpt>
   <trkpt lat="-3.1370510" lon="37.3716970">
    <ele>3668.7</ele>
    <time>2026-06-23T11:28:13Z</time>
   </trkpt>
   <trkpt lat="-3.1370590" lon="37.3717000">
    <ele>3668.5</ele>
    <time>2026-06-23T11:28:14Z</time>
   </trkpt>
   <trkpt lat="-3.1370640" lon="37.3717000">
    <ele>3668.4</ele>
    <time>2026-06-23T11:28:15Z</time>
   </trkpt>
   <trkpt lat="-3.1370740" lon="37.3717020">
    <ele>3668.1</ele>
    <time>2026-06-23T11:28:16Z</time>
   </trkpt>
   <trkpt lat="-3.1370780" lon="37.3717050">
    <ele>3668.0</ele>
    <time>2026-06-23T11:28:17Z</time>
   </trkpt>
   <trkpt lat="-3.1370840" lon="37.3717100">
    <ele>3667.8</ele>
    <time>2026-06-23T11:28:18Z</time>
   </trkpt>
   <trkpt lat="-3.1370900" lon="37.3717150">
    <ele>3667.6</ele>
    <time>2026-06-23T11:28:19Z</time>
   </trkpt>
   <trkpt lat="-3.1370970" lon="37.3717130">
    <ele>3667.4</ele>
    <time>2026-06-23T11:28:20Z</time>
   </trkpt>
   <trkpt lat="-3.1371000" lon="37.3717050">
    <ele>3667.2</ele>
    <time>2026-06-23T11:28:21Z</time>
   </trkpt>
   <trkpt lat="-3.1371080" lon="37.3716960">
    <ele>3666.9</ele>
    <time>2026-06-23T11:28:22Z</time>
   </trkpt>
   <trkpt lat="-3.1371160" lon="37.3716920">
    <ele>3666.7</ele>
    <time>2026-06-23T11:28:23Z</time>
   </trkpt>
   <trkpt lat="-3.1371240" lon="37.3716910">
    <ele>3666.5</ele>
    <time>2026-06-23T11:28:24Z</time>
   </trkpt>
   <trkpt lat="-3.1371290" lon="37.3716910">
    <ele>3666.4</ele>
    <time>2026-06-23T11:28:25Z</time>
   </trkpt>
   <trkpt lat="-3.1371360" lon="37.3716930">
    <ele>3666.2</ele>
    <time>2026-06-23T11:28:26Z</time>
   </trkpt>
   <trkpt lat="-3.1371500" lon="37.3716910">
    <ele>3665.8</ele>
    <time>2026-06-23T11:28:27Z</time>
   </trkpt>
   <trkpt lat="-3.1371560" lon="37.3716920">
    <ele>3665.7</ele>
    <time>2026-06-23T11:28:28Z</time>
   </trkpt>
   <trkpt lat="-3.1371570" lon="37.3716980">
    <ele>3665.5</ele>
    <time>2026-06-23T11:28:29Z</time>
   </trkpt>
   <trkpt lat="-3.1371630" lon="37.3717070">
    <ele>3665.2</ele>
    <time>2026-06-23T11:28:30Z</time>
   </trkpt>
   <trkpt lat="-3.1371620" lon="37.3717160">
    <ele>3665.0</ele>
    <time>2026-06-23T11:28:31Z</time>
   </trkpt>
   <trkpt lat="-3.1371620" lon="37.3717200">
    <ele>3664.9</ele>
    <time>2026-06-23T11:28:32Z</time>
   </trkpt>
   <trkpt lat="-3.1371670" lon="37.3717260">
    <ele>3664.7</ele>
    <time>2026-06-23T11:28:33Z</time>
   </trkpt>
   <trkpt lat="-3.1371740" lon="37.3717310">
    <ele>3664.5</ele>
    <time>2026-06-23T11:28:34Z</time>
   </trkpt>
   <trkpt lat="-3.1371820" lon="37.3717320">
    <ele>3664.2</ele>
    <time>2026-06-23T11:28:35Z</time>
   </trkpt>
   <trkpt lat="-3.1371910" lon="37.3717300">
    <ele>3664.0</ele>
    <time>2026-06-23T11:28:36Z</time>
   </trkpt>
   <trkpt lat="-3.1371970" lon="37.3717290">
    <ele>3663.9</ele>
    <time>2026-06-23T11:28:37Z</time>
   </trkpt>
   <trkpt lat="-3.1372020" lon="37.3717330">
    <ele>3663.7</ele>
    <time>2026-06-23T11:28:38Z</time>
   </trkpt>
   <trkpt lat="-3.1372070" lon="37.3717390">
    <ele>3663.5</ele>
    <time>2026-06-23T11:28:39Z</time>
   </trkpt>
   <trkpt lat="-3.1372140" lon="37.3717450">
    <ele>3663.2</ele>
    <time>2026-06-23T11:28:40Z</time>
   </trkpt>
   <trkpt lat="-3.1372190" lon="37.3717440">
    <ele>3663.1</ele>
    <time>2026-06-23T11:28:41Z</time>
   </trkpt>
   <trkpt lat="-3.1372230" lon="37.3717420">
    <ele>3663.0</ele>
    <time>2026-06-23T11:28:42Z</time>
   </trkpt>
   <trkpt lat="-3.1372290" lon="37.3717370">
    <ele>3662.8</ele>
    <time>2026-06-23T11:28:43Z</time>
   </trkpt>
   <trkpt lat="-3.1372370" lon="37.3717310">
    <ele>3662.5</ele>
    <time>2026-06-23T11:28:44Z</time>
   </trkpt>
   <trkpt lat="-3.1372410" lon="37.3717250">
    <ele>3662.3</ele>
    <time>2026-06-23T11:28:45Z</time>
   </trkpt>
   <trkpt lat="-3.1372450" lon="37.3717240">
    <ele>3662.2</ele>
    <time>2026-06-23T11:28:46Z</time>
   </trkpt>
   <trkpt lat="-3.1372550" lon="37.3717220">
    <ele>3662.0</ele>
    <time>2026-06-23T11:28:47Z</time>
   </trkpt>
   <trkpt lat="-3.1372620" lon="37.3717240">
    <ele>3661.8</ele>
    <time>2026-06-23T11:28:48Z</time>
   </trkpt>
   <trkpt lat="-3.1372660" lon="37.3717290">
    <ele>3661.6</ele>
    <time>2026-06-23T11:28:49Z</time>
   </trkpt>
   <trkpt lat="-3.1372760" lon="37.3717350">
    <ele>3661.3</ele>
    <time>2026-06-23T11:28:50Z</time>
   </trkpt>
   <trkpt lat="-3.1372840" lon="37.3717380">
    <ele>3661.1</ele>
    <time>2026-06-23T11:28:51Z</time>
   </trkpt>
   <trkpt lat="-3.1372920" lon="37.3717400">
    <ele>3660.8</ele>
    <time>2026-06-23T11:28:52Z</time>
   </trkpt>
   <trkpt lat="-3.1372940" lon="37.3717390">
    <ele>3660.8</ele>
    <time>2026-06-23T11:28:53Z</time>
   </trkpt>
   <trkpt lat="-3.1373030" lon="37.3717400">
    <ele>3660.5</ele>
    <time>2026-06-23T11:28:54Z</time>
   </trkpt>
   <trkpt lat="-3.1373080" lon="37.3717430">
    <ele>3660.4</ele>
    <time>2026-06-23T11:28:55Z</time>
   </trkpt>
   <trkpt lat="-3.1373180" lon="37.3717440">
    <ele>3660.1</ele>
    <time>2026-06-23T11:28:56Z</time>
   </trkpt>
   <trkpt lat="-3.1373260" lon="37.3717450">
    <ele>3659.9</ele>
    <time>2026-06-23T11:28:57Z</time>
   </trkpt>
   <trkpt lat="-3.1373340" lon="37.3717430">
    <ele>3659.7</ele>
    <time>2026-06-23T11:28:58Z</time>
   </trkpt>
   <trkpt lat="-3.1373430" lon="37.3717400">
    <ele>3659.4</ele>
    <time>2026-06-23T11:28:59Z</time>
   </trkpt>
   <trkpt lat="-3.1373470" lon="37.3717370">
    <ele>3659.3</ele>
    <time>2026-06-23T11:29:00Z</time>
   </trkpt>
   <trkpt lat="-3.1373550" lon="37.3717340">
    <ele>3659.0</ele>
    <time>2026-06-23T11:29:01Z</time>
   </trkpt>
   <trkpt lat="-3.1373570" lon="37.3717330">
    <ele>3659.0</ele>
    <time>2026-06-23T11:29:02Z</time>
   </trkpt>
   <trkpt lat="-3.1373650" lon="37.3717350">
    <ele>3658.8</ele>
    <time>2026-06-23T11:29:03Z</time>
   </trkpt>
   <trkpt lat="-3.1373730" lon="37.3717370">
    <ele>3658.5</ele>
    <time>2026-06-23T11:29:04Z</time>
   </trkpt>
   <trkpt lat="-3.1373800" lon="37.3717390">
    <ele>3658.3</ele>
    <time>2026-06-23T11:29:05Z</time>
   </trkpt>
   <trkpt lat="-3.1373880" lon="37.3717380">
    <ele>3658.1</ele>
    <time>2026-06-23T11:29:06Z</time>
   </trkpt>
   <trkpt lat="-3.1373960" lon="37.3717370">
    <ele>3657.9</ele>
    <time>2026-06-23T11:29:07Z</time>
   </trkpt>
   <trkpt lat="-3.1374050" lon="37.3717350">
    <ele>3657.7</ele>
    <time>2026-06-23T11:29:08Z</time>
   </trkpt>
   <trkpt lat="-3.1374140" lon="37.3717350">
    <ele>3657.4</ele>
    <time>2026-06-23T11:29:09Z</time>
   </trkpt>
   <trkpt lat="-3.1374200" lon="37.3717310">
    <ele>3657.2</ele>
    <time>2026-06-23T11:29:10Z</time>
   </trkpt>
   <trkpt lat="-3.1374290" lon="37.3717280">
    <ele>3657.0</ele>
    <time>2026-06-23T11:29:11Z</time>
   </trkpt>
   <trkpt lat="-3.1374350" lon="37.3717220">
    <ele>3656.7</ele>
    <time>2026-06-23T11:29:12Z</time>
   </trkpt>
   <trkpt lat="-3.1374430" lon="37.3717180">
    <ele>3656.5</ele>
    <time>2026-06-23T11:29:13Z</time>
   </trkpt>
   <trkpt lat="-3.1374490" lon="37.3717190">
    <ele>3656.3</ele>
    <time>2026-06-23T11:29:14Z</time>
   </trkpt>
   <trkpt lat="-3.1374540" lon="37.3717210">
    <ele>3656.2</ele>
    <time>2026-06-23T11:29:15Z</time>
   </trkpt>
   <trkpt lat="-3.1374590" lon="37.3717250">
    <ele>3656.0</ele>
    <time>2026-06-23T11:29:16Z</time>
   </trkpt>
   <trkpt lat="-3.1374630" lon="37.3717280">
    <ele>3655.9</ele>
    <time>2026-06-23T11:29:17Z</time>
   </trkpt>
   <trkpt lat="-3.1374710" lon="37.3717300">
    <ele>3655.7</ele>
    <time>2026-06-23T11:29:19Z</time>
   </trkpt>
   <trkpt lat="-3.1374780" lon="37.3717290">
    <ele>3655.5</ele>
    <time>2026-06-23T11:29:20Z</time>
   </trkpt>
   <trkpt lat="-3.1374860" lon="37.3717300">
    <ele>3655.3</ele>
    <time>2026-06-23T11:29:21Z</time>
   </trkpt>
   <trkpt lat="-3.1374820" lon="37.3717350">
    <ele>3655.1</ele>
    <time>2026-06-23T11:29:22Z</time>
   </trkpt>
   <trkpt lat="-3.1374860" lon="37.3717400">
    <ele>3654.9</ele>
    <time>2026-06-23T11:29:23Z</time>
   </trkpt>
   <trkpt lat="-3.1374880" lon="37.3717460">
    <ele>3654.8</ele>
    <time>2026-06-23T11:29:24Z</time>
   </trkpt>
   <trkpt lat="-3.1374910" lon="37.3717540">
    <ele>3654.5</ele>
    <time>2026-06-23T11:29:25Z</time>
   </trkpt>
   <trkpt lat="-3.1374930" lon="37.3717550">
    <ele>3654.5</ele>
    <time>2026-06-23T11:29:26Z</time>
   </trkpt>
   <trkpt lat="-3.1375000" lon="37.3717590">
    <ele>3654.2</ele>
    <time>2026-06-23T11:29:27Z</time>
   </trkpt>
   <trkpt lat="-3.1375070" lon="37.3717610">
    <ele>3654.1</ele>
    <time>2026-06-23T11:29:28Z</time>
   </trkpt>
   <trkpt lat="-3.1375100" lon="37.3717620">
    <ele>3654.0</ele>
    <time>2026-06-23T11:29:29Z</time>
   </trkpt>
   <trkpt lat="-3.1375170" lon="37.3717640">
    <ele>3653.8</ele>
    <time>2026-06-23T11:29:30Z</time>
   </trkpt>
   <trkpt lat="-3.1375230" lon="37.3717650">
    <ele>3653.6</ele>
    <time>2026-06-23T11:29:31Z</time>
   </trkpt>
   <trkpt lat="-3.1375320" lon="37.3717660">
    <ele>3653.3</ele>
    <time>2026-06-23T11:29:32Z</time>
   </trkpt>
   <trkpt lat="-3.1375370" lon="37.3717670">
    <ele>3653.2</ele>
    <time>2026-06-23T11:29:33Z</time>
   </trkpt>
   <trkpt lat="-3.1375410" lon="37.3717690">
    <ele>3653.1</ele>
    <time>2026-06-23T11:29:34Z</time>
   </trkpt>
   <trkpt lat="-3.1375460" lon="37.3717720">
    <ele>3652.9</ele>
    <time>2026-06-23T11:29:35Z</time>
   </trkpt>
   <trkpt lat="-3.1375530" lon="37.3717750">
    <ele>3652.7</ele>
    <time>2026-06-23T11:29:36Z</time>
   </trkpt>
   <trkpt lat="-3.1375610" lon="37.3717750">
    <ele>3652.5</ele>
    <time>2026-06-23T11:29:37Z</time>
   </trkpt>
   <trkpt lat="-3.1375690" lon="37.3717740">
    <ele>3652.3</ele>
    <time>2026-06-23T11:29:38Z</time>
   </trkpt>
   <trkpt lat="-3.1375740" lon="37.3717760">
    <ele>3652.1</ele>
    <time>2026-06-23T11:29:39Z</time>
   </trkpt>
   <trkpt lat="-3.1375790" lon="37.3717780">
    <ele>3652.0</ele>
    <time>2026-06-23T11:29:40Z</time>
   </trkpt>
   <trkpt lat="-3.1375850" lon="37.3717800">
    <ele>3651.8</ele>
    <time>2026-06-23T11:29:41Z</time>
   </trkpt>
   <trkpt lat="-3.1375900" lon="37.3717800">
    <ele>3651.6</ele>
    <time>2026-06-23T11:29:42Z</time>
   </trkpt>
   <trkpt lat="-3.1375950" lon="37.3717800">
    <ele>3651.5</ele>
    <time>2026-06-23T11:29:43Z</time>
   </trkpt>
   <trkpt lat="-3.1375980" lon="37.3717810">
    <ele>3651.4</ele>
    <time>2026-06-23T11:29:44Z</time>
   </trkpt>
   <trkpt lat="-3.1376020" lon="37.3717830">
    <ele>3651.3</ele>
    <time>2026-06-23T11:29:45Z</time>
   </trkpt>
   <trkpt lat="-3.1376090" lon="37.3717840">
    <ele>3651.1</ele>
    <time>2026-06-23T11:29:46Z</time>
   </trkpt>
   <trkpt lat="-3.1376140" lon="37.3717870">
    <ele>3650.9</ele>
    <time>2026-06-23T11:29:47Z</time>
   </trkpt>
   <trkpt lat="-3.1376200" lon="37.3717920">
    <ele>3650.7</ele>
    <time>2026-06-23T11:29:48Z</time>
   </trkpt>
   <trkpt lat="-3.1376250" lon="37.3717950">
    <ele>3650.6</ele>
    <time>2026-06-23T11:29:49Z</time>
   </trkpt>
   <trkpt lat="-3.1376270" lon="37.3717960">
    <ele>3650.5</ele>
    <time>2026-06-23T11:29:50Z</time>
   </trkpt>
   <trkpt lat="-3.1376300" lon="37.3717990">
    <ele>3650.4</ele>
    <time>2026-06-23T11:29:51Z</time>
   </trkpt>
   <trkpt lat="-3.1376380" lon="37.3718040">
    <ele>3650.1</ele>
    <time>2026-06-23T11:29:52Z</time>
   </trkpt>
   <trkpt lat="-3.1376420" lon="37.3718110">
    <ele>3649.9</ele>
    <time>2026-06-23T11:29:53Z</time>
   </trkpt>
   <trkpt lat="-3.1376480" lon="37.3718130">
    <ele>3649.7</ele>
    <time>2026-06-23T11:29:54Z</time>
   </trkpt>
   <trkpt lat="-3.1376500" lon="37.3718120">
    <ele>3649.7</ele>
    <time>2026-06-23T11:29:55Z</time>
   </trkpt>
   <trkpt lat="-3.1376550" lon="37.3718120">
    <ele>3649.5</ele>
    <time>2026-06-23T11:29:56Z</time>
   </trkpt>
   <trkpt lat="-3.1376590" lon="37.3718110">
    <ele>3649.4</ele>
    <time>2026-06-23T11:29:57Z</time>
   </trkpt>
   <trkpt lat="-3.1376640" lon="37.3718090">
    <ele>3649.2</ele>
    <time>2026-06-23T11:29:58Z</time>
   </trkpt>
   <trkpt lat="-3.1376680" lon="37.3718140">
    <ele>3649.1</ele>
    <time>2026-06-23T11:29:59Z</time>
   </trkpt>
   <trkpt lat="-3.1376690" lon="37.3718190">
    <ele>3648.9</ele>
    <time>2026-06-23T11:30:00Z</time>
   </trkpt>
   <trkpt lat="-3.1376700" lon="37.3718240">
    <ele>3648.8</ele>
    <time>2026-06-23T11:30:01Z</time>
   </trkpt>
   <trkpt lat="-3.1376700" lon="37.3718290">
    <ele>3648.6</ele>
    <time>2026-06-23T11:30:02Z</time>
   </trkpt>
   <trkpt lat="-3.1376690" lon="37.3718350">
    <ele>3648.5</ele>
    <time>2026-06-23T11:30:03Z</time>
   </trkpt>
   <trkpt lat="-3.1376680" lon="37.3718420">
    <ele>3648.3</ele>
    <time>2026-06-23T11:30:04Z</time>
   </trkpt>
   <trkpt lat="-3.1376690" lon="37.3718430">
    <ele>3648.2</ele>
    <time>2026-06-23T11:30:05Z</time>
   </trkpt>
   <trkpt lat="-3.1376740" lon="37.3718490">
    <ele>3648.0</ele>
    <time>2026-06-23T11:30:06Z</time>
   </trkpt>
   <trkpt lat="-3.1376770" lon="37.3718440">
    <ele>3647.8</ele>
    <time>2026-06-23T11:30:07Z</time>
   </trkpt>
   <trkpt lat="-3.1376860" lon="37.3718450">
    <ele>3647.6</ele>
    <time>2026-06-23T11:30:08Z</time>
   </trkpt>
   <trkpt lat="-3.1376850" lon="37.3718440">
    <ele>3647.5</ele>
    <time>2026-06-23T11:30:09Z</time>
   </trkpt>
   <trkpt lat="-3.1376860" lon="37.3718440">
    <ele>3647.5</ele>
    <time>2026-06-23T11:30:10Z</time>
   </trkpt>
   <trkpt lat="-3.1376950" lon="37.3718400">
    <ele>3647.2</ele>
    <time>2026-06-23T11:30:11Z</time>
   </trkpt>
   <trkpt lat="-3.1376980" lon="37.3718400">
    <ele>3647.1</ele>
    <time>2026-06-23T11:30:12Z</time>
   </trkpt>
   <trkpt lat="-3.1377020" lon="37.3718420">
    <ele>3647.0</ele>
    <time>2026-06-23T11:30:13Z</time>
   </trkpt>
   <trkpt lat="-3.1377110" lon="37.3718430">
    <ele>3646.7</ele>
    <time>2026-06-23T11:30:14Z</time>
   </trkpt>
   <trkpt lat="-3.1377180" lon="37.3718460">
    <ele>3646.5</ele>
    <time>2026-06-23T11:30:15Z</time>
   </trkpt>
   <trkpt lat="-3.1377200" lon="37.3718510">
    <ele>3646.4</ele>
    <time>2026-06-23T11:30:16Z</time>
   </trkpt>
   <trkpt lat="-3.1377220" lon="37.3718550">
    <ele>3646.3</ele>
    <time>2026-06-23T11:30:17Z</time>
   </trkpt>
   <trkpt lat="-3.1377220" lon="37.3718570">
    <ele>3646.2</ele>
    <time>2026-06-23T11:30:18Z</time>
   </trkpt>
   <trkpt lat="-3.1377270" lon="37.3718630">
    <ele>3646.0</ele>
    <time>2026-06-23T11:30:19Z</time>
   </trkpt>
   <trkpt lat="-3.1377290" lon="37.3718680">
    <ele>3645.8</ele>
    <time>2026-06-23T11:30:20Z</time>
   </trkpt>
   <trkpt lat="-3.1377340" lon="37.3718730">
    <ele>3645.6</ele>
    <time>2026-06-23T11:30:21Z</time>
   </trkpt>
   <trkpt lat="-3.1377400" lon="37.3718750">
    <ele>3645.4</ele>
    <time>2026-06-23T11:30:22Z</time>
   </trkpt>
   <trkpt lat="-3.1377450" lon="37.3718780">
    <ele>3645.3</ele>
    <time>2026-06-23T11:30:23Z</time>
   </trkpt>
   <trkpt lat="-3.1377510" lon="37.3718810">
    <ele>3645.1</ele>
    <time>2026-06-23T11:30:24Z</time>
   </trkpt>
   <trkpt lat="-3.1377530" lon="37.3718840">
    <ele>3645.0</ele>
    <time>2026-06-23T11:30:25Z</time>
   </trkpt>
   <trkpt lat="-3.1377580" lon="37.3718860">
    <ele>3644.8</ele>
    <time>2026-06-23T11:30:26Z</time>
   </trkpt>
   <trkpt lat="-3.1377640" lon="37.3718860">
    <ele>3644.7</ele>
    <time>2026-06-23T11:30:27Z</time>
   </trkpt>
   <trkpt lat="-3.1377680" lon="37.3718830">
    <ele>3644.5</ele>
    <time>2026-06-23T11:30:28Z</time>
   </trkpt>
   <trkpt lat="-3.1377740" lon="37.3718820">
    <ele>3644.3</ele>
    <time>2026-06-23T11:30:29Z</time>
   </trkpt>
   <trkpt lat="-3.1377780" lon="37.3718740">
    <ele>3644.1</ele>
    <time>2026-06-23T11:30:30Z</time>
   </trkpt>
   <trkpt lat="-3.1377870" lon="37.3718660">
    <ele>3643.7</ele>
    <time>2026-06-23T11:30:31Z</time>
   </trkpt>
   <trkpt lat="-3.1377910" lon="37.3718620">
    <ele>3643.6</ele>
    <time>2026-06-23T11:30:32Z</time>
   </trkpt>
   <trkpt lat="-3.1377930" lon="37.3718670">
    <ele>3643.4</ele>
    <time>2026-06-23T11:30:33Z</time>
   </trkpt>
   <trkpt lat="-3.1378060" lon="37.3718620">
    <ele>3643.0</ele>
    <time>2026-06-23T11:30:34Z</time>
   </trkpt>
   <trkpt lat="-3.1378150" lon="37.3718570">
    <ele>3642.7</ele>
    <time>2026-06-23T11:30:35Z</time>
   </trkpt>
   <trkpt lat="-3.1378170" lon="37.3718480">
    <ele>3642.5</ele>
    <time>2026-06-23T11:30:36Z</time>
   </trkpt>
   <trkpt lat="-3.1378230" lon="37.3718450">
    <ele>3642.3</ele>
    <time>2026-06-23T11:30:37Z</time>
   </trkpt>
   <trkpt lat="-3.1378300" lon="37.3718470">
    <ele>3642.1</ele>
    <time>2026-06-23T11:30:38Z</time>
   </trkpt>
   <trkpt lat="-3.1378370" lon="37.3718510">
    <ele>3641.8</ele>
    <time>2026-06-23T11:30:39Z</time>
   </trkpt>
   <trkpt lat="-3.1378420" lon="37.3718560">
    <ele>3641.6</ele>
    <time>2026-06-23T11:30:40Z</time>
   </trkpt>
   <trkpt lat="-3.1378470" lon="37.3718620">
    <ele>3641.4</ele>
    <time>2026-06-23T11:30:41Z</time>
   </trkpt>
   <trkpt lat="-3.1378480" lon="37.3718640">
    <ele>3641.4</ele>
    <time>2026-06-23T11:30:42Z</time>
   </trkpt>
   <trkpt lat="-3.1378530" lon="37.3718660">
    <ele>3641.2</ele>
    <time>2026-06-23T11:30:43Z</time>
   </trkpt>
   <trkpt lat="-3.1378590" lon="37.3718690">
    <ele>3641.0</ele>
    <time>2026-06-23T11:30:44Z</time>
   </trkpt>
   <trkpt lat="-3.1378670" lon="37.3718700">
    <ele>3640.8</ele>
    <time>2026-06-23T11:30:45Z</time>
   </trkpt>
   <trkpt lat="-3.1378780" lon="37.3718680">
    <ele>3640.5</ele>
    <time>2026-06-23T11:30:46Z</time>
   </trkpt>
   <trkpt lat="-3.1378840" lon="37.3718640">
    <ele>3640.3</ele>
    <time>2026-06-23T11:30:47Z</time>
   </trkpt>
   <trkpt lat="-3.1378900" lon="37.3718560">
    <ele>3640.0</ele>
    <time>2026-06-23T11:30:48Z</time>
   </trkpt>
   <trkpt lat="-3.1378980" lon="37.3718480">
    <ele>3639.7</ele>
    <time>2026-06-23T11:30:49Z</time>
   </trkpt>
   <trkpt lat="-3.1379030" lon="37.3718410">
    <ele>3639.5</ele>
    <time>2026-06-23T11:30:50Z</time>
   </trkpt>
   <trkpt lat="-3.1379050" lon="37.3718370">
    <ele>3639.3</ele>
    <time>2026-06-23T11:30:51Z</time>
   </trkpt>
   <trkpt lat="-3.1379070" lon="37.3718360">
    <ele>3639.3</ele>
    <time>2026-06-23T11:30:52Z</time>
   </trkpt>
   <trkpt lat="-3.1379180" lon="37.3718390">
    <ele>3639.0</ele>
    <time>2026-06-23T11:30:53Z</time>
   </trkpt>
   <trkpt lat="-3.1379220" lon="37.3718430">
    <ele>3638.8</ele>
    <time>2026-06-23T11:30:54Z</time>
   </trkpt>
   <trkpt lat="-3.1379300" lon="37.3718470">
    <ele>3638.6</ele>
    <time>2026-06-23T11:30:55Z</time>
   </trkpt>
   <trkpt lat="-3.1379320" lon="37.3718490">
    <ele>3638.5</ele>
    <time>2026-06-23T11:30:56Z</time>
   </trkpt>
   <trkpt lat="-3.1379380" lon="37.3718560">
    <ele>3638.2</ele>
    <time>2026-06-23T11:30:57Z</time>
   </trkpt>
   <trkpt lat="-3.1379460" lon="37.3718640">
    <ele>3637.9</ele>
    <time>2026-06-23T11:30:58Z</time>
   </trkpt>
   <trkpt lat="-3.1379520" lon="37.3718680">
    <ele>3637.7</ele>
    <time>2026-06-23T11:30:59Z</time>
   </trkpt>
   <trkpt lat="-3.1379590" lon="37.3718670">
    <ele>3637.5</ele>
    <time>2026-06-23T11:31:00Z</time>
   </trkpt>
   <trkpt lat="-3.1379670" lon="37.3718640">
    <ele>3637.3</ele>
    <time>2026-06-23T11:31:01Z</time>
   </trkpt>
   <trkpt lat="-3.1379760" lon="37.3718600">
    <ele>3637.1</ele>
    <time>2026-06-23T11:31:02Z</time>
   </trkpt>
   <trkpt lat="-3.1379850" lon="37.3718550">
    <ele>3636.8</ele>
    <time>2026-06-23T11:31:03Z</time>
   </trkpt>
   <trkpt lat="-3.1379900" lon="37.3718510">
    <ele>3636.6</ele>
    <time>2026-06-23T11:31:04Z</time>
   </trkpt>
   <trkpt lat="-3.1379930" lon="37.3718510">
    <ele>3636.5</ele>
    <time>2026-06-23T11:31:05Z</time>
   </trkpt>
   <trkpt lat="-3.1379950" lon="37.3718530">
    <ele>3636.5</ele>
    <time>2026-06-23T11:31:06Z</time>
   </trkpt>
   <trkpt lat="-3.1380020" lon="37.3718530">
    <ele>3636.3</ele>
    <time>2026-06-23T11:31:07Z</time>
   </trkpt>
   <trkpt lat="-3.1380040" lon="37.3718470">
    <ele>3636.1</ele>
    <time>2026-06-23T11:31:08Z</time>
   </trkpt>
   <trkpt lat="-3.1380110" lon="37.3718440">
    <ele>3635.9</ele>
    <time>2026-06-23T11:31:09Z</time>
   </trkpt>
   <trkpt lat="-3.1380170" lon="37.3718420">
    <ele>3635.8</ele>
    <time>2026-06-23T11:31:10Z</time>
   </trkpt>
   <trkpt lat="-3.1380150" lon="37.3718480">
    <ele>3635.6</ele>
    <time>2026-06-23T11:31:11Z</time>
   </trkpt>
   <trkpt lat="-3.1380230" lon="37.3718550">
    <ele>3635.3</ele>
    <time>2026-06-23T11:31:12Z</time>
   </trkpt>
   <trkpt lat="-3.1380290" lon="37.3718600">
    <ele>3635.1</ele>
    <time>2026-06-23T11:31:13Z</time>
   </trkpt>
   <trkpt lat="-3.1380350" lon="37.3718630">
    <ele>3634.9</ele>
    <time>2026-06-23T11:31:14Z</time>
   </trkpt>
   <trkpt lat="-3.1380400" lon="37.3718660">
    <ele>3634.8</ele>
    <time>2026-06-23T11:31:15Z</time>
   </trkpt>
   <trkpt lat="-3.1380420" lon="37.3718700">
    <ele>3634.7</ele>
    <time>2026-06-23T11:31:16Z</time>
   </trkpt>
   <trkpt lat="-3.1380470" lon="37.3718750">
    <ele>3634.5</ele>
    <time>2026-06-23T11:31:17Z</time>
   </trkpt>
   <trkpt lat="-3.1380530" lon="37.3718780">
    <ele>3634.3</ele>
    <time>2026-06-23T11:31:18Z</time>
   </trkpt>
   <trkpt lat="-3.1380600" lon="37.3718800">
    <ele>3634.1</ele>
    <time>2026-06-23T11:31:19Z</time>
   </trkpt>
   <trkpt lat="-3.1380670" lon="37.3718810">
    <ele>3633.9</ele>
    <time>2026-06-23T11:31:20Z</time>
   </trkpt>
   <trkpt lat="-3.1380700" lon="37.3718780">
    <ele>3633.8</ele>
    <time>2026-06-23T11:31:21Z</time>
   </trkpt>
   <trkpt lat="-3.1380730" lon="37.3718730">
    <ele>3633.7</ele>
    <time>2026-06-23T11:31:22Z</time>
   </trkpt>
   <trkpt lat="-3.1380810" lon="37.3718680">
    <ele>3633.4</ele>
    <time>2026-06-23T11:31:23Z</time>
   </trkpt>
   <trkpt lat="-3.1380860" lon="37.3718740">
    <ele>3633.3</ele>
    <time>2026-06-23T11:31:25Z</time>
   </trkpt>
   <trkpt lat="-3.1380990" lon="37.3718770">
    <ele>3632.9</ele>
    <time>2026-06-23T11:31:26Z</time>
   </trkpt>
   <trkpt lat="-3.1381070" lon="37.3718800">
    <ele>3632.7</ele>
    <time>2026-06-23T11:31:27Z</time>
   </trkpt>
   <trkpt lat="-3.1381100" lon="37.3718810">
    <ele>3632.6</ele>
    <time>2026-06-23T11:31:28Z</time>
   </trkpt>
   <trkpt lat="-3.1381170" lon="37.3718810">
    <ele>3632.5</ele>
    <time>2026-06-23T11:31:29Z</time>
   </trkpt>
   <trkpt lat="-3.1381290" lon="37.3718800">
    <ele>3632.2</ele>
    <time>2026-06-23T11:31:30Z</time>
   </trkpt>
   <trkpt lat="-3.1381330" lon="37.3718840">
    <ele>3632.0</ele>
    <time>2026-06-23T11:31:31Z</time>
   </trkpt>
   <trkpt lat="-3.1381350" lon="37.3718920">
    <ele>3631.8</ele>
    <time>2026-06-23T11:31:32Z</time>
   </trkpt>
   <trkpt lat="-3.1381350" lon="37.3719010">
    <ele>3631.6</ele>
    <time>2026-06-23T11:31:33Z</time>
   </trkpt>
   <trkpt lat="-3.1381410" lon="37.3719090">
    <ele>3631.4</ele>
    <time>2026-06-23T11:31:34Z</time>
   </trkpt>
   <trkpt lat="-3.1381450" lon="37.3719140">
    <ele>3631.2</ele>
    <time>2026-06-23T11:31:35Z</time>
   </trkpt>
   <trkpt lat="-3.1381540" lon="37.3719140">
    <ele>3631.0</ele>
    <time>2026-06-23T11:31:36Z</time>
   </trkpt>
   <trkpt lat="-3.1381630" lon="37.3719100">
    <ele>3630.7</ele>
    <time>2026-06-23T11:31:37Z</time>
   </trkpt>
   <trkpt lat="-3.1381720" lon="37.3719020">
    <ele>3630.5</ele>
    <time>2026-06-23T11:31:38Z</time>
   </trkpt>
   <trkpt lat="-3.1381810" lon="37.3718960">
    <ele>3630.2</ele>
    <time>2026-06-23T11:31:39Z</time>
   </trkpt>
   <trkpt lat="-3.1381870" lon="37.3718940">
    <ele>3630.1</ele>
    <time>2026-06-23T11:31:40Z</time>
   </trkpt>
   <trkpt lat="-3.1381910" lon="37.3718970">
    <ele>3629.9</ele>
    <time>2026-06-23T11:31:41Z</time>
   </trkpt>
   <trkpt lat="-3.1381980" lon="37.3719030">
    <ele>3629.7</ele>
    <time>2026-06-23T11:31:42Z</time>
   </trkpt>
   <trkpt lat="-3.1382010" lon="37.3719110">
    <ele>3629.6</ele>
    <time>2026-06-23T11:31:43Z</time>
   </trkpt>
   <trkpt lat="-3.1382050" lon="37.3719190">
    <ele>3629.4</ele>
    <time>2026-06-23T11:31:44Z</time>
   </trkpt>
   <trkpt lat="-3.1382050" lon="37.3719290">
    <ele>3629.1</ele>
    <time>2026-06-23T11:31:45Z</time>
   </trkpt>
   <trkpt lat="-3.1382080" lon="37.3719370">
    <ele>3629.0</ele>
    <time>2026-06-23T11:31:46Z</time>
   </trkpt>
   <trkpt lat="-3.1382130" lon="37.3719460">
    <ele>3628.7</ele>
    <time>2026-06-23T11:31:47Z</time>
   </trkpt>
   <trkpt lat="-3.1382220" lon="37.3719460">
    <ele>3628.5</ele>
    <time>2026-06-23T11:31:48Z</time>
   </trkpt>
   <trkpt lat="-3.1382300" lon="37.3719440">
    <ele>3628.4</ele>
    <time>2026-06-23T11:31:49Z</time>
   </trkpt>
   <trkpt lat="-3.1382380" lon="37.3719440">
    <ele>3628.2</ele>
    <time>2026-06-23T11:31:50Z</time>
   </trkpt>
   <trkpt lat="-3.1382450" lon="37.3719460">
    <ele>3628.0</ele>
    <time>2026-06-23T11:31:51Z</time>
   </trkpt>
   <trkpt lat="-3.1382470" lon="37.3719530">
    <ele>3627.9</ele>
    <time>2026-06-23T11:31:52Z</time>
   </trkpt>
   <trkpt lat="-3.1382490" lon="37.3719620">
    <ele>3627.7</ele>
    <time>2026-06-23T11:31:53Z</time>
   </trkpt>
   <trkpt lat="-3.1382520" lon="37.3719790">
    <ele>3627.3</ele>
    <time>2026-06-23T11:31:54Z</time>
   </trkpt>
   <trkpt lat="-3.1382560" lon="37.3719860">
    <ele>3627.1</ele>
    <time>2026-06-23T11:31:55Z</time>
   </trkpt>
   <trkpt lat="-3.1382600" lon="37.3719940">
    <ele>3626.9</ele>
    <time>2026-06-23T11:31:56Z</time>
   </trkpt>
   <trkpt lat="-3.1382650" lon="37.3720030">
    <ele>3626.7</ele>
    <time>2026-06-23T11:31:57Z</time>
   </trkpt>
   <trkpt lat="-3.1382700" lon="37.3720110">
    <ele>3626.5</ele>
    <time>2026-06-23T11:31:58Z</time>
   </trkpt>
   <trkpt lat="-3.1382810" lon="37.3720130">
    <ele>3626.2</ele>
    <time>2026-06-23T11:31:59Z</time>
   </trkpt>
   <trkpt lat="-3.1382940" lon="37.3720120">
    <ele>3625.9</ele>
    <time>2026-06-23T11:32:00Z</time>
   </trkpt>
   <trkpt lat="-3.1383080" lon="37.3720100">
    <ele>3625.6</ele>
    <time>2026-06-23T11:32:01Z</time>
   </trkpt>
   <trkpt lat="-3.1383170" lon="37.3720100">
    <ele>3625.4</ele>
    <time>2026-06-23T11:32:02Z</time>
   </trkpt>
   <trkpt lat="-3.1383270" lon="37.3720110">
    <ele>3625.2</ele>
    <time>2026-06-23T11:32:03Z</time>
   </trkpt>
   <trkpt lat="-3.1383340" lon="37.3720120">
    <ele>3625.1</ele>
    <time>2026-06-23T11:32:04Z</time>
   </trkpt>
   <trkpt lat="-3.1383360" lon="37.3720150">
    <ele>3625.0</ele>
    <time>2026-06-23T11:32:05Z</time>
   </trkpt>
   <trkpt lat="-3.1383450" lon="37.3720160">
    <ele>3624.8</ele>
    <time>2026-06-23T11:32:06Z</time>
   </trkpt>
   <trkpt lat="-3.1383520" lon="37.3720150">
    <ele>3624.6</ele>
    <time>2026-06-23T11:32:07Z</time>
   </trkpt>
   <trkpt lat="-3.1383630" lon="37.3720110">
    <ele>3624.4</ele>
    <time>2026-06-23T11:32:08Z</time>
   </trkpt>
   <trkpt lat="-3.1383740" lon="37.3720070">
    <ele>3624.1</ele>
    <time>2026-06-23T11:32:09Z</time>
   </trkpt>
   <trkpt lat="-3.1383830" lon="37.3720050">
    <ele>3623.9</ele>
    <time>2026-06-23T11:32:10Z</time>
   </trkpt>
   <trkpt lat="-3.1383890" lon="37.3720030">
    <ele>3623.8</ele>
    <time>2026-06-23T11:32:11Z</time>
   </trkpt>
   <trkpt lat="-3.1383930" lon="37.3720060">
    <ele>3623.7</ele>
    <time>2026-06-23T11:32:12Z</time>
   </trkpt>
   <trkpt lat="-3.1383980" lon="37.3720080">
    <ele>3623.5</ele>
    <time>2026-06-23T11:32:13Z</time>
   </trkpt>
   <trkpt lat="-3.1384020" lon="37.3720080">
    <ele>3623.4</ele>
    <time>2026-06-23T11:32:14Z</time>
   </trkpt>
   <trkpt lat="-3.1384100" lon="37.3720060">
    <ele>3623.3</ele>
    <time>2026-06-23T11:32:15Z</time>
   </trkpt>
   <trkpt lat="-3.1384190" lon="37.3720000">
    <ele>3623.0</ele>
    <time>2026-06-23T11:32:16Z</time>
   </trkpt>
   <trkpt lat="-3.1384310" lon="37.3719920">
    <ele>3622.7</ele>
    <time>2026-06-23T11:32:17Z</time>
   </trkpt>
   <trkpt lat="-3.1384380" lon="37.3719920">
    <ele>3622.5</ele>
    <time>2026-06-23T11:32:18Z</time>
   </trkpt>
   <trkpt lat="-3.1384470" lon="37.3719940">
    <ele>3622.3</ele>
    <time>2026-06-23T11:32:19Z</time>
   </trkpt>
   <trkpt lat="-3.1384490" lon="37.3719960">
    <ele>3622.2</ele>
    <time>2026-06-23T11:32:20Z</time>
   </trkpt>
   <trkpt lat="-3.1384540" lon="37.3719990">
    <ele>3622.1</ele>
    <time>2026-06-23T11:32:21Z</time>
   </trkpt>
   <trkpt lat="-3.1384640" lon="37.3720050">
    <ele>3621.8</ele>
    <time>2026-06-23T11:32:22Z</time>
   </trkpt>
   <trkpt lat="-3.1384670" lon="37.3720110">
    <ele>3621.7</ele>
    <time>2026-06-23T11:32:23Z</time>
   </trkpt>
   <trkpt lat="-3.1384730" lon="37.3720130">
    <ele>3621.5</ele>
    <time>2026-06-23T11:32:24Z</time>
   </trkpt>
   <trkpt lat="-3.1384820" lon="37.3720130">
    <ele>3621.3</ele>
    <time>2026-06-23T11:32:25Z</time>
   </trkpt>
   <trkpt lat="-3.1384930" lon="37.3720130">
    <ele>3621.1</ele>
    <time>2026-06-23T11:32:26Z</time>
   </trkpt>
   <trkpt lat="-3.1385000" lon="37.3720130">
    <ele>3620.9</ele>
    <time>2026-06-23T11:32:27Z</time>
   </trkpt>
   <trkpt lat="-3.1385080" lon="37.3720150">
    <ele>3620.7</ele>
    <time>2026-06-23T11:32:28Z</time>
   </trkpt>
   <trkpt lat="-3.1385120" lon="37.3720120">
    <ele>3620.6</ele>
    <time>2026-06-23T11:32:29Z</time>
   </trkpt>
   <trkpt lat="-3.1385230" lon="37.3720050">
    <ele>3620.3</ele>
    <time>2026-06-23T11:32:30Z</time>
   </trkpt>
   <trkpt lat="-3.1385340" lon="37.3719970">
    <ele>3620.0</ele>
    <time>2026-06-23T11:32:31Z</time>
   </trkpt>
   <trkpt lat="-3.1385390" lon="37.3719930">
    <ele>3619.9</ele>
    <time>2026-06-23T11:32:32Z</time>
   </trkpt>
   <trkpt lat="-3.1385460" lon="37.3719870">
    <ele>3619.7</ele>
    <time>2026-06-23T11:32:33Z</time>
   </trkpt>
   <trkpt lat="-3.1385550" lon="37.3719850">
    <ele>3619.4</ele>
    <time>2026-06-23T11:32:34Z</time>
   </trkpt>
   <trkpt lat="-3.1385590" lon="37.3719850">
    <ele>3619.4</ele>
    <time>2026-06-23T11:32:35Z</time>
   </trkpt>
   <trkpt lat="-3.1385690" lon="37.3719810">
    <ele>3619.1</ele>
    <time>2026-06-23T11:32:36Z</time>
   </trkpt>
   <trkpt lat="-3.1385730" lon="37.3719790">
    <ele>3619.0</ele>
    <time>2026-06-23T11:32:37Z</time>
   </trkpt>
   <trkpt lat="-3.1385830" lon="37.3719780">
    <ele>3618.8</ele>
    <time>2026-06-23T11:32:38Z</time>
   </trkpt>
   <trkpt lat="-3.1385890" lon="37.3719800">
    <ele>3618.6</ele>
    <time>2026-06-23T11:32:39Z</time>
   </trkpt>
   <trkpt lat="-3.1386000" lon="37.3719790">
    <ele>3618.4</ele>
    <time>2026-06-23T11:32:40Z</time>
   </trkpt>
   <trkpt lat="-3.1386110" lon="37.3719760">
    <ele>3618.1</ele>
    <time>2026-06-23T11:32:41Z</time>
   </trkpt>
   <trkpt lat="-3.1386180" lon="37.3719770">
    <ele>3618.0</ele>
    <time>2026-06-23T11:32:42Z</time>
   </trkpt>
   <trkpt lat="-3.1386250" lon="37.3719770">
    <ele>3617.8</ele>
    <time>2026-06-23T11:32:43Z</time>
   </trkpt>
   <trkpt lat="-3.1386330" lon="37.3719780">
    <ele>3617.6</ele>
    <time>2026-06-23T11:32:44Z</time>
   </trkpt>
   <trkpt lat="-3.1386400" lon="37.3719810">
    <ele>3617.5</ele>
    <time>2026-06-23T11:32:45Z</time>
   </trkpt>
   <trkpt lat="-3.1386470" lon="37.3719830">
    <ele>3617.3</ele>
    <time>2026-06-23T11:32:46Z</time>
   </trkpt>
   <trkpt lat="-3.1386540" lon="37.3719810">
    <ele>3617.2</ele>
    <time>2026-06-23T11:32:47Z</time>
   </trkpt>
   <trkpt lat="-3.1386630" lon="37.3719790">
    <ele>3616.9</ele>
    <time>2026-06-23T11:32:48Z</time>
   </trkpt>
   <trkpt lat="-3.1386740" lon="37.3719780">
    <ele>3616.7</ele>
    <time>2026-06-23T11:32:49Z</time>
   </trkpt>
   <trkpt lat="-3.1386820" lon="37.3719800">
    <ele>3616.5</ele>
    <time>2026-06-23T11:32:50Z</time>
   </trkpt>
   <trkpt lat="-3.1386890" lon="37.3719820">
    <ele>3616.4</ele>
    <time>2026-06-23T11:32:51Z</time>
   </trkpt>
   <trkpt lat="-3.1386960" lon="37.3719840">
    <ele>3616.2</ele>
    <time>2026-06-23T11:32:52Z</time>
   </trkpt>
   <trkpt lat="-3.1387030" lon="37.3719850">
    <ele>3616.0</ele>
    <time>2026-06-23T11:32:53Z</time>
   </trkpt>
   <trkpt lat="-3.1387140" lon="37.3719830">
    <ele>3615.8</ele>
    <time>2026-06-23T11:32:54Z</time>
   </trkpt>
   <trkpt lat="-3.1387200" lon="37.3719820">
    <ele>3615.6</ele>
    <time>2026-06-23T11:32:55Z</time>
   </trkpt>
   <trkpt lat="-3.1387260" lon="37.3719850">
    <ele>3615.5</ele>
    <time>2026-06-23T11:32:56Z</time>
   </trkpt>
   <trkpt lat="-3.1387320" lon="37.3719900">
    <ele>3615.3</ele>
    <time>2026-06-23T11:32:57Z</time>
   </trkpt>
   <trkpt lat="-3.1387380" lon="37.3719940">
    <ele>3615.2</ele>
    <time>2026-06-23T11:32:58Z</time>
   </trkpt>
   <trkpt lat="-3.1387430" lon="37.3719970">
    <ele>3615.0</ele>
    <time>2026-06-23T11:32:59Z</time>
   </trkpt>
   <trkpt lat="-3.1387510" lon="37.3719990">
    <ele>3614.8</ele>
    <time>2026-06-23T11:33:00Z</time>
   </trkpt>
   <trkpt lat="-3.1387580" lon="37.3720010">
    <ele>3614.7</ele>
    <time>2026-06-23T11:33:01Z</time>
   </trkpt>
   <trkpt lat="-3.1387650" lon="37.3720040">
    <ele>3614.5</ele>
    <time>2026-06-23T11:33:02Z</time>
   </trkpt>
   <trkpt lat="-3.1387720" lon="37.3720050">
    <ele>3614.4</ele>
    <time>2026-06-23T11:33:03Z</time>
   </trkpt>
   <trkpt lat="-3.1387830" lon="37.3720060">
    <ele>3614.1</ele>
    <time>2026-06-23T11:33:04Z</time>
   </trkpt>
   <trkpt lat="-3.1387880" lon="37.3720040">
    <ele>3614.0</ele>
    <time>2026-06-23T11:33:05Z</time>
   </trkpt>
   <trkpt lat="-3.1387950" lon="37.3720050">
    <ele>3613.8</ele>
    <time>2026-06-23T11:33:06Z</time>
   </trkpt>
   <trkpt lat="-3.1388020" lon="37.3720080">
    <ele>3613.7</ele>
    <time>2026-06-23T11:33:07Z</time>
   </trkpt>
   <trkpt lat="-3.1388080" lon="37.3720090">
    <ele>3613.5</ele>
    <time>2026-06-23T11:33:08Z</time>
   </trkpt>
   <trkpt lat="-3.1388140" lon="37.3720100">
    <ele>3613.4</ele>
    <time>2026-06-23T11:33:09Z</time>
   </trkpt>
   <trkpt lat="-3.1388210" lon="37.3720090">
    <ele>3613.2</ele>
    <time>2026-06-23T11:33:10Z</time>
   </trkpt>
   <trkpt lat="-3.1388270" lon="37.3720100">
    <ele>3613.1</ele>
    <time>2026-06-23T11:33:11Z</time>
   </trkpt>
   <trkpt lat="-3.1388370" lon="37.3720090">
    <ele>3612.9</ele>
    <time>2026-06-23T11:33:12Z</time>
   </trkpt>
   <trkpt lat="-3.1388460" lon="37.3720060">
    <ele>3612.7</ele>
    <time>2026-06-23T11:33:13Z</time>
   </trkpt>
   <trkpt lat="-3.1388550" lon="37.3720030">
    <ele>3612.5</ele>
    <time>2026-06-23T11:33:14Z</time>
   </trkpt>
   <trkpt lat="-3.1388650" lon="37.3719980">
    <ele>3612.2</ele>
    <time>2026-06-23T11:33:15Z</time>
   </trkpt>
   <trkpt lat="-3.1388680" lon="37.3719960">
    <ele>3612.1</ele>
    <time>2026-06-23T11:33:16Z</time>
   </trkpt>
   <trkpt lat="-3.1388770" lon="37.3719940">
    <ele>3611.9</ele>
    <time>2026-06-23T11:33:17Z</time>
   </trkpt>
   <trkpt lat="-3.1388800" lon="37.3719980">
    <ele>3611.8</ele>
    <time>2026-06-23T11:33:18Z</time>
   </trkpt>
   <trkpt lat="-3.1388850" lon="37.3720060">
    <ele>3611.6</ele>
    <time>2026-06-23T11:33:19Z</time>
   </trkpt>
   <trkpt lat="-3.1388870" lon="37.3720140">
    <ele>3611.5</ele>
    <time>2026-06-23T11:33:20Z</time>
   </trkpt>
   <trkpt lat="-3.1388920" lon="37.3720200">
    <ele>3611.3</ele>
    <time>2026-06-23T11:33:21Z</time>
   </trkpt>
   <trkpt lat="-3.1388960" lon="37.3720240">
    <ele>3611.2</ele>
    <time>2026-06-23T11:33:22Z</time>
   </trkpt>
   <trkpt lat="-3.1389020" lon="37.3720290">
    <ele>3611.0</ele>
    <time>2026-06-23T11:33:23Z</time>
   </trkpt>
   <trkpt lat="-3.1389070" lon="37.3720370">
    <ele>3610.8</ele>
    <time>2026-06-23T11:33:24Z</time>
   </trkpt>
   <trkpt lat="-3.1389090" lon="37.3720420">
    <ele>3610.7</ele>
    <time>2026-06-23T11:33:25Z</time>
   </trkpt>
   <trkpt lat="-3.1389150" lon="37.3720440">
    <ele>3610.6</ele>
    <time>2026-06-23T11:33:26Z</time>
   </trkpt>
   <trkpt lat="-3.1389250" lon="37.3720420">
    <ele>3610.3</ele>
    <time>2026-06-23T11:33:27Z</time>
   </trkpt>
   <trkpt lat="-3.1389360" lon="37.3720360">
    <ele>3610.1</ele>
    <time>2026-06-23T11:33:28Z</time>
   </trkpt>
   <trkpt lat="-3.1389450" lon="37.3720310">
    <ele>3609.9</ele>
    <time>2026-06-23T11:33:29Z</time>
   </trkpt>
   <trkpt lat="-3.1389520" lon="37.3720300">
    <ele>3609.7</ele>
    <time>2026-06-23T11:33:31Z</time>
   </trkpt>
   <trkpt lat="-3.1389630" lon="37.3720310">
    <ele>3609.5</ele>
    <time>2026-06-23T11:33:32Z</time>
   </trkpt>
   <trkpt lat="-3.1389700" lon="37.3720360">
    <ele>3609.3</ele>
    <time>2026-06-23T11:33:33Z</time>
   </trkpt>
   <trkpt lat="-3.1389770" lon="37.3720400">
    <ele>3609.2</ele>
    <time>2026-06-23T11:33:34Z</time>
   </trkpt>
   <trkpt lat="-3.1389830" lon="37.3720430">
    <ele>3609.0</ele>
    <time>2026-06-23T11:33:35Z</time>
   </trkpt>
   <trkpt lat="-3.1389880" lon="37.3720420">
    <ele>3608.9</ele>
    <time>2026-06-23T11:33:36Z</time>
   </trkpt>
   <trkpt lat="-3.1390010" lon="37.3720340">
    <ele>3608.6</ele>
    <time>2026-06-23T11:33:37Z</time>
   </trkpt>
   <trkpt lat="-3.1390080" lon="37.3720280">
    <ele>3608.4</ele>
    <time>2026-06-23T11:33:38Z</time>
   </trkpt>
   <trkpt lat="-3.1390140" lon="37.3720260">
    <ele>3608.3</ele>
    <time>2026-06-23T11:33:39Z</time>
   </trkpt>
   <trkpt lat="-3.1390200" lon="37.3720270">
    <ele>3608.2</ele>
    <time>2026-06-23T11:33:40Z</time>
   </trkpt>
   <trkpt lat="-3.1390290" lon="37.3720260">
    <ele>3608.0</ele>
    <time>2026-06-23T11:33:41Z</time>
   </trkpt>
   <trkpt lat="-3.1390370" lon="37.3720240">
    <ele>3607.8</ele>
    <time>2026-06-23T11:33:42Z</time>
   </trkpt>
   <trkpt lat="-3.1390460" lon="37.3720210">
    <ele>3607.6</ele>
    <time>2026-06-23T11:33:43Z</time>
   </trkpt>
   <trkpt lat="-3.1390540" lon="37.3720170">
    <ele>3607.4</ele>
    <time>2026-06-23T11:33:44Z</time>
   </trkpt>
   <trkpt lat="-3.1390640" lon="37.3720160">
    <ele>3607.2</ele>
    <time>2026-06-23T11:33:45Z</time>
   </trkpt>
   <trkpt lat="-3.1390720" lon="37.3720180">
    <ele>3607.1</ele>
    <time>2026-06-23T11:33:46Z</time>
   </trkpt>
   <trkpt lat="-3.1390780" lon="37.3720190">
    <ele>3606.9</ele>
    <time>2026-06-23T11:33:47Z</time>
   </trkpt>
   <trkpt lat="-3.1390800" lon="37.3720220">
    <ele>3606.9</ele>
    <time>2026-06-23T11:33:48Z</time>
   </trkpt>
   <trkpt lat="-3.1390820" lon="37.3720250">
    <ele>3606.8</ele>
    <time>2026-06-23T11:33:49Z</time>
   </trkpt>
   <trkpt lat="-3.1390870" lon="37.3720340">
    <ele>3606.6</ele>
    <time>2026-06-23T11:33:50Z</time>
   </trkpt>
   <trkpt lat="-3.1390900" lon="37.3720380">
    <ele>3606.5</ele>
    <time>2026-06-23T11:33:51Z</time>
   </trkpt>
   <trkpt lat="-3.1390940" lon="37.3720390">
    <ele>3606.4</ele>
    <time>2026-06-23T11:33:52Z</time>
   </trkpt>
   <trkpt lat="-3.1391040" lon="37.3720370">
    <ele>3606.2</ele>
    <time>2026-06-23T11:33:53Z</time>
   </trkpt>
   <trkpt lat="-3.1391140" lon="37.3720350">
    <ele>3606.0</ele>
    <time>2026-06-23T11:33:54Z</time>
   </trkpt>
   <trkpt lat="-3.1391230" lon="37.3720350">
    <ele>3605.8</ele>
    <time>2026-06-23T11:33:55Z</time>
   </trkpt>
   <trkpt lat="-3.1391350" lon="37.3720320">
    <ele>3605.5</ele>
    <time>2026-06-23T11:33:56Z</time>
   </trkpt>
   <trkpt lat="-3.1391390" lon="37.3720340">
    <ele>3605.4</ele>
    <time>2026-06-23T11:33:57Z</time>
   </trkpt>
   <trkpt lat="-3.1391410" lon="37.3720370">
    <ele>3605.4</ele>
    <time>2026-06-23T11:33:58Z</time>
   </trkpt>
   <trkpt lat="-3.1391460" lon="37.3720420">
    <ele>3605.2</ele>
    <time>2026-06-23T11:33:59Z</time>
   </trkpt>
   <trkpt lat="-3.1391480" lon="37.3720490">
    <ele>3605.0</ele>
    <time>2026-06-23T11:34:00Z</time>
   </trkpt>
   <trkpt lat="-3.1391470" lon="37.3720520">
    <ele>3605.0</ele>
    <time>2026-06-23T11:34:01Z</time>
   </trkpt>
   <trkpt lat="-3.1391490" lon="37.3720560">
    <ele>3604.9</ele>
    <time>2026-06-23T11:34:02Z</time>
   </trkpt>
   <trkpt lat="-3.1391560" lon="37.3720580">
    <ele>3604.7</ele>
    <time>2026-06-23T11:34:03Z</time>
   </trkpt>
   <trkpt lat="-3.1391640" lon="37.3720610">
    <ele>3604.5</ele>
    <time>2026-06-23T11:34:04Z</time>
   </trkpt>
   <trkpt lat="-3.1391720" lon="37.3720620">
    <ele>3604.4</ele>
    <time>2026-06-23T11:34:05Z</time>
   </trkpt>
   <trkpt lat="-3.1391700" lon="37.3720610">
    <ele>3604.3</ele>
    <time>2026-06-23T11:34:06Z</time>
   </trkpt>
   <trkpt lat="-3.1391860" lon="37.3720590">
    <ele>3604.0</ele>
    <time>2026-06-23T11:34:07Z</time>
   </trkpt>
   <trkpt lat="-3.1391910" lon="37.3720560">
    <ele>3603.8</ele>
    <time>2026-06-23T11:34:08Z</time>
   </trkpt>
   <trkpt lat="-3.1391970" lon="37.3720570">
    <ele>3603.7</ele>
    <time>2026-06-23T11:34:09Z</time>
   </trkpt>
   <trkpt lat="-3.1391980" lon="37.3720630">
    <ele>3603.6</ele>
    <time>2026-06-23T11:34:10Z</time>
   </trkpt>
   <trkpt lat="-3.1392080" lon="37.3720670">
    <ele>3603.3</ele>
    <time>2026-06-23T11:34:11Z</time>
   </trkpt>
   <trkpt lat="-3.1392080" lon="37.3720700">
    <ele>3603.3</ele>
    <time>2026-06-23T11:34:12Z</time>
   </trkpt>
   <trkpt lat="-3.1392070" lon="37.3720760">
    <ele>3603.1</ele>
    <time>2026-06-23T11:34:13Z</time>
   </trkpt>
   <trkpt lat="-3.1392100" lon="37.3720830">
    <ele>3603.0</ele>
    <time>2026-06-23T11:34:14Z</time>
   </trkpt>
   <trkpt lat="-3.1392150" lon="37.3720860">
    <ele>3602.9</ele>
    <time>2026-06-23T11:34:15Z</time>
   </trkpt>
   <trkpt lat="-3.1392210" lon="37.3720800">
    <ele>3602.7</ele>
    <time>2026-06-23T11:34:16Z</time>
   </trkpt>
   <trkpt lat="-3.1392330" lon="37.3720780">
    <ele>3602.4</ele>
    <time>2026-06-23T11:34:17Z</time>
   </trkpt>
   <trkpt lat="-3.1392380" lon="37.3720780">
    <ele>3602.3</ele>
    <time>2026-06-23T11:34:18Z</time>
   </trkpt>
   <trkpt lat="-3.1392460" lon="37.3720790">
    <ele>3602.1</ele>
    <time>2026-06-23T11:34:19Z</time>
   </trkpt>
   <trkpt lat="-3.1392480" lon="37.3720820">
    <ele>3602.0</ele>
    <time>2026-06-23T11:34:20Z</time>
   </trkpt>
   <trkpt lat="-3.1392520" lon="37.3720850">
    <ele>3601.9</ele>
    <time>2026-06-23T11:34:21Z</time>
   </trkpt>
   <trkpt lat="-3.1392570" lon="37.3720920">
    <ele>3601.7</ele>
    <time>2026-06-23T11:34:22Z</time>
   </trkpt>
   <trkpt lat="-3.1392620" lon="37.3720960">
    <ele>3601.6</ele>
    <time>2026-06-23T11:34:23Z</time>
   </trkpt>
   <trkpt lat="-3.1392710" lon="37.3721000">
    <ele>3601.3</ele>
    <time>2026-06-23T11:34:24Z</time>
   </trkpt>
   <trkpt lat="-3.1392780" lon="37.3721020">
    <ele>3601.2</ele>
    <time>2026-06-23T11:34:25Z</time>
   </trkpt>
   <trkpt lat="-3.1392810" lon="37.3721020">
    <ele>3601.1</ele>
    <time>2026-06-23T11:34:26Z</time>
   </trkpt>
   <trkpt lat="-3.1392880" lon="37.3721010">
    <ele>3601.0</ele>
    <time>2026-06-23T11:34:27Z</time>
   </trkpt>
   <trkpt lat="-3.1392940" lon="37.3720990">
    <ele>3600.8</ele>
    <time>2026-06-23T11:34:28Z</time>
   </trkpt>
   <trkpt lat="-3.1393020" lon="37.3720970">
    <ele>3600.6</ele>
    <time>2026-06-23T11:34:29Z</time>
   </trkpt>
   <trkpt lat="-3.1393070" lon="37.3720980">
    <ele>3600.5</ele>
    <time>2026-06-23T11:34:30Z</time>
   </trkpt>
   <trkpt lat="-3.1393150" lon="37.3721040">
    <ele>3600.3</ele>
    <time>2026-06-23T11:34:31Z</time>
   </trkpt>
   <trkpt lat="-3.1393170" lon="37.3721090">
    <ele>3600.2</ele>
    <time>2026-06-23T11:34:32Z</time>
   </trkpt>
   <trkpt lat="-3.1393230" lon="37.3721120">
    <ele>3600.0</ele>
    <time>2026-06-23T11:34:33Z</time>
   </trkpt>
   <trkpt lat="-3.1393330" lon="37.3721140">
    <ele>3599.8</ele>
    <time>2026-06-23T11:34:34Z</time>
   </trkpt>
   <trkpt lat="-3.1393400" lon="37.3721170">
    <ele>3599.6</ele>
    <time>2026-06-23T11:34:35Z</time>
   </trkpt>
   <trkpt lat="-3.1393450" lon="37.3721190">
    <ele>3599.4</ele>
    <time>2026-06-23T11:34:36Z</time>
   </trkpt>
   <trkpt lat="-3.1393540" lon="37.3721180">
    <ele>3599.2</ele>
    <time>2026-06-23T11:34:37Z</time>
   </trkpt>
   <trkpt lat="-3.1393590" lon="37.3721160">
    <ele>3599.1</ele>
    <time>2026-06-23T11:34:38Z</time>
   </trkpt>
   <trkpt lat="-3.1393620" lon="37.3721120">
    <ele>3599.0</ele>
    <time>2026-06-23T11:34:39Z</time>
   </trkpt>
   <trkpt lat="-3.1393620" lon="37.3721090">
    <ele>3598.9</ele>
    <time>2026-06-23T11:34:40Z</time>
   </trkpt>
   <trkpt lat="-3.1393640" lon="37.3721060">
    <ele>3598.8</ele>
    <time>2026-06-23T11:34:41Z</time>
   </trkpt>
   <trkpt lat="-3.1393680" lon="37.3721050">
    <ele>3598.7</ele>
    <time>2026-06-23T11:34:42Z</time>
   </trkpt>
   <trkpt lat="-3.1393750" lon="37.3721050">
    <ele>3598.6</ele>
    <time>2026-06-23T11:34:43Z</time>
   </trkpt>
   <trkpt lat="-3.1393840" lon="37.3721030">
    <ele>3598.3</ele>
    <time>2026-06-23T11:34:44Z</time>
   </trkpt>
   <trkpt lat="-3.1393900" lon="37.3721040">
    <ele>3598.2</ele>
    <time>2026-06-23T11:34:45Z</time>
   </trkpt>
   <trkpt lat="-3.1393930" lon="37.3721070">
    <ele>3598.1</ele>
    <time>2026-06-23T11:34:46Z</time>
   </trkpt>
   <trkpt lat="-3.1393980" lon="37.3721090">
    <ele>3598.0</ele>
    <time>2026-06-23T11:34:47Z</time>
   </trkpt>
   <trkpt lat="-3.1394020" lon="37.3721120">
    <ele>3597.8</ele>
    <time>2026-06-23T11:34:48Z</time>
   </trkpt>
   <trkpt lat="-3.1394070" lon="37.3721150">
    <ele>3597.7</ele>
    <time>2026-06-23T11:34:49Z</time>
   </trkpt>
   <trkpt lat="-3.1394150" lon="37.3721170">
    <ele>3597.5</ele>
    <time>2026-06-23T11:34:50Z</time>
   </trkpt>
   <trkpt lat="-3.1394220" lon="37.3721180">
    <ele>3597.3</ele>
    <time>2026-06-23T11:34:51Z</time>
   </trkpt>
   <trkpt lat="-3.1394320" lon="37.3721160">
    <ele>3597.1</ele>
    <time>2026-06-23T11:34:52Z</time>
   </trkpt>
   <trkpt lat="-3.1394370" lon="37.3721100">
    <ele>3596.9</ele>
    <time>2026-06-23T11:34:53Z</time>
   </trkpt>
   <trkpt lat="-3.1394410" lon="37.3721040">
    <ele>3596.8</ele>
    <time>2026-06-23T11:34:54Z</time>
   </trkpt>
   <trkpt lat="-3.1394450" lon="37.3721030">
    <ele>3596.7</ele>
    <time>2026-06-23T11:34:55Z</time>
   </trkpt>
   <trkpt lat="-3.1394540" lon="37.3721000">
    <ele>3596.5</ele>
    <time>2026-06-23T11:34:56Z</time>
   </trkpt>
   <trkpt lat="-3.1394600" lon="37.3720990">
    <ele>3596.3</ele>
    <time>2026-06-23T11:34:57Z</time>
   </trkpt>
   <trkpt lat="-3.1394680" lon="37.3721020">
    <ele>3596.1</ele>
    <time>2026-06-23T11:34:58Z</time>
   </trkpt>
   <trkpt lat="-3.1394770" lon="37.3721090">
    <ele>3595.9</ele>
    <time>2026-06-23T11:34:59Z</time>
   </trkpt>
   <trkpt lat="-3.1394840" lon="37.3721140">
    <ele>3595.7</ele>
    <time>2026-06-23T11:35:00Z</time>
   </trkpt>
   <trkpt lat="-3.1394880" lon="37.3721170">
    <ele>3595.6</ele>
    <time>2026-06-23T11:35:01Z</time>
   </trkpt>
   <trkpt lat="-3.1394960" lon="37.3721190">
    <ele>3595.4</ele>
    <time>2026-06-23T11:35:02Z</time>
   </trkpt>
   <trkpt lat="-3.1395030" lon="37.3721210">
    <ele>3595.3</ele>
    <time>2026-06-23T11:35:03Z</time>
   </trkpt>
   <trkpt lat="-3.1395060" lon="37.3721240">
    <ele>3595.2</ele>
    <time>2026-06-23T11:35:04Z</time>
   </trkpt>
   <trkpt lat="-3.1395130" lon="37.3721250">
    <ele>3595.0</ele>
    <time>2026-06-23T11:35:05Z</time>
   </trkpt>
   <trkpt lat="-3.1395230" lon="37.3721270">
    <ele>3594.8</ele>
    <time>2026-06-23T11:35:06Z</time>
   </trkpt>
   <trkpt lat="-3.1395320" lon="37.3721250">
    <ele>3594.6</ele>
    <time>2026-06-23T11:35:07Z</time>
   </trkpt>
   <trkpt lat="-3.1395380" lon="37.3721210">
    <ele>3594.5</ele>
    <time>2026-06-23T11:35:08Z</time>
   </trkpt>
   <trkpt lat="-3.1395450" lon="37.3721190">
    <ele>3594.4</ele>
    <time>2026-06-23T11:35:09Z</time>
   </trkpt>
   <trkpt lat="-3.1395520" lon="37.3721150">
    <ele>3594.2</ele>
    <time>2026-06-23T11:35:10Z</time>
   </trkpt>
   <trkpt lat="-3.1395610" lon="37.3721160">
    <ele>3594.0</ele>
    <time>2026-06-23T11:35:11Z</time>
   </trkpt>
   <trkpt lat="-3.1395640" lon="37.3721230">
    <ele>3593.9</ele>
    <time>2026-06-23T11:35:12Z</time>
   </trkpt>
   <trkpt lat="-3.1395660" lon="37.3721310">
    <ele>3593.7</ele>
    <time>2026-06-23T11:35:13Z</time>
   </trkpt>
   <trkpt lat="-3.1395680" lon="37.3721360">
    <ele>3593.6</ele>
    <time>2026-06-23T11:35:14Z</time>
   </trkpt>
   <trkpt lat="-3.1395730" lon="37.3721390">
    <ele>3593.5</ele>
    <time>2026-06-23T11:35:15Z</time>
   </trkpt>
   <trkpt lat="-3.1395790" lon="37.3721390">
    <ele>3593.4</ele>
    <time>2026-06-23T11:35:16Z</time>
   </trkpt>
   <trkpt lat="-3.1395910" lon="37.3721400">
    <ele>3593.1</ele>
    <time>2026-06-23T11:35:17Z</time>
   </trkpt>
   <trkpt lat="-3.1395960" lon="37.3721390">
    <ele>3593.0</ele>
    <time>2026-06-23T11:35:18Z</time>
   </trkpt>
   <trkpt lat="-3.1396020" lon="37.3721400">
    <ele>3592.9</ele>
    <time>2026-06-23T11:35:19Z</time>
   </trkpt>
   <trkpt lat="-3.1396040" lon="37.3721380">
    <ele>3592.9</ele>
    <time>2026-06-23T11:35:20Z</time>
   </trkpt>
   <trkpt lat="-3.1396060" lon="37.3721360">
    <ele>3592.8</ele>
    <time>2026-06-23T11:35:21Z</time>
   </trkpt>
   <trkpt lat="-3.1396090" lon="37.3721320">
    <ele>3592.7</ele>
    <time>2026-06-23T11:35:22Z</time>
   </trkpt>
   <trkpt lat="-3.1396100" lon="37.3721330">
    <ele>3592.7</ele>
    <time>2026-06-23T11:35:23Z</time>
   </trkpt>
   <trkpt lat="-3.1396160" lon="37.3721300">
    <ele>3592.6</ele>
    <time>2026-06-23T11:35:24Z</time>
   </trkpt>
   <trkpt lat="-3.1396210" lon="37.3721290">
    <ele>3592.5</ele>
    <time>2026-06-23T11:35:25Z</time>
   </trkpt>
   <trkpt lat="-3.1396250" lon="37.3721300">
    <ele>3592.4</ele>
    <time>2026-06-23T11:35:26Z</time>
   </trkpt>
   <trkpt lat="-3.1396270" lon="37.3721360">
    <ele>3592.3</ele>
    <time>2026-06-23T11:35:27Z</time>
   </trkpt>
   <trkpt lat="-3.1396340" lon="37.3721390">
    <ele>3592.1</ele>
    <time>2026-06-23T11:35:28Z</time>
   </trkpt>
   <trkpt lat="-3.1396390" lon="37.3721380">
    <ele>3592.0</ele>
    <time>2026-06-23T11:35:29Z</time>
   </trkpt>
   <trkpt lat="-3.1396420" lon="37.3721300">
    <ele>3591.9</ele>
    <time>2026-06-23T11:35:30Z</time>
   </trkpt>
   <trkpt lat="-3.1396480" lon="37.3721240">
    <ele>3591.7</ele>
    <time>2026-06-23T11:35:31Z</time>
   </trkpt>
   <trkpt lat="-3.1396540" lon="37.3721210">
    <ele>3591.6</ele>
    <time>2026-06-23T11:35:32Z</time>
   </trkpt>
   <trkpt lat="-3.1396600" lon="37.3721220">
    <ele>3591.5</ele>
    <time>2026-06-23T11:35:33Z</time>
   </trkpt>
   <trkpt lat="-3.1396690" lon="37.3721240">
    <ele>3591.3</ele>
    <time>2026-06-23T11:35:34Z</time>
   </trkpt>
   <trkpt lat="-3.1396780" lon="37.3721260">
    <ele>3591.1</ele>
    <time>2026-06-23T11:35:35Z</time>
   </trkpt>
   <trkpt lat="-3.1396870" lon="37.3721250">
    <ele>3590.9</ele>
    <time>2026-06-23T11:35:37Z</time>
   </trkpt>
   <trkpt lat="-3.1396930" lon="37.3721250">
    <ele>3590.8</ele>
    <time>2026-06-23T11:35:38Z</time>
   </trkpt>
   <trkpt lat="-3.1396990" lon="37.3721230">
    <ele>3590.7</ele>
    <time>2026-06-23T11:35:39Z</time>
   </trkpt>
   <trkpt lat="-3.1397070" lon="37.3721230">
    <ele>3590.5</ele>
    <time>2026-06-23T11:35:40Z</time>
   </trkpt>
   <trkpt lat="-3.1397160" lon="37.3721220">
    <ele>3590.4</ele>
    <time>2026-06-23T11:35:41Z</time>
   </trkpt>
   <trkpt lat="-3.1397210" lon="37.3721200">
    <ele>3590.3</ele>
    <time>2026-06-23T11:35:42Z</time>
   </trkpt>
   <trkpt lat="-3.1397260" lon="37.3721190">
    <ele>3590.2</ele>
    <time>2026-06-23T11:35:43Z</time>
   </trkpt>
   <trkpt lat="-3.1397310" lon="37.3721180">
    <ele>3590.1</ele>
    <time>2026-06-23T11:35:44Z</time>
   </trkpt>
   <trkpt lat="-3.1397370" lon="37.3721140">
    <ele>3589.9</ele>
    <time>2026-06-23T11:35:45Z</time>
   </trkpt>
   <trkpt lat="-3.1397460" lon="37.3721170">
    <ele>3589.8</ele>
    <time>2026-06-23T11:35:46Z</time>
   </trkpt>
   <trkpt lat="-3.1397540" lon="37.3721220">
    <ele>3589.6</ele>
    <time>2026-06-23T11:35:47Z</time>
   </trkpt>
   <trkpt lat="-3.1397550" lon="37.3721280">
    <ele>3589.5</ele>
    <time>2026-06-23T11:35:48Z</time>
   </trkpt>
   <trkpt lat="-3.1397600" lon="37.3721280">
    <ele>3589.4</ele>
    <time>2026-06-23T11:35:49Z</time>
   </trkpt>
   <trkpt lat="-3.1397710" lon="37.3721290">
    <ele>3589.2</ele>
    <time>2026-06-23T11:35:50Z</time>
   </trkpt>
   <trkpt lat="-3.1397830" lon="37.3721310">
    <ele>3589.0</ele>
    <time>2026-06-23T11:35:51Z</time>
   </trkpt>
   <trkpt lat="-3.1397910" lon="37.3721280">
    <ele>3588.8</ele>
    <time>2026-06-23T11:35:52Z</time>
   </trkpt>
   <trkpt lat="-3.1398010" lon="37.3721240">
    <ele>3588.6</ele>
    <time>2026-06-23T11:35:53Z</time>
   </trkpt>
   <trkpt lat="-3.1398120" lon="37.3721230">
    <ele>3588.4</ele>
    <time>2026-06-23T11:35:54Z</time>
   </trkpt>
   <trkpt lat="-3.1398200" lon="37.3721240">
    <ele>3588.3</ele>
    <time>2026-06-23T11:35:55Z</time>
   </trkpt>
   <trkpt lat="-3.1398240" lon="37.3721200">
    <ele>3588.2</ele>
    <time>2026-06-23T11:35:56Z</time>
   </trkpt>
   <trkpt lat="-3.1398260" lon="37.3721150">
    <ele>3588.1</ele>
    <time>2026-06-23T11:35:57Z</time>
   </trkpt>
   <trkpt lat="-3.1398320" lon="37.3721120">
    <ele>3588.0</ele>
    <time>2026-06-23T11:35:58Z</time>
   </trkpt>
   <trkpt lat="-3.1398400" lon="37.3721090">
    <ele>3587.9</ele>
    <time>2026-06-23T11:35:59Z</time>
   </trkpt>
   <trkpt lat="-3.1398430" lon="37.3721060">
    <ele>3587.8</ele>
    <time>2026-06-23T11:36:00Z</time>
   </trkpt>
   <trkpt lat="-3.1398510" lon="37.3720980">
    <ele>3587.6</ele>
    <time>2026-06-23T11:36:01Z</time>
   </trkpt>
   <trkpt lat="-3.1398630" lon="37.3720840">
    <ele>3587.3</ele>
    <time>2026-06-23T11:36:02Z</time>
   </trkpt>
   <trkpt lat="-3.1398670" lon="37.3720800">
    <ele>3587.2</ele>
    <time>2026-06-23T11:36:03Z</time>
   </trkpt>
   <trkpt lat="-3.1398720" lon="37.3720770">
    <ele>3587.2</ele>
    <time>2026-06-23T11:36:04Z</time>
   </trkpt>
   <trkpt lat="-3.1398750" lon="37.3720730">
    <ele>3587.1</ele>
    <time>2026-06-23T11:36:05Z</time>
   </trkpt>
   <trkpt lat="-3.1398800" lon="37.3720670">
    <ele>3587.0</ele>
    <time>2026-06-23T11:36:06Z</time>
   </trkpt>
   <trkpt lat="-3.1398870" lon="37.3720600">
    <ele>3586.8</ele>
    <time>2026-06-23T11:36:07Z</time>
   </trkpt>
   <trkpt lat="-3.1398920" lon="37.3720560">
    <ele>3586.7</ele>
    <time>2026-06-23T11:36:08Z</time>
   </trkpt>
   <trkpt lat="-3.1399000" lon="37.3720530">
    <ele>3586.6</ele>
    <time>2026-06-23T11:36:09Z</time>
   </trkpt>
   <trkpt lat="-3.1399050" lon="37.3720570">
    <ele>3586.5</ele>
    <time>2026-06-23T11:36:10Z</time>
   </trkpt>
   <trkpt lat="-3.1399140" lon="37.3720590">
    <ele>3586.4</ele>
    <time>2026-06-23T11:36:11Z</time>
   </trkpt>
   <trkpt lat="-3.1399220" lon="37.3720610">
    <ele>3586.2</ele>
    <time>2026-06-23T11:36:12Z</time>
   </trkpt>
   <trkpt lat="-3.1399270" lon="37.3720580">
    <ele>3586.1</ele>
    <time>2026-06-23T11:36:13Z</time>
   </trkpt>
   <trkpt lat="-3.1399320" lon="37.3720560">
    <ele>3586.1</ele>
    <time>2026-06-23T11:36:14Z</time>
   </trkpt>
   <trkpt lat="-3.1399400" lon="37.3720530">
    <ele>3585.9</ele>
    <time>2026-06-23T11:36:15Z</time>
   </trkpt>
   <trkpt lat="-3.1399470" lon="37.3720500">
    <ele>3585.8</ele>
    <time>2026-06-23T11:36:16Z</time>
   </trkpt>
   <trkpt lat="-3.1399530" lon="37.3720460">
    <ele>3585.7</ele>
    <time>2026-06-23T11:36:17Z</time>
   </trkpt>
   <trkpt lat="-3.1399580" lon="37.3720420">
    <ele>3585.6</ele>
    <time>2026-06-23T11:36:18Z</time>
   </trkpt>
   <trkpt lat="-3.1399610" lon="37.3720400">
    <ele>3585.6</ele>
    <time>2026-06-23T11:36:19Z</time>
   </trkpt>
   <trkpt lat="-3.1399650" lon="37.3720360">
    <ele>3585.5</ele>
    <time>2026-06-23T11:36:20Z</time>
   </trkpt>
   <trkpt lat="-3.1399680" lon="37.3720320">
    <ele>3585.4</ele>
    <time>2026-06-23T11:36:21Z</time>
   </trkpt>
   <trkpt lat="-3.1399740" lon="37.3720300">
    <ele>3585.3</ele>
    <time>2026-06-23T11:36:22Z</time>
   </trkpt>
   <trkpt lat="-3.1399780" lon="37.3720280">
    <ele>3585.2</ele>
    <time>2026-06-23T11:36:23Z</time>
   </trkpt>
   <trkpt lat="-3.1399810" lon="37.3720270">
    <ele>3585.2</ele>
    <time>2026-06-23T11:36:24Z</time>
   </trkpt>
   <trkpt lat="-3.1399910" lon="37.3720230">
    <ele>3585.0</ele>
    <time>2026-06-23T11:36:25Z</time>
   </trkpt>
   <trkpt lat="-3.1399960" lon="37.3720230">
    <ele>3584.9</ele>
    <time>2026-06-23T11:36:26Z</time>
   </trkpt>
   <trkpt lat="-3.1400050" lon="37.3720250">
    <ele>3584.8</ele>
    <time>2026-06-23T11:36:27Z</time>
   </trkpt>
   <trkpt lat="-3.1400060" lon="37.3720310">
    <ele>3584.7</ele>
    <time>2026-06-23T11:36:28Z</time>
   </trkpt>
   <trkpt lat="-3.1400080" lon="37.3720360">
    <ele>3584.6</ele>
    <time>2026-06-23T11:36:29Z</time>
   </trkpt>
   <trkpt lat="-3.1400150" lon="37.3720440">
    <ele>3584.4</ele>
    <time>2026-06-23T11:36:30Z</time>
   </trkpt>
   <trkpt lat="-3.1400170" lon="37.3720470">
    <ele>3584.4</ele>
    <time>2026-06-23T11:36:31Z</time>
   </trkpt>
   <trkpt lat="-3.1400200" lon="37.3720470">
    <ele>3584.3</ele>
    <time>2026-06-23T11:36:32Z</time>
   </trkpt>
   <trkpt lat="-3.1400270" lon="37.3720470">
    <ele>3584.2</ele>
    <time>2026-06-23T11:36:33Z</time>
   </trkpt>
   <trkpt lat="-3.1400310" lon="37.3720460">
    <ele>3584.1</ele>
    <time>2026-06-23T11:36:34Z</time>
   </trkpt>
   <trkpt lat="-3.1400360" lon="37.3720430">
    <ele>3584.0</ele>
    <time>2026-06-23T11:36:35Z</time>
   </trkpt>
   <trkpt lat="-3.1400410" lon="37.3720400">
    <ele>3583.9</ele>
    <time>2026-06-23T11:36:36Z</time>
   </trkpt>
   <trkpt lat="-3.1400450" lon="37.3720350">
    <ele>3583.8</ele>
    <time>2026-06-23T11:36:37Z</time>
   </trkpt>
   <trkpt lat="-3.1400570" lon="37.3720300">
    <ele>3583.6</ele>
    <time>2026-06-23T11:36:38Z</time>
   </trkpt>
   <trkpt lat="-3.1400650" lon="37.3720320">
    <ele>3583.4</ele>
    <time>2026-06-23T11:36:39Z</time>
   </trkpt>
   <trkpt lat="-3.1400710" lon="37.3720330">
    <ele>3583.3</ele>
    <time>2026-06-23T11:36:40Z</time>
   </trkpt>
   <trkpt lat="-3.1400770" lon="37.3720340">
    <ele>3583.2</ele>
    <time>2026-06-23T11:36:41Z</time>
   </trkpt>
   <trkpt lat="-3.1400810" lon="37.3720350">
    <ele>3583.1</ele>
    <time>2026-06-23T11:36:42Z</time>
   </trkpt>
   <trkpt lat="-3.1400850" lon="37.3720370">
    <ele>3583.1</ele>
    <time>2026-06-23T11:36:43Z</time>
   </trkpt>
   <trkpt lat="-3.1400900" lon="37.3720400">
    <ele>3582.9</ele>
    <time>2026-06-23T11:36:44Z</time>
   </trkpt>
   <trkpt lat="-3.1400940" lon="37.3720410">
    <ele>3582.9</ele>
    <time>2026-06-23T11:36:45Z</time>
   </trkpt>
   <trkpt lat="-3.1401010" lon="37.3720410">
    <ele>3582.7</ele>
    <time>2026-06-23T11:36:46Z</time>
   </trkpt>
   <trkpt lat="-3.1401050" lon="37.3720380">
    <ele>3582.6</ele>
    <time>2026-06-23T11:36:47Z</time>
   </trkpt>
   <trkpt lat="-3.1401110" lon="37.3720350">
    <ele>3582.5</ele>
    <time>2026-06-23T11:36:48Z</time>
   </trkpt>
   <trkpt lat="-3.1401180" lon="37.3720310">
    <ele>3582.3</ele>
    <time>2026-06-23T11:36:49Z</time>
   </trkpt>
   <trkpt lat="-3.1401200" lon="37.3720310">
    <ele>3582.3</ele>
    <time>2026-06-23T11:36:50Z</time>
   </trkpt>
   <trkpt lat="-3.1401250" lon="37.3720270">
    <ele>3582.2</ele>
    <time>2026-06-23T11:36:51Z</time>
   </trkpt>
   <trkpt lat="-3.1401310" lon="37.3720240">
    <ele>3582.1</ele>
    <time>2026-06-23T11:36:52Z</time>
   </trkpt>
   <trkpt lat="-3.1401400" lon="37.3720200">
    <ele>3581.9</ele>
    <time>2026-06-23T11:36:53Z</time>
   </trkpt>
   <trkpt lat="-3.1401370" lon="37.3720200">
    <ele>3581.8</ele>
    <time>2026-06-23T11:36:54Z</time>
   </trkpt>
   <trkpt lat="-3.1401410" lon="37.3720200">
    <ele>3581.7</ele>
    <time>2026-06-23T11:36:55Z</time>
   </trkpt>
   <trkpt lat="-3.1401430" lon="37.3720150">
    <ele>3581.6</ele>
    <time>2026-06-23T11:36:56Z</time>
   </trkpt>
   <trkpt lat="-3.1401470" lon="37.3720090">
    <ele>3581.5</ele>
    <time>2026-06-23T11:36:57Z</time>
   </trkpt>
   <trkpt lat="-3.1401530" lon="37.3720050">
    <ele>3581.4</ele>
    <time>2026-06-23T11:36:58Z</time>
   </trkpt>
   <trkpt lat="-3.1401640" lon="37.3720020">
    <ele>3581.1</ele>
    <time>2026-06-23T11:36:59Z</time>
   </trkpt>
   <trkpt lat="-3.1401700" lon="37.3719980">
    <ele>3581.0</ele>
    <time>2026-06-23T11:37:00Z</time>
   </trkpt>
   <trkpt lat="-3.1401740" lon="37.3719920">
    <ele>3580.9</ele>
    <time>2026-06-23T11:37:01Z</time>
   </trkpt>
   <trkpt lat="-3.1401800" lon="37.3719860">
    <ele>3580.7</ele>
    <time>2026-06-23T11:37:02Z</time>
   </trkpt>
   <trkpt lat="-3.1401850" lon="37.3719850">
    <ele>3580.6</ele>
    <time>2026-06-23T11:37:03Z</time>
   </trkpt>
   <trkpt lat="-3.1401980" lon="37.3719860">
    <ele>3580.3</ele>
    <time>2026-06-23T11:37:04Z</time>
   </trkpt>
   <trkpt lat="-3.1401990" lon="37.3719920">
    <ele>3580.2</ele>
    <time>2026-06-23T11:37:05Z</time>
   </trkpt>
   <trkpt lat="-3.1402020" lon="37.3719990">
    <ele>3580.1</ele>
    <time>2026-06-23T11:37:06Z</time>
   </trkpt>
   <trkpt lat="-3.1402040" lon="37.3720030">
    <ele>3580.0</ele>
    <time>2026-06-23T11:37:07Z</time>
   </trkpt>
   <trkpt lat="-3.1402100" lon="37.3720070">
    <ele>3579.9</ele>
    <time>2026-06-23T11:37:08Z</time>
   </trkpt>
   <trkpt lat="-3.1402160" lon="37.3720120">
    <ele>3579.7</ele>
    <time>2026-06-23T11:37:09Z</time>
   </trkpt>
   <trkpt lat="-3.1402220" lon="37.3720170">
    <ele>3579.6</ele>
    <time>2026-06-23T11:37:10Z</time>
   </trkpt>
   <trkpt lat="-3.1402280" lon="37.3720160">
    <ele>3579.4</ele>
    <time>2026-06-23T11:37:11Z</time>
   </trkpt>
   <trkpt lat="-3.1402380" lon="37.3720130">
    <ele>3579.2</ele>
    <time>2026-06-23T11:37:12Z</time>
   </trkpt>
   <trkpt lat="-3.1402450" lon="37.3720120">
    <ele>3579.1</ele>
    <time>2026-06-23T11:37:13Z</time>
   </trkpt>
   <trkpt lat="-3.1402520" lon="37.3720140">
    <ele>3579.0</ele>
    <time>2026-06-23T11:37:14Z</time>
   </trkpt>
   <trkpt lat="-3.1402560" lon="37.3720180">
    <ele>3578.8</ele>
    <time>2026-06-23T11:37:15Z</time>
   </trkpt>
   <trkpt lat="-3.1402580" lon="37.3720230">
    <ele>3578.7</ele>
    <time>2026-06-23T11:37:16Z</time>
   </trkpt>
   <trkpt lat="-3.1402650" lon="37.3720290">
    <ele>3578.6</ele>
    <time>2026-06-23T11:37:17Z</time>
   </trkpt>
   <trkpt lat="-3.1402720" lon="37.3720310">
    <ele>3578.4</ele>
    <time>2026-06-23T11:37:18Z</time>
   </trkpt>
   <trkpt lat="-3.1402810" lon="37.3720310">
    <ele>3578.2</ele>
    <time>2026-06-23T11:37:19Z</time>
   </trkpt>
   <trkpt lat="-3.1402860" lon="37.3720330">
    <ele>3578.1</ele>
    <time>2026-06-23T11:37:20Z</time>
   </trkpt>
   <trkpt lat="-3.1402920" lon="37.3720380">
    <ele>3578.0</ele>
    <time>2026-06-23T11:37:21Z</time>
   </trkpt>
   <trkpt lat="-3.1402960" lon="37.3720420">
    <ele>3577.9</ele>
    <time>2026-06-23T11:37:22Z</time>
   </trkpt>
   <trkpt lat="-3.1402960" lon="37.3720460">
    <ele>3577.8</ele>
    <time>2026-06-23T11:37:23Z</time>
   </trkpt>
   <trkpt lat="-3.1402930" lon="37.3720480">
    <ele>3577.7</ele>
    <time>2026-06-23T11:37:24Z</time>
   </trkpt>
   <trkpt lat="-3.1402870" lon="37.3720530">
    <ele>3577.5</ele>
    <time>2026-06-23T11:37:25Z</time>
   </trkpt>
   <trkpt lat="-3.1402840" lon="37.3720570">
    <ele>3577.4</ele>
    <time>2026-06-23T11:37:26Z</time>
   </trkpt>
   <trkpt lat="-3.1402820" lon="37.3720620">
    <ele>3577.3</ele>
    <time>2026-06-23T11:37:27Z</time>
   </trkpt>
   <trkpt lat="-3.1402820" lon="37.3720650">
    <ele>3577.3</ele>
    <time>2026-06-23T11:37:28Z</time>
   </trkpt>
   <trkpt lat="-3.1402840" lon="37.3720710">
    <ele>3577.1</ele>
    <time>2026-06-23T11:37:29Z</time>
   </trkpt>
   <trkpt lat="-3.1402870" lon="37.3720720">
    <ele>3577.1</ele>
    <time>2026-06-23T11:37:30Z</time>
   </trkpt>
   <trkpt lat="-3.1402930" lon="37.3720760">
    <ele>3576.9</ele>
    <time>2026-06-23T11:37:31Z</time>
   </trkpt>
   <trkpt lat="-3.1402970" lon="37.3720730">
    <ele>3576.8</ele>
    <time>2026-06-23T11:37:32Z</time>
   </trkpt>
   <trkpt lat="-3.1403040" lon="37.3720750">
    <ele>3576.6</ele>
    <time>2026-06-23T11:37:33Z</time>
   </trkpt>
   <trkpt lat="-3.1403090" lon="37.3720770">
    <ele>3576.5</ele>
    <time>2026-06-23T11:37:34Z</time>
   </trkpt>
   <trkpt lat="-3.1403160" lon="37.3720770">
    <ele>3576.3</ele>
    <time>2026-06-23T11:37:35Z</time>
   </trkpt>
   <trkpt lat="-3.1403180" lon="37.3720770">
    <ele>3576.3</ele>
    <time>2026-06-23T11:37:36Z</time>
   </trkpt>
   <trkpt lat="-3.1403240" lon="37.3720770">
    <ele>3576.1</ele>
    <time>2026-06-23T11:37:37Z</time>
   </trkpt>
   <trkpt lat="-3.1403290" lon="37.3720770">
    <ele>3576.0</ele>
    <time>2026-06-23T11:37:38Z</time>
   </trkpt>
   <trkpt lat="-3.1403340" lon="37.3720770">
    <ele>3575.9</ele>
    <time>2026-06-23T11:37:39Z</time>
   </trkpt>
   <trkpt lat="-3.1403380" lon="37.3720760">
    <ele>3575.8</ele>
    <time>2026-06-23T11:37:40Z</time>
   </trkpt>
   <trkpt lat="-3.1403440" lon="37.3720770">
    <ele>3575.7</ele>
    <time>2026-06-23T11:37:41Z</time>
   </trkpt>
   <trkpt lat="-3.1403490" lon="37.3720750">
    <ele>3575.6</ele>
    <time>2026-06-23T11:37:43Z</time>
   </trkpt>
   <trkpt lat="-3.1403550" lon="37.3720750">
    <ele>3575.4</ele>
    <time>2026-06-23T11:37:44Z</time>
   </trkpt>
   <trkpt lat="-3.1403590" lon="37.3720740">
    <ele>3575.3</ele>
    <time>2026-06-23T11:37:45Z</time>
   </trkpt>
   <trkpt lat="-3.1403660" lon="37.3720710">
    <ele>3575.1</ele>
    <time>2026-06-23T11:37:46Z</time>
   </trkpt>
   <trkpt lat="-3.1403700" lon="37.3720690">
    <ele>3575.0</ele>
    <time>2026-06-23T11:37:47Z</time>
   </trkpt>
   <trkpt lat="-3.1403750" lon="37.3720660">
    <ele>3574.9</ele>
    <time>2026-06-23T11:37:48Z</time>
   </trkpt>
   <trkpt lat="-3.1403810" lon="37.3720650">
    <ele>3574.8</ele>
    <time>2026-06-23T11:37:49Z</time>
   </trkpt>
   <trkpt lat="-3.1403820" lon="37.3720670">
    <ele>3574.7</ele>
    <time>2026-06-23T11:37:50Z</time>
   </trkpt>
   <trkpt lat="-3.1403880" lon="37.3720640">
    <ele>3574.6</ele>
    <time>2026-06-23T11:37:51Z</time>
   </trkpt>
   <trkpt lat="-3.1403900" lon="37.3720620">
    <ele>3574.5</ele>
    <time>2026-06-23T11:37:52Z</time>
   </trkpt>
   <trkpt lat="-3.1403940" lon="37.3720590">
    <ele>3574.4</ele>
    <time>2026-06-23T11:37:53Z</time>
   </trkpt>
   <trkpt lat="-3.1403970" lon="37.3720580">
    <ele>3574.3</ele>
    <time>2026-06-23T11:37:54Z</time>
   </trkpt>
   <trkpt lat="-3.1404010" lon="37.3720550">
    <ele>3574.2</ele>
    <time>2026-06-23T11:37:55Z</time>
   </trkpt>
   <trkpt lat="-3.1404060" lon="37.3720550">
    <ele>3574.0</ele>
    <time>2026-06-23T11:37:56Z</time>
   </trkpt>
   <trkpt lat="-3.1404080" lon="37.3720530">
    <ele>3574.0</ele>
    <time>2026-06-23T11:37:57Z</time>
   </trkpt>
   <trkpt lat="-3.1404110" lon="37.3720510">
    <ele>3573.9</ele>
    <time>2026-06-23T11:37:58Z</time>
   </trkpt>
   <trkpt lat="-3.1404130" lon="37.3720490">
    <ele>3573.8</ele>
    <time>2026-06-23T11:37:59Z</time>
   </trkpt>
   <trkpt lat="-3.1404130" lon="37.3720500">
    <ele>3573.8</ele>
    <time>2026-06-23T11:38:00Z</time>
   </trkpt>
   <trkpt lat="-3.1404170" lon="37.3720500">
    <ele>3573.7</ele>
    <time>2026-06-23T11:38:01Z</time>
   </trkpt>
   <trkpt lat="-3.1404170" lon="37.3720500">
    <ele>3573.7</ele>
    <time>2026-06-23T11:38:02Z</time>
   </trkpt>
   <trkpt lat="-3.1404210" lon="37.3720530">
    <ele>3573.6</ele>
    <time>2026-06-23T11:38:03Z</time>
   </trkpt>
   <trkpt lat="-3.1404250" lon="37.3720530">
    <ele>3573.5</ele>
    <time>2026-06-23T11:38:04Z</time>
   </trkpt>
   <trkpt lat="-3.1404280" lon="37.3720520">
    <ele>3573.4</ele>
    <time>2026-06-23T11:38:05Z</time>
   </trkpt>
   <trkpt lat="-3.1404330" lon="37.3720530">
    <ele>3573.3</ele>
    <time>2026-06-23T11:38:06Z</time>
   </trkpt>
   <trkpt lat="-3.1404410" lon="37.3720550">
    <ele>3573.0</ele>
    <time>2026-06-23T11:38:07Z</time>
   </trkpt>
   <trkpt lat="-3.1404430" lon="37.3720560">
    <ele>3573.0</ele>
    <time>2026-06-23T11:38:08Z</time>
   </trkpt>
   <trkpt lat="-3.1404470" lon="37.3720590">
    <ele>3572.8</ele>
    <time>2026-06-23T11:38:09Z</time>
   </trkpt>
   <trkpt lat="-3.1404490" lon="37.3720610">
    <ele>3572.8</ele>
    <time>2026-06-23T11:38:10Z</time>
   </trkpt>
   <trkpt lat="-3.1404560" lon="37.3720610">
    <ele>3572.6</ele>
    <time>2026-06-23T11:38:11Z</time>
   </trkpt>
   <trkpt lat="-3.1404610" lon="37.3720610">
    <ele>3572.5</ele>
    <time>2026-06-23T11:38:12Z</time>
   </trkpt>
   <trkpt lat="-3.1404640" lon="37.3720590">
    <ele>3572.4</ele>
    <time>2026-06-23T11:38:13Z</time>
   </trkpt>
   <trkpt lat="-3.1404690" lon="37.3720690">
    <ele>3572.1</ele>
    <time>2026-06-23T11:38:14Z</time>
   </trkpt>
   <trkpt lat="-3.1404760" lon="37.3720580">
    <ele>3571.7</ele>
    <time>2026-06-23T11:38:15Z</time>
   </trkpt>
   <trkpt lat="-3.1404820" lon="37.3720560">
    <ele>3571.5</ele>
    <time>2026-06-23T11:38:16Z</time>
   </trkpt>
   <trkpt lat="-3.1404850" lon="37.3720560">
    <ele>3571.5</ele>
    <time>2026-06-23T11:38:17Z</time>
   </trkpt>
   <trkpt lat="-3.1404870" lon="37.3720550">
    <ele>3571.4</ele>
    <time>2026-06-23T11:38:18Z</time>
   </trkpt>
   <trkpt lat="-3.1404960" lon="37.3720520">
    <ele>3571.1</ele>
    <time>2026-06-23T11:38:19Z</time>
   </trkpt>
   <trkpt lat="-3.1405020" lon="37.3720530">
    <ele>3571.0</ele>
    <time>2026-06-23T11:38:20Z</time>
   </trkpt>
   <trkpt lat="-3.1405030" lon="37.3720540">
    <ele>3570.9</ele>
    <time>2026-06-23T11:38:21Z</time>
   </trkpt>
   <trkpt lat="-3.1405060" lon="37.3720530">
    <ele>3570.9</ele>
    <time>2026-06-23T11:38:22Z</time>
   </trkpt>
   <trkpt lat="-3.1405070" lon="37.3720540">
    <ele>3570.8</ele>
    <time>2026-06-23T11:38:23Z</time>
   </trkpt>
   <trkpt lat="-3.1405090" lon="37.3720540">
    <ele>3570.8</ele>
    <time>2026-06-23T11:38:24Z</time>
   </trkpt>
   <trkpt lat="-3.1405130" lon="37.3720540">
    <ele>3570.7</ele>
    <time>2026-06-23T11:38:25Z</time>
   </trkpt>
   <trkpt lat="-3.1405160" lon="37.3720540">
    <ele>3570.6</ele>
    <time>2026-06-23T11:38:26Z</time>
   </trkpt>
   <trkpt lat="-3.1405190" lon="37.3720560">
    <ele>3570.5</ele>
    <time>2026-06-23T11:38:27Z</time>
   </trkpt>
   <trkpt lat="-3.1405210" lon="37.3720570">
    <ele>3570.4</ele>
    <time>2026-06-23T11:38:28Z</time>
   </trkpt>
   <trkpt lat="-3.1405240" lon="37.3720570">
    <ele>3570.3</ele>
    <time>2026-06-23T11:38:29Z</time>
   </trkpt>
   <trkpt lat="-3.1405290" lon="37.3720580">
    <ele>3570.2</ele>
    <time>2026-06-23T11:38:30Z</time>
   </trkpt>
   <trkpt lat="-3.1405310" lon="37.3720570">
    <ele>3570.1</ele>
    <time>2026-06-23T11:38:31Z</time>
   </trkpt>
   <trkpt lat="-3.1405320" lon="37.3720630">
    <ele>3569.9</ele>
    <time>2026-06-23T11:38:32Z</time>
   </trkpt>
   <trkpt lat="-3.1405350" lon="37.3720650">
    <ele>3569.8</ele>
    <time>2026-06-23T11:38:33Z</time>
   </trkpt>
   <trkpt lat="-3.1405380" lon="37.3720670">
    <ele>3569.7</ele>
    <time>2026-06-23T11:38:34Z</time>
   </trkpt>
   <trkpt lat="-3.1405440" lon="37.3720690">
    <ele>3569.5</ele>
    <time>2026-06-23T11:38:35Z</time>
   </trkpt>
   <trkpt lat="-3.1405480" lon="37.3720690">
    <ele>3569.4</ele>
    <time>2026-06-23T11:38:36Z</time>
   </trkpt>
   <trkpt lat="-3.1405550" lon="37.3720730">
    <ele>3569.2</ele>
    <time>2026-06-23T11:38:37Z</time>
   </trkpt>
   <trkpt lat="-3.1405530" lon="37.3720720">
    <ele>3569.1</ele>
    <time>2026-06-23T11:38:38Z</time>
   </trkpt>
   <trkpt lat="-3.1405580" lon="37.3720720">
    <ele>3568.9</ele>
    <time>2026-06-23T11:38:39Z</time>
   </trkpt>
   <trkpt lat="-3.1405600" lon="37.3720730">
    <ele>3568.9</ele>
    <time>2026-06-23T11:38:40Z</time>
   </trkpt>
   <trkpt lat="-3.1405700" lon="37.3720720">
    <ele>3568.6</ele>
    <time>2026-06-23T11:38:41Z</time>
   </trkpt>
   <trkpt lat="-3.1405740" lon="37.3720740">
    <ele>3568.4</ele>
    <time>2026-06-23T11:38:42Z</time>
   </trkpt>
   <trkpt lat="-3.1405710" lon="37.3720760">
    <ele>3568.3</ele>
    <time>2026-06-23T11:38:43Z</time>
   </trkpt>
   <trkpt lat="-3.1405750" lon="37.3720760">
    <ele>3568.2</ele>
    <time>2026-06-23T11:38:44Z</time>
   </trkpt>
   <trkpt lat="-3.1405770" lon="37.3720770">
    <ele>3568.1</ele>
    <time>2026-06-23T11:38:45Z</time>
   </trkpt>
   <trkpt lat="-3.1405780" lon="37.3720760">
    <ele>3568.1</ele>
    <time>2026-06-23T11:38:46Z</time>
   </trkpt>
   <trkpt lat="-3.1405780" lon="37.3720760">
    <ele>3568.1</ele>
    <time>2026-06-23T11:38:47Z</time>
   </trkpt>
   <trkpt lat="-3.1405790" lon="37.3720760">
    <ele>3568.0</ele>
    <time>2026-06-23T11:38:48Z</time>
   </trkpt>
   <trkpt lat="-3.1405840" lon="37.3720760">
    <ele>3567.9</ele>
    <time>2026-06-23T11:38:49Z</time>
   </trkpt>
   <trkpt lat="-3.1405860" lon="37.3720780">
    <ele>3567.8</ele>
    <time>2026-06-23T11:38:50Z</time>
   </trkpt>
   <trkpt lat="-3.1405900" lon="37.3720760">
    <ele>3567.7</ele>
    <time>2026-06-23T11:38:51Z</time>
   </trkpt>
   <trkpt lat="-3.1405920" lon="37.3720780">
    <ele>3567.6</ele>
    <time>2026-06-23T11:38:52Z</time>
   </trkpt>
   <trkpt lat="-3.1405920" lon="37.3720770">
    <ele>3567.5</ele>
    <time>2026-06-23T11:38:53Z</time>
   </trkpt>
   <trkpt lat="-3.1405970" lon="37.3720760">
    <ele>3567.4</ele>
    <time>2026-06-23T11:38:54Z</time>
   </trkpt>
   <trkpt lat="-3.1405990" lon="37.3720790">
    <ele>3567.3</ele>
    <time>2026-06-23T11:38:55Z</time>
   </trkpt>
   <trkpt lat="-3.1406010" lon="37.3720800">
    <ele>3567.2</ele>
    <time>2026-06-23T11:38:56Z</time>
   </trkpt>
   <trkpt lat="-3.1406050" lon="37.3720770">
    <ele>3567.0</ele>
    <time>2026-06-23T11:38:57Z</time>
   </trkpt>
   <trkpt lat="-3.1406080" lon="37.3720760">
    <ele>3566.9</ele>
    <time>2026-06-23T11:38:58Z</time>
   </trkpt>
   <trkpt lat="-3.1406110" lon="37.3720740">
    <ele>3566.8</ele>
    <time>2026-06-23T11:38:59Z</time>
   </trkpt>
   <trkpt lat="-3.1406120" lon="37.3720710">
    <ele>3566.7</ele>
    <time>2026-06-23T11:39:00Z</time>
   </trkpt>
   <trkpt lat="-3.1406150" lon="37.3720670">
    <ele>3566.6</ele>
    <time>2026-06-23T11:39:01Z</time>
   </trkpt>
   <trkpt lat="-3.1406210" lon="37.3720660">
    <ele>3566.4</ele>
    <time>2026-06-23T11:39:02Z</time>
   </trkpt>
   <trkpt lat="-3.1406250" lon="37.3720640">
    <ele>3566.2</ele>
    <time>2026-06-23T11:39:03Z</time>
   </trkpt>
   <trkpt lat="-3.1406270" lon="37.3720640">
    <ele>3566.2</ele>
    <time>2026-06-23T11:39:04Z</time>
   </trkpt>
   <trkpt lat="-3.1406310" lon="37.3720620">
    <ele>3566.0</ele>
    <time>2026-06-23T11:39:05Z</time>
   </trkpt>
   <trkpt lat="-3.1406370" lon="37.3720620">
    <ele>3565.9</ele>
    <time>2026-06-23T11:39:06Z</time>
   </trkpt>
   <trkpt lat="-3.1406400" lon="37.3720620">
    <ele>3565.8</ele>
    <time>2026-06-23T11:39:07Z</time>
   </trkpt>
   <trkpt lat="-3.1406430" lon="37.3720640">
    <ele>3565.6</ele>
    <time>2026-06-23T11:39:08Z</time>
   </trkpt>
   <trkpt lat="-3.1406460" lon="37.3720640">
    <ele>3565.6</ele>
    <time>2026-06-23T11:39:09Z</time>
   </trkpt>
   <trkpt lat="-3.1406550" lon="37.3720700">
    <ele>3565.3</ele>
    <time>2026-06-23T11:39:10Z</time>
   </trkpt>
   <trkpt lat="-3.1406670" lon="37.3720710">
    <ele>3565.0</ele>
    <time>2026-06-23T11:39:11Z</time>
   </trkpt>
   <trkpt lat="-3.1406730" lon="37.3720690">
    <ele>3564.9</ele>
    <time>2026-06-23T11:39:12Z</time>
   </trkpt>
   <trkpt lat="-3.1406740" lon="37.3720620">
    <ele>3564.7</ele>
    <time>2026-06-23T11:39:13Z</time>
   </trkpt>
   <trkpt lat="-3.1406780" lon="37.3720560">
    <ele>3564.5</ele>
    <time>2026-06-23T11:39:14Z</time>
   </trkpt>
   <trkpt lat="-3.1406830" lon="37.3720520">
    <ele>3564.4</ele>
    <time>2026-06-23T11:39:15Z</time>
   </trkpt>
   <trkpt lat="-3.1406850" lon="37.3720490">
    <ele>3564.3</ele>
    <time>2026-06-23T11:39:16Z</time>
   </trkpt>
   <trkpt lat="-3.1406860" lon="37.3720440">
    <ele>3564.1</ele>
    <time>2026-06-23T11:39:17Z</time>
   </trkpt>
   <trkpt lat="-3.1406870" lon="37.3720380">
    <ele>3564.0</ele>
    <time>2026-06-23T11:39:18Z</time>
   </trkpt>
   <trkpt lat="-3.1406880" lon="37.3720340">
    <ele>3563.9</ele>
    <time>2026-06-23T11:39:19Z</time>
   </trkpt>
   <trkpt lat="-3.1406940" lon="37.3720310">
    <ele>3563.7</ele>
    <time>2026-06-23T11:39:20Z</time>
   </trkpt>
   <trkpt lat="-3.1407030" lon="37.3720300">
    <ele>3563.5</ele>
    <time>2026-06-23T11:39:21Z</time>
   </trkpt>
   <trkpt lat="-3.1407090" lon="37.3720290">
    <ele>3563.4</ele>
    <time>2026-06-23T11:39:22Z</time>
   </trkpt>
   <trkpt lat="-3.1407100" lon="37.3720270">
    <ele>3563.3</ele>
    <time>2026-06-23T11:39:23Z</time>
   </trkpt>
   <trkpt lat="-3.1407160" lon="37.3720280">
    <ele>3563.2</ele>
    <time>2026-06-23T11:39:24Z</time>
   </trkpt>
   <trkpt lat="-3.1407240" lon="37.3720300">
    <ele>3563.0</ele>
    <time>2026-06-23T11:39:25Z</time>
   </trkpt>
   <trkpt lat="-3.1407270" lon="37.3720320">
    <ele>3562.9</ele>
    <time>2026-06-23T11:39:26Z</time>
   </trkpt>
   <trkpt lat="-3.1407330" lon="37.3720340">
    <ele>3562.8</ele>
    <time>2026-06-23T11:39:27Z</time>
   </trkpt>
   <trkpt lat="-3.1407410" lon="37.3720370">
    <ele>3562.6</ele>
    <time>2026-06-23T11:39:28Z</time>
   </trkpt>
   <trkpt lat="-3.1407480" lon="37.3720390">
    <ele>3562.4</ele>
    <time>2026-06-23T11:39:29Z</time>
   </trkpt>
   <trkpt lat="-3.1407530" lon="37.3720400">
    <ele>3562.3</ele>
    <time>2026-06-23T11:39:30Z</time>
   </trkpt>
   <trkpt lat="-3.1407590" lon="37.3720410">
    <ele>3562.1</ele>
    <time>2026-06-23T11:39:31Z</time>
   </trkpt>
   <trkpt lat="-3.1407660" lon="37.3720400">
    <ele>3562.0</ele>
    <time>2026-06-23T11:39:32Z</time>
   </trkpt>
   <trkpt lat="-3.1407750" lon="37.3720400">
    <ele>3561.8</ele>
    <time>2026-06-23T11:39:33Z</time>
   </trkpt>
   <trkpt lat="-3.1407820" lon="37.3720410">
    <ele>3561.6</ele>
    <time>2026-06-23T11:39:34Z</time>
   </trkpt>
   <trkpt lat="-3.1407870" lon="37.3720390">
    <ele>3561.5</ele>
    <time>2026-06-23T11:39:35Z</time>
   </trkpt>
   <trkpt lat="-3.1407970" lon="37.3720390">
    <ele>3561.3</ele>
    <time>2026-06-23T11:39:36Z</time>
   </trkpt>
   <trkpt lat="-3.1408040" lon="37.3720390">
    <ele>3561.2</ele>
    <time>2026-06-23T11:39:37Z</time>
   </trkpt>
   <trkpt lat="-3.1408110" lon="37.3720400">
    <ele>3561.0</ele>
    <time>2026-06-23T11:39:38Z</time>
   </trkpt>
   <trkpt lat="-3.1408140" lon="37.3720400">
    <ele>3560.9</ele>
    <time>2026-06-23T11:39:39Z</time>
   </trkpt>
   <trkpt lat="-3.1408200" lon="37.3720390">
    <ele>3560.8</ele>
    <time>2026-06-23T11:39:40Z</time>
   </trkpt>
   <trkpt lat="-3.1408250" lon="37.3720370">
    <ele>3560.7</ele>
    <time>2026-06-23T11:39:41Z</time>
   </trkpt>
   <trkpt lat="-3.1408330" lon="37.3720350">
    <ele>3560.5</ele>
    <time>2026-06-23T11:39:42Z</time>
   </trkpt>
   <trkpt lat="-3.1408400" lon="37.3720350">
    <ele>3560.4</ele>
    <time>2026-06-23T11:39:43Z</time>
   </trkpt>
   <trkpt lat="-3.1408480" lon="37.3720340">
    <ele>3560.2</ele>
    <time>2026-06-23T11:39:44Z</time>
   </trkpt>
   <trkpt lat="-3.1408540" lon="37.3720330">
    <ele>3560.1</ele>
    <time>2026-06-23T11:39:45Z</time>
   </trkpt>
   <trkpt lat="-3.1408620" lon="37.3720340">
    <ele>3559.9</ele>
    <time>2026-06-23T11:39:46Z</time>
   </trkpt>
   <trkpt lat="-3.1408660" lon="37.3720350">
    <ele>3559.9</ele>
    <time>2026-06-23T11:39:47Z</time>
   </trkpt>
   <trkpt lat="-3.1408740" lon="37.3720350">
    <ele>3559.7</ele>
    <time>2026-06-23T11:39:49Z</time>
   </trkpt>
   <trkpt lat="-3.1408790" lon="37.3720350">
    <ele>3559.6</ele>
    <time>2026-06-23T11:39:50Z</time>
   </trkpt>
   <trkpt lat="-3.1408840" lon="37.3720340">
    <ele>3559.5</ele>
    <time>2026-06-23T11:39:51Z</time>
   </trkpt>
   <trkpt lat="-3.1408910" lon="37.3720350">
    <ele>3559.4</ele>
    <time>2026-06-23T11:39:52Z</time>
   </trkpt>
   <trkpt lat="-3.1408990" lon="37.3720360">
    <ele>3559.2</ele>
    <time>2026-06-23T11:39:53Z</time>
   </trkpt>
   <trkpt lat="-3.1409060" lon="37.3720370">
    <ele>3559.1</ele>
    <time>2026-06-23T11:39:54Z</time>
   </trkpt>
   <trkpt lat="-3.1409130" lon="37.3720370">
    <ele>3559.0</ele>
    <time>2026-06-23T11:39:55Z</time>
   </trkpt>
   <trkpt lat="-3.1409200" lon="37.3720370">
    <ele>3558.8</ele>
    <time>2026-06-23T11:39:56Z</time>
   </trkpt>
   <trkpt lat="-3.1409290" lon="37.3720380">
    <ele>3558.7</ele>
    <time>2026-06-23T11:39:57Z</time>
   </trkpt>
   <trkpt lat="-3.1409360" lon="37.3720370">
    <ele>3558.5</ele>
    <time>2026-06-23T11:39:58Z</time>
   </trkpt>
   <trkpt lat="-3.1409440" lon="37.3720370">
    <ele>3558.4</ele>
    <time>2026-06-23T11:39:59Z</time>
   </trkpt>
   <trkpt lat="-3.1409510" lon="37.3720370">
    <ele>3558.3</ele>
    <time>2026-06-23T11:40:00Z</time>
   </trkpt>
   <trkpt lat="-3.1409570" lon="37.3720370">
    <ele>3558.2</ele>
    <time>2026-06-23T11:40:01Z</time>
   </trkpt>
   <trkpt lat="-3.1409650" lon="37.3720350">
    <ele>3558.0</ele>
    <time>2026-06-23T11:40:02Z</time>
   </trkpt>
   <trkpt lat="-3.1409720" lon="37.3720340">
    <ele>3557.9</ele>
    <time>2026-06-23T11:40:03Z</time>
   </trkpt>
   <trkpt lat="-3.1409790" lon="37.3720340">
    <ele>3557.8</ele>
    <time>2026-06-23T11:40:04Z</time>
   </trkpt>
   <trkpt lat="-3.1409860" lon="37.3720350">
    <ele>3557.6</ele>
    <time>2026-06-23T11:40:05Z</time>
   </trkpt>
   <trkpt lat="-3.1409930" lon="37.3720360">
    <ele>3557.5</ele>
    <time>2026-06-23T11:40:06Z</time>
   </trkpt>
   <trkpt lat="-3.1410000" lon="37.3720390">
    <ele>3557.4</ele>
    <time>2026-06-23T11:40:07Z</time>
   </trkpt>
   <trkpt lat="-3.1410010" lon="37.3720410">
    <ele>3557.4</ele>
    <time>2026-06-23T11:40:08Z</time>
   </trkpt>
   <trkpt lat="-3.1410120" lon="37.3720450">
    <ele>3557.2</ele>
    <time>2026-06-23T11:40:09Z</time>
   </trkpt>
   <trkpt lat="-3.1410290" lon="37.3720500">
    <ele>3556.9</ele>
    <time>2026-06-23T11:40:10Z</time>
   </trkpt>
   <trkpt lat="-3.1410360" lon="37.3720500">
    <ele>3556.8</ele>
    <time>2026-06-23T11:40:11Z</time>
   </trkpt>
   <trkpt lat="-3.1410450" lon="37.3720530">
    <ele>3556.6</ele>
    <time>2026-06-23T11:40:12Z</time>
   </trkpt>
   <trkpt lat="-3.1410480" lon="37.3720550">
    <ele>3556.6</ele>
    <time>2026-06-23T11:40:13Z</time>
   </trkpt>
   <trkpt lat="-3.1410570" lon="37.3720580">
    <ele>3556.4</ele>
    <time>2026-06-23T11:40:14Z</time>
   </trkpt>
   <trkpt lat="-3.1410660" lon="37.3720580">
    <ele>3556.3</ele>
    <time>2026-06-23T11:40:15Z</time>
   </trkpt>
   <trkpt lat="-3.1410740" lon="37.3720580">
    <ele>3556.1</ele>
    <time>2026-06-23T11:40:16Z</time>
   </trkpt>
   <trkpt lat="-3.1410820" lon="37.3720600">
    <ele>3556.0</ele>
    <time>2026-06-23T11:40:17Z</time>
   </trkpt>
   <trkpt lat="-3.1410880" lon="37.3720620">
    <ele>3555.9</ele>
    <time>2026-06-23T11:40:18Z</time>
   </trkpt>
   <trkpt lat="-3.1410960" lon="37.3720640">
    <ele>3555.8</ele>
    <time>2026-06-23T11:40:19Z</time>
   </trkpt>
   <trkpt lat="-3.1411010" lon="37.3720640">
    <ele>3555.7</ele>
    <time>2026-06-23T11:40:20Z</time>
   </trkpt>
   <trkpt lat="-3.1411060" lon="37.3720620">
    <ele>3555.6</ele>
    <time>2026-06-23T11:40:21Z</time>
   </trkpt>
   <trkpt lat="-3.1411140" lon="37.3720600">
    <ele>3555.5</ele>
    <time>2026-06-23T11:40:22Z</time>
   </trkpt>
   <trkpt lat="-3.1411230" lon="37.3720620">
    <ele>3555.4</ele>
    <time>2026-06-23T11:40:23Z</time>
   </trkpt>
   <trkpt lat="-3.1411300" lon="37.3720610">
    <ele>3555.3</ele>
    <time>2026-06-23T11:40:24Z</time>
   </trkpt>
   <trkpt lat="-3.1411360" lon="37.3720590">
    <ele>3555.2</ele>
    <time>2026-06-23T11:40:25Z</time>
   </trkpt>
   <trkpt lat="-3.1411430" lon="37.3720570">
    <ele>3555.1</ele>
    <time>2026-06-23T11:40:26Z</time>
   </trkpt>
   <trkpt lat="-3.1411520" lon="37.3720540">
    <ele>3554.9</ele>
    <time>2026-06-23T11:40:27Z</time>
   </trkpt>
   <trkpt lat="-3.1411620" lon="37.3720520">
    <ele>3554.8</ele>
    <time>2026-06-23T11:40:28Z</time>
   </trkpt>
   <trkpt lat="-3.1411710" lon="37.3720510">
    <ele>3554.6</ele>
    <time>2026-06-23T11:40:29Z</time>
   </trkpt>
   <trkpt lat="-3.1411780" lon="37.3720470">
    <ele>3554.5</ele>
    <time>2026-06-23T11:40:30Z</time>
   </trkpt>
   <trkpt lat="-3.1411880" lon="37.3720470">
    <ele>3554.4</ele>
    <time>2026-06-23T11:40:31Z</time>
   </trkpt>
   <trkpt lat="-3.1411950" lon="37.3720460">
    <ele>3554.3</ele>
    <time>2026-06-23T11:40:32Z</time>
   </trkpt>
   <trkpt lat="-3.1412000" lon="37.3720480">
    <ele>3554.2</ele>
    <time>2026-06-23T11:40:33Z</time>
   </trkpt>
   <trkpt lat="-3.1412050" lon="37.3720530">
    <ele>3554.1</ele>
    <time>2026-06-23T11:40:34Z</time>
   </trkpt>
   <trkpt lat="-3.1412120" lon="37.3720570">
    <ele>3554.0</ele>
    <time>2026-06-23T11:40:35Z</time>
   </trkpt>
   <trkpt lat="-3.1412190" lon="37.3720550">
    <ele>3553.9</ele>
    <time>2026-06-23T11:40:36Z</time>
   </trkpt>
   <trkpt lat="-3.1412330" lon="37.3720520">
    <ele>3553.7</ele>
    <time>2026-06-23T11:40:37Z</time>
   </trkpt>
   <trkpt lat="-3.1412420" lon="37.3720520">
    <ele>3553.6</ele>
    <time>2026-06-23T11:40:38Z</time>
   </trkpt>
   <trkpt lat="-3.1412490" lon="37.3720530">
    <ele>3553.5</ele>
    <time>2026-06-23T11:40:39Z</time>
   </trkpt>
   <trkpt lat="-3.1412580" lon="37.3720520">
    <ele>3553.3</ele>
    <time>2026-06-23T11:40:40Z</time>
   </trkpt>
   <trkpt lat="-3.1412630" lon="37.3720480">
    <ele>3553.2</ele>
    <time>2026-06-23T11:40:41Z</time>
   </trkpt>
   <trkpt lat="-3.1412710" lon="37.3720440">
    <ele>3553.1</ele>
    <time>2026-06-23T11:40:42Z</time>
   </trkpt>
   <trkpt lat="-3.1412740" lon="37.3720430">
    <ele>3553.1</ele>
    <time>2026-06-23T11:40:43Z</time>
   </trkpt>
   <trkpt lat="-3.1412840" lon="37.3720440">
    <ele>3552.9</ele>
    <time>2026-06-23T11:40:44Z</time>
   </trkpt>
   <trkpt lat="-3.1412900" lon="37.3720450">
    <ele>3552.8</ele>
    <time>2026-06-23T11:40:45Z</time>
   </trkpt>
   <trkpt lat="-3.1412980" lon="37.3720480">
    <ele>3552.7</ele>
    <time>2026-06-23T11:40:46Z</time>
   </trkpt>
   <trkpt lat="-3.1413100" lon="37.3720520">
    <ele>3552.5</ele>
    <time>2026-06-23T11:40:47Z</time>
   </trkpt>
   <trkpt lat="-3.1413160" lon="37.3720520">
    <ele>3552.4</ele>
    <time>2026-06-23T11:40:48Z</time>
   </trkpt>
   <trkpt lat="-3.1413220" lon="37.3720490">
    <ele>3552.4</ele>
    <time>2026-06-23T11:40:49Z</time>
   </trkpt>
   <trkpt lat="-3.1413260" lon="37.3720460">
    <ele>3552.3</ele>
    <time>2026-06-23T11:40:50Z</time>
   </trkpt>
   <trkpt lat="-3.1413280" lon="37.3720430">
    <ele>3552.2</ele>
    <time>2026-06-23T11:40:51Z</time>
   </trkpt>
   <trkpt lat="-3.1413340" lon="37.3720380">
    <ele>3552.1</ele>
    <time>2026-06-23T11:40:52Z</time>
   </trkpt>
   <trkpt lat="-3.1413420" lon="37.3720380">
    <ele>3552.0</ele>
    <time>2026-06-23T11:40:53Z</time>
   </trkpt>
   <trkpt lat="-3.1413510" lon="37.3720400">
    <ele>3551.9</ele>
    <time>2026-06-23T11:40:54Z</time>
   </trkpt>
   <trkpt lat="-3.1413570" lon="37.3720390">
    <ele>3551.8</ele>
    <time>2026-06-23T11:40:55Z</time>
   </trkpt>
   <trkpt lat="-3.1413660" lon="37.3720420">
    <ele>3551.6</ele>
    <time>2026-06-23T11:40:56Z</time>
   </trkpt>
   <trkpt lat="-3.1413730" lon="37.3720470">
    <ele>3551.5</ele>
    <time>2026-06-23T11:40:57Z</time>
   </trkpt>
   <trkpt lat="-3.1413790" lon="37.3720530">
    <ele>3551.4</ele>
    <time>2026-06-23T11:40:58Z</time>
   </trkpt>
   <trkpt lat="-3.1413800" lon="37.3720560">
    <ele>3551.3</ele>
    <time>2026-06-23T11:40:59Z</time>
   </trkpt>
   <trkpt lat="-3.1413850" lon="37.3720630">
    <ele>3551.2</ele>
    <time>2026-06-23T11:41:00Z</time>
   </trkpt>
   <trkpt lat="-3.1413880" lon="37.3720630">
    <ele>3551.1</ele>
    <time>2026-06-23T11:41:01Z</time>
   </trkpt>
   <trkpt lat="-3.1413930" lon="37.3720600">
    <ele>3551.0</ele>
    <time>2026-06-23T11:41:02Z</time>
   </trkpt>
   <trkpt lat="-3.1414030" lon="37.3720560">
    <ele>3550.9</ele>
    <time>2026-06-23T11:41:03Z</time>
   </trkpt>
   <trkpt lat="-3.1414150" lon="37.3720530">
    <ele>3550.7</ele>
    <time>2026-06-23T11:41:04Z</time>
   </trkpt>
   <trkpt lat="-3.1414270" lon="37.3720560">
    <ele>3550.4</ele>
    <time>2026-06-23T11:41:05Z</time>
   </trkpt>
   <trkpt lat="-3.1414330" lon="37.3720540">
    <ele>3550.3</ele>
    <time>2026-06-23T11:41:06Z</time>
   </trkpt>
   <trkpt lat="-3.1414390" lon="37.3720500">
    <ele>3550.2</ele>
    <time>2026-06-23T11:41:07Z</time>
   </trkpt>
   <trkpt lat="-3.1414420" lon="37.3720520">
    <ele>3550.2</ele>
    <time>2026-06-23T11:41:08Z</time>
   </trkpt>
   <trkpt lat="-3.1414490" lon="37.3720500">
    <ele>3550.0</ele>
    <time>2026-06-23T11:41:09Z</time>
   </trkpt>
   <trkpt lat="-3.1414550" lon="37.3720450">
    <ele>3549.9</ele>
    <time>2026-06-23T11:41:10Z</time>
   </trkpt>
   <trkpt lat="-3.1414640" lon="37.3720410">
    <ele>3549.7</ele>
    <time>2026-06-23T11:41:11Z</time>
   </trkpt>
   <trkpt lat="-3.1414720" lon="37.3720410">
    <ele>3549.6</ele>
    <time>2026-06-23T11:41:12Z</time>
   </trkpt>
   <trkpt lat="-3.1414780" lon="37.3720390">
    <ele>3549.5</ele>
    <time>2026-06-23T11:41:13Z</time>
   </trkpt>
   <trkpt lat="-3.1414870" lon="37.3720350">
    <ele>3549.3</ele>
    <time>2026-06-23T11:41:14Z</time>
   </trkpt>
   <trkpt lat="-3.1414900" lon="37.3720360">
    <ele>3549.2</ele>
    <time>2026-06-23T11:41:15Z</time>
   </trkpt>
   <trkpt lat="-3.1414920" lon="37.3720330">
    <ele>3549.2</ele>
    <time>2026-06-23T11:41:16Z</time>
   </trkpt>
   <trkpt lat="-3.1414960" lon="37.3720300">
    <ele>3549.1</ele>
    <time>2026-06-23T11:41:17Z</time>
   </trkpt>
   <trkpt lat="-3.1415030" lon="37.3720250">
    <ele>3548.9</ele>
    <time>2026-06-23T11:41:18Z</time>
   </trkpt>
   <trkpt lat="-3.1415060" lon="37.3720260">
    <ele>3548.9</ele>
    <time>2026-06-23T11:41:19Z</time>
   </trkpt>
   <trkpt lat="-3.1415180" lon="37.3720220">
    <ele>3548.6</ele>
    <time>2026-06-23T11:41:20Z</time>
   </trkpt>
   <trkpt lat="-3.1415260" lon="37.3720220">
    <ele>3548.5</ele>
    <time>2026-06-23T11:41:21Z</time>
   </trkpt>
   <trkpt lat="-3.1415320" lon="37.3720210">
    <ele>3548.4</ele>
    <time>2026-06-23T11:41:22Z</time>
   </trkpt>
   <trkpt lat="-3.1415350" lon="37.3720230">
    <ele>3548.3</ele>
    <time>2026-06-23T11:41:23Z</time>
   </trkpt>
   <trkpt lat="-3.1415400" lon="37.3720240">
    <ele>3548.2</ele>
    <time>2026-06-23T11:41:24Z</time>
   </trkpt>
   <trkpt lat="-3.1415480" lon="37.3720240">
    <ele>3548.1</ele>
    <time>2026-06-23T11:41:25Z</time>
   </trkpt>
   <trkpt lat="-3.1415560" lon="37.3720250">
    <ele>3547.9</ele>
    <time>2026-06-23T11:41:26Z</time>
   </trkpt>
   <trkpt lat="-3.1415620" lon="37.3720230">
    <ele>3547.8</ele>
    <time>2026-06-23T11:41:27Z</time>
   </trkpt>
   <trkpt lat="-3.1415690" lon="37.3720210">
    <ele>3547.7</ele>
    <time>2026-06-23T11:41:28Z</time>
   </trkpt>
   <trkpt lat="-3.1415730" lon="37.3720190">
    <ele>3547.6</ele>
    <time>2026-06-23T11:41:29Z</time>
   </trkpt>
   <trkpt lat="-3.1415830" lon="37.3720170">
    <ele>3547.4</ele>
    <time>2026-06-23T11:41:30Z</time>
   </trkpt>
   <trkpt lat="-3.1415890" lon="37.3720170">
    <ele>3547.3</ele>
    <time>2026-06-23T11:41:31Z</time>
   </trkpt>
   <trkpt lat="-3.1415950" lon="37.3720160">
    <ele>3547.2</ele>
    <time>2026-06-23T11:41:32Z</time>
   </trkpt>
   <trkpt lat="-3.1416030" lon="37.3720150">
    <ele>3547.0</ele>
    <time>2026-06-23T11:41:33Z</time>
   </trkpt>
   <trkpt lat="-3.1416090" lon="37.3720160">
    <ele>3546.9</ele>
    <time>2026-06-23T11:41:34Z</time>
   </trkpt>
   <trkpt lat="-3.1416150" lon="37.3720160">
    <ele>3546.8</ele>
    <time>2026-06-23T11:41:35Z</time>
   </trkpt>
   <trkpt lat="-3.1416210" lon="37.3720150">
    <ele>3546.7</ele>
    <time>2026-06-23T11:41:36Z</time>
   </trkpt>
   <trkpt lat="-3.1416300" lon="37.3720150">
    <ele>3546.6</ele>
    <time>2026-06-23T11:41:37Z</time>
   </trkpt>
   <trkpt lat="-3.1416360" lon="37.3720130">
    <ele>3546.4</ele>
    <time>2026-06-23T11:41:38Z</time>
   </trkpt>
   <trkpt lat="-3.1416440" lon="37.3720090">
    <ele>3546.3</ele>
    <time>2026-06-23T11:41:39Z</time>
   </trkpt>
   <trkpt lat="-3.1416550" lon="37.3720050">
    <ele>3546.1</ele>
    <time>2026-06-23T11:41:40Z</time>
   </trkpt>
   <trkpt lat="-3.1416600" lon="37.3720030">
    <ele>3546.0</ele>
    <time>2026-06-23T11:41:41Z</time>
   </trkpt>
   <trkpt lat="-3.1416630" lon="37.3720020">
    <ele>3545.9</ele>
    <time>2026-06-23T11:41:42Z</time>
   </trkpt>
   <trkpt lat="-3.1416670" lon="37.3719980">
    <ele>3545.8</ele>
    <time>2026-06-23T11:41:43Z</time>
   </trkpt>
   <trkpt lat="-3.1416720" lon="37.3719960">
    <ele>3545.7</ele>
    <time>2026-06-23T11:41:44Z</time>
   </trkpt>
   <trkpt lat="-3.1416790" lon="37.3719930">
    <ele>3545.6</ele>
    <time>2026-06-23T11:41:45Z</time>
   </trkpt>
   <trkpt lat="-3.1416860" lon="37.3719920">
    <ele>3545.4</ele>
    <time>2026-06-23T11:41:46Z</time>
   </trkpt>
   <trkpt lat="-3.1416880" lon="37.3719930">
    <ele>3545.4</ele>
    <time>2026-06-23T11:41:47Z</time>
   </trkpt>
   <trkpt lat="-3.1416970" lon="37.3719900">
    <ele>3545.2</ele>
    <time>2026-06-23T11:41:48Z</time>
   </trkpt>
   <trkpt lat="-3.1417050" lon="37.3719860">
    <ele>3545.1</ele>
    <time>2026-06-23T11:41:49Z</time>
   </trkpt>
   <trkpt lat="-3.1417130" lon="37.3719830">
    <ele>3544.9</ele>
    <time>2026-06-23T11:41:50Z</time>
   </trkpt>
   <trkpt lat="-3.1417180" lon="37.3719790">
    <ele>3544.8</ele>
    <time>2026-06-23T11:41:51Z</time>
   </trkpt>
   <trkpt lat="-3.1417220" lon="37.3719760">
    <ele>3544.7</ele>
    <time>2026-06-23T11:41:52Z</time>
   </trkpt>
   <trkpt lat="-3.1417270" lon="37.3719720">
    <ele>3544.6</ele>
    <time>2026-06-23T11:41:53Z</time>
   </trkpt>
   <trkpt lat="-3.1417340" lon="37.3719660">
    <ele>3544.4</ele>
    <time>2026-06-23T11:41:55Z</time>
   </trkpt>
   <trkpt lat="-3.1417400" lon="37.3719630">
    <ele>3544.3</ele>
    <time>2026-06-23T11:41:56Z</time>
   </trkpt>
   <trkpt lat="-3.1417460" lon="37.3719600">
    <ele>3544.2</ele>
    <time>2026-06-23T11:41:57Z</time>
   </trkpt>
   <trkpt lat="-3.1417510" lon="37.3719580">
    <ele>3544.1</ele>
    <time>2026-06-23T11:41:58Z</time>
   </trkpt>
   <trkpt lat="-3.1417580" lon="37.3719570">
    <ele>3544.0</ele>
    <time>2026-06-23T11:41:59Z</time>
   </trkpt>
   <trkpt lat="-3.1417660" lon="37.3719530">
    <ele>3543.8</ele>
    <time>2026-06-23T11:42:00Z</time>
   </trkpt>
   <trkpt lat="-3.1417710" lon="37.3719490">
    <ele>3543.7</ele>
    <time>2026-06-23T11:42:01Z</time>
   </trkpt>
   <trkpt lat="-3.1417710" lon="37.3719450">
    <ele>3543.6</ele>
    <time>2026-06-23T11:42:02Z</time>
   </trkpt>
   <trkpt lat="-3.1417760" lon="37.3719380">
    <ele>3543.4</ele>
    <time>2026-06-23T11:42:03Z</time>
   </trkpt>
   <trkpt lat="-3.1417780" lon="37.3719340">
    <ele>3543.3</ele>
    <time>2026-06-23T11:42:04Z</time>
   </trkpt>
   <trkpt lat="-3.1417810" lon="37.3719320">
    <ele>3543.3</ele>
    <time>2026-06-23T11:42:05Z</time>
   </trkpt>
   <trkpt lat="-3.1417880" lon="37.3719270">
    <ele>3543.1</ele>
    <time>2026-06-23T11:42:06Z</time>
   </trkpt>
   <trkpt lat="-3.1417930" lon="37.3719220">
    <ele>3543.0</ele>
    <time>2026-06-23T11:42:07Z</time>
   </trkpt>
   <trkpt lat="-3.1417970" lon="37.3719200">
    <ele>3542.9</ele>
    <time>2026-06-23T11:42:08Z</time>
   </trkpt>
   <trkpt lat="-3.1418000" lon="37.3719170">
    <ele>3542.8</ele>
    <time>2026-06-23T11:42:09Z</time>
   </trkpt>
   <trkpt lat="-3.1418000" lon="37.3719080">
    <ele>3542.6</ele>
    <time>2026-06-23T11:42:10Z</time>
   </trkpt>
   <trkpt lat="-3.1418010" lon="37.3719020">
    <ele>3542.5</ele>
    <time>2026-06-23T11:42:11Z</time>
   </trkpt>
   <trkpt lat="-3.1418060" lon="37.3719000">
    <ele>3542.4</ele>
    <time>2026-06-23T11:42:12Z</time>
   </trkpt>
   <trkpt lat="-3.1418040" lon="37.3719010">
    <ele>3542.3</ele>
    <time>2026-06-23T11:42:13Z</time>
   </trkpt>
   <trkpt lat="-3.1418040" lon="37.3719010">
    <ele>3542.3</ele>
    <time>2026-06-23T11:42:14Z</time>
   </trkpt>
   <trkpt lat="-3.1418070" lon="37.3719010">
    <ele>3542.2</ele>
    <time>2026-06-23T11:42:15Z</time>
   </trkpt>
   <trkpt lat="-3.1418080" lon="37.3719000">
    <ele>3542.2</ele>
    <time>2026-06-23T11:42:16Z</time>
   </trkpt>
   <trkpt lat="-3.1418090" lon="37.3719010">
    <ele>3542.2</ele>
    <time>2026-06-23T11:42:17Z</time>
   </trkpt>
   <trkpt lat="-3.1418090" lon="37.3719000">
    <ele>3542.2</ele>
    <time>2026-06-23T11:42:18Z</time>
   </trkpt>
   <trkpt lat="-3.1418140" lon="37.3718990">
    <ele>3542.1</ele>
    <time>2026-06-23T11:42:19Z</time>
   </trkpt>
   <trkpt lat="-3.1418140" lon="37.3718990">
    <ele>3542.1</ele>
    <time>2026-06-23T11:42:20Z</time>
   </trkpt>
   <trkpt lat="-3.1418240" lon="37.3718950">
    <ele>3541.8</ele>
    <time>2026-06-23T11:42:21Z</time>
   </trkpt>
   <trkpt lat="-3.1418270" lon="37.3718950">
    <ele>3541.7</ele>
    <time>2026-06-23T11:42:22Z</time>
   </trkpt>
   <trkpt lat="-3.1418330" lon="37.3718960">
    <ele>3541.6</ele>
    <time>2026-06-23T11:42:23Z</time>
   </trkpt>
   <trkpt lat="-3.1418370" lon="37.3718940">
    <ele>3541.5</ele>
    <time>2026-06-23T11:42:24Z</time>
   </trkpt>
   <trkpt lat="-3.1418400" lon="37.3718910">
    <ele>3541.4</ele>
    <time>2026-06-23T11:42:25Z</time>
   </trkpt>
   <trkpt lat="-3.1418420" lon="37.3718910">
    <ele>3541.3</ele>
    <time>2026-06-23T11:42:26Z</time>
   </trkpt>
   <trkpt lat="-3.1418440" lon="37.3718900">
    <ele>3541.3</ele>
    <time>2026-06-23T11:42:27Z</time>
   </trkpt>
   <trkpt lat="-3.1418500" lon="37.3718890">
    <ele>3541.1</ele>
    <time>2026-06-23T11:42:28Z</time>
   </trkpt>
   <trkpt lat="-3.1418560" lon="37.3718870">
    <ele>3541.0</ele>
    <time>2026-06-23T11:42:29Z</time>
   </trkpt>
   <trkpt lat="-3.1418610" lon="37.3718880">
    <ele>3540.8</ele>
    <time>2026-06-23T11:42:30Z</time>
   </trkpt>
   <trkpt lat="-3.1418620" lon="37.3718900">
    <ele>3540.8</ele>
    <time>2026-06-23T11:42:31Z</time>
   </trkpt>
   <trkpt lat="-3.1418680" lon="37.3718900">
    <ele>3540.6</ele>
    <time>2026-06-23T11:42:32Z</time>
   </trkpt>
   <trkpt lat="-3.1418720" lon="37.3718890">
    <ele>3540.5</ele>
    <time>2026-06-23T11:42:33Z</time>
   </trkpt>
   <trkpt lat="-3.1418780" lon="37.3718900">
    <ele>3540.4</ele>
    <time>2026-06-23T11:42:34Z</time>
   </trkpt>
   <trkpt lat="-3.1418830" lon="37.3718930">
    <ele>3540.2</ele>
    <time>2026-06-23T11:42:35Z</time>
   </trkpt>
   <trkpt lat="-3.1418900" lon="37.3718960">
    <ele>3540.0</ele>
    <time>2026-06-23T11:42:36Z</time>
   </trkpt>
   <trkpt lat="-3.1418950" lon="37.3718990">
    <ele>3539.8</ele>
    <time>2026-06-23T11:42:37Z</time>
   </trkpt>
   <trkpt lat="-3.1418970" lon="37.3719000">
    <ele>3539.8</ele>
    <time>2026-06-23T11:42:38Z</time>
   </trkpt>
   <trkpt lat="-3.1418980" lon="37.3719030">
    <ele>3539.7</ele>
    <time>2026-06-23T11:42:39Z</time>
   </trkpt>
   <trkpt lat="-3.1418990" lon="37.3719070">
    <ele>3539.6</ele>
    <time>2026-06-23T11:42:40Z</time>
   </trkpt>
   <trkpt lat="-3.1419020" lon="37.3719100">
    <ele>3539.5</ele>
    <time>2026-06-23T11:42:41Z</time>
   </trkpt>
   <trkpt lat="-3.1419070" lon="37.3719130">
    <ele>3539.3</ele>
    <time>2026-06-23T11:42:42Z</time>
   </trkpt>
   <trkpt lat="-3.1419180" lon="37.3719110">
    <ele>3539.0</ele>
    <time>2026-06-23T11:42:43Z</time>
   </trkpt>
   <trkpt lat="-3.1419210" lon="37.3719110">
    <ele>3538.9</ele>
    <time>2026-06-23T11:42:44Z</time>
   </trkpt>
   <trkpt lat="-3.1419230" lon="37.3719080">
    <ele>3538.8</ele>
    <time>2026-06-23T11:42:45Z</time>
   </trkpt>
   <trkpt lat="-3.1419280" lon="37.3719040">
    <ele>3538.6</ele>
    <time>2026-06-23T11:42:46Z</time>
   </trkpt>
   <trkpt lat="-3.1419330" lon="37.3719040">
    <ele>3538.5</ele>
    <time>2026-06-23T11:42:47Z</time>
   </trkpt>
   <trkpt lat="-3.1419370" lon="37.3719050">
    <ele>3538.3</ele>
    <time>2026-06-23T11:42:48Z</time>
   </trkpt>
   <trkpt lat="-3.1419410" lon="37.3719050">
    <ele>3538.2</ele>
    <time>2026-06-23T11:42:49Z</time>
   </trkpt>
   <trkpt lat="-3.1419490" lon="37.3719070">
    <ele>3538.0</ele>
    <time>2026-06-23T11:42:50Z</time>
   </trkpt>
   <trkpt lat="-3.1419540" lon="37.3719090">
    <ele>3537.8</ele>
    <time>2026-06-23T11:42:51Z</time>
   </trkpt>
   <trkpt lat="-3.1419580" lon="37.3719080">
    <ele>3537.7</ele>
    <time>2026-06-23T11:42:52Z</time>
   </trkpt>
   <trkpt lat="-3.1419610" lon="37.3719060">
    <ele>3537.6</ele>
    <time>2026-06-23T11:42:53Z</time>
   </trkpt>
   <trkpt lat="-3.1419650" lon="37.3719050">
    <ele>3537.5</ele>
    <time>2026-06-23T11:42:54Z</time>
   </trkpt>
   <trkpt lat="-3.1419680" lon="37.3719020">
    <ele>3537.4</ele>
    <time>2026-06-23T11:42:55Z</time>
   </trkpt>
   <trkpt lat="-3.1419670" lon="37.3719010">
    <ele>3537.3</ele>
    <time>2026-06-23T11:42:56Z</time>
   </trkpt>
   <trkpt lat="-3.1419760" lon="37.3718980">
    <ele>3537.0</ele>
    <time>2026-06-23T11:42:57Z</time>
   </trkpt>
   <trkpt lat="-3.1419820" lon="37.3718970">
    <ele>3536.8</ele>
    <time>2026-06-23T11:42:58Z</time>
   </trkpt>
   <trkpt lat="-3.1419860" lon="37.3718950">
    <ele>3536.7</ele>
    <time>2026-06-23T11:42:59Z</time>
   </trkpt>
   <trkpt lat="-3.1419880" lon="37.3718910">
    <ele>3536.6</ele>
    <time>2026-06-23T11:43:00Z</time>
   </trkpt>
   <trkpt lat="-3.1419890" lon="37.3718890">
    <ele>3536.5</ele>
    <time>2026-06-23T11:43:01Z</time>
   </trkpt>
   <trkpt lat="-3.1419930" lon="37.3718820">
    <ele>3536.3</ele>
    <time>2026-06-23T11:43:02Z</time>
   </trkpt>
   <trkpt lat="-3.1419960" lon="37.3718820">
    <ele>3536.2</ele>
    <time>2026-06-23T11:43:03Z</time>
   </trkpt>
   <trkpt lat="-3.1420010" lon="37.3718820">
    <ele>3536.0</ele>
    <time>2026-06-23T11:43:04Z</time>
   </trkpt>
   <trkpt lat="-3.1420050" lon="37.3718830">
    <ele>3535.9</ele>
    <time>2026-06-23T11:43:05Z</time>
   </trkpt>
   <trkpt lat="-3.1420050" lon="37.3718870">
    <ele>3535.8</ele>
    <time>2026-06-23T11:43:06Z</time>
   </trkpt>
   <trkpt lat="-3.1420030" lon="37.3718930">
    <ele>3535.6</ele>
    <time>2026-06-23T11:43:07Z</time>
   </trkpt>
   <trkpt lat="-3.1420010" lon="37.3719000">
    <ele>3535.4</ele>
    <time>2026-06-23T11:43:08Z</time>
   </trkpt>
   <trkpt lat="-3.1420010" lon="37.3719000">
    <ele>3535.4</ele>
    <time>2026-06-23T11:43:09Z</time>
   </trkpt>
   <trkpt lat="-3.1420040" lon="37.3719050">
    <ele>3535.2</ele>
    <time>2026-06-23T11:43:10Z</time>
   </trkpt>
   <trkpt lat="-3.1420080" lon="37.3719070">
    <ele>3535.1</ele>
    <time>2026-06-23T11:43:11Z</time>
   </trkpt>
   <trkpt lat="-3.1420110" lon="37.3719090">
    <ele>3535.0</ele>
    <time>2026-06-23T11:43:12Z</time>
   </trkpt>
   <trkpt lat="-3.1420130" lon="37.3719100">
    <ele>3534.9</ele>
    <time>2026-06-23T11:43:13Z</time>
   </trkpt>
   <trkpt lat="-3.1420160" lon="37.3719090">
    <ele>3534.8</ele>
    <time>2026-06-23T11:43:14Z</time>
   </trkpt>
   <trkpt lat="-3.1420180" lon="37.3719090">
    <ele>3534.8</ele>
    <time>2026-06-23T11:43:15Z</time>
   </trkpt>
   <trkpt lat="-3.1420210" lon="37.3719080">
    <ele>3534.7</ele>
    <time>2026-06-23T11:43:16Z</time>
   </trkpt>
   <trkpt lat="-3.1420290" lon="37.3719080">
    <ele>3534.4</ele>
    <time>2026-06-23T11:43:17Z</time>
   </trkpt>
   <trkpt lat="-3.1420310" lon="37.3719080">
    <ele>3534.4</ele>
    <time>2026-06-23T11:43:18Z</time>
   </trkpt>
   <trkpt lat="-3.1420380" lon="37.3719090">
    <ele>3534.2</ele>
    <time>2026-06-23T11:43:19Z</time>
   </trkpt>
   <trkpt lat="-3.1420450" lon="37.3719080">
    <ele>3534.0</ele>
    <time>2026-06-23T11:43:20Z</time>
   </trkpt>
   <trkpt lat="-3.1420480" lon="37.3719080">
    <ele>3533.9</ele>
    <time>2026-06-23T11:43:21Z</time>
   </trkpt>
   <trkpt lat="-3.1420510" lon="37.3719080">
    <ele>3533.8</ele>
    <time>2026-06-23T11:43:22Z</time>
   </trkpt>
   <trkpt lat="-3.1420540" lon="37.3719040">
    <ele>3533.6</ele>
    <time>2026-06-23T11:43:23Z</time>
   </trkpt>
   <trkpt lat="-3.1420610" lon="37.3719030">
    <ele>3533.4</ele>
    <time>2026-06-23T11:43:24Z</time>
   </trkpt>
   <trkpt lat="-3.1420670" lon="37.3719030">
    <ele>3533.2</ele>
    <time>2026-06-23T11:43:25Z</time>
   </trkpt>
   <trkpt lat="-3.1420720" lon="37.3719030">
    <ele>3533.1</ele>
    <time>2026-06-23T11:43:26Z</time>
   </trkpt>
   <trkpt lat="-3.1420760" lon="37.3719020">
    <ele>3533.0</ele>
    <time>2026-06-23T11:43:27Z</time>
   </trkpt>
   <trkpt lat="-3.1420810" lon="37.3719030">
    <ele>3532.8</ele>
    <time>2026-06-23T11:43:28Z</time>
   </trkpt>
   <trkpt lat="-3.1420870" lon="37.3719060">
    <ele>3532.6</ele>
    <time>2026-06-23T11:43:29Z</time>
   </trkpt>
   <trkpt lat="-3.1420910" lon="37.3719070">
    <ele>3532.5</ele>
    <time>2026-06-23T11:43:30Z</time>
   </trkpt>
   <trkpt lat="-3.1420980" lon="37.3719050">
    <ele>3532.3</ele>
    <time>2026-06-23T11:43:31Z</time>
   </trkpt>
   <trkpt lat="-3.1421050" lon="37.3719020">
    <ele>3532.1</ele>
    <time>2026-06-23T11:43:32Z</time>
   </trkpt>
   <trkpt lat="-3.1421110" lon="37.3718980">
    <ele>3531.8</ele>
    <time>2026-06-23T11:43:33Z</time>
   </trkpt>
   <trkpt lat="-3.1421120" lon="37.3719020">
    <ele>3531.7</ele>
    <time>2026-06-23T11:43:34Z</time>
   </trkpt>
   <trkpt lat="-3.1421200" lon="37.3718970">
    <ele>3531.4</ele>
    <time>2026-06-23T11:43:35Z</time>
   </trkpt>
   <trkpt lat="-3.1421270" lon="37.3718950">
    <ele>3531.2</ele>
    <time>2026-06-23T11:43:36Z</time>
   </trkpt>
   <trkpt lat="-3.1421300" lon="37.3718930">
    <ele>3531.1</ele>
    <time>2026-06-23T11:43:37Z</time>
   </trkpt>
   <trkpt lat="-3.1421380" lon="37.3718910">
    <ele>3530.9</ele>
    <time>2026-06-23T11:43:38Z</time>
   </trkpt>
   <trkpt lat="-3.1421430" lon="37.3718910">
    <ele>3530.7</ele>
    <time>2026-06-23T11:43:39Z</time>
   </trkpt>
   <trkpt lat="-3.1421480" lon="37.3718890">
    <ele>3530.6</ele>
    <time>2026-06-23T11:43:40Z</time>
   </trkpt>
   <trkpt lat="-3.1421590" lon="37.3718870">
    <ele>3530.2</ele>
    <time>2026-06-23T11:43:41Z</time>
   </trkpt>
   <trkpt lat="-3.1421670" lon="37.3718860">
    <ele>3530.0</ele>
    <time>2026-06-23T11:43:42Z</time>
   </trkpt>
   <trkpt lat="-3.1421760" lon="37.3718830">
    <ele>3529.7</ele>
    <time>2026-06-23T11:43:43Z</time>
   </trkpt>
   <trkpt lat="-3.1421800" lon="37.3718790">
    <ele>3529.5</ele>
    <time>2026-06-23T11:43:44Z</time>
   </trkpt>
   <trkpt lat="-3.1421840" lon="37.3718750">
    <ele>3529.4</ele>
    <time>2026-06-23T11:43:45Z</time>
   </trkpt>
   <trkpt lat="-3.1421890" lon="37.3718710">
    <ele>3529.2</ele>
    <time>2026-06-23T11:43:46Z</time>
   </trkpt>
   <trkpt lat="-3.1421920" lon="37.3718680">
    <ele>3529.0</ele>
    <time>2026-06-23T11:43:47Z</time>
   </trkpt>
   <trkpt lat="-3.1421980" lon="37.3718650">
    <ele>3528.8</ele>
    <time>2026-06-23T11:43:48Z</time>
   </trkpt>
   <trkpt lat="-3.1422050" lon="37.3718620">
    <ele>3528.6</ele>
    <time>2026-06-23T11:43:49Z</time>
   </trkpt>
   <trkpt lat="-3.1422130" lon="37.3718610">
    <ele>3528.4</ele>
    <time>2026-06-23T11:43:50Z</time>
   </trkpt>
   <trkpt lat="-3.1422160" lon="37.3718600">
    <ele>3528.3</ele>
    <time>2026-06-23T11:43:51Z</time>
   </trkpt>
   <trkpt lat="-3.1422230" lon="37.3718560">
    <ele>3528.0</ele>
    <time>2026-06-23T11:43:52Z</time>
   </trkpt>
   <trkpt lat="-3.1422310" lon="37.3718520">
    <ele>3527.8</ele>
    <time>2026-06-23T11:43:53Z</time>
   </trkpt>
   <trkpt lat="-3.1422360" lon="37.3718490">
    <ele>3527.6</ele>
    <time>2026-06-23T11:43:54Z</time>
   </trkpt>
   <trkpt lat="-3.1422390" lon="37.3718510">
    <ele>3527.5</ele>
    <time>2026-06-23T11:43:55Z</time>
   </trkpt>
   <trkpt lat="-3.1422410" lon="37.3718520">
    <ele>3527.4</ele>
    <time>2026-06-23T11:43:56Z</time>
   </trkpt>
   <trkpt lat="-3.1422460" lon="37.3718510">
    <ele>3527.3</ele>
    <time>2026-06-23T11:43:57Z</time>
   </trkpt>
   <trkpt lat="-3.1422530" lon="37.3718500">
    <ele>3527.0</ele>
    <time>2026-06-23T11:43:58Z</time>
   </trkpt>
   <trkpt lat="-3.1422580" lon="37.3718510">
    <ele>3526.9</ele>
    <time>2026-06-23T11:43:59Z</time>
   </trkpt>
   <trkpt lat="-3.1422640" lon="37.3718490">
    <ele>3526.7</ele>
    <time>2026-06-23T11:44:01Z</time>
   </trkpt>
   <trkpt lat="-3.1422710" lon="37.3718470">
    <ele>3526.5</ele>
    <time>2026-06-23T11:44:02Z</time>
   </trkpt>
   <trkpt lat="-3.1422770" lon="37.3718450">
    <ele>3526.3</ele>
    <time>2026-06-23T11:44:03Z</time>
   </trkpt>
   <trkpt lat="-3.1422830" lon="37.3718440">
    <ele>3526.1</ele>
    <time>2026-06-23T11:44:04Z</time>
   </trkpt>
   <trkpt lat="-3.1422900" lon="37.3718430">
    <ele>3525.9</ele>
    <time>2026-06-23T11:44:05Z</time>
   </trkpt>
   <trkpt lat="-3.1422960" lon="37.3718410">
    <ele>3525.7</ele>
    <time>2026-06-23T11:44:06Z</time>
   </trkpt>
   <trkpt lat="-3.1423020" lon="37.3718400">
    <ele>3525.5</ele>
    <time>2026-06-23T11:44:07Z</time>
   </trkpt>
   <trkpt lat="-3.1423090" lon="37.3718380">
    <ele>3525.3</ele>
    <time>2026-06-23T11:44:08Z</time>
   </trkpt>
   <trkpt lat="-3.1423160" lon="37.3718350">
    <ele>3525.1</ele>
    <time>2026-06-23T11:44:09Z</time>
   </trkpt>
   <trkpt lat="-3.1423220" lon="37.3718330">
    <ele>3524.9</ele>
    <time>2026-06-23T11:44:10Z</time>
   </trkpt>
   <trkpt lat="-3.1423280" lon="37.3718310">
    <ele>3524.7</ele>
    <time>2026-06-23T11:44:11Z</time>
   </trkpt>
   <trkpt lat="-3.1423320" lon="37.3718310">
    <ele>3524.6</ele>
    <time>2026-06-23T11:44:12Z</time>
   </trkpt>
   <trkpt lat="-3.1423400" lon="37.3718280">
    <ele>3524.3</ele>
    <time>2026-06-23T11:44:13Z</time>
   </trkpt>
   <trkpt lat="-3.1423460" lon="37.3718270">
    <ele>3524.1</ele>
    <time>2026-06-23T11:44:14Z</time>
   </trkpt>
   <trkpt lat="-3.1423520" lon="37.3718260">
    <ele>3523.9</ele>
    <time>2026-06-23T11:44:15Z</time>
   </trkpt>
   <trkpt lat="-3.1423590" lon="37.3718230">
    <ele>3523.7</ele>
    <time>2026-06-23T11:44:16Z</time>
   </trkpt>
   <trkpt lat="-3.1423680" lon="37.3718200">
    <ele>3523.4</ele>
    <time>2026-06-23T11:44:17Z</time>
   </trkpt>
   <trkpt lat="-3.1423780" lon="37.3718080">
    <ele>3523.0</ele>
    <time>2026-06-23T11:44:18Z</time>
   </trkpt>
   <trkpt lat="-3.1423850" lon="37.3718010">
    <ele>3522.7</ele>
    <time>2026-06-23T11:44:19Z</time>
   </trkpt>
   <trkpt lat="-3.1423880" lon="37.3717980">
    <ele>3522.6</ele>
    <time>2026-06-23T11:44:20Z</time>
   </trkpt>
   <trkpt lat="-3.1423950" lon="37.3717950">
    <ele>3522.3</ele>
    <time>2026-06-23T11:44:21Z</time>
   </trkpt>
   <trkpt lat="-3.1423980" lon="37.3717930">
    <ele>3522.2</ele>
    <time>2026-06-23T11:44:22Z</time>
   </trkpt>
   <trkpt lat="-3.1424040" lon="37.3717900">
    <ele>3522.0</ele>
    <time>2026-06-23T11:44:23Z</time>
   </trkpt>
   <trkpt lat="-3.1424110" lon="37.3717870">
    <ele>3521.8</ele>
    <time>2026-06-23T11:44:24Z</time>
   </trkpt>
   <trkpt lat="-3.1424140" lon="37.3717860">
    <ele>3521.7</ele>
    <time>2026-06-23T11:44:25Z</time>
   </trkpt>
   <trkpt lat="-3.1424190" lon="37.3717840">
    <ele>3521.6</ele>
    <time>2026-06-23T11:44:26Z</time>
   </trkpt>
   <trkpt lat="-3.1424260" lon="37.3717810">
    <ele>3521.3</ele>
    <time>2026-06-23T11:44:27Z</time>
   </trkpt>
   <trkpt lat="-3.1424300" lon="37.3717770">
    <ele>3521.2</ele>
    <time>2026-06-23T11:44:28Z</time>
   </trkpt>
   <trkpt lat="-3.1424360" lon="37.3717750">
    <ele>3521.0</ele>
    <time>2026-06-23T11:44:29Z</time>
   </trkpt>
   <trkpt lat="-3.1424350" lon="37.3717740">
    <ele>3521.0</ele>
    <time>2026-06-23T11:44:30Z</time>
   </trkpt>
   <trkpt lat="-3.1424390" lon="37.3717730">
    <ele>3520.8</ele>
    <time>2026-06-23T11:44:31Z</time>
   </trkpt>
   <trkpt lat="-3.1424450" lon="37.3717750">
    <ele>3520.7</ele>
    <time>2026-06-23T11:44:32Z</time>
   </trkpt>
   <trkpt lat="-3.1424500" lon="37.3717770">
    <ele>3520.5</ele>
    <time>2026-06-23T11:44:33Z</time>
   </trkpt>
   <trkpt lat="-3.1424540" lon="37.3717780">
    <ele>3520.4</ele>
    <time>2026-06-23T11:44:34Z</time>
   </trkpt>
   <trkpt lat="-3.1424590" lon="37.3717800">
    <ele>3520.2</ele>
    <time>2026-06-23T11:44:35Z</time>
   </trkpt>
   <trkpt lat="-3.1424650" lon="37.3717820">
    <ele>3520.0</ele>
    <time>2026-06-23T11:44:36Z</time>
   </trkpt>
   <trkpt lat="-3.1424710" lon="37.3717850">
    <ele>3519.8</ele>
    <time>2026-06-23T11:44:37Z</time>
   </trkpt>
   <trkpt lat="-3.1424770" lon="37.3717860">
    <ele>3519.7</ele>
    <time>2026-06-23T11:44:38Z</time>
   </trkpt>
   <trkpt lat="-3.1424860" lon="37.3717870">
    <ele>3519.4</ele>
    <time>2026-06-23T11:44:39Z</time>
   </trkpt>
   <trkpt lat="-3.1424940" lon="37.3717850">
    <ele>3519.2</ele>
    <time>2026-06-23T11:44:40Z</time>
   </trkpt>
   <trkpt lat="-3.1425010" lon="37.3717830">
    <ele>3518.9</ele>
    <time>2026-06-23T11:44:41Z</time>
   </trkpt>
   <trkpt lat="-3.1425070" lon="37.3717840">
    <ele>3518.8</ele>
    <time>2026-06-23T11:44:42Z</time>
   </trkpt>
   <trkpt lat="-3.1425140" lon="37.3717830">
    <ele>3518.6</ele>
    <time>2026-06-23T11:44:43Z</time>
   </trkpt>
   <trkpt lat="-3.1425180" lon="37.3717810">
    <ele>3518.4</ele>
    <time>2026-06-23T11:44:44Z</time>
   </trkpt>
   <trkpt lat="-3.1425260" lon="37.3717790">
    <ele>3518.2</ele>
    <time>2026-06-23T11:44:45Z</time>
   </trkpt>
   <trkpt lat="-3.1425250" lon="37.3717810">
    <ele>3518.1</ele>
    <time>2026-06-23T11:44:46Z</time>
   </trkpt>
   <trkpt lat="-3.1425320" lon="37.3717850">
    <ele>3517.9</ele>
    <time>2026-06-23T11:44:47Z</time>
   </trkpt>
   <trkpt lat="-3.1425410" lon="37.3717880">
    <ele>3517.6</ele>
    <time>2026-06-23T11:44:48Z</time>
   </trkpt>
   <trkpt lat="-3.1425460" lon="37.3717890">
    <ele>3517.5</ele>
    <time>2026-06-23T11:44:49Z</time>
   </trkpt>
   <trkpt lat="-3.1425530" lon="37.3717890">
    <ele>3517.3</ele>
    <time>2026-06-23T11:44:50Z</time>
   </trkpt>
   <trkpt lat="-3.1425590" lon="37.3717910">
    <ele>3517.1</ele>
    <time>2026-06-23T11:44:51Z</time>
   </trkpt>
   <trkpt lat="-3.1425650" lon="37.3717920">
    <ele>3516.9</ele>
    <time>2026-06-23T11:44:52Z</time>
   </trkpt>
   <trkpt lat="-3.1425700" lon="37.3717890">
    <ele>3516.7</ele>
    <time>2026-06-23T11:44:53Z</time>
   </trkpt>
   <trkpt lat="-3.1425750" lon="37.3717840">
    <ele>3516.5</ele>
    <time>2026-06-23T11:44:54Z</time>
   </trkpt>
   <trkpt lat="-3.1425810" lon="37.3717810">
    <ele>3516.3</ele>
    <time>2026-06-23T11:44:55Z</time>
   </trkpt>
   <trkpt lat="-3.1425860" lon="37.3717780">
    <ele>3516.2</ele>
    <time>2026-06-23T11:44:56Z</time>
   </trkpt>
   <trkpt lat="-3.1425850" lon="37.3717780">
    <ele>3516.1</ele>
    <time>2026-06-23T11:44:57Z</time>
   </trkpt>
   <trkpt lat="-3.1425890" lon="37.3717790">
    <ele>3516.0</ele>
    <time>2026-06-23T11:44:58Z</time>
   </trkpt>
   <trkpt lat="-3.1425920" lon="37.3717840">
    <ele>3515.9</ele>
    <time>2026-06-23T11:44:59Z</time>
   </trkpt>
   <trkpt lat="-3.1425970" lon="37.3717860">
    <ele>3515.7</ele>
    <time>2026-06-23T11:45:00Z</time>
   </trkpt>
   <trkpt lat="-3.1426030" lon="37.3717890">
    <ele>3515.5</ele>
    <time>2026-06-23T11:45:01Z</time>
   </trkpt>
   <trkpt lat="-3.1426080" lon="37.3717920">
    <ele>3515.4</ele>
    <time>2026-06-23T11:45:02Z</time>
   </trkpt>
   <trkpt lat="-3.1426160" lon="37.3717940">
    <ele>3515.1</ele>
    <time>2026-06-23T11:45:03Z</time>
   </trkpt>
   <trkpt lat="-3.1426220" lon="37.3717940">
    <ele>3515.0</ele>
    <time>2026-06-23T11:45:04Z</time>
   </trkpt>
   <trkpt lat="-3.1426280" lon="37.3717920">
    <ele>3514.8</ele>
    <time>2026-06-23T11:45:05Z</time>
   </trkpt>
   <trkpt lat="-3.1426360" lon="37.3717880">
    <ele>3514.5</ele>
    <time>2026-06-23T11:45:06Z</time>
   </trkpt>
   <trkpt lat="-3.1426450" lon="37.3717810">
    <ele>3514.2</ele>
    <time>2026-06-23T11:45:07Z</time>
   </trkpt>
   <trkpt lat="-3.1426500" lon="37.3717780">
    <ele>3514.1</ele>
    <time>2026-06-23T11:45:08Z</time>
   </trkpt>
   <trkpt lat="-3.1426520" lon="37.3717800">
    <ele>3514.0</ele>
    <time>2026-06-23T11:45:09Z</time>
   </trkpt>
   <trkpt lat="-3.1426580" lon="37.3717800">
    <ele>3513.8</ele>
    <time>2026-06-23T11:45:10Z</time>
   </trkpt>
   <trkpt lat="-3.1426590" lon="37.3717750">
    <ele>3513.7</ele>
    <time>2026-06-23T11:45:11Z</time>
   </trkpt>
   <trkpt lat="-3.1426670" lon="37.3717660">
    <ele>3513.3</ele>
    <time>2026-06-23T11:45:12Z</time>
   </trkpt>
   <trkpt lat="-3.1426670" lon="37.3717620">
    <ele>3513.2</ele>
    <time>2026-06-23T11:45:13Z</time>
   </trkpt>
   <trkpt lat="-3.1426690" lon="37.3717580">
    <ele>3513.1</ele>
    <time>2026-06-23T11:45:14Z</time>
   </trkpt>
   <trkpt lat="-3.1426740" lon="37.3717540">
    <ele>3512.9</ele>
    <time>2026-06-23T11:45:15Z</time>
   </trkpt>
   <trkpt lat="-3.1426770" lon="37.3717540">
    <ele>3512.9</ele>
    <time>2026-06-23T11:45:16Z</time>
   </trkpt>
   <trkpt lat="-3.1426840" lon="37.3717500">
    <ele>3512.6</ele>
    <time>2026-06-23T11:45:17Z</time>
   </trkpt>
   <trkpt lat="-3.1426880" lon="37.3717500">
    <ele>3512.5</ele>
    <time>2026-06-23T11:45:18Z</time>
   </trkpt>
   <trkpt lat="-3.1426930" lon="37.3717520">
    <ele>3512.4</ele>
    <time>2026-06-23T11:45:19Z</time>
   </trkpt>
   <trkpt lat="-3.1426980" lon="37.3717570">
    <ele>3512.2</ele>
    <time>2026-06-23T11:45:20Z</time>
   </trkpt>
   <trkpt lat="-3.1427000" lon="37.3717560">
    <ele>3512.1</ele>
    <time>2026-06-23T11:45:21Z</time>
   </trkpt>
   <trkpt lat="-3.1427060" lon="37.3717520">
    <ele>3511.9</ele>
    <time>2026-06-23T11:45:22Z</time>
   </trkpt>
   <trkpt lat="-3.1427120" lon="37.3717450">
    <ele>3511.7</ele>
    <time>2026-06-23T11:45:23Z</time>
   </trkpt>
   <trkpt lat="-3.1427140" lon="37.3717380">
    <ele>3511.5</ele>
    <time>2026-06-23T11:45:24Z</time>
   </trkpt>
   <trkpt lat="-3.1427150" lon="37.3717350">
    <ele>3511.4</ele>
    <time>2026-06-23T11:45:25Z</time>
   </trkpt>
   <trkpt lat="-3.1427170" lon="37.3717350">
    <ele>3511.4</ele>
    <time>2026-06-23T11:45:26Z</time>
   </trkpt>
   <trkpt lat="-3.1427250" lon="37.3717360">
    <ele>3511.1</ele>
    <time>2026-06-23T11:45:27Z</time>
   </trkpt>
   <trkpt lat="-3.1427290" lon="37.3717350">
    <ele>3511.0</ele>
    <time>2026-06-23T11:45:28Z</time>
   </trkpt>
   <trkpt lat="-3.1427300" lon="37.3717320">
    <ele>3510.9</ele>
    <time>2026-06-23T11:45:29Z</time>
   </trkpt>
   <trkpt lat="-3.1427410" lon="37.3717310">
    <ele>3510.6</ele>
    <time>2026-06-23T11:45:30Z</time>
   </trkpt>
   <trkpt lat="-3.1427480" lon="37.3717260">
    <ele>3510.4</ele>
    <time>2026-06-23T11:45:31Z</time>
   </trkpt>
   <trkpt lat="-3.1427530" lon="37.3717240">
    <ele>3510.3</ele>
    <time>2026-06-23T11:45:32Z</time>
   </trkpt>
   <trkpt lat="-3.1427630" lon="37.3717190">
    <ele>3510.0</ele>
    <time>2026-06-23T11:45:33Z</time>
   </trkpt>
   <trkpt lat="-3.1427640" lon="37.3717160">
    <ele>3509.9</ele>
    <time>2026-06-23T11:45:34Z</time>
   </trkpt>
   <trkpt lat="-3.1427730" lon="37.3717060">
    <ele>3509.5</ele>
    <time>2026-06-23T11:45:35Z</time>
   </trkpt>
   <trkpt lat="-3.1427780" lon="37.3717020">
    <ele>3509.3</ele>
    <time>2026-06-23T11:45:36Z</time>
   </trkpt>
   <trkpt lat="-3.1427860" lon="37.3717000">
    <ele>3509.1</ele>
    <time>2026-06-23T11:45:37Z</time>
   </trkpt>
   <trkpt lat="-3.1427910" lon="37.3717040">
    <ele>3508.9</ele>
    <time>2026-06-23T11:45:38Z</time>
   </trkpt>
   <trkpt lat="-3.1428000" lon="37.3717050">
    <ele>3508.7</ele>
    <time>2026-06-23T11:45:39Z</time>
   </trkpt>
   <trkpt lat="-3.1428020" lon="37.3717080">
    <ele>3508.6</ele>
    <time>2026-06-23T11:45:40Z</time>
   </trkpt>
   <trkpt lat="-3.1428080" lon="37.3717100">
    <ele>3508.4</ele>
    <time>2026-06-23T11:45:41Z</time>
   </trkpt>
   <trkpt lat="-3.1428130" lon="37.3717140">
    <ele>3508.3</ele>
    <time>2026-06-23T11:45:42Z</time>
   </trkpt>
   <trkpt lat="-3.1428230" lon="37.3717180">
    <ele>3508.0</ele>
    <time>2026-06-23T11:45:43Z</time>
   </trkpt>
   <trkpt lat="-3.1428300" lon="37.3717160">
    <ele>3507.8</ele>
    <time>2026-06-23T11:45:44Z</time>
   </trkpt>
   <trkpt lat="-3.1428350" lon="37.3717160">
    <ele>3507.6</ele>
    <time>2026-06-23T11:45:45Z</time>
   </trkpt>
   <trkpt lat="-3.1428380" lon="37.3717200">
    <ele>3507.5</ele>
    <time>2026-06-23T11:45:46Z</time>
   </trkpt>
   <trkpt lat="-3.1428410" lon="37.3717240">
    <ele>3507.4</ele>
    <time>2026-06-23T11:45:47Z</time>
   </trkpt>
   <trkpt lat="-3.1428470" lon="37.3717280">
    <ele>3507.2</ele>
    <time>2026-06-23T11:45:48Z</time>
   </trkpt>
   <trkpt lat="-3.1428530" lon="37.3717330">
    <ele>3507.0</ele>
    <time>2026-06-23T11:45:49Z</time>
   </trkpt>
   <trkpt lat="-3.1428590" lon="37.3717370">
    <ele>3506.8</ele>
    <time>2026-06-23T11:45:50Z</time>
   </trkpt>
   <trkpt lat="-3.1428660" lon="37.3717400">
    <ele>3506.6</ele>
    <time>2026-06-23T11:45:51Z</time>
   </trkpt>
   <trkpt lat="-3.1428730" lon="37.3717400">
    <ele>3506.4</ele>
    <time>2026-06-23T11:45:52Z</time>
   </trkpt>
   <trkpt lat="-3.1428790" lon="37.3717390">
    <ele>3506.2</ele>
    <time>2026-06-23T11:45:53Z</time>
   </trkpt>
   <trkpt lat="-3.1428830" lon="37.3717370">
    <ele>3506.1</ele>
    <time>2026-06-23T11:45:54Z</time>
   </trkpt>
   <trkpt lat="-3.1428920" lon="37.3717300">
    <ele>3505.8</ele>
    <time>2026-06-23T11:45:55Z</time>
   </trkpt>
   <trkpt lat="-3.1428980" lon="37.3717230">
    <ele>3505.6</ele>
    <time>2026-06-23T11:45:56Z</time>
   </trkpt>
   <trkpt lat="-3.1429020" lon="37.3717210">
    <ele>3505.5</ele>
    <time>2026-06-23T11:45:57Z</time>
   </trkpt>
   <trkpt lat="-3.1429040" lon="37.3717200">
    <ele>3505.4</ele>
    <time>2026-06-23T11:45:58Z</time>
   </trkpt>
   <trkpt lat="-3.1429060" lon="37.3717210">
    <ele>3505.3</ele>
    <time>2026-06-23T11:45:59Z</time>
   </trkpt>
   <trkpt lat="-3.1429120" lon="37.3717220">
    <ele>3505.2</ele>
    <time>2026-06-23T11:46:00Z</time>
   </trkpt>
   <trkpt lat="-3.1429180" lon="37.3717240">
    <ele>3505.0</ele>
    <time>2026-06-23T11:46:01Z</time>
   </trkpt>
   <trkpt lat="-3.1429210" lon="37.3717280">
    <ele>3504.9</ele>
    <time>2026-06-23T11:46:02Z</time>
   </trkpt>
   <trkpt lat="-3.1429260" lon="37.3717310">
    <ele>3504.7</ele>
    <time>2026-06-23T11:46:03Z</time>
   </trkpt>
   <trkpt lat="-3.1429280" lon="37.3717330">
    <ele>3504.6</ele>
    <time>2026-06-23T11:46:04Z</time>
   </trkpt>
   <trkpt lat="-3.1429320" lon="37.3717370">
    <ele>3504.5</ele>
    <time>2026-06-23T11:46:05Z</time>
   </trkpt>
   <trkpt lat="-3.1429350" lon="37.3717450">
    <ele>3504.3</ele>
    <time>2026-06-23T11:46:07Z</time>
   </trkpt>
   <trkpt lat="-3.1429380" lon="37.3717480">
    <ele>3504.2</ele>
    <time>2026-06-23T11:46:08Z</time>
   </trkpt>
   <trkpt lat="-3.1429420" lon="37.3717550">
    <ele>3503.9</ele>
    <time>2026-06-23T11:46:09Z</time>
   </trkpt>
   <trkpt lat="-3.1429460" lon="37.3717590">
    <ele>3503.8</ele>
    <time>2026-06-23T11:46:10Z</time>
   </trkpt>
   <trkpt lat="-3.1429500" lon="37.3717620">
    <ele>3503.7</ele>
    <time>2026-06-23T11:46:11Z</time>
   </trkpt>
   <trkpt lat="-3.1429510" lon="37.3717690">
    <ele>3503.5</ele>
    <time>2026-06-23T11:46:12Z</time>
   </trkpt>
   <trkpt lat="-3.1429590" lon="37.3717760">
    <ele>3503.2</ele>
    <time>2026-06-23T11:46:13Z</time>
   </trkpt>
   <trkpt lat="-3.1429640" lon="37.3717760">
    <ele>3503.1</ele>
    <time>2026-06-23T11:46:14Z</time>
   </trkpt>
   <trkpt lat="-3.1429700" lon="37.3717730">
    <ele>3502.9</ele>
    <time>2026-06-23T11:46:15Z</time>
   </trkpt>
   <trkpt lat="-3.1429790" lon="37.3717690">
    <ele>3502.6</ele>
    <time>2026-06-23T11:46:16Z</time>
   </trkpt>
   <trkpt lat="-3.1429890" lon="37.3717660">
    <ele>3502.3</ele>
    <time>2026-06-23T11:46:17Z</time>
   </trkpt>
   <trkpt lat="-3.1429950" lon="37.3717640">
    <ele>3502.2</ele>
    <time>2026-06-23T11:46:18Z</time>
   </trkpt>
   <trkpt lat="-3.1430000" lon="37.3717650">
    <ele>3502.0</ele>
    <time>2026-06-23T11:46:19Z</time>
   </trkpt>
   <trkpt lat="-3.1430030" lon="37.3717660">
    <ele>3502.0</ele>
    <time>2026-06-23T11:46:20Z</time>
   </trkpt>
   <trkpt lat="-3.1430130" lon="37.3717620">
    <ele>3501.7</ele>
    <time>2026-06-23T11:46:21Z</time>
   </trkpt>
   <trkpt lat="-3.1430290" lon="37.3717520">
    <ele>3501.2</ele>
    <time>2026-06-23T11:46:22Z</time>
   </trkpt>
   <trkpt lat="-3.1430340" lon="37.3717480">
    <ele>3501.0</ele>
    <time>2026-06-23T11:46:23Z</time>
   </trkpt>
   <trkpt lat="-3.1430390" lon="37.3717450">
    <ele>3500.8</ele>
    <time>2026-06-23T11:46:24Z</time>
   </trkpt>
   <trkpt lat="-3.1430390" lon="37.3717440">
    <ele>3500.8</ele>
    <time>2026-06-23T11:46:25Z</time>
   </trkpt>
   <trkpt lat="-3.1430480" lon="37.3717450">
    <ele>3500.6</ele>
    <time>2026-06-23T11:46:26Z</time>
   </trkpt>
   <trkpt lat="-3.1430540" lon="37.3717500">
    <ele>3500.4</ele>
    <time>2026-06-23T11:46:27Z</time>
   </trkpt>
   <trkpt lat="-3.1430510" lon="37.3717520">
    <ele>3500.3</ele>
    <time>2026-06-23T11:46:28Z</time>
   </trkpt>
   <trkpt lat="-3.1430580" lon="37.3717520">
    <ele>3500.1</ele>
    <time>2026-06-23T11:46:29Z</time>
   </trkpt>
   <trkpt lat="-3.1430640" lon="37.3717490">
    <ele>3499.9</ele>
    <time>2026-06-23T11:46:30Z</time>
   </trkpt>
   <trkpt lat="-3.1430700" lon="37.3717460">
    <ele>3499.7</ele>
    <time>2026-06-23T11:46:31Z</time>
   </trkpt>
   <trkpt lat="-3.1430770" lon="37.3717460">
    <ele>3499.5</ele>
    <time>2026-06-23T11:46:32Z</time>
   </trkpt>
   <trkpt lat="-3.1430840" lon="37.3717470">
    <ele>3499.3</ele>
    <time>2026-06-23T11:46:33Z</time>
   </trkpt>
   <trkpt lat="-3.1430880" lon="37.3717470">
    <ele>3499.2</ele>
    <time>2026-06-23T11:46:34Z</time>
   </trkpt>
   <trkpt lat="-3.1430940" lon="37.3717490">
    <ele>3499.0</ele>
    <time>2026-06-23T11:46:35Z</time>
   </trkpt>
   <trkpt lat="-3.1430940" lon="37.3717500">
    <ele>3499.0</ele>
    <time>2026-06-23T11:46:36Z</time>
   </trkpt>
   <trkpt lat="-3.1430980" lon="37.3717580">
    <ele>3498.8</ele>
    <time>2026-06-23T11:46:37Z</time>
   </trkpt>
   <trkpt lat="-3.1430930" lon="37.3717640">
    <ele>3498.5</ele>
    <time>2026-06-23T11:46:38Z</time>
   </trkpt>
   <trkpt lat="-3.1430910" lon="37.3717670">
    <ele>3498.4</ele>
    <time>2026-06-23T11:46:39Z</time>
   </trkpt>
   <trkpt lat="-3.1430860" lon="37.3717750">
    <ele>3498.2</ele>
    <time>2026-06-23T11:46:40Z</time>
   </trkpt>
   <trkpt lat="-3.1430860" lon="37.3717790">
    <ele>3498.1</ele>
    <time>2026-06-23T11:46:41Z</time>
   </trkpt>
   <trkpt lat="-3.1430890" lon="37.3717810">
    <ele>3498.0</ele>
    <time>2026-06-23T11:46:42Z</time>
   </trkpt>
   <trkpt lat="-3.1430910" lon="37.3717880">
    <ele>3497.8</ele>
    <time>2026-06-23T11:46:43Z</time>
   </trkpt>
   <trkpt lat="-3.1431000" lon="37.3717910">
    <ele>3497.5</ele>
    <time>2026-06-23T11:46:44Z</time>
   </trkpt>
   <trkpt lat="-3.1431050" lon="37.3717930">
    <ele>3497.4</ele>
    <time>2026-06-23T11:46:45Z</time>
   </trkpt>
   <trkpt lat="-3.1431120" lon="37.3717950">
    <ele>3497.1</ele>
    <time>2026-06-23T11:46:46Z</time>
   </trkpt>
   <trkpt lat="-3.1431180" lon="37.3717950">
    <ele>3497.0</ele>
    <time>2026-06-23T11:46:47Z</time>
   </trkpt>
   <trkpt lat="-3.1431250" lon="37.3717950">
    <ele>3496.8</ele>
    <time>2026-06-23T11:46:48Z</time>
   </trkpt>
   <trkpt lat="-3.1431310" lon="37.3717960">
    <ele>3496.6</ele>
    <time>2026-06-23T11:46:49Z</time>
   </trkpt>
   <trkpt lat="-3.1431330" lon="37.3717970">
    <ele>3496.6</ele>
    <time>2026-06-23T11:46:50Z</time>
   </trkpt>
   <trkpt lat="-3.1431420" lon="37.3718000">
    <ele>3496.3</ele>
    <time>2026-06-23T11:46:51Z</time>
   </trkpt>
   <trkpt lat="-3.1431460" lon="37.3718010">
    <ele>3496.2</ele>
    <time>2026-06-23T11:46:52Z</time>
   </trkpt>
   <trkpt lat="-3.1431480" lon="37.3718000">
    <ele>3496.1</ele>
    <time>2026-06-23T11:46:53Z</time>
   </trkpt>
   <trkpt lat="-3.1431580" lon="37.3717950">
    <ele>3495.8</ele>
    <time>2026-06-23T11:46:54Z</time>
   </trkpt>
   <trkpt lat="-3.1431620" lon="37.3717920">
    <ele>3495.7</ele>
    <time>2026-06-23T11:46:55Z</time>
   </trkpt>
   <trkpt lat="-3.1431670" lon="37.3717880">
    <ele>3495.5</ele>
    <time>2026-06-23T11:46:56Z</time>
   </trkpt>
   <trkpt lat="-3.1431740" lon="37.3717830">
    <ele>3495.3</ele>
    <time>2026-06-23T11:46:57Z</time>
   </trkpt>
   <trkpt lat="-3.1431800" lon="37.3717760">
    <ele>3495.0</ele>
    <time>2026-06-23T11:46:58Z</time>
   </trkpt>
   <trkpt lat="-3.1431830" lon="37.3717700">
    <ele>3494.8</ele>
    <time>2026-06-23T11:46:59Z</time>
   </trkpt>
   <trkpt lat="-3.1431870" lon="37.3717660">
    <ele>3494.7</ele>
    <time>2026-06-23T11:47:00Z</time>
   </trkpt>
   <trkpt lat="-3.1431950" lon="37.3717620">
    <ele>3494.4</ele>
    <time>2026-06-23T11:47:01Z</time>
   </trkpt>
   <trkpt lat="-3.1432010" lon="37.3717630">
    <ele>3494.3</ele>
    <time>2026-06-23T11:47:02Z</time>
   </trkpt>
   <trkpt lat="-3.1432060" lon="37.3717660">
    <ele>3494.1</ele>
    <time>2026-06-23T11:47:03Z</time>
   </trkpt>
   <trkpt lat="-3.1432110" lon="37.3717680">
    <ele>3494.0</ele>
    <time>2026-06-23T11:47:04Z</time>
   </trkpt>
   <trkpt lat="-3.1432190" lon="37.3717700">
    <ele>3493.8</ele>
    <time>2026-06-23T11:47:05Z</time>
   </trkpt>
   <trkpt lat="-3.1432240" lon="37.3717700">
    <ele>3493.6</ele>
    <time>2026-06-23T11:47:06Z</time>
   </trkpt>
   <trkpt lat="-3.1432260" lon="37.3717680">
    <ele>3493.6</ele>
    <time>2026-06-23T11:47:07Z</time>
   </trkpt>
   <trkpt lat="-3.1432300" lon="37.3717680">
    <ele>3493.5</ele>
    <time>2026-06-23T11:47:08Z</time>
   </trkpt>
   <trkpt lat="-3.1432360" lon="37.3717690">
    <ele>3493.3</ele>
    <time>2026-06-23T11:47:09Z</time>
   </trkpt>
   <trkpt lat="-3.1432430" lon="37.3717690">
    <ele>3493.1</ele>
    <time>2026-06-23T11:47:10Z</time>
   </trkpt>
   <trkpt lat="-3.1432480" lon="37.3717670">
    <ele>3493.0</ele>
    <time>2026-06-23T11:47:11Z</time>
   </trkpt>
   <trkpt lat="-3.1432530" lon="37.3717660">
    <ele>3492.9</ele>
    <time>2026-06-23T11:47:12Z</time>
   </trkpt>
   <trkpt lat="-3.1432600" lon="37.3717670">
    <ele>3492.7</ele>
    <time>2026-06-23T11:47:13Z</time>
   </trkpt>
   <trkpt lat="-3.1432640" lon="37.3717680">
    <ele>3492.6</ele>
    <time>2026-06-23T11:47:14Z</time>
   </trkpt>
   <trkpt lat="-3.1432680" lon="37.3717650">
    <ele>3492.5</ele>
    <time>2026-06-23T11:47:15Z</time>
   </trkpt>
   <trkpt lat="-3.1432780" lon="37.3717610">
    <ele>3492.2</ele>
    <time>2026-06-23T11:47:16Z</time>
   </trkpt>
   <trkpt lat="-3.1432850" lon="37.3717590">
    <ele>3492.1</ele>
    <time>2026-06-23T11:47:17Z</time>
   </trkpt>
   <trkpt lat="-3.1432920" lon="37.3717580">
    <ele>3491.9</ele>
    <time>2026-06-23T11:47:18Z</time>
   </trkpt>
   <trkpt lat="-3.1433000" lon="37.3717600">
    <ele>3491.7</ele>
    <time>2026-06-23T11:47:19Z</time>
   </trkpt>
   <trkpt lat="-3.1433110" lon="37.3717640">
    <ele>3491.5</ele>
    <time>2026-06-23T11:47:20Z</time>
   </trkpt>
   <trkpt lat="-3.1433150" lon="37.3717710">
    <ele>3491.3</ele>
    <time>2026-06-23T11:47:21Z</time>
   </trkpt>
   <trkpt lat="-3.1433240" lon="37.3717760">
    <ele>3491.1</ele>
    <time>2026-06-23T11:47:22Z</time>
   </trkpt>
   <trkpt lat="-3.1433310" lon="37.3717810">
    <ele>3490.9</ele>
    <time>2026-06-23T11:47:23Z</time>
   </trkpt>
   <trkpt lat="-3.1433420" lon="37.3717810">
    <ele>3490.7</ele>
    <time>2026-06-23T11:47:24Z</time>
   </trkpt>
   <trkpt lat="-3.1433500" lon="37.3717770">
    <ele>3490.5</ele>
    <time>2026-06-23T11:47:25Z</time>
   </trkpt>
   <trkpt lat="-3.1433570" lon="37.3717720">
    <ele>3490.4</ele>
    <time>2026-06-23T11:47:26Z</time>
   </trkpt>
   <trkpt lat="-3.1433660" lon="37.3717680">
    <ele>3490.2</ele>
    <time>2026-06-23T11:47:27Z</time>
   </trkpt>
   <trkpt lat="-3.1433790" lon="37.3717640">
    <ele>3490.0</ele>
    <time>2026-06-23T11:47:28Z</time>
   </trkpt>
   <trkpt lat="-3.1433910" lon="37.3717610">
    <ele>3489.7</ele>
    <time>2026-06-23T11:47:29Z</time>
   </trkpt>
   <trkpt lat="-3.1433990" lon="37.3717570">
    <ele>3489.6</ele>
    <time>2026-06-23T11:47:30Z</time>
   </trkpt>
   <trkpt lat="-3.1434090" lon="37.3717520">
    <ele>3489.4</ele>
    <time>2026-06-23T11:47:31Z</time>
   </trkpt>
   <trkpt lat="-3.1434200" lon="37.3717500">
    <ele>3489.2</ele>
    <time>2026-06-23T11:47:32Z</time>
   </trkpt>
   <trkpt lat="-3.1434300" lon="37.3717470">
    <ele>3489.1</ele>
    <time>2026-06-23T11:47:33Z</time>
   </trkpt>
   <trkpt lat="-3.1434400" lon="37.3717460">
    <ele>3488.9</ele>
    <time>2026-06-23T11:47:34Z</time>
   </trkpt>
   <trkpt lat="-3.1434500" lon="37.3717450">
    <ele>3488.7</ele>
    <time>2026-06-23T11:47:35Z</time>
   </trkpt>
   <trkpt lat="-3.1434560" lon="37.3717430">
    <ele>3488.6</ele>
    <time>2026-06-23T11:47:36Z</time>
   </trkpt>
   <trkpt lat="-3.1434700" lon="37.3717400">
    <ele>3488.4</ele>
    <time>2026-06-23T11:47:37Z</time>
   </trkpt>
   <trkpt lat="-3.1434800" lon="37.3717350">
    <ele>3488.2</ele>
    <time>2026-06-23T11:47:38Z</time>
   </trkpt>
   <trkpt lat="-3.1434870" lon="37.3717290">
    <ele>3488.1</ele>
    <time>2026-06-23T11:47:39Z</time>
   </trkpt>
   <trkpt lat="-3.1434920" lon="37.3717210">
    <ele>3487.9</ele>
    <time>2026-06-23T11:47:40Z</time>
   </trkpt>
   <trkpt lat="-3.1434940" lon="37.3717190">
    <ele>3487.9</ele>
    <time>2026-06-23T11:47:41Z</time>
   </trkpt>
   <trkpt lat="-3.1435010" lon="37.3717160">
    <ele>3487.7</ele>
    <time>2026-06-23T11:47:42Z</time>
   </trkpt>
   <trkpt lat="-3.1435030" lon="37.3717150">
    <ele>3487.7</ele>
    <time>2026-06-23T11:47:43Z</time>
   </trkpt>
   <trkpt lat="-3.1435090" lon="37.3717080">
    <ele>3487.6</ele>
    <time>2026-06-23T11:47:44Z</time>
   </trkpt>
   <trkpt lat="-3.1435100" lon="37.3717060">
    <ele>3487.5</ele>
    <time>2026-06-23T11:47:45Z</time>
   </trkpt>
   <trkpt lat="-3.1435120" lon="37.3717020">
    <ele>3487.5</ele>
    <time>2026-06-23T11:47:46Z</time>
   </trkpt>
   <trkpt lat="-3.1435130" lon="37.3717000">
    <ele>3487.4</ele>
    <time>2026-06-23T11:47:47Z</time>
   </trkpt>
   <trkpt lat="-3.1435170" lon="37.3717010">
    <ele>3487.4</ele>
    <time>2026-06-23T11:47:48Z</time>
   </trkpt>
   <trkpt lat="-3.1435200" lon="37.3717030">
    <ele>3487.3</ele>
    <time>2026-06-23T11:47:49Z</time>
   </trkpt>
   <trkpt lat="-3.1435200" lon="37.3717030">
    <ele>3487.3</ele>
    <time>2026-06-23T11:47:50Z</time>
   </trkpt>
   <trkpt lat="-3.1435200" lon="37.3717060">
    <ele>3487.2</ele>
    <time>2026-06-23T11:47:51Z</time>
   </trkpt>
   <trkpt lat="-3.1435170" lon="37.3717110">
    <ele>3487.1</ele>
    <time>2026-06-23T11:47:52Z</time>
   </trkpt>
   <trkpt lat="-3.1435160" lon="37.3717170">
    <ele>3487.0</ele>
    <time>2026-06-23T11:47:53Z</time>
   </trkpt>
   <trkpt lat="-3.1435180" lon="37.3717140">
    <ele>3487.0</ele>
    <time>2026-06-23T11:47:54Z</time>
   </trkpt>
   <trkpt lat="-3.1435170" lon="37.3717210">
    <ele>3486.8</ele>
    <time>2026-06-23T11:47:55Z</time>
   </trkpt>
   <trkpt lat="-3.1435160" lon="37.3717240">
    <ele>3486.8</ele>
    <time>2026-06-23T11:47:56Z</time>
   </trkpt>
   <trkpt lat="-3.1435100" lon="37.3717270">
    <ele>3486.6</ele>
    <time>2026-06-23T11:47:57Z</time>
   </trkpt>
   <trkpt lat="-3.1435130" lon="37.3717310">
    <ele>3486.5</ele>
    <time>2026-06-23T11:47:58Z</time>
   </trkpt>
   <trkpt lat="-3.1435180" lon="37.3717390">
    <ele>3486.4</ele>
    <time>2026-06-23T11:47:59Z</time>
   </trkpt>
   <trkpt lat="-3.1435170" lon="37.3717450">
    <ele>3486.2</ele>
    <time>2026-06-23T11:48:00Z</time>
   </trkpt>
   <trkpt lat="-3.1435200" lon="37.3717500">
    <ele>3486.1</ele>
    <time>2026-06-23T11:48:01Z</time>
   </trkpt>
   <trkpt lat="-3.1435210" lon="37.3717540">
    <ele>3486.0</ele>
    <time>2026-06-23T11:48:02Z</time>
   </trkpt>
   <trkpt lat="-3.1435230" lon="37.3717560">
    <ele>3486.0</ele>
    <time>2026-06-23T11:48:03Z</time>
   </trkpt>
   <trkpt lat="-3.1435280" lon="37.3717550">
    <ele>3485.8</ele>
    <time>2026-06-23T11:48:04Z</time>
   </trkpt>
   <trkpt lat="-3.1435300" lon="37.3717520">
    <ele>3485.8</ele>
    <time>2026-06-23T11:48:05Z</time>
   </trkpt>
   <trkpt lat="-3.1435300" lon="37.3717550">
    <ele>3485.7</ele>
    <time>2026-06-23T11:48:06Z</time>
   </trkpt>
   <trkpt lat="-3.1435310" lon="37.3717560">
    <ele>3485.7</ele>
    <time>2026-06-23T11:48:07Z</time>
   </trkpt>
   <trkpt lat="-3.1435310" lon="37.3717540">
    <ele>3485.6</ele>
    <time>2026-06-23T11:48:08Z</time>
   </trkpt>
   <trkpt lat="-3.1435340" lon="37.3717500">
    <ele>3485.5</ele>
    <time>2026-06-23T11:48:09Z</time>
   </trkpt>
   <trkpt lat="-3.1435370" lon="37.3717440">
    <ele>3485.4</ele>
    <time>2026-06-23T11:48:10Z</time>
   </trkpt>
   <trkpt lat="-3.1435400" lon="37.3717380">
    <ele>3485.2</ele>
    <time>2026-06-23T11:48:11Z</time>
   </trkpt>
   <trkpt lat="-3.1435450" lon="37.3717350">
    <ele>3485.1</ele>
    <time>2026-06-23T11:48:13Z</time>
   </trkpt>
   <trkpt lat="-3.1435500" lon="37.3717330">
    <ele>3484.9</ele>
    <time>2026-06-23T11:48:14Z</time>
   </trkpt>
   <trkpt lat="-3.1435520" lon="37.3717340">
    <ele>3484.9</ele>
    <time>2026-06-23T11:48:15Z</time>
   </trkpt>
   <trkpt lat="-3.1435560" lon="37.3717360">
    <ele>3484.8</ele>
    <time>2026-06-23T11:48:16Z</time>
   </trkpt>
   <trkpt lat="-3.1435600" lon="37.3717390">
    <ele>3484.6</ele>
    <time>2026-06-23T11:48:17Z</time>
   </trkpt>
   <trkpt lat="-3.1435640" lon="37.3717410">
    <ele>3484.5</ele>
    <time>2026-06-23T11:48:18Z</time>
   </trkpt>
   <trkpt lat="-3.1435700" lon="37.3717430">
    <ele>3484.4</ele>
    <time>2026-06-23T11:48:19Z</time>
   </trkpt>
   <trkpt lat="-3.1435700" lon="37.3717430">
    <ele>3484.4</ele>
    <time>2026-06-23T11:48:20Z</time>
   </trkpt>
   <trkpt lat="-3.1435710" lon="37.3717440">
    <ele>3484.3</ele>
    <time>2026-06-23T11:48:21Z</time>
   </trkpt>
   <trkpt lat="-3.1435770" lon="37.3717460">
    <ele>3484.2</ele>
    <time>2026-06-23T11:48:22Z</time>
   </trkpt>
   <trkpt lat="-3.1435820" lon="37.3717470">
    <ele>3484.0</ele>
    <time>2026-06-23T11:48:23Z</time>
   </trkpt>
   <trkpt lat="-3.1435870" lon="37.3717470">
    <ele>3483.9</ele>
    <time>2026-06-23T11:48:24Z</time>
   </trkpt>
   <trkpt lat="-3.1435910" lon="37.3717430">
    <ele>3483.8</ele>
    <time>2026-06-23T11:48:25Z</time>
   </trkpt>
   <trkpt lat="-3.1435990" lon="37.3717420">
    <ele>3483.5</ele>
    <time>2026-06-23T11:48:26Z</time>
   </trkpt>
   <trkpt lat="-3.1436040" lon="37.3717410">
    <ele>3483.4</ele>
    <time>2026-06-23T11:48:27Z</time>
   </trkpt>
   <trkpt lat="-3.1436150" lon="37.3717400">
    <ele>3483.1</ele>
    <time>2026-06-23T11:48:28Z</time>
   </trkpt>
   <trkpt lat="-3.1436270" lon="37.3717410">
    <ele>3482.7</ele>
    <time>2026-06-23T11:48:29Z</time>
   </trkpt>
   <trkpt lat="-3.1436300" lon="37.3717400">
    <ele>3482.6</ele>
    <time>2026-06-23T11:48:30Z</time>
   </trkpt>
   <trkpt lat="-3.1436390" lon="37.3717400">
    <ele>3482.4</ele>
    <time>2026-06-23T11:48:31Z</time>
   </trkpt>
   <trkpt lat="-3.1436480" lon="37.3717380">
    <ele>3482.1</ele>
    <time>2026-06-23T11:48:32Z</time>
   </trkpt>
   <trkpt lat="-3.1436530" lon="37.3717360">
    <ele>3482.0</ele>
    <time>2026-06-23T11:48:33Z</time>
   </trkpt>
   <trkpt lat="-3.1436570" lon="37.3717330">
    <ele>3481.8</ele>
    <time>2026-06-23T11:48:34Z</time>
   </trkpt>
   <trkpt lat="-3.1436600" lon="37.3717300">
    <ele>3481.7</ele>
    <time>2026-06-23T11:48:35Z</time>
   </trkpt>
   <trkpt lat="-3.1436630" lon="37.3717280">
    <ele>3481.6</ele>
    <time>2026-06-23T11:48:36Z</time>
   </trkpt>
   <trkpt lat="-3.1436690" lon="37.3717260">
    <ele>3481.4</ele>
    <time>2026-06-23T11:48:37Z</time>
   </trkpt>
   <trkpt lat="-3.1436680" lon="37.3717260">
    <ele>3481.4</ele>
    <time>2026-06-23T11:48:38Z</time>
   </trkpt>
   <trkpt lat="-3.1436680" lon="37.3717260">
    <ele>3481.4</ele>
    <time>2026-06-23T11:48:39Z</time>
   </trkpt>
   <trkpt lat="-3.1436730" lon="37.3717230">
    <ele>3481.2</ele>
    <time>2026-06-23T11:48:40Z</time>
   </trkpt>
   <trkpt lat="-3.1436760" lon="37.3717250">
    <ele>3481.1</ele>
    <time>2026-06-23T11:48:41Z</time>
   </trkpt>
   <trkpt lat="-3.1436830" lon="37.3717260">
    <ele>3480.9</ele>
    <time>2026-06-23T11:48:42Z</time>
   </trkpt>
   <trkpt lat="-3.1436820" lon="37.3717260">
    <ele>3480.8</ele>
    <time>2026-06-23T11:48:43Z</time>
   </trkpt>
   <trkpt lat="-3.1436810" lon="37.3717260">
    <ele>3480.8</ele>
    <time>2026-06-23T11:48:44Z</time>
   </trkpt>
   <trkpt lat="-3.1436830" lon="37.3717250">
    <ele>3480.8</ele>
    <time>2026-06-23T11:48:45Z</time>
   </trkpt>
   <trkpt lat="-3.1436830" lon="37.3717250">
    <ele>3480.8</ele>
    <time>2026-06-23T11:48:46Z</time>
   </trkpt>
   <trkpt lat="-3.1436880" lon="37.3717250">
    <ele>3480.6</ele>
    <time>2026-06-23T11:48:47Z</time>
   </trkpt>
   <trkpt lat="-3.1437000" lon="37.3717240">
    <ele>3480.3</ele>
    <time>2026-06-23T11:48:48Z</time>
   </trkpt>
   <trkpt lat="-3.1437060" lon="37.3717190">
    <ele>3480.0</ele>
    <time>2026-06-23T11:48:49Z</time>
   </trkpt>
   <trkpt lat="-3.1437080" lon="37.3717160">
    <ele>3479.9</ele>
    <time>2026-06-23T11:48:50Z</time>
   </trkpt>
   <trkpt lat="-3.1437130" lon="37.3717140">
    <ele>3479.8</ele>
    <time>2026-06-23T11:48:51Z</time>
   </trkpt>
   <trkpt lat="-3.1437180" lon="37.3717120">
    <ele>3479.6</ele>
    <time>2026-06-23T11:48:52Z</time>
   </trkpt>
   <trkpt lat="-3.1437230" lon="37.3717110">
    <ele>3479.5</ele>
    <time>2026-06-23T11:48:53Z</time>
   </trkpt>
   <trkpt lat="-3.1437280" lon="37.3717090">
    <ele>3479.3</ele>
    <time>2026-06-23T11:48:54Z</time>
   </trkpt>
   <trkpt lat="-3.1437330" lon="37.3717080">
    <ele>3479.1</ele>
    <time>2026-06-23T11:48:55Z</time>
   </trkpt>
   <trkpt lat="-3.1437370" lon="37.3717060">
    <ele>3479.0</ele>
    <time>2026-06-23T11:48:56Z</time>
   </trkpt>
   <trkpt lat="-3.1437430" lon="37.3717050">
    <ele>3478.8</ele>
    <time>2026-06-23T11:48:57Z</time>
   </trkpt>
   <trkpt lat="-3.1437470" lon="37.3717010">
    <ele>3478.7</ele>
    <time>2026-06-23T11:48:58Z</time>
   </trkpt>
   <trkpt lat="-3.1437540" lon="37.3716970">
    <ele>3478.4</ele>
    <time>2026-06-23T11:48:59Z</time>
   </trkpt>
   <trkpt lat="-3.1437570" lon="37.3716960">
    <ele>3478.3</ele>
    <time>2026-06-23T11:49:00Z</time>
   </trkpt>
   <trkpt lat="-3.1437630" lon="37.3716910">
    <ele>3478.1</ele>
    <time>2026-06-23T11:49:01Z</time>
   </trkpt>
   <trkpt lat="-3.1437700" lon="37.3716870">
    <ele>3477.9</ele>
    <time>2026-06-23T11:49:02Z</time>
   </trkpt>
   <trkpt lat="-3.1437760" lon="37.3716860">
    <ele>3477.7</ele>
    <time>2026-06-23T11:49:03Z</time>
   </trkpt>
   <trkpt lat="-3.1437820" lon="37.3716830">
    <ele>3477.5</ele>
    <time>2026-06-23T11:49:04Z</time>
   </trkpt>
   <trkpt lat="-3.1437880" lon="37.3716810">
    <ele>3477.3</ele>
    <time>2026-06-23T11:49:05Z</time>
   </trkpt>
   <trkpt lat="-3.1437920" lon="37.3716790">
    <ele>3477.2</ele>
    <time>2026-06-23T11:49:06Z</time>
   </trkpt>
   <trkpt lat="-3.1437970" lon="37.3716780">
    <ele>3477.1</ele>
    <time>2026-06-23T11:49:07Z</time>
   </trkpt>
   <trkpt lat="-3.1438050" lon="37.3716740">
    <ele>3476.8</ele>
    <time>2026-06-23T11:49:08Z</time>
   </trkpt>
   <trkpt lat="-3.1438070" lon="37.3716730">
    <ele>3476.8</ele>
    <time>2026-06-23T11:49:09Z</time>
   </trkpt>
   <trkpt lat="-3.1438110" lon="37.3716680">
    <ele>3476.6</ele>
    <time>2026-06-23T11:49:10Z</time>
   </trkpt>
   <trkpt lat="-3.1438200" lon="37.3716660">
    <ele>3476.4</ele>
    <time>2026-06-23T11:49:11Z</time>
   </trkpt>
   <trkpt lat="-3.1438250" lon="37.3716610">
    <ele>3476.2</ele>
    <time>2026-06-23T11:49:12Z</time>
   </trkpt>
   <trkpt lat="-3.1438250" lon="37.3716550">
    <ele>3476.0</ele>
    <time>2026-06-23T11:49:13Z</time>
   </trkpt>
   <trkpt lat="-3.1438340" lon="37.3716520">
    <ele>3475.7</ele>
    <time>2026-06-23T11:49:14Z</time>
   </trkpt>
   <trkpt lat="-3.1438380" lon="37.3716500">
    <ele>3475.6</ele>
    <time>2026-06-23T11:49:15Z</time>
   </trkpt>
   <trkpt lat="-3.1438380" lon="37.3716490">
    <ele>3475.6</ele>
    <time>2026-06-23T11:49:16Z</time>
   </trkpt>
   <trkpt lat="-3.1438440" lon="37.3716480">
    <ele>3475.4</ele>
    <time>2026-06-23T11:49:17Z</time>
   </trkpt>
   <trkpt lat="-3.1438470" lon="37.3716460">
    <ele>3475.3</ele>
    <time>2026-06-23T11:49:18Z</time>
   </trkpt>
   <trkpt lat="-3.1438530" lon="37.3716400">
    <ele>3475.1</ele>
    <time>2026-06-23T11:49:19Z</time>
   </trkpt>
   <trkpt lat="-3.1438580" lon="37.3716380">
    <ele>3475.0</ele>
    <time>2026-06-23T11:49:20Z</time>
   </trkpt>
   <trkpt lat="-3.1438570" lon="37.3716380">
    <ele>3474.9</ele>
    <time>2026-06-23T11:49:21Z</time>
   </trkpt>
   <trkpt lat="-3.1438670" lon="37.3716340">
    <ele>3474.6</ele>
    <time>2026-06-23T11:49:22Z</time>
   </trkpt>
   <trkpt lat="-3.1438780" lon="37.3716330">
    <ele>3474.3</ele>
    <time>2026-06-23T11:49:23Z</time>
   </trkpt>
   <trkpt lat="-3.1438810" lon="37.3716270">
    <ele>3474.2</ele>
    <time>2026-06-23T11:49:24Z</time>
   </trkpt>
   <trkpt lat="-3.1438880" lon="37.3716220">
    <ele>3473.9</ele>
    <time>2026-06-23T11:49:25Z</time>
   </trkpt>
   <trkpt lat="-3.1438960" lon="37.3716190">
    <ele>3473.7</ele>
    <time>2026-06-23T11:49:26Z</time>
   </trkpt>
   <trkpt lat="-3.1439000" lon="37.3716180">
    <ele>3473.6</ele>
    <time>2026-06-23T11:49:27Z</time>
   </trkpt>
   <trkpt lat="-3.1439070" lon="37.3716160">
    <ele>3473.4</ele>
    <time>2026-06-23T11:49:28Z</time>
   </trkpt>
   <trkpt lat="-3.1439120" lon="37.3716130">
    <ele>3473.2</ele>
    <time>2026-06-23T11:49:29Z</time>
   </trkpt>
   <trkpt lat="-3.1439110" lon="37.3716100">
    <ele>3473.2</ele>
    <time>2026-06-23T11:49:30Z</time>
   </trkpt>
   <trkpt lat="-3.1439160" lon="37.3716030">
    <ele>3472.9</ele>
    <time>2026-06-23T11:49:31Z</time>
   </trkpt>
   <trkpt lat="-3.1439210" lon="37.3715980">
    <ele>3472.7</ele>
    <time>2026-06-23T11:49:32Z</time>
   </trkpt>
   <trkpt lat="-3.1439200" lon="37.3715950">
    <ele>3472.6</ele>
    <time>2026-06-23T11:49:33Z</time>
   </trkpt>
   <trkpt lat="-3.1439250" lon="37.3715870">
    <ele>3472.4</ele>
    <time>2026-06-23T11:49:34Z</time>
   </trkpt>
   <trkpt lat="-3.1439290" lon="37.3715840">
    <ele>3472.3</ele>
    <time>2026-06-23T11:49:35Z</time>
   </trkpt>
   <trkpt lat="-3.1439310" lon="37.3715870">
    <ele>3472.2</ele>
    <time>2026-06-23T11:49:36Z</time>
   </trkpt>
   <trkpt lat="-3.1439340" lon="37.3715850">
    <ele>3472.1</ele>
    <time>2026-06-23T11:49:37Z</time>
   </trkpt>
   <trkpt lat="-3.1439340" lon="37.3715890">
    <ele>3472.0</ele>
    <time>2026-06-23T11:49:38Z</time>
   </trkpt>
   <trkpt lat="-3.1439340" lon="37.3715920">
    <ele>3471.9</ele>
    <time>2026-06-23T11:49:39Z</time>
   </trkpt>
   <trkpt lat="-3.1439350" lon="37.3715950">
    <ele>3471.8</ele>
    <time>2026-06-23T11:49:40Z</time>
   </trkpt>
   <trkpt lat="-3.1439350" lon="37.3716010">
    <ele>3471.6</ele>
    <time>2026-06-23T11:49:41Z</time>
   </trkpt>
   <trkpt lat="-3.1439360" lon="37.3716020">
    <ele>3471.6</ele>
    <time>2026-06-23T11:49:42Z</time>
   </trkpt>
   <trkpt lat="-3.1439380" lon="37.3716060">
    <ele>3471.4</ele>
    <time>2026-06-23T11:49:43Z</time>
   </trkpt>
   <trkpt lat="-3.1439440" lon="37.3716060">
    <ele>3471.3</ele>
    <time>2026-06-23T11:49:44Z</time>
   </trkpt>
   <trkpt lat="-3.1439470" lon="37.3716080">
    <ele>3471.2</ele>
    <time>2026-06-23T11:49:45Z</time>
   </trkpt>
   <trkpt lat="-3.1439520" lon="37.3716100">
    <ele>3471.0</ele>
    <time>2026-06-23T11:49:46Z</time>
   </trkpt>
   <trkpt lat="-3.1439580" lon="37.3716140">
    <ele>3470.8</ele>
    <time>2026-06-23T11:49:47Z</time>
   </trkpt>
   <trkpt lat="-3.1439610" lon="37.3716150">
    <ele>3470.7</ele>
    <time>2026-06-23T11:49:48Z</time>
   </trkpt>
   <trkpt lat="-3.1439660" lon="37.3716130">
    <ele>3470.6</ele>
    <time>2026-06-23T11:49:49Z</time>
   </trkpt>
   <trkpt lat="-3.1439680" lon="37.3716140">
    <ele>3470.5</ele>
    <time>2026-06-23T11:49:50Z</time>
   </trkpt>
   <trkpt lat="-3.1439730" lon="37.3716100">
    <ele>3470.3</ele>
    <time>2026-06-23T11:49:51Z</time>
   </trkpt>
   <trkpt lat="-3.1439750" lon="37.3716130">
    <ele>3470.2</ele>
    <time>2026-06-23T11:49:52Z</time>
   </trkpt>
   <trkpt lat="-3.1439810" lon="37.3716140">
    <ele>3470.1</ele>
    <time>2026-06-23T11:49:53Z</time>
   </trkpt>
   <trkpt lat="-3.1439860" lon="37.3716170">
    <ele>3469.9</ele>
    <time>2026-06-23T11:49:54Z</time>
   </trkpt>
   <trkpt lat="-3.1439910" lon="37.3716170">
    <ele>3469.8</ele>
    <time>2026-06-23T11:49:55Z</time>
   </trkpt>
   <trkpt lat="-3.1439950" lon="37.3716190">
    <ele>3469.6</ele>
    <time>2026-06-23T11:49:56Z</time>
   </trkpt>
   <trkpt lat="-3.1439990" lon="37.3716210">
    <ele>3469.5</ele>
    <time>2026-06-23T11:49:57Z</time>
   </trkpt>
   <trkpt lat="-3.1440040" lon="37.3716190">
    <ele>3469.3</ele>
    <time>2026-06-23T11:49:58Z</time>
   </trkpt>
   <trkpt lat="-3.1440110" lon="37.3716180">
    <ele>3469.1</ele>
    <time>2026-06-23T11:49:59Z</time>
   </trkpt>
   <trkpt lat="-3.1440180" lon="37.3716140">
    <ele>3468.9</ele>
    <time>2026-06-23T11:50:00Z</time>
   </trkpt>
   <trkpt lat="-3.1440170" lon="37.3716130">
    <ele>3468.9</ele>
    <time>2026-06-23T11:50:01Z</time>
   </trkpt>
   <trkpt lat="-3.1440230" lon="37.3716060">
    <ele>3468.6</ele>
    <time>2026-06-23T11:50:02Z</time>
   </trkpt>
   <trkpt lat="-3.1440280" lon="37.3716060">
    <ele>3468.5</ele>
    <time>2026-06-23T11:50:03Z</time>
   </trkpt>
   <trkpt lat="-3.1440330" lon="37.3716050">
    <ele>3468.3</ele>
    <time>2026-06-23T11:50:04Z</time>
   </trkpt>
   <trkpt lat="-3.1440400" lon="37.3716010">
    <ele>3468.1</ele>
    <time>2026-06-23T11:50:05Z</time>
   </trkpt>
   <trkpt lat="-3.1440420" lon="37.3716000">
    <ele>3468.0</ele>
    <time>2026-06-23T11:50:06Z</time>
   </trkpt>
   <trkpt lat="-3.1440460" lon="37.3715980">
    <ele>3467.9</ele>
    <time>2026-06-23T11:50:07Z</time>
   </trkpt>
   <trkpt lat="-3.1440510" lon="37.3715950">
    <ele>3467.8</ele>
    <time>2026-06-23T11:50:08Z</time>
   </trkpt>
   <trkpt lat="-3.1440530" lon="37.3715960">
    <ele>3467.7</ele>
    <time>2026-06-23T11:50:09Z</time>
   </trkpt>
   <trkpt lat="-3.1440620" lon="37.3715970">
    <ele>3467.4</ele>
    <time>2026-06-23T11:50:10Z</time>
   </trkpt>
   <trkpt lat="-3.1440730" lon="37.3715950">
    <ele>3467.1</ele>
    <time>2026-06-23T11:50:11Z</time>
   </trkpt>
   <trkpt lat="-3.1440780" lon="37.3715930">
    <ele>3467.0</ele>
    <time>2026-06-23T11:50:12Z</time>
   </trkpt>
   <trkpt lat="-3.1440870" lon="37.3715910">
    <ele>3466.7</ele>
    <time>2026-06-23T11:50:13Z</time>
   </trkpt>
   <trkpt lat="-3.1440940" lon="37.3715890">
    <ele>3466.5</ele>
    <time>2026-06-23T11:50:14Z</time>
   </trkpt>
   <trkpt lat="-3.1440970" lon="37.3715880">
    <ele>3466.4</ele>
    <time>2026-06-23T11:50:15Z</time>
   </trkpt>
   <trkpt lat="-3.1441010" lon="37.3715850">
    <ele>3466.3</ele>
    <time>2026-06-23T11:50:16Z</time>
   </trkpt>
   <trkpt lat="-3.1441070" lon="37.3715770">
    <ele>3466.0</ele>
    <time>2026-06-23T11:50:18Z</time>
   </trkpt>
   <trkpt lat="-3.1441070" lon="37.3715710">
    <ele>3465.8</ele>
    <time>2026-06-23T11:50:19Z</time>
   </trkpt>
   <trkpt lat="-3.1441130" lon="37.3715680">
    <ele>3465.6</ele>
    <time>2026-06-23T11:50:20Z</time>
   </trkpt>
   <trkpt lat="-3.1441200" lon="37.3715670">
    <ele>3465.4</ele>
    <time>2026-06-23T11:50:21Z</time>
   </trkpt>
   <trkpt lat="-3.1441260" lon="37.3715670">
    <ele>3465.3</ele>
    <time>2026-06-23T11:50:22Z</time>
   </trkpt>
   <trkpt lat="-3.1441320" lon="37.3715660">
    <ele>3465.1</ele>
    <time>2026-06-23T11:50:23Z</time>
   </trkpt>
   <trkpt lat="-3.1441330" lon="37.3715650">
    <ele>3465.0</ele>
    <time>2026-06-23T11:50:24Z</time>
   </trkpt>
   <trkpt lat="-3.1441410" lon="37.3715620">
    <ele>3464.8</ele>
    <time>2026-06-23T11:50:25Z</time>
   </trkpt>
   <trkpt lat="-3.1441460" lon="37.3715610">
    <ele>3464.7</ele>
    <time>2026-06-23T11:50:26Z</time>
   </trkpt>
   <trkpt lat="-3.1441510" lon="37.3715580">
    <ele>3464.5</ele>
    <time>2026-06-23T11:50:27Z</time>
   </trkpt>
   <trkpt lat="-3.1441560" lon="37.3715560">
    <ele>3464.3</ele>
    <time>2026-06-23T11:50:28Z</time>
   </trkpt>
   <trkpt lat="-3.1441590" lon="37.3715550">
    <ele>3464.2</ele>
    <time>2026-06-23T11:50:29Z</time>
   </trkpt>
   <trkpt lat="-3.1441640" lon="37.3715560">
    <ele>3464.1</ele>
    <time>2026-06-23T11:50:30Z</time>
   </trkpt>
   <trkpt lat="-3.1441690" lon="37.3715580">
    <ele>3463.9</ele>
    <time>2026-06-23T11:50:31Z</time>
   </trkpt>
   <trkpt lat="-3.1441740" lon="37.3715560">
    <ele>3463.8</ele>
    <time>2026-06-23T11:50:32Z</time>
   </trkpt>
   <trkpt lat="-3.1441850" lon="37.3715550">
    <ele>3463.5</ele>
    <time>2026-06-23T11:50:33Z</time>
   </trkpt>
   <trkpt lat="-3.1441910" lon="37.3715540">
    <ele>3463.3</ele>
    <time>2026-06-23T11:50:34Z</time>
   </trkpt>
   <trkpt lat="-3.1441990" lon="37.3715510">
    <ele>3463.0</ele>
    <time>2026-06-23T11:50:35Z</time>
   </trkpt>
   <trkpt lat="-3.1441930" lon="37.3715450">
    <ele>3462.8</ele>
    <time>2026-06-23T11:50:36Z</time>
   </trkpt>
   <trkpt lat="-3.1441920" lon="37.3715390">
    <ele>3462.6</ele>
    <time>2026-06-23T11:50:37Z</time>
   </trkpt>
   <trkpt lat="-3.1441930" lon="37.3715320">
    <ele>3462.4</ele>
    <time>2026-06-23T11:50:38Z</time>
   </trkpt>
   <trkpt lat="-3.1441970" lon="37.3715300">
    <ele>3462.3</ele>
    <time>2026-06-23T11:50:39Z</time>
   </trkpt>
   <trkpt lat="-3.1442050" lon="37.3715220">
    <ele>3461.9</ele>
    <time>2026-06-23T11:50:40Z</time>
   </trkpt>
   <trkpt lat="-3.1442060" lon="37.3715250">
    <ele>3461.9</ele>
    <time>2026-06-23T11:50:41Z</time>
   </trkpt>
   <trkpt lat="-3.1442080" lon="37.3715240">
    <ele>3461.8</ele>
    <time>2026-06-23T11:50:42Z</time>
   </trkpt>
   <trkpt lat="-3.1442060" lon="37.3715250">
    <ele>3461.7</ele>
    <time>2026-06-23T11:50:43Z</time>
   </trkpt>
   <trkpt lat="-3.1442070" lon="37.3715270">
    <ele>3461.7</ele>
    <time>2026-06-23T11:50:44Z</time>
   </trkpt>
   <trkpt lat="-3.1442120" lon="37.3715280">
    <ele>3461.5</ele>
    <time>2026-06-23T11:50:45Z</time>
   </trkpt>
   <trkpt lat="-3.1442120" lon="37.3715310">
    <ele>3461.4</ele>
    <time>2026-06-23T11:50:46Z</time>
   </trkpt>
   <trkpt lat="-3.1442180" lon="37.3715330">
    <ele>3461.2</ele>
    <time>2026-06-23T11:50:47Z</time>
   </trkpt>
   <trkpt lat="-3.1442190" lon="37.3715360">
    <ele>3461.1</ele>
    <time>2026-06-23T11:50:48Z</time>
   </trkpt>
   <trkpt lat="-3.1442220" lon="37.3715380">
    <ele>3461.0</ele>
    <time>2026-06-23T11:50:49Z</time>
   </trkpt>
   <trkpt lat="-3.1442240" lon="37.3715350">
    <ele>3460.9</ele>
    <time>2026-06-23T11:50:50Z</time>
   </trkpt>
   <trkpt lat="-3.1442330" lon="37.3715340">
    <ele>3460.6</ele>
    <time>2026-06-23T11:50:51Z</time>
   </trkpt>
   <trkpt lat="-3.1442370" lon="37.3715350">
    <ele>3460.5</ele>
    <time>2026-06-23T11:50:52Z</time>
   </trkpt>
   <trkpt lat="-3.1442460" lon="37.3715320">
    <ele>3460.2</ele>
    <time>2026-06-23T11:50:53Z</time>
   </trkpt>
   <trkpt lat="-3.1442480" lon="37.3715360">
    <ele>3460.1</ele>
    <time>2026-06-23T11:50:54Z</time>
   </trkpt>
   <trkpt lat="-3.1442500" lon="37.3715380">
    <ele>3460.0</ele>
    <time>2026-06-23T11:50:55Z</time>
   </trkpt>
   <trkpt lat="-3.1442560" lon="37.3715420">
    <ele>3459.8</ele>
    <time>2026-06-23T11:50:56Z</time>
   </trkpt>
   <trkpt lat="-3.1442620" lon="37.3715450">
    <ele>3459.6</ele>
    <time>2026-06-23T11:50:57Z</time>
   </trkpt>
   <trkpt lat="-3.1442640" lon="37.3715420">
    <ele>3459.4</ele>
    <time>2026-06-23T11:50:58Z</time>
   </trkpt>
   <trkpt lat="-3.1442710" lon="37.3715360">
    <ele>3459.1</ele>
    <time>2026-06-23T11:50:59Z</time>
   </trkpt>
   <trkpt lat="-3.1442790" lon="37.3715320">
    <ele>3458.9</ele>
    <time>2026-06-23T11:51:00Z</time>
   </trkpt>
   <trkpt lat="-3.1442800" lon="37.3715300">
    <ele>3458.8</ele>
    <time>2026-06-23T11:51:01Z</time>
   </trkpt>
   <trkpt lat="-3.1442850" lon="37.3715290">
    <ele>3458.6</ele>
    <time>2026-06-23T11:51:02Z</time>
   </trkpt>
   <trkpt lat="-3.1442850" lon="37.3715320">
    <ele>3458.5</ele>
    <time>2026-06-23T11:51:03Z</time>
   </trkpt>
   <trkpt lat="-3.1442860" lon="37.3715340">
    <ele>3458.5</ele>
    <time>2026-06-23T11:51:04Z</time>
   </trkpt>
   <trkpt lat="-3.1442910" lon="37.3715370">
    <ele>3458.3</ele>
    <time>2026-06-23T11:51:05Z</time>
   </trkpt>
   <trkpt lat="-3.1442970" lon="37.3715400">
    <ele>3458.1</ele>
    <time>2026-06-23T11:51:06Z</time>
   </trkpt>
   <trkpt lat="-3.1443020" lon="37.3715420">
    <ele>3457.9</ele>
    <time>2026-06-23T11:51:07Z</time>
   </trkpt>
   <trkpt lat="-3.1443070" lon="37.3715430">
    <ele>3457.7</ele>
    <time>2026-06-23T11:51:08Z</time>
   </trkpt>
   <trkpt lat="-3.1443140" lon="37.3715410">
    <ele>3457.5</ele>
    <time>2026-06-23T11:51:09Z</time>
   </trkpt>
   <trkpt lat="-3.1443160" lon="37.3715380">
    <ele>3457.4</ele>
    <time>2026-06-23T11:51:10Z</time>
   </trkpt>
   <trkpt lat="-3.1443210" lon="37.3715380">
    <ele>3457.2</ele>
    <time>2026-06-23T11:51:11Z</time>
   </trkpt>
   <trkpt lat="-3.1443270" lon="37.3715410">
    <ele>3457.0</ele>
    <time>2026-06-23T11:51:12Z</time>
   </trkpt>
   <trkpt lat="-3.1443300" lon="37.3715390">
    <ele>3456.9</ele>
    <time>2026-06-23T11:51:13Z</time>
   </trkpt>
   <trkpt lat="-3.1443310" lon="37.3715370">
    <ele>3456.8</ele>
    <time>2026-06-23T11:51:14Z</time>
   </trkpt>
   <trkpt lat="-3.1443340" lon="37.3715340">
    <ele>3456.7</ele>
    <time>2026-06-23T11:51:15Z</time>
   </trkpt>
   <trkpt lat="-3.1443400" lon="37.3715340">
    <ele>3456.5</ele>
    <time>2026-06-23T11:51:16Z</time>
   </trkpt>
   <trkpt lat="-3.1443450" lon="37.3715330">
    <ele>3456.3</ele>
    <time>2026-06-23T11:51:17Z</time>
   </trkpt>
   <trkpt lat="-3.1443490" lon="37.3715330">
    <ele>3456.2</ele>
    <time>2026-06-23T11:51:18Z</time>
   </trkpt>
   <trkpt lat="-3.1443520" lon="37.3715330">
    <ele>3456.1</ele>
    <time>2026-06-23T11:51:19Z</time>
   </trkpt>
   <trkpt lat="-3.1443550" lon="37.3715380">
    <ele>3455.9</ele>
    <time>2026-06-23T11:51:20Z</time>
   </trkpt>
   <trkpt lat="-3.1443600" lon="37.3715350">
    <ele>3455.7</ele>
    <time>2026-06-23T11:51:21Z</time>
   </trkpt>
   <trkpt lat="-3.1443670" lon="37.3715330">
    <ele>3455.5</ele>
    <time>2026-06-23T11:51:22Z</time>
   </trkpt>
   <trkpt lat="-3.1443740" lon="37.3715300">
    <ele>3455.2</ele>
    <time>2026-06-23T11:51:23Z</time>
   </trkpt>
   <trkpt lat="-3.1443780" lon="37.3715310">
    <ele>3455.1</ele>
    <time>2026-06-23T11:51:24Z</time>
   </trkpt>
   <trkpt lat="-3.1443760" lon="37.3715310">
    <ele>3455.0</ele>
    <time>2026-06-23T11:51:25Z</time>
   </trkpt>
   <trkpt lat="-3.1443830" lon="37.3715230">
    <ele>3454.7</ele>
    <time>2026-06-23T11:51:26Z</time>
   </trkpt>
   <trkpt lat="-3.1443900" lon="37.3715180">
    <ele>3454.4</ele>
    <time>2026-06-23T11:51:27Z</time>
   </trkpt>
   <trkpt lat="-3.1443870" lon="37.3715170">
    <ele>3454.3</ele>
    <time>2026-06-23T11:51:28Z</time>
   </trkpt>
   <trkpt lat="-3.1443870" lon="37.3715130">
    <ele>3454.1</ele>
    <time>2026-06-23T11:51:29Z</time>
   </trkpt>
   <trkpt lat="-3.1443900" lon="37.3715090">
    <ele>3454.0</ele>
    <time>2026-06-23T11:51:30Z</time>
   </trkpt>
   <trkpt lat="-3.1443930" lon="37.3715110">
    <ele>3453.9</ele>
    <time>2026-06-23T11:51:31Z</time>
   </trkpt>
   <trkpt lat="-3.1443990" lon="37.3715090">
    <ele>3453.7</ele>
    <time>2026-06-23T11:51:32Z</time>
   </trkpt>
   <trkpt lat="-3.1444040" lon="37.3715100">
    <ele>3453.5</ele>
    <time>2026-06-23T11:51:33Z</time>
   </trkpt>
   <trkpt lat="-3.1444110" lon="37.3715070">
    <ele>3453.2</ele>
    <time>2026-06-23T11:51:34Z</time>
   </trkpt>
   <trkpt lat="-3.1444170" lon="37.3715070">
    <ele>3453.0</ele>
    <time>2026-06-23T11:51:35Z</time>
   </trkpt>
   <trkpt lat="-3.1444110" lon="37.3715100">
    <ele>3452.8</ele>
    <time>2026-06-23T11:51:36Z</time>
   </trkpt>
   <trkpt lat="-3.1444050" lon="37.3715160">
    <ele>3452.5</ele>
    <time>2026-06-23T11:51:37Z</time>
   </trkpt>
   <trkpt lat="-3.1444030" lon="37.3715220">
    <ele>3452.3</ele>
    <time>2026-06-23T11:51:38Z</time>
   </trkpt>
   <trkpt lat="-3.1444080" lon="37.3715260">
    <ele>3452.1</ele>
    <time>2026-06-23T11:51:39Z</time>
   </trkpt>
   <trkpt lat="-3.1444080" lon="37.3715280">
    <ele>3452.1</ele>
    <time>2026-06-23T11:51:40Z</time>
   </trkpt>
   <trkpt lat="-3.1444140" lon="37.3715330">
    <ele>3451.8</ele>
    <time>2026-06-23T11:51:41Z</time>
   </trkpt>
   <trkpt lat="-3.1444170" lon="37.3715340">
    <ele>3451.7</ele>
    <time>2026-06-23T11:51:42Z</time>
   </trkpt>
   <trkpt lat="-3.1444250" lon="37.3715330">
    <ele>3451.4</ele>
    <time>2026-06-23T11:51:43Z</time>
   </trkpt>
   <trkpt lat="-3.1444280" lon="37.3715300">
    <ele>3451.3</ele>
    <time>2026-06-23T11:51:44Z</time>
   </trkpt>
   <trkpt lat="-3.1444360" lon="37.3715250">
    <ele>3451.0</ele>
    <time>2026-06-23T11:51:45Z</time>
   </trkpt>
   <trkpt lat="-3.1444420" lon="37.3715210">
    <ele>3450.7</ele>
    <time>2026-06-23T11:51:46Z</time>
   </trkpt>
   <trkpt lat="-3.1444460" lon="37.3715190">
    <ele>3450.6</ele>
    <time>2026-06-23T11:51:47Z</time>
   </trkpt>
   <trkpt lat="-3.1444510" lon="37.3715210">
    <ele>3450.4</ele>
    <time>2026-06-23T11:51:48Z</time>
   </trkpt>
   <trkpt lat="-3.1444540" lon="37.3715220">
    <ele>3450.3</ele>
    <time>2026-06-23T11:51:49Z</time>
   </trkpt>
   <trkpt lat="-3.1444600" lon="37.3715230">
    <ele>3450.1</ele>
    <time>2026-06-23T11:51:50Z</time>
   </trkpt>
   <trkpt lat="-3.1444650" lon="37.3715240">
    <ele>3449.9</ele>
    <time>2026-06-23T11:51:51Z</time>
   </trkpt>
   <trkpt lat="-3.1444660" lon="37.3715240">
    <ele>3449.9</ele>
    <time>2026-06-23T11:51:52Z</time>
   </trkpt>
   <trkpt lat="-3.1444700" lon="37.3715260">
    <ele>3449.8</ele>
    <time>2026-06-23T11:51:53Z</time>
   </trkpt>
   <trkpt lat="-3.1444750" lon="37.3715280">
    <ele>3449.6</ele>
    <time>2026-06-23T11:51:54Z</time>
   </trkpt>
   <trkpt lat="-3.1444800" lon="37.3715290">
    <ele>3449.4</ele>
    <time>2026-06-23T11:51:55Z</time>
   </trkpt>
   <trkpt lat="-3.1444860" lon="37.3715300">
    <ele>3449.2</ele>
    <time>2026-06-23T11:51:56Z</time>
   </trkpt>
   <trkpt lat="-3.1444930" lon="37.3715300">
    <ele>3449.0</ele>
    <time>2026-06-23T11:51:57Z</time>
   </trkpt>
   <trkpt lat="-3.1444980" lon="37.3715300">
    <ele>3448.8</ele>
    <time>2026-06-23T11:51:58Z</time>
   </trkpt>
   <trkpt lat="-3.1445040" lon="37.3715300">
    <ele>3448.6</ele>
    <time>2026-06-23T11:51:59Z</time>
   </trkpt>
   <trkpt lat="-3.1445070" lon="37.3715310">
    <ele>3448.5</ele>
    <time>2026-06-23T11:52:00Z</time>
   </trkpt>
   <trkpt lat="-3.1445090" lon="37.3715300">
    <ele>3448.4</ele>
    <time>2026-06-23T11:52:01Z</time>
   </trkpt>
   <trkpt lat="-3.1445100" lon="37.3715320">
    <ele>3448.4</ele>
    <time>2026-06-23T11:52:02Z</time>
   </trkpt>
   <trkpt lat="-3.1445120" lon="37.3715340">
    <ele>3448.3</ele>
    <time>2026-06-23T11:52:03Z</time>
   </trkpt>
   <trkpt lat="-3.1445190" lon="37.3715330">
    <ele>3448.0</ele>
    <time>2026-06-23T11:52:04Z</time>
   </trkpt>
   <trkpt lat="-3.1445210" lon="37.3715340">
    <ele>3448.0</ele>
    <time>2026-06-23T11:52:05Z</time>
   </trkpt>
   <trkpt lat="-3.1445260" lon="37.3715370">
    <ele>3447.8</ele>
    <time>2026-06-23T11:52:06Z</time>
   </trkpt>
   <trkpt lat="-3.1445310" lon="37.3715360">
    <ele>3447.6</ele>
    <time>2026-06-23T11:52:07Z</time>
   </trkpt>
   <trkpt lat="-3.1445330" lon="37.3715400">
    <ele>3447.5</ele>
    <time>2026-06-23T11:52:08Z</time>
   </trkpt>
   <trkpt lat="-3.1445340" lon="37.3715430">
    <ele>3447.4</ele>
    <time>2026-06-23T11:52:09Z</time>
   </trkpt>
   <trkpt lat="-3.1445370" lon="37.3715470">
    <ele>3447.2</ele>
    <time>2026-06-23T11:52:10Z</time>
   </trkpt>
   <trkpt lat="-3.1445400" lon="37.3715510">
    <ele>3447.0</ele>
    <time>2026-06-23T11:52:11Z</time>
   </trkpt>
   <trkpt lat="-3.1445430" lon="37.3715550">
    <ele>3446.9</ele>
    <time>2026-06-23T11:52:12Z</time>
   </trkpt>
   <trkpt lat="-3.1445480" lon="37.3715590">
    <ele>3446.7</ele>
    <time>2026-06-23T11:52:13Z</time>
   </trkpt>
   <trkpt lat="-3.1445480" lon="37.3715630">
    <ele>3446.5</ele>
    <time>2026-06-23T11:52:14Z</time>
   </trkpt>
   <trkpt lat="-3.1445540" lon="37.3715620">
    <ele>3446.3</ele>
    <time>2026-06-23T11:52:15Z</time>
   </trkpt>
   <trkpt lat="-3.1445610" lon="37.3715610">
    <ele>3446.1</ele>
    <time>2026-06-23T11:52:16Z</time>
   </trkpt>
   <trkpt lat="-3.1445670" lon="37.3715560">
    <ele>3445.8</ele>
    <time>2026-06-23T11:52:17Z</time>
   </trkpt>
   <trkpt lat="-3.1445720" lon="37.3715530">
    <ele>3445.6</ele>
    <time>2026-06-23T11:52:18Z</time>
   </trkpt>
   <trkpt lat="-3.1445740" lon="37.3715490">
    <ele>3445.5</ele>
    <time>2026-06-23T11:52:19Z</time>
   </trkpt>
   <trkpt lat="-3.1445770" lon="37.3715440">
    <ele>3445.3</ele>
    <time>2026-06-23T11:52:20Z</time>
   </trkpt>
   <trkpt lat="-3.1445770" lon="37.3715430">
    <ele>3445.3</ele>
    <time>2026-06-23T11:52:21Z</time>
   </trkpt>
   <trkpt lat="-3.1445810" lon="37.3715410">
    <ele>3445.1</ele>
    <time>2026-06-23T11:52:22Z</time>
   </trkpt>
   <trkpt lat="-3.1445860" lon="37.3715370">
    <ele>3444.9</ele>
    <time>2026-06-23T11:52:24Z</time>
   </trkpt>
   <trkpt lat="-3.1445920" lon="37.3715330">
    <ele>3444.7</ele>
    <time>2026-06-23T11:52:25Z</time>
   </trkpt>
   <trkpt lat="-3.1445970" lon="37.3715320">
    <ele>3444.5</ele>
    <time>2026-06-23T11:52:26Z</time>
   </trkpt>
   <trkpt lat="-3.1445990" lon="37.3715320">
    <ele>3444.4</ele>
    <time>2026-06-23T11:52:27Z</time>
   </trkpt>
   <trkpt lat="-3.1446050" lon="37.3715330">
    <ele>3444.2</ele>
    <time>2026-06-23T11:52:28Z</time>
   </trkpt>
   <trkpt lat="-3.1446090" lon="37.3715300">
    <ele>3444.1</ele>
    <time>2026-06-23T11:52:29Z</time>
   </trkpt>
   <trkpt lat="-3.1446130" lon="37.3715290">
    <ele>3443.9</ele>
    <time>2026-06-23T11:52:30Z</time>
   </trkpt>
   <trkpt lat="-3.1446180" lon="37.3715280">
    <ele>3443.8</ele>
    <time>2026-06-23T11:52:31Z</time>
   </trkpt>
   <trkpt lat="-3.1446240" lon="37.3715250">
    <ele>3443.5</ele>
    <time>2026-06-23T11:52:32Z</time>
   </trkpt>
   <trkpt lat="-3.1446260" lon="37.3715250">
    <ele>3443.5</ele>
    <time>2026-06-23T11:52:33Z</time>
   </trkpt>
   <trkpt lat="-3.1446400" lon="37.3715240">
    <ele>3443.0</ele>
    <time>2026-06-23T11:52:34Z</time>
   </trkpt>
   <trkpt lat="-3.1446390" lon="37.3715210">
    <ele>3442.9</ele>
    <time>2026-06-23T11:52:35Z</time>
   </trkpt>
   <trkpt lat="-3.1446470" lon="37.3715240">
    <ele>3442.6</ele>
    <time>2026-06-23T11:52:36Z</time>
   </trkpt>
   <trkpt lat="-3.1446490" lon="37.3715210">
    <ele>3442.5</ele>
    <time>2026-06-23T11:52:37Z</time>
   </trkpt>
   <trkpt lat="-3.1446550" lon="37.3715220">
    <ele>3442.3</ele>
    <time>2026-06-23T11:52:38Z</time>
   </trkpt>
   <trkpt lat="-3.1446600" lon="37.3715190">
    <ele>3442.1</ele>
    <time>2026-06-23T11:52:39Z</time>
   </trkpt>
   <trkpt lat="-3.1446630" lon="37.3715190">
    <ele>3442.0</ele>
    <time>2026-06-23T11:52:40Z</time>
   </trkpt>
   <trkpt lat="-3.1446570" lon="37.3715190">
    <ele>3441.8</ele>
    <time>2026-06-23T11:52:41Z</time>
   </trkpt>
   <trkpt lat="-3.1446690" lon="37.3715210">
    <ele>3441.4</ele>
    <time>2026-06-23T11:52:42Z</time>
   </trkpt>
   <trkpt lat="-3.1446750" lon="37.3715200">
    <ele>3441.2</ele>
    <time>2026-06-23T11:52:43Z</time>
   </trkpt>
   <trkpt lat="-3.1446800" lon="37.3715190">
    <ele>3441.0</ele>
    <time>2026-06-23T11:52:44Z</time>
   </trkpt>
   <trkpt lat="-3.1446820" lon="37.3715200">
    <ele>3441.0</ele>
    <time>2026-06-23T11:52:45Z</time>
   </trkpt>
   <trkpt lat="-3.1446860" lon="37.3715210">
    <ele>3440.8</ele>
    <time>2026-06-23T11:52:46Z</time>
   </trkpt>
   <trkpt lat="-3.1446890" lon="37.3715210">
    <ele>3440.7</ele>
    <time>2026-06-23T11:52:47Z</time>
   </trkpt>
   <trkpt lat="-3.1446940" lon="37.3715210">
    <ele>3440.6</ele>
    <time>2026-06-23T11:52:48Z</time>
   </trkpt>
   <trkpt lat="-3.1447030" lon="37.3715180">
    <ele>3440.3</ele>
    <time>2026-06-23T11:52:49Z</time>
   </trkpt>
   <trkpt lat="-3.1447080" lon="37.3715180">
    <ele>3440.1</ele>
    <time>2026-06-23T11:52:50Z</time>
   </trkpt>
   <trkpt lat="-3.1447090" lon="37.3715190">
    <ele>3440.1</ele>
    <time>2026-06-23T11:52:51Z</time>
   </trkpt>
   <trkpt lat="-3.1447090" lon="37.3715210">
    <ele>3440.0</ele>
    <time>2026-06-23T11:52:52Z</time>
   </trkpt>
   <trkpt lat="-3.1447130" lon="37.3715260">
    <ele>3439.8</ele>
    <time>2026-06-23T11:52:53Z</time>
   </trkpt>
   <trkpt lat="-3.1447150" lon="37.3715310">
    <ele>3439.6</ele>
    <time>2026-06-23T11:52:54Z</time>
   </trkpt>
   <trkpt lat="-3.1447170" lon="37.3715370">
    <ele>3439.4</ele>
    <time>2026-06-23T11:52:55Z</time>
   </trkpt>
   <trkpt lat="-3.1447230" lon="37.3715430">
    <ele>3439.1</ele>
    <time>2026-06-23T11:52:56Z</time>
   </trkpt>
   <trkpt lat="-3.1447290" lon="37.3715460">
    <ele>3438.9</ele>
    <time>2026-06-23T11:52:57Z</time>
   </trkpt>
   <trkpt lat="-3.1447310" lon="37.3715470">
    <ele>3438.8</ele>
    <time>2026-06-23T11:52:58Z</time>
   </trkpt>
   <trkpt lat="-3.1447370" lon="37.3715490">
    <ele>3438.6</ele>
    <time>2026-06-23T11:52:59Z</time>
   </trkpt>
   <trkpt lat="-3.1447420" lon="37.3715470">
    <ele>3438.4</ele>
    <time>2026-06-23T11:53:00Z</time>
   </trkpt>
   <trkpt lat="-3.1447450" lon="37.3715430">
    <ele>3438.3</ele>
    <time>2026-06-23T11:53:01Z</time>
   </trkpt>
   <trkpt lat="-3.1447490" lon="37.3715370">
    <ele>3438.0</ele>
    <time>2026-06-23T11:53:02Z</time>
   </trkpt>
   <trkpt lat="-3.1447490" lon="37.3715340">
    <ele>3437.9</ele>
    <time>2026-06-23T11:53:03Z</time>
   </trkpt>
   <trkpt lat="-3.1447540" lon="37.3715300">
    <ele>3437.7</ele>
    <time>2026-06-23T11:53:04Z</time>
   </trkpt>
   <trkpt lat="-3.1447600" lon="37.3715280">
    <ele>3437.5</ele>
    <time>2026-06-23T11:53:05Z</time>
   </trkpt>
   <trkpt lat="-3.1447680" lon="37.3715220">
    <ele>3437.2</ele>
    <time>2026-06-23T11:53:06Z</time>
   </trkpt>
   <trkpt lat="-3.1447740" lon="37.3715180">
    <ele>3436.9</ele>
    <time>2026-06-23T11:53:07Z</time>
   </trkpt>
   <trkpt lat="-3.1447790" lon="37.3715160">
    <ele>3436.8</ele>
    <time>2026-06-23T11:53:08Z</time>
   </trkpt>
   <trkpt lat="-3.1447850" lon="37.3715130">
    <ele>3436.5</ele>
    <time>2026-06-23T11:53:09Z</time>
   </trkpt>
   <trkpt lat="-3.1447870" lon="37.3715100">
    <ele>3436.4</ele>
    <time>2026-06-23T11:53:10Z</time>
   </trkpt>
   <trkpt lat="-3.1447910" lon="37.3715060">
    <ele>3436.2</ele>
    <time>2026-06-23T11:53:11Z</time>
   </trkpt>
   <trkpt lat="-3.1447910" lon="37.3715010">
    <ele>3436.1</ele>
    <time>2026-06-23T11:53:12Z</time>
   </trkpt>
   <trkpt lat="-3.1447970" lon="37.3714940">
    <ele>3435.8</ele>
    <time>2026-06-23T11:53:13Z</time>
   </trkpt>
   <trkpt lat="-3.1448020" lon="37.3714930">
    <ele>3435.6</ele>
    <time>2026-06-23T11:53:14Z</time>
   </trkpt>
   <trkpt lat="-3.1448080" lon="37.3714870">
    <ele>3435.3</ele>
    <time>2026-06-23T11:53:15Z</time>
   </trkpt>
   <trkpt lat="-3.1448140" lon="37.3714830">
    <ele>3435.1</ele>
    <time>2026-06-23T11:53:16Z</time>
   </trkpt>
   <trkpt lat="-3.1448210" lon="37.3714780">
    <ele>3434.8</ele>
    <time>2026-06-23T11:53:17Z</time>
   </trkpt>
   <trkpt lat="-3.1448250" lon="37.3714760">
    <ele>3434.7</ele>
    <time>2026-06-23T11:53:18Z</time>
   </trkpt>
   <trkpt lat="-3.1448270" lon="37.3714780">
    <ele>3434.6</ele>
    <time>2026-06-23T11:53:19Z</time>
   </trkpt>
   <trkpt lat="-3.1448300" lon="37.3714800">
    <ele>3434.4</ele>
    <time>2026-06-23T11:53:20Z</time>
   </trkpt>
   <trkpt lat="-3.1448330" lon="37.3714810">
    <ele>3434.3</ele>
    <time>2026-06-23T11:53:21Z</time>
   </trkpt>
   <trkpt lat="-3.1448380" lon="37.3714780">
    <ele>3434.1</ele>
    <time>2026-06-23T11:53:22Z</time>
   </trkpt>
   <trkpt lat="-3.1448430" lon="37.3714780">
    <ele>3434.0</ele>
    <time>2026-06-23T11:53:23Z</time>
   </trkpt>
   <trkpt lat="-3.1448470" lon="37.3714760">
    <ele>3433.8</ele>
    <time>2026-06-23T11:53:24Z</time>
   </trkpt>
   <trkpt lat="-3.1448500" lon="37.3714730">
    <ele>3433.7</ele>
    <time>2026-06-23T11:53:25Z</time>
   </trkpt>
   <trkpt lat="-3.1448520" lon="37.3714720">
    <ele>3433.6</ele>
    <time>2026-06-23T11:53:26Z</time>
   </trkpt>
   <trkpt lat="-3.1448570" lon="37.3714710">
    <ele>3433.4</ele>
    <time>2026-06-23T11:53:27Z</time>
   </trkpt>
   <trkpt lat="-3.1448590" lon="37.3714720">
    <ele>3433.4</ele>
    <time>2026-06-23T11:53:28Z</time>
   </trkpt>
   <trkpt lat="-3.1448600" lon="37.3714730">
    <ele>3433.3</ele>
    <time>2026-06-23T11:53:29Z</time>
   </trkpt>
   <trkpt lat="-3.1448640" lon="37.3714720">
    <ele>3433.2</ele>
    <time>2026-06-23T11:53:30Z</time>
   </trkpt>
   <trkpt lat="-3.1448690" lon="37.3714690">
    <ele>3433.0</ele>
    <time>2026-06-23T11:53:31Z</time>
   </trkpt>
   <trkpt lat="-3.1448720" lon="37.3714710">
    <ele>3432.9</ele>
    <time>2026-06-23T11:53:32Z</time>
   </trkpt>
   <trkpt lat="-3.1448750" lon="37.3714710">
    <ele>3432.8</ele>
    <time>2026-06-23T11:53:33Z</time>
   </trkpt>
   <trkpt lat="-3.1448790" lon="37.3714660">
    <ele>3432.6</ele>
    <time>2026-06-23T11:53:34Z</time>
   </trkpt>
   <trkpt lat="-3.1448850" lon="37.3714640">
    <ele>3432.4</ele>
    <time>2026-06-23T11:53:35Z</time>
   </trkpt>
   <trkpt lat="-3.1448850" lon="37.3714640">
    <ele>3432.4</ele>
    <time>2026-06-23T11:53:36Z</time>
   </trkpt>
   <trkpt lat="-3.1448920" lon="37.3714640">
    <ele>3432.1</ele>
    <time>2026-06-23T11:53:37Z</time>
   </trkpt>
   <trkpt lat="-3.1448940" lon="37.3714630">
    <ele>3432.1</ele>
    <time>2026-06-23T11:53:38Z</time>
   </trkpt>
   <trkpt lat="-3.1449020" lon="37.3714570">
    <ele>3431.7</ele>
    <time>2026-06-23T11:53:39Z</time>
   </trkpt>
   <trkpt lat="-3.1449080" lon="37.3714580">
    <ele>3431.6</ele>
    <time>2026-06-23T11:53:40Z</time>
   </trkpt>
   <trkpt lat="-3.1449120" lon="37.3714570">
    <ele>3431.4</ele>
    <time>2026-06-23T11:53:41Z</time>
   </trkpt>
   <trkpt lat="-3.1449170" lon="37.3714560">
    <ele>3431.3</ele>
    <time>2026-06-23T11:53:42Z</time>
   </trkpt>
   <trkpt lat="-3.1449200" lon="37.3714570">
    <ele>3431.2</ele>
    <time>2026-06-23T11:53:43Z</time>
   </trkpt>
   <trkpt lat="-3.1449260" lon="37.3714560">
    <ele>3431.0</ele>
    <time>2026-06-23T11:53:44Z</time>
   </trkpt>
   <trkpt lat="-3.1449300" lon="37.3714540">
    <ele>3430.8</ele>
    <time>2026-06-23T11:53:45Z</time>
   </trkpt>
   <trkpt lat="-3.1449350" lon="37.3714550">
    <ele>3430.7</ele>
    <time>2026-06-23T11:53:46Z</time>
   </trkpt>
   <trkpt lat="-3.1449370" lon="37.3714540">
    <ele>3430.6</ele>
    <time>2026-06-23T11:53:47Z</time>
   </trkpt>
   <trkpt lat="-3.1449430" lon="37.3714530">
    <ele>3430.4</ele>
    <time>2026-06-23T11:53:48Z</time>
   </trkpt>
   <trkpt lat="-3.1449480" lon="37.3714520">
    <ele>3430.2</ele>
    <time>2026-06-23T11:53:49Z</time>
   </trkpt>
   <trkpt lat="-3.1449510" lon="37.3714490">
    <ele>3430.1</ele>
    <time>2026-06-23T11:53:50Z</time>
   </trkpt>
   <trkpt lat="-3.1449610" lon="37.3714480">
    <ele>3429.8</ele>
    <time>2026-06-23T11:53:51Z</time>
   </trkpt>
   <trkpt lat="-3.1449640" lon="37.3714450">
    <ele>3429.6</ele>
    <time>2026-06-23T11:53:52Z</time>
   </trkpt>
   <trkpt lat="-3.1449690" lon="37.3714410">
    <ele>3429.4</ele>
    <time>2026-06-23T11:53:53Z</time>
   </trkpt>
   <trkpt lat="-3.1449730" lon="37.3714380">
    <ele>3429.3</ele>
    <time>2026-06-23T11:53:54Z</time>
   </trkpt>
   <trkpt lat="-3.1449760" lon="37.3714340">
    <ele>3429.1</ele>
    <time>2026-06-23T11:53:55Z</time>
   </trkpt>
   <trkpt lat="-3.1449790" lon="37.3714340">
    <ele>3429.0</ele>
    <time>2026-06-23T11:53:56Z</time>
   </trkpt>
   <trkpt lat="-3.1449810" lon="37.3714340">
    <ele>3429.0</ele>
    <time>2026-06-23T11:53:57Z</time>
   </trkpt>
   <trkpt lat="-3.1449860" lon="37.3714320">
    <ele>3428.8</ele>
    <time>2026-06-23T11:53:58Z</time>
   </trkpt>
   <trkpt lat="-3.1449900" lon="37.3714280">
    <ele>3428.6</ele>
    <time>2026-06-23T11:53:59Z</time>
   </trkpt>
   <trkpt lat="-3.1449960" lon="37.3714250">
    <ele>3428.4</ele>
    <time>2026-06-23T11:54:00Z</time>
   </trkpt>
   <trkpt lat="-3.1450010" lon="37.3714220">
    <ele>3428.3</ele>
    <time>2026-06-23T11:54:01Z</time>
   </trkpt>
   <trkpt lat="-3.1450050" lon="37.3714190">
    <ele>3428.1</ele>
    <time>2026-06-23T11:54:02Z</time>
   </trkpt>
   <trkpt lat="-3.1450100" lon="37.3714160">
    <ele>3427.9</ele>
    <time>2026-06-23T11:54:03Z</time>
   </trkpt>
   <trkpt lat="-3.1450150" lon="37.3714120">
    <ele>3427.7</ele>
    <time>2026-06-23T11:54:04Z</time>
   </trkpt>
   <trkpt lat="-3.1450170" lon="37.3714100">
    <ele>3427.7</ele>
    <time>2026-06-23T11:54:05Z</time>
   </trkpt>
   <trkpt lat="-3.1450200" lon="37.3714120">
    <ele>3427.5</ele>
    <time>2026-06-23T11:54:06Z</time>
   </trkpt>
   <trkpt lat="-3.1450240" lon="37.3714130">
    <ele>3427.4</ele>
    <time>2026-06-23T11:54:07Z</time>
   </trkpt>
   <trkpt lat="-3.1450320" lon="37.3714110">
    <ele>3427.2</ele>
    <time>2026-06-23T11:54:08Z</time>
   </trkpt>
   <trkpt lat="-3.1450340" lon="37.3714080">
    <ele>3427.1</ele>
    <time>2026-06-23T11:54:09Z</time>
   </trkpt>
   <trkpt lat="-3.1450400" lon="37.3713990">
    <ele>3426.8</ele>
    <time>2026-06-23T11:54:10Z</time>
   </trkpt>
   <trkpt lat="-3.1450460" lon="37.3713830">
    <ele>3426.3</ele>
    <time>2026-06-23T11:54:11Z</time>
   </trkpt>
   <trkpt lat="-3.1450480" lon="37.3713760">
    <ele>3426.1</ele>
    <time>2026-06-23T11:54:12Z</time>
   </trkpt>
   <trkpt lat="-3.1450530" lon="37.3713740">
    <ele>3425.9</ele>
    <time>2026-06-23T11:54:13Z</time>
   </trkpt>
   <trkpt lat="-3.1450570" lon="37.3713690">
    <ele>3425.7</ele>
    <time>2026-06-23T11:54:14Z</time>
   </trkpt>
   <trkpt lat="-3.1450620" lon="37.3713650">
    <ele>3425.6</ele>
    <time>2026-06-23T11:54:15Z</time>
   </trkpt>
   <trkpt lat="-3.1450660" lon="37.3713610">
    <ele>3425.4</ele>
    <time>2026-06-23T11:54:16Z</time>
   </trkpt>
   <trkpt lat="-3.1450740" lon="37.3713550">
    <ele>3425.1</ele>
    <time>2026-06-23T11:54:17Z</time>
   </trkpt>
   <trkpt lat="-3.1450780" lon="37.3713540">
    <ele>3425.0</ele>
    <time>2026-06-23T11:54:18Z</time>
   </trkpt>
   <trkpt lat="-3.1450870" lon="37.3713520">
    <ele>3424.8</ele>
    <time>2026-06-23T11:54:19Z</time>
   </trkpt>
   <trkpt lat="-3.1450920" lon="37.3713490">
    <ele>3424.6</ele>
    <time>2026-06-23T11:54:20Z</time>
   </trkpt>
   <trkpt lat="-3.1450950" lon="37.3713450">
    <ele>3424.5</ele>
    <time>2026-06-23T11:54:21Z</time>
   </trkpt>
   <trkpt lat="-3.1451000" lon="37.3713420">
    <ele>3424.3</ele>
    <time>2026-06-23T11:54:22Z</time>
   </trkpt>
   <trkpt lat="-3.1451040" lon="37.3713390">
    <ele>3424.2</ele>
    <time>2026-06-23T11:54:23Z</time>
   </trkpt>
   <trkpt lat="-3.1451050" lon="37.3713400">
    <ele>3424.1</ele>
    <time>2026-06-23T11:54:24Z</time>
   </trkpt>
   <trkpt lat="-3.1451090" lon="37.3713410">
    <ele>3424.0</ele>
    <time>2026-06-23T11:54:25Z</time>
   </trkpt>
   <trkpt lat="-3.1451140" lon="37.3713380">
    <ele>3423.9</ele>
    <time>2026-06-23T11:54:26Z</time>
   </trkpt>
   <trkpt lat="-3.1451190" lon="37.3713350">
    <ele>3423.7</ele>
    <time>2026-06-23T11:54:27Z</time>
   </trkpt>
   <trkpt lat="-3.1451240" lon="37.3713310">
    <ele>3423.5</ele>
    <time>2026-06-23T11:54:28Z</time>
   </trkpt>
   <trkpt lat="-3.1451330" lon="37.3713300">
    <ele>3423.3</ele>
    <time>2026-06-23T11:54:29Z</time>
   </trkpt>
   <trkpt lat="-3.1451350" lon="37.3713330">
    <ele>3423.2</ele>
    <time>2026-06-23T11:54:30Z</time>
   </trkpt>
   <trkpt lat="-3.1451430" lon="37.3713360">
    <ele>3423.0</ele>
    <time>2026-06-23T11:54:31Z</time>
   </trkpt>
   <trkpt lat="-3.1451450" lon="37.3713380">
    <ele>3422.9</ele>
    <time>2026-06-23T11:54:32Z</time>
   </trkpt>
   <trkpt lat="-3.1451460" lon="37.3713400">
    <ele>3422.8</ele>
    <time>2026-06-23T11:54:33Z</time>
   </trkpt>
   <trkpt lat="-3.1451500" lon="37.3713400">
    <ele>3422.7</ele>
    <time>2026-06-23T11:54:34Z</time>
   </trkpt>
   <trkpt lat="-3.1451570" lon="37.3713370">
    <ele>3422.5</ele>
    <time>2026-06-23T11:54:35Z</time>
   </trkpt>
   <trkpt lat="-3.1451600" lon="37.3713380">
    <ele>3422.4</ele>
    <time>2026-06-23T11:54:36Z</time>
   </trkpt>
   <trkpt lat="-3.1451640" lon="37.3713400">
    <ele>3422.3</ele>
    <time>2026-06-23T11:54:37Z</time>
   </trkpt>
   <trkpt lat="-3.1451690" lon="37.3713430">
    <ele>3422.2</ele>
    <time>2026-06-23T11:54:38Z</time>
   </trkpt>
   <trkpt lat="-3.1451750" lon="37.3713450">
    <ele>3422.0</ele>
    <time>2026-06-23T11:54:39Z</time>
   </trkpt>
   <trkpt lat="-3.1451790" lon="37.3713440">
    <ele>3421.9</ele>
    <time>2026-06-23T11:54:40Z</time>
   </trkpt>
   <trkpt lat="-3.1451880" lon="37.3713460">
    <ele>3421.7</ele>
    <time>2026-06-23T11:54:41Z</time>
   </trkpt>
   <trkpt lat="-3.1451920" lon="37.3713450">
    <ele>3421.6</ele>
    <time>2026-06-23T11:54:42Z</time>
   </trkpt>
   <trkpt lat="-3.1452020" lon="37.3713450">
    <ele>3421.3</ele>
    <time>2026-06-23T11:54:43Z</time>
   </trkpt>
   <trkpt lat="-3.1452120" lon="37.3713450">
    <ele>3421.0</ele>
    <time>2026-06-23T11:54:44Z</time>
   </trkpt>
   <trkpt lat="-3.1452190" lon="37.3713430">
    <ele>3420.8</ele>
    <time>2026-06-23T11:54:45Z</time>
   </trkpt>
   <trkpt lat="-3.1452190" lon="37.3713380">
    <ele>3420.7</ele>
    <time>2026-06-23T11:54:46Z</time>
   </trkpt>
   <trkpt lat="-3.1452200" lon="37.3713340">
    <ele>3420.6</ele>
    <time>2026-06-23T11:54:47Z</time>
   </trkpt>
   <trkpt lat="-3.1452250" lon="37.3713260">
    <ele>3420.4</ele>
    <time>2026-06-23T11:54:48Z</time>
   </trkpt>
   <trkpt lat="-3.1452230" lon="37.3713210">
    <ele>3420.2</ele>
    <time>2026-06-23T11:54:49Z</time>
   </trkpt>
   <trkpt lat="-3.1452300" lon="37.3713140">
    <ele>3420.0</ele>
    <time>2026-06-23T11:54:50Z</time>
   </trkpt>
   <trkpt lat="-3.1452330" lon="37.3713070">
    <ele>3419.8</ele>
    <time>2026-06-23T11:54:51Z</time>
   </trkpt>
   <trkpt lat="-3.1452330" lon="37.3713030">
    <ele>3419.7</ele>
    <time>2026-06-23T11:54:52Z</time>
   </trkpt>
   <trkpt lat="-3.1452350" lon="37.3712930">
    <ele>3419.4</ele>
    <time>2026-06-23T11:54:53Z</time>
   </trkpt>
   <trkpt lat="-3.1452340" lon="37.3712860">
    <ele>3419.3</ele>
    <time>2026-06-23T11:54:54Z</time>
   </trkpt>
   <trkpt lat="-3.1452380" lon="37.3712890">
    <ele>3419.1</ele>
    <time>2026-06-23T11:54:55Z</time>
   </trkpt>
   <trkpt lat="-3.1452460" lon="37.3712840">
    <ele>3418.9</ele>
    <time>2026-06-23T11:54:56Z</time>
   </trkpt>
   <trkpt lat="-3.1452530" lon="37.3712790">
    <ele>3418.7</ele>
    <time>2026-06-23T11:54:57Z</time>
   </trkpt>
   <trkpt lat="-3.1452550" lon="37.3712780">
    <ele>3418.7</ele>
    <time>2026-06-23T11:54:58Z</time>
   </trkpt>
   <trkpt lat="-3.1452620" lon="37.3712780">
    <ele>3418.5</ele>
    <time>2026-06-23T11:54:59Z</time>
   </trkpt>
   <trkpt lat="-3.1452710" lon="37.3712780">
    <ele>3418.3</ele>
    <time>2026-06-23T11:55:00Z</time>
   </trkpt>
   <trkpt lat="-3.1452800" lon="37.3712810">
    <ele>3418.0</ele>
    <time>2026-06-23T11:55:01Z</time>
   </trkpt>
   <trkpt lat="-3.1452800" lon="37.3712840">
    <ele>3418.0</ele>
    <time>2026-06-23T11:55:02Z</time>
   </trkpt>
   <trkpt lat="-3.1452810" lon="37.3712890">
    <ele>3417.8</ele>
    <time>2026-06-23T11:55:03Z</time>
   </trkpt>
   <trkpt lat="-3.1452860" lon="37.3713000">
    <ele>3417.5</ele>
    <time>2026-06-23T11:55:04Z</time>
   </trkpt>
   <trkpt lat="-3.1452880" lon="37.3713070">
    <ele>3417.4</ele>
    <time>2026-06-23T11:55:05Z</time>
   </trkpt>
   <trkpt lat="-3.1452920" lon="37.3713070">
    <ele>3417.3</ele>
    <time>2026-06-23T11:55:06Z</time>
   </trkpt>
   <trkpt lat="-3.1452980" lon="37.3713120">
    <ele>3417.1</ele>
    <time>2026-06-23T11:55:07Z</time>
   </trkpt>
   <trkpt lat="-3.1453020" lon="37.3713210">
    <ele>3416.8</ele>
    <time>2026-06-23T11:55:08Z</time>
   </trkpt>
   <trkpt lat="-3.1453020" lon="37.3713240">
    <ele>3416.8</ele>
    <time>2026-06-23T11:55:09Z</time>
   </trkpt>
   <trkpt lat="-3.1453060" lon="37.3713260">
    <ele>3416.6</ele>
    <time>2026-06-23T11:55:10Z</time>
   </trkpt>
   <trkpt lat="-3.1453110" lon="37.3713250">
    <ele>3416.5</ele>
    <time>2026-06-23T11:55:11Z</time>
   </trkpt>
   <trkpt lat="-3.1453200" lon="37.3713230">
    <ele>3416.3</ele>
    <time>2026-06-23T11:55:12Z</time>
   </trkpt>
   <trkpt lat="-3.1453280" lon="37.3713190">
    <ele>3416.1</ele>
    <time>2026-06-23T11:55:13Z</time>
   </trkpt>
   <trkpt lat="-3.1453340" lon="37.3713150">
    <ele>3415.9</ele>
    <time>2026-06-23T11:55:14Z</time>
   </trkpt>
   <trkpt lat="-3.1453350" lon="37.3713090">
    <ele>3415.8</ele>
    <time>2026-06-23T11:55:15Z</time>
   </trkpt>
   <trkpt lat="-3.1453370" lon="37.3713040">
    <ele>3415.6</ele>
    <time>2026-06-23T11:55:16Z</time>
   </trkpt>
   <trkpt lat="-3.1453390" lon="37.3713000">
    <ele>3415.5</ele>
    <time>2026-06-23T11:55:17Z</time>
   </trkpt>
   <trkpt lat="-3.1453410" lon="37.3712940">
    <ele>3415.4</ele>
    <time>2026-06-23T11:55:18Z</time>
   </trkpt>
   <trkpt lat="-3.1453470" lon="37.3712960">
    <ele>3415.2</ele>
    <time>2026-06-23T11:55:19Z</time>
   </trkpt>
   <trkpt lat="-3.1453510" lon="37.3712940">
    <ele>3415.1</ele>
    <time>2026-06-23T11:55:20Z</time>
   </trkpt>
   <trkpt lat="-3.1453590" lon="37.3712940">
    <ele>3414.9</ele>
    <time>2026-06-23T11:55:21Z</time>
   </trkpt>
   <trkpt lat="-3.1453620" lon="37.3712940">
    <ele>3414.8</ele>
    <time>2026-06-23T11:55:22Z</time>
   </trkpt>
   <trkpt lat="-3.1453670" lon="37.3712920">
    <ele>3414.7</ele>
    <time>2026-06-23T11:55:23Z</time>
   </trkpt>
   <trkpt lat="-3.1453700" lon="37.3712900">
    <ele>3414.6</ele>
    <time>2026-06-23T11:55:24Z</time>
   </trkpt>
   <trkpt lat="-3.1453730" lon="37.3712900">
    <ele>3414.5</ele>
    <time>2026-06-23T11:55:25Z</time>
   </trkpt>
   <trkpt lat="-3.1453780" lon="37.3712890">
    <ele>3414.4</ele>
    <time>2026-06-23T11:55:26Z</time>
   </trkpt>
   <trkpt lat="-3.1453830" lon="37.3712860">
    <ele>3414.3</ele>
    <time>2026-06-23T11:55:27Z</time>
   </trkpt>
   <trkpt lat="-3.1453890" lon="37.3712840">
    <ele>3414.1</ele>
    <time>2026-06-23T11:55:28Z</time>
   </trkpt>
   <trkpt lat="-3.1453960" lon="37.3712840">
    <ele>3414.0</ele>
    <time>2026-06-23T11:55:29Z</time>
   </trkpt>
   <trkpt lat="-3.1454030" lon="37.3712770">
    <ele>3413.7</ele>
    <time>2026-06-23T11:55:30Z</time>
   </trkpt>
   <trkpt lat="-3.1454040" lon="37.3712740">
    <ele>3413.6</ele>
    <time>2026-06-23T11:55:31Z</time>
   </trkpt>
   <trkpt lat="-3.1454070" lon="37.3712810">
    <ele>3413.5</ele>
    <time>2026-06-23T11:55:32Z</time>
   </trkpt>
   <trkpt lat="-3.1454130" lon="37.3712820">
    <ele>3413.3</ele>
    <time>2026-06-23T11:55:33Z</time>
   </trkpt>
   <trkpt lat="-3.1454140" lon="37.3712770">
    <ele>3413.2</ele>
    <time>2026-06-23T11:55:34Z</time>
   </trkpt>
   <trkpt lat="-3.1454180" lon="37.3712730">
    <ele>3413.1</ele>
    <time>2026-06-23T11:55:35Z</time>
   </trkpt>
   <trkpt lat="-3.1454210" lon="37.3712670">
    <ele>3412.9</ele>
    <time>2026-06-23T11:55:36Z</time>
   </trkpt>
   <trkpt lat="-3.1454260" lon="37.3712710">
    <ele>3412.7</ele>
    <time>2026-06-23T11:55:37Z</time>
   </trkpt>
   <trkpt lat="-3.1454310" lon="37.3712720">
    <ele>3412.6</ele>
    <time>2026-06-23T11:55:38Z</time>
   </trkpt>
   <trkpt lat="-3.1454370" lon="37.3712710">
    <ele>3412.5</ele>
    <time>2026-06-23T11:55:39Z</time>
   </trkpt>
   <trkpt lat="-3.1454430" lon="37.3712680">
    <ele>3412.3</ele>
    <time>2026-06-23T11:55:40Z</time>
   </trkpt>
   <trkpt lat="-3.1454480" lon="37.3712670">
    <ele>3412.2</ele>
    <time>2026-06-23T11:55:41Z</time>
   </trkpt>
   <trkpt lat="-3.1454530" lon="37.3712670">
    <ele>3412.1</ele>
    <time>2026-06-23T11:55:42Z</time>
   </trkpt>
   <trkpt lat="-3.1454620" lon="37.3712680">
    <ele>3411.9</ele>
    <time>2026-06-23T11:55:43Z</time>
   </trkpt>
   <trkpt lat="-3.1454700" lon="37.3712670">
    <ele>3411.7</ele>
    <time>2026-06-23T11:55:44Z</time>
   </trkpt>
   <trkpt lat="-3.1454790" lon="37.3712650">
    <ele>3411.5</ele>
    <time>2026-06-23T11:55:45Z</time>
   </trkpt>
   <trkpt lat="-3.1454830" lon="37.3712630">
    <ele>3411.4</ele>
    <time>2026-06-23T11:55:46Z</time>
   </trkpt>
   <trkpt lat="-3.1454940" lon="37.3712610">
    <ele>3411.1</ele>
    <time>2026-06-23T11:55:47Z</time>
   </trkpt>
   <trkpt lat="-3.1454940" lon="37.3712600">
    <ele>3411.1</ele>
    <time>2026-06-23T11:55:48Z</time>
   </trkpt>
   <trkpt lat="-3.1455020" lon="37.3712560">
    <ele>3410.9</ele>
    <time>2026-06-23T11:55:49Z</time>
   </trkpt>
   <trkpt lat="-3.1455090" lon="37.3712520">
    <ele>3410.7</ele>
    <time>2026-06-23T11:55:50Z</time>
   </trkpt>
   <trkpt lat="-3.1455160" lon="37.3712480">
    <ele>3410.6</ele>
    <time>2026-06-23T11:55:51Z</time>
   </trkpt>
   <trkpt lat="-3.1455220" lon="37.3712480">
    <ele>3410.4</ele>
    <time>2026-06-23T11:55:52Z</time>
   </trkpt>
   <trkpt lat="-3.1455290" lon="37.3712480">
    <ele>3410.3</ele>
    <time>2026-06-23T11:55:53Z</time>
   </trkpt>
   <trkpt lat="-3.1455350" lon="37.3712510">
    <ele>3410.1</ele>
    <time>2026-06-23T11:55:54Z</time>
   </trkpt>
   <trkpt lat="-3.1455400" lon="37.3712530">
    <ele>3410.0</ele>
    <time>2026-06-23T11:55:55Z</time>
   </trkpt>
   <trkpt lat="-3.1455480" lon="37.3712530">
    <ele>3409.8</ele>
    <time>2026-06-23T11:55:56Z</time>
   </trkpt>
   <trkpt lat="-3.1455560" lon="37.3712530">
    <ele>3409.7</ele>
    <time>2026-06-23T11:55:57Z</time>
   </trkpt>
   <trkpt lat="-3.1455630" lon="37.3712520">
    <ele>3409.5</ele>
    <time>2026-06-23T11:55:58Z</time>
   </trkpt>
   <trkpt lat="-3.1455680" lon="37.3712540">
    <ele>3409.4</ele>
    <time>2026-06-23T11:55:59Z</time>
   </trkpt>
   <trkpt lat="-3.1455740" lon="37.3712580">
    <ele>3409.2</ele>
    <time>2026-06-23T11:56:00Z</time>
   </trkpt>
   <trkpt lat="-3.1455780" lon="37.3712620">
    <ele>3409.1</ele>
    <time>2026-06-23T11:56:01Z</time>
   </trkpt>
   <trkpt lat="-3.1455860" lon="37.3712650">
    <ele>3408.9</ele>
    <time>2026-06-23T11:56:02Z</time>
   </trkpt>
   <trkpt lat="-3.1455940" lon="37.3712670">
    <ele>3408.8</ele>
    <time>2026-06-23T11:56:03Z</time>
   </trkpt>
   <trkpt lat="-3.1456000" lon="37.3712670">
    <ele>3408.6</ele>
    <time>2026-06-23T11:56:04Z</time>
   </trkpt>
   <trkpt lat="-3.1456060" lon="37.3712660">
    <ele>3408.5</ele>
    <time>2026-06-23T11:56:05Z</time>
   </trkpt>
   <trkpt lat="-3.1456160" lon="37.3712660">
    <ele>3408.3</ele>
    <time>2026-06-23T11:56:06Z</time>
   </trkpt>
   <trkpt lat="-3.1456250" lon="37.3712640">
    <ele>3408.1</ele>
    <time>2026-06-23T11:56:07Z</time>
   </trkpt>
   <trkpt lat="-3.1456300" lon="37.3712650">
    <ele>3408.0</ele>
    <time>2026-06-23T11:56:08Z</time>
   </trkpt>
   <trkpt lat="-3.1456370" lon="37.3712670">
    <ele>3407.9</ele>
    <time>2026-06-23T11:56:09Z</time>
   </trkpt>
   <trkpt lat="-3.1456390" lon="37.3712690">
    <ele>3407.8</ele>
    <time>2026-06-23T11:56:10Z</time>
   </trkpt>
   <trkpt lat="-3.1456430" lon="37.3712690">
    <ele>3407.7</ele>
    <time>2026-06-23T11:56:11Z</time>
   </trkpt>
   <trkpt lat="-3.1456510" lon="37.3712660">
    <ele>3407.5</ele>
    <time>2026-06-23T11:56:12Z</time>
   </trkpt>
   <trkpt lat="-3.1456600" lon="37.3712600">
    <ele>3407.3</ele>
    <time>2026-06-23T11:56:13Z</time>
   </trkpt>
   <trkpt lat="-3.1456650" lon="37.3712660">
    <ele>3407.2</ele>
    <time>2026-06-23T11:56:14Z</time>
   </trkpt>
   <trkpt lat="-3.1456690" lon="37.3712690">
    <ele>3407.0</ele>
    <time>2026-06-23T11:56:15Z</time>
   </trkpt>
   <trkpt lat="-3.1456790" lon="37.3712680">
    <ele>3406.8</ele>
    <time>2026-06-23T11:56:16Z</time>
   </trkpt>
   <trkpt lat="-3.1456850" lon="37.3712710">
    <ele>3406.7</ele>
    <time>2026-06-23T11:56:17Z</time>
   </trkpt>
   <trkpt lat="-3.1456960" lon="37.3712710">
    <ele>3406.5</ele>
    <time>2026-06-23T11:56:18Z</time>
   </trkpt>
   <trkpt lat="-3.1456990" lon="37.3712700">
    <ele>3406.4</ele>
    <time>2026-06-23T11:56:19Z</time>
   </trkpt>
   <trkpt lat="-3.1457050" lon="37.3712660">
    <ele>3406.3</ele>
    <time>2026-06-23T11:56:20Z</time>
   </trkpt>
   <trkpt lat="-3.1457120" lon="37.3712610">
    <ele>3406.1</ele>
    <time>2026-06-23T11:56:21Z</time>
   </trkpt>
   <trkpt lat="-3.1457170" lon="37.3712540">
    <ele>3406.0</ele>
    <time>2026-06-23T11:56:22Z</time>
   </trkpt>
   <trkpt lat="-3.1457210" lon="37.3712480">
    <ele>3405.8</ele>
    <time>2026-06-23T11:56:23Z</time>
   </trkpt>
   <trkpt lat="-3.1457290" lon="37.3712440">
    <ele>3405.6</ele>
    <time>2026-06-23T11:56:24Z</time>
   </trkpt>
   <trkpt lat="-3.1457400" lon="37.3712390">
    <ele>3405.4</ele>
    <time>2026-06-23T11:56:25Z</time>
   </trkpt>
   <trkpt lat="-3.1457430" lon="37.3712370">
    <ele>3405.3</ele>
    <time>2026-06-23T11:56:26Z</time>
   </trkpt>
   <trkpt lat="-3.1457500" lon="37.3712320">
    <ele>3405.2</ele>
    <time>2026-06-23T11:56:27Z</time>
   </trkpt>
   <trkpt lat="-3.1457500" lon="37.3712310">
    <ele>3405.2</ele>
    <time>2026-06-23T11:56:28Z</time>
   </trkpt>
   <trkpt lat="-3.1457520" lon="37.3712290">
    <ele>3405.1</ele>
    <time>2026-06-23T11:56:29Z</time>
   </trkpt>
   <trkpt lat="-3.1457520" lon="37.3712280">
    <ele>3405.1</ele>
    <time>2026-06-23T11:56:30Z</time>
   </trkpt>
   <trkpt lat="-3.1457530" lon="37.3712270">
    <ele>3405.1</ele>
    <time>2026-06-23T11:56:31Z</time>
   </trkpt>
   <trkpt lat="-3.1457590" lon="37.3712240">
    <ele>3404.9</ele>
    <time>2026-06-23T11:56:32Z</time>
   </trkpt>
   <trkpt lat="-3.1457650" lon="37.3712200">
    <ele>3404.8</ele>
    <time>2026-06-23T11:56:33Z</time>
   </trkpt>
   <trkpt lat="-3.1457680" lon="37.3712220">
    <ele>3404.7</ele>
    <time>2026-06-23T11:56:34Z</time>
   </trkpt>
   <trkpt lat="-3.1457770" lon="37.3712180">
    <ele>3404.6</ele>
    <time>2026-06-23T11:56:35Z</time>
   </trkpt>
   <trkpt lat="-3.1457850" lon="37.3712130">
    <ele>3404.4</ele>
    <time>2026-06-23T11:56:36Z</time>
   </trkpt>
   <trkpt lat="-3.1457960" lon="37.3712030">
    <ele>3404.2</ele>
    <time>2026-06-23T11:56:37Z</time>
   </trkpt>
   <trkpt lat="-3.1458000" lon="37.3711960">
    <ele>3404.0</ele>
    <time>2026-06-23T11:56:38Z</time>
   </trkpt>
   <trkpt lat="-3.1458070" lon="37.3711910">
    <ele>3403.9</ele>
    <time>2026-06-23T11:56:39Z</time>
   </trkpt>
   <trkpt lat="-3.1458160" lon="37.3711890">
    <ele>3403.7</ele>
    <time>2026-06-23T11:56:40Z</time>
   </trkpt>
   <trkpt lat="-3.1458250" lon="37.3711900">
    <ele>3403.5</ele>
    <time>2026-06-23T11:56:41Z</time>
   </trkpt>
   <trkpt lat="-3.1458310" lon="37.3711890">
    <ele>3403.4</ele>
    <time>2026-06-23T11:56:42Z</time>
   </trkpt>
   <trkpt lat="-3.1458390" lon="37.3711850">
    <ele>3403.3</ele>
    <time>2026-06-23T11:56:43Z</time>
   </trkpt>
   <trkpt lat="-3.1458430" lon="37.3711820">
    <ele>3403.2</ele>
    <time>2026-06-23T11:56:44Z</time>
   </trkpt>
   <trkpt lat="-3.1458510" lon="37.3711800">
    <ele>3403.0</ele>
    <time>2026-06-23T11:56:45Z</time>
   </trkpt>
   <trkpt lat="-3.1458580" lon="37.3711790">
    <ele>3402.9</ele>
    <time>2026-06-23T11:56:46Z</time>
   </trkpt>
   <trkpt lat="-3.1458640" lon="37.3711790">
    <ele>3402.8</ele>
    <time>2026-06-23T11:56:47Z</time>
   </trkpt>
   <trkpt lat="-3.1458750" lon="37.3711760">
    <ele>3402.6</ele>
    <time>2026-06-23T11:56:48Z</time>
   </trkpt>
   <trkpt lat="-3.1458840" lon="37.3711740">
    <ele>3402.5</ele>
    <time>2026-06-23T11:56:49Z</time>
   </trkpt>
   <trkpt lat="-3.1458920" lon="37.3711710">
    <ele>3402.3</ele>
    <time>2026-06-23T11:56:50Z</time>
   </trkpt>
   <trkpt lat="-3.1459040" lon="37.3711680">
    <ele>3402.1</ele>
    <time>2026-06-23T11:56:51Z</time>
   </trkpt>
   <trkpt lat="-3.1459090" lon="37.3711680">
    <ele>3402.1</ele>
    <time>2026-06-23T11:56:52Z</time>
   </trkpt>
   <trkpt lat="-3.1459210" lon="37.3711680">
    <ele>3401.9</ele>
    <time>2026-06-23T11:56:53Z</time>
   </trkpt>
   <trkpt lat="-3.1459270" lon="37.3711660">
    <ele>3401.8</ele>
    <time>2026-06-23T11:56:54Z</time>
   </trkpt>
   <trkpt lat="-3.1459380" lon="37.3711610">
    <ele>3401.6</ele>
    <time>2026-06-23T11:56:55Z</time>
   </trkpt>
   <trkpt lat="-3.1459470" lon="37.3711560">
    <ele>3401.4</ele>
    <time>2026-06-23T11:56:56Z</time>
   </trkpt>
   <trkpt lat="-3.1459550" lon="37.3711550">
    <ele>3401.3</ele>
    <time>2026-06-23T11:56:57Z</time>
   </trkpt>
   <trkpt lat="-3.1459660" lon="37.3711520">
    <ele>3401.1</ele>
    <time>2026-06-23T11:56:58Z</time>
   </trkpt>
   <trkpt lat="-3.1459760" lon="37.3711500">
    <ele>3400.9</ele>
    <time>2026-06-23T11:56:59Z</time>
   </trkpt>
   <trkpt lat="-3.1459820" lon="37.3711490">
    <ele>3400.8</ele>
    <time>2026-06-23T11:57:00Z</time>
   </trkpt>
   <trkpt lat="-3.1459910" lon="37.3711480">
    <ele>3400.7</ele>
    <time>2026-06-23T11:57:01Z</time>
   </trkpt>
   <trkpt lat="-3.1459990" lon="37.3711460">
    <ele>3400.6</ele>
    <time>2026-06-23T11:57:02Z</time>
   </trkpt>
   <trkpt lat="-3.1460090" lon="37.3711430">
    <ele>3400.4</ele>
    <time>2026-06-23T11:57:03Z</time>
   </trkpt>
   <trkpt lat="-3.1460180" lon="37.3711420">
    <ele>3400.3</ele>
    <time>2026-06-23T11:57:04Z</time>
   </trkpt>
   <trkpt lat="-3.1460300" lon="37.3711370">
    <ele>3400.1</ele>
    <time>2026-06-23T11:57:05Z</time>
   </trkpt>
   <trkpt lat="-3.1460370" lon="37.3711320">
    <ele>3400.0</ele>
    <time>2026-06-23T11:57:06Z</time>
   </trkpt>
   <trkpt lat="-3.1460460" lon="37.3711290">
    <ele>3399.8</ele>
    <time>2026-06-23T11:57:07Z</time>
   </trkpt>
   <trkpt lat="-3.1460500" lon="37.3711240">
    <ele>3399.7</ele>
    <time>2026-06-23T11:57:08Z</time>
   </trkpt>
   <trkpt lat="-3.1460610" lon="37.3711170">
    <ele>3399.6</ele>
    <time>2026-06-23T11:57:09Z</time>
   </trkpt>
   <trkpt lat="-3.1460680" lon="37.3711130">
    <ele>3399.4</ele>
    <time>2026-06-23T11:57:10Z</time>
   </trkpt>
   <trkpt lat="-3.1460760" lon="37.3711070">
    <ele>3399.3</ele>
    <time>2026-06-23T11:57:11Z</time>
   </trkpt>
   <trkpt lat="-3.1460810" lon="37.3711060">
    <ele>3399.2</ele>
    <time>2026-06-23T11:57:12Z</time>
   </trkpt>
   <trkpt lat="-3.1460920" lon="37.3711050">
    <ele>3399.1</ele>
    <time>2026-06-23T11:57:13Z</time>
   </trkpt>
   <trkpt lat="-3.1461060" lon="37.3711010">
    <ele>3398.9</ele>
    <time>2026-06-23T11:57:14Z</time>
   </trkpt>
   <trkpt lat="-3.1461140" lon="37.3710980">
    <ele>3398.8</ele>
    <time>2026-06-23T11:57:15Z</time>
   </trkpt>
   <trkpt lat="-3.1461180" lon="37.3710950">
    <ele>3398.7</ele>
    <time>2026-06-23T11:57:16Z</time>
   </trkpt>
   <trkpt lat="-3.1461270" lon="37.3710910">
    <ele>3398.6</ele>
    <time>2026-06-23T11:57:17Z</time>
   </trkpt>
   <trkpt lat="-3.1461370" lon="37.3710870">
    <ele>3398.5</ele>
    <time>2026-06-23T11:57:18Z</time>
   </trkpt>
   <trkpt lat="-3.1461520" lon="37.3710820">
    <ele>3398.3</ele>
    <time>2026-06-23T11:57:19Z</time>
   </trkpt>
   <trkpt lat="-3.1461640" lon="37.3710770">
    <ele>3398.2</ele>
    <time>2026-06-23T11:57:20Z</time>
   </trkpt>
   <trkpt lat="-3.1461720" lon="37.3710730">
    <ele>3398.1</ele>
    <time>2026-06-23T11:57:21Z</time>
   </trkpt>
   <trkpt lat="-3.1461810" lon="37.3710710">
    <ele>3398.0</ele>
    <time>2026-06-23T11:57:22Z</time>
   </trkpt>
   <trkpt lat="-3.1461910" lon="37.3710660">
    <ele>3397.9</ele>
    <time>2026-06-23T11:57:23Z</time>
   </trkpt>
   <trkpt lat="-3.1462000" lon="37.3710580">
    <ele>3397.7</ele>
    <time>2026-06-23T11:57:24Z</time>
   </trkpt>
   <trkpt lat="-3.1462090" lon="37.3710530">
    <ele>3397.6</ele>
    <time>2026-06-23T11:57:25Z</time>
   </trkpt>
   <trkpt lat="-3.1462160" lon="37.3710530">
    <ele>3397.6</ele>
    <time>2026-06-23T11:57:26Z</time>
   </trkpt>
   <trkpt lat="-3.1462230" lon="37.3710490">
    <ele>3397.5</ele>
    <time>2026-06-23T11:57:27Z</time>
   </trkpt>
   <trkpt lat="-3.1462360" lon="37.3710420">
    <ele>3397.3</ele>
    <time>2026-06-23T11:57:28Z</time>
   </trkpt>
   <trkpt lat="-3.1462440" lon="37.3710380">
    <ele>3397.3</ele>
    <time>2026-06-23T11:57:29Z</time>
   </trkpt>
   <trkpt lat="-3.1462550" lon="37.3710370">
    <ele>3397.2</ele>
    <time>2026-06-23T11:57:30Z</time>
   </trkpt>
   <trkpt lat="-3.1462650" lon="37.3710350">
    <ele>3397.1</ele>
    <time>2026-06-23T11:57:31Z</time>
   </trkpt>
   <trkpt lat="-3.1462740" lon="37.3710310">
    <ele>3397.0</ele>
    <time>2026-06-23T11:57:32Z</time>
   </trkpt>
   <trkpt lat="-3.1462870" lon="37.3710260">
    <ele>3396.9</ele>
    <time>2026-06-23T11:57:33Z</time>
   </trkpt>
   <trkpt lat="-3.1462970" lon="37.3710230">
    <ele>3396.8</ele>
    <time>2026-06-23T11:57:34Z</time>
   </trkpt>
   <trkpt lat="-3.1463110" lon="37.3710200">
    <ele>3396.7</ele>
    <time>2026-06-23T11:57:35Z</time>
   </trkpt>
   <trkpt lat="-3.1463230" lon="37.3710140">
    <ele>3396.6</ele>
    <time>2026-06-23T11:57:36Z</time>
   </trkpt>
   <trkpt lat="-3.1463350" lon="37.3710070">
    <ele>3396.5</ele>
    <time>2026-06-23T11:57:37Z</time>
   </trkpt>
   <trkpt lat="-3.1463410" lon="37.3710030">
    <ele>3396.4</ele>
    <time>2026-06-23T11:57:38Z</time>
   </trkpt>
   <trkpt lat="-3.1463500" lon="37.3710030">
    <ele>3396.3</ele>
    <time>2026-06-23T11:57:39Z</time>
   </trkpt>
   <trkpt lat="-3.1463620" lon="37.3710010">
    <ele>3396.3</ele>
    <time>2026-06-23T11:57:40Z</time>
   </trkpt>
   <trkpt lat="-3.1463750" lon="37.3709960">
    <ele>3396.2</ele>
    <time>2026-06-23T11:57:41Z</time>
   </trkpt>
   <trkpt lat="-3.1463860" lon="37.3709930">
    <ele>3396.1</ele>
    <time>2026-06-23T11:57:42Z</time>
   </trkpt>
   <trkpt lat="-3.1464010" lon="37.3709890">
    <ele>3396.0</ele>
    <time>2026-06-23T11:57:43Z</time>
   </trkpt>
   <trkpt lat="-3.1464120" lon="37.3709840">
    <ele>3395.9</ele>
    <time>2026-06-23T11:57:44Z</time>
   </trkpt>
   <trkpt lat="-3.1464100" lon="37.3709800">
    <ele>3395.9</ele>
    <time>2026-06-23T11:57:45Z</time>
   </trkpt>
   <trkpt lat="-3.1464220" lon="37.3709790">
    <ele>3395.8</ele>
    <time>2026-06-23T11:57:46Z</time>
   </trkpt>
   <trkpt lat="-3.1464350" lon="37.3709710">
    <ele>3395.7</ele>
    <time>2026-06-23T11:57:47Z</time>
   </trkpt>
   <trkpt lat="-3.1464460" lon="37.3709680">
    <ele>3395.6</ele>
    <time>2026-06-23T11:57:48Z</time>
   </trkpt>
   <trkpt lat="-3.1464550" lon="37.3709670">
    <ele>3395.5</ele>
    <time>2026-06-23T11:57:49Z</time>
   </trkpt>
   <trkpt lat="-3.1464680" lon="37.3709660">
    <ele>3395.5</ele>
    <time>2026-06-23T11:57:50Z</time>
   </trkpt>
   <trkpt lat="-3.1464760" lon="37.3709650">
    <ele>3395.4</ele>
    <time>2026-06-23T11:57:51Z</time>
   </trkpt>
   <trkpt lat="-3.1464870" lon="37.3709640">
    <ele>3395.3</ele>
    <time>2026-06-23T11:57:52Z</time>
   </trkpt>
   <trkpt lat="-3.1464960" lon="37.3709640">
    <ele>3395.3</ele>
    <time>2026-06-23T11:57:53Z</time>
   </trkpt>
   <trkpt lat="-3.1465070" lon="37.3709650">
    <ele>3395.2</ele>
    <time>2026-06-23T11:57:54Z</time>
   </trkpt>
   <trkpt lat="-3.1465200" lon="37.3709670">
    <ele>3395.1</ele>
    <time>2026-06-23T11:57:55Z</time>
   </trkpt>
   <trkpt lat="-3.1465280" lon="37.3709680">
    <ele>3395.1</ele>
    <time>2026-06-23T11:57:56Z</time>
   </trkpt>
   <trkpt lat="-3.1465390" lon="37.3709710">
    <ele>3395.0</ele>
    <time>2026-06-23T11:57:57Z</time>
   </trkpt>
   <trkpt lat="-3.1465500" lon="37.3709700">
    <ele>3394.9</ele>
    <time>2026-06-23T11:57:58Z</time>
   </trkpt>
   <trkpt lat="-3.1465630" lon="37.3709720">
    <ele>3394.8</ele>
    <time>2026-06-23T11:57:59Z</time>
   </trkpt>
   <trkpt lat="-3.1465760" lon="37.3709680">
    <ele>3394.7</ele>
    <time>2026-06-23T11:58:00Z</time>
   </trkpt>
   <trkpt lat="-3.1465840" lon="37.3709600">
    <ele>3394.6</ele>
    <time>2026-06-23T11:58:01Z</time>
   </trkpt>
   <trkpt lat="-3.1465890" lon="37.3709550">
    <ele>3394.6</ele>
    <time>2026-06-23T11:58:02Z</time>
   </trkpt>
   <trkpt lat="-3.1465930" lon="37.3709490">
    <ele>3394.5</ele>
    <time>2026-06-23T11:58:03Z</time>
   </trkpt>
   <trkpt lat="-3.1465980" lon="37.3709410">
    <ele>3394.5</ele>
    <time>2026-06-23T11:58:04Z</time>
   </trkpt>
   <trkpt lat="-3.1466090" lon="37.3709330">
    <ele>3394.3</ele>
    <time>2026-06-23T11:58:05Z</time>
   </trkpt>
   <trkpt lat="-3.1466090" lon="37.3709350">
    <ele>3394.3</ele>
    <time>2026-06-23T11:58:06Z</time>
   </trkpt>
   <trkpt lat="-3.1466220" lon="37.3709260">
    <ele>3394.2</ele>
    <time>2026-06-23T11:58:07Z</time>
   </trkpt>
   <trkpt lat="-3.1466320" lon="37.3709220">
    <ele>3394.1</ele>
    <time>2026-06-23T11:58:08Z</time>
   </trkpt>
   <trkpt lat="-3.1466350" lon="37.3709180">
    <ele>3394.0</ele>
    <time>2026-06-23T11:58:09Z</time>
   </trkpt>
   <trkpt lat="-3.1466380" lon="37.3709090">
    <ele>3394.0</ele>
    <time>2026-06-23T11:58:10Z</time>
   </trkpt>
   <trkpt lat="-3.1466470" lon="37.3709030">
    <ele>3393.9</ele>
    <time>2026-06-23T11:58:11Z</time>
   </trkpt>
   <trkpt lat="-3.1466570" lon="37.3708990">
    <ele>3393.7</ele>
    <time>2026-06-23T11:58:12Z</time>
   </trkpt>
   <trkpt lat="-3.1466660" lon="37.3708990">
    <ele>3393.7</ele>
    <time>2026-06-23T11:58:13Z</time>
   </trkpt>
   <trkpt lat="-3.1466720" lon="37.3708940">
    <ele>3393.6</ele>
    <time>2026-06-23T11:58:14Z</time>
   </trkpt>
   <trkpt lat="-3.1466780" lon="37.3708900">
    <ele>3393.5</ele>
    <time>2026-06-23T11:58:15Z</time>
   </trkpt>
   <trkpt lat="-3.1466800" lon="37.3708880">
    <ele>3393.5</ele>
    <time>2026-06-23T11:58:16Z</time>
   </trkpt>
   <trkpt lat="-3.1466840" lon="37.3708800">
    <ele>3393.4</ele>
    <time>2026-06-23T11:58:17Z</time>
   </trkpt>
   <trkpt lat="-3.1466870" lon="37.3708740">
    <ele>3393.3</ele>
    <time>2026-06-23T11:58:18Z</time>
   </trkpt>
   <trkpt lat="-3.1466920" lon="37.3708650">
    <ele>3393.2</ele>
    <time>2026-06-23T11:58:19Z</time>
   </trkpt>
   <trkpt lat="-3.1466950" lon="37.3708560">
    <ele>3393.1</ele>
    <time>2026-06-23T11:58:20Z</time>
   </trkpt>
   <trkpt lat="-3.1466950" lon="37.3708510">
    <ele>3393.0</ele>
    <time>2026-06-23T11:58:21Z</time>
   </trkpt>
   <trkpt lat="-3.1466970" lon="37.3708420">
    <ele>3392.9</ele>
    <time>2026-06-23T11:58:22Z</time>
   </trkpt>
   <trkpt lat="-3.1467000" lon="37.3708390">
    <ele>3392.8</ele>
    <time>2026-06-23T11:58:23Z</time>
   </trkpt>
   <trkpt lat="-3.1467050" lon="37.3708350">
    <ele>3392.7</ele>
    <time>2026-06-23T11:58:24Z</time>
   </trkpt>
   <trkpt lat="-3.1467120" lon="37.3708280">
    <ele>3392.6</ele>
    <time>2026-06-23T11:58:25Z</time>
   </trkpt>
   <trkpt lat="-3.1467150" lon="37.3708260">
    <ele>3392.5</ele>
    <time>2026-06-23T11:58:26Z</time>
   </trkpt>
   <trkpt lat="-3.1467230" lon="37.3708190">
    <ele>3392.4</ele>
    <time>2026-06-23T11:58:27Z</time>
   </trkpt>
   <trkpt lat="-3.1467310" lon="37.3708230">
    <ele>3392.3</ele>
    <time>2026-06-23T11:58:28Z</time>
   </trkpt>
   <trkpt lat="-3.1467350" lon="37.3708230">
    <ele>3392.2</ele>
    <time>2026-06-23T11:58:29Z</time>
   </trkpt>
   <trkpt lat="-3.1467420" lon="37.3708260">
    <ele>3392.1</ele>
    <time>2026-06-23T11:58:30Z</time>
   </trkpt>
   <trkpt lat="-3.1467490" lon="37.3708300">
    <ele>3392.0</ele>
    <time>2026-06-23T11:58:31Z</time>
   </trkpt>
   <trkpt lat="-3.1467590" lon="37.3708360">
    <ele>3391.8</ele>
    <time>2026-06-23T11:58:32Z</time>
   </trkpt>
   <trkpt lat="-3.1467650" lon="37.3708340">
    <ele>3391.7</ele>
    <time>2026-06-23T11:58:33Z</time>
   </trkpt>
   <trkpt lat="-3.1467770" lon="37.3708320">
    <ele>3391.5</ele>
    <time>2026-06-23T11:58:34Z</time>
   </trkpt>
   <trkpt lat="-3.1467850" lon="37.3708260">
    <ele>3391.3</ele>
    <time>2026-06-23T11:58:35Z</time>
   </trkpt>
   <trkpt lat="-3.1467940" lon="37.3708210">
    <ele>3391.2</ele>
    <time>2026-06-23T11:58:36Z</time>
   </trkpt>
   <trkpt lat="-3.1468010" lon="37.3708210">
    <ele>3391.1</ele>
    <time>2026-06-23T11:58:37Z</time>
   </trkpt>
   <trkpt lat="-3.1468100" lon="37.3708170">
    <ele>3390.9</ele>
    <time>2026-06-23T11:58:38Z</time>
   </trkpt>
   <trkpt lat="-3.1468180" lon="37.3708150">
    <ele>3390.8</ele>
    <time>2026-06-23T11:58:39Z</time>
   </trkpt>
   <trkpt lat="-3.1468270" lon="37.3708130">
    <ele>3390.6</ele>
    <time>2026-06-23T11:58:40Z</time>
   </trkpt>
   <trkpt lat="-3.1468380" lon="37.3708100">
    <ele>3390.4</ele>
    <time>2026-06-23T11:58:41Z</time>
   </trkpt>
   <trkpt lat="-3.1468450" lon="37.3708090">
    <ele>3390.3</ele>
    <time>2026-06-23T11:58:42Z</time>
   </trkpt>
   <trkpt lat="-3.1468520" lon="37.3708080">
    <ele>3390.1</ele>
    <time>2026-06-23T11:58:43Z</time>
   </trkpt>
   <trkpt lat="-3.1468620" lon="37.3708050">
    <ele>3389.9</ele>
    <time>2026-06-23T11:58:44Z</time>
   </trkpt>
   <trkpt lat="-3.1468740" lon="37.3708010">
    <ele>3389.7</ele>
    <time>2026-06-23T11:58:45Z</time>
   </trkpt>
   <trkpt lat="-3.1468760" lon="37.3707990">
    <ele>3389.7</ele>
    <time>2026-06-23T11:58:46Z</time>
   </trkpt>
   <trkpt lat="-3.1468800" lon="37.3707920">
    <ele>3389.5</ele>
    <time>2026-06-23T11:58:47Z</time>
   </trkpt>
   <trkpt lat="-3.1468810" lon="37.3707880">
    <ele>3389.4</ele>
    <time>2026-06-23T11:58:48Z</time>
   </trkpt>
   <trkpt lat="-3.1468820" lon="37.3707820">
    <ele>3389.3</ele>
    <time>2026-06-23T11:58:49Z</time>
   </trkpt>
   <trkpt lat="-3.1468820" lon="37.3707820">
    <ele>3389.3</ele>
    <time>2026-06-23T11:58:50Z</time>
   </trkpt>
   <trkpt lat="-3.1468870" lon="37.3707790">
    <ele>3389.2</ele>
    <time>2026-06-23T11:58:51Z</time>
   </trkpt>
   <trkpt lat="-3.1468910" lon="37.3707810">
    <ele>3389.1</ele>
    <time>2026-06-23T11:58:52Z</time>
   </trkpt>
   <trkpt lat="-3.1468960" lon="37.3707800">
    <ele>3389.0</ele>
    <time>2026-06-23T11:58:53Z</time>
   </trkpt>
   <trkpt lat="-3.1468970" lon="37.3707820">
    <ele>3388.9</ele>
    <time>2026-06-23T11:58:54Z</time>
   </trkpt>
   <trkpt lat="-3.1469030" lon="37.3707820">
    <ele>3388.8</ele>
    <time>2026-06-23T11:58:55Z</time>
   </trkpt>
   <trkpt lat="-3.1469050" lon="37.3707830">
    <ele>3388.7</ele>
    <time>2026-06-23T11:58:56Z</time>
   </trkpt>
   <trkpt lat="-3.1469090" lon="37.3707860">
    <ele>3388.6</ele>
    <time>2026-06-23T11:58:57Z</time>
   </trkpt>
   <trkpt lat="-3.1469120" lon="37.3707880">
    <ele>3388.5</ele>
    <time>2026-06-23T11:58:58Z</time>
   </trkpt>
   <trkpt lat="-3.1469170" lon="37.3707870">
    <ele>3388.4</ele>
    <time>2026-06-23T11:58:59Z</time>
   </trkpt>
   <trkpt lat="-3.1469200" lon="37.3707890">
    <ele>3388.3</ele>
    <time>2026-06-23T11:59:00Z</time>
   </trkpt>
   <trkpt lat="-3.1469260" lon="37.3707880">
    <ele>3388.2</ele>
    <time>2026-06-23T11:59:01Z</time>
   </trkpt>
   <trkpt lat="-3.1469310" lon="37.3707910">
    <ele>3388.1</ele>
    <time>2026-06-23T11:59:02Z</time>
   </trkpt>
   <trkpt lat="-3.1469340" lon="37.3707940">
    <ele>3388.0</ele>
    <time>2026-06-23T11:59:03Z</time>
   </trkpt>
   <trkpt lat="-3.1469360" lon="37.3707970">
    <ele>3387.9</ele>
    <time>2026-06-23T11:59:04Z</time>
   </trkpt>
   <trkpt lat="-3.1469410" lon="37.3707990">
    <ele>3387.8</ele>
    <time>2026-06-23T11:59:05Z</time>
   </trkpt>
   <trkpt lat="-3.1469470" lon="37.3708020">
    <ele>3387.6</ele>
    <time>2026-06-23T11:59:06Z</time>
   </trkpt>
   <trkpt lat="-3.1469490" lon="37.3708060">
    <ele>3387.5</ele>
    <time>2026-06-23T11:59:07Z</time>
   </trkpt>
   <trkpt lat="-3.1469510" lon="37.3708060">
    <ele>3387.4</ele>
    <time>2026-06-23T11:59:08Z</time>
   </trkpt>
   <trkpt lat="-3.1469520" lon="37.3708090">
    <ele>3387.4</ele>
    <time>2026-06-23T11:59:09Z</time>
   </trkpt>
   <trkpt lat="-3.1469550" lon="37.3708110">
    <ele>3387.3</ele>
    <time>2026-06-23T11:59:10Z</time>
   </trkpt>
   <trkpt lat="-3.1469600" lon="37.3708120">
    <ele>3387.1</ele>
    <time>2026-06-23T11:59:11Z</time>
   </trkpt>
   <trkpt lat="-3.1469650" lon="37.3708110">
    <ele>3387.0</ele>
    <time>2026-06-23T11:59:12Z</time>
   </trkpt>
   <trkpt lat="-3.1469710" lon="37.3708050">
    <ele>3386.7</ele>
    <time>2026-06-23T11:59:13Z</time>
   </trkpt>
   <trkpt lat="-3.1469730" lon="37.3708020">
    <ele>3386.7</ele>
    <time>2026-06-23T11:59:14Z</time>
   </trkpt>
   <trkpt lat="-3.1469770" lon="37.3708000">
    <ele>3386.5</ele>
    <time>2026-06-23T11:59:15Z</time>
   </trkpt>
   <trkpt lat="-3.1469820" lon="37.3707950">
    <ele>3386.3</ele>
    <time>2026-06-23T11:59:16Z</time>
   </trkpt>
   <trkpt lat="-3.1469840" lon="37.3707920">
    <ele>3386.2</ele>
    <time>2026-06-23T11:59:17Z</time>
   </trkpt>
   <trkpt lat="-3.1469880" lon="37.3707870">
    <ele>3386.1</ele>
    <time>2026-06-23T11:59:18Z</time>
   </trkpt>
   <trkpt lat="-3.1469900" lon="37.3707870">
    <ele>3386.0</ele>
    <time>2026-06-23T11:59:19Z</time>
   </trkpt>
   <trkpt lat="-3.1469940" lon="37.3707860">
    <ele>3385.9</ele>
    <time>2026-06-23T11:59:20Z</time>
   </trkpt>
   <trkpt lat="-3.1469950" lon="37.3707880">
    <ele>3385.8</ele>
    <time>2026-06-23T11:59:21Z</time>
   </trkpt>
   <trkpt lat="-3.1469960" lon="37.3707870">
    <ele>3385.8</ele>
    <time>2026-06-23T11:59:22Z</time>
   </trkpt>
   <trkpt lat="-3.1469970" lon="37.3707870">
    <ele>3385.7</ele>
    <time>2026-06-23T11:59:23Z</time>
   </trkpt>
   <trkpt lat="-3.1469960" lon="37.3707870">
    <ele>3385.7</ele>
    <time>2026-06-23T11:59:24Z</time>
   </trkpt>
   <trkpt lat="-3.1469970" lon="37.3707870">
    <ele>3385.7</ele>
    <time>2026-06-23T11:59:25Z</time>
   </trkpt>
   <trkpt lat="-3.1470020" lon="37.3707860">
    <ele>3385.5</ele>
    <time>2026-06-23T11:59:26Z</time>
   </trkpt>
   <trkpt lat="-3.1469990" lon="37.3707860">
    <ele>3385.4</ele>
    <time>2026-06-23T11:59:27Z</time>
   </trkpt>
   <trkpt lat="-3.1469980" lon="37.3707890">
    <ele>3385.3</ele>
    <time>2026-06-23T11:59:28Z</time>
   </trkpt>
   <trkpt lat="-3.1469970" lon="37.3707910">
    <ele>3385.3</ele>
    <time>2026-06-23T11:59:29Z</time>
   </trkpt>
   <trkpt lat="-3.1469940" lon="37.3707950">
    <ele>3385.1</ele>
    <time>2026-06-23T11:59:30Z</time>
   </trkpt>
   <trkpt lat="-3.1469930" lon="37.3707980">
    <ele>3385.0</ele>
    <time>2026-06-23T11:59:31Z</time>
   </trkpt>
   <trkpt lat="-3.1469920" lon="37.3708000">
    <ele>3384.9</ele>
    <time>2026-06-23T11:59:32Z</time>
   </trkpt>
   <trkpt lat="-3.1469930" lon="37.3708050">
    <ele>3384.8</ele>
    <time>2026-06-23T11:59:33Z</time>
   </trkpt>
   <trkpt lat="-3.1469880" lon="37.3708080">
    <ele>3384.6</ele>
    <time>2026-06-23T11:59:34Z</time>
   </trkpt>
   <trkpt lat="-3.1469880" lon="37.3708110">
    <ele>3384.5</ele>
    <time>2026-06-23T11:59:35Z</time>
   </trkpt>
   <trkpt lat="-3.1469910" lon="37.3708120">
    <ele>3384.4</ele>
    <time>2026-06-23T11:59:36Z</time>
   </trkpt>
   <trkpt lat="-3.1469910" lon="37.3708140">
    <ele>3384.3</ele>
    <time>2026-06-23T11:59:37Z</time>
   </trkpt>
   <trkpt lat="-3.1469920" lon="37.3708130">
    <ele>3384.3</ele>
    <time>2026-06-23T11:59:38Z</time>
   </trkpt>
   <trkpt lat="-3.1469940" lon="37.3708140">
    <ele>3384.2</ele>
    <time>2026-06-23T11:59:39Z</time>
   </trkpt>
   <trkpt lat="-3.1469960" lon="37.3708160">
    <ele>3384.1</ele>
    <time>2026-06-23T11:59:40Z</time>
   </trkpt>
   <trkpt lat="-3.1469990" lon="37.3708180">
    <ele>3384.0</ele>
    <time>2026-06-23T11:59:41Z</time>
   </trkpt>
   <trkpt lat="-3.1470030" lon="37.3708180">
    <ele>3383.9</ele>
    <time>2026-06-23T11:59:42Z</time>
   </trkpt>
   <trkpt lat="-3.1470020" lon="37.3708210">
    <ele>3383.8</ele>
    <time>2026-06-23T11:59:43Z</time>
   </trkpt>
   <trkpt lat="-3.1470060" lon="37.3708210">
    <ele>3383.6</ele>
    <time>2026-06-23T11:59:44Z</time>
   </trkpt>
   <trkpt lat="-3.1470100" lon="37.3708240">
    <ele>3383.5</ele>
    <time>2026-06-23T11:59:45Z</time>
   </trkpt>
   <trkpt lat="-3.1470110" lon="37.3708260">
    <ele>3383.4</ele>
    <time>2026-06-23T11:59:46Z</time>
   </trkpt>
   <trkpt lat="-3.1470160" lon="37.3708260">
    <ele>3383.2</ele>
    <time>2026-06-23T11:59:47Z</time>
   </trkpt>
   <trkpt lat="-3.1470190" lon="37.3708300">
    <ele>3383.0</ele>
    <time>2026-06-23T11:59:48Z</time>
   </trkpt>
   <trkpt lat="-3.1470220" lon="37.3708320">
    <ele>3382.9</ele>
    <time>2026-06-23T11:59:49Z</time>
   </trkpt>
   <trkpt lat="-3.1470280" lon="37.3708340">
    <ele>3382.7</ele>
    <time>2026-06-23T11:59:50Z</time>
   </trkpt>
   <trkpt lat="-3.1470310" lon="37.3708390">
    <ele>3382.5</ele>
    <time>2026-06-23T11:59:51Z</time>
   </trkpt>
   <trkpt lat="-3.1470340" lon="37.3708430">
    <ele>3382.3</ele>
    <time>2026-06-23T11:59:52Z</time>
   </trkpt>
   <trkpt lat="-3.1470360" lon="37.3708500">
    <ele>3382.1</ele>
    <time>2026-06-23T11:59:53Z</time>
   </trkpt>
   <trkpt lat="-3.1470360" lon="37.3708540">
    <ele>3381.9</ele>
    <time>2026-06-23T11:59:54Z</time>
   </trkpt>
   <trkpt lat="-3.1470360" lon="37.3708570">
    <ele>3381.8</ele>
    <time>2026-06-23T11:59:55Z</time>
   </trkpt>
   <trkpt lat="-3.1470370" lon="37.3708620">
    <ele>3381.6</ele>
    <time>2026-06-23T11:59:56Z</time>
   </trkpt>
   <trkpt lat="-3.1470380" lon="37.3708680">
    <ele>3381.4</ele>
    <time>2026-06-23T11:59:57Z</time>
   </trkpt>
   <trkpt lat="-3.1470430" lon="37.3708690">
    <ele>3381.2</ele>
    <time>2026-06-23T11:59:58Z</time>
   </trkpt>
   <trkpt lat="-3.1470470" lon="37.3708730">
    <ele>3381.0</ele>
    <time>2026-06-23T11:59:59Z</time>
   </trkpt>
   <trkpt lat="-3.1470510" lon="37.3708770">
    <ele>3380.8</ele>
    <time>2026-06-23T12:00:00Z</time>
   </trkpt>
   <trkpt lat="-3.1470580" lon="37.3708810">
    <ele>3380.5</ele>
    <time>2026-06-23T12:00:01Z</time>
   </trkpt>
   <trkpt lat="-3.1470620" lon="37.3708830">
    <ele>3380.4</ele>
    <time>2026-06-23T12:00:02Z</time>
   </trkpt>
   <trkpt lat="-3.1470660" lon="37.3708840">
    <ele>3380.2</ele>
    <time>2026-06-23T12:00:03Z</time>
   </trkpt>
   <trkpt lat="-3.1470710" lon="37.3708860">
    <ele>3380.0</ele>
    <time>2026-06-23T12:00:04Z</time>
   </trkpt>
   <trkpt lat="-3.1470710" lon="37.3708880">
    <ele>3380.0</ele>
    <time>2026-06-23T12:00:05Z</time>
   </trkpt>
   <trkpt lat="-3.1470750" lon="37.3708900">
    <ele>3379.8</ele>
    <time>2026-06-23T12:00:06Z</time>
   </trkpt>
   <trkpt lat="-3.1470830" lon="37.3708900">
    <ele>3379.5</ele>
    <time>2026-06-23T12:00:07Z</time>
   </trkpt>
   <trkpt lat="-3.1470830" lon="37.3708930">
    <ele>3379.4</ele>
    <time>2026-06-23T12:00:08Z</time>
   </trkpt>
   <trkpt lat="-3.1470850" lon="37.3708950">
    <ele>3379.3</ele>
    <time>2026-06-23T12:00:09Z</time>
   </trkpt>
   <trkpt lat="-3.1470930" lon="37.3708940">
    <ele>3379.0</ele>
    <time>2026-06-23T12:00:10Z</time>
   </trkpt>
   <trkpt lat="-3.1470970" lon="37.3708960">
    <ele>3378.9</ele>
    <time>2026-06-23T12:00:11Z</time>
   </trkpt>
   <trkpt lat="-3.1471030" lon="37.3708960">
    <ele>3378.7</ele>
    <time>2026-06-23T12:00:12Z</time>
   </trkpt>
   <trkpt lat="-3.1471070" lon="37.3708960">
    <ele>3378.5</ele>
    <time>2026-06-23T12:00:13Z</time>
   </trkpt>
   <trkpt lat="-3.1471090" lon="37.3708960">
    <ele>3378.5</ele>
    <time>2026-06-23T12:00:14Z</time>
   </trkpt>
   <trkpt lat="-3.1471130" lon="37.3708980">
    <ele>3378.3</ele>
    <time>2026-06-23T12:00:15Z</time>
   </trkpt>
   <trkpt lat="-3.1471170" lon="37.3709010">
    <ele>3378.2</ele>
    <time>2026-06-23T12:00:16Z</time>
   </trkpt>
   <trkpt lat="-3.1471260" lon="37.3709000">
    <ele>3377.9</ele>
    <time>2026-06-23T12:00:17Z</time>
   </trkpt>
   <trkpt lat="-3.1471280" lon="37.3708990">
    <ele>3377.8</ele>
    <time>2026-06-23T12:00:18Z</time>
   </trkpt>
   <trkpt lat="-3.1471320" lon="37.3708960">
    <ele>3377.6</ele>
    <time>2026-06-23T12:00:19Z</time>
   </trkpt>
   <trkpt lat="-3.1471370" lon="37.3708920">
    <ele>3377.4</ele>
    <time>2026-06-23T12:00:20Z</time>
   </trkpt>
   <trkpt lat="-3.1471370" lon="37.3708940">
    <ele>3377.3</ele>
    <time>2026-06-23T12:00:21Z</time>
   </trkpt>
   <trkpt lat="-3.1471480" lon="37.3708900">
    <ele>3377.0</ele>
    <time>2026-06-23T12:00:22Z</time>
   </trkpt>
   <trkpt lat="-3.1471540" lon="37.3708900">
    <ele>3376.8</ele>
    <time>2026-06-23T12:00:23Z</time>
   </trkpt>
   <trkpt lat="-3.1471590" lon="37.3708910">
    <ele>3376.6</ele>
    <time>2026-06-23T12:00:24Z</time>
   </trkpt>
   <trkpt lat="-3.1471600" lon="37.3708900">
    <ele>3376.6</ele>
    <time>2026-06-23T12:00:25Z</time>
   </trkpt>
   <trkpt lat="-3.1471570" lon="37.3708900">
    <ele>3376.5</ele>
    <time>2026-06-23T12:00:26Z</time>
   </trkpt>
   <trkpt lat="-3.1471730" lon="37.3708890">
    <ele>3376.0</ele>
    <time>2026-06-23T12:00:27Z</time>
   </trkpt>
   <trkpt lat="-3.1471760" lon="37.3708870">
    <ele>3375.9</ele>
    <time>2026-06-23T12:00:28Z</time>
   </trkpt>
   <trkpt lat="-3.1471820" lon="37.3708860">
    <ele>3375.7</ele>
    <time>2026-06-23T12:00:29Z</time>
   </trkpt>
   <trkpt lat="-3.1471850" lon="37.3708850">
    <ele>3375.6</ele>
    <time>2026-06-23T12:00:30Z</time>
   </trkpt>
   <trkpt lat="-3.1471900" lon="37.3708830">
    <ele>3375.4</ele>
    <time>2026-06-23T12:00:31Z</time>
   </trkpt>
   <trkpt lat="-3.1471940" lon="37.3708780">
    <ele>3375.2</ele>
    <time>2026-06-23T12:00:32Z</time>
   </trkpt>
   <trkpt lat="-3.1471990" lon="37.3708710">
    <ele>3375.0</ele>
    <time>2026-06-23T12:00:33Z</time>
   </trkpt>
   <trkpt lat="-3.1472090" lon="37.3708620">
    <ele>3374.6</ele>
    <time>2026-06-23T12:00:34Z</time>
   </trkpt>
   <trkpt lat="-3.1472170" lon="37.3708560">
    <ele>3374.3</ele>
    <time>2026-06-23T12:00:35Z</time>
   </trkpt>
   <trkpt lat="-3.1472260" lon="37.3708490">
    <ele>3374.0</ele>
    <time>2026-06-23T12:00:36Z</time>
   </trkpt>
   <trkpt lat="-3.1472300" lon="37.3708480">
    <ele>3373.9</ele>
    <time>2026-06-23T12:00:37Z</time>
   </trkpt>
   <trkpt lat="-3.1472330" lon="37.3708480">
    <ele>3373.8</ele>
    <time>2026-06-23T12:00:38Z</time>
   </trkpt>
   <trkpt lat="-3.1472390" lon="37.3708450">
    <ele>3373.7</ele>
    <time>2026-06-23T12:00:39Z</time>
   </trkpt>
   <trkpt lat="-3.1472430" lon="37.3708430">
    <ele>3373.5</ele>
    <time>2026-06-23T12:00:40Z</time>
   </trkpt>
   <trkpt lat="-3.1472500" lon="37.3708380">
    <ele>3373.3</ele>
    <time>2026-06-23T12:00:41Z</time>
   </trkpt>
   <trkpt lat="-3.1472550" lon="37.3708350">
    <ele>3373.2</ele>
    <time>2026-06-23T12:00:42Z</time>
   </trkpt>
   <trkpt lat="-3.1472590" lon="37.3708340">
    <ele>3373.0</ele>
    <time>2026-06-23T12:00:43Z</time>
   </trkpt>
   <trkpt lat="-3.1472610" lon="37.3708330">
    <ele>3373.0</ele>
    <time>2026-06-23T12:00:44Z</time>
   </trkpt>
   <trkpt lat="-3.1472650" lon="37.3708350">
    <ele>3372.9</ele>
    <time>2026-06-23T12:00:45Z</time>
   </trkpt>
   <trkpt lat="-3.1472670" lon="37.3708360">
    <ele>3372.8</ele>
    <time>2026-06-23T12:00:46Z</time>
   </trkpt>
   <trkpt lat="-3.1472760" lon="37.3708410">
    <ele>3372.5</ele>
    <time>2026-06-23T12:00:47Z</time>
   </trkpt>
   <trkpt lat="-3.1472790" lon="37.3708420">
    <ele>3372.5</ele>
    <time>2026-06-23T12:00:48Z</time>
   </trkpt>
   <trkpt lat="-3.1472870" lon="37.3708410">
    <ele>3372.3</ele>
    <time>2026-06-23T12:00:49Z</time>
   </trkpt>
   <trkpt lat="-3.1472900" lon="37.3708410">
    <ele>3372.2</ele>
    <time>2026-06-23T12:00:50Z</time>
   </trkpt>
   <trkpt lat="-3.1472940" lon="37.3708430">
    <ele>3372.1</ele>
    <time>2026-06-23T12:00:51Z</time>
   </trkpt>
   <trkpt lat="-3.1472990" lon="37.3708440">
    <ele>3371.9</ele>
    <time>2026-06-23T12:00:52Z</time>
   </trkpt>
   <trkpt lat="-3.1472970" lon="37.3708460">
    <ele>3371.9</ele>
    <time>2026-06-23T12:00:53Z</time>
   </trkpt>
   <trkpt lat="-3.1473060" lon="37.3708440">
    <ele>3371.6</ele>
    <time>2026-06-23T12:00:54Z</time>
   </trkpt>
   <trkpt lat="-3.1473130" lon="37.3708440">
    <ele>3371.4</ele>
    <time>2026-06-23T12:00:55Z</time>
   </trkpt>
   <trkpt lat="-3.1473210" lon="37.3708400">
    <ele>3371.2</ele>
    <time>2026-06-23T12:00:56Z</time>
   </trkpt>
   <trkpt lat="-3.1473270" lon="37.3708350">
    <ele>3371.0</ele>
    <time>2026-06-23T12:00:57Z</time>
   </trkpt>
   <trkpt lat="-3.1473330" lon="37.3708290">
    <ele>3370.8</ele>
    <time>2026-06-23T12:00:58Z</time>
   </trkpt>
   <trkpt lat="-3.1473340" lon="37.3708250">
    <ele>3370.7</ele>
    <time>2026-06-23T12:00:59Z</time>
   </trkpt>
   <trkpt lat="-3.1473390" lon="37.3708210">
    <ele>3370.5</ele>
    <time>2026-06-23T12:01:00Z</time>
   </trkpt>
   <trkpt lat="-3.1473430" lon="37.3708180">
    <ele>3370.4</ele>
    <time>2026-06-23T12:01:01Z</time>
   </trkpt>
   <trkpt lat="-3.1473480" lon="37.3708150">
    <ele>3370.3</ele>
    <time>2026-06-23T12:01:02Z</time>
   </trkpt>
   <trkpt lat="-3.1473550" lon="37.3708150">
    <ele>3370.1</ele>
    <time>2026-06-23T12:01:03Z</time>
   </trkpt>
   <trkpt lat="-3.1473580" lon="37.3708170">
    <ele>3370.0</ele>
    <time>2026-06-23T12:01:04Z</time>
   </trkpt>
   <trkpt lat="-3.1473650" lon="37.3708160">
    <ele>3369.8</ele>
    <time>2026-06-23T12:01:05Z</time>
   </trkpt>
   <trkpt lat="-3.1473710" lon="37.3708160">
    <ele>3369.7</ele>
    <time>2026-06-23T12:01:06Z</time>
   </trkpt>
   <trkpt lat="-3.1473740" lon="37.3708180">
    <ele>3369.6</ele>
    <time>2026-06-23T12:01:07Z</time>
   </trkpt>
   <trkpt lat="-3.1473780" lon="37.3708210">
    <ele>3369.4</ele>
    <time>2026-06-23T12:01:08Z</time>
   </trkpt>
   <trkpt lat="-3.1473810" lon="37.3708260">
    <ele>3369.3</ele>
    <time>2026-06-23T12:01:09Z</time>
   </trkpt>
   <trkpt lat="-3.1473840" lon="37.3708300">
    <ele>3369.2</ele>
    <time>2026-06-23T12:01:10Z</time>
   </trkpt>
   <trkpt lat="-3.1473880" lon="37.3708290">
    <ele>3369.1</ele>
    <time>2026-06-23T12:01:11Z</time>
   </trkpt>
   <trkpt lat="-3.1473940" lon="37.3708260">
    <ele>3368.9</ele>
    <time>2026-06-23T12:01:12Z</time>
   </trkpt>
   <trkpt lat="-3.1474050" lon="37.3708220">
    <ele>3368.6</ele>
    <time>2026-06-23T12:01:13Z</time>
   </trkpt>
   <trkpt lat="-3.1474070" lon="37.3708220">
    <ele>3368.5</ele>
    <time>2026-06-23T12:01:14Z</time>
   </trkpt>
   <trkpt lat="-3.1474080" lon="37.3708220">
    <ele>3368.5</ele>
    <time>2026-06-23T12:01:15Z</time>
   </trkpt>
   <trkpt lat="-3.1474140" lon="37.3708240">
    <ele>3368.3</ele>
    <time>2026-06-23T12:01:16Z</time>
   </trkpt>
   <trkpt lat="-3.1474170" lon="37.3708220">
    <ele>3368.2</ele>
    <time>2026-06-23T12:01:17Z</time>
   </trkpt>
   <trkpt lat="-3.1474150" lon="37.3708220">
    <ele>3368.2</ele>
    <time>2026-06-23T12:01:18Z</time>
   </trkpt>
   <trkpt lat="-3.1474220" lon="37.3708200">
    <ele>3368.0</ele>
    <time>2026-06-23T12:01:19Z</time>
   </trkpt>
   <trkpt lat="-3.1474270" lon="37.3708180">
    <ele>3367.8</ele>
    <time>2026-06-23T12:01:20Z</time>
   </trkpt>
   <trkpt lat="-3.1474310" lon="37.3708200">
    <ele>3367.7</ele>
    <time>2026-06-23T12:01:21Z</time>
   </trkpt>
   <trkpt lat="-3.1474350" lon="37.3708200">
    <ele>3367.6</ele>
    <time>2026-06-23T12:01:22Z</time>
   </trkpt>
   <trkpt lat="-3.1474400" lon="37.3708200">
    <ele>3367.5</ele>
    <time>2026-06-23T12:01:23Z</time>
   </trkpt>
   <trkpt lat="-3.1474460" lon="37.3708190">
    <ele>3367.3</ele>
    <time>2026-06-23T12:01:24Z</time>
   </trkpt>
   <trkpt lat="-3.1474510" lon="37.3708150">
    <ele>3367.2</ele>
    <time>2026-06-23T12:01:25Z</time>
   </trkpt>
   <trkpt lat="-3.1474540" lon="37.3708120">
    <ele>3367.0</ele>
    <time>2026-06-23T12:01:26Z</time>
   </trkpt>
   <trkpt lat="-3.1474570" lon="37.3708110">
    <ele>3367.0</ele>
    <time>2026-06-23T12:01:27Z</time>
   </trkpt>
   <trkpt lat="-3.1474630" lon="37.3708080">
    <ele>3366.8</ele>
    <time>2026-06-23T12:01:28Z</time>
   </trkpt>
   <trkpt lat="-3.1474660" lon="37.3708080">
    <ele>3366.7</ele>
    <time>2026-06-23T12:01:29Z</time>
   </trkpt>
   <trkpt lat="-3.1474710" lon="37.3708060">
    <ele>3366.6</ele>
    <time>2026-06-23T12:01:30Z</time>
   </trkpt>
   <trkpt lat="-3.1474720" lon="37.3708020">
    <ele>3366.5</ele>
    <time>2026-06-23T12:01:31Z</time>
   </trkpt>
   <trkpt lat="-3.1474700" lon="37.3707960">
    <ele>3366.3</ele>
    <time>2026-06-23T12:01:32Z</time>
   </trkpt>
   <trkpt lat="-3.1474710" lon="37.3707920">
    <ele>3366.2</ele>
    <time>2026-06-23T12:01:33Z</time>
   </trkpt>
   <trkpt lat="-3.1474740" lon="37.3707900">
    <ele>3366.1</ele>
    <time>2026-06-23T12:01:34Z</time>
   </trkpt>
   <trkpt lat="-3.1474760" lon="37.3707870">
    <ele>3366.0</ele>
    <time>2026-06-23T12:01:35Z</time>
   </trkpt>
   <trkpt lat="-3.1474790" lon="37.3707810">
    <ele>3365.8</ele>
    <time>2026-06-23T12:01:36Z</time>
   </trkpt>
   <trkpt lat="-3.1474810" lon="37.3707810">
    <ele>3365.8</ele>
    <time>2026-06-23T12:01:37Z</time>
   </trkpt>
   <trkpt lat="-3.1474880" lon="37.3707770">
    <ele>3365.5</ele>
    <time>2026-06-23T12:01:38Z</time>
   </trkpt>
   <trkpt lat="-3.1474910" lon="37.3707820">
    <ele>3365.4</ele>
    <time>2026-06-23T12:01:39Z</time>
   </trkpt>
   <trkpt lat="-3.1474950" lon="37.3707820">
    <ele>3365.3</ele>
    <time>2026-06-23T12:01:40Z</time>
   </trkpt>
   <trkpt lat="-3.1474980" lon="37.3707820">
    <ele>3365.2</ele>
    <time>2026-06-23T12:01:41Z</time>
   </trkpt>
   <trkpt lat="-3.1475040" lon="37.3707810">
    <ele>3365.0</ele>
    <time>2026-06-23T12:01:42Z</time>
   </trkpt>
   <trkpt lat="-3.1475080" lon="37.3707800">
    <ele>3364.9</ele>
    <time>2026-06-23T12:01:43Z</time>
   </trkpt>
   <trkpt lat="-3.1475130" lon="37.3707770">
    <ele>3364.8</ele>
    <time>2026-06-23T12:01:44Z</time>
   </trkpt>
   <trkpt lat="-3.1475180" lon="37.3707760">
    <ele>3364.6</ele>
    <time>2026-06-23T12:01:45Z</time>
   </trkpt>
   <trkpt lat="-3.1475210" lon="37.3707780">
    <ele>3364.5</ele>
    <time>2026-06-23T12:01:46Z</time>
   </trkpt>
   <trkpt lat="-3.1475260" lon="37.3707740">
    <ele>3364.4</ele>
    <time>2026-06-23T12:01:47Z</time>
   </trkpt>
   <trkpt lat="-3.1475330" lon="37.3707700">
    <ele>3364.2</ele>
    <time>2026-06-23T12:01:48Z</time>
   </trkpt>
   <trkpt lat="-3.1475360" lon="37.3707710">
    <ele>3364.1</ele>
    <time>2026-06-23T12:01:49Z</time>
   </trkpt>
   <trkpt lat="-3.1475410" lon="37.3707690">
    <ele>3363.9</ele>
    <time>2026-06-23T12:01:50Z</time>
   </trkpt>
   <trkpt lat="-3.1475430" lon="37.3707670">
    <ele>3363.9</ele>
    <time>2026-06-23T12:01:51Z</time>
   </trkpt>
   <trkpt lat="-3.1475510" lon="37.3707610">
    <ele>3363.6</ele>
    <time>2026-06-23T12:01:52Z</time>
   </trkpt>
   <trkpt lat="-3.1475530" lon="37.3707580">
    <ele>3363.5</ele>
    <time>2026-06-23T12:01:53Z</time>
   </trkpt>
   <trkpt lat="-3.1475590" lon="37.3707570">
    <ele>3363.3</ele>
    <time>2026-06-23T12:01:54Z</time>
   </trkpt>
   <trkpt lat="-3.1475630" lon="37.3707590">
    <ele>3363.2</ele>
    <time>2026-06-23T12:01:55Z</time>
   </trkpt>
   <trkpt lat="-3.1475720" lon="37.3707560">
    <ele>3363.0</ele>
    <time>2026-06-23T12:01:56Z</time>
   </trkpt>
   <trkpt lat="-3.1475720" lon="37.3707530">
    <ele>3362.9</ele>
    <time>2026-06-23T12:01:57Z</time>
   </trkpt>
   <trkpt lat="-3.1475810" lon="37.3707480">
    <ele>3362.6</ele>
    <time>2026-06-23T12:01:58Z</time>
   </trkpt>
   <trkpt lat="-3.1475860" lon="37.3707470">
    <ele>3362.5</ele>
    <time>2026-06-23T12:01:59Z</time>
   </trkpt>
   <trkpt lat="-3.1475950" lon="37.3707460">
    <ele>3362.3</ele>
    <time>2026-06-23T12:02:00Z</time>
   </trkpt>
   <trkpt lat="-3.1476010" lon="37.3707460">
    <ele>3362.1</ele>
    <time>2026-06-23T12:02:01Z</time>
   </trkpt>
   <trkpt lat="-3.1476050" lon="37.3707430">
    <ele>3362.0</ele>
    <time>2026-06-23T12:02:02Z</time>
   </trkpt>
   <trkpt lat="-3.1476110" lon="37.3707390">
    <ele>3361.8</ele>
    <time>2026-06-23T12:02:03Z</time>
   </trkpt>
   <trkpt lat="-3.1476170" lon="37.3707350">
    <ele>3361.6</ele>
    <time>2026-06-23T12:02:04Z</time>
   </trkpt>
   <trkpt lat="-3.1476200" lon="37.3707330">
    <ele>3361.5</ele>
    <time>2026-06-23T12:02:05Z</time>
   </trkpt>
   <trkpt lat="-3.1476260" lon="37.3707270">
    <ele>3361.3</ele>
    <time>2026-06-23T12:02:06Z</time>
   </trkpt>
   <trkpt lat="-3.1476340" lon="37.3707180">
    <ele>3361.1</ele>
    <time>2026-06-23T12:02:07Z</time>
   </trkpt>
   <trkpt lat="-3.1476380" lon="37.3707140">
    <ele>3360.9</ele>
    <time>2026-06-23T12:02:08Z</time>
   </trkpt>
   <trkpt lat="-3.1476380" lon="37.3707050">
    <ele>3360.7</ele>
    <time>2026-06-23T12:02:09Z</time>
   </trkpt>
   <trkpt lat="-3.1476460" lon="37.3707000">
    <ele>3360.5</ele>
    <time>2026-06-23T12:02:10Z</time>
   </trkpt>
   <trkpt lat="-3.1476490" lon="37.3706950">
    <ele>3360.4</ele>
    <time>2026-06-23T12:02:11Z</time>
   </trkpt>
   <trkpt lat="-3.1476530" lon="37.3706860">
    <ele>3360.2</ele>
    <time>2026-06-23T12:02:12Z</time>
   </trkpt>
   <trkpt lat="-3.1476570" lon="37.3706780">
    <ele>3360.0</ele>
    <time>2026-06-23T12:02:13Z</time>
   </trkpt>
   <trkpt lat="-3.1476610" lon="37.3706750">
    <ele>3359.9</ele>
    <time>2026-06-23T12:02:14Z</time>
   </trkpt>
   <trkpt lat="-3.1476710" lon="37.3706680">
    <ele>3359.6</ele>
    <time>2026-06-23T12:02:15Z</time>
   </trkpt>
   <trkpt lat="-3.1476780" lon="37.3706660">
    <ele>3359.4</ele>
    <time>2026-06-23T12:02:16Z</time>
   </trkpt>
   <trkpt lat="-3.1476870" lon="37.3706650">
    <ele>3359.3</ele>
    <time>2026-06-23T12:02:17Z</time>
   </trkpt>
   <trkpt lat="-3.1476910" lon="37.3706670">
    <ele>3359.2</ele>
    <time>2026-06-23T12:02:18Z</time>
   </trkpt>
   <trkpt lat="-3.1477020" lon="37.3706640">
    <ele>3358.9</ele>
    <time>2026-06-23T12:02:19Z</time>
   </trkpt>
   <trkpt lat="-3.1477080" lon="37.3706640">
    <ele>3358.8</ele>
    <time>2026-06-23T12:02:20Z</time>
   </trkpt>
   <trkpt lat="-3.1477130" lon="37.3706620">
    <ele>3358.7</ele>
    <time>2026-06-23T12:02:21Z</time>
   </trkpt>
   <trkpt lat="-3.1477200" lon="37.3706600">
    <ele>3358.6</ele>
    <time>2026-06-23T12:02:22Z</time>
   </trkpt>
   <trkpt lat="-3.1477240" lon="37.3706590">
    <ele>3358.5</ele>
    <time>2026-06-23T12:02:23Z</time>
   </trkpt>
   <trkpt lat="-3.1477350" lon="37.3706590">
    <ele>3358.3</ele>
    <time>2026-06-23T12:02:24Z</time>
   </trkpt>
   <trkpt lat="-3.1477370" lon="37.3706580">
    <ele>3358.2</ele>
    <time>2026-06-23T12:02:25Z</time>
   </trkpt>
   <trkpt lat="-3.1477490" lon="37.3706530">
    <ele>3358.0</ele>
    <time>2026-06-23T12:02:26Z</time>
   </trkpt>
   <trkpt lat="-3.1477570" lon="37.3706480">
    <ele>3357.8</ele>
    <time>2026-06-23T12:02:27Z</time>
   </trkpt>
   <trkpt lat="-3.1477640" lon="37.3706440">
    <ele>3357.7</ele>
    <time>2026-06-23T12:02:28Z</time>
   </trkpt>
   <trkpt lat="-3.1477700" lon="37.3706360">
    <ele>3357.5</ele>
    <time>2026-06-23T12:02:29Z</time>
   </trkpt>
   <trkpt lat="-3.1477770" lon="37.3706320">
    <ele>3357.3</ele>
    <time>2026-06-23T12:02:30Z</time>
   </trkpt>
   <trkpt lat="-3.1477840" lon="37.3706260">
    <ele>3357.1</ele>
    <time>2026-06-23T12:02:31Z</time>
   </trkpt>
   <trkpt lat="-3.1477910" lon="37.3706230">
    <ele>3357.0</ele>
    <time>2026-06-23T12:02:32Z</time>
   </trkpt>
   <trkpt lat="-3.1478000" lon="37.3706200">
    <ele>3356.8</ele>
    <time>2026-06-23T12:02:33Z</time>
   </trkpt>
   <trkpt lat="-3.1478070" lon="37.3706140">
    <ele>3356.7</ele>
    <time>2026-06-23T12:02:34Z</time>
   </trkpt>
   <trkpt lat="-3.1478160" lon="37.3706100">
    <ele>3356.5</ele>
    <time>2026-06-23T12:02:35Z</time>
   </trkpt>
   <trkpt lat="-3.1478280" lon="37.3706060">
    <ele>3356.2</ele>
    <time>2026-06-23T12:02:36Z</time>
   </trkpt>
   <trkpt lat="-3.1478330" lon="37.3706060">
    <ele>3356.1</ele>
    <time>2026-06-23T12:02:37Z</time>
   </trkpt>
   <trkpt lat="-3.1478410" lon="37.3706050">
    <ele>3356.0</ele>
    <time>2026-06-23T12:02:38Z</time>
   </trkpt>
   <trkpt lat="-3.1478510" lon="37.3706070">
    <ele>3355.8</ele>
    <time>2026-06-23T12:02:39Z</time>
   </trkpt>
   <trkpt lat="-3.1478590" lon="37.3706060">
    <ele>3355.6</ele>
    <time>2026-06-23T12:02:40Z</time>
   </trkpt>
   <trkpt lat="-3.1478670" lon="37.3706020">
    <ele>3355.4</ele>
    <time>2026-06-23T12:02:41Z</time>
   </trkpt>
   <trkpt lat="-3.1478720" lon="37.3705960">
    <ele>3355.3</ele>
    <time>2026-06-23T12:02:42Z</time>
   </trkpt>
   <trkpt lat="-3.1478790" lon="37.3705910">
    <ele>3355.1</ele>
    <time>2026-06-23T12:02:43Z</time>
   </trkpt>
   <trkpt lat="-3.1478840" lon="37.3705870">
    <ele>3355.0</ele>
    <time>2026-06-23T12:02:44Z</time>
   </trkpt>
   <trkpt lat="-3.1478880" lon="37.3705830">
    <ele>3354.8</ele>
    <time>2026-06-23T12:02:45Z</time>
   </trkpt>
   <trkpt lat="-3.1478920" lon="37.3705820">
    <ele>3354.7</ele>
    <time>2026-06-23T12:02:46Z</time>
   </trkpt>
   <trkpt lat="-3.1478980" lon="37.3705760">
    <ele>3354.6</ele>
    <time>2026-06-23T12:02:47Z</time>
   </trkpt>
   <trkpt lat="-3.1479040" lon="37.3705720">
    <ele>3354.4</ele>
    <time>2026-06-23T12:02:48Z</time>
   </trkpt>
   <trkpt lat="-3.1479030" lon="37.3705670">
    <ele>3354.3</ele>
    <time>2026-06-23T12:02:49Z</time>
   </trkpt>
   <trkpt lat="-3.1479050" lon="37.3705600">
    <ele>3354.1</ele>
    <time>2026-06-23T12:02:50Z</time>
   </trkpt>
   <trkpt lat="-3.1479060" lon="37.3705550">
    <ele>3354.0</ele>
    <time>2026-06-23T12:02:51Z</time>
   </trkpt>
   <trkpt lat="-3.1479090" lon="37.3705490">
    <ele>3353.8</ele>
    <time>2026-06-23T12:02:52Z</time>
   </trkpt>
   <trkpt lat="-3.1479100" lon="37.3705450">
    <ele>3353.7</ele>
    <time>2026-06-23T12:02:53Z</time>
   </trkpt>
   <trkpt lat="-3.1479130" lon="37.3705400">
    <ele>3353.6</ele>
    <time>2026-06-23T12:02:54Z</time>
   </trkpt>
   <trkpt lat="-3.1479140" lon="37.3705360">
    <ele>3353.5</ele>
    <time>2026-06-23T12:02:55Z</time>
   </trkpt>
   <trkpt lat="-3.1479150" lon="37.3705300">
    <ele>3353.3</ele>
    <time>2026-06-23T12:02:56Z</time>
   </trkpt>
   <trkpt lat="-3.1479180" lon="37.3705250">
    <ele>3353.2</ele>
    <time>2026-06-23T12:02:57Z</time>
   </trkpt>
   <trkpt lat="-3.1479230" lon="37.3705190">
    <ele>3353.0</ele>
    <time>2026-06-23T12:02:58Z</time>
   </trkpt>
   <trkpt lat="-3.1479280" lon="37.3705110">
    <ele>3352.8</ele>
    <time>2026-06-23T12:02:59Z</time>
   </trkpt>
   <trkpt lat="-3.1479330" lon="37.3705070">
    <ele>3352.6</ele>
    <time>2026-06-23T12:03:00Z</time>
   </trkpt>
   <trkpt lat="-3.1479360" lon="37.3705030">
    <ele>3352.4</ele>
    <time>2026-06-23T12:03:01Z</time>
   </trkpt>
   <trkpt lat="-3.1479370" lon="37.3705010">
    <ele>3352.4</ele>
    <time>2026-06-23T12:03:02Z</time>
   </trkpt>
   <trkpt lat="-3.1479420" lon="37.3704970">
    <ele>3352.2</ele>
    <time>2026-06-23T12:03:03Z</time>
   </trkpt>
   <trkpt lat="-3.1479450" lon="37.3704950">
    <ele>3352.1</ele>
    <time>2026-06-23T12:03:04Z</time>
   </trkpt>
   <trkpt lat="-3.1479490" lon="37.3704910">
    <ele>3351.9</ele>
    <time>2026-06-23T12:03:05Z</time>
   </trkpt>
   <trkpt lat="-3.1479500" lon="37.3704880">
    <ele>3351.8</ele>
    <time>2026-06-23T12:03:06Z</time>
   </trkpt>
   <trkpt lat="-3.1479490" lon="37.3704890">
    <ele>3351.8</ele>
    <time>2026-06-23T12:03:07Z</time>
   </trkpt>
   <trkpt lat="-3.1479550" lon="37.3704840">
    <ele>3351.6</ele>
    <time>2026-06-23T12:03:08Z</time>
   </trkpt>
   <trkpt lat="-3.1479550" lon="37.3704850">
    <ele>3351.6</ele>
    <time>2026-06-23T12:03:09Z</time>
   </trkpt>
   <trkpt lat="-3.1479600" lon="37.3704800">
    <ele>3351.4</ele>
    <time>2026-06-23T12:03:10Z</time>
   </trkpt>
   <trkpt lat="-3.1479580" lon="37.3704760">
    <ele>3351.2</ele>
    <time>2026-06-23T12:03:11Z</time>
   </trkpt>
   <trkpt lat="-3.1479580" lon="37.3704720">
    <ele>3351.1</ele>
    <time>2026-06-23T12:03:12Z</time>
   </trkpt>
   <trkpt lat="-3.1479590" lon="37.3704720">
    <ele>3351.1</ele>
    <time>2026-06-23T12:03:13Z</time>
   </trkpt>
   <trkpt lat="-3.1479610" lon="37.3704720">
    <ele>3351.0</ele>
    <time>2026-06-23T12:03:14Z</time>
   </trkpt>
   <trkpt lat="-3.1479600" lon="37.3704730">
    <ele>3351.0</ele>
    <time>2026-06-23T12:03:15Z</time>
   </trkpt>
   <trkpt lat="-3.1479610" lon="37.3704760">
    <ele>3350.9</ele>
    <time>2026-06-23T12:03:16Z</time>
   </trkpt>
   <trkpt lat="-3.1479640" lon="37.3704770">
    <ele>3350.8</ele>
    <time>2026-06-23T12:03:17Z</time>
   </trkpt>
   <trkpt lat="-3.1479610" lon="37.3704760">
    <ele>3350.7</ele>
    <time>2026-06-23T12:03:18Z</time>
   </trkpt>
   <trkpt lat="-3.1479710" lon="37.3704800">
    <ele>3350.3</ele>
    <time>2026-06-23T12:03:19Z</time>
   </trkpt>
   <trkpt lat="-3.1479680" lon="37.3704800">
    <ele>3350.2</ele>
    <time>2026-06-23T12:03:20Z</time>
   </trkpt>
   <trkpt lat="-3.1479690" lon="37.3704780">
    <ele>3350.1</ele>
    <time>2026-06-23T12:03:21Z</time>
   </trkpt>
   <trkpt lat="-3.1479740" lon="37.3704740">
    <ele>3349.9</ele>
    <time>2026-06-23T12:03:22Z</time>
   </trkpt>
   <trkpt lat="-3.1479740" lon="37.3704740">
    <ele>3349.9</ele>
    <time>2026-06-23T12:03:23Z</time>
   </trkpt>
   <trkpt lat="-3.1479780" lon="37.3704700">
    <ele>3349.8</ele>
    <time>2026-06-23T12:03:24Z</time>
   </trkpt>
   <trkpt lat="-3.1479800" lon="37.3704690">
    <ele>3349.7</ele>
    <time>2026-06-23T12:03:25Z</time>
   </trkpt>
   <trkpt lat="-3.1479830" lon="37.3704650">
    <ele>3349.5</ele>
    <time>2026-06-23T12:03:26Z</time>
   </trkpt>
   <trkpt lat="-3.1479850" lon="37.3704590">
    <ele>3349.3</ele>
    <time>2026-06-23T12:03:27Z</time>
   </trkpt>
   <trkpt lat="-3.1479850" lon="37.3704560">
    <ele>3349.2</ele>
    <time>2026-06-23T12:03:28Z</time>
   </trkpt>
   <trkpt lat="-3.1479850" lon="37.3704510">
    <ele>3349.1</ele>
    <time>2026-06-23T12:03:29Z</time>
   </trkpt>
   <trkpt lat="-3.1479860" lon="37.3704500">
    <ele>3349.0</ele>
    <time>2026-06-23T12:03:30Z</time>
   </trkpt>
   <trkpt lat="-3.1479910" lon="37.3704490">
    <ele>3348.8</ele>
    <time>2026-06-23T12:03:31Z</time>
   </trkpt>
   <trkpt lat="-3.1479950" lon="37.3704460">
    <ele>3348.7</ele>
    <time>2026-06-23T12:03:32Z</time>
   </trkpt>
   <trkpt lat="-3.1480000" lon="37.3704470">
    <ele>3348.5</ele>
    <time>2026-06-23T12:03:33Z</time>
   </trkpt>
   <trkpt lat="-3.1480070" lon="37.3704500">
    <ele>3348.3</ele>
    <time>2026-06-23T12:03:34Z</time>
   </trkpt>
   <trkpt lat="-3.1480110" lon="37.3704530">
    <ele>3348.1</ele>
    <time>2026-06-23T12:03:35Z</time>
   </trkpt>
   <trkpt lat="-3.1480160" lon="37.3704550">
    <ele>3347.9</ele>
    <time>2026-06-23T12:03:36Z</time>
   </trkpt>
   <trkpt lat="-3.1480230" lon="37.3704570">
    <ele>3347.7</ele>
    <time>2026-06-23T12:03:37Z</time>
   </trkpt>
   <trkpt lat="-3.1480290" lon="37.3704590">
    <ele>3347.5</ele>
    <time>2026-06-23T12:03:38Z</time>
   </trkpt>
   <trkpt lat="-3.1480340" lon="37.3704600">
    <ele>3347.3</ele>
    <time>2026-06-23T12:03:39Z</time>
   </trkpt>
   <trkpt lat="-3.1480330" lon="37.3704640">
    <ele>3347.1</ele>
    <time>2026-06-23T12:03:40Z</time>
   </trkpt>
   <trkpt lat="-3.1480360" lon="37.3704650">
    <ele>3347.0</ele>
    <time>2026-06-23T12:03:41Z</time>
   </trkpt>
   <trkpt lat="-3.1480410" lon="37.3704650">
    <ele>3346.9</ele>
    <time>2026-06-23T12:03:42Z</time>
   </trkpt>
   <trkpt lat="-3.1480450" lon="37.3704680">
    <ele>3346.7</ele>
    <time>2026-06-23T12:03:43Z</time>
   </trkpt>
   <trkpt lat="-3.1480490" lon="37.3704720">
    <ele>3346.5</ele>
    <time>2026-06-23T12:03:44Z</time>
   </trkpt>
   <trkpt lat="-3.1480520" lon="37.3704730">
    <ele>3346.4</ele>
    <time>2026-06-23T12:03:45Z</time>
   </trkpt>
   <trkpt lat="-3.1480580" lon="37.3704750">
    <ele>3346.2</ele>
    <time>2026-06-23T12:03:46Z</time>
   </trkpt>
   <trkpt lat="-3.1480640" lon="37.3704780">
    <ele>3346.0</ele>
    <time>2026-06-23T12:03:47Z</time>
   </trkpt>
   <trkpt lat="-3.1480730" lon="37.3704800">
    <ele>3345.7</ele>
    <time>2026-06-23T12:03:48Z</time>
   </trkpt>
   <trkpt lat="-3.1480800" lon="37.3704810">
    <ele>3345.4</ele>
    <time>2026-06-23T12:03:49Z</time>
   </trkpt>
   <trkpt lat="-3.1480860" lon="37.3704820">
    <ele>3345.2</ele>
    <time>2026-06-23T12:03:50Z</time>
   </trkpt>
   <trkpt lat="-3.1480920" lon="37.3704850">
    <ele>3345.0</ele>
    <time>2026-06-23T12:03:51Z</time>
   </trkpt>
   <trkpt lat="-3.1481000" lon="37.3704860">
    <ele>3344.7</ele>
    <time>2026-06-23T12:03:52Z</time>
   </trkpt>
   <trkpt lat="-3.1481080" lon="37.3704860">
    <ele>3344.5</ele>
    <time>2026-06-23T12:03:53Z</time>
   </trkpt>
   <trkpt lat="-3.1481150" lon="37.3704860">
    <ele>3344.2</ele>
    <time>2026-06-23T12:03:54Z</time>
   </trkpt>
   <trkpt lat="-3.1481220" lon="37.3704850">
    <ele>3344.0</ele>
    <time>2026-06-23T12:03:55Z</time>
   </trkpt>
   <trkpt lat="-3.1481250" lon="37.3704850">
    <ele>3343.9</ele>
    <time>2026-06-23T12:03:56Z</time>
   </trkpt>
   <trkpt lat="-3.1481330" lon="37.3704820">
    <ele>3343.6</ele>
    <time>2026-06-23T12:03:57Z</time>
   </trkpt>
   <trkpt lat="-3.1481370" lon="37.3704820">
    <ele>3343.5</ele>
    <time>2026-06-23T12:03:58Z</time>
   </trkpt>
   <trkpt lat="-3.1481450" lon="37.3704810">
    <ele>3343.2</ele>
    <time>2026-06-23T12:03:59Z</time>
   </trkpt>
   <trkpt lat="-3.1481490" lon="37.3704750">
    <ele>3343.0</ele>
    <time>2026-06-23T12:04:00Z</time>
   </trkpt>
   <trkpt lat="-3.1481550" lon="37.3704740">
    <ele>3342.8</ele>
    <time>2026-06-23T12:04:01Z</time>
   </trkpt>
   <trkpt lat="-3.1481640" lon="37.3704740">
    <ele>3342.5</ele>
    <time>2026-06-23T12:04:02Z</time>
   </trkpt>
   <trkpt lat="-3.1481730" lon="37.3704720">
    <ele>3342.2</ele>
    <time>2026-06-23T12:04:03Z</time>
   </trkpt>
   <trkpt lat="-3.1481810" lon="37.3704710">
    <ele>3341.9</ele>
    <time>2026-06-23T12:04:04Z</time>
   </trkpt>
   <trkpt lat="-3.1481890" lon="37.3704700">
    <ele>3341.6</ele>
    <time>2026-06-23T12:04:05Z</time>
   </trkpt>
   <trkpt lat="-3.1481960" lon="37.3704730">
    <ele>3341.4</ele>
    <time>2026-06-23T12:04:06Z</time>
   </trkpt>
   <trkpt lat="-3.1482030" lon="37.3704720">
    <ele>3341.2</ele>
    <time>2026-06-23T12:04:07Z</time>
   </trkpt>
   <trkpt lat="-3.1482120" lon="37.3704700">
    <ele>3340.8</ele>
    <time>2026-06-23T12:04:08Z</time>
   </trkpt>
   <trkpt lat="-3.1482200" lon="37.3704680">
    <ele>3340.6</ele>
    <time>2026-06-23T12:04:09Z</time>
   </trkpt>
   <trkpt lat="-3.1482270" lon="37.3704700">
    <ele>3340.3</ele>
    <time>2026-06-23T12:04:10Z</time>
   </trkpt>
   <trkpt lat="-3.1482340" lon="37.3704710">
    <ele>3340.1</ele>
    <time>2026-06-23T12:04:11Z</time>
   </trkpt>
   <trkpt lat="-3.1482410" lon="37.3704690">
    <ele>3339.8</ele>
    <time>2026-06-23T12:04:12Z</time>
   </trkpt>
   <trkpt lat="-3.1482480" lon="37.3704700">
    <ele>3339.6</ele>
    <time>2026-06-23T12:04:13Z</time>
   </trkpt>
   <trkpt lat="-3.1482500" lon="37.3704700">
    <ele>3339.5</ele>
    <time>2026-06-23T12:04:14Z</time>
   </trkpt>
   <trkpt lat="-3.1482520" lon="37.3704710">
    <ele>3339.4</ele>
    <time>2026-06-23T12:04:15Z</time>
   </trkpt>
   <trkpt lat="-3.1482570" lon="37.3704710">
    <ele>3339.3</ele>
    <time>2026-06-23T12:04:16Z</time>
   </trkpt>
   <trkpt lat="-3.1482620" lon="37.3704730">
    <ele>3339.1</ele>
    <time>2026-06-23T12:04:17Z</time>
   </trkpt>
   <trkpt lat="-3.1482620" lon="37.3704690">
    <ele>3338.9</ele>
    <time>2026-06-23T12:04:18Z</time>
   </trkpt>
   <trkpt lat="-3.1482670" lon="37.3704660">
    <ele>3338.7</ele>
    <time>2026-06-23T12:04:19Z</time>
   </trkpt>
   <trkpt lat="-3.1482720" lon="37.3704610">
    <ele>3338.5</ele>
    <time>2026-06-23T12:04:20Z</time>
   </trkpt>
   <trkpt lat="-3.1482760" lon="37.3704610">
    <ele>3338.3</ele>
    <time>2026-06-23T12:04:21Z</time>
   </trkpt>
   <trkpt lat="-3.1482810" lon="37.3704590">
    <ele>3338.2</ele>
    <time>2026-06-23T12:04:22Z</time>
   </trkpt>
   <trkpt lat="-3.1482850" lon="37.3704550">
    <ele>3338.0</ele>
    <time>2026-06-23T12:04:23Z</time>
   </trkpt>
   <trkpt lat="-3.1482910" lon="37.3704520">
    <ele>3337.7</ele>
    <time>2026-06-23T12:04:24Z</time>
   </trkpt>
   <trkpt lat="-3.1482890" lon="37.3704480">
    <ele>3337.6</ele>
    <time>2026-06-23T12:04:25Z</time>
   </trkpt>
   <trkpt lat="-3.1482980" lon="37.3704410">
    <ele>3337.2</ele>
    <time>2026-06-23T12:04:26Z</time>
   </trkpt>
   <trkpt lat="-3.1483000" lon="37.3704370">
    <ele>3337.0</ele>
    <time>2026-06-23T12:04:27Z</time>
   </trkpt>
   <trkpt lat="-3.1483050" lon="37.3704300">
    <ele>3336.7</ele>
    <time>2026-06-23T12:04:28Z</time>
   </trkpt>
   <trkpt lat="-3.1483050" lon="37.3704260">
    <ele>3336.6</ele>
    <time>2026-06-23T12:04:29Z</time>
   </trkpt>
   <trkpt lat="-3.1483070" lon="37.3704160">
    <ele>3336.2</ele>
    <time>2026-06-23T12:04:30Z</time>
   </trkpt>
   <trkpt lat="-3.1483110" lon="37.3704120">
    <ele>3336.0</ele>
    <time>2026-06-23T12:04:31Z</time>
   </trkpt>
   <trkpt lat="-3.1483190" lon="37.3704050">
    <ele>3335.6</ele>
    <time>2026-06-23T12:04:32Z</time>
   </trkpt>
   <trkpt lat="-3.1483200" lon="37.3704050">
    <ele>3335.5</ele>
    <time>2026-06-23T12:04:33Z</time>
   </trkpt>
   <trkpt lat="-3.1483280" lon="37.3704010">
    <ele>3335.2</ele>
    <time>2026-06-23T12:04:34Z</time>
   </trkpt>
   <trkpt lat="-3.1483330" lon="37.3703990">
    <ele>3335.0</ele>
    <time>2026-06-23T12:04:35Z</time>
   </trkpt>
   <trkpt lat="-3.1483390" lon="37.3703980">
    <ele>3334.8</ele>
    <time>2026-06-23T12:04:36Z</time>
   </trkpt>
   <trkpt lat="-3.1483390" lon="37.3703970">
    <ele>3334.7</ele>
    <time>2026-06-23T12:04:37Z</time>
   </trkpt>
   <trkpt lat="-3.1483470" lon="37.3703910">
    <ele>3334.4</ele>
    <time>2026-06-23T12:04:38Z</time>
   </trkpt>
   <trkpt lat="-3.1483540" lon="37.3703890">
    <ele>3334.1</ele>
    <time>2026-06-23T12:04:39Z</time>
   </trkpt>
   <trkpt lat="-3.1483590" lon="37.3703870">
    <ele>3333.9</ele>
    <time>2026-06-23T12:04:40Z</time>
   </trkpt>
   <trkpt lat="-3.1483640" lon="37.3703820">
    <ele>3333.6</ele>
    <time>2026-06-23T12:04:41Z</time>
   </trkpt>
   <trkpt lat="-3.1483660" lon="37.3703790">
    <ele>3333.5</ele>
    <time>2026-06-23T12:04:42Z</time>
   </trkpt>
   <trkpt lat="-3.1483700" lon="37.3703780">
    <ele>3333.3</ele>
    <time>2026-06-23T12:04:43Z</time>
   </trkpt>
   <trkpt lat="-3.1483770" lon="37.3703780">
    <ele>3333.1</ele>
    <time>2026-06-23T12:04:44Z</time>
   </trkpt>
   <trkpt lat="-3.1483810" lon="37.3703780">
    <ele>3332.9</ele>
    <time>2026-06-23T12:04:45Z</time>
   </trkpt>
   <trkpt lat="-3.1483850" lon="37.3703760">
    <ele>3332.7</ele>
    <time>2026-06-23T12:04:46Z</time>
   </trkpt>
   <trkpt lat="-3.1483890" lon="37.3703720">
    <ele>3332.5</ele>
    <time>2026-06-23T12:04:47Z</time>
   </trkpt>
   <trkpt lat="-3.1483920" lon="37.3703680">
    <ele>3332.3</ele>
    <time>2026-06-23T12:04:48Z</time>
   </trkpt>
   <trkpt lat="-3.1483940" lon="37.3703660">
    <ele>3332.2</ele>
    <time>2026-06-23T12:04:49Z</time>
   </trkpt>
   <trkpt lat="-3.1483970" lon="37.3703580">
    <ele>3331.9</ele>
    <time>2026-06-23T12:04:50Z</time>
   </trkpt>
   <trkpt lat="-3.1483990" lon="37.3703580">
    <ele>3331.8</ele>
    <time>2026-06-23T12:04:51Z</time>
   </trkpt>
   <trkpt lat="-3.1483980" lon="37.3703530">
    <ele>3331.6</ele>
    <time>2026-06-23T12:04:52Z</time>
   </trkpt>
   <trkpt lat="-3.1483990" lon="37.3703480">
    <ele>3331.4</ele>
    <time>2026-06-23T12:04:53Z</time>
   </trkpt>
   <trkpt lat="-3.1484020" lon="37.3703460">
    <ele>3331.3</ele>
    <time>2026-06-23T12:04:54Z</time>
   </trkpt>
   <trkpt lat="-3.1484060" lon="37.3703420">
    <ele>3331.0</ele>
    <time>2026-06-23T12:04:55Z</time>
   </trkpt>
   <trkpt lat="-3.1484090" lon="37.3703430">
    <ele>3330.9</ele>
    <time>2026-06-23T12:04:56Z</time>
   </trkpt>
   <trkpt lat="-3.1484160" lon="37.3703410">
    <ele>3330.6</ele>
    <time>2026-06-23T12:04:57Z</time>
   </trkpt>
   <trkpt lat="-3.1484170" lon="37.3703420">
    <ele>3330.5</ele>
    <time>2026-06-23T12:04:58Z</time>
   </trkpt>
   <trkpt lat="-3.1484200" lon="37.3703420">
    <ele>3330.4</ele>
    <time>2026-06-23T12:04:59Z</time>
   </trkpt>
   <trkpt lat="-3.1484230" lon="37.3703460">
    <ele>3330.2</ele>
    <time>2026-06-23T12:05:00Z</time>
   </trkpt>
   <trkpt lat="-3.1484220" lon="37.3703450">
    <ele>3330.2</ele>
    <time>2026-06-23T12:05:01Z</time>
   </trkpt>
   <trkpt lat="-3.1484240" lon="37.3703430">
    <ele>3330.1</ele>
    <time>2026-06-23T12:05:02Z</time>
   </trkpt>
   <trkpt lat="-3.1484250" lon="37.3703410">
    <ele>3330.0</ele>
    <time>2026-06-23T12:05:03Z</time>
   </trkpt>
   <trkpt lat="-3.1484270" lon="37.3703430">
    <ele>3329.8</ele>
    <time>2026-06-23T12:05:04Z</time>
   </trkpt>
   <trkpt lat="-3.1484290" lon="37.3703400">
    <ele>3329.7</ele>
    <time>2026-06-23T12:05:05Z</time>
   </trkpt>
   <trkpt lat="-3.1484340" lon="37.3703360">
    <ele>3329.4</ele>
    <time>2026-06-23T12:05:06Z</time>
   </trkpt>
   <trkpt lat="-3.1484390" lon="37.3703340">
    <ele>3329.2</ele>
    <time>2026-06-23T12:05:07Z</time>
   </trkpt>
   <trkpt lat="-3.1484460" lon="37.3703330">
    <ele>3328.9</ele>
    <time>2026-06-23T12:05:08Z</time>
   </trkpt>
   <trkpt lat="-3.1484480" lon="37.3703330">
    <ele>3328.9</ele>
    <time>2026-06-23T12:05:09Z</time>
   </trkpt>
   <trkpt lat="-3.1484520" lon="37.3703300">
    <ele>3328.7</ele>
    <time>2026-06-23T12:05:10Z</time>
   </trkpt>
   <trkpt lat="-3.1484540" lon="37.3703250">
    <ele>3328.4</ele>
    <time>2026-06-23T12:05:11Z</time>
   </trkpt>
   <trkpt lat="-3.1484560" lon="37.3703210">
    <ele>3328.3</ele>
    <time>2026-06-23T12:05:12Z</time>
   </trkpt>
   <trkpt lat="-3.1484590" lon="37.3703170">
    <ele>3328.1</ele>
    <time>2026-06-23T12:05:13Z</time>
   </trkpt>
   <trkpt lat="-3.1484600" lon="37.3703160">
    <ele>3328.0</ele>
    <time>2026-06-23T12:05:14Z</time>
   </trkpt>
   <trkpt lat="-3.1484600" lon="37.3703130">
    <ele>3327.9</ele>
    <time>2026-06-23T12:05:15Z</time>
   </trkpt>
   <trkpt lat="-3.1484670" lon="37.3703070">
    <ele>3327.5</ele>
    <time>2026-06-23T12:05:16Z</time>
   </trkpt>
   <trkpt lat="-3.1484630" lon="37.3703080">
    <ele>3327.3</ele>
    <time>2026-06-23T12:05:17Z</time>
   </trkpt>
   <trkpt lat="-3.1484610" lon="37.3703070">
    <ele>3327.2</ele>
    <time>2026-06-23T12:05:18Z</time>
   </trkpt>
   <trkpt lat="-3.1484590" lon="37.3703070">
    <ele>3327.2</ele>
    <time>2026-06-23T12:05:19Z</time>
   </trkpt>
   <trkpt lat="-3.1484590" lon="37.3703050">
    <ele>3327.1</ele>
    <time>2026-06-23T12:05:20Z</time>
   </trkpt>
   <trkpt lat="-3.1484570" lon="37.3703040">
    <ele>3327.0</ele>
    <time>2026-06-23T12:05:21Z</time>
   </trkpt>
   <trkpt lat="-3.1484560" lon="37.3703020">
    <ele>3326.9</ele>
    <time>2026-06-23T12:05:22Z</time>
   </trkpt>
   <trkpt lat="-3.1484550" lon="37.3703030">
    <ele>3326.8</ele>
    <time>2026-06-23T12:05:23Z</time>
   </trkpt>
   <trkpt lat="-3.1484550" lon="37.3703010">
    <ele>3326.8</ele>
    <time>2026-06-23T12:05:24Z</time>
   </trkpt>
   <trkpt lat="-3.1484550" lon="37.3702980">
    <ele>3326.6</ele>
    <time>2026-06-23T12:05:25Z</time>
   </trkpt>
   <trkpt lat="-3.1484530" lon="37.3702940">
    <ele>3326.5</ele>
    <time>2026-06-23T12:05:26Z</time>
   </trkpt>
   <trkpt lat="-3.1484520" lon="37.3702930">
    <ele>3326.4</ele>
    <time>2026-06-23T12:05:27Z</time>
   </trkpt>
   <trkpt lat="-3.1484550" lon="37.3702910">
    <ele>3326.3</ele>
    <time>2026-06-23T12:05:28Z</time>
   </trkpt>
   <trkpt lat="-3.1484530" lon="37.3702840">
    <ele>3326.0</ele>
    <time>2026-06-23T12:05:29Z</time>
   </trkpt>
   <trkpt lat="-3.1484560" lon="37.3702800">
    <ele>3325.8</ele>
    <time>2026-06-23T12:05:30Z</time>
   </trkpt>
   <trkpt lat="-3.1484600" lon="37.3702800">
    <ele>3325.6</ele>
    <time>2026-06-23T12:05:31Z</time>
   </trkpt>
   <trkpt lat="-3.1484610" lon="37.3702800">
    <ele>3325.6</ele>
    <time>2026-06-23T12:05:32Z</time>
   </trkpt>
   <trkpt lat="-3.1484660" lon="37.3702800">
    <ele>3325.4</ele>
    <time>2026-06-23T12:05:33Z</time>
   </trkpt>
   <trkpt lat="-3.1484710" lon="37.3702820">
    <ele>3325.1</ele>
    <time>2026-06-23T12:05:34Z</time>
   </trkpt>
   <trkpt lat="-3.1484740" lon="37.3702790">
    <ele>3325.0</ele>
    <time>2026-06-23T12:05:35Z</time>
   </trkpt>
   <trkpt lat="-3.1484800" lon="37.3702780">
    <ele>3324.7</ele>
    <time>2026-06-23T12:05:36Z</time>
   </trkpt>
   <trkpt lat="-3.1484800" lon="37.3702730">
    <ele>3324.5</ele>
    <time>2026-06-23T12:05:37Z</time>
   </trkpt>
   <trkpt lat="-3.1484860" lon="37.3702680">
    <ele>3324.2</ele>
    <time>2026-06-23T12:05:38Z</time>
   </trkpt>
   <trkpt lat="-3.1484930" lon="37.3702640">
    <ele>3323.9</ele>
    <time>2026-06-23T12:05:39Z</time>
   </trkpt>
   <trkpt lat="-3.1485000" lon="37.3702600">
    <ele>3323.6</ele>
    <time>2026-06-23T12:05:40Z</time>
   </trkpt>
   <trkpt lat="-3.1485070" lon="37.3702590">
    <ele>3323.3</ele>
    <time>2026-06-23T12:05:41Z</time>
   </trkpt>
   <trkpt lat="-3.1485100" lon="37.3702570">
    <ele>3323.1</ele>
    <time>2026-06-23T12:05:42Z</time>
   </trkpt>
   <trkpt lat="-3.1485150" lon="37.3702490">
    <ele>3322.7</ele>
    <time>2026-06-23T12:05:43Z</time>
   </trkpt>
   <trkpt lat="-3.1485170" lon="37.3702430">
    <ele>3322.5</ele>
    <time>2026-06-23T12:05:44Z</time>
   </trkpt>
   <trkpt lat="-3.1485180" lon="37.3702410">
    <ele>3322.4</ele>
    <time>2026-06-23T12:05:45Z</time>
   </trkpt>
   <trkpt lat="-3.1485200" lon="37.3702330">
    <ele>3322.1</ele>
    <time>2026-06-23T12:05:46Z</time>
   </trkpt>
   <trkpt lat="-3.1485310" lon="37.3702270">
    <ele>3321.6</ele>
    <time>2026-06-23T12:05:47Z</time>
   </trkpt>
   <trkpt lat="-3.1485300" lon="37.3702260">
    <ele>3321.5</ele>
    <time>2026-06-23T12:05:48Z</time>
   </trkpt>
   <trkpt lat="-3.1485340" lon="37.3702210">
    <ele>3321.3</ele>
    <time>2026-06-23T12:05:49Z</time>
   </trkpt>
   <trkpt lat="-3.1485370" lon="37.3702220">
    <ele>3321.2</ele>
    <time>2026-06-23T12:05:50Z</time>
   </trkpt>
   <trkpt lat="-3.1485430" lon="37.3702190">
    <ele>3320.9</ele>
    <time>2026-06-23T12:05:51Z</time>
   </trkpt>
   <trkpt lat="-3.1485470" lon="37.3702190">
    <ele>3320.8</ele>
    <time>2026-06-23T12:05:52Z</time>
   </trkpt>
   <trkpt lat="-3.1485520" lon="37.3702140">
    <ele>3320.5</ele>
    <time>2026-06-23T12:05:53Z</time>
   </trkpt>
   <trkpt lat="-3.1485570" lon="37.3702120">
    <ele>3320.3</ele>
    <time>2026-06-23T12:05:54Z</time>
   </trkpt>
   <trkpt lat="-3.1485600" lon="37.3702060">
    <ele>3320.0</ele>
    <time>2026-06-23T12:05:55Z</time>
   </trkpt>
   <trkpt lat="-3.1485650" lon="37.3702040">
    <ele>3319.8</ele>
    <time>2026-06-23T12:05:56Z</time>
   </trkpt>
   <trkpt lat="-3.1485690" lon="37.3701990">
    <ele>3319.6</ele>
    <time>2026-06-23T12:05:57Z</time>
   </trkpt>
   <trkpt lat="-3.1485720" lon="37.3701950">
    <ele>3319.4</ele>
    <time>2026-06-23T12:05:58Z</time>
   </trkpt>
   <trkpt lat="-3.1485750" lon="37.3701910">
    <ele>3319.2</ele>
    <time>2026-06-23T12:05:59Z</time>
   </trkpt>
   <trkpt lat="-3.1485800" lon="37.3701860">
    <ele>3318.9</ele>
    <time>2026-06-23T12:06:00Z</time>
   </trkpt>
   <trkpt lat="-3.1485800" lon="37.3701860">
    <ele>3318.9</ele>
    <time>2026-06-23T12:06:01Z</time>
   </trkpt>
   <trkpt lat="-3.1485890" lon="37.3701830">
    <ele>3318.5</ele>
    <time>2026-06-23T12:06:02Z</time>
   </trkpt>
   <trkpt lat="-3.1485910" lon="37.3701810">
    <ele>3318.4</ele>
    <time>2026-06-23T12:06:03Z</time>
   </trkpt>
   <trkpt lat="-3.1485940" lon="37.3701780">
    <ele>3318.3</ele>
    <time>2026-06-23T12:06:04Z</time>
   </trkpt>
   <trkpt lat="-3.1485930" lon="37.3701770">
    <ele>3318.2</ele>
    <time>2026-06-23T12:06:05Z</time>
   </trkpt>
   <trkpt lat="-3.1485900" lon="37.3701770">
    <ele>3318.1</ele>
    <time>2026-06-23T12:06:06Z</time>
   </trkpt>
   <trkpt lat="-3.1485880" lon="37.3701760">
    <ele>3318.0</ele>
    <time>2026-06-23T12:06:07Z</time>
   </trkpt>
   <trkpt lat="-3.1485860" lon="37.3701750">
    <ele>3317.9</ele>
    <time>2026-06-23T12:06:08Z</time>
   </trkpt>
   <trkpt lat="-3.1485860" lon="37.3701750">
    <ele>3317.9</ele>
    <time>2026-06-23T12:06:09Z</time>
   </trkpt>
   <trkpt lat="-3.1485860" lon="37.3701750">
    <ele>3317.9</ele>
    <time>2026-06-23T12:06:10Z</time>
   </trkpt>
   <trkpt lat="-3.1485840" lon="37.3701720">
    <ele>3317.8</ele>
    <time>2026-06-23T12:06:11Z</time>
   </trkpt>
   <trkpt lat="-3.1485820" lon="37.3701700">
    <ele>3317.7</ele>
    <time>2026-06-23T12:06:12Z</time>
   </trkpt>
   <trkpt lat="-3.1485790" lon="37.3701640">
    <ele>3317.4</ele>
    <time>2026-06-23T12:06:13Z</time>
   </trkpt>
   <trkpt lat="-3.1485780" lon="37.3701580">
    <ele>3317.2</ele>
    <time>2026-06-23T12:06:14Z</time>
   </trkpt>
   <trkpt lat="-3.1485810" lon="37.3701530">
    <ele>3316.9</ele>
    <time>2026-06-23T12:06:15Z</time>
   </trkpt>
   <trkpt lat="-3.1485830" lon="37.3701490">
    <ele>3316.8</ele>
    <time>2026-06-23T12:06:16Z</time>
   </trkpt>
   <trkpt lat="-3.1485910" lon="37.3701470">
    <ele>3316.5</ele>
    <time>2026-06-23T12:06:17Z</time>
   </trkpt>
   <trkpt lat="-3.1485940" lon="37.3701450">
    <ele>3316.3</ele>
    <time>2026-06-23T12:06:18Z</time>
   </trkpt>
   <trkpt lat="-3.1485960" lon="37.3701430">
    <ele>3316.2</ele>
    <time>2026-06-23T12:06:19Z</time>
   </trkpt>
   <trkpt lat="-3.1485940" lon="37.3701420">
    <ele>3316.1</ele>
    <time>2026-06-23T12:06:20Z</time>
   </trkpt>
   <trkpt lat="-3.1485940" lon="37.3701410">
    <ele>3316.1</ele>
    <time>2026-06-23T12:06:21Z</time>
   </trkpt>
   <trkpt lat="-3.1485900" lon="37.3701380">
    <ele>3315.9</ele>
    <time>2026-06-23T12:06:22Z</time>
   </trkpt>
   <trkpt lat="-3.1485880" lon="37.3701330">
    <ele>3315.7</ele>
    <time>2026-06-23T12:06:23Z</time>
   </trkpt>
   <trkpt lat="-3.1485870" lon="37.3701300">
    <ele>3315.6</ele>
    <time>2026-06-23T12:06:24Z</time>
   </trkpt>
   <trkpt lat="-3.1485840" lon="37.3701260">
    <ele>3315.4</ele>
    <time>2026-06-23T12:06:25Z</time>
   </trkpt>
   <trkpt lat="-3.1485830" lon="37.3701210">
    <ele>3315.2</ele>
    <time>2026-06-23T12:06:26Z</time>
   </trkpt>
   <trkpt lat="-3.1485850" lon="37.3701180">
    <ele>3315.1</ele>
    <time>2026-06-23T12:06:27Z</time>
   </trkpt>
   <trkpt lat="-3.1485870" lon="37.3701170">
    <ele>3315.0</ele>
    <time>2026-06-23T12:06:28Z</time>
   </trkpt>
   <trkpt lat="-3.1485900" lon="37.3701130">
    <ele>3314.8</ele>
    <time>2026-06-23T12:06:29Z</time>
   </trkpt>
   <trkpt lat="-3.1485930" lon="37.3701110">
    <ele>3314.7</ele>
    <time>2026-06-23T12:06:30Z</time>
   </trkpt>
   <trkpt lat="-3.1485970" lon="37.3701070">
    <ele>3314.5</ele>
    <time>2026-06-23T12:06:31Z</time>
   </trkpt>
   <trkpt lat="-3.1486000" lon="37.3701060">
    <ele>3314.4</ele>
    <time>2026-06-23T12:06:32Z</time>
   </trkpt>
   <trkpt lat="-3.1486000" lon="37.3700990">
    <ele>3314.1</ele>
    <time>2026-06-23T12:06:33Z</time>
   </trkpt>
   <trkpt lat="-3.1486030" lon="37.3700910">
    <ele>3313.8</ele>
    <time>2026-06-23T12:06:34Z</time>
   </trkpt>
   <trkpt lat="-3.1486060" lon="37.3700880">
    <ele>3313.7</ele>
    <time>2026-06-23T12:06:35Z</time>
   </trkpt>
   <trkpt lat="-3.1486090" lon="37.3700830">
    <ele>3313.4</ele>
    <time>2026-06-23T12:06:36Z</time>
   </trkpt>
   <trkpt lat="-3.1486080" lon="37.3700820">
    <ele>3313.4</ele>
    <time>2026-06-23T12:06:37Z</time>
   </trkpt>
   <trkpt lat="-3.1486080" lon="37.3700720">
    <ele>3313.0</ele>
    <time>2026-06-23T12:06:38Z</time>
   </trkpt>
   <trkpt lat="-3.1486040" lon="37.3700690">
    <ele>3312.8</ele>
    <time>2026-06-23T12:06:39Z</time>
   </trkpt>
   <trkpt lat="-3.1485970" lon="37.3700650">
    <ele>3312.5</ele>
    <time>2026-06-23T12:06:40Z</time>
   </trkpt>
   <trkpt lat="-3.1485950" lon="37.3700610">
    <ele>3312.4</ele>
    <time>2026-06-23T12:06:41Z</time>
   </trkpt>
   <trkpt lat="-3.1485930" lon="37.3700530">
    <ele>3312.1</ele>
    <time>2026-06-23T12:06:42Z</time>
   </trkpt>
   <trkpt lat="-3.1485970" lon="37.3700530">
    <ele>3312.0</ele>
    <time>2026-06-23T12:06:43Z</time>
   </trkpt>
   <trkpt lat="-3.1486030" lon="37.3700510">
    <ele>3311.7</ele>
    <time>2026-06-23T12:06:44Z</time>
   </trkpt>
   <trkpt lat="-3.1486080" lon="37.3700510">
    <ele>3311.6</ele>
    <time>2026-06-23T12:06:45Z</time>
   </trkpt>
   <trkpt lat="-3.1486090" lon="37.3700500">
    <ele>3311.5</ele>
    <time>2026-06-23T12:06:46Z</time>
   </trkpt>
   <trkpt lat="-3.1486100" lon="37.3700400">
    <ele>3311.2</ele>
    <time>2026-06-23T12:06:47Z</time>
   </trkpt>
   <trkpt lat="-3.1486080" lon="37.3700390">
    <ele>3311.1</ele>
    <time>2026-06-23T12:06:48Z</time>
   </trkpt>
   <trkpt lat="-3.1486090" lon="37.3700300">
    <ele>3310.8</ele>
    <time>2026-06-23T12:06:49Z</time>
   </trkpt>
   <trkpt lat="-3.1486060" lon="37.3700250">
    <ele>3310.6</ele>
    <time>2026-06-23T12:06:50Z</time>
   </trkpt>
   <trkpt lat="-3.1486010" lon="37.3700260">
    <ele>3310.4</ele>
    <time>2026-06-23T12:06:51Z</time>
   </trkpt>
   <trkpt lat="-3.1485980" lon="37.3700190">
    <ele>3310.1</ele>
    <time>2026-06-23T12:06:52Z</time>
   </trkpt>
   <trkpt lat="-3.1486010" lon="37.3700180">
    <ele>3310.0</ele>
    <time>2026-06-23T12:06:53Z</time>
   </trkpt>
   <trkpt lat="-3.1486060" lon="37.3700170">
    <ele>3309.8</ele>
    <time>2026-06-23T12:06:54Z</time>
   </trkpt>
   <trkpt lat="-3.1486050" lon="37.3700130">
    <ele>3309.7</ele>
    <time>2026-06-23T12:06:55Z</time>
   </trkpt>
   <trkpt lat="-3.1486090" lon="37.3700110">
    <ele>3309.6</ele>
    <time>2026-06-23T12:06:56Z</time>
   </trkpt>
   <trkpt lat="-3.1486120" lon="37.3700090">
    <ele>3309.4</ele>
    <time>2026-06-23T12:06:57Z</time>
   </trkpt>
   <trkpt lat="-3.1486130" lon="37.3700090">
    <ele>3309.4</ele>
    <time>2026-06-23T12:06:58Z</time>
   </trkpt>
   <trkpt lat="-3.1486190" lon="37.3700070">
    <ele>3309.2</ele>
    <time>2026-06-23T12:06:59Z</time>
   </trkpt>
   <trkpt lat="-3.1486230" lon="37.3700000">
    <ele>3308.9</ele>
    <time>2026-06-23T12:07:00Z</time>
   </trkpt>
   <trkpt lat="-3.1486290" lon="37.3699980">
    <ele>3308.7</ele>
    <time>2026-06-23T12:07:01Z</time>
   </trkpt>
   <trkpt lat="-3.1486320" lon="37.3699930">
    <ele>3308.5</ele>
    <time>2026-06-23T12:07:02Z</time>
   </trkpt>
   <trkpt lat="-3.1486390" lon="37.3699910">
    <ele>3308.2</ele>
    <time>2026-06-23T12:07:03Z</time>
   </trkpt>
   <trkpt lat="-3.1486440" lon="37.3699900">
    <ele>3308.1</ele>
    <time>2026-06-23T12:07:04Z</time>
   </trkpt>
   <trkpt lat="-3.1486480" lon="37.3699890">
    <ele>3307.9</ele>
    <time>2026-06-23T12:07:05Z</time>
   </trkpt>
   <trkpt lat="-3.1486530" lon="37.3699860">
    <ele>3307.7</ele>
    <time>2026-06-23T12:07:06Z</time>
   </trkpt>
   <trkpt lat="-3.1486580" lon="37.3699830">
    <ele>3307.5</ele>
    <time>2026-06-23T12:07:07Z</time>
   </trkpt>
   <trkpt lat="-3.1486610" lon="37.3699770">
    <ele>3307.3</ele>
    <time>2026-06-23T12:07:08Z</time>
   </trkpt>
   <trkpt lat="-3.1486640" lon="37.3699730">
    <ele>3307.1</ele>
    <time>2026-06-23T12:07:09Z</time>
   </trkpt>
   <trkpt lat="-3.1486690" lon="37.3699720">
    <ele>3307.0</ele>
    <time>2026-06-23T12:07:10Z</time>
   </trkpt>
   <trkpt lat="-3.1486690" lon="37.3699670">
    <ele>3306.8</ele>
    <time>2026-06-23T12:07:11Z</time>
   </trkpt>
   <trkpt lat="-3.1486710" lon="37.3699660">
    <ele>3306.7</ele>
    <time>2026-06-23T12:07:12Z</time>
   </trkpt>
   <trkpt lat="-3.1486760" lon="37.3699610">
    <ele>3306.5</ele>
    <time>2026-06-23T12:07:13Z</time>
   </trkpt>
   <trkpt lat="-3.1486780" lon="37.3699540">
    <ele>3306.2</ele>
    <time>2026-06-23T12:07:14Z</time>
   </trkpt>
   <trkpt lat="-3.1486800" lon="37.3699470">
    <ele>3306.0</ele>
    <time>2026-06-23T12:07:15Z</time>
   </trkpt>
   <trkpt lat="-3.1486870" lon="37.3699440">
    <ele>3305.7</ele>
    <time>2026-06-23T12:07:16Z</time>
   </trkpt>
   <trkpt lat="-3.1486910" lon="37.3699400">
    <ele>3305.5</ele>
    <time>2026-06-23T12:07:17Z</time>
   </trkpt>
   <trkpt lat="-3.1486950" lon="37.3699310">
    <ele>3305.2</ele>
    <time>2026-06-23T12:07:18Z</time>
   </trkpt>
   <trkpt lat="-3.1486980" lon="37.3699230">
    <ele>3304.9</ele>
    <time>2026-06-23T12:07:19Z</time>
   </trkpt>
   <trkpt lat="-3.1487030" lon="37.3699180">
    <ele>3304.6</ele>
    <time>2026-06-23T12:07:20Z</time>
   </trkpt>
   <trkpt lat="-3.1487070" lon="37.3699150">
    <ele>3304.4</ele>
    <time>2026-06-23T12:07:21Z</time>
   </trkpt>
   <trkpt lat="-3.1487080" lon="37.3699110">
    <ele>3304.3</ele>
    <time>2026-06-23T12:07:22Z</time>
   </trkpt>
   <trkpt lat="-3.1487100" lon="37.3699080">
    <ele>3304.2</ele>
    <time>2026-06-23T12:07:23Z</time>
   </trkpt>
   <trkpt lat="-3.1487110" lon="37.3699040">
    <ele>3304.0</ele>
    <time>2026-06-23T12:07:24Z</time>
   </trkpt>
   <trkpt lat="-3.1487130" lon="37.3698990">
    <ele>3303.8</ele>
    <time>2026-06-23T12:07:25Z</time>
   </trkpt>
   <trkpt lat="-3.1487140" lon="37.3698940">
    <ele>3303.7</ele>
    <time>2026-06-23T12:07:26Z</time>
   </trkpt>
   <trkpt lat="-3.1487170" lon="37.3698920">
    <ele>3303.5</ele>
    <time>2026-06-23T12:07:27Z</time>
   </trkpt>
   <trkpt lat="-3.1487190" lon="37.3698910">
    <ele>3303.5</ele>
    <time>2026-06-23T12:07:28Z</time>
   </trkpt>
   <trkpt lat="-3.1487180" lon="37.3698900">
    <ele>3303.4</ele>
    <time>2026-06-23T12:07:29Z</time>
   </trkpt>
   <trkpt lat="-3.1487240" lon="37.3698860">
    <ele>3303.2</ele>
    <time>2026-06-23T12:07:30Z</time>
   </trkpt>
   <trkpt lat="-3.1487290" lon="37.3698830">
    <ele>3303.0</ele>
    <time>2026-06-23T12:07:31Z</time>
   </trkpt>
   <trkpt lat="-3.1487280" lon="37.3698820">
    <ele>3302.9</ele>
    <time>2026-06-23T12:07:32Z</time>
   </trkpt>
   <trkpt lat="-3.1487330" lon="37.3698770">
    <ele>3302.7</ele>
    <time>2026-06-23T12:07:33Z</time>
   </trkpt>
   <trkpt lat="-3.1487370" lon="37.3698730">
    <ele>3302.5</ele>
    <time>2026-06-23T12:07:34Z</time>
   </trkpt>
   <trkpt lat="-3.1487410" lon="37.3698730">
    <ele>3302.3</ele>
    <time>2026-06-23T12:07:35Z</time>
   </trkpt>
   <trkpt lat="-3.1487420" lon="37.3698710">
    <ele>3302.2</ele>
    <time>2026-06-23T12:07:36Z</time>
   </trkpt>
   <trkpt lat="-3.1487420" lon="37.3698700">
    <ele>3302.2</ele>
    <time>2026-06-23T12:07:37Z</time>
   </trkpt>
   <trkpt lat="-3.1487410" lon="37.3698700">
    <ele>3302.2</ele>
    <time>2026-06-23T12:07:38Z</time>
   </trkpt>
   <trkpt lat="-3.1487520" lon="37.3698700">
    <ele>3301.8</ele>
    <time>2026-06-23T12:07:39Z</time>
   </trkpt>
   <trkpt lat="-3.1487580" lon="37.3698720">
    <ele>3301.6</ele>
    <time>2026-06-23T12:07:40Z</time>
   </trkpt>
   <trkpt lat="-3.1487590" lon="37.3698710">
    <ele>3301.5</ele>
    <time>2026-06-23T12:07:41Z</time>
   </trkpt>
   <trkpt lat="-3.1487660" lon="37.3698670">
    <ele>3301.2</ele>
    <time>2026-06-23T12:07:42Z</time>
   </trkpt>
   <trkpt lat="-3.1487660" lon="37.3698640">
    <ele>3301.1</ele>
    <time>2026-06-23T12:07:43Z</time>
   </trkpt>
   <trkpt lat="-3.1487660" lon="37.3698610">
    <ele>3301.0</ele>
    <time>2026-06-23T12:07:44Z</time>
   </trkpt>
   <trkpt lat="-3.1487680" lon="37.3698550">
    <ele>3300.8</ele>
    <time>2026-06-23T12:07:45Z</time>
   </trkpt>
   <trkpt lat="-3.1487720" lon="37.3698550">
    <ele>3300.7</ele>
    <time>2026-06-23T12:07:46Z</time>
   </trkpt>
   <trkpt lat="-3.1487770" lon="37.3698550">
    <ele>3300.5</ele>
    <time>2026-06-23T12:07:47Z</time>
   </trkpt>
   <trkpt lat="-3.1487810" lon="37.3698520">
    <ele>3300.3</ele>
    <time>2026-06-23T12:07:48Z</time>
   </trkpt>
   <trkpt lat="-3.1487830" lon="37.3698490">
    <ele>3300.2</ele>
    <time>2026-06-23T12:07:49Z</time>
   </trkpt>
   <trkpt lat="-3.1487860" lon="37.3698450">
    <ele>3300.0</ele>
    <time>2026-06-23T12:07:50Z</time>
   </trkpt>
   <trkpt lat="-3.1487880" lon="37.3698430">
    <ele>3299.9</ele>
    <time>2026-06-23T12:07:51Z</time>
   </trkpt>
   <trkpt lat="-3.1487930" lon="37.3698410">
    <ele>3299.8</ele>
    <time>2026-06-23T12:07:52Z</time>
   </trkpt>
   <trkpt lat="-3.1487940" lon="37.3698420">
    <ele>3299.7</ele>
    <time>2026-06-23T12:07:53Z</time>
   </trkpt>
   <trkpt lat="-3.1488000" lon="37.3698450">
    <ele>3299.5</ele>
    <time>2026-06-23T12:07:54Z</time>
   </trkpt>
   <trkpt lat="-3.1488030" lon="37.3698460">
    <ele>3299.4</ele>
    <time>2026-06-23T12:07:55Z</time>
   </trkpt>
   <trkpt lat="-3.1488080" lon="37.3698450">
    <ele>3299.3</ele>
    <time>2026-06-23T12:07:56Z</time>
   </trkpt>
   <trkpt lat="-3.1488140" lon="37.3698440">
    <ele>3299.1</ele>
    <time>2026-06-23T12:07:57Z</time>
   </trkpt>
   <trkpt lat="-3.1488170" lon="37.3698440">
    <ele>3299.0</ele>
    <time>2026-06-23T12:07:58Z</time>
   </trkpt>
   <trkpt lat="-3.1488210" lon="37.3698420">
    <ele>3298.9</ele>
    <time>2026-06-23T12:07:59Z</time>
   </trkpt>
   <trkpt lat="-3.1488230" lon="37.3698370">
    <ele>3298.7</ele>
    <time>2026-06-23T12:08:00Z</time>
   </trkpt>
   <trkpt lat="-3.1488270" lon="37.3698340">
    <ele>3298.6</ele>
    <time>2026-06-23T12:08:01Z</time>
   </trkpt>
   <trkpt lat="-3.1488320" lon="37.3698300">
    <ele>3298.4</ele>
    <time>2026-06-23T12:08:02Z</time>
   </trkpt>
   <trkpt lat="-3.1488360" lon="37.3698240">
    <ele>3298.2</ele>
    <time>2026-06-23T12:08:03Z</time>
   </trkpt>
   <trkpt lat="-3.1488360" lon="37.3698200">
    <ele>3298.1</ele>
    <time>2026-06-23T12:08:04Z</time>
   </trkpt>
   <trkpt lat="-3.1488360" lon="37.3698130">
    <ele>3297.9</ele>
    <time>2026-06-23T12:08:05Z</time>
   </trkpt>
   <trkpt lat="-3.1488400" lon="37.3698120">
    <ele>3297.7</ele>
    <time>2026-06-23T12:08:06Z</time>
   </trkpt>
   <trkpt lat="-3.1488470" lon="37.3698080">
    <ele>3297.5</ele>
    <time>2026-06-23T12:08:07Z</time>
   </trkpt>
   <trkpt lat="-3.1488530" lon="37.3698070">
    <ele>3297.3</ele>
    <time>2026-06-23T12:08:08Z</time>
   </trkpt>
   <trkpt lat="-3.1488590" lon="37.3698070">
    <ele>3297.2</ele>
    <time>2026-06-23T12:08:09Z</time>
   </trkpt>
   <trkpt lat="-3.1488620" lon="37.3698120">
    <ele>3297.0</ele>
    <time>2026-06-23T12:08:10Z</time>
   </trkpt>
   <trkpt lat="-3.1488690" lon="37.3698150">
    <ele>3296.8</ele>
    <time>2026-06-23T12:08:11Z</time>
   </trkpt>
   <trkpt lat="-3.1488750" lon="37.3698160">
    <ele>3296.6</ele>
    <time>2026-06-23T12:08:12Z</time>
   </trkpt>
   <trkpt lat="-3.1488810" lon="37.3698150">
    <ele>3296.4</ele>
    <time>2026-06-23T12:08:13Z</time>
   </trkpt>
   <trkpt lat="-3.1488840" lon="37.3698130">
    <ele>3296.3</ele>
    <time>2026-06-23T12:08:14Z</time>
   </trkpt>
   <trkpt lat="-3.1488860" lon="37.3698100">
    <ele>3296.2</ele>
    <time>2026-06-23T12:08:15Z</time>
   </trkpt>
   <trkpt lat="-3.1488970" lon="37.3698050">
    <ele>3295.8</ele>
    <time>2026-06-23T12:08:16Z</time>
   </trkpt>
   <trkpt lat="-3.1488990" lon="37.3698030">
    <ele>3295.7</ele>
    <time>2026-06-23T12:08:17Z</time>
   </trkpt>
   <trkpt lat="-3.1489040" lon="37.3697960">
    <ele>3295.5</ele>
    <time>2026-06-23T12:08:18Z</time>
   </trkpt>
   <trkpt lat="-3.1489070" lon="37.3697930">
    <ele>3295.4</ele>
    <time>2026-06-23T12:08:19Z</time>
   </trkpt>
   <trkpt lat="-3.1489090" lon="37.3697880">
    <ele>3295.2</ele>
    <time>2026-06-23T12:08:20Z</time>
   </trkpt>
   <trkpt lat="-3.1489120" lon="37.3697790">
    <ele>3294.9</ele>
    <time>2026-06-23T12:08:21Z</time>
   </trkpt>
   <trkpt lat="-3.1489140" lon="37.3697750">
    <ele>3294.8</ele>
    <time>2026-06-23T12:08:22Z</time>
   </trkpt>
   <trkpt lat="-3.1489130" lon="37.3697690">
    <ele>3294.6</ele>
    <time>2026-06-23T12:08:23Z</time>
   </trkpt>
   <trkpt lat="-3.1489200" lon="37.3697670">
    <ele>3294.4</ele>
    <time>2026-06-23T12:08:24Z</time>
   </trkpt>
   <trkpt lat="-3.1489240" lon="37.3697610">
    <ele>3294.2</ele>
    <time>2026-06-23T12:08:25Z</time>
   </trkpt>
   <trkpt lat="-3.1489290" lon="37.3697580">
    <ele>3294.0</ele>
    <time>2026-06-23T12:08:26Z</time>
   </trkpt>
   <trkpt lat="-3.1489340" lon="37.3697550">
    <ele>3293.8</ele>
    <time>2026-06-23T12:08:27Z</time>
   </trkpt>
   <trkpt lat="-3.1489380" lon="37.3697520">
    <ele>3293.7</ele>
    <time>2026-06-23T12:08:28Z</time>
   </trkpt>
   <trkpt lat="-3.1489420" lon="37.3697530">
    <ele>3293.6</ele>
    <time>2026-06-23T12:08:29Z</time>
   </trkpt>
   <trkpt lat="-3.1489490" lon="37.3697510">
    <ele>3293.4</ele>
    <time>2026-06-23T12:08:30Z</time>
   </trkpt>
   <trkpt lat="-3.1489510" lon="37.3697500">
    <ele>3293.3</ele>
    <time>2026-06-23T12:08:31Z</time>
   </trkpt>
   <trkpt lat="-3.1489610" lon="37.3697460">
    <ele>3293.0</ele>
    <time>2026-06-23T12:08:32Z</time>
   </trkpt>
   <trkpt lat="-3.1489640" lon="37.3697480">
    <ele>3292.9</ele>
    <time>2026-06-23T12:08:33Z</time>
   </trkpt>
   <trkpt lat="-3.1489710" lon="37.3697440">
    <ele>3292.6</ele>
    <time>2026-06-23T12:08:34Z</time>
   </trkpt>
   <trkpt lat="-3.1489730" lon="37.3697410">
    <ele>3292.5</ele>
    <time>2026-06-23T12:08:35Z</time>
   </trkpt>
   <trkpt lat="-3.1489770" lon="37.3697380">
    <ele>3292.4</ele>
    <time>2026-06-23T12:08:36Z</time>
   </trkpt>
   <trkpt lat="-3.1489820" lon="37.3697370">
    <ele>3292.2</ele>
    <time>2026-06-23T12:08:37Z</time>
   </trkpt>
   <trkpt lat="-3.1489880" lon="37.3697320">
    <ele>3292.0</ele>
    <time>2026-06-23T12:08:38Z</time>
   </trkpt>
   <trkpt lat="-3.1489940" lon="37.3697320">
    <ele>3291.8</ele>
    <time>2026-06-23T12:08:39Z</time>
   </trkpt>
   <trkpt lat="-3.1489940" lon="37.3697330">
    <ele>3291.8</ele>
    <time>2026-06-23T12:08:40Z</time>
   </trkpt>
   <trkpt lat="-3.1489980" lon="37.3697350">
    <ele>3291.7</ele>
    <time>2026-06-23T12:08:41Z</time>
   </trkpt>
   <trkpt lat="-3.1490020" lon="37.3697350">
    <ele>3291.5</ele>
    <time>2026-06-23T12:08:42Z</time>
   </trkpt>
   <trkpt lat="-3.1490070" lon="37.3697310">
    <ele>3291.4</ele>
    <time>2026-06-23T12:08:43Z</time>
   </trkpt>
   <trkpt lat="-3.1490120" lon="37.3697290">
    <ele>3291.2</ele>
    <time>2026-06-23T12:08:44Z</time>
   </trkpt>
   <trkpt lat="-3.1490140" lon="37.3697260">
    <ele>3291.1</ele>
    <time>2026-06-23T12:08:45Z</time>
   </trkpt>
   <trkpt lat="-3.1490200" lon="37.3697190">
    <ele>3290.8</ele>
    <time>2026-06-23T12:08:46Z</time>
   </trkpt>
   <trkpt lat="-3.1490190" lon="37.3697100">
    <ele>3290.6</ele>
    <time>2026-06-23T12:08:47Z</time>
   </trkpt>
   <trkpt lat="-3.1490220" lon="37.3697090">
    <ele>3290.5</ele>
    <time>2026-06-23T12:08:48Z</time>
   </trkpt>
   <trkpt lat="-3.1490230" lon="37.3697040">
    <ele>3290.3</ele>
    <time>2026-06-23T12:08:49Z</time>
   </trkpt>
   <trkpt lat="-3.1490280" lon="37.3696990">
    <ele>3290.1</ele>
    <time>2026-06-23T12:08:50Z</time>
   </trkpt>
   <trkpt lat="-3.1490300" lon="37.3696960">
    <ele>3290.0</ele>
    <time>2026-06-23T12:08:51Z</time>
   </trkpt>
   <trkpt lat="-3.1490360" lon="37.3696960">
    <ele>3289.8</ele>
    <time>2026-06-23T12:08:52Z</time>
   </trkpt>
   <trkpt lat="-3.1490390" lon="37.3696960">
    <ele>3289.7</ele>
    <time>2026-06-23T12:08:53Z</time>
   </trkpt>
   <trkpt lat="-3.1490460" lon="37.3696950">
    <ele>3289.5</ele>
    <time>2026-06-23T12:08:54Z</time>
   </trkpt>
   <trkpt lat="-3.1490450" lon="37.3696990">
    <ele>3289.4</ele>
    <time>2026-06-23T12:08:55Z</time>
   </trkpt>
   <trkpt lat="-3.1490490" lon="37.3696950">
    <ele>3289.2</ele>
    <time>2026-06-23T12:08:56Z</time>
   </trkpt>
   <trkpt lat="-3.1490520" lon="37.3696900">
    <ele>3289.1</ele>
    <time>2026-06-23T12:08:57Z</time>
   </trkpt>
   <trkpt lat="-3.1490570" lon="37.3696900">
    <ele>3288.9</ele>
    <time>2026-06-23T12:08:58Z</time>
   </trkpt>
   <trkpt lat="-3.1490610" lon="37.3696920">
    <ele>3288.8</ele>
    <time>2026-06-23T12:08:59Z</time>
   </trkpt>
   <trkpt lat="-3.1490680" lon="37.3696920">
    <ele>3288.6</ele>
    <time>2026-06-23T12:09:00Z</time>
   </trkpt>
   <trkpt lat="-3.1490740" lon="37.3696910">
    <ele>3288.4</ele>
    <time>2026-06-23T12:09:01Z</time>
   </trkpt>
   <trkpt lat="-3.1490820" lon="37.3696880">
    <ele>3288.1</ele>
    <time>2026-06-23T12:09:02Z</time>
   </trkpt>
   <trkpt lat="-3.1490870" lon="37.3696850">
    <ele>3287.9</ele>
    <time>2026-06-23T12:09:03Z</time>
   </trkpt>
   <trkpt lat="-3.1490930" lon="37.3696810">
    <ele>3287.7</ele>
    <time>2026-06-23T12:09:04Z</time>
   </trkpt>
   <trkpt lat="-3.1490950" lon="37.3696850">
    <ele>3287.6</ele>
    <time>2026-06-23T12:09:05Z</time>
   </trkpt>
   <trkpt lat="-3.1490960" lon="37.3696860">
    <ele>3287.5</ele>
    <time>2026-06-23T12:09:06Z</time>
   </trkpt>
   <trkpt lat="-3.1491020" lon="37.3696800">
    <ele>3287.3</ele>
    <time>2026-06-23T12:09:07Z</time>
   </trkpt>
   <trkpt lat="-3.1491110" lon="37.3696750">
    <ele>3287.0</ele>
    <time>2026-06-23T12:09:08Z</time>
   </trkpt>
   <trkpt lat="-3.1491180" lon="37.3696670">
    <ele>3286.6</ele>
    <time>2026-06-23T12:09:09Z</time>
   </trkpt>
   <trkpt lat="-3.1491200" lon="37.3696670">
    <ele>3286.6</ele>
    <time>2026-06-23T12:09:10Z</time>
   </trkpt>
   <trkpt lat="-3.1491250" lon="37.3696660">
    <ele>3286.4</ele>
    <time>2026-06-23T12:09:11Z</time>
   </trkpt>
   <trkpt lat="-3.1491260" lon="37.3696620">
    <ele>3286.3</ele>
    <time>2026-06-23T12:09:12Z</time>
   </trkpt>
   <trkpt lat="-3.1491280" lon="37.3696550">
    <ele>3286.1</ele>
    <time>2026-06-23T12:09:13Z</time>
   </trkpt>
   <trkpt lat="-3.1491310" lon="37.3696480">
    <ele>3285.8</ele>
    <time>2026-06-23T12:09:14Z</time>
   </trkpt>
   <trkpt lat="-3.1491330" lon="37.3696470">
    <ele>3285.8</ele>
    <time>2026-06-23T12:09:15Z</time>
   </trkpt>
   <trkpt lat="-3.1491370" lon="37.3696460">
    <ele>3285.6</ele>
    <time>2026-06-23T12:09:16Z</time>
   </trkpt>
   <trkpt lat="-3.1491440" lon="37.3696440">
    <ele>3285.4</ele>
    <time>2026-06-23T12:09:17Z</time>
   </trkpt>
   <trkpt lat="-3.1491510" lon="37.3696390">
    <ele>3285.1</ele>
    <time>2026-06-23T12:09:18Z</time>
   </trkpt>
   <trkpt lat="-3.1491550" lon="37.3696330">
    <ele>3284.9</ele>
    <time>2026-06-23T12:09:19Z</time>
   </trkpt>
   <trkpt lat="-3.1491580" lon="37.3696260">
    <ele>3284.7</ele>
    <time>2026-06-23T12:09:20Z</time>
   </trkpt>
   <trkpt lat="-3.1491600" lon="37.3696240">
    <ele>3284.6</ele>
    <time>2026-06-23T12:09:21Z</time>
   </trkpt>
   <trkpt lat="-3.1491650" lon="37.3696200">
    <ele>3284.4</ele>
    <time>2026-06-23T12:09:22Z</time>
   </trkpt>
   <trkpt lat="-3.1491660" lon="37.3696220">
    <ele>3284.3</ele>
    <time>2026-06-23T12:09:23Z</time>
   </trkpt>
   <trkpt lat="-3.1491730" lon="37.3696230">
    <ele>3284.1</ele>
    <time>2026-06-23T12:09:24Z</time>
   </trkpt>
   <trkpt lat="-3.1491790" lon="37.3696260">
    <ele>3283.9</ele>
    <time>2026-06-23T12:09:25Z</time>
   </trkpt>
   <trkpt lat="-3.1491840" lon="37.3696280">
    <ele>3283.7</ele>
    <time>2026-06-23T12:09:26Z</time>
   </trkpt>
   <trkpt lat="-3.1491910" lon="37.3696300">
    <ele>3283.5</ele>
    <time>2026-06-23T12:09:27Z</time>
   </trkpt>
   <trkpt lat="-3.1491950" lon="37.3696270">
    <ele>3283.3</ele>
    <time>2026-06-23T12:09:28Z</time>
   </trkpt>
   <trkpt lat="-3.1491960" lon="37.3696270">
    <ele>3283.3</ele>
    <time>2026-06-23T12:09:29Z</time>
   </trkpt>
   <trkpt lat="-3.1492000" lon="37.3696250">
    <ele>3283.2</ele>
    <time>2026-06-23T12:09:30Z</time>
   </trkpt>
   <trkpt lat="-3.1492100" lon="37.3696250">
    <ele>3282.8</ele>
    <time>2026-06-23T12:09:31Z</time>
   </trkpt>
   <trkpt lat="-3.1492080" lon="37.3696260">
    <ele>3282.8</ele>
    <time>2026-06-23T12:09:32Z</time>
   </trkpt>
   <trkpt lat="-3.1492150" lon="37.3696240">
    <ele>3282.5</ele>
    <time>2026-06-23T12:09:33Z</time>
   </trkpt>
   <trkpt lat="-3.1492200" lon="37.3696220">
    <ele>3282.4</ele>
    <time>2026-06-23T12:09:34Z</time>
   </trkpt>
   <trkpt lat="-3.1492230" lon="37.3696230">
    <ele>3282.3</ele>
    <time>2026-06-23T12:09:35Z</time>
   </trkpt>
   <trkpt lat="-3.1492270" lon="37.3696130">
    <ele>3281.9</ele>
    <time>2026-06-23T12:09:36Z</time>
   </trkpt>
   <trkpt lat="-3.1492300" lon="37.3696090">
    <ele>3281.8</ele>
    <time>2026-06-23T12:09:37Z</time>
   </trkpt>
   <trkpt lat="-3.1492340" lon="37.3696050">
    <ele>3281.6</ele>
    <time>2026-06-23T12:09:38Z</time>
   </trkpt>
   <trkpt lat="-3.1492400" lon="37.3696030">
    <ele>3281.4</ele>
    <time>2026-06-23T12:09:39Z</time>
   </trkpt>
   <trkpt lat="-3.1492440" lon="37.3696020">
    <ele>3281.3</ele>
    <time>2026-06-23T12:09:40Z</time>
   </trkpt>
   <trkpt lat="-3.1492500" lon="37.3696000">
    <ele>3281.1</ele>
    <time>2026-06-23T12:09:41Z</time>
   </trkpt>
   <trkpt lat="-3.1492510" lon="37.3696010">
    <ele>3281.0</ele>
    <time>2026-06-23T12:09:42Z</time>
   </trkpt>
   <trkpt lat="-3.1492590" lon="37.3695990">
    <ele>3280.8</ele>
    <time>2026-06-23T12:09:43Z</time>
   </trkpt>
   <trkpt lat="-3.1492670" lon="37.3695990">
    <ele>3280.5</ele>
    <time>2026-06-23T12:09:44Z</time>
   </trkpt>
   <trkpt lat="-3.1492750" lon="37.3695970">
    <ele>3280.3</ele>
    <time>2026-06-23T12:09:45Z</time>
   </trkpt>
   <trkpt lat="-3.1492820" lon="37.3695980">
    <ele>3280.0</ele>
    <time>2026-06-23T12:09:46Z</time>
   </trkpt>
   <trkpt lat="-3.1492890" lon="37.3695970">
    <ele>3279.8</ele>
    <time>2026-06-23T12:09:47Z</time>
   </trkpt>
   <trkpt lat="-3.1492950" lon="37.3695970">
    <ele>3279.6</ele>
    <time>2026-06-23T12:09:48Z</time>
   </trkpt>
   <trkpt lat="-3.1493000" lon="37.3695940">
    <ele>3279.5</ele>
    <time>2026-06-23T12:09:49Z</time>
   </trkpt>
   <trkpt lat="-3.1493040" lon="37.3695890">
    <ele>3279.3</ele>
    <time>2026-06-23T12:09:50Z</time>
   </trkpt>
   <trkpt lat="-3.1493050" lon="37.3695800">
    <ele>3279.0</ele>
    <time>2026-06-23T12:09:51Z</time>
   </trkpt>
   <trkpt lat="-3.1493070" lon="37.3695790">
    <ele>3278.9</ele>
    <time>2026-06-23T12:09:52Z</time>
   </trkpt>
   <trkpt lat="-3.1493160" lon="37.3695720">
    <ele>3278.6</ele>
    <time>2026-06-23T12:09:53Z</time>
   </trkpt>
   <trkpt lat="-3.1493200" lon="37.3695690">
    <ele>3278.5</ele>
    <time>2026-06-23T12:09:54Z</time>
   </trkpt>
   <trkpt lat="-3.1493270" lon="37.3695660">
    <ele>3278.2</ele>
    <time>2026-06-23T12:09:55Z</time>
   </trkpt>
   <trkpt lat="-3.1493310" lon="37.3695620">
    <ele>3278.1</ele>
    <time>2026-06-23T12:09:56Z</time>
   </trkpt>
   <trkpt lat="-3.1493330" lon="37.3695610">
    <ele>3278.0</ele>
    <time>2026-06-23T12:09:57Z</time>
   </trkpt>
   <trkpt lat="-3.1493400" lon="37.3695590">
    <ele>3277.8</ele>
    <time>2026-06-23T12:09:58Z</time>
   </trkpt>
   <trkpt lat="-3.1493450" lon="37.3695570">
    <ele>3277.6</ele>
    <time>2026-06-23T12:09:59Z</time>
   </trkpt>
   <trkpt lat="-3.1493520" lon="37.3695540">
    <ele>3277.4</ele>
    <time>2026-06-23T12:10:00Z</time>
   </trkpt>
   <trkpt lat="-3.1493560" lon="37.3695540">
    <ele>3277.3</ele>
    <time>2026-06-23T12:10:01Z</time>
   </trkpt>
   <trkpt lat="-3.1493640" lon="37.3695550">
    <ele>3277.0</ele>
    <time>2026-06-23T12:10:02Z</time>
   </trkpt>
   <trkpt lat="-3.1493730" lon="37.3695540">
    <ele>3276.8</ele>
    <time>2026-06-23T12:10:03Z</time>
   </trkpt>
   <trkpt lat="-3.1493750" lon="37.3695530">
    <ele>3276.7</ele>
    <time>2026-06-23T12:10:04Z</time>
   </trkpt>
   <trkpt lat="-3.1493820" lon="37.3695480">
    <ele>3276.5</ele>
    <time>2026-06-23T12:10:05Z</time>
   </trkpt>
   <trkpt lat="-3.1493820" lon="37.3695420">
    <ele>3276.3</ele>
    <time>2026-06-23T12:10:06Z</time>
   </trkpt>
   <trkpt lat="-3.1493850" lon="37.3695360">
    <ele>3276.1</ele>
    <time>2026-06-23T12:10:07Z</time>
   </trkpt>
   <trkpt lat="-3.1493860" lon="37.3695300">
    <ele>3275.9</ele>
    <time>2026-06-23T12:10:08Z</time>
   </trkpt>
   <trkpt lat="-3.1493900" lon="37.3695270">
    <ele>3275.8</ele>
    <time>2026-06-23T12:10:09Z</time>
   </trkpt>
   <trkpt lat="-3.1493960" lon="37.3695300">
    <ele>3275.6</ele>
    <time>2026-06-23T12:10:10Z</time>
   </trkpt>
   <trkpt lat="-3.1493990" lon="37.3695310">
    <ele>3275.5</ele>
    <time>2026-06-23T12:10:11Z</time>
   </trkpt>
   <trkpt lat="-3.1494040" lon="37.3695250">
    <ele>3275.2</ele>
    <time>2026-06-23T12:10:12Z</time>
   </trkpt>
   <trkpt lat="-3.1494120" lon="37.3695200">
    <ele>3275.0</ele>
    <time>2026-06-23T12:10:13Z</time>
   </trkpt>
   <trkpt lat="-3.1494140" lon="37.3695220">
    <ele>3274.9</ele>
    <time>2026-06-23T12:10:14Z</time>
   </trkpt>
   <trkpt lat="-3.1494190" lon="37.3695180">
    <ele>3274.7</ele>
    <time>2026-06-23T12:10:15Z</time>
   </trkpt>
   <trkpt lat="-3.1494230" lon="37.3695150">
    <ele>3274.6</ele>
    <time>2026-06-23T12:10:16Z</time>
   </trkpt>
   <trkpt lat="-3.1494290" lon="37.3695100">
    <ele>3274.3</ele>
    <time>2026-06-23T12:10:17Z</time>
   </trkpt>
   <trkpt lat="-3.1494370" lon="37.3695040">
    <ele>3274.0</ele>
    <time>2026-06-23T12:10:18Z</time>
   </trkpt>
   <trkpt lat="-3.1494400" lon="37.3695020">
    <ele>3273.9</ele>
    <time>2026-06-23T12:10:19Z</time>
   </trkpt>
   <trkpt lat="-3.1494450" lon="37.3694980">
    <ele>3273.8</ele>
    <time>2026-06-23T12:10:20Z</time>
   </trkpt>
   <trkpt lat="-3.1494550" lon="37.3694910">
    <ele>3273.4</ele>
    <time>2026-06-23T12:10:21Z</time>
   </trkpt>
   <trkpt lat="-3.1494570" lon="37.3694900">
    <ele>3273.4</ele>
    <time>2026-06-23T12:10:22Z</time>
   </trkpt>
   <trkpt lat="-3.1494600" lon="37.3694850">
    <ele>3273.2</ele>
    <time>2026-06-23T12:10:23Z</time>
   </trkpt>
   <trkpt lat="-3.1494660" lon="37.3694810">
    <ele>3273.0</ele>
    <time>2026-06-23T12:10:24Z</time>
   </trkpt>
   <trkpt lat="-3.1494680" lon="37.3694810">
    <ele>3272.9</ele>
    <time>2026-06-23T12:10:25Z</time>
   </trkpt>
   <trkpt lat="-3.1494710" lon="37.3694810">
    <ele>3272.9</ele>
    <time>2026-06-23T12:10:26Z</time>
   </trkpt>
   <trkpt lat="-3.1494690" lon="37.3694800">
    <ele>3272.8</ele>
    <time>2026-06-23T12:10:27Z</time>
   </trkpt>
   <trkpt lat="-3.1494720" lon="37.3694740">
    <ele>3272.6</ele>
    <time>2026-06-23T12:10:28Z</time>
   </trkpt>
   <trkpt lat="-3.1494760" lon="37.3694700">
    <ele>3272.5</ele>
    <time>2026-06-23T12:10:29Z</time>
   </trkpt>
   <trkpt lat="-3.1494870" lon="37.3694710">
    <ele>3272.1</ele>
    <time>2026-06-23T12:10:30Z</time>
   </trkpt>
   <trkpt lat="-3.1494940" lon="37.3694710">
    <ele>3272.0</ele>
    <time>2026-06-23T12:10:31Z</time>
   </trkpt>
   <trkpt lat="-3.1495000" lon="37.3694720">
    <ele>3271.8</ele>
    <time>2026-06-23T12:10:32Z</time>
   </trkpt>
   <trkpt lat="-3.1495020" lon="37.3694700">
    <ele>3271.7</ele>
    <time>2026-06-23T12:10:33Z</time>
   </trkpt>
   <trkpt lat="-3.1495060" lon="37.3694670">
    <ele>3271.6</ele>
    <time>2026-06-23T12:10:34Z</time>
   </trkpt>
   <trkpt lat="-3.1495100" lon="37.3694660">
    <ele>3271.5</ele>
    <time>2026-06-23T12:10:35Z</time>
   </trkpt>
   <trkpt lat="-3.1495130" lon="37.3694650">
    <ele>3271.4</ele>
    <time>2026-06-23T12:10:36Z</time>
   </trkpt>
   <trkpt lat="-3.1495210" lon="37.3694630">
    <ele>3271.1</ele>
    <time>2026-06-23T12:10:37Z</time>
   </trkpt>
   <trkpt lat="-3.1495220" lon="37.3694620">
    <ele>3271.1</ele>
    <time>2026-06-23T12:10:38Z</time>
   </trkpt>
   <trkpt lat="-3.1495240" lon="37.3694580">
    <ele>3271.0</ele>
    <time>2026-06-23T12:10:39Z</time>
   </trkpt>
   <trkpt lat="-3.1495280" lon="37.3694560">
    <ele>3270.9</ele>
    <time>2026-06-23T12:10:40Z</time>
   </trkpt>
   <trkpt lat="-3.1495350" lon="37.3694550">
    <ele>3270.7</ele>
    <time>2026-06-23T12:10:41Z</time>
   </trkpt>
   <trkpt lat="-3.1495430" lon="37.3694530">
    <ele>3270.4</ele>
    <time>2026-06-23T12:10:42Z</time>
   </trkpt>
   <trkpt lat="-3.1495480" lon="37.3694520">
    <ele>3270.3</ele>
    <time>2026-06-23T12:10:43Z</time>
   </trkpt>
   <trkpt lat="-3.1495540" lon="37.3694520">
    <ele>3270.1</ele>
    <time>2026-06-23T12:10:44Z</time>
   </trkpt>
   <trkpt lat="-3.1495590" lon="37.3694500">
    <ele>3270.0</ele>
    <time>2026-06-23T12:10:45Z</time>
   </trkpt>
   <trkpt lat="-3.1495600" lon="37.3694460">
    <ele>3269.9</ele>
    <time>2026-06-23T12:10:46Z</time>
   </trkpt>
   <trkpt lat="-3.1495630" lon="37.3694370">
    <ele>3269.6</ele>
    <time>2026-06-23T12:10:47Z</time>
   </trkpt>
   <trkpt lat="-3.1495690" lon="37.3694330">
    <ele>3269.4</ele>
    <time>2026-06-23T12:10:48Z</time>
   </trkpt>
   <trkpt lat="-3.1495760" lon="37.3694310">
    <ele>3269.2</ele>
    <time>2026-06-23T12:10:49Z</time>
   </trkpt>
   <trkpt lat="-3.1495810" lon="37.3694330">
    <ele>3269.1</ele>
    <time>2026-06-23T12:10:50Z</time>
   </trkpt>
   <trkpt lat="-3.1495840" lon="37.3694310">
    <ele>3269.0</ele>
    <time>2026-06-23T12:10:51Z</time>
   </trkpt>
   <trkpt lat="-3.1495920" lon="37.3694270">
    <ele>3268.7</ele>
    <time>2026-06-23T12:10:52Z</time>
   </trkpt>
   <trkpt lat="-3.1495990" lon="37.3694190">
    <ele>3268.4</ele>
    <time>2026-06-23T12:10:53Z</time>
   </trkpt>
   <trkpt lat="-3.1495980" lon="37.3694180">
    <ele>3268.4</ele>
    <time>2026-06-23T12:10:54Z</time>
   </trkpt>
   <trkpt lat="-3.1496030" lon="37.3694140">
    <ele>3268.2</ele>
    <time>2026-06-23T12:10:55Z</time>
   </trkpt>
   <trkpt lat="-3.1496140" lon="37.3694070">
    <ele>3267.9</ele>
    <time>2026-06-23T12:10:56Z</time>
   </trkpt>
   <trkpt lat="-3.1496220" lon="37.3694030">
    <ele>3267.6</ele>
    <time>2026-06-23T12:10:57Z</time>
   </trkpt>
   <trkpt lat="-3.1496260" lon="37.3693980">
    <ele>3267.5</ele>
    <time>2026-06-23T12:10:58Z</time>
   </trkpt>
   <trkpt lat="-3.1496250" lon="37.3693910">
    <ele>3267.3</ele>
    <time>2026-06-23T12:10:59Z</time>
   </trkpt>
   <trkpt lat="-3.1496200" lon="37.3693820">
    <ele>3267.0</ele>
    <time>2026-06-23T12:11:00Z</time>
   </trkpt>
   <trkpt lat="-3.1496190" lon="37.3693740">
    <ele>3266.8</ele>
    <time>2026-06-23T12:11:01Z</time>
   </trkpt>
   <trkpt lat="-3.1496220" lon="37.3693690">
    <ele>3266.6</ele>
    <time>2026-06-23T12:11:02Z</time>
   </trkpt>
   <trkpt lat="-3.1496270" lon="37.3693650">
    <ele>3266.4</ele>
    <time>2026-06-23T12:11:03Z</time>
   </trkpt>
   <trkpt lat="-3.1496310" lon="37.3693640">
    <ele>3266.3</ele>
    <time>2026-06-23T12:11:04Z</time>
   </trkpt>
   <trkpt lat="-3.1496350" lon="37.3693660">
    <ele>3266.2</ele>
    <time>2026-06-23T12:11:05Z</time>
   </trkpt>
   <trkpt lat="-3.1496420" lon="37.3693670">
    <ele>3266.0</ele>
    <time>2026-06-23T12:11:06Z</time>
   </trkpt>
   <trkpt lat="-3.1496500" lon="37.3693650">
    <ele>3265.8</ele>
    <time>2026-06-23T12:11:07Z</time>
   </trkpt>
   <trkpt lat="-3.1496560" lon="37.3693670">
    <ele>3265.6</ele>
    <time>2026-06-23T12:11:08Z</time>
   </trkpt>
   <trkpt lat="-3.1496640" lon="37.3693660">
    <ele>3265.4</ele>
    <time>2026-06-23T12:11:09Z</time>
   </trkpt>
   <trkpt lat="-3.1496690" lon="37.3693650">
    <ele>3265.3</ele>
    <time>2026-06-23T12:11:10Z</time>
   </trkpt>
   <trkpt lat="-3.1496730" lon="37.3693610">
    <ele>3265.1</ele>
    <time>2026-06-23T12:11:11Z</time>
   </trkpt>
   <trkpt lat="-3.1496770" lon="37.3693650">
    <ele>3265.0</ele>
    <time>2026-06-23T12:11:12Z</time>
   </trkpt>
   <trkpt lat="-3.1496810" lon="37.3693620">
    <ele>3264.8</ele>
    <time>2026-06-23T12:11:13Z</time>
   </trkpt>
   <trkpt lat="-3.1496850" lon="37.3693550">
    <ele>3264.6</ele>
    <time>2026-06-23T12:11:14Z</time>
   </trkpt>
   <trkpt lat="-3.1496880" lon="37.3693490">
    <ele>3264.4</ele>
    <time>2026-06-23T12:11:15Z</time>
   </trkpt>
   <trkpt lat="-3.1496910" lon="37.3693450">
    <ele>3264.3</ele>
    <time>2026-06-23T12:11:16Z</time>
   </trkpt>
   <trkpt lat="-3.1496960" lon="37.3693420">
    <ele>3264.1</ele>
    <time>2026-06-23T12:11:17Z</time>
   </trkpt>
   <trkpt lat="-3.1497050" lon="37.3693380">
    <ele>3263.9</ele>
    <time>2026-06-23T12:11:18Z</time>
   </trkpt>
   <trkpt lat="-3.1497130" lon="37.3693360">
    <ele>3263.7</ele>
    <time>2026-06-23T12:11:19Z</time>
   </trkpt>
   <trkpt lat="-3.1497170" lon="37.3693350">
    <ele>3263.5</ele>
    <time>2026-06-23T12:11:20Z</time>
   </trkpt>
   <trkpt lat="-3.1497190" lon="37.3693300">
    <ele>3263.4</ele>
    <time>2026-06-23T12:11:21Z</time>
   </trkpt>
   <trkpt lat="-3.1497220" lon="37.3693240">
    <ele>3263.2</ele>
    <time>2026-06-23T12:11:22Z</time>
   </trkpt>
   <trkpt lat="-3.1497260" lon="37.3693160">
    <ele>3263.0</ele>
    <time>2026-06-23T12:11:23Z</time>
   </trkpt>
   <trkpt lat="-3.1497320" lon="37.3693100">
    <ele>3262.7</ele>
    <time>2026-06-23T12:11:24Z</time>
   </trkpt>
   <trkpt lat="-3.1497360" lon="37.3693100">
    <ele>3262.6</ele>
    <time>2026-06-23T12:11:25Z</time>
   </trkpt>
   <trkpt lat="-3.1497460" lon="37.3693020">
    <ele>3262.3</ele>
    <time>2026-06-23T12:11:26Z</time>
   </trkpt>
   <trkpt lat="-3.1497510" lon="37.3693000">
    <ele>3262.1</ele>
    <time>2026-06-23T12:11:27Z</time>
   </trkpt>
   <trkpt lat="-3.1497510" lon="37.3693030">
    <ele>3262.1</ele>
    <time>2026-06-23T12:11:28Z</time>
   </trkpt>
   <trkpt lat="-3.1497580" lon="37.3693020">
    <ele>3261.9</ele>
    <time>2026-06-23T12:11:29Z</time>
   </trkpt>
   <trkpt lat="-3.1497650" lon="37.3693000">
    <ele>3261.7</ele>
    <time>2026-06-23T12:11:30Z</time>
   </trkpt>
   <trkpt lat="-3.1497690" lon="37.3692960">
    <ele>3261.5</ele>
    <time>2026-06-23T12:11:31Z</time>
   </trkpt>
   <trkpt lat="-3.1497720" lon="37.3692930">
    <ele>3261.4</ele>
    <time>2026-06-23T12:11:32Z</time>
   </trkpt>
   <trkpt lat="-3.1497790" lon="37.3692890">
    <ele>3261.2</ele>
    <time>2026-06-23T12:11:33Z</time>
   </trkpt>
   <trkpt lat="-3.1497850" lon="37.3692850">
    <ele>3261.0</ele>
    <time>2026-06-23T12:11:34Z</time>
   </trkpt>
   <trkpt lat="-3.1497910" lon="37.3692830">
    <ele>3260.8</ele>
    <time>2026-06-23T12:11:35Z</time>
   </trkpt>
   <trkpt lat="-3.1497960" lon="37.3692830">
    <ele>3260.7</ele>
    <time>2026-06-23T12:11:36Z</time>
   </trkpt>
   <trkpt lat="-3.1498030" lon="37.3692820">
    <ele>3260.5</ele>
    <time>2026-06-23T12:11:37Z</time>
   </trkpt>
   <trkpt lat="-3.1498080" lon="37.3692830">
    <ele>3260.4</ele>
    <time>2026-06-23T12:11:38Z</time>
   </trkpt>
   <trkpt lat="-3.1498100" lon="37.3692820">
    <ele>3260.3</ele>
    <time>2026-06-23T12:11:39Z</time>
   </trkpt>
   <trkpt lat="-3.1498120" lon="37.3692810">
    <ele>3260.3</ele>
    <time>2026-06-23T12:11:40Z</time>
   </trkpt>
   <trkpt lat="-3.1498180" lon="37.3692810">
    <ele>3260.1</ele>
    <time>2026-06-23T12:11:41Z</time>
   </trkpt>
   <trkpt lat="-3.1498260" lon="37.3692790">
    <ele>3259.9</ele>
    <time>2026-06-23T12:11:42Z</time>
   </trkpt>
   <trkpt lat="-3.1498330" lon="37.3692780">
    <ele>3259.7</ele>
    <time>2026-06-23T12:11:43Z</time>
   </trkpt>
   <trkpt lat="-3.1498390" lon="37.3692760">
    <ele>3259.6</ele>
    <time>2026-06-23T12:11:44Z</time>
   </trkpt>
   <trkpt lat="-3.1498440" lon="37.3692770">
    <ele>3259.4</ele>
    <time>2026-06-23T12:11:45Z</time>
   </trkpt>
   <trkpt lat="-3.1498490" lon="37.3692730">
    <ele>3259.3</ele>
    <time>2026-06-23T12:11:46Z</time>
   </trkpt>
   <trkpt lat="-3.1498550" lon="37.3692700">
    <ele>3259.1</ele>
    <time>2026-06-23T12:11:47Z</time>
   </trkpt>
   <trkpt lat="-3.1498590" lon="37.3692670">
    <ele>3259.0</ele>
    <time>2026-06-23T12:11:48Z</time>
   </trkpt>
   <trkpt lat="-3.1498710" lon="37.3692620">
    <ele>3258.6</ele>
    <time>2026-06-23T12:11:49Z</time>
   </trkpt>
   <trkpt lat="-3.1498750" lon="37.3692570">
    <ele>3258.5</ele>
    <time>2026-06-23T12:11:50Z</time>
   </trkpt>
   <trkpt lat="-3.1498810" lon="37.3692550">
    <ele>3258.3</ele>
    <time>2026-06-23T12:11:51Z</time>
   </trkpt>
   <trkpt lat="-3.1498840" lon="37.3692530">
    <ele>3258.2</ele>
    <time>2026-06-23T12:11:52Z</time>
   </trkpt>
   <trkpt lat="-3.1498870" lon="37.3692500">
    <ele>3258.1</ele>
    <time>2026-06-23T12:11:53Z</time>
   </trkpt>
   <trkpt lat="-3.1498940" lon="37.3692490">
    <ele>3257.9</ele>
    <time>2026-06-23T12:11:54Z</time>
   </trkpt>
   <trkpt lat="-3.1499010" lon="37.3692440">
    <ele>3257.7</ele>
    <time>2026-06-23T12:11:55Z</time>
   </trkpt>
   <trkpt lat="-3.1499040" lon="37.3692400">
    <ele>3257.6</ele>
    <time>2026-06-23T12:11:56Z</time>
   </trkpt>
   <trkpt lat="-3.1499140" lon="37.3692350">
    <ele>3257.3</ele>
    <time>2026-06-23T12:11:57Z</time>
   </trkpt>
   <trkpt lat="-3.1499190" lon="37.3692300">
    <ele>3257.1</ele>
    <time>2026-06-23T12:11:58Z</time>
   </trkpt>
   <trkpt lat="-3.1499250" lon="37.3692270">
    <ele>3257.0</ele>
    <time>2026-06-23T12:11:59Z</time>
   </trkpt>
   <trkpt lat="-3.1499290" lon="37.3692230">
    <ele>3256.9</ele>
    <time>2026-06-23T12:12:00Z</time>
   </trkpt>
   <trkpt lat="-3.1499370" lon="37.3692170">
    <ele>3256.6</ele>
    <time>2026-06-23T12:12:01Z</time>
   </trkpt>
   <trkpt lat="-3.1499400" lon="37.3692160">
    <ele>3256.6</ele>
    <time>2026-06-23T12:12:02Z</time>
   </trkpt>
   <trkpt lat="-3.1499430" lon="37.3692130">
    <ele>3256.5</ele>
    <time>2026-06-23T12:12:03Z</time>
   </trkpt>
   <trkpt lat="-3.1499440" lon="37.3692120">
    <ele>3256.4</ele>
    <time>2026-06-23T12:12:04Z</time>
   </trkpt>
   <trkpt lat="-3.1499520" lon="37.3692080">
    <ele>3256.2</ele>
    <time>2026-06-23T12:12:05Z</time>
   </trkpt>
   <trkpt lat="-3.1499570" lon="37.3692100">
    <ele>3256.1</ele>
    <time>2026-06-23T12:12:06Z</time>
   </trkpt>
   <trkpt lat="-3.1499610" lon="37.3692090">
    <ele>3256.0</ele>
    <time>2026-06-23T12:12:07Z</time>
   </trkpt>
   <trkpt lat="-3.1499700" lon="37.3692140">
    <ele>3255.8</ele>
    <time>2026-06-23T12:12:08Z</time>
   </trkpt>
   <trkpt lat="-3.1499770" lon="37.3692190">
    <ele>3255.6</ele>
    <time>2026-06-23T12:12:09Z</time>
   </trkpt>
   <trkpt lat="-3.1499810" lon="37.3692290">
    <ele>3255.3</ele>
    <time>2026-06-23T12:12:10Z</time>
   </trkpt>
   <trkpt lat="-3.1499900" lon="37.3692310">
    <ele>3255.1</ele>
    <time>2026-06-23T12:12:11Z</time>
   </trkpt>
   <trkpt lat="-3.1499980" lon="37.3692340">
    <ele>3254.9</ele>
    <time>2026-06-23T12:12:12Z</time>
   </trkpt>
   <trkpt lat="-3.1500030" lon="37.3692360">
    <ele>3254.8</ele>
    <time>2026-06-23T12:12:13Z</time>
   </trkpt>
   <trkpt lat="-3.1500100" lon="37.3692410">
    <ele>3254.6</ele>
    <time>2026-06-23T12:12:14Z</time>
   </trkpt>
   <trkpt lat="-3.1500190" lon="37.3692430">
    <ele>3254.4</ele>
    <time>2026-06-23T12:12:15Z</time>
   </trkpt>
   <trkpt lat="-3.1500240" lon="37.3692430">
    <ele>3254.3</ele>
    <time>2026-06-23T12:12:16Z</time>
   </trkpt>
   <trkpt lat="-3.1500350" lon="37.3692450">
    <ele>3254.1</ele>
    <time>2026-06-23T12:12:17Z</time>
   </trkpt>
   <trkpt lat="-3.1500410" lon="37.3692470">
    <ele>3253.9</ele>
    <time>2026-06-23T12:12:18Z</time>
   </trkpt>
   <trkpt lat="-3.1500470" lon="37.3692490">
    <ele>3253.8</ele>
    <time>2026-06-23T12:12:19Z</time>
   </trkpt>
   <trkpt lat="-3.1500540" lon="37.3692490">
    <ele>3253.7</ele>
    <time>2026-06-23T12:12:20Z</time>
   </trkpt>
   <trkpt lat="-3.1500590" lon="37.3692480">
    <ele>3253.5</ele>
    <time>2026-06-23T12:12:21Z</time>
   </trkpt>
   <trkpt lat="-3.1500650" lon="37.3692460">
    <ele>3253.4</ele>
    <time>2026-06-23T12:12:22Z</time>
   </trkpt>
   <trkpt lat="-3.1500730" lon="37.3692460">
    <ele>3253.2</ele>
    <time>2026-06-23T12:12:23Z</time>
   </trkpt>
   <trkpt lat="-3.1500790" lon="37.3692480">
    <ele>3253.1</ele>
    <time>2026-06-23T12:12:24Z</time>
   </trkpt>
   <trkpt lat="-3.1500850" lon="37.3692500">
    <ele>3253.0</ele>
    <time>2026-06-23T12:12:25Z</time>
   </trkpt>
   <trkpt lat="-3.1500870" lon="37.3692510">
    <ele>3252.9</ele>
    <time>2026-06-23T12:12:26Z</time>
   </trkpt>
   <trkpt lat="-3.1500960" lon="37.3692530">
    <ele>3252.7</ele>
    <time>2026-06-23T12:12:27Z</time>
   </trkpt>
   <trkpt lat="-3.1501030" lon="37.3692520">
    <ele>3252.6</ele>
    <time>2026-06-23T12:12:28Z</time>
   </trkpt>
   <trkpt lat="-3.1501100" lon="37.3692510">
    <ele>3252.4</ele>
    <time>2026-06-23T12:12:29Z</time>
   </trkpt>
   <trkpt lat="-3.1501190" lon="37.3692460">
    <ele>3252.2</ele>
    <time>2026-06-23T12:12:30Z</time>
   </trkpt>
   <trkpt lat="-3.1501260" lon="37.3692440">
    <ele>3252.0</ele>
    <time>2026-06-23T12:12:31Z</time>
   </trkpt>
   <trkpt lat="-3.1501340" lon="37.3692400">
    <ele>3251.8</ele>
    <time>2026-06-23T12:12:32Z</time>
   </trkpt>
   <trkpt lat="-3.1501380" lon="37.3692420">
    <ele>3251.7</ele>
    <time>2026-06-23T12:12:33Z</time>
   </trkpt>
   <trkpt lat="-3.1501470" lon="37.3692400">
    <ele>3251.5</ele>
    <time>2026-06-23T12:12:34Z</time>
   </trkpt>
   <trkpt lat="-3.1501510" lon="37.3692390">
    <ele>3251.4</ele>
    <time>2026-06-23T12:12:35Z</time>
   </trkpt>
   <trkpt lat="-3.1501530" lon="37.3692420">
    <ele>3251.4</ele>
    <time>2026-06-23T12:12:36Z</time>
   </trkpt>
   <trkpt lat="-3.1501580" lon="37.3692470">
    <ele>3251.2</ele>
    <time>2026-06-23T12:12:37Z</time>
   </trkpt>
   <trkpt lat="-3.1501610" lon="37.3692530">
    <ele>3251.1</ele>
    <time>2026-06-23T12:12:38Z</time>
   </trkpt>
   <trkpt lat="-3.1501670" lon="37.3692540">
    <ele>3250.9</ele>
    <time>2026-06-23T12:12:39Z</time>
   </trkpt>
   <trkpt lat="-3.1501720" lon="37.3692540">
    <ele>3250.8</ele>
    <time>2026-06-23T12:12:40Z</time>
   </trkpt>
   <trkpt lat="-3.1501820" lon="37.3692570">
    <ele>3250.6</ele>
    <time>2026-06-23T12:12:41Z</time>
   </trkpt>
   <trkpt lat="-3.1501840" lon="37.3692560">
    <ele>3250.6</ele>
    <time>2026-06-23T12:12:42Z</time>
   </trkpt>
   <trkpt lat="-3.1501900" lon="37.3692570">
    <ele>3250.4</ele>
    <time>2026-06-23T12:12:43Z</time>
   </trkpt>
   <trkpt lat="-3.1501970" lon="37.3692540">
    <ele>3250.3</ele>
    <time>2026-06-23T12:12:44Z</time>
   </trkpt>
   <trkpt lat="-3.1502030" lon="37.3692530">
    <ele>3250.1</ele>
    <time>2026-06-23T12:12:45Z</time>
   </trkpt>
   <trkpt lat="-3.1502130" lon="37.3692460">
    <ele>3249.9</ele>
    <time>2026-06-23T12:12:46Z</time>
   </trkpt>
   <trkpt lat="-3.1502170" lon="37.3692380">
    <ele>3249.7</ele>
    <time>2026-06-23T12:12:47Z</time>
   </trkpt>
   <trkpt lat="-3.1502240" lon="37.3692340">
    <ele>3249.5</ele>
    <time>2026-06-23T12:12:48Z</time>
   </trkpt>
   <trkpt lat="-3.1502300" lon="37.3692330">
    <ele>3249.4</ele>
    <time>2026-06-23T12:12:49Z</time>
   </trkpt>
   <trkpt lat="-3.1502400" lon="37.3692330">
    <ele>3249.2</ele>
    <time>2026-06-23T12:12:50Z</time>
   </trkpt>
   <trkpt lat="-3.1502500" lon="37.3692330">
    <ele>3249.0</ele>
    <time>2026-06-23T12:12:51Z</time>
   </trkpt>
   <trkpt lat="-3.1502560" lon="37.3692330">
    <ele>3248.9</ele>
    <time>2026-06-23T12:12:52Z</time>
   </trkpt>
   <trkpt lat="-3.1502630" lon="37.3692340">
    <ele>3248.7</ele>
    <time>2026-06-23T12:12:53Z</time>
   </trkpt>
   <trkpt lat="-3.1502670" lon="37.3692350">
    <ele>3248.6</ele>
    <time>2026-06-23T12:12:54Z</time>
   </trkpt>
   <trkpt lat="-3.1502660" lon="37.3692350">
    <ele>3248.6</ele>
    <time>2026-06-23T12:12:55Z</time>
   </trkpt>
   <trkpt lat="-3.1502810" lon="37.3692410">
    <ele>3248.3</ele>
    <time>2026-06-23T12:12:56Z</time>
   </trkpt>
   <trkpt lat="-3.1502840" lon="37.3692440">
    <ele>3248.2</ele>
    <time>2026-06-23T12:12:57Z</time>
   </trkpt>
   <trkpt lat="-3.1502930" lon="37.3692410">
    <ele>3248.0</ele>
    <time>2026-06-23T12:12:58Z</time>
   </trkpt>
   <trkpt lat="-3.1502990" lon="37.3692390">
    <ele>3247.9</ele>
    <time>2026-06-23T12:12:59Z</time>
   </trkpt>
   <trkpt lat="-3.1503070" lon="37.3692420">
    <ele>3247.7</ele>
    <time>2026-06-23T12:13:00Z</time>
   </trkpt>
   <trkpt lat="-3.1503180" lon="37.3692440">
    <ele>3247.5</ele>
    <time>2026-06-23T12:13:01Z</time>
   </trkpt>
   <trkpt lat="-3.1503260" lon="37.3692450">
    <ele>3247.3</ele>
    <time>2026-06-23T12:13:02Z</time>
   </trkpt>
   <trkpt lat="-3.1503330" lon="37.3692460">
    <ele>3247.2</ele>
    <time>2026-06-23T12:13:03Z</time>
   </trkpt>
   <trkpt lat="-3.1503410" lon="37.3692500">
    <ele>3247.0</ele>
    <time>2026-06-23T12:13:04Z</time>
   </trkpt>
   <trkpt lat="-3.1503500" lon="37.3692500">
    <ele>3246.9</ele>
    <time>2026-06-23T12:13:05Z</time>
   </trkpt>
   <trkpt lat="-3.1503510" lon="37.3692490">
    <ele>3246.8</ele>
    <time>2026-06-23T12:13:06Z</time>
   </trkpt>
   <trkpt lat="-3.1503590" lon="37.3692520">
    <ele>3246.7</ele>
    <time>2026-06-23T12:13:07Z</time>
   </trkpt>
   <trkpt lat="-3.1503630" lon="37.3692530">
    <ele>3246.6</ele>
    <time>2026-06-23T12:13:08Z</time>
   </trkpt>
   <trkpt lat="-3.1503740" lon="37.3692530">
    <ele>3246.4</ele>
    <time>2026-06-23T12:13:09Z</time>
   </trkpt>
   <trkpt lat="-3.1503840" lon="37.3692520">
    <ele>3246.2</ele>
    <time>2026-06-23T12:13:10Z</time>
   </trkpt>
   <trkpt lat="-3.1503920" lon="37.3692500">
    <ele>3246.0</ele>
    <time>2026-06-23T12:13:11Z</time>
   </trkpt>
   <trkpt lat="-3.1504010" lon="37.3692470">
    <ele>3245.8</ele>
    <time>2026-06-23T12:13:12Z</time>
   </trkpt>
   <trkpt lat="-3.1504050" lon="37.3692440">
    <ele>3245.7</ele>
    <time>2026-06-23T12:13:13Z</time>
   </trkpt>
   <trkpt lat="-3.1504080" lon="37.3692440">
    <ele>3245.7</ele>
    <time>2026-06-23T12:13:14Z</time>
   </trkpt>
   <trkpt lat="-3.1504170" lon="37.3692400">
    <ele>3245.5</ele>
    <time>2026-06-23T12:13:15Z</time>
   </trkpt>
   <trkpt lat="-3.1504240" lon="37.3692340">
    <ele>3245.3</ele>
    <time>2026-06-23T12:13:16Z</time>
   </trkpt>
   <trkpt lat="-3.1504280" lon="37.3692320">
    <ele>3245.2</ele>
    <time>2026-06-23T12:13:17Z</time>
   </trkpt>
   <trkpt lat="-3.1504330" lon="37.3692280">
    <ele>3245.1</ele>
    <time>2026-06-23T12:13:18Z</time>
   </trkpt>
   <trkpt lat="-3.1504390" lon="37.3692240">
    <ele>3245.0</ele>
    <time>2026-06-23T12:13:19Z</time>
   </trkpt>
   <trkpt lat="-3.1504460" lon="37.3692210">
    <ele>3244.8</ele>
    <time>2026-06-23T12:13:20Z</time>
   </trkpt>
   <trkpt lat="-3.1504490" lon="37.3692190">
    <ele>3244.8</ele>
    <time>2026-06-23T12:13:21Z</time>
   </trkpt>
   <trkpt lat="-3.1504550" lon="37.3692160">
    <ele>3244.6</ele>
    <time>2026-06-23T12:13:22Z</time>
   </trkpt>
   <trkpt lat="-3.1504650" lon="37.3692130">
    <ele>3244.4</ele>
    <time>2026-06-23T12:13:23Z</time>
   </trkpt>
   <trkpt lat="-3.1504700" lon="37.3692120">
    <ele>3244.3</ele>
    <time>2026-06-23T12:13:24Z</time>
   </trkpt>
   <trkpt lat="-3.1504750" lon="37.3692130">
    <ele>3244.2</ele>
    <time>2026-06-23T12:13:25Z</time>
   </trkpt>
   <trkpt lat="-3.1504790" lon="37.3692160">
    <ele>3244.1</ele>
    <time>2026-06-23T12:13:26Z</time>
   </trkpt>
   <trkpt lat="-3.1504810" lon="37.3692210">
    <ele>3244.0</ele>
    <time>2026-06-23T12:13:27Z</time>
   </trkpt>
   <trkpt lat="-3.1504830" lon="37.3692250">
    <ele>3243.9</ele>
    <time>2026-06-23T12:13:28Z</time>
   </trkpt>
   <trkpt lat="-3.1504860" lon="37.3692280">
    <ele>3243.9</ele>
    <time>2026-06-23T12:13:29Z</time>
   </trkpt>
   <trkpt lat="-3.1504920" lon="37.3692350">
    <ele>3243.7</ele>
    <time>2026-06-23T12:13:30Z</time>
   </trkpt>
   <trkpt lat="-3.1505000" lon="37.3692400">
    <ele>3243.5</ele>
    <time>2026-06-23T12:13:31Z</time>
   </trkpt>
   <trkpt lat="-3.1505040" lon="37.3692430">
    <ele>3243.4</ele>
    <time>2026-06-23T12:13:32Z</time>
   </trkpt>
   <trkpt lat="-3.1505080" lon="37.3692460">
    <ele>3243.3</ele>
    <time>2026-06-23T12:13:33Z</time>
   </trkpt>
   <trkpt lat="-3.1505080" lon="37.3692450">
    <ele>3243.2</ele>
    <time>2026-06-23T12:13:34Z</time>
   </trkpt>
   <trkpt lat="-3.1505130" lon="37.3692450">
    <ele>3243.1</ele>
    <time>2026-06-23T12:13:35Z</time>
   </trkpt>
   <trkpt lat="-3.1505190" lon="37.3692470">
    <ele>3243.0</ele>
    <time>2026-06-23T12:13:36Z</time>
   </trkpt>
   <trkpt lat="-3.1505250" lon="37.3692490">
    <ele>3242.9</ele>
    <time>2026-06-23T12:13:37Z</time>
   </trkpt>
   <trkpt lat="-3.1505330" lon="37.3692520">
    <ele>3242.7</ele>
    <time>2026-06-23T12:13:38Z</time>
   </trkpt>
   <trkpt lat="-3.1505410" lon="37.3692540">
    <ele>3242.5</ele>
    <time>2026-06-23T12:13:39Z</time>
   </trkpt>
   <trkpt lat="-3.1505500" lon="37.3692540">
    <ele>3242.3</ele>
    <time>2026-06-23T12:13:40Z</time>
   </trkpt>
   <trkpt lat="-3.1505560" lon="37.3692540">
    <ele>3242.2</ele>
    <time>2026-06-23T12:13:41Z</time>
   </trkpt>
   <trkpt lat="-3.1505650" lon="37.3692550">
    <ele>3242.0</ele>
    <time>2026-06-23T12:13:42Z</time>
   </trkpt>
   <trkpt lat="-3.1505720" lon="37.3692550">
    <ele>3241.8</ele>
    <time>2026-06-23T12:13:43Z</time>
   </trkpt>
   <trkpt lat="-3.1505710" lon="37.3692560">
    <ele>3241.8</ele>
    <time>2026-06-23T12:13:44Z</time>
   </trkpt>
   <trkpt lat="-3.1505790" lon="37.3692590">
    <ele>3241.6</ele>
    <time>2026-06-23T12:13:45Z</time>
   </trkpt>
   <trkpt lat="-3.1505890" lon="37.3692610">
    <ele>3241.4</ele>
    <time>2026-06-23T12:13:46Z</time>
   </trkpt>
   <trkpt lat="-3.1505940" lon="37.3692620">
    <ele>3241.3</ele>
    <time>2026-06-23T12:13:47Z</time>
   </trkpt>
   <trkpt lat="-3.1505990" lon="37.3692610">
    <ele>3241.2</ele>
    <time>2026-06-23T12:13:48Z</time>
   </trkpt>
   <trkpt lat="-3.1506030" lon="37.3692670">
    <ele>3241.0</ele>
    <time>2026-06-23T12:13:49Z</time>
   </trkpt>
   <trkpt lat="-3.1506060" lon="37.3692710">
    <ele>3240.9</ele>
    <time>2026-06-23T12:13:50Z</time>
   </trkpt>
   <trkpt lat="-3.1506070" lon="37.3692740">
    <ele>3240.8</ele>
    <time>2026-06-23T12:13:51Z</time>
   </trkpt>
   <trkpt lat="-3.1506110" lon="37.3692760">
    <ele>3240.7</ele>
    <time>2026-06-23T12:13:52Z</time>
   </trkpt>
   <trkpt lat="-3.1506170" lon="37.3692820">
    <ele>3240.5</ele>
    <time>2026-06-23T12:13:53Z</time>
   </trkpt>
   <trkpt lat="-3.1506210" lon="37.3692910">
    <ele>3240.3</ele>
    <time>2026-06-23T12:13:54Z</time>
   </trkpt>
   <trkpt lat="-3.1506240" lon="37.3692920">
    <ele>3240.2</ele>
    <time>2026-06-23T12:13:55Z</time>
   </trkpt>
   <trkpt lat="-3.1506350" lon="37.3692930">
    <ele>3240.0</ele>
    <time>2026-06-23T12:13:56Z</time>
   </trkpt>
   <trkpt lat="-3.1506410" lon="37.3692930">
    <ele>3239.9</ele>
    <time>2026-06-23T12:13:57Z</time>
   </trkpt>
   <trkpt lat="-3.1506460" lon="37.3692930">
    <ele>3239.8</ele>
    <time>2026-06-23T12:13:58Z</time>
   </trkpt>
   <trkpt lat="-3.1506490" lon="37.3692950">
    <ele>3239.7</ele>
    <time>2026-06-23T12:13:59Z</time>
   </trkpt>
   <trkpt lat="-3.1506580" lon="37.3692960">
    <ele>3239.5</ele>
    <time>2026-06-23T12:14:00Z</time>
   </trkpt>
   <trkpt lat="-3.1506700" lon="37.3692980">
    <ele>3239.2</ele>
    <time>2026-06-23T12:14:01Z</time>
   </trkpt>
   <trkpt lat="-3.1506780" lon="37.3692990">
    <ele>3239.0</ele>
    <time>2026-06-23T12:14:02Z</time>
   </trkpt>
   <trkpt lat="-3.1506820" lon="37.3693010">
    <ele>3238.9</ele>
    <time>2026-06-23T12:14:03Z</time>
   </trkpt>
   <trkpt lat="-3.1506860" lon="37.3693020">
    <ele>3238.9</ele>
    <time>2026-06-23T12:14:04Z</time>
   </trkpt>
   <trkpt lat="-3.1506870" lon="37.3693040">
    <ele>3238.8</ele>
    <time>2026-06-23T12:14:05Z</time>
   </trkpt>
   <trkpt lat="-3.1506860" lon="37.3693080">
    <ele>3238.7</ele>
    <time>2026-06-23T12:14:06Z</time>
   </trkpt>
   <trkpt lat="-3.1506900" lon="37.3693130">
    <ele>3238.6</ele>
    <time>2026-06-23T12:14:07Z</time>
   </trkpt>
   <trkpt lat="-3.1506900" lon="37.3693200">
    <ele>3238.4</ele>
    <time>2026-06-23T12:14:08Z</time>
   </trkpt>
   <trkpt lat="-3.1506930" lon="37.3693220">
    <ele>3238.3</ele>
    <time>2026-06-23T12:14:09Z</time>
   </trkpt>
   <trkpt lat="-3.1506980" lon="37.3693250">
    <ele>3238.2</ele>
    <time>2026-06-23T12:14:10Z</time>
   </trkpt>
   <trkpt lat="-3.1507060" lon="37.3693300">
    <ele>3238.0</ele>
    <time>2026-06-23T12:14:11Z</time>
   </trkpt>
   <trkpt lat="-3.1507120" lon="37.3693330">
    <ele>3237.9</ele>
    <time>2026-06-23T12:14:12Z</time>
   </trkpt>
   <trkpt lat="-3.1507170" lon="37.3693370">
    <ele>3237.7</ele>
    <time>2026-06-23T12:14:13Z</time>
   </trkpt>
   <trkpt lat="-3.1507230" lon="37.3693390">
    <ele>3237.6</ele>
    <time>2026-06-23T12:14:14Z</time>
   </trkpt>
   <trkpt lat="-3.1507310" lon="37.3693390">
    <ele>3237.4</ele>
    <time>2026-06-23T12:14:15Z</time>
   </trkpt>
   <trkpt lat="-3.1507390" lon="37.3693380">
    <ele>3237.2</ele>
    <time>2026-06-23T12:14:16Z</time>
   </trkpt>
   <trkpt lat="-3.1507480" lon="37.3693380">
    <ele>3237.0</ele>
    <time>2026-06-23T12:14:17Z</time>
   </trkpt>
   <trkpt lat="-3.1507530" lon="37.3693390">
    <ele>3236.9</ele>
    <time>2026-06-23T12:14:18Z</time>
   </trkpt>
   <trkpt lat="-3.1507620" lon="37.3693400">
    <ele>3236.7</ele>
    <time>2026-06-23T12:14:19Z</time>
   </trkpt>
   <trkpt lat="-3.1507730" lon="37.3693390">
    <ele>3236.5</ele>
    <time>2026-06-23T12:14:20Z</time>
   </trkpt>
   <trkpt lat="-3.1507790" lon="37.3693380">
    <ele>3236.4</ele>
    <time>2026-06-23T12:14:21Z</time>
   </trkpt>
   <trkpt lat="-3.1507850" lon="37.3693360">
    <ele>3236.2</ele>
    <time>2026-06-23T12:14:22Z</time>
   </trkpt>
   <trkpt lat="-3.1507900" lon="37.3693290">
    <ele>3236.0</ele>
    <time>2026-06-23T12:14:23Z</time>
   </trkpt>
   <trkpt lat="-3.1507930" lon="37.3693200">
    <ele>3235.8</ele>
    <time>2026-06-23T12:14:24Z</time>
   </trkpt>
   <trkpt lat="-3.1507950" lon="37.3693140">
    <ele>3235.7</ele>
    <time>2026-06-23T12:14:25Z</time>
   </trkpt>
   <trkpt lat="-3.1508000" lon="37.3693100">
    <ele>3235.5</ele>
    <time>2026-06-23T12:14:26Z</time>
   </trkpt>
   <trkpt lat="-3.1508050" lon="37.3693020">
    <ele>3235.3</ele>
    <time>2026-06-23T12:14:27Z</time>
   </trkpt>
   <trkpt lat="-3.1508060" lon="37.3693000">
    <ele>3235.2</ele>
    <time>2026-06-23T12:14:28Z</time>
   </trkpt>
   <trkpt lat="-3.1508110" lon="37.3692950">
    <ele>3235.1</ele>
    <time>2026-06-23T12:14:29Z</time>
   </trkpt>
   <trkpt lat="-3.1508190" lon="37.3692960">
    <ele>3234.9</ele>
    <time>2026-06-23T12:14:30Z</time>
   </trkpt>
   <trkpt lat="-3.1508250" lon="37.3692950">
    <ele>3234.7</ele>
    <time>2026-06-23T12:14:31Z</time>
   </trkpt>
   <trkpt lat="-3.1508310" lon="37.3692950">
    <ele>3234.6</ele>
    <time>2026-06-23T12:14:32Z</time>
   </trkpt>
   <trkpt lat="-3.1508330" lon="37.3692960">
    <ele>3234.5</ele>
    <time>2026-06-23T12:14:33Z</time>
   </trkpt>
   <trkpt lat="-3.1508420" lon="37.3692930">
    <ele>3234.3</ele>
    <time>2026-06-23T12:14:34Z</time>
   </trkpt>
   <trkpt lat="-3.1508470" lon="37.3692930">
    <ele>3234.2</ele>
    <time>2026-06-23T12:14:35Z</time>
   </trkpt>
   <trkpt lat="-3.1508520" lon="37.3692940">
    <ele>3234.1</ele>
    <time>2026-06-23T12:14:36Z</time>
   </trkpt>
   <trkpt lat="-3.1508540" lon="37.3692920">
    <ele>3234.0</ele>
    <time>2026-06-23T12:14:37Z</time>
   </trkpt>
   <trkpt lat="-3.1508620" lon="37.3692900">
    <ele>3233.8</ele>
    <time>2026-06-23T12:14:38Z</time>
   </trkpt>
   <trkpt lat="-3.1508660" lon="37.3692890">
    <ele>3233.7</ele>
    <time>2026-06-23T12:14:39Z</time>
   </trkpt>
   <trkpt lat="-3.1508770" lon="37.3692860">
    <ele>3233.4</ele>
    <time>2026-06-23T12:14:40Z</time>
   </trkpt>
   <trkpt lat="-3.1508780" lon="37.3692850">
    <ele>3233.4</ele>
    <time>2026-06-23T12:14:41Z</time>
   </trkpt>
   <trkpt lat="-3.1508870" lon="37.3692800">
    <ele>3233.1</ele>
    <time>2026-06-23T12:14:42Z</time>
   </trkpt>
   <trkpt lat="-3.1508900" lon="37.3692770">
    <ele>3233.0</ele>
    <time>2026-06-23T12:14:43Z</time>
   </trkpt>
   <trkpt lat="-3.1508940" lon="37.3692740">
    <ele>3232.9</ele>
    <time>2026-06-23T12:14:44Z</time>
   </trkpt>
   <trkpt lat="-3.1508980" lon="37.3692730">
    <ele>3232.7</ele>
    <time>2026-06-23T12:14:45Z</time>
   </trkpt>
   <trkpt lat="-3.1509020" lon="37.3692730">
    <ele>3232.6</ele>
    <time>2026-06-23T12:14:46Z</time>
   </trkpt>
   <trkpt lat="-3.1509090" lon="37.3692750">
    <ele>3232.5</ele>
    <time>2026-06-23T12:14:47Z</time>
   </trkpt>
   <trkpt lat="-3.1509140" lon="37.3692740">
    <ele>3232.3</ele>
    <time>2026-06-23T12:14:48Z</time>
   </trkpt>
   <trkpt lat="-3.1509240" lon="37.3692730">
    <ele>3232.1</ele>
    <time>2026-06-23T12:14:49Z</time>
   </trkpt>
   <trkpt lat="-3.1509280" lon="37.3692720">
    <ele>3232.0</ele>
    <time>2026-06-23T12:14:50Z</time>
   </trkpt>
   <trkpt lat="-3.1509320" lon="37.3692740">
    <ele>3231.9</ele>
    <time>2026-06-23T12:14:51Z</time>
   </trkpt>
   <trkpt lat="-3.1509360" lon="37.3692760">
    <ele>3231.7</ele>
    <time>2026-06-23T12:14:52Z</time>
   </trkpt>
   <trkpt lat="-3.1509390" lon="37.3692790">
    <ele>3231.6</ele>
    <time>2026-06-23T12:14:53Z</time>
   </trkpt>
   <trkpt lat="-3.1509430" lon="37.3692790">
    <ele>3231.5</ele>
    <time>2026-06-23T12:14:54Z</time>
   </trkpt>
   <trkpt lat="-3.1509480" lon="37.3692800">
    <ele>3231.4</ele>
    <time>2026-06-23T12:14:55Z</time>
   </trkpt>
   <trkpt lat="-3.1509560" lon="37.3692780">
    <ele>3231.2</ele>
    <time>2026-06-23T12:14:56Z</time>
   </trkpt>
   <trkpt lat="-3.1509640" lon="37.3692740">
    <ele>3230.9</ele>
    <time>2026-06-23T12:14:57Z</time>
   </trkpt>
   <trkpt lat="-3.1509660" lon="37.3692710">
    <ele>3230.8</ele>
    <time>2026-06-23T12:14:58Z</time>
   </trkpt>
   <trkpt lat="-3.1509700" lon="37.3692710">
    <ele>3230.7</ele>
    <time>2026-06-23T12:14:59Z</time>
   </trkpt>
   <trkpt lat="-3.1509740" lon="37.3692680">
    <ele>3230.6</ele>
    <time>2026-06-23T12:15:00Z</time>
   </trkpt>
   <trkpt lat="-3.1509830" lon="37.3692690">
    <ele>3230.3</ele>
    <time>2026-06-23T12:15:01Z</time>
   </trkpt>
   <trkpt lat="-3.1509810" lon="37.3692660">
    <ele>3230.2</ele>
    <time>2026-06-23T12:15:02Z</time>
   </trkpt>
   <trkpt lat="-3.1509860" lon="37.3692610">
    <ele>3230.0</ele>
    <time>2026-06-23T12:15:03Z</time>
   </trkpt>
   <trkpt lat="-3.1509870" lon="37.3692580">
    <ele>3230.0</ele>
    <time>2026-06-23T12:15:04Z</time>
   </trkpt>
   <trkpt lat="-3.1509900" lon="37.3692560">
    <ele>3229.9</ele>
    <time>2026-06-23T12:15:05Z</time>
   </trkpt>
   <trkpt lat="-3.1510000" lon="37.3692560">
    <ele>3229.6</ele>
    <time>2026-06-23T12:15:06Z</time>
   </trkpt>
   <trkpt lat="-3.1510070" lon="37.3692560">
    <ele>3229.4</ele>
    <time>2026-06-23T12:15:07Z</time>
   </trkpt>
   <trkpt lat="-3.1510080" lon="37.3692570">
    <ele>3229.4</ele>
    <time>2026-06-23T12:15:08Z</time>
   </trkpt>
   <trkpt lat="-3.1510110" lon="37.3692600">
    <ele>3229.2</ele>
    <time>2026-06-23T12:15:09Z</time>
   </trkpt>
   <trkpt lat="-3.1510160" lon="37.3692580">
    <ele>3229.1</ele>
    <time>2026-06-23T12:15:10Z</time>
   </trkpt>
   <trkpt lat="-3.1510220" lon="37.3692570">
    <ele>3228.9</ele>
    <time>2026-06-23T12:15:11Z</time>
   </trkpt>
   <trkpt lat="-3.1510290" lon="37.3692540">
    <ele>3228.7</ele>
    <time>2026-06-23T12:15:12Z</time>
   </trkpt>
   <trkpt lat="-3.1510390" lon="37.3692540">
    <ele>3228.5</ele>
    <time>2026-06-23T12:15:13Z</time>
   </trkpt>
   <trkpt lat="-3.1510440" lon="37.3692530">
    <ele>3228.3</ele>
    <time>2026-06-23T12:15:14Z</time>
   </trkpt>
   <trkpt lat="-3.1510550" lon="37.3692510">
    <ele>3228.0</ele>
    <time>2026-06-23T12:15:15Z</time>
   </trkpt>
   <trkpt lat="-3.1510590" lon="37.3692460">
    <ele>3227.8</ele>
    <time>2026-06-23T12:15:16Z</time>
   </trkpt>
   <trkpt lat="-3.1510620" lon="37.3692440">
    <ele>3227.7</ele>
    <time>2026-06-23T12:15:17Z</time>
   </trkpt>
   <trkpt lat="-3.1510690" lon="37.3692430">
    <ele>3227.5</ele>
    <time>2026-06-23T12:15:18Z</time>
   </trkpt>
   <trkpt lat="-3.1510730" lon="37.3692420">
    <ele>3227.4</ele>
    <time>2026-06-23T12:15:19Z</time>
   </trkpt>
   <trkpt lat="-3.1510770" lon="37.3692420">
    <ele>3227.3</ele>
    <time>2026-06-23T12:15:20Z</time>
   </trkpt>
   <trkpt lat="-3.1510840" lon="37.3692390">
    <ele>3227.1</ele>
    <time>2026-06-23T12:15:21Z</time>
   </trkpt>
   <trkpt lat="-3.1510870" lon="37.3692370">
    <ele>3227.0</ele>
    <time>2026-06-23T12:15:22Z</time>
   </trkpt>
   <trkpt lat="-3.1510940" lon="37.3692370">
    <ele>3226.8</ele>
    <time>2026-06-23T12:15:23Z</time>
   </trkpt>
   <trkpt lat="-3.1510980" lon="37.3692380">
    <ele>3226.7</ele>
    <time>2026-06-23T12:15:24Z</time>
   </trkpt>
   <trkpt lat="-3.1511040" lon="37.3692420">
    <ele>3226.5</ele>
    <time>2026-06-23T12:15:25Z</time>
   </trkpt>
   <trkpt lat="-3.1511110" lon="37.3692420">
    <ele>3226.3</ele>
    <time>2026-06-23T12:15:26Z</time>
   </trkpt>
   <trkpt lat="-3.1511180" lon="37.3692440">
    <ele>3226.1</ele>
    <time>2026-06-23T12:15:27Z</time>
   </trkpt>
   <trkpt lat="-3.1511220" lon="37.3692440">
    <ele>3226.0</ele>
    <time>2026-06-23T12:15:28Z</time>
   </trkpt>
   <trkpt lat="-3.1511260" lon="37.3692470">
    <ele>3225.9</ele>
    <time>2026-06-23T12:15:29Z</time>
   </trkpt>
   <trkpt lat="-3.1511280" lon="37.3692510">
    <ele>3225.8</ele>
    <time>2026-06-23T12:15:30Z</time>
   </trkpt>
   <trkpt lat="-3.1511320" lon="37.3692530">
    <ele>3225.6</ele>
    <time>2026-06-23T12:15:31Z</time>
   </trkpt>
   <trkpt lat="-3.1511320" lon="37.3692570">
    <ele>3225.5</ele>
    <time>2026-06-23T12:15:32Z</time>
   </trkpt>
   <trkpt lat="-3.1511350" lon="37.3692610">
    <ele>3225.4</ele>
    <time>2026-06-23T12:15:33Z</time>
   </trkpt>
   <trkpt lat="-3.1511410" lon="37.3692630">
    <ele>3225.2</ele>
    <time>2026-06-23T12:15:34Z</time>
   </trkpt>
   <trkpt lat="-3.1511470" lon="37.3692660">
    <ele>3225.0</ele>
    <time>2026-06-23T12:15:35Z</time>
   </trkpt>
   <trkpt lat="-3.1511490" lon="37.3692640">
    <ele>3225.0</ele>
    <time>2026-06-23T12:15:36Z</time>
   </trkpt>
   <trkpt lat="-3.1511570" lon="37.3692620">
    <ele>3224.7</ele>
    <time>2026-06-23T12:15:37Z</time>
   </trkpt>
   <trkpt lat="-3.1511590" lon="37.3692640">
    <ele>3224.7</ele>
    <time>2026-06-23T12:15:38Z</time>
   </trkpt>
   <trkpt lat="-3.1511650" lon="37.3692630">
    <ele>3224.5</ele>
    <time>2026-06-23T12:15:39Z</time>
   </trkpt>
   <trkpt lat="-3.1511740" lon="37.3692650">
    <ele>3224.3</ele>
    <time>2026-06-23T12:15:40Z</time>
   </trkpt>
   <trkpt lat="-3.1511750" lon="37.3692680">
    <ele>3224.2</ele>
    <time>2026-06-23T12:15:41Z</time>
   </trkpt>
   <trkpt lat="-3.1511800" lon="37.3692730">
    <ele>3224.0</ele>
    <time>2026-06-23T12:15:42Z</time>
   </trkpt>
   <trkpt lat="-3.1511850" lon="37.3692730">
    <ele>3223.8</ele>
    <time>2026-06-23T12:15:43Z</time>
   </trkpt>
   <trkpt lat="-3.1511920" lon="37.3692710">
    <ele>3223.6</ele>
    <time>2026-06-23T12:15:44Z</time>
   </trkpt>
   <trkpt lat="-3.1511970" lon="37.3692680">
    <ele>3223.5</ele>
    <time>2026-06-23T12:15:45Z</time>
   </trkpt>
   <trkpt lat="-3.1512020" lon="37.3692730">
    <ele>3223.3</ele>
    <time>2026-06-23T12:15:46Z</time>
   </trkpt>
   <trkpt lat="-3.1512080" lon="37.3692720">
    <ele>3223.1</ele>
    <time>2026-06-23T12:15:47Z</time>
   </trkpt>
   <trkpt lat="-3.1512110" lon="37.3692740">
    <ele>3223.0</ele>
    <time>2026-06-23T12:15:48Z</time>
   </trkpt>
   <trkpt lat="-3.1512170" lon="37.3692770">
    <ele>3222.8</ele>
    <time>2026-06-23T12:15:49Z</time>
   </trkpt>
   <trkpt lat="-3.1512240" lon="37.3692770">
    <ele>3222.7</ele>
    <time>2026-06-23T12:15:50Z</time>
   </trkpt>
   <trkpt lat="-3.1512270" lon="37.3692800">
    <ele>3222.5</ele>
    <time>2026-06-23T12:15:51Z</time>
   </trkpt>
   <trkpt lat="-3.1512360" lon="37.3692800">
    <ele>3222.3</ele>
    <time>2026-06-23T12:15:52Z</time>
   </trkpt>
   <trkpt lat="-3.1512420" lon="37.3692780">
    <ele>3222.1</ele>
    <time>2026-06-23T12:15:53Z</time>
   </trkpt>
   <trkpt lat="-3.1512440" lon="37.3692770">
    <ele>3222.1</ele>
    <time>2026-06-23T12:15:54Z</time>
   </trkpt>
   <trkpt lat="-3.1512430" lon="37.3692750">
    <ele>3222.0</ele>
    <time>2026-06-23T12:15:55Z</time>
   </trkpt>
   <trkpt lat="-3.1512430" lon="37.3692740">
    <ele>3222.0</ele>
    <time>2026-06-23T12:15:56Z</time>
   </trkpt>
   <trkpt lat="-3.1512430" lon="37.3692730">
    <ele>3222.0</ele>
    <time>2026-06-23T12:15:57Z</time>
   </trkpt>
   <trkpt lat="-3.1512460" lon="37.3692710">
    <ele>3221.9</ele>
    <time>2026-06-23T12:15:58Z</time>
   </trkpt>
   <trkpt lat="-3.1512450" lon="37.3692670">
    <ele>3221.8</ele>
    <time>2026-06-23T12:15:59Z</time>
   </trkpt>
   <trkpt lat="-3.1512480" lon="37.3692660">
    <ele>3221.7</ele>
    <time>2026-06-23T12:16:00Z</time>
   </trkpt>
   <trkpt lat="-3.1512530" lon="37.3692630">
    <ele>3221.5</ele>
    <time>2026-06-23T12:16:01Z</time>
   </trkpt>
   <trkpt lat="-3.1512590" lon="37.3692610">
    <ele>3221.4</ele>
    <time>2026-06-23T12:16:02Z</time>
   </trkpt>
   <trkpt lat="-3.1512630" lon="37.3692600">
    <ele>3221.2</ele>
    <time>2026-06-23T12:16:03Z</time>
   </trkpt>
   <trkpt lat="-3.1512680" lon="37.3692640">
    <ele>3221.1</ele>
    <time>2026-06-23T12:16:04Z</time>
   </trkpt>
   <trkpt lat="-3.1512710" lon="37.3692660">
    <ele>3221.0</ele>
    <time>2026-06-23T12:16:05Z</time>
   </trkpt>
   <trkpt lat="-3.1512760" lon="37.3692690">
    <ele>3220.8</ele>
    <time>2026-06-23T12:16:06Z</time>
   </trkpt>
   <trkpt lat="-3.1512790" lon="37.3692730">
    <ele>3220.7</ele>
    <time>2026-06-23T12:16:07Z</time>
   </trkpt>
   <trkpt lat="-3.1512860" lon="37.3692750">
    <ele>3220.5</ele>
    <time>2026-06-23T12:16:08Z</time>
   </trkpt>
   <trkpt lat="-3.1512920" lon="37.3692790">
    <ele>3220.3</ele>
    <time>2026-06-23T12:16:09Z</time>
   </trkpt>
   <trkpt lat="-3.1512980" lon="37.3692800">
    <ele>3220.1</ele>
    <time>2026-06-23T12:16:10Z</time>
   </trkpt>
   <trkpt lat="-3.1513050" lon="37.3692820">
    <ele>3219.9</ele>
    <time>2026-06-23T12:16:11Z</time>
   </trkpt>
   <trkpt lat="-3.1513100" lon="37.3692830">
    <ele>3219.8</ele>
    <time>2026-06-23T12:16:12Z</time>
   </trkpt>
   <trkpt lat="-3.1513150" lon="37.3692820">
    <ele>3219.7</ele>
    <time>2026-06-23T12:16:13Z</time>
   </trkpt>
   <trkpt lat="-3.1513190" lon="37.3692770">
    <ele>3219.5</ele>
    <time>2026-06-23T12:16:14Z</time>
   </trkpt>
   <trkpt lat="-3.1513210" lon="37.3692770">
    <ele>3219.4</ele>
    <time>2026-06-23T12:16:15Z</time>
   </trkpt>
   <trkpt lat="-3.1513270" lon="37.3692770">
    <ele>3219.3</ele>
    <time>2026-06-23T12:16:16Z</time>
   </trkpt>
   <trkpt lat="-3.1513310" lon="37.3692800">
    <ele>3219.2</ele>
    <time>2026-06-23T12:16:17Z</time>
   </trkpt>
   <trkpt lat="-3.1513310" lon="37.3692810">
    <ele>3219.1</ele>
    <time>2026-06-23T12:16:18Z</time>
   </trkpt>
   <trkpt lat="-3.1513360" lon="37.3692860">
    <ele>3218.9</ele>
    <time>2026-06-23T12:16:19Z</time>
   </trkpt>
   <trkpt lat="-3.1513380" lon="37.3692900">
    <ele>3218.8</ele>
    <time>2026-06-23T12:16:20Z</time>
   </trkpt>
   <trkpt lat="-3.1513430" lon="37.3692950">
    <ele>3218.6</ele>
    <time>2026-06-23T12:16:21Z</time>
   </trkpt>
   <trkpt lat="-3.1513450" lon="37.3692950">
    <ele>3218.6</ele>
    <time>2026-06-23T12:16:22Z</time>
   </trkpt>
   <trkpt lat="-3.1513520" lon="37.3692970">
    <ele>3218.4</ele>
    <time>2026-06-23T12:16:23Z</time>
   </trkpt>
   <trkpt lat="-3.1513520" lon="37.3692930">
    <ele>3218.3</ele>
    <time>2026-06-23T12:16:24Z</time>
   </trkpt>
   <trkpt lat="-3.1513530" lon="37.3692940">
    <ele>3218.2</ele>
    <time>2026-06-23T12:16:25Z</time>
   </trkpt>
   <trkpt lat="-3.1513540" lon="37.3692950">
    <ele>3218.2</ele>
    <time>2026-06-23T12:16:26Z</time>
   </trkpt>
   <trkpt lat="-3.1513560" lon="37.3692970">
    <ele>3218.1</ele>
    <time>2026-06-23T12:16:27Z</time>
   </trkpt>
   <trkpt lat="-3.1513660" lon="37.3693010">
    <ele>3217.8</ele>
    <time>2026-06-23T12:16:28Z</time>
   </trkpt>
   <trkpt lat="-3.1513700" lon="37.3693070">
    <ele>3217.6</ele>
    <time>2026-06-23T12:16:29Z</time>
   </trkpt>
   <trkpt lat="-3.1513720" lon="37.3693080">
    <ele>3217.6</ele>
    <time>2026-06-23T12:16:30Z</time>
   </trkpt>
   <trkpt lat="-3.1513730" lon="37.3693110">
    <ele>3217.5</ele>
    <time>2026-06-23T12:16:31Z</time>
   </trkpt>
   <trkpt lat="-3.1513800" lon="37.3693170">
    <ele>3217.3</ele>
    <time>2026-06-23T12:16:32Z</time>
   </trkpt>
   <trkpt lat="-3.1513880" lon="37.3693220">
    <ele>3217.0</ele>
    <time>2026-06-23T12:16:33Z</time>
   </trkpt>
   <trkpt lat="-3.1513910" lon="37.3693230">
    <ele>3216.9</ele>
    <time>2026-06-23T12:16:34Z</time>
   </trkpt>
   <trkpt lat="-3.1513950" lon="37.3693250">
    <ele>3216.8</ele>
    <time>2026-06-23T12:16:35Z</time>
   </trkpt>
   <trkpt lat="-3.1513980" lon="37.3693270">
    <ele>3216.7</ele>
    <time>2026-06-23T12:16:36Z</time>
   </trkpt>
   <trkpt lat="-3.1514000" lon="37.3693270">
    <ele>3216.6</ele>
    <time>2026-06-23T12:16:37Z</time>
   </trkpt>
   <trkpt lat="-3.1514050" lon="37.3693290">
    <ele>3216.5</ele>
    <time>2026-06-23T12:16:38Z</time>
   </trkpt>
   <trkpt lat="-3.1514080" lon="37.3693310">
    <ele>3216.4</ele>
    <time>2026-06-23T12:16:39Z</time>
   </trkpt>
   <trkpt lat="-3.1514140" lon="37.3693300">
    <ele>3216.2</ele>
    <time>2026-06-23T12:16:40Z</time>
   </trkpt>
   <trkpt lat="-3.1514170" lon="37.3693300">
    <ele>3216.2</ele>
    <time>2026-06-23T12:16:41Z</time>
   </trkpt>
   <trkpt lat="-3.1514200" lon="37.3693280">
    <ele>3216.1</ele>
    <time>2026-06-23T12:16:42Z</time>
   </trkpt>
   <trkpt lat="-3.1514240" lon="37.3693250">
    <ele>3215.9</ele>
    <time>2026-06-23T12:16:43Z</time>
   </trkpt>
   <trkpt lat="-3.1514270" lon="37.3693240">
    <ele>3215.9</ele>
    <time>2026-06-23T12:16:44Z</time>
   </trkpt>
   <trkpt lat="-3.1514320" lon="37.3693210">
    <ele>3215.7</ele>
    <time>2026-06-23T12:16:45Z</time>
   </trkpt>
   <trkpt lat="-3.1514370" lon="37.3693200">
    <ele>3215.6</ele>
    <time>2026-06-23T12:16:46Z</time>
   </trkpt>
   <trkpt lat="-3.1514460" lon="37.3693170">
    <ele>3215.3</ele>
    <time>2026-06-23T12:16:47Z</time>
   </trkpt>
   <trkpt lat="-3.1514530" lon="37.3693150">
    <ele>3215.1</ele>
    <time>2026-06-23T12:16:48Z</time>
   </trkpt>
   <trkpt lat="-3.1514580" lon="37.3693150">
    <ele>3215.0</ele>
    <time>2026-06-23T12:16:49Z</time>
   </trkpt>
   <trkpt lat="-3.1514620" lon="37.3693180">
    <ele>3214.9</ele>
    <time>2026-06-23T12:16:50Z</time>
   </trkpt>
   <trkpt lat="-3.1514710" lon="37.3693170">
    <ele>3214.6</ele>
    <time>2026-06-23T12:16:51Z</time>
   </trkpt>
   <trkpt lat="-3.1514740" lon="37.3693150">
    <ele>3214.5</ele>
    <time>2026-06-23T12:16:52Z</time>
   </trkpt>
   <trkpt lat="-3.1514770" lon="37.3693120">
    <ele>3214.4</ele>
    <time>2026-06-23T12:16:53Z</time>
   </trkpt>
   <trkpt lat="-3.1514800" lon="37.3693090">
    <ele>3214.3</ele>
    <time>2026-06-23T12:16:54Z</time>
   </trkpt>
   <trkpt lat="-3.1514850" lon="37.3693070">
    <ele>3214.2</ele>
    <time>2026-06-23T12:16:55Z</time>
   </trkpt>
   <trkpt lat="-3.1514890" lon="37.3693090">
    <ele>3214.1</ele>
    <time>2026-06-23T12:16:56Z</time>
   </trkpt>
   <trkpt lat="-3.1514950" lon="37.3693120">
    <ele>3213.9</ele>
    <time>2026-06-23T12:16:57Z</time>
   </trkpt>
   <trkpt lat="-3.1515000" lon="37.3693180">
    <ele>3213.7</ele>
    <time>2026-06-23T12:16:58Z</time>
   </trkpt>
   <trkpt lat="-3.1515050" lon="37.3693240">
    <ele>3213.5</ele>
    <time>2026-06-23T12:16:59Z</time>
   </trkpt>
   <trkpt lat="-3.1515110" lon="37.3693230">
    <ele>3213.3</ele>
    <time>2026-06-23T12:17:00Z</time>
   </trkpt>
   <trkpt lat="-3.1515180" lon="37.3693230">
    <ele>3213.2</ele>
    <time>2026-06-23T12:17:01Z</time>
   </trkpt>
   <trkpt lat="-3.1515190" lon="37.3693200">
    <ele>3213.1</ele>
    <time>2026-06-23T12:17:02Z</time>
   </trkpt>
   <trkpt lat="-3.1515300" lon="37.3693190">
    <ele>3212.8</ele>
    <time>2026-06-23T12:17:03Z</time>
   </trkpt>
   <trkpt lat="-3.1515350" lon="37.3693180">
    <ele>3212.7</ele>
    <time>2026-06-23T12:17:04Z</time>
   </trkpt>
   <trkpt lat="-3.1515420" lon="37.3693220">
    <ele>3212.5</ele>
    <time>2026-06-23T12:17:05Z</time>
   </trkpt>
   <trkpt lat="-3.1515470" lon="37.3693280">
    <ele>3212.3</ele>
    <time>2026-06-23T12:17:06Z</time>
   </trkpt>
   <trkpt lat="-3.1515500" lon="37.3693330">
    <ele>3212.2</ele>
    <time>2026-06-23T12:17:07Z</time>
   </trkpt>
   <trkpt lat="-3.1515560" lon="37.3693370">
    <ele>3212.0</ele>
    <time>2026-06-23T12:17:08Z</time>
   </trkpt>
   <trkpt lat="-3.1515630" lon="37.3693410">
    <ele>3211.8</ele>
    <time>2026-06-23T12:17:09Z</time>
   </trkpt>
   <trkpt lat="-3.1515670" lon="37.3693400">
    <ele>3211.7</ele>
    <time>2026-06-23T12:17:10Z</time>
   </trkpt>
   <trkpt lat="-3.1515740" lon="37.3693410">
    <ele>3211.5</ele>
    <time>2026-06-23T12:17:11Z</time>
   </trkpt>
   <trkpt lat="-3.1515810" lon="37.3693420">
    <ele>3211.4</ele>
    <time>2026-06-23T12:17:12Z</time>
   </trkpt>
   <trkpt lat="-3.1515890" lon="37.3693430">
    <ele>3211.2</ele>
    <time>2026-06-23T12:17:13Z</time>
   </trkpt>
   <trkpt lat="-3.1515970" lon="37.3693410">
    <ele>3211.0</ele>
    <time>2026-06-23T12:17:14Z</time>
   </trkpt>
   <trkpt lat="-3.1516070" lon="37.3693400">
    <ele>3210.8</ele>
    <time>2026-06-23T12:17:15Z</time>
   </trkpt>
   <trkpt lat="-3.1516130" lon="37.3693360">
    <ele>3210.6</ele>
    <time>2026-06-23T12:17:16Z</time>
   </trkpt>
   <trkpt lat="-3.1516200" lon="37.3693350">
    <ele>3210.4</ele>
    <time>2026-06-23T12:17:17Z</time>
   </trkpt>
   <trkpt lat="-3.1516290" lon="37.3693340">
    <ele>3210.2</ele>
    <time>2026-06-23T12:17:18Z</time>
   </trkpt>
   <trkpt lat="-3.1516380" lon="37.3693330">
    <ele>3210.0</ele>
    <time>2026-06-23T12:17:19Z</time>
   </trkpt>
   <trkpt lat="-3.1516430" lon="37.3693290">
    <ele>3209.9</ele>
    <time>2026-06-23T12:17:20Z</time>
   </trkpt>
   <trkpt lat="-3.1516510" lon="37.3693250">
    <ele>3209.6</ele>
    <time>2026-06-23T12:17:21Z</time>
   </trkpt>
   <trkpt lat="-3.1516570" lon="37.3693220">
    <ele>3209.5</ele>
    <time>2026-06-23T12:17:22Z</time>
   </trkpt>
   <trkpt lat="-3.1516640" lon="37.3693190">
    <ele>3209.3</ele>
    <time>2026-06-23T12:17:23Z</time>
   </trkpt>
   <trkpt lat="-3.1516690" lon="37.3693170">
    <ele>3209.2</ele>
    <time>2026-06-23T12:17:24Z</time>
   </trkpt>
   <trkpt lat="-3.1516770" lon="37.3693120">
    <ele>3209.0</ele>
    <time>2026-06-23T12:17:25Z</time>
   </trkpt>
   <trkpt lat="-3.1516810" lon="37.3693110">
    <ele>3208.9</ele>
    <time>2026-06-23T12:17:26Z</time>
   </trkpt>
   <trkpt lat="-3.1516870" lon="37.3693090">
    <ele>3208.7</ele>
    <time>2026-06-23T12:17:27Z</time>
   </trkpt>
   <trkpt lat="-3.1516880" lon="37.3693080">
    <ele>3208.7</ele>
    <time>2026-06-23T12:17:28Z</time>
   </trkpt>
   <trkpt lat="-3.1516940" lon="37.3693080">
    <ele>3208.5</ele>
    <time>2026-06-23T12:17:29Z</time>
   </trkpt>
   <trkpt lat="-3.1517020" lon="37.3693050">
    <ele>3208.3</ele>
    <time>2026-06-23T12:17:30Z</time>
   </trkpt>
   <trkpt lat="-3.1517050" lon="37.3693070">
    <ele>3208.2</ele>
    <time>2026-06-23T12:17:31Z</time>
   </trkpt>
   <trkpt lat="-3.1517080" lon="37.3693070">
    <ele>3208.2</ele>
    <time>2026-06-23T12:17:32Z</time>
   </trkpt>
   <trkpt lat="-3.1517130" lon="37.3693070">
    <ele>3208.1</ele>
    <time>2026-06-23T12:17:33Z</time>
   </trkpt>
   <trkpt lat="-3.1517210" lon="37.3693050">
    <ele>3207.9</ele>
    <time>2026-06-23T12:17:34Z</time>
   </trkpt>
   <trkpt lat="-3.1517260" lon="37.3693020">
    <ele>3207.7</ele>
    <time>2026-06-23T12:17:35Z</time>
   </trkpt>
   <trkpt lat="-3.1517280" lon="37.3693010">
    <ele>3207.7</ele>
    <time>2026-06-23T12:17:36Z</time>
   </trkpt>
   <trkpt lat="-3.1517340" lon="37.3692970">
    <ele>3207.5</ele>
    <time>2026-06-23T12:17:37Z</time>
   </trkpt>
   <trkpt lat="-3.1517370" lon="37.3692970">
    <ele>3207.4</ele>
    <time>2026-06-23T12:17:38Z</time>
   </trkpt>
   <trkpt lat="-3.1517450" lon="37.3692950">
    <ele>3207.2</ele>
    <time>2026-06-23T12:17:39Z</time>
   </trkpt>
   <trkpt lat="-3.1517510" lon="37.3692960">
    <ele>3207.1</ele>
    <time>2026-06-23T12:17:40Z</time>
   </trkpt>
   <trkpt lat="-3.1517560" lon="37.3692970">
    <ele>3207.0</ele>
    <time>2026-06-23T12:17:41Z</time>
   </trkpt>
   <trkpt lat="-3.1517640" lon="37.3692970">
    <ele>3206.8</ele>
    <time>2026-06-23T12:17:42Z</time>
   </trkpt>
   <trkpt lat="-3.1517710" lon="37.3692950">
    <ele>3206.6</ele>
    <time>2026-06-23T12:17:43Z</time>
   </trkpt>
   <trkpt lat="-3.1517750" lon="37.3692930">
    <ele>3206.5</ele>
    <time>2026-06-23T12:17:44Z</time>
   </trkpt>
   <trkpt lat="-3.1517770" lon="37.3692940">
    <ele>3206.4</ele>
    <time>2026-06-23T12:17:45Z</time>
   </trkpt>
   <trkpt lat="-3.1517830" lon="37.3692930">
    <ele>3206.3</ele>
    <time>2026-06-23T12:17:46Z</time>
   </trkpt>
   <trkpt lat="-3.1517900" lon="37.3692880">
    <ele>3206.1</ele>
    <time>2026-06-23T12:17:47Z</time>
   </trkpt>
   <trkpt lat="-3.1517930" lon="37.3692850">
    <ele>3206.0</ele>
    <time>2026-06-23T12:17:48Z</time>
   </trkpt>
   <trkpt lat="-3.1517970" lon="37.3692820">
    <ele>3205.8</ele>
    <time>2026-06-23T12:17:49Z</time>
   </trkpt>
   <trkpt lat="-3.1518050" lon="37.3692780">
    <ele>3205.6</ele>
    <time>2026-06-23T12:17:50Z</time>
   </trkpt>
   <trkpt lat="-3.1518100" lon="37.3692790">
    <ele>3205.5</ele>
    <time>2026-06-23T12:17:51Z</time>
   </trkpt>
   <trkpt lat="-3.1518130" lon="37.3692810">
    <ele>3205.4</ele>
    <time>2026-06-23T12:17:52Z</time>
   </trkpt>
   <trkpt lat="-3.1518210" lon="37.3692830">
    <ele>3205.2</ele>
    <time>2026-06-23T12:17:53Z</time>
   </trkpt>
   <trkpt lat="-3.1518280" lon="37.3692810">
    <ele>3205.0</ele>
    <time>2026-06-23T12:17:54Z</time>
   </trkpt>
   <trkpt lat="-3.1518290" lon="37.3692770">
    <ele>3204.9</ele>
    <time>2026-06-23T12:17:55Z</time>
   </trkpt>
   <trkpt lat="-3.1518280" lon="37.3692750">
    <ele>3204.9</ele>
    <time>2026-06-23T12:17:56Z</time>
   </trkpt>
   <trkpt lat="-3.1518270" lon="37.3692750">
    <ele>3204.8</ele>
    <time>2026-06-23T12:17:57Z</time>
   </trkpt>
   <trkpt lat="-3.1518270" lon="37.3692740">
    <ele>3204.8</ele>
    <time>2026-06-23T12:17:58Z</time>
   </trkpt>
   <trkpt lat="-3.1518260" lon="37.3692740">
    <ele>3204.8</ele>
    <time>2026-06-23T12:17:59Z</time>
   </trkpt>
   <trkpt lat="-3.1518250" lon="37.3692740">
    <ele>3204.8</ele>
    <time>2026-06-23T12:18:00Z</time>
   </trkpt>
   <trkpt lat="-3.1518260" lon="37.3692740">
    <ele>3204.8</ele>
    <time>2026-06-23T12:18:01Z</time>
   </trkpt>
   <trkpt lat="-3.1518260" lon="37.3692740">
    <ele>3204.8</ele>
    <time>2026-06-23T12:18:02Z</time>
   </trkpt>
   <trkpt lat="-3.1518280" lon="37.3692720">
    <ele>3204.7</ele>
    <time>2026-06-23T12:18:03Z</time>
   </trkpt>
   <trkpt lat="-3.1518280" lon="37.3692690">
    <ele>3204.6</ele>
    <time>2026-06-23T12:18:04Z</time>
   </trkpt>
   <trkpt lat="-3.1518250" lon="37.3692690">
    <ele>3204.5</ele>
    <time>2026-06-23T12:18:05Z</time>
   </trkpt>
   <trkpt lat="-3.1518260" lon="37.3692670">
    <ele>3204.5</ele>
    <time>2026-06-23T12:18:06Z</time>
   </trkpt>
   <trkpt lat="-3.1518260" lon="37.3692650">
    <ele>3204.4</ele>
    <time>2026-06-23T12:18:07Z</time>
   </trkpt>
   <trkpt lat="-3.1518250" lon="37.3692650">
    <ele>3204.4</ele>
    <time>2026-06-23T12:18:08Z</time>
   </trkpt>
   <trkpt lat="-3.1518250" lon="37.3692650">
    <ele>3204.4</ele>
    <time>2026-06-23T12:18:09Z</time>
   </trkpt>
   <trkpt lat="-3.1518260" lon="37.3692570">
    <ele>3204.2</ele>
    <time>2026-06-23T12:18:10Z</time>
   </trkpt>
   <trkpt lat="-3.1518260" lon="37.3692550">
    <ele>3204.2</ele>
    <time>2026-06-23T12:18:11Z</time>
   </trkpt>
   <trkpt lat="-3.1518250" lon="37.3692510">
    <ele>3204.1</ele>
    <time>2026-06-23T12:18:12Z</time>
   </trkpt>
   <trkpt lat="-3.1518260" lon="37.3692480">
    <ele>3204.0</ele>
    <time>2026-06-23T12:18:13Z</time>
   </trkpt>
   <trkpt lat="-3.1518250" lon="37.3692470">
    <ele>3204.0</ele>
    <time>2026-06-23T12:18:14Z</time>
   </trkpt>
   <trkpt lat="-3.1518250" lon="37.3692450">
    <ele>3203.9</ele>
    <time>2026-06-23T12:18:15Z</time>
   </trkpt>
   <trkpt lat="-3.1518240" lon="37.3692460">
    <ele>3203.9</ele>
    <time>2026-06-23T12:18:16Z</time>
   </trkpt>
   <trkpt lat="-3.1518200" lon="37.3692490">
    <ele>3203.7</ele>
    <time>2026-06-23T12:18:17Z</time>
   </trkpt>
   <trkpt lat="-3.1518250" lon="37.3692440">
    <ele>3203.6</ele>
    <time>2026-06-23T12:18:18Z</time>
   </trkpt>
   <trkpt lat="-3.1518220" lon="37.3692440">
    <ele>3203.5</ele>
    <time>2026-06-23T12:18:19Z</time>
   </trkpt>
   <trkpt lat="-3.1518270" lon="37.3692420">
    <ele>3203.4</ele>
    <time>2026-06-23T12:18:20Z</time>
   </trkpt>
   <trkpt lat="-3.1518300" lon="37.3692440">
    <ele>3203.3</ele>
    <time>2026-06-23T12:18:21Z</time>
   </trkpt>
   <trkpt lat="-3.1518320" lon="37.3692480">
    <ele>3203.2</ele>
    <time>2026-06-23T12:18:22Z</time>
   </trkpt>
   <trkpt lat="-3.1518370" lon="37.3692460">
    <ele>3203.1</ele>
    <time>2026-06-23T12:18:23Z</time>
   </trkpt>
   <trkpt lat="-3.1518400" lon="37.3692460">
    <ele>3203.0</ele>
    <time>2026-06-23T12:18:24Z</time>
   </trkpt>
   <trkpt lat="-3.1518370" lon="37.3692440">
    <ele>3202.9</ele>
    <time>2026-06-23T12:18:25Z</time>
   </trkpt>
   <trkpt lat="-3.1518380" lon="37.3692430">
    <ele>3202.9</ele>
    <time>2026-06-23T12:18:26Z</time>
   </trkpt>
   <trkpt lat="-3.1518390" lon="37.3692420">
    <ele>3202.8</ele>
    <time>2026-06-23T12:18:27Z</time>
   </trkpt>
   <trkpt lat="-3.1518370" lon="37.3692420">
    <ele>3202.8</ele>
    <time>2026-06-23T12:18:28Z</time>
   </trkpt>
   <trkpt lat="-3.1518360" lon="37.3692400">
    <ele>3202.8</ele>
    <time>2026-06-23T12:18:29Z</time>
   </trkpt>
   <trkpt lat="-3.1518360" lon="37.3692400">
    <ele>3202.8</ele>
    <time>2026-06-23T12:18:30Z</time>
   </trkpt>
   <trkpt lat="-3.1518360" lon="37.3692400">
    <ele>3202.8</ele>
    <time>2026-06-23T12:18:31Z</time>
   </trkpt>
   <trkpt lat="-3.1518360" lon="37.3692400">
    <ele>3202.8</ele>
    <time>2026-06-23T12:18:32Z</time>
   </trkpt>
   <trkpt lat="-3.1518350" lon="37.3692400">
    <ele>3202.7</ele>
    <time>2026-06-23T12:18:33Z</time>
   </trkpt>
   <trkpt lat="-3.1518350" lon="37.3692400">
    <ele>3202.7</ele>
    <time>2026-06-23T12:18:34Z</time>
   </trkpt>
   <trkpt lat="-3.1518360" lon="37.3692400">
    <ele>3202.7</ele>
    <time>2026-06-23T12:18:35Z</time>
   </trkpt>
   <trkpt lat="-3.1518400" lon="37.3692410">
    <ele>3202.6</ele>
    <time>2026-06-23T12:18:36Z</time>
   </trkpt>
   <trkpt lat="-3.1518470" lon="37.3692410">
    <ele>3202.4</ele>
    <time>2026-06-23T12:18:37Z</time>
   </trkpt>
   <trkpt lat="-3.1518480" lon="37.3692390">
    <ele>3202.4</ele>
    <time>2026-06-23T12:18:38Z</time>
   </trkpt>
   <trkpt lat="-3.1518510" lon="37.3692400">
    <ele>3202.3</ele>
    <time>2026-06-23T12:18:39Z</time>
   </trkpt>
   <trkpt lat="-3.1518560" lon="37.3692390">
    <ele>3202.2</ele>
    <time>2026-06-23T12:18:40Z</time>
   </trkpt>
   <trkpt lat="-3.1518580" lon="37.3692390">
    <ele>3202.2</ele>
    <time>2026-06-23T12:18:41Z</time>
   </trkpt>
   <trkpt lat="-3.1518590" lon="37.3692390">
    <ele>3202.1</ele>
    <time>2026-06-23T12:18:42Z</time>
   </trkpt>
   <trkpt lat="-3.1518590" lon="37.3692390">
    <ele>3202.1</ele>
    <time>2026-06-23T12:18:43Z</time>
   </trkpt>
   <trkpt lat="-3.1518590" lon="37.3692390">
    <ele>3202.1</ele>
    <time>2026-06-23T12:18:44Z</time>
   </trkpt>
   <trkpt lat="-3.1518590" lon="37.3692390">
    <ele>3202.1</ele>
    <time>2026-06-23T12:18:45Z</time>
   </trkpt>
   <trkpt lat="-3.1518610" lon="37.3692380">
    <ele>3202.1</ele>
    <time>2026-06-23T12:18:46Z</time>
   </trkpt>
   <trkpt lat="-3.1518630" lon="37.3692390">
    <ele>3202.0</ele>
    <time>2026-06-23T12:18:47Z</time>
   </trkpt>
   <trkpt lat="-3.1518680" lon="37.3692360">
    <ele>3201.9</ele>
    <time>2026-06-23T12:18:48Z</time>
   </trkpt>
   <trkpt lat="-3.1518700" lon="37.3692370">
    <ele>3201.8</ele>
    <time>2026-06-23T12:18:49Z</time>
   </trkpt>
   <trkpt lat="-3.1518760" lon="37.3692280">
    <ele>3201.6</ele>
    <time>2026-06-23T12:18:50Z</time>
   </trkpt>
   <trkpt lat="-3.1518770" lon="37.3692280">
    <ele>3201.6</ele>
    <time>2026-06-23T12:18:51Z</time>
   </trkpt>
   <trkpt lat="-3.1518820" lon="37.3692250">
    <ele>3201.4</ele>
    <time>2026-06-23T12:18:52Z</time>
   </trkpt>
   <trkpt lat="-3.1518800" lon="37.3692270">
    <ele>3201.4</ele>
    <time>2026-06-23T12:18:53Z</time>
   </trkpt>
   <trkpt lat="-3.1518900" lon="37.3692190">
    <ele>3201.1</ele>
    <time>2026-06-23T12:18:54Z</time>
   </trkpt>
   <trkpt lat="-3.1518890" lon="37.3692200">
    <ele>3201.0</ele>
    <time>2026-06-23T12:18:55Z</time>
   </trkpt>
   <trkpt lat="-3.1518940" lon="37.3692170">
    <ele>3200.9</ele>
    <time>2026-06-23T12:18:56Z</time>
   </trkpt>
   <trkpt lat="-3.1518960" lon="37.3692150">
    <ele>3200.8</ele>
    <time>2026-06-23T12:18:57Z</time>
   </trkpt>
   <trkpt lat="-3.1519030" lon="37.3692110">
    <ele>3200.6</ele>
    <time>2026-06-23T12:18:58Z</time>
   </trkpt>
   <trkpt lat="-3.1519040" lon="37.3692130">
    <ele>3200.6</ele>
    <time>2026-06-23T12:18:59Z</time>
   </trkpt>
   <trkpt lat="-3.1519130" lon="37.3692090">
    <ele>3200.4</ele>
    <time>2026-06-23T12:19:00Z</time>
   </trkpt>
   <trkpt lat="-3.1519160" lon="37.3692060">
    <ele>3200.3</ele>
    <time>2026-06-23T12:19:01Z</time>
   </trkpt>
   <trkpt lat="-3.1519220" lon="37.3692070">
    <ele>3200.1</ele>
    <time>2026-06-23T12:19:02Z</time>
   </trkpt>
   <trkpt lat="-3.1519280" lon="37.3692040">
    <ele>3200.0</ele>
    <time>2026-06-23T12:19:03Z</time>
   </trkpt>
   <trkpt lat="-3.1519290" lon="37.3692050">
    <ele>3199.9</ele>
    <time>2026-06-23T12:19:04Z</time>
   </trkpt>
   <trkpt lat="-3.1519360" lon="37.3692040">
    <ele>3199.8</ele>
    <time>2026-06-23T12:19:05Z</time>
   </trkpt>
   <trkpt lat="-3.1519390" lon="37.3692040">
    <ele>3199.7</ele>
    <time>2026-06-23T12:19:06Z</time>
   </trkpt>
   <trkpt lat="-3.1519470" lon="37.3692020">
    <ele>3199.5</ele>
    <time>2026-06-23T12:19:07Z</time>
   </trkpt>
   <trkpt lat="-3.1519520" lon="37.3692010">
    <ele>3199.4</ele>
    <time>2026-06-23T12:19:08Z</time>
   </trkpt>
   <trkpt lat="-3.1519520" lon="37.3692030">
    <ele>3199.3</ele>
    <time>2026-06-23T12:19:09Z</time>
   </trkpt>
   <trkpt lat="-3.1519550" lon="37.3692000">
    <ele>3199.2</ele>
    <time>2026-06-23T12:19:10Z</time>
   </trkpt>
   <trkpt lat="-3.1519690" lon="37.3691970">
    <ele>3198.9</ele>
    <time>2026-06-23T12:19:11Z</time>
   </trkpt>
   <trkpt lat="-3.1519730" lon="37.3691950">
    <ele>3198.8</ele>
    <time>2026-06-23T12:19:12Z</time>
   </trkpt>
   <trkpt lat="-3.1519770" lon="37.3691930">
    <ele>3198.7</ele>
    <time>2026-06-23T12:19:13Z</time>
   </trkpt>
   <trkpt lat="-3.1519820" lon="37.3691940">
    <ele>3198.6</ele>
    <time>2026-06-23T12:19:14Z</time>
   </trkpt>
   <trkpt lat="-3.1519920" lon="37.3691900">
    <ele>3198.3</ele>
    <time>2026-06-23T12:19:15Z</time>
   </trkpt>
   <trkpt lat="-3.1519990" lon="37.3691900">
    <ele>3198.1</ele>
    <time>2026-06-23T12:19:16Z</time>
   </trkpt>
   <trkpt lat="-3.1520020" lon="37.3691890">
    <ele>3198.1</ele>
    <time>2026-06-23T12:19:17Z</time>
   </trkpt>
   <trkpt lat="-3.1520070" lon="37.3691860">
    <ele>3197.9</ele>
    <time>2026-06-23T12:19:18Z</time>
   </trkpt>
   <trkpt lat="-3.1520110" lon="37.3691780">
    <ele>3197.7</ele>
    <time>2026-06-23T12:19:19Z</time>
   </trkpt>
   <trkpt lat="-3.1520130" lon="37.3691740">
    <ele>3197.6</ele>
    <time>2026-06-23T12:19:20Z</time>
   </trkpt>
   <trkpt lat="-3.1520170" lon="37.3691660">
    <ele>3197.4</ele>
    <time>2026-06-23T12:19:21Z</time>
   </trkpt>
   <trkpt lat="-3.1520230" lon="37.3691640">
    <ele>3197.2</ele>
    <time>2026-06-23T12:19:22Z</time>
   </trkpt>
   <trkpt lat="-3.1520270" lon="37.3691590">
    <ele>3197.1</ele>
    <time>2026-06-23T12:19:23Z</time>
   </trkpt>
   <trkpt lat="-3.1520310" lon="37.3691550">
    <ele>3197.0</ele>
    <time>2026-06-23T12:19:24Z</time>
   </trkpt>
   <trkpt lat="-3.1520300" lon="37.3691530">
    <ele>3196.9</ele>
    <time>2026-06-23T12:19:25Z</time>
   </trkpt>
   <trkpt lat="-3.1520360" lon="37.3691420">
    <ele>3196.6</ele>
    <time>2026-06-23T12:19:26Z</time>
   </trkpt>
   <trkpt lat="-3.1520400" lon="37.3691380">
    <ele>3196.5</ele>
    <time>2026-06-23T12:19:27Z</time>
   </trkpt>
   <trkpt lat="-3.1520460" lon="37.3691330">
    <ele>3196.3</ele>
    <time>2026-06-23T12:19:28Z</time>
   </trkpt>
   <trkpt lat="-3.1520520" lon="37.3691300">
    <ele>3196.1</ele>
    <time>2026-06-23T12:19:29Z</time>
   </trkpt>
   <trkpt lat="-3.1520590" lon="37.3691240">
    <ele>3195.9</ele>
    <time>2026-06-23T12:19:30Z</time>
   </trkpt>
   <trkpt lat="-3.1520670" lon="37.3691240">
    <ele>3195.7</ele>
    <time>2026-06-23T12:19:31Z</time>
   </trkpt>
   <trkpt lat="-3.1520720" lon="37.3691260">
    <ele>3195.5</ele>
    <time>2026-06-23T12:19:32Z</time>
   </trkpt>
   <trkpt lat="-3.1520800" lon="37.3691280">
    <ele>3195.3</ele>
    <time>2026-06-23T12:19:33Z</time>
   </trkpt>
   <trkpt lat="-3.1520810" lon="37.3691290">
    <ele>3195.3</ele>
    <time>2026-06-23T12:19:34Z</time>
   </trkpt>
   <trkpt lat="-3.1520850" lon="37.3691310">
    <ele>3195.2</ele>
    <time>2026-06-23T12:19:35Z</time>
   </trkpt>
   <trkpt lat="-3.1520920" lon="37.3691330">
    <ele>3195.0</ele>
    <time>2026-06-23T12:19:36Z</time>
   </trkpt>
   <trkpt lat="-3.1520990" lon="37.3691300">
    <ele>3194.8</ele>
    <time>2026-06-23T12:19:37Z</time>
   </trkpt>
   <trkpt lat="-3.1521090" lon="37.3691260">
    <ele>3194.5</ele>
    <time>2026-06-23T12:19:38Z</time>
   </trkpt>
   <trkpt lat="-3.1521130" lon="37.3691240">
    <ele>3194.4</ele>
    <time>2026-06-23T12:19:39Z</time>
   </trkpt>
   <trkpt lat="-3.1521180" lon="37.3691260">
    <ele>3194.3</ele>
    <time>2026-06-23T12:19:40Z</time>
   </trkpt>
   <trkpt lat="-3.1521270" lon="37.3691250">
    <ele>3194.1</ele>
    <time>2026-06-23T12:19:41Z</time>
   </trkpt>
   <trkpt lat="-3.1521330" lon="37.3691300">
    <ele>3193.9</ele>
    <time>2026-06-23T12:19:42Z</time>
   </trkpt>
   <trkpt lat="-3.1521400" lon="37.3691330">
    <ele>3193.7</ele>
    <time>2026-06-23T12:19:43Z</time>
   </trkpt>
   <trkpt lat="-3.1521420" lon="37.3691370">
    <ele>3193.6</ele>
    <time>2026-06-23T12:19:44Z</time>
   </trkpt>
   <trkpt lat="-3.1521420" lon="37.3691420">
    <ele>3193.4</ele>
    <time>2026-06-23T12:19:45Z</time>
   </trkpt>
   <trkpt lat="-3.1521470" lon="37.3691460">
    <ele>3193.3</ele>
    <time>2026-06-23T12:19:46Z</time>
   </trkpt>
   <trkpt lat="-3.1521510" lon="37.3691480">
    <ele>3193.2</ele>
    <time>2026-06-23T12:19:47Z</time>
   </trkpt>
   <trkpt lat="-3.1521560" lon="37.3691510">
    <ele>3193.0</ele>
    <time>2026-06-23T12:19:48Z</time>
   </trkpt>
   <trkpt lat="-3.1521610" lon="37.3691490">
    <ele>3192.9</ele>
    <time>2026-06-23T12:19:49Z</time>
   </trkpt>
   <trkpt lat="-3.1521630" lon="37.3691510">
    <ele>3192.8</ele>
    <time>2026-06-23T12:19:50Z</time>
   </trkpt>
   <trkpt lat="-3.1521700" lon="37.3691480">
    <ele>3192.6</ele>
    <time>2026-06-23T12:19:51Z</time>
   </trkpt>
   <trkpt lat="-3.1521750" lon="37.3691440">
    <ele>3192.5</ele>
    <time>2026-06-23T12:19:52Z</time>
   </trkpt>
   <trkpt lat="-3.1521770" lon="37.3691410">
    <ele>3192.4</ele>
    <time>2026-06-23T12:19:53Z</time>
   </trkpt>
   <trkpt lat="-3.1521790" lon="37.3691380">
    <ele>3192.3</ele>
    <time>2026-06-23T12:19:54Z</time>
   </trkpt>
   <trkpt lat="-3.1521800" lon="37.3691350">
    <ele>3192.2</ele>
    <time>2026-06-23T12:19:55Z</time>
   </trkpt>
   <trkpt lat="-3.1521870" lon="37.3691400">
    <ele>3192.0</ele>
    <time>2026-06-23T12:19:56Z</time>
   </trkpt>
   <trkpt lat="-3.1521860" lon="37.3691400">
    <ele>3192.0</ele>
    <time>2026-06-23T12:19:57Z</time>
   </trkpt>
   <trkpt lat="-3.1521890" lon="37.3691450">
    <ele>3191.8</ele>
    <time>2026-06-23T12:19:58Z</time>
   </trkpt>
   <trkpt lat="-3.1522010" lon="37.3691410">
    <ele>3191.5</ele>
    <time>2026-06-23T12:19:59Z</time>
   </trkpt>
   <trkpt lat="-3.1522040" lon="37.3691420">
    <ele>3191.4</ele>
    <time>2026-06-23T12:20:00Z</time>
   </trkpt>
   <trkpt lat="-3.1522060" lon="37.3691450">
    <ele>3191.3</ele>
    <time>2026-06-23T12:20:01Z</time>
   </trkpt>
   <trkpt lat="-3.1522140" lon="37.3691490">
    <ele>3191.1</ele>
    <time>2026-06-23T12:20:02Z</time>
   </trkpt>
   <trkpt lat="-3.1522200" lon="37.3691500">
    <ele>3191.0</ele>
    <time>2026-06-23T12:20:03Z</time>
   </trkpt>
   <trkpt lat="-3.1522250" lon="37.3691550">
    <ele>3190.8</ele>
    <time>2026-06-23T12:20:04Z</time>
   </trkpt>
   <trkpt lat="-3.1522290" lon="37.3691550">
    <ele>3190.7</ele>
    <time>2026-06-23T12:20:05Z</time>
   </trkpt>
   <trkpt lat="-3.1522360" lon="37.3691500">
    <ele>3190.5</ele>
    <time>2026-06-23T12:20:06Z</time>
   </trkpt>
   <trkpt lat="-3.1522450" lon="37.3691470">
    <ele>3190.2</ele>
    <time>2026-06-23T12:20:07Z</time>
   </trkpt>
   <trkpt lat="-3.1522480" lon="37.3691470">
    <ele>3190.2</ele>
    <time>2026-06-23T12:20:08Z</time>
   </trkpt>
   <trkpt lat="-3.1522530" lon="37.3691460">
    <ele>3190.0</ele>
    <time>2026-06-23T12:20:09Z</time>
   </trkpt>
   <trkpt lat="-3.1522600" lon="37.3691450">
    <ele>3189.8</ele>
    <time>2026-06-23T12:20:10Z</time>
   </trkpt>
   <trkpt lat="-3.1522630" lon="37.3691440">
    <ele>3189.8</ele>
    <time>2026-06-23T12:20:11Z</time>
   </trkpt>
   <trkpt lat="-3.1522690" lon="37.3691440">
    <ele>3189.6</ele>
    <time>2026-06-23T12:20:12Z</time>
   </trkpt>
   <trkpt lat="-3.1522740" lon="37.3691400">
    <ele>3189.5</ele>
    <time>2026-06-23T12:20:13Z</time>
   </trkpt>
   <trkpt lat="-3.1522780" lon="37.3691370">
    <ele>3189.3</ele>
    <time>2026-06-23T12:20:14Z</time>
   </trkpt>
   <trkpt lat="-3.1522820" lon="37.3691360">
    <ele>3189.2</ele>
    <time>2026-06-23T12:20:15Z</time>
   </trkpt>
   <trkpt lat="-3.1522880" lon="37.3691320">
    <ele>3189.1</ele>
    <time>2026-06-23T12:20:16Z</time>
   </trkpt>
   <trkpt lat="-3.1522940" lon="37.3691330">
    <ele>3188.9</ele>
    <time>2026-06-23T12:20:17Z</time>
   </trkpt>
   <trkpt lat="-3.1522980" lon="37.3691350">
    <ele>3188.8</ele>
    <time>2026-06-23T12:20:18Z</time>
   </trkpt>
   <trkpt lat="-3.1522980" lon="37.3691370">
    <ele>3188.7</ele>
    <time>2026-06-23T12:20:19Z</time>
   </trkpt>
   <trkpt lat="-3.1523010" lon="37.3691410">
    <ele>3188.6</ele>
    <time>2026-06-23T12:20:20Z</time>
   </trkpt>
   <trkpt lat="-3.1523060" lon="37.3691430">
    <ele>3188.5</ele>
    <time>2026-06-23T12:20:21Z</time>
   </trkpt>
   <trkpt lat="-3.1523090" lon="37.3691480">
    <ele>3188.3</ele>
    <time>2026-06-23T12:20:22Z</time>
   </trkpt>
   <trkpt lat="-3.1523120" lon="37.3691510">
    <ele>3188.2</ele>
    <time>2026-06-23T12:20:23Z</time>
   </trkpt>
   <trkpt lat="-3.1523180" lon="37.3691490">
    <ele>3188.1</ele>
    <time>2026-06-23T12:20:24Z</time>
   </trkpt>
   <trkpt lat="-3.1523260" lon="37.3691480">
    <ele>3187.9</ele>
    <time>2026-06-23T12:20:25Z</time>
   </trkpt>
   <trkpt lat="-3.1523310" lon="37.3691440">
    <ele>3187.7</ele>
    <time>2026-06-23T12:20:26Z</time>
   </trkpt>
   <trkpt lat="-3.1523390" lon="37.3691410">
    <ele>3187.5</ele>
    <time>2026-06-23T12:20:27Z</time>
   </trkpt>
   <trkpt lat="-3.1523470" lon="37.3691360">
    <ele>3187.2</ele>
    <time>2026-06-23T12:20:28Z</time>
   </trkpt>
   <trkpt lat="-3.1523540" lon="37.3691340">
    <ele>3187.1</ele>
    <time>2026-06-23T12:20:29Z</time>
   </trkpt>
   <trkpt lat="-3.1523620" lon="37.3691320">
    <ele>3186.8</ele>
    <time>2026-06-23T12:20:30Z</time>
   </trkpt>
   <trkpt lat="-3.1523680" lon="37.3691320">
    <ele>3186.7</ele>
    <time>2026-06-23T12:20:31Z</time>
   </trkpt>
   <trkpt lat="-3.1523740" lon="37.3691340">
    <ele>3186.5</ele>
    <time>2026-06-23T12:20:32Z</time>
   </trkpt>
   <trkpt lat="-3.1523810" lon="37.3691340">
    <ele>3186.3</ele>
    <time>2026-06-23T12:20:33Z</time>
   </trkpt>
   <trkpt lat="-3.1523850" lon="37.3691350">
    <ele>3186.2</ele>
    <time>2026-06-23T12:20:34Z</time>
   </trkpt>
   <trkpt lat="-3.1523910" lon="37.3691350">
    <ele>3186.1</ele>
    <time>2026-06-23T12:20:35Z</time>
   </trkpt>
   <trkpt lat="-3.1523940" lon="37.3691350">
    <ele>3186.0</ele>
    <time>2026-06-23T12:20:36Z</time>
   </trkpt>
   <trkpt lat="-3.1523990" lon="37.3691360">
    <ele>3185.9</ele>
    <time>2026-06-23T12:20:37Z</time>
   </trkpt>
   <trkpt lat="-3.1524050" lon="37.3691370">
    <ele>3185.7</ele>
    <time>2026-06-23T12:20:38Z</time>
   </trkpt>
   <trkpt lat="-3.1524080" lon="37.3691380">
    <ele>3185.6</ele>
    <time>2026-06-23T12:20:39Z</time>
   </trkpt>
   <trkpt lat="-3.1524110" lon="37.3691400">
    <ele>3185.5</ele>
    <time>2026-06-23T12:20:40Z</time>
   </trkpt>
   <trkpt lat="-3.1524140" lon="37.3691420">
    <ele>3185.4</ele>
    <time>2026-06-23T12:20:41Z</time>
   </trkpt>
   <trkpt lat="-3.1524220" lon="37.3691460">
    <ele>3185.2</ele>
    <time>2026-06-23T12:20:42Z</time>
   </trkpt>
   <trkpt lat="-3.1524290" lon="37.3691500">
    <ele>3184.9</ele>
    <time>2026-06-23T12:20:43Z</time>
   </trkpt>
   <trkpt lat="-3.1524350" lon="37.3691510">
    <ele>3184.8</ele>
    <time>2026-06-23T12:20:44Z</time>
   </trkpt>
   <trkpt lat="-3.1524400" lon="37.3691490">
    <ele>3184.6</ele>
    <time>2026-06-23T12:20:45Z</time>
   </trkpt>
   <trkpt lat="-3.1524480" lon="37.3691510">
    <ele>3184.4</ele>
    <time>2026-06-23T12:20:46Z</time>
   </trkpt>
   <trkpt lat="-3.1524520" lon="37.3691540">
    <ele>3184.3</ele>
    <time>2026-06-23T12:20:47Z</time>
   </trkpt>
   <trkpt lat="-3.1524580" lon="37.3691560">
    <ele>3184.1</ele>
    <time>2026-06-23T12:20:48Z</time>
   </trkpt>
   <trkpt lat="-3.1524610" lon="37.3691530">
    <ele>3184.0</ele>
    <time>2026-06-23T12:20:49Z</time>
   </trkpt>
   <trkpt lat="-3.1524640" lon="37.3691510">
    <ele>3183.9</ele>
    <time>2026-06-23T12:20:50Z</time>
   </trkpt>
   <trkpt lat="-3.1524620" lon="37.3691570">
    <ele>3183.7</ele>
    <time>2026-06-23T12:20:51Z</time>
   </trkpt>
   <trkpt lat="-3.1524690" lon="37.3691600">
    <ele>3183.5</ele>
    <time>2026-06-23T12:20:52Z</time>
   </trkpt>
   <trkpt lat="-3.1524710" lon="37.3691630">
    <ele>3183.4</ele>
    <time>2026-06-23T12:20:53Z</time>
   </trkpt>
   <trkpt lat="-3.1524760" lon="37.3691640">
    <ele>3183.3</ele>
    <time>2026-06-23T12:20:54Z</time>
   </trkpt>
   <trkpt lat="-3.1524800" lon="37.3691660">
    <ele>3183.2</ele>
    <time>2026-06-23T12:20:55Z</time>
   </trkpt>
   <trkpt lat="-3.1524810" lon="37.3691650">
    <ele>3183.1</ele>
    <time>2026-06-23T12:20:56Z</time>
   </trkpt>
   <trkpt lat="-3.1524830" lon="37.3691650">
    <ele>3183.1</ele>
    <time>2026-06-23T12:20:57Z</time>
   </trkpt>
   <trkpt lat="-3.1524900" lon="37.3691710">
    <ele>3182.8</ele>
    <time>2026-06-23T12:20:58Z</time>
   </trkpt>
   <trkpt lat="-3.1524930" lon="37.3691750">
    <ele>3182.7</ele>
    <time>2026-06-23T12:20:59Z</time>
   </trkpt>
   <trkpt lat="-3.1525010" lon="37.3691740">
    <ele>3182.5</ele>
    <time>2026-06-23T12:21:00Z</time>
   </trkpt>
   <trkpt lat="-3.1525050" lon="37.3691760">
    <ele>3182.3</ele>
    <time>2026-06-23T12:21:01Z</time>
   </trkpt>
   <trkpt lat="-3.1525080" lon="37.3691800">
    <ele>3182.2</ele>
    <time>2026-06-23T12:21:02Z</time>
   </trkpt>
   <trkpt lat="-3.1525090" lon="37.3691840">
    <ele>3182.1</ele>
    <time>2026-06-23T12:21:03Z</time>
   </trkpt>
   <trkpt lat="-3.1525120" lon="37.3691870">
    <ele>3182.0</ele>
    <time>2026-06-23T12:21:04Z</time>
   </trkpt>
   <trkpt lat="-3.1525150" lon="37.3691880">
    <ele>3181.9</ele>
    <time>2026-06-23T12:21:05Z</time>
   </trkpt>
   <trkpt lat="-3.1525180" lon="37.3691860">
    <ele>3181.8</ele>
    <time>2026-06-23T12:21:06Z</time>
   </trkpt>
   <trkpt lat="-3.1525230" lon="37.3691970">
    <ele>3181.5</ele>
    <time>2026-06-23T12:21:07Z</time>
   </trkpt>
   <trkpt lat="-3.1525250" lon="37.3691920">
    <ele>3181.3</ele>
    <time>2026-06-23T12:21:08Z</time>
   </trkpt>
   <trkpt lat="-3.1525300" lon="37.3691920">
    <ele>3181.2</ele>
    <time>2026-06-23T12:21:09Z</time>
   </trkpt>
   <trkpt lat="-3.1525290" lon="37.3691890">
    <ele>3181.1</ele>
    <time>2026-06-23T12:21:10Z</time>
   </trkpt>
   <trkpt lat="-3.1525290" lon="37.3691840">
    <ele>3181.0</ele>
    <time>2026-06-23T12:21:11Z</time>
   </trkpt>
   <trkpt lat="-3.1525260" lon="37.3691820">
    <ele>3180.9</ele>
    <time>2026-06-23T12:21:12Z</time>
   </trkpt>
   <trkpt lat="-3.1525200" lon="37.3691790">
    <ele>3180.7</ele>
    <time>2026-06-23T12:21:13Z</time>
   </trkpt>
   <trkpt lat="-3.1525150" lon="37.3691780">
    <ele>3180.6</ele>
    <time>2026-06-23T12:21:14Z</time>
   </trkpt>
   <trkpt lat="-3.1525130" lon="37.3691780">
    <ele>3180.6</ele>
    <time>2026-06-23T12:21:15Z</time>
   </trkpt>
   <trkpt lat="-3.1525120" lon="37.3691770">
    <ele>3180.5</ele>
    <time>2026-06-23T12:21:16Z</time>
   </trkpt>
   <trkpt lat="-3.1525110" lon="37.3691760">
    <ele>3180.5</ele>
    <time>2026-06-23T12:21:17Z</time>
   </trkpt>
   <trkpt lat="-3.1525100" lon="37.3691760">
    <ele>3180.5</ele>
    <time>2026-06-23T12:21:18Z</time>
   </trkpt>
   <trkpt lat="-3.1525100" lon="37.3691760">
    <ele>3180.5</ele>
    <time>2026-06-23T12:21:19Z</time>
   </trkpt>
   <trkpt lat="-3.1525080" lon="37.3691780">
    <ele>3180.4</ele>
    <time>2026-06-23T12:21:20Z</time>
   </trkpt>
   <trkpt lat="-3.1525060" lon="37.3691780">
    <ele>3180.4</ele>
    <time>2026-06-23T12:21:21Z</time>
   </trkpt>
   <trkpt lat="-3.1525060" lon="37.3691780">
    <ele>3180.4</ele>
    <time>2026-06-23T12:21:22Z</time>
   </trkpt>
   <trkpt lat="-3.1525060" lon="37.3691780">
    <ele>3180.4</ele>
    <time>2026-06-23T12:21:23Z</time>
   </trkpt>
   <trkpt lat="-3.1525060" lon="37.3691780">
    <ele>3180.4</ele>
    <time>2026-06-23T12:21:24Z</time>
   </trkpt>
   <trkpt lat="-3.1525060" lon="37.3691800">
    <ele>3180.3</ele>
    <time>2026-06-23T12:21:25Z</time>
   </trkpt>
   <trkpt lat="-3.1525060" lon="37.3691810">
    <ele>3180.3</ele>
    <time>2026-06-23T12:21:26Z</time>
   </trkpt>
   <trkpt lat="-3.1525060" lon="37.3691800">
    <ele>3180.3</ele>
    <time>2026-06-23T12:21:27Z</time>
   </trkpt>
   <trkpt lat="-3.1525050" lon="37.3691800">
    <ele>3180.2</ele>
    <time>2026-06-23T12:21:28Z</time>
   </trkpt>
   <trkpt lat="-3.1525060" lon="37.3691840">
    <ele>3180.1</ele>
    <time>2026-06-23T12:21:29Z</time>
   </trkpt>
   <trkpt lat="-3.1525090" lon="37.3691840">
    <ele>3180.1</ele>
    <time>2026-06-23T12:21:30Z</time>
   </trkpt>
   <trkpt lat="-3.1525110" lon="37.3691890">
    <ele>3179.9</ele>
    <time>2026-06-23T12:21:31Z</time>
   </trkpt>
   <trkpt lat="-3.1525160" lon="37.3691910">
    <ele>3179.8</ele>
    <time>2026-06-23T12:21:32Z</time>
   </trkpt>
   <trkpt lat="-3.1525240" lon="37.3691900">
    <ele>3179.6</ele>
    <time>2026-06-23T12:21:33Z</time>
   </trkpt>
   <trkpt lat="-3.1525290" lon="37.3691900">
    <ele>3179.5</ele>
    <time>2026-06-23T12:21:34Z</time>
   </trkpt>
   <trkpt lat="-3.1525360" lon="37.3691920">
    <ele>3179.3</ele>
    <time>2026-06-23T12:21:35Z</time>
   </trkpt>
   <trkpt lat="-3.1525400" lon="37.3691930">
    <ele>3179.2</ele>
    <time>2026-06-23T12:21:36Z</time>
   </trkpt>
   <trkpt lat="-3.1525450" lon="37.3691960">
    <ele>3179.1</ele>
    <time>2026-06-23T12:21:37Z</time>
   </trkpt>
   <trkpt lat="-3.1525480" lon="37.3691970">
    <ele>3179.0</ele>
    <time>2026-06-23T12:21:38Z</time>
   </trkpt>
   <trkpt lat="-3.1525560" lon="37.3691980">
    <ele>3178.9</ele>
    <time>2026-06-23T12:21:39Z</time>
   </trkpt>
   <trkpt lat="-3.1525630" lon="37.3692000">
    <ele>3178.7</ele>
    <time>2026-06-23T12:21:40Z</time>
   </trkpt>
   <trkpt lat="-3.1525630" lon="37.3692050">
    <ele>3178.6</ele>
    <time>2026-06-23T12:21:41Z</time>
   </trkpt>
   <trkpt lat="-3.1525690" lon="37.3692070">
    <ele>3178.4</ele>
    <time>2026-06-23T12:21:42Z</time>
   </trkpt>
   <trkpt lat="-3.1525730" lon="37.3692110">
    <ele>3178.3</ele>
    <time>2026-06-23T12:21:43Z</time>
   </trkpt>
   <trkpt lat="-3.1525770" lon="37.3692140">
    <ele>3178.2</ele>
    <time>2026-06-23T12:21:44Z</time>
   </trkpt>
   <trkpt lat="-3.1525840" lon="37.3692160">
    <ele>3178.1</ele>
    <time>2026-06-23T12:21:45Z</time>
   </trkpt>
   <trkpt lat="-3.1525900" lon="37.3692170">
    <ele>3177.9</ele>
    <time>2026-06-23T12:21:46Z</time>
   </trkpt>
   <trkpt lat="-3.1525990" lon="37.3692170">
    <ele>3177.8</ele>
    <time>2026-06-23T12:21:47Z</time>
   </trkpt>
   <trkpt lat="-3.1526030" lon="37.3692180">
    <ele>3177.7</ele>
    <time>2026-06-23T12:21:48Z</time>
   </trkpt>
   <trkpt lat="-3.1526090" lon="37.3692210">
    <ele>3177.5</ele>
    <time>2026-06-23T12:21:49Z</time>
   </trkpt>
   <trkpt lat="-3.1526150" lon="37.3692220">
    <ele>3177.4</ele>
    <time>2026-06-23T12:21:50Z</time>
   </trkpt>
   <trkpt lat="-3.1526210" lon="37.3692230">
    <ele>3177.3</ele>
    <time>2026-06-23T12:21:51Z</time>
   </trkpt>
   <trkpt lat="-3.1526280" lon="37.3692260">
    <ele>3177.1</ele>
    <time>2026-06-23T12:21:52Z</time>
   </trkpt>
   <trkpt lat="-3.1526300" lon="37.3692280">
    <ele>3177.1</ele>
    <time>2026-06-23T12:21:53Z</time>
   </trkpt>
   <trkpt lat="-3.1526370" lon="37.3692340">
    <ele>3176.9</ele>
    <time>2026-06-23T12:21:54Z</time>
   </trkpt>
   <trkpt lat="-3.1526400" lon="37.3692330">
    <ele>3176.9</ele>
    <time>2026-06-23T12:21:55Z</time>
   </trkpt>
   <trkpt lat="-3.1526450" lon="37.3692360">
    <ele>3176.7</ele>
    <time>2026-06-23T12:21:56Z</time>
   </trkpt>
   <trkpt lat="-3.1526500" lon="37.3692390">
    <ele>3176.6</ele>
    <time>2026-06-23T12:21:57Z</time>
   </trkpt>
   <trkpt lat="-3.1526590" lon="37.3692410">
    <ele>3176.5</ele>
    <time>2026-06-23T12:21:58Z</time>
   </trkpt>
   <trkpt lat="-3.1526630" lon="37.3692420">
    <ele>3176.4</ele>
    <time>2026-06-23T12:21:59Z</time>
   </trkpt>
   <trkpt lat="-3.1526670" lon="37.3692440">
    <ele>3176.3</ele>
    <time>2026-06-23T12:22:00Z</time>
   </trkpt>
   <trkpt lat="-3.1526760" lon="37.3692480">
    <ele>3176.1</ele>
    <time>2026-06-23T12:22:01Z</time>
   </trkpt>
   <trkpt lat="-3.1526780" lon="37.3692510">
    <ele>3176.1</ele>
    <time>2026-06-23T12:22:02Z</time>
   </trkpt>
   <trkpt lat="-3.1526880" lon="37.3692560">
    <ele>3175.9</ele>
    <time>2026-06-23T12:22:03Z</time>
   </trkpt>
   <trkpt lat="-3.1526950" lon="37.3692600">
    <ele>3175.7</ele>
    <time>2026-06-23T12:22:04Z</time>
   </trkpt>
   <trkpt lat="-3.1526990" lon="37.3692650">
    <ele>3175.6</ele>
    <time>2026-06-23T12:22:05Z</time>
   </trkpt>
   <trkpt lat="-3.1527010" lon="37.3692710">
    <ele>3175.5</ele>
    <time>2026-06-23T12:22:06Z</time>
   </trkpt>
   <trkpt lat="-3.1527030" lon="37.3692780">
    <ele>3175.3</ele>
    <time>2026-06-23T12:22:07Z</time>
   </trkpt>
   <trkpt lat="-3.1527030" lon="37.3692830">
    <ele>3175.2</ele>
    <time>2026-06-23T12:22:08Z</time>
   </trkpt>
   <trkpt lat="-3.1527020" lon="37.3692820">
    <ele>3175.2</ele>
    <time>2026-06-23T12:22:09Z</time>
   </trkpt>
   <trkpt lat="-3.1527010" lon="37.3692870">
    <ele>3175.1</ele>
    <time>2026-06-23T12:22:10Z</time>
   </trkpt>
   <trkpt lat="-3.1526980" lon="37.3692990">
    <ele>3174.9</ele>
    <time>2026-06-23T12:22:11Z</time>
   </trkpt>
   <trkpt lat="-3.1527050" lon="37.3692960">
    <ele>3174.8</ele>
    <time>2026-06-23T12:22:12Z</time>
   </trkpt>
   <trkpt lat="-3.1527110" lon="37.3693070">
    <ele>3174.5</ele>
    <time>2026-06-23T12:22:13Z</time>
   </trkpt>
   <trkpt lat="-3.1527160" lon="37.3693090">
    <ele>3174.4</ele>
    <time>2026-06-23T12:22:14Z</time>
   </trkpt>
   <trkpt lat="-3.1527270" lon="37.3693150">
    <ele>3174.2</ele>
    <time>2026-06-23T12:22:15Z</time>
   </trkpt>
   <trkpt lat="-3.1527350" lon="37.3693140">
    <ele>3174.0</ele>
    <time>2026-06-23T12:22:16Z</time>
   </trkpt>
   <trkpt lat="-3.1527440" lon="37.3693190">
    <ele>3173.9</ele>
    <time>2026-06-23T12:22:17Z</time>
   </trkpt>
   <trkpt lat="-3.1527530" lon="37.3693220">
    <ele>3173.7</ele>
    <time>2026-06-23T12:22:18Z</time>
   </trkpt>
   <trkpt lat="-3.1527600" lon="37.3693230">
    <ele>3173.6</ele>
    <time>2026-06-23T12:22:19Z</time>
   </trkpt>
   <trkpt lat="-3.1527690" lon="37.3693220">
    <ele>3173.4</ele>
    <time>2026-06-23T12:22:20Z</time>
   </trkpt>
   <trkpt lat="-3.1527770" lon="37.3693180">
    <ele>3173.2</ele>
    <time>2026-06-23T12:22:21Z</time>
   </trkpt>
   <trkpt lat="-3.1527830" lon="37.3693170">
    <ele>3173.1</ele>
    <time>2026-06-23T12:22:22Z</time>
   </trkpt>
   <trkpt lat="-3.1527900" lon="37.3693170">
    <ele>3172.9</ele>
    <time>2026-06-23T12:22:23Z</time>
   </trkpt>
   <trkpt lat="-3.1527950" lon="37.3693180">
    <ele>3172.8</ele>
    <time>2026-06-23T12:22:24Z</time>
   </trkpt>
   <trkpt lat="-3.1528000" lon="37.3693180">
    <ele>3172.7</ele>
    <time>2026-06-23T12:22:25Z</time>
   </trkpt>
   <trkpt lat="-3.1528060" lon="37.3693090">
    <ele>3172.5</ele>
    <time>2026-06-23T12:22:26Z</time>
   </trkpt>
   <trkpt lat="-3.1528150" lon="37.3693100">
    <ele>3172.4</ele>
    <time>2026-06-23T12:22:27Z</time>
   </trkpt>
   <trkpt lat="-3.1528190" lon="37.3693110">
    <ele>3172.3</ele>
    <time>2026-06-23T12:22:28Z</time>
   </trkpt>
   <trkpt lat="-3.1528270" lon="37.3693140">
    <ele>3172.1</ele>
    <time>2026-06-23T12:22:29Z</time>
   </trkpt>
   <trkpt lat="-3.1528350" lon="37.3693170">
    <ele>3171.9</ele>
    <time>2026-06-23T12:22:30Z</time>
   </trkpt>
   <trkpt lat="-3.1528390" lon="37.3693200">
    <ele>3171.8</ele>
    <time>2026-06-23T12:22:31Z</time>
   </trkpt>
   <trkpt lat="-3.1528440" lon="37.3693290">
    <ele>3171.6</ele>
    <time>2026-06-23T12:22:32Z</time>
   </trkpt>
   <trkpt lat="-3.1528500" lon="37.3693380">
    <ele>3171.4</ele>
    <time>2026-06-23T12:22:33Z</time>
   </trkpt>
   <trkpt lat="-3.1528530" lon="37.3693410">
    <ele>3171.3</ele>
    <time>2026-06-23T12:22:34Z</time>
   </trkpt>
   <trkpt lat="-3.1528570" lon="37.3693430">
    <ele>3171.2</ele>
    <time>2026-06-23T12:22:35Z</time>
   </trkpt>
   <trkpt lat="-3.1528650" lon="37.3693470">
    <ele>3171.1</ele>
    <time>2026-06-23T12:22:36Z</time>
   </trkpt>
   <trkpt lat="-3.1528730" lon="37.3693480">
    <ele>3170.9</ele>
    <time>2026-06-23T12:22:37Z</time>
   </trkpt>
   <trkpt lat="-3.1528820" lon="37.3693490">
    <ele>3170.7</ele>
    <time>2026-06-23T12:22:38Z</time>
   </trkpt>
   <trkpt lat="-3.1528880" lon="37.3693510">
    <ele>3170.6</ele>
    <time>2026-06-23T12:22:39Z</time>
   </trkpt>
   <trkpt lat="-3.1528910" lon="37.3693510">
    <ele>3170.5</ele>
    <time>2026-06-23T12:22:40Z</time>
   </trkpt>
   <trkpt lat="-3.1528940" lon="37.3693520">
    <ele>3170.5</ele>
    <time>2026-06-23T12:22:41Z</time>
   </trkpt>
   <trkpt lat="-3.1528980" lon="37.3693570">
    <ele>3170.3</ele>
    <time>2026-06-23T12:22:42Z</time>
   </trkpt>
   <trkpt lat="-3.1529050" lon="37.3693640">
    <ele>3170.2</ele>
    <time>2026-06-23T12:22:43Z</time>
   </trkpt>
   <trkpt lat="-3.1529120" lon="37.3693720">
    <ele>3169.9</ele>
    <time>2026-06-23T12:22:44Z</time>
   </trkpt>
   <trkpt lat="-3.1529190" lon="37.3693780">
    <ele>3169.8</ele>
    <time>2026-06-23T12:22:45Z</time>
   </trkpt>
   <trkpt lat="-3.1529270" lon="37.3693840">
    <ele>3169.6</ele>
    <time>2026-06-23T12:22:46Z</time>
   </trkpt>
   <trkpt lat="-3.1529330" lon="37.3693860">
    <ele>3169.4</ele>
    <time>2026-06-23T12:22:47Z</time>
   </trkpt>
   <trkpt lat="-3.1529380" lon="37.3693900">
    <ele>3169.3</ele>
    <time>2026-06-23T12:22:48Z</time>
   </trkpt>
   <trkpt lat="-3.1529450" lon="37.3693940">
    <ele>3169.2</ele>
    <time>2026-06-23T12:22:49Z</time>
   </trkpt>
   <trkpt lat="-3.1529480" lon="37.3693970">
    <ele>3169.1</ele>
    <time>2026-06-23T12:22:50Z</time>
   </trkpt>
   <trkpt lat="-3.1529530" lon="37.3694000">
    <ele>3169.0</ele>
    <time>2026-06-23T12:22:51Z</time>
   </trkpt>
   <trkpt lat="-3.1529580" lon="37.3694030">
    <ele>3168.9</ele>
    <time>2026-06-23T12:22:52Z</time>
   </trkpt>
   <trkpt lat="-3.1529620" lon="37.3694020">
    <ele>3168.8</ele>
    <time>2026-06-23T12:22:53Z</time>
   </trkpt>
   <trkpt lat="-3.1529680" lon="37.3694050">
    <ele>3168.7</ele>
    <time>2026-06-23T12:22:54Z</time>
   </trkpt>
   <trkpt lat="-3.1529710" lon="37.3694070">
    <ele>3168.6</ele>
    <time>2026-06-23T12:22:55Z</time>
   </trkpt>
   <trkpt lat="-3.1529750" lon="37.3694070">
    <ele>3168.5</ele>
    <time>2026-06-23T12:22:56Z</time>
   </trkpt>
   <trkpt lat="-3.1529800" lon="37.3694030">
    <ele>3168.4</ele>
    <time>2026-06-23T12:22:57Z</time>
   </trkpt>
   <trkpt lat="-3.1529850" lon="37.3694000">
    <ele>3168.3</ele>
    <time>2026-06-23T12:22:58Z</time>
   </trkpt>
   <trkpt lat="-3.1529920" lon="37.3694010">
    <ele>3168.2</ele>
    <time>2026-06-23T12:22:59Z</time>
   </trkpt>
   <trkpt lat="-3.1530030" lon="37.3693980">
    <ele>3168.0</ele>
    <time>2026-06-23T12:23:00Z</time>
   </trkpt>
   <trkpt lat="-3.1530050" lon="37.3693940">
    <ele>3167.9</ele>
    <time>2026-06-23T12:23:01Z</time>
   </trkpt>
   <trkpt lat="-3.1530100" lon="37.3693880">
    <ele>3167.8</ele>
    <time>2026-06-23T12:23:02Z</time>
   </trkpt>
   <trkpt lat="-3.1530170" lon="37.3693780">
    <ele>3167.5</ele>
    <time>2026-06-23T12:23:03Z</time>
   </trkpt>
   <trkpt lat="-3.1530190" lon="37.3693730">
    <ele>3167.4</ele>
    <time>2026-06-23T12:23:04Z</time>
   </trkpt>
   <trkpt lat="-3.1530230" lon="37.3693720">
    <ele>3167.4</ele>
    <time>2026-06-23T12:23:05Z</time>
   </trkpt>
   <trkpt lat="-3.1530300" lon="37.3693660">
    <ele>3167.2</ele>
    <time>2026-06-23T12:23:06Z</time>
   </trkpt>
   <trkpt lat="-3.1530320" lon="37.3693550">
    <ele>3167.0</ele>
    <time>2026-06-23T12:23:07Z</time>
   </trkpt>
   <trkpt lat="-3.1530380" lon="37.3693520">
    <ele>3166.9</ele>
    <time>2026-06-23T12:23:08Z</time>
   </trkpt>
   <trkpt lat="-3.1530450" lon="37.3693530">
    <ele>3166.8</ele>
    <time>2026-06-23T12:23:09Z</time>
   </trkpt>
   <trkpt lat="-3.1530560" lon="37.3693490">
    <ele>3166.6</ele>
    <time>2026-06-23T12:23:10Z</time>
   </trkpt>
   <trkpt lat="-3.1530620" lon="37.3693450">
    <ele>3166.5</ele>
    <time>2026-06-23T12:23:11Z</time>
   </trkpt>
   <trkpt lat="-3.1530680" lon="37.3693400">
    <ele>3166.3</ele>
    <time>2026-06-23T12:23:12Z</time>
   </trkpt>
   <trkpt lat="-3.1530740" lon="37.3693370">
    <ele>3166.2</ele>
    <time>2026-06-23T12:23:13Z</time>
   </trkpt>
   <trkpt lat="-3.1530800" lon="37.3693330">
    <ele>3166.1</ele>
    <time>2026-06-23T12:23:14Z</time>
   </trkpt>
   <trkpt lat="-3.1530870" lon="37.3693310">
    <ele>3166.0</ele>
    <time>2026-06-23T12:23:15Z</time>
   </trkpt>
   <trkpt lat="-3.1530930" lon="37.3693300">
    <ele>3165.9</ele>
    <time>2026-06-23T12:23:16Z</time>
   </trkpt>
   <trkpt lat="-3.1531030" lon="37.3693290">
    <ele>3165.7</ele>
    <time>2026-06-23T12:23:17Z</time>
   </trkpt>
   <trkpt lat="-3.1531120" lon="37.3693300">
    <ele>3165.6</ele>
    <time>2026-06-23T12:23:18Z</time>
   </trkpt>
   <trkpt lat="-3.1531200" lon="37.3693250">
    <ele>3165.4</ele>
    <time>2026-06-23T12:23:19Z</time>
   </trkpt>
   <trkpt lat="-3.1531270" lon="37.3693240">
    <ele>3165.3</ele>
    <time>2026-06-23T12:23:20Z</time>
   </trkpt>
   <trkpt lat="-3.1531320" lon="37.3693220">
    <ele>3165.2</ele>
    <time>2026-06-23T12:23:21Z</time>
   </trkpt>
   <trkpt lat="-3.1531400" lon="37.3693170">
    <ele>3165.1</ele>
    <time>2026-06-23T12:23:22Z</time>
   </trkpt>
   <trkpt lat="-3.1531500" lon="37.3693130">
    <ele>3164.9</ele>
    <time>2026-06-23T12:23:23Z</time>
   </trkpt>
   <trkpt lat="-3.1531560" lon="37.3693150">
    <ele>3164.8</ele>
    <time>2026-06-23T12:23:24Z</time>
   </trkpt>
   <trkpt lat="-3.1531660" lon="37.3693150">
    <ele>3164.7</ele>
    <time>2026-06-23T12:23:25Z</time>
   </trkpt>
   <trkpt lat="-3.1531720" lon="37.3693160">
    <ele>3164.6</ele>
    <time>2026-06-23T12:23:26Z</time>
   </trkpt>
   <trkpt lat="-3.1531780" lon="37.3693150">
    <ele>3164.5</ele>
    <time>2026-06-23T12:23:27Z</time>
   </trkpt>
   <trkpt lat="-3.1531860" lon="37.3693170">
    <ele>3164.3</ele>
    <time>2026-06-23T12:23:28Z</time>
   </trkpt>
   <trkpt lat="-3.1531910" lon="37.3693190">
    <ele>3164.3</ele>
    <time>2026-06-23T12:23:29Z</time>
   </trkpt>
   <trkpt lat="-3.1531960" lon="37.3693200">
    <ele>3164.2</ele>
    <time>2026-06-23T12:23:30Z</time>
   </trkpt>
   <trkpt lat="-3.1532030" lon="37.3693200">
    <ele>3164.1</ele>
    <time>2026-06-23T12:23:31Z</time>
   </trkpt>
   <trkpt lat="-3.1532090" lon="37.3693210">
    <ele>3164.0</ele>
    <time>2026-06-23T12:23:32Z</time>
   </trkpt>
   <trkpt lat="-3.1532230" lon="37.3693240">
    <ele>3163.8</ele>
    <time>2026-06-23T12:23:33Z</time>
   </trkpt>
   <trkpt lat="-3.1532290" lon="37.3693270">
    <ele>3163.7</ele>
    <time>2026-06-23T12:23:34Z</time>
   </trkpt>
   <trkpt lat="-3.1532370" lon="37.3693260">
    <ele>3163.6</ele>
    <time>2026-06-23T12:23:35Z</time>
   </trkpt>
   <trkpt lat="-3.1532470" lon="37.3693270">
    <ele>3163.5</ele>
    <time>2026-06-23T12:23:36Z</time>
   </trkpt>
   <trkpt lat="-3.1532520" lon="37.3693330">
    <ele>3163.4</ele>
    <time>2026-06-23T12:23:37Z</time>
   </trkpt>
   <trkpt lat="-3.1532620" lon="37.3693380">
    <ele>3163.2</ele>
    <time>2026-06-23T12:23:38Z</time>
   </trkpt>
   <trkpt lat="-3.1532700" lon="37.3693430">
    <ele>3163.1</ele>
    <time>2026-06-23T12:23:39Z</time>
   </trkpt>
   <trkpt lat="-3.1532750" lon="37.3693440">
    <ele>3163.1</ele>
    <time>2026-06-23T12:23:40Z</time>
   </trkpt>
   <trkpt lat="-3.1532860" lon="37.3693430">
    <ele>3162.9</ele>
    <time>2026-06-23T12:23:41Z</time>
   </trkpt>
   <trkpt lat="-3.1532960" lon="37.3693440">
    <ele>3162.8</ele>
    <time>2026-06-23T12:23:42Z</time>
   </trkpt>
   <trkpt lat="-3.1533040" lon="37.3693460">
    <ele>3162.7</ele>
    <time>2026-06-23T12:23:43Z</time>
   </trkpt>
   <trkpt lat="-3.1533120" lon="37.3693510">
    <ele>3162.6</ele>
    <time>2026-06-23T12:23:44Z</time>
   </trkpt>
   <trkpt lat="-3.1533270" lon="37.3693550">
    <ele>3162.4</ele>
    <time>2026-06-23T12:23:45Z</time>
   </trkpt>
   <trkpt lat="-3.1533350" lon="37.3693520">
    <ele>3162.3</ele>
    <time>2026-06-23T12:23:46Z</time>
   </trkpt>
   <trkpt lat="-3.1533430" lon="37.3693470">
    <ele>3162.2</ele>
    <time>2026-06-23T12:23:47Z</time>
   </trkpt>
   <trkpt lat="-3.1533530" lon="37.3693430">
    <ele>3162.1</ele>
    <time>2026-06-23T12:23:48Z</time>
   </trkpt>
   <trkpt lat="-3.1533580" lon="37.3693350">
    <ele>3162.0</ele>
    <time>2026-06-23T12:23:49Z</time>
   </trkpt>
   <trkpt lat="-3.1533610" lon="37.3693280">
    <ele>3161.9</ele>
    <time>2026-06-23T12:23:50Z</time>
   </trkpt>
   <trkpt lat="-3.1533630" lon="37.3693200">
    <ele>3161.8</ele>
    <time>2026-06-23T12:23:51Z</time>
   </trkpt>
   <trkpt lat="-3.1533690" lon="37.3693120">
    <ele>3161.7</ele>
    <time>2026-06-23T12:23:52Z</time>
   </trkpt>
   <trkpt lat="-3.1533780" lon="37.3693050">
    <ele>3161.6</ele>
    <time>2026-06-23T12:23:53Z</time>
   </trkpt>
   <trkpt lat="-3.1533860" lon="37.3693010">
    <ele>3161.5</ele>
    <time>2026-06-23T12:23:54Z</time>
   </trkpt>
   <trkpt lat="-3.1533930" lon="37.3692980">
    <ele>3161.4</ele>
    <time>2026-06-23T12:23:55Z</time>
   </trkpt>
   <trkpt lat="-3.1533970" lon="37.3692950">
    <ele>3161.3</ele>
    <time>2026-06-23T12:23:56Z</time>
   </trkpt>
   <trkpt lat="-3.1534080" lon="37.3692890">
    <ele>3161.2</ele>
    <time>2026-06-23T12:23:57Z</time>
   </trkpt>
   <trkpt lat="-3.1534170" lon="37.3692850">
    <ele>3161.1</ele>
    <time>2026-06-23T12:23:58Z</time>
   </trkpt>
   <trkpt lat="-3.1534260" lon="37.3692820">
    <ele>3161.0</ele>
    <time>2026-06-23T12:23:59Z</time>
   </trkpt>
   <trkpt lat="-3.1534360" lon="37.3692820">
    <ele>3160.9</ele>
    <time>2026-06-23T12:24:00Z</time>
   </trkpt>
   <trkpt lat="-3.1534430" lon="37.3692820">
    <ele>3160.8</ele>
    <time>2026-06-23T12:24:01Z</time>
   </trkpt>
   <trkpt lat="-3.1534550" lon="37.3692810">
    <ele>3160.7</ele>
    <time>2026-06-23T12:24:02Z</time>
   </trkpt>
   <trkpt lat="-3.1534640" lon="37.3692810">
    <ele>3160.6</ele>
    <time>2026-06-23T12:24:03Z</time>
   </trkpt>
   <trkpt lat="-3.1534740" lon="37.3692810">
    <ele>3160.5</ele>
    <time>2026-06-23T12:24:04Z</time>
   </trkpt>
   <trkpt lat="-3.1534860" lon="37.3692780">
    <ele>3160.3</ele>
    <time>2026-06-23T12:24:05Z</time>
   </trkpt>
   <trkpt lat="-3.1534940" lon="37.3692730">
    <ele>3160.2</ele>
    <time>2026-06-23T12:24:06Z</time>
   </trkpt>
   <trkpt lat="-3.1535030" lon="37.3692710">
    <ele>3160.1</ele>
    <time>2026-06-23T12:24:07Z</time>
   </trkpt>
   <trkpt lat="-3.1535130" lon="37.3692690">
    <ele>3160.0</ele>
    <time>2026-06-23T12:24:08Z</time>
   </trkpt>
   <trkpt lat="-3.1535180" lon="37.3692650">
    <ele>3159.9</ele>
    <time>2026-06-23T12:24:09Z</time>
   </trkpt>
   <trkpt lat="-3.1535290" lon="37.3692580">
    <ele>3159.8</ele>
    <time>2026-06-23T12:24:10Z</time>
   </trkpt>
   <trkpt lat="-3.1535360" lon="37.3692590">
    <ele>3159.7</ele>
    <time>2026-06-23T12:24:11Z</time>
   </trkpt>
   <trkpt lat="-3.1535450" lon="37.3692620">
    <ele>3159.6</ele>
    <time>2026-06-23T12:24:12Z</time>
   </trkpt>
   <trkpt lat="-3.1535540" lon="37.3692630">
    <ele>3159.5</ele>
    <time>2026-06-23T12:24:13Z</time>
   </trkpt>
   <trkpt lat="-3.1535620" lon="37.3692650">
    <ele>3159.4</ele>
    <time>2026-06-23T12:24:14Z</time>
   </trkpt>
   <trkpt lat="-3.1535740" lon="37.3692660">
    <ele>3159.3</ele>
    <time>2026-06-23T12:24:15Z</time>
   </trkpt>
   <trkpt lat="-3.1535850" lon="37.3692640">
    <ele>3159.2</ele>
    <time>2026-06-23T12:24:16Z</time>
   </trkpt>
   <trkpt lat="-3.1535940" lon="37.3692640">
    <ele>3159.1</ele>
    <time>2026-06-23T12:24:17Z</time>
   </trkpt>
   <trkpt lat="-3.1536020" lon="37.3692640">
    <ele>3159.0</ele>
    <time>2026-06-23T12:24:18Z</time>
   </trkpt>
   <trkpt lat="-3.1536120" lon="37.3692620">
    <ele>3158.9</ele>
    <time>2026-06-23T12:24:19Z</time>
   </trkpt>
   <trkpt lat="-3.1536190" lon="37.3692570">
    <ele>3158.8</ele>
    <time>2026-06-23T12:24:20Z</time>
   </trkpt>
   <trkpt lat="-3.1536290" lon="37.3692550">
    <ele>3158.6</ele>
    <time>2026-06-23T12:24:21Z</time>
   </trkpt>
   <trkpt lat="-3.1536330" lon="37.3692540">
    <ele>3158.6</ele>
    <time>2026-06-23T12:24:22Z</time>
   </trkpt>
   <trkpt lat="-3.1536420" lon="37.3692560">
    <ele>3158.5</ele>
    <time>2026-06-23T12:24:23Z</time>
   </trkpt>
   <trkpt lat="-3.1536490" lon="37.3692520">
    <ele>3158.4</ele>
    <time>2026-06-23T12:24:24Z</time>
   </trkpt>
   <trkpt lat="-3.1536570" lon="37.3692480">
    <ele>3158.3</ele>
    <time>2026-06-23T12:24:25Z</time>
   </trkpt>
   <trkpt lat="-3.1536670" lon="37.3692440">
    <ele>3158.2</ele>
    <time>2026-06-23T12:24:26Z</time>
   </trkpt>
   <trkpt lat="-3.1536720" lon="37.3692430">
    <ele>3158.2</ele>
    <time>2026-06-23T12:24:27Z</time>
   </trkpt>
   <trkpt lat="-3.1536790" lon="37.3692410">
    <ele>3158.1</ele>
    <time>2026-06-23T12:24:28Z</time>
   </trkpt>
   <trkpt lat="-3.1536870" lon="37.3692360">
    <ele>3158.0</ele>
    <time>2026-06-23T12:24:29Z</time>
   </trkpt>
   <trkpt lat="-3.1536900" lon="37.3692270">
    <ele>3157.9</ele>
    <time>2026-06-23T12:24:30Z</time>
   </trkpt>
   <trkpt lat="-3.1536980" lon="37.3692230">
    <ele>3157.8</ele>
    <time>2026-06-23T12:24:31Z</time>
   </trkpt>
   <trkpt lat="-3.1537070" lon="37.3692210">
    <ele>3157.7</ele>
    <time>2026-06-23T12:24:32Z</time>
   </trkpt>
   <trkpt lat="-3.1537140" lon="37.3692200">
    <ele>3157.7</ele>
    <time>2026-06-23T12:24:33Z</time>
   </trkpt>
   <trkpt lat="-3.1537230" lon="37.3692200">
    <ele>3157.6</ele>
    <time>2026-06-23T12:24:34Z</time>
   </trkpt>
   <trkpt lat="-3.1537340" lon="37.3692170">
    <ele>3157.5</ele>
    <time>2026-06-23T12:24:35Z</time>
   </trkpt>
   <trkpt lat="-3.1537390" lon="37.3692200">
    <ele>3157.4</ele>
    <time>2026-06-23T12:24:36Z</time>
   </trkpt>
   <trkpt lat="-3.1537460" lon="37.3692200">
    <ele>3157.4</ele>
    <time>2026-06-23T12:24:37Z</time>
   </trkpt>
   <trkpt lat="-3.1537530" lon="37.3692200">
    <ele>3157.3</ele>
    <time>2026-06-23T12:24:38Z</time>
   </trkpt>
   <trkpt lat="-3.1537720" lon="37.3692220">
    <ele>3157.1</ele>
    <time>2026-06-23T12:24:39Z</time>
   </trkpt>
   <trkpt lat="-3.1537830" lon="37.3692240">
    <ele>3157.1</ele>
    <time>2026-06-23T12:24:40Z</time>
   </trkpt>
   <trkpt lat="-3.1537930" lon="37.3692250">
    <ele>3157.0</ele>
    <time>2026-06-23T12:24:41Z</time>
   </trkpt>
   <trkpt lat="-3.1538040" lon="37.3692280">
    <ele>3156.9</ele>
    <time>2026-06-23T12:24:42Z</time>
   </trkpt>
   <trkpt lat="-3.1538170" lon="37.3692280">
    <ele>3156.8</ele>
    <time>2026-06-23T12:24:43Z</time>
   </trkpt>
   <trkpt lat="-3.1538280" lon="37.3692250">
    <ele>3156.7</ele>
    <time>2026-06-23T12:24:44Z</time>
   </trkpt>
   <trkpt lat="-3.1538400" lon="37.3692280">
    <ele>3156.7</ele>
    <time>2026-06-23T12:24:45Z</time>
   </trkpt>
   <trkpt lat="-3.1538550" lon="37.3692280">
    <ele>3156.6</ele>
    <time>2026-06-23T12:24:46Z</time>
   </trkpt>
   <trkpt lat="-3.1538680" lon="37.3692270">
    <ele>3156.5</ele>
    <time>2026-06-23T12:24:47Z</time>
   </trkpt>
   <trkpt lat="-3.1538780" lon="37.3692240">
    <ele>3156.4</ele>
    <time>2026-06-23T12:24:48Z</time>
   </trkpt>
   <trkpt lat="-3.1538900" lon="37.3692230">
    <ele>3156.4</ele>
    <time>2026-06-23T12:24:49Z</time>
   </trkpt>
   <trkpt lat="-3.1538980" lon="37.3692210">
    <ele>3156.3</ele>
    <time>2026-06-23T12:24:50Z</time>
   </trkpt>
   <trkpt lat="-3.1539100" lon="37.3692200">
    <ele>3156.3</ele>
    <time>2026-06-23T12:24:51Z</time>
   </trkpt>
   <trkpt lat="-3.1539210" lon="37.3692200">
    <ele>3156.2</ele>
    <time>2026-06-23T12:24:52Z</time>
   </trkpt>
   <trkpt lat="-3.1539360" lon="37.3692170">
    <ele>3156.1</ele>
    <time>2026-06-23T12:24:53Z</time>
   </trkpt>
   <trkpt lat="-3.1539480" lon="37.3692180">
    <ele>3156.1</ele>
    <time>2026-06-23T12:24:54Z</time>
   </trkpt>
   <trkpt lat="-3.1539600" lon="37.3692190">
    <ele>3156.0</ele>
    <time>2026-06-23T12:24:55Z</time>
   </trkpt>
   <trkpt lat="-3.1539690" lon="37.3692160">
    <ele>3155.9</ele>
    <time>2026-06-23T12:24:56Z</time>
   </trkpt>
   <trkpt lat="-3.1539780" lon="37.3692150">
    <ele>3155.9</ele>
    <time>2026-06-23T12:24:57Z</time>
   </trkpt>
   <trkpt lat="-3.1539890" lon="37.3692140">
    <ele>3155.8</ele>
    <time>2026-06-23T12:24:58Z</time>
   </trkpt>
   <trkpt lat="-3.1539970" lon="37.3692120">
    <ele>3155.8</ele>
    <time>2026-06-23T12:24:59Z</time>
   </trkpt>
   <trkpt lat="-3.1540090" lon="37.3692070">
    <ele>3155.7</ele>
    <time>2026-06-23T12:25:00Z</time>
   </trkpt>
   <trkpt lat="-3.1540180" lon="37.3692030">
    <ele>3155.6</ele>
    <time>2026-06-23T12:25:01Z</time>
   </trkpt>
   <trkpt lat="-3.1540260" lon="37.3692000">
    <ele>3155.5</ele>
    <time>2026-06-23T12:25:02Z</time>
   </trkpt>
   <trkpt lat="-3.1540340" lon="37.3691960">
    <ele>3155.5</ele>
    <time>2026-06-23T12:25:03Z</time>
   </trkpt>
   <trkpt lat="-3.1540440" lon="37.3691920">
    <ele>3155.4</ele>
    <time>2026-06-23T12:25:04Z</time>
   </trkpt>
   <trkpt lat="-3.1540510" lon="37.3691900">
    <ele>3155.3</ele>
    <time>2026-06-23T12:25:05Z</time>
   </trkpt>
   <trkpt lat="-3.1540570" lon="37.3691860">
    <ele>3155.2</ele>
    <time>2026-06-23T12:25:06Z</time>
   </trkpt>
   <trkpt lat="-3.1540650" lon="37.3691780">
    <ele>3155.1</ele>
    <time>2026-06-23T12:25:07Z</time>
   </trkpt>
   <trkpt lat="-3.1540660" lon="37.3691750">
    <ele>3155.1</ele>
    <time>2026-06-23T12:25:08Z</time>
   </trkpt>
   <trkpt lat="-3.1540670" lon="37.3691680">
    <ele>3155.0</ele>
    <time>2026-06-23T12:25:09Z</time>
   </trkpt>
   <trkpt lat="-3.1540690" lon="37.3691620">
    <ele>3154.9</ele>
    <time>2026-06-23T12:25:10Z</time>
   </trkpt>
   <trkpt lat="-3.1540690" lon="37.3691590">
    <ele>3154.9</ele>
    <time>2026-06-23T12:25:11Z</time>
   </trkpt>
   <trkpt lat="-3.1540710" lon="37.3691520">
    <ele>3154.8</ele>
    <time>2026-06-23T12:25:12Z</time>
   </trkpt>
   <trkpt lat="-3.1540720" lon="37.3691500">
    <ele>3154.8</ele>
    <time>2026-06-23T12:25:13Z</time>
   </trkpt>
   <trkpt lat="-3.1540760" lon="37.3691520">
    <ele>3154.7</ele>
    <time>2026-06-23T12:25:14Z</time>
   </trkpt>
   <trkpt lat="-3.1540810" lon="37.3691570">
    <ele>3154.6</ele>
    <time>2026-06-23T12:25:15Z</time>
   </trkpt>
   <trkpt lat="-3.1540900" lon="37.3691600">
    <ele>3154.5</ele>
    <time>2026-06-23T12:25:16Z</time>
   </trkpt>
   <trkpt lat="-3.1540940" lon="37.3691610">
    <ele>3154.4</ele>
    <time>2026-06-23T12:25:17Z</time>
   </trkpt>
   <trkpt lat="-3.1540960" lon="37.3691620">
    <ele>3154.4</ele>
    <time>2026-06-23T12:25:18Z</time>
   </trkpt>
   <trkpt lat="-3.1541030" lon="37.3691600">
    <ele>3154.3</ele>
    <time>2026-06-23T12:25:19Z</time>
   </trkpt>
   <trkpt lat="-3.1541050" lon="37.3691570">
    <ele>3154.2</ele>
    <time>2026-06-23T12:25:20Z</time>
   </trkpt>
   <trkpt lat="-3.1541080" lon="37.3691480">
    <ele>3154.1</ele>
    <time>2026-06-23T12:25:21Z</time>
   </trkpt>
   <trkpt lat="-3.1541150" lon="37.3691420">
    <ele>3154.0</ele>
    <time>2026-06-23T12:25:22Z</time>
   </trkpt>
   <trkpt lat="-3.1541210" lon="37.3691370">
    <ele>3153.8</ele>
    <time>2026-06-23T12:25:23Z</time>
   </trkpt>
   <trkpt lat="-3.1541250" lon="37.3691390">
    <ele>3153.8</ele>
    <time>2026-06-23T12:25:24Z</time>
   </trkpt>
   <trkpt lat="-3.1541300" lon="37.3691360">
    <ele>3153.7</ele>
    <time>2026-06-23T12:25:25Z</time>
   </trkpt>
   <trkpt lat="-3.1541340" lon="37.3691350">
    <ele>3153.6</ele>
    <time>2026-06-23T12:25:26Z</time>
   </trkpt>
   <trkpt lat="-3.1541420" lon="37.3691340">
    <ele>3153.5</ele>
    <time>2026-06-23T12:25:27Z</time>
   </trkpt>
   <trkpt lat="-3.1541450" lon="37.3691340">
    <ele>3153.4</ele>
    <time>2026-06-23T12:25:28Z</time>
   </trkpt>
   <trkpt lat="-3.1541460" lon="37.3691340">
    <ele>3153.4</ele>
    <time>2026-06-23T12:25:29Z</time>
   </trkpt>
   <trkpt lat="-3.1541520" lon="37.3691220">
    <ele>3153.1</ele>
    <time>2026-06-23T12:25:30Z</time>
   </trkpt>
   <trkpt lat="-3.1541540" lon="37.3691190">
    <ele>3153.1</ele>
    <time>2026-06-23T12:25:31Z</time>
   </trkpt>
   <trkpt lat="-3.1541570" lon="37.3691160">
    <ele>3153.0</ele>
    <time>2026-06-23T12:25:32Z</time>
   </trkpt>
   <trkpt lat="-3.1541650" lon="37.3691130">
    <ele>3152.9</ele>
    <time>2026-06-23T12:25:33Z</time>
   </trkpt>
   <trkpt lat="-3.1541680" lon="37.3691050">
    <ele>3152.7</ele>
    <time>2026-06-23T12:25:34Z</time>
   </trkpt>
   <trkpt lat="-3.1541680" lon="37.3690990">
    <ele>3152.6</ele>
    <time>2026-06-23T12:25:35Z</time>
   </trkpt>
   <trkpt lat="-3.1541730" lon="37.3690900">
    <ele>3152.4</ele>
    <time>2026-06-23T12:25:36Z</time>
   </trkpt>
   <trkpt lat="-3.1541770" lon="37.3690850">
    <ele>3152.3</ele>
    <time>2026-06-23T12:25:37Z</time>
   </trkpt>
   <trkpt lat="-3.1541840" lon="37.3690750">
    <ele>3152.1</ele>
    <time>2026-06-23T12:25:38Z</time>
   </trkpt>
   <trkpt lat="-3.1541930" lon="37.3690710">
    <ele>3151.9</ele>
    <time>2026-06-23T12:25:39Z</time>
   </trkpt>
   <trkpt lat="-3.1541990" lon="37.3690660">
    <ele>3151.8</ele>
    <time>2026-06-23T12:25:40Z</time>
   </trkpt>
   <trkpt lat="-3.1542070" lon="37.3690600">
    <ele>3151.6</ele>
    <time>2026-06-23T12:25:41Z</time>
   </trkpt>
   <trkpt lat="-3.1542140" lon="37.3690590">
    <ele>3151.5</ele>
    <time>2026-06-23T12:25:42Z</time>
   </trkpt>
   <trkpt lat="-3.1542190" lon="37.3690560">
    <ele>3151.4</ele>
    <time>2026-06-23T12:25:43Z</time>
   </trkpt>
   <trkpt lat="-3.1542310" lon="37.3690520">
    <ele>3151.1</ele>
    <time>2026-06-23T12:25:44Z</time>
   </trkpt>
   <trkpt lat="-3.1542360" lon="37.3690510">
    <ele>3151.0</ele>
    <time>2026-06-23T12:25:45Z</time>
   </trkpt>
   <trkpt lat="-3.1542440" lon="37.3690500">
    <ele>3150.9</ele>
    <time>2026-06-23T12:25:46Z</time>
   </trkpt>
   <trkpt lat="-3.1542530" lon="37.3690500">
    <ele>3150.7</ele>
    <time>2026-06-23T12:25:47Z</time>
   </trkpt>
   <trkpt lat="-3.1542600" lon="37.3690540">
    <ele>3150.6</ele>
    <time>2026-06-23T12:25:48Z</time>
   </trkpt>
   <trkpt lat="-3.1542680" lon="37.3690530">
    <ele>3150.4</ele>
    <time>2026-06-23T12:25:49Z</time>
   </trkpt>
   <trkpt lat="-3.1542740" lon="37.3690490">
    <ele>3150.3</ele>
    <time>2026-06-23T12:25:50Z</time>
   </trkpt>
   <trkpt lat="-3.1542770" lon="37.3690450">
    <ele>3150.2</ele>
    <time>2026-06-23T12:25:51Z</time>
   </trkpt>
   <trkpt lat="-3.1542830" lon="37.3690480">
    <ele>3150.1</ele>
    <time>2026-06-23T12:25:52Z</time>
   </trkpt>
   <trkpt lat="-3.1542910" lon="37.3690550">
    <ele>3149.9</ele>
    <time>2026-06-23T12:25:53Z</time>
   </trkpt>
   <trkpt lat="-3.1542930" lon="37.3690620">
    <ele>3149.7</ele>
    <time>2026-06-23T12:25:54Z</time>
   </trkpt>
   <trkpt lat="-3.1542990" lon="37.3690620">
    <ele>3149.6</ele>
    <time>2026-06-23T12:25:55Z</time>
   </trkpt>
   <trkpt lat="-3.1543040" lon="37.3690660">
    <ele>3149.5</ele>
    <time>2026-06-23T12:25:56Z</time>
   </trkpt>
   <trkpt lat="-3.1543080" lon="37.3690680">
    <ele>3149.4</ele>
    <time>2026-06-23T12:25:57Z</time>
   </trkpt>
   <trkpt lat="-3.1543150" lon="37.3690720">
    <ele>3149.2</ele>
    <time>2026-06-23T12:25:58Z</time>
   </trkpt>
   <trkpt lat="-3.1543210" lon="37.3690690">
    <ele>3149.0</ele>
    <time>2026-06-23T12:25:59Z</time>
   </trkpt>
   <trkpt lat="-3.1543230" lon="37.3690650">
    <ele>3148.9</ele>
    <time>2026-06-23T12:26:00Z</time>
   </trkpt>
   <trkpt lat="-3.1543280" lon="37.3690620">
    <ele>3148.8</ele>
    <time>2026-06-23T12:26:01Z</time>
   </trkpt>
   <trkpt lat="-3.1543330" lon="37.3690570">
    <ele>3148.6</ele>
    <time>2026-06-23T12:26:02Z</time>
   </trkpt>
   <trkpt lat="-3.1543360" lon="37.3690530">
    <ele>3148.5</ele>
    <time>2026-06-23T12:26:03Z</time>
   </trkpt>
   <trkpt lat="-3.1543390" lon="37.3690500">
    <ele>3148.4</ele>
    <time>2026-06-23T12:26:04Z</time>
   </trkpt>
   <trkpt lat="-3.1543440" lon="37.3690440">
    <ele>3148.2</ele>
    <time>2026-06-23T12:26:05Z</time>
   </trkpt>
   <trkpt lat="-3.1543480" lon="37.3690430">
    <ele>3148.2</ele>
    <time>2026-06-23T12:26:06Z</time>
   </trkpt>
   <trkpt lat="-3.1543520" lon="37.3690420">
    <ele>3148.1</ele>
    <time>2026-06-23T12:26:07Z</time>
   </trkpt>
   <trkpt lat="-3.1543550" lon="37.3690430">
    <ele>3148.0</ele>
    <time>2026-06-23T12:26:08Z</time>
   </trkpt>
   <trkpt lat="-3.1543600" lon="37.3690420">
    <ele>3147.8</ele>
    <time>2026-06-23T12:26:09Z</time>
   </trkpt>
   <trkpt lat="-3.1543660" lon="37.3690390">
    <ele>3147.7</ele>
    <time>2026-06-23T12:26:10Z</time>
   </trkpt>
   <trkpt lat="-3.1543690" lon="37.3690400">
    <ele>3147.6</ele>
    <time>2026-06-23T12:26:11Z</time>
   </trkpt>
   <trkpt lat="-3.1543760" lon="37.3690380">
    <ele>3147.4</ele>
    <time>2026-06-23T12:26:12Z</time>
   </trkpt>
   <trkpt lat="-3.1543810" lon="37.3690380">
    <ele>3147.2</ele>
    <time>2026-06-23T12:26:13Z</time>
   </trkpt>
   <trkpt lat="-3.1543860" lon="37.3690370">
    <ele>3147.1</ele>
    <time>2026-06-23T12:26:14Z</time>
   </trkpt>
   <trkpt lat="-3.1543930" lon="37.3690350">
    <ele>3146.9</ele>
    <time>2026-06-23T12:26:15Z</time>
   </trkpt>
   <trkpt lat="-3.1544010" lon="37.3690340">
    <ele>3146.7</ele>
    <time>2026-06-23T12:26:16Z</time>
   </trkpt>
   <trkpt lat="-3.1544100" lon="37.3690330">
    <ele>3146.4</ele>
    <time>2026-06-23T12:26:17Z</time>
   </trkpt>
   <trkpt lat="-3.1544120" lon="37.3690320">
    <ele>3146.4</ele>
    <time>2026-06-23T12:26:18Z</time>
   </trkpt>
   <trkpt lat="-3.1544190" lon="37.3690340">
    <ele>3146.1</ele>
    <time>2026-06-23T12:26:19Z</time>
   </trkpt>
   <trkpt lat="-3.1544240" lon="37.3690350">
    <ele>3146.0</ele>
    <time>2026-06-23T12:26:20Z</time>
   </trkpt>
   <trkpt lat="-3.1544260" lon="37.3690350">
    <ele>3145.9</ele>
    <time>2026-06-23T12:26:21Z</time>
   </trkpt>
   <trkpt lat="-3.1544320" lon="37.3690320">
    <ele>3145.7</ele>
    <time>2026-06-23T12:26:22Z</time>
   </trkpt>
   <trkpt lat="-3.1544390" lon="37.3690320">
    <ele>3145.5</ele>
    <time>2026-06-23T12:26:23Z</time>
   </trkpt>
   <trkpt lat="-3.1544430" lon="37.3690290">
    <ele>3145.4</ele>
    <time>2026-06-23T12:26:24Z</time>
   </trkpt>
   <trkpt lat="-3.1544440" lon="37.3690270">
    <ele>3145.3</ele>
    <time>2026-06-23T12:26:25Z</time>
   </trkpt>
   <trkpt lat="-3.1544470" lon="37.3690230">
    <ele>3145.2</ele>
    <time>2026-06-23T12:26:26Z</time>
   </trkpt>
   <trkpt lat="-3.1544510" lon="37.3690230">
    <ele>3145.0</ele>
    <time>2026-06-23T12:26:27Z</time>
   </trkpt>
   <trkpt lat="-3.1544570" lon="37.3690230">
    <ele>3144.8</ele>
    <time>2026-06-23T12:26:28Z</time>
   </trkpt>
   <trkpt lat="-3.1544610" lon="37.3690210">
    <ele>3144.7</ele>
    <time>2026-06-23T12:26:29Z</time>
   </trkpt>
   <trkpt lat="-3.1544680" lon="37.3690200">
    <ele>3144.5</ele>
    <time>2026-06-23T12:26:30Z</time>
   </trkpt>
   <trkpt lat="-3.1544700" lon="37.3690190">
    <ele>3144.4</ele>
    <time>2026-06-23T12:26:31Z</time>
   </trkpt>
   <trkpt lat="-3.1544760" lon="37.3690180">
    <ele>3144.2</ele>
    <time>2026-06-23T12:26:32Z</time>
   </trkpt>
   <trkpt lat="-3.1544840" lon="37.3690190">
    <ele>3144.0</ele>
    <time>2026-06-23T12:26:33Z</time>
   </trkpt>
   <trkpt lat="-3.1544860" lon="37.3690180">
    <ele>3143.9</ele>
    <time>2026-06-23T12:26:34Z</time>
   </trkpt>
   <trkpt lat="-3.1544910" lon="37.3690140">
    <ele>3143.7</ele>
    <time>2026-06-23T12:26:35Z</time>
   </trkpt>
   <trkpt lat="-3.1544960" lon="37.3690120">
    <ele>3143.5</ele>
    <time>2026-06-23T12:26:36Z</time>
   </trkpt>
   <trkpt lat="-3.1544980" lon="37.3690100">
    <ele>3143.4</ele>
    <time>2026-06-23T12:26:37Z</time>
   </trkpt>
   <trkpt lat="-3.1545000" lon="37.3690090">
    <ele>3143.4</ele>
    <time>2026-06-23T12:26:38Z</time>
   </trkpt>
   <trkpt lat="-3.1545080" lon="37.3690090">
    <ele>3143.1</ele>
    <time>2026-06-23T12:26:39Z</time>
   </trkpt>
   <trkpt lat="-3.1545120" lon="37.3690110">
    <ele>3143.0</ele>
    <time>2026-06-23T12:26:40Z</time>
   </trkpt>
   <trkpt lat="-3.1545140" lon="37.3690120">
    <ele>3142.9</ele>
    <time>2026-06-23T12:26:41Z</time>
   </trkpt>
   <trkpt lat="-3.1545140" lon="37.3690140">
    <ele>3142.8</ele>
    <time>2026-06-23T12:26:42Z</time>
   </trkpt>
   <trkpt lat="-3.1545190" lon="37.3690150">
    <ele>3142.7</ele>
    <time>2026-06-23T12:26:43Z</time>
   </trkpt>
   <trkpt lat="-3.1545280" lon="37.3690110">
    <ele>3142.4</ele>
    <time>2026-06-23T12:26:44Z</time>
   </trkpt>
   <trkpt lat="-3.1545300" lon="37.3690100">
    <ele>3142.3</ele>
    <time>2026-06-23T12:26:45Z</time>
   </trkpt>
   <trkpt lat="-3.1545320" lon="37.3690040">
    <ele>3142.1</ele>
    <time>2026-06-23T12:26:46Z</time>
   </trkpt>
   <trkpt lat="-3.1545340" lon="37.3690030">
    <ele>3142.0</ele>
    <time>2026-06-23T12:26:47Z</time>
   </trkpt>
   <trkpt lat="-3.1545370" lon="37.3690000">
    <ele>3141.9</ele>
    <time>2026-06-23T12:26:48Z</time>
   </trkpt>
   <trkpt lat="-3.1545390" lon="37.3689960">
    <ele>3141.7</ele>
    <time>2026-06-23T12:26:49Z</time>
   </trkpt>
   <trkpt lat="-3.1545410" lon="37.3689960">
    <ele>3141.7</ele>
    <time>2026-06-23T12:26:50Z</time>
   </trkpt>
   <trkpt lat="-3.1545430" lon="37.3689950">
    <ele>3141.6</ele>
    <time>2026-06-23T12:26:51Z</time>
   </trkpt>
   <trkpt lat="-3.1545450" lon="37.3689940">
    <ele>3141.5</ele>
    <time>2026-06-23T12:26:52Z</time>
   </trkpt>
   <trkpt lat="-3.1545490" lon="37.3689930">
    <ele>3141.4</ele>
    <time>2026-06-23T12:26:53Z</time>
   </trkpt>
   <trkpt lat="-3.1545520" lon="37.3689910">
    <ele>3141.3</ele>
    <time>2026-06-23T12:26:54Z</time>
   </trkpt>
   <trkpt lat="-3.1545550" lon="37.3689870">
    <ele>3141.1</ele>
    <time>2026-06-23T12:26:55Z</time>
   </trkpt>
   <trkpt lat="-3.1545570" lon="37.3689870">
    <ele>3141.1</ele>
    <time>2026-06-23T12:26:56Z</time>
   </trkpt>
   <trkpt lat="-3.1545620" lon="37.3689840">
    <ele>3140.9</ele>
    <time>2026-06-23T12:26:57Z</time>
   </trkpt>
   <trkpt lat="-3.1545660" lon="37.3689800">
    <ele>3140.7</ele>
    <time>2026-06-23T12:26:58Z</time>
   </trkpt>
   <trkpt lat="-3.1545680" lon="37.3689780">
    <ele>3140.6</ele>
    <time>2026-06-23T12:26:59Z</time>
   </trkpt>
   <trkpt lat="-3.1545720" lon="37.3689750">
    <ele>3140.5</ele>
    <time>2026-06-23T12:27:00Z</time>
   </trkpt>
   <trkpt lat="-3.1545760" lon="37.3689720">
    <ele>3140.3</ele>
    <time>2026-06-23T12:27:01Z</time>
   </trkpt>
   <trkpt lat="-3.1545800" lon="37.3689690">
    <ele>3140.2</ele>
    <time>2026-06-23T12:27:02Z</time>
   </trkpt>
   <trkpt lat="-3.1545840" lon="37.3689650">
    <ele>3140.0</ele>
    <time>2026-06-23T12:27:03Z</time>
   </trkpt>
   <trkpt lat="-3.1545890" lon="37.3689630">
    <ele>3139.8</ele>
    <time>2026-06-23T12:27:04Z</time>
   </trkpt>
   <trkpt lat="-3.1545940" lon="37.3689640">
    <ele>3139.7</ele>
    <time>2026-06-23T12:27:05Z</time>
   </trkpt>
   <trkpt lat="-3.1546010" lon="37.3689620">
    <ele>3139.5</ele>
    <time>2026-06-23T12:27:06Z</time>
   </trkpt>
   <trkpt lat="-3.1546000" lon="37.3689640">
    <ele>3139.4</ele>
    <time>2026-06-23T12:27:07Z</time>
   </trkpt>
   <trkpt lat="-3.1546020" lon="37.3689630">
    <ele>3139.3</ele>
    <time>2026-06-23T12:27:08Z</time>
   </trkpt>
   <trkpt lat="-3.1546030" lon="37.3689590">
    <ele>3139.2</ele>
    <time>2026-06-23T12:27:09Z</time>
   </trkpt>
   <trkpt lat="-3.1546050" lon="37.3689570">
    <ele>3139.1</ele>
    <time>2026-06-23T12:27:10Z</time>
   </trkpt>
   <trkpt lat="-3.1546080" lon="37.3689540">
    <ele>3139.0</ele>
    <time>2026-06-23T12:27:11Z</time>
   </trkpt>
   <trkpt lat="-3.1546130" lon="37.3689520">
    <ele>3138.8</ele>
    <time>2026-06-23T12:27:12Z</time>
   </trkpt>
   <trkpt lat="-3.1546160" lon="37.3689510">
    <ele>3138.7</ele>
    <time>2026-06-23T12:27:13Z</time>
   </trkpt>
   <trkpt lat="-3.1546190" lon="37.3689470">
    <ele>3138.6</ele>
    <time>2026-06-23T12:27:14Z</time>
   </trkpt>
   <trkpt lat="-3.1546250" lon="37.3689450">
    <ele>3138.4</ele>
    <time>2026-06-23T12:27:15Z</time>
   </trkpt>
   <trkpt lat="-3.1546300" lon="37.3689430">
    <ele>3138.3</ele>
    <time>2026-06-23T12:27:16Z</time>
   </trkpt>
   <trkpt lat="-3.1546350" lon="37.3689390">
    <ele>3138.1</ele>
    <time>2026-06-23T12:27:17Z</time>
   </trkpt>
   <trkpt lat="-3.1546410" lon="37.3689360">
    <ele>3137.9</ele>
    <time>2026-06-23T12:27:18Z</time>
   </trkpt>
   <trkpt lat="-3.1546450" lon="37.3689350">
    <ele>3137.8</ele>
    <time>2026-06-23T12:27:19Z</time>
   </trkpt>
   <trkpt lat="-3.1546500" lon="37.3689330">
    <ele>3137.6</ele>
    <time>2026-06-23T12:27:20Z</time>
   </trkpt>
   <trkpt lat="-3.1546550" lon="37.3689300">
    <ele>3137.5</ele>
    <time>2026-06-23T12:27:21Z</time>
   </trkpt>
   <trkpt lat="-3.1546610" lon="37.3689290">
    <ele>3137.3</ele>
    <time>2026-06-23T12:27:22Z</time>
   </trkpt>
   <trkpt lat="-3.1546660" lon="37.3689280">
    <ele>3137.2</ele>
    <time>2026-06-23T12:27:23Z</time>
   </trkpt>
   <trkpt lat="-3.1546680" lon="37.3689300">
    <ele>3137.1</ele>
    <time>2026-06-23T12:27:24Z</time>
   </trkpt>
   <trkpt lat="-3.1546730" lon="37.3689290">
    <ele>3137.0</ele>
    <time>2026-06-23T12:27:25Z</time>
   </trkpt>
   <trkpt lat="-3.1546760" lon="37.3689320">
    <ele>3136.8</ele>
    <time>2026-06-23T12:27:26Z</time>
   </trkpt>
   <trkpt lat="-3.1546790" lon="37.3689380">
    <ele>3136.7</ele>
    <time>2026-06-23T12:27:27Z</time>
   </trkpt>
   <trkpt lat="-3.1546820" lon="37.3689410">
    <ele>3136.5</ele>
    <time>2026-06-23T12:27:28Z</time>
   </trkpt>
   <trkpt lat="-3.1546870" lon="37.3689430">
    <ele>3136.4</ele>
    <time>2026-06-23T12:27:29Z</time>
   </trkpt>
   <trkpt lat="-3.1546880" lon="37.3689450">
    <ele>3136.3</ele>
    <time>2026-06-23T12:27:30Z</time>
   </trkpt>
   <trkpt lat="-3.1546920" lon="37.3689460">
    <ele>3136.2</ele>
    <time>2026-06-23T12:27:31Z</time>
   </trkpt>
   <trkpt lat="-3.1546910" lon="37.3689470">
    <ele>3136.2</ele>
    <time>2026-06-23T12:27:32Z</time>
   </trkpt>
   <trkpt lat="-3.1546920" lon="37.3689470">
    <ele>3136.2</ele>
    <time>2026-06-23T12:27:33Z</time>
   </trkpt>
   <trkpt lat="-3.1546930" lon="37.3689480">
    <ele>3136.1</ele>
    <time>2026-06-23T12:27:34Z</time>
   </trkpt>
   <trkpt lat="-3.1546930" lon="37.3689490">
    <ele>3136.1</ele>
    <time>2026-06-23T12:27:35Z</time>
   </trkpt>
   <trkpt lat="-3.1546980" lon="37.3689500">
    <ele>3136.0</ele>
    <time>2026-06-23T12:27:36Z</time>
   </trkpt>
   <trkpt lat="-3.1547020" lon="37.3689500">
    <ele>3135.9</ele>
    <time>2026-06-23T12:27:37Z</time>
   </trkpt>
   <trkpt lat="-3.1547060" lon="37.3689510">
    <ele>3135.7</ele>
    <time>2026-06-23T12:27:38Z</time>
   </trkpt>
   <trkpt lat="-3.1547120" lon="37.3689510">
    <ele>3135.6</ele>
    <time>2026-06-23T12:27:39Z</time>
   </trkpt>
   <trkpt lat="-3.1547190" lon="37.3689530">
    <ele>3135.4</ele>
    <time>2026-06-23T12:27:40Z</time>
   </trkpt>
   <trkpt lat="-3.1547250" lon="37.3689530">
    <ele>3135.2</ele>
    <time>2026-06-23T12:27:41Z</time>
   </trkpt>
   <trkpt lat="-3.1547320" lon="37.3689540">
    <ele>3135.0</ele>
    <time>2026-06-23T12:27:42Z</time>
   </trkpt>
   <trkpt lat="-3.1547370" lon="37.3689530">
    <ele>3134.9</ele>
    <time>2026-06-23T12:27:43Z</time>
   </trkpt>
   <trkpt lat="-3.1547420" lon="37.3689530">
    <ele>3134.8</ele>
    <time>2026-06-23T12:27:44Z</time>
   </trkpt>
   <trkpt lat="-3.1547470" lon="37.3689500">
    <ele>3134.6</ele>
    <time>2026-06-23T12:27:45Z</time>
   </trkpt>
   <trkpt lat="-3.1547490" lon="37.3689500">
    <ele>3134.6</ele>
    <time>2026-06-23T12:27:46Z</time>
   </trkpt>
   <trkpt lat="-3.1547570" lon="37.3689480">
    <ele>3134.4</ele>
    <time>2026-06-23T12:27:47Z</time>
   </trkpt>
   <trkpt lat="-3.1547610" lon="37.3689480">
    <ele>3134.2</ele>
    <time>2026-06-23T12:27:48Z</time>
   </trkpt>
   <trkpt lat="-3.1547670" lon="37.3689460">
    <ele>3134.1</ele>
    <time>2026-06-23T12:27:49Z</time>
   </trkpt>
   <trkpt lat="-3.1547720" lon="37.3689500">
    <ele>3133.9</ele>
    <time>2026-06-23T12:27:50Z</time>
   </trkpt>
   <trkpt lat="-3.1547780" lon="37.3689460">
    <ele>3133.7</ele>
    <time>2026-06-23T12:27:51Z</time>
   </trkpt>
   <trkpt lat="-3.1547860" lon="37.3689440">
    <ele>3133.5</ele>
    <time>2026-06-23T12:27:52Z</time>
   </trkpt>
   <trkpt lat="-3.1547930" lon="37.3689420">
    <ele>3133.3</ele>
    <time>2026-06-23T12:27:53Z</time>
   </trkpt>
   <trkpt lat="-3.1547950" lon="37.3689420">
    <ele>3133.3</ele>
    <time>2026-06-23T12:27:54Z</time>
   </trkpt>
   <trkpt lat="-3.1548010" lon="37.3689420">
    <ele>3133.1</ele>
    <time>2026-06-23T12:27:55Z</time>
   </trkpt>
   <trkpt lat="-3.1548090" lon="37.3689420">
    <ele>3132.9</ele>
    <time>2026-06-23T12:27:56Z</time>
   </trkpt>
   <trkpt lat="-3.1548140" lon="37.3689430">
    <ele>3132.7</ele>
    <time>2026-06-23T12:27:57Z</time>
   </trkpt>
   <trkpt lat="-3.1548190" lon="37.3689430">
    <ele>3132.6</ele>
    <time>2026-06-23T12:27:58Z</time>
   </trkpt>
   <trkpt lat="-3.1548280" lon="37.3689430">
    <ele>3132.4</ele>
    <time>2026-06-23T12:27:59Z</time>
   </trkpt>
   <trkpt lat="-3.1548350" lon="37.3689410">
    <ele>3132.2</ele>
    <time>2026-06-23T12:28:00Z</time>
   </trkpt>
   <trkpt lat="-3.1548450" lon="37.3689420">
    <ele>3131.9</ele>
    <time>2026-06-23T12:28:01Z</time>
   </trkpt>
   <trkpt lat="-3.1548520" lon="37.3689410">
    <ele>3131.7</ele>
    <time>2026-06-23T12:28:02Z</time>
   </trkpt>
   <trkpt lat="-3.1548590" lon="37.3689420">
    <ele>3131.5</ele>
    <time>2026-06-23T12:28:03Z</time>
   </trkpt>
   <trkpt lat="-3.1548600" lon="37.3689460">
    <ele>3131.4</ele>
    <time>2026-06-23T12:28:04Z</time>
   </trkpt>
   <trkpt lat="-3.1548720" lon="37.3689430">
    <ele>3131.1</ele>
    <time>2026-06-23T12:28:05Z</time>
   </trkpt>
   <trkpt lat="-3.1548780" lon="37.3689400">
    <ele>3130.9</ele>
    <time>2026-06-23T12:28:06Z</time>
   </trkpt>
   <trkpt lat="-3.1548860" lon="37.3689390">
    <ele>3130.7</ele>
    <time>2026-06-23T12:28:07Z</time>
   </trkpt>
   <trkpt lat="-3.1548960" lon="37.3689360">
    <ele>3130.4</ele>
    <time>2026-06-23T12:28:08Z</time>
   </trkpt>
   <trkpt lat="-3.1548980" lon="37.3689360">
    <ele>3130.4</ele>
    <time>2026-06-23T12:28:09Z</time>
   </trkpt>
   <trkpt lat="-3.1549020" lon="37.3689360">
    <ele>3130.3</ele>
    <time>2026-06-23T12:28:10Z</time>
   </trkpt>
   <trkpt lat="-3.1549080" lon="37.3689360">
    <ele>3130.1</ele>
    <time>2026-06-23T12:28:11Z</time>
   </trkpt>
   <trkpt lat="-3.1549170" lon="37.3689370">
    <ele>3129.9</ele>
    <time>2026-06-23T12:28:12Z</time>
   </trkpt>
   <trkpt lat="-3.1549210" lon="37.3689380">
    <ele>3129.8</ele>
    <time>2026-06-23T12:28:13Z</time>
   </trkpt>
   <trkpt lat="-3.1549290" lon="37.3689390">
    <ele>3129.6</ele>
    <time>2026-06-23T12:28:14Z</time>
   </trkpt>
   <trkpt lat="-3.1549340" lon="37.3689420">
    <ele>3129.4</ele>
    <time>2026-06-23T12:28:15Z</time>
   </trkpt>
   <trkpt lat="-3.1549410" lon="37.3689420">
    <ele>3129.2</ele>
    <time>2026-06-23T12:28:16Z</time>
   </trkpt>
   <trkpt lat="-3.1549470" lon="37.3689410">
    <ele>3129.1</ele>
    <time>2026-06-23T12:28:17Z</time>
   </trkpt>
   <trkpt lat="-3.1549540" lon="37.3689380">
    <ele>3128.8</ele>
    <time>2026-06-23T12:28:18Z</time>
   </trkpt>
   <trkpt lat="-3.1549590" lon="37.3689390">
    <ele>3128.7</ele>
    <time>2026-06-23T12:28:19Z</time>
   </trkpt>
   <trkpt lat="-3.1549660" lon="37.3689360">
    <ele>3128.5</ele>
    <time>2026-06-23T12:28:20Z</time>
   </trkpt>
   <trkpt lat="-3.1549690" lon="37.3689350">
    <ele>3128.4</ele>
    <time>2026-06-23T12:28:21Z</time>
   </trkpt>
   <trkpt lat="-3.1549710" lon="37.3689350">
    <ele>3128.4</ele>
    <time>2026-06-23T12:28:22Z</time>
   </trkpt>
   <trkpt lat="-3.1549770" lon="37.3689330">
    <ele>3128.2</ele>
    <time>2026-06-23T12:28:23Z</time>
   </trkpt>
   <trkpt lat="-3.1549810" lon="37.3689300">
    <ele>3128.1</ele>
    <time>2026-06-23T12:28:24Z</time>
   </trkpt>
   <trkpt lat="-3.1549840" lon="37.3689230">
    <ele>3127.9</ele>
    <time>2026-06-23T12:28:25Z</time>
   </trkpt>
   <trkpt lat="-3.1549840" lon="37.3689150">
    <ele>3127.7</ele>
    <time>2026-06-23T12:28:26Z</time>
   </trkpt>
   <trkpt lat="-3.1549850" lon="37.3689010">
    <ele>3127.3</ele>
    <time>2026-06-23T12:28:27Z</time>
   </trkpt>
   <trkpt lat="-3.1549860" lon="37.3688980">
    <ele>3127.2</ele>
    <time>2026-06-23T12:28:28Z</time>
   </trkpt>
   <trkpt lat="-3.1549890" lon="37.3688970">
    <ele>3127.1</ele>
    <time>2026-06-23T12:28:29Z</time>
   </trkpt>
   <trkpt lat="-3.1549950" lon="37.3688940">
    <ele>3127.0</ele>
    <time>2026-06-23T12:28:30Z</time>
   </trkpt>
   <trkpt lat="-3.1550020" lon="37.3688930">
    <ele>3126.8</ele>
    <time>2026-06-23T12:28:31Z</time>
   </trkpt>
   <trkpt lat="-3.1550090" lon="37.3688890">
    <ele>3126.6</ele>
    <time>2026-06-23T12:28:32Z</time>
   </trkpt>
   <trkpt lat="-3.1550190" lon="37.3688860">
    <ele>3126.3</ele>
    <time>2026-06-23T12:28:33Z</time>
   </trkpt>
   <trkpt lat="-3.1550240" lon="37.3688850">
    <ele>3126.2</ele>
    <time>2026-06-23T12:28:34Z</time>
   </trkpt>
   <trkpt lat="-3.1550260" lon="37.3688870">
    <ele>3126.1</ele>
    <time>2026-06-23T12:28:35Z</time>
   </trkpt>
   <trkpt lat="-3.1550330" lon="37.3688880">
    <ele>3125.9</ele>
    <time>2026-06-23T12:28:36Z</time>
   </trkpt>
   <trkpt lat="-3.1550390" lon="37.3688870">
    <ele>3125.8</ele>
    <time>2026-06-23T12:28:37Z</time>
   </trkpt>
   <trkpt lat="-3.1550440" lon="37.3688870">
    <ele>3125.6</ele>
    <time>2026-06-23T12:28:38Z</time>
   </trkpt>
   <trkpt lat="-3.1550470" lon="37.3688820">
    <ele>3125.5</ele>
    <time>2026-06-23T12:28:39Z</time>
   </trkpt>
   <trkpt lat="-3.1550490" lon="37.3688760">
    <ele>3125.3</ele>
    <time>2026-06-23T12:28:40Z</time>
   </trkpt>
   <trkpt lat="-3.1550540" lon="37.3688780">
    <ele>3125.2</ele>
    <time>2026-06-23T12:28:41Z</time>
   </trkpt>
   <trkpt lat="-3.1550560" lon="37.3688770">
    <ele>3125.1</ele>
    <time>2026-06-23T12:28:42Z</time>
   </trkpt>
   <trkpt lat="-3.1550660" lon="37.3688770">
    <ele>3124.9</ele>
    <time>2026-06-23T12:28:43Z</time>
   </trkpt>
   <trkpt lat="-3.1550680" lon="37.3688730">
    <ele>3124.7</ele>
    <time>2026-06-23T12:28:44Z</time>
   </trkpt>
   <trkpt lat="-3.1550680" lon="37.3688650">
    <ele>3124.5</ele>
    <time>2026-06-23T12:28:45Z</time>
   </trkpt>
   <trkpt lat="-3.1550640" lon="37.3688610">
    <ele>3124.4</ele>
    <time>2026-06-23T12:28:46Z</time>
   </trkpt>
   <trkpt lat="-3.1550640" lon="37.3688540">
    <ele>3124.2</ele>
    <time>2026-06-23T12:28:47Z</time>
   </trkpt>
   <trkpt lat="-3.1550620" lon="37.3688510">
    <ele>3124.1</ele>
    <time>2026-06-23T12:28:48Z</time>
   </trkpt>
   <trkpt lat="-3.1550720" lon="37.3688420">
    <ele>3123.8</ele>
    <time>2026-06-23T12:28:49Z</time>
   </trkpt>
   <trkpt lat="-3.1550770" lon="37.3688370">
    <ele>3123.6</ele>
    <time>2026-06-23T12:28:50Z</time>
   </trkpt>
   <trkpt lat="-3.1550770" lon="37.3688350">
    <ele>3123.5</ele>
    <time>2026-06-23T12:28:51Z</time>
   </trkpt>
   <trkpt lat="-3.1550810" lon="37.3688330">
    <ele>3123.4</ele>
    <time>2026-06-23T12:28:52Z</time>
   </trkpt>
   <trkpt lat="-3.1550810" lon="37.3688280">
    <ele>3123.3</ele>
    <time>2026-06-23T12:28:53Z</time>
   </trkpt>
   <trkpt lat="-3.1550800" lon="37.3688230">
    <ele>3123.2</ele>
    <time>2026-06-23T12:28:54Z</time>
   </trkpt>
   <trkpt lat="-3.1550840" lon="37.3688200">
    <ele>3123.0</ele>
    <time>2026-06-23T12:28:55Z</time>
   </trkpt>
   <trkpt lat="-3.1550880" lon="37.3688150">
    <ele>3122.9</ele>
    <time>2026-06-23T12:28:56Z</time>
   </trkpt>
   <trkpt lat="-3.1550930" lon="37.3688110">
    <ele>3122.7</ele>
    <time>2026-06-23T12:28:57Z</time>
   </trkpt>
   <trkpt lat="-3.1550880" lon="37.3688110">
    <ele>3122.6</ele>
    <time>2026-06-23T12:28:58Z</time>
   </trkpt>
   <trkpt lat="-3.1550920" lon="37.3688090">
    <ele>3122.5</ele>
    <time>2026-06-23T12:28:59Z</time>
   </trkpt>
   <trkpt lat="-3.1550830" lon="37.3688080">
    <ele>3122.3</ele>
    <time>2026-06-23T12:29:00Z</time>
   </trkpt>
   <trkpt lat="-3.1550810" lon="37.3687980">
    <ele>3122.0</ele>
    <time>2026-06-23T12:29:01Z</time>
   </trkpt>
   <trkpt lat="-3.1550810" lon="37.3687850">
    <ele>3121.7</ele>
    <time>2026-06-23T12:29:02Z</time>
   </trkpt>
   <trkpt lat="-3.1550770" lon="37.3687750">
    <ele>3121.4</ele>
    <time>2026-06-23T12:29:03Z</time>
   </trkpt>
   <trkpt lat="-3.1550740" lon="37.3687670">
    <ele>3121.2</ele>
    <time>2026-06-23T12:29:04Z</time>
   </trkpt>
   <trkpt lat="-3.1550790" lon="37.3687590">
    <ele>3121.0</ele>
    <time>2026-06-23T12:29:05Z</time>
   </trkpt>
   <trkpt lat="-3.1550830" lon="37.3687510">
    <ele>3120.8</ele>
    <time>2026-06-23T12:29:06Z</time>
   </trkpt>
   <trkpt lat="-3.1550860" lon="37.3687430">
    <ele>3120.6</ele>
    <time>2026-06-23T12:29:07Z</time>
   </trkpt>
   <trkpt lat="-3.1550880" lon="37.3687360">
    <ele>3120.4</ele>
    <time>2026-06-23T12:29:08Z</time>
   </trkpt>
   <trkpt lat="-3.1550890" lon="37.3687260">
    <ele>3120.2</ele>
    <time>2026-06-23T12:29:09Z</time>
   </trkpt>
   <trkpt lat="-3.1550890" lon="37.3687210">
    <ele>3120.1</ele>
    <time>2026-06-23T12:29:10Z</time>
   </trkpt>
   <trkpt lat="-3.1550840" lon="37.3687120">
    <ele>3119.8</ele>
    <time>2026-06-23T12:29:11Z</time>
   </trkpt>
   <trkpt lat="-3.1550810" lon="37.3687060">
    <ele>3119.7</ele>
    <time>2026-06-23T12:29:12Z</time>
   </trkpt>
   <trkpt lat="-3.1550790" lon="37.3687020">
    <ele>3119.6</ele>
    <time>2026-06-23T12:29:13Z</time>
   </trkpt>
   <trkpt lat="-3.1550790" lon="37.3686990">
    <ele>3119.5</ele>
    <time>2026-06-23T12:29:14Z</time>
   </trkpt>
   <trkpt lat="-3.1550770" lon="37.3686930">
    <ele>3119.4</ele>
    <time>2026-06-23T12:29:15Z</time>
   </trkpt>
   <trkpt lat="-3.1550760" lon="37.3686840">
    <ele>3119.1</ele>
    <time>2026-06-23T12:29:16Z</time>
   </trkpt>
   <trkpt lat="-3.1550770" lon="37.3686760">
    <ele>3119.0</ele>
    <time>2026-06-23T12:29:17Z</time>
   </trkpt>
   <trkpt lat="-3.1550770" lon="37.3686690">
    <ele>3118.8</ele>
    <time>2026-06-23T12:29:18Z</time>
   </trkpt>
   <trkpt lat="-3.1550750" lon="37.3686590">
    <ele>3118.6</ele>
    <time>2026-06-23T12:29:19Z</time>
   </trkpt>
   <trkpt lat="-3.1550750" lon="37.3686500">
    <ele>3118.4</ele>
    <time>2026-06-23T12:29:20Z</time>
   </trkpt>
   <trkpt lat="-3.1550730" lon="37.3686430">
    <ele>3118.2</ele>
    <time>2026-06-23T12:29:21Z</time>
   </trkpt>
   <trkpt lat="-3.1550740" lon="37.3686360">
    <ele>3118.0</ele>
    <time>2026-06-23T12:29:22Z</time>
   </trkpt>
   <trkpt lat="-3.1550760" lon="37.3686330">
    <ele>3118.0</ele>
    <time>2026-06-23T12:29:23Z</time>
   </trkpt>
   <trkpt lat="-3.1550810" lon="37.3686260">
    <ele>3117.8</ele>
    <time>2026-06-23T12:29:24Z</time>
   </trkpt>
   <trkpt lat="-3.1550800" lon="37.3686210">
    <ele>3117.7</ele>
    <time>2026-06-23T12:29:25Z</time>
   </trkpt>
   <trkpt lat="-3.1550790" lon="37.3686160">
    <ele>3117.6</ele>
    <time>2026-06-23T12:29:26Z</time>
   </trkpt>
   <trkpt lat="-3.1550780" lon="37.3686080">
    <ele>3117.4</ele>
    <time>2026-06-23T12:29:27Z</time>
   </trkpt>
   <trkpt lat="-3.1550770" lon="37.3686030">
    <ele>3117.3</ele>
    <time>2026-06-23T12:29:28Z</time>
   </trkpt>
   <trkpt lat="-3.1550750" lon="37.3685980">
    <ele>3117.1</ele>
    <time>2026-06-23T12:29:29Z</time>
   </trkpt>
   <trkpt lat="-3.1550740" lon="37.3685940">
    <ele>3117.1</ele>
    <time>2026-06-23T12:29:30Z</time>
   </trkpt>
   <trkpt lat="-3.1550760" lon="37.3685880">
    <ele>3116.9</ele>
    <time>2026-06-23T12:29:31Z</time>
   </trkpt>
   <trkpt lat="-3.1550740" lon="37.3685810">
    <ele>3116.8</ele>
    <time>2026-06-23T12:29:32Z</time>
   </trkpt>
   <trkpt lat="-3.1550720" lon="37.3685740">
    <ele>3116.6</ele>
    <time>2026-06-23T12:29:33Z</time>
   </trkpt>
   <trkpt lat="-3.1550650" lon="37.3685690">
    <ele>3116.4</ele>
    <time>2026-06-23T12:29:34Z</time>
   </trkpt>
   <trkpt lat="-3.1550610" lon="37.3685630">
    <ele>3116.2</ele>
    <time>2026-06-23T12:29:35Z</time>
   </trkpt>
   <trkpt lat="-3.1550570" lon="37.3685540">
    <ele>3116.0</ele>
    <time>2026-06-23T12:29:36Z</time>
   </trkpt>
   <trkpt lat="-3.1550560" lon="37.3685500">
    <ele>3115.9</ele>
    <time>2026-06-23T12:29:37Z</time>
   </trkpt>
   <trkpt lat="-3.1550520" lon="37.3685410">
    <ele>3115.7</ele>
    <time>2026-06-23T12:29:38Z</time>
   </trkpt>
   <trkpt lat="-3.1550500" lon="37.3685290">
    <ele>3115.4</ele>
    <time>2026-06-23T12:29:39Z</time>
   </trkpt>
   <trkpt lat="-3.1550470" lon="37.3685240">
    <ele>3115.3</ele>
    <time>2026-06-23T12:29:40Z</time>
   </trkpt>
   <trkpt lat="-3.1550470" lon="37.3685190">
    <ele>3115.2</ele>
    <time>2026-06-23T12:29:41Z</time>
   </trkpt>
   <trkpt lat="-3.1550440" lon="37.3685150">
    <ele>3115.1</ele>
    <time>2026-06-23T12:29:42Z</time>
   </trkpt>
   <trkpt lat="-3.1550410" lon="37.3685060">
    <ele>3114.8</ele>
    <time>2026-06-23T12:29:43Z</time>
   </trkpt>
   <trkpt lat="-3.1550420" lon="37.3684990">
    <ele>3114.7</ele>
    <time>2026-06-23T12:29:44Z</time>
   </trkpt>
   <trkpt lat="-3.1550430" lon="37.3684900">
    <ele>3114.5</ele>
    <time>2026-06-23T12:29:45Z</time>
   </trkpt>
   <trkpt lat="-3.1550440" lon="37.3684830">
    <ele>3114.3</ele>
    <time>2026-06-23T12:29:46Z</time>
   </trkpt>
   <trkpt lat="-3.1550450" lon="37.3684800">
    <ele>3114.2</ele>
    <time>2026-06-23T12:29:47Z</time>
   </trkpt>
   <trkpt lat="-3.1550460" lon="37.3684710">
    <ele>3114.0</ele>
    <time>2026-06-23T12:29:48Z</time>
   </trkpt>
   <trkpt lat="-3.1550480" lon="37.3684720">
    <ele>3113.9</ele>
    <time>2026-06-23T12:29:49Z</time>
   </trkpt>
   <trkpt lat="-3.1550510" lon="37.3684730">
    <ele>3113.9</ele>
    <time>2026-06-23T12:29:50Z</time>
   </trkpt>
   <trkpt lat="-3.1550570" lon="37.3684770">
    <ele>3113.7</ele>
    <time>2026-06-23T12:29:51Z</time>
   </trkpt>
   <trkpt lat="-3.1550610" lon="37.3684750">
    <ele>3113.6</ele>
    <time>2026-06-23T12:29:52Z</time>
   </trkpt>
   <trkpt lat="-3.1550660" lon="37.3684700">
    <ele>3113.4</ele>
    <time>2026-06-23T12:29:53Z</time>
   </trkpt>
   <trkpt lat="-3.1550690" lon="37.3684650">
    <ele>3113.2</ele>
    <time>2026-06-23T12:29:54Z</time>
   </trkpt>
   <trkpt lat="-3.1550700" lon="37.3684610">
    <ele>3113.1</ele>
    <time>2026-06-23T12:29:55Z</time>
   </trkpt>
   <trkpt lat="-3.1550690" lon="37.3684640">
    <ele>3113.1</ele>
    <time>2026-06-23T12:29:56Z</time>
   </trkpt>
   <trkpt lat="-3.1550700" lon="37.3684550">
    <ele>3112.8</ele>
    <time>2026-06-23T12:29:57Z</time>
   </trkpt>
   <trkpt lat="-3.1550730" lon="37.3684500">
    <ele>3112.7</ele>
    <time>2026-06-23T12:29:58Z</time>
   </trkpt>
   <trkpt lat="-3.1550750" lon="37.3684430">
    <ele>3112.5</ele>
    <time>2026-06-23T12:29:59Z</time>
   </trkpt>
   <trkpt lat="-3.1550760" lon="37.3684410">
    <ele>3112.4</ele>
    <time>2026-06-23T12:30:00Z</time>
   </trkpt>
   <trkpt lat="-3.1550790" lon="37.3684370">
    <ele>3112.3</ele>
    <time>2026-06-23T12:30:01Z</time>
   </trkpt>
   <trkpt lat="-3.1550860" lon="37.3684350">
    <ele>3112.1</ele>
    <time>2026-06-23T12:30:02Z</time>
   </trkpt>
   <trkpt lat="-3.1550910" lon="37.3684310">
    <ele>3112.0</ele>
    <time>2026-06-23T12:30:03Z</time>
   </trkpt>
   <trkpt lat="-3.1550950" lon="37.3684300">
    <ele>3111.8</ele>
    <time>2026-06-23T12:30:04Z</time>
   </trkpt>
   <trkpt lat="-3.1551020" lon="37.3684270">
    <ele>3111.7</ele>
    <time>2026-06-23T12:30:05Z</time>
   </trkpt>
   <trkpt lat="-3.1551080" lon="37.3684240">
    <ele>3111.5</ele>
    <time>2026-06-23T12:30:06Z</time>
   </trkpt>
   <trkpt lat="-3.1551150" lon="37.3684190">
    <ele>3111.3</ele>
    <time>2026-06-23T12:30:07Z</time>
   </trkpt>
   <trkpt lat="-3.1551190" lon="37.3684180">
    <ele>3111.2</ele>
    <time>2026-06-23T12:30:08Z</time>
   </trkpt>
   <trkpt lat="-3.1551240" lon="37.3684140">
    <ele>3111.0</ele>
    <time>2026-06-23T12:30:09Z</time>
   </trkpt>
   <trkpt lat="-3.1551270" lon="37.3684100">
    <ele>3110.9</ele>
    <time>2026-06-23T12:30:10Z</time>
   </trkpt>
   <trkpt lat="-3.1551290" lon="37.3684050">
    <ele>3110.7</ele>
    <time>2026-06-23T12:30:11Z</time>
   </trkpt>
   <trkpt lat="-3.1551320" lon="37.3683990">
    <ele>3110.6</ele>
    <time>2026-06-23T12:30:12Z</time>
   </trkpt>
   <trkpt lat="-3.1551320" lon="37.3683940">
    <ele>3110.4</ele>
    <time>2026-06-23T12:30:13Z</time>
   </trkpt>
   <trkpt lat="-3.1551360" lon="37.3683860">
    <ele>3110.2</ele>
    <time>2026-06-23T12:30:14Z</time>
   </trkpt>
   <trkpt lat="-3.1551370" lon="37.3683790">
    <ele>3110.0</ele>
    <time>2026-06-23T12:30:15Z</time>
   </trkpt>
   <trkpt lat="-3.1551370" lon="37.3683710">
    <ele>3109.8</ele>
    <time>2026-06-23T12:30:16Z</time>
   </trkpt>
   <trkpt lat="-3.1551300" lon="37.3683640">
    <ele>3109.6</ele>
    <time>2026-06-23T12:30:17Z</time>
   </trkpt>
   <trkpt lat="-3.1551330" lon="37.3683570">
    <ele>3109.4</ele>
    <time>2026-06-23T12:30:18Z</time>
   </trkpt>
   <trkpt lat="-3.1551380" lon="37.3683510">
    <ele>3109.2</ele>
    <time>2026-06-23T12:30:19Z</time>
   </trkpt>
   <trkpt lat="-3.1551390" lon="37.3683450">
    <ele>3109.0</ele>
    <time>2026-06-23T12:30:20Z</time>
   </trkpt>
   <trkpt lat="-3.1551400" lon="37.3683400">
    <ele>3108.9</ele>
    <time>2026-06-23T12:30:21Z</time>
   </trkpt>
   <trkpt lat="-3.1551380" lon="37.3683280">
    <ele>3108.6</ele>
    <time>2026-06-23T12:30:22Z</time>
   </trkpt>
   <trkpt lat="-3.1551330" lon="37.3683220">
    <ele>3108.4</ele>
    <time>2026-06-23T12:30:23Z</time>
   </trkpt>
   <trkpt lat="-3.1551300" lon="37.3683090">
    <ele>3108.0</ele>
    <time>2026-06-23T12:30:24Z</time>
   </trkpt>
   <trkpt lat="-3.1551280" lon="37.3683050">
    <ele>3107.9</ele>
    <time>2026-06-23T12:30:25Z</time>
   </trkpt>
   <trkpt lat="-3.1551240" lon="37.3682980">
    <ele>3107.7</ele>
    <time>2026-06-23T12:30:26Z</time>
   </trkpt>
   <trkpt lat="-3.1551170" lon="37.3682950">
    <ele>3107.5</ele>
    <time>2026-06-23T12:30:27Z</time>
   </trkpt>
   <trkpt lat="-3.1551110" lon="37.3682900">
    <ele>3107.3</ele>
    <time>2026-06-23T12:30:28Z</time>
   </trkpt>
   <trkpt lat="-3.1551080" lon="37.3682820">
    <ele>3107.1</ele>
    <time>2026-06-23T12:30:29Z</time>
   </trkpt>
   <trkpt lat="-3.1550970" lon="37.3682730">
    <ele>3106.7</ele>
    <time>2026-06-23T12:30:30Z</time>
   </trkpt>
   <trkpt lat="-3.1550950" lon="37.3682700">
    <ele>3106.6</ele>
    <time>2026-06-23T12:30:31Z</time>
   </trkpt>
   <trkpt lat="-3.1550890" lon="37.3682640">
    <ele>3106.4</ele>
    <time>2026-06-23T12:30:32Z</time>
   </trkpt>
   <trkpt lat="-3.1550840" lon="37.3682590">
    <ele>3106.2</ele>
    <time>2026-06-23T12:30:33Z</time>
   </trkpt>
   <trkpt lat="-3.1550830" lon="37.3682520">
    <ele>3106.0</ele>
    <time>2026-06-23T12:30:34Z</time>
   </trkpt>
   <trkpt lat="-3.1550810" lon="37.3682460">
    <ele>3105.9</ele>
    <time>2026-06-23T12:30:35Z</time>
   </trkpt>
   <trkpt lat="-3.1550830" lon="37.3682400">
    <ele>3105.7</ele>
    <time>2026-06-23T12:30:36Z</time>
   </trkpt>
   <trkpt lat="-3.1550850" lon="37.3682370">
    <ele>3105.6</ele>
    <time>2026-06-23T12:30:37Z</time>
   </trkpt>
   <trkpt lat="-3.1550850" lon="37.3682320">
    <ele>3105.5</ele>
    <time>2026-06-23T12:30:38Z</time>
   </trkpt>
   <trkpt lat="-3.1550870" lon="37.3682280">
    <ele>3105.4</ele>
    <time>2026-06-23T12:30:39Z</time>
   </trkpt>
   <trkpt lat="-3.1550900" lon="37.3682210">
    <ele>3105.1</ele>
    <time>2026-06-23T12:30:40Z</time>
   </trkpt>
   <trkpt lat="-3.1550900" lon="37.3682160">
    <ele>3105.0</ele>
    <time>2026-06-23T12:30:41Z</time>
   </trkpt>
   <trkpt lat="-3.1550890" lon="37.3682060">
    <ele>3104.7</ele>
    <time>2026-06-23T12:30:42Z</time>
   </trkpt>
   <trkpt lat="-3.1550850" lon="37.3681990">
    <ele>3104.5</ele>
    <time>2026-06-23T12:30:43Z</time>
   </trkpt>
   <trkpt lat="-3.1550890" lon="37.3681940">
    <ele>3104.4</ele>
    <time>2026-06-23T12:30:44Z</time>
   </trkpt>
   <trkpt lat="-3.1550920" lon="37.3681930">
    <ele>3104.3</ele>
    <time>2026-06-23T12:30:45Z</time>
   </trkpt>
   <trkpt lat="-3.1550950" lon="37.3681890">
    <ele>3104.1</ele>
    <time>2026-06-23T12:30:46Z</time>
   </trkpt>
   <trkpt lat="-3.1550980" lon="37.3681850">
    <ele>3104.0</ele>
    <time>2026-06-23T12:30:47Z</time>
   </trkpt>
   <trkpt lat="-3.1550980" lon="37.3681780">
    <ele>3103.8</ele>
    <time>2026-06-23T12:30:48Z</time>
   </trkpt>
   <trkpt lat="-3.1551030" lon="37.3681750">
    <ele>3103.7</ele>
    <time>2026-06-23T12:30:49Z</time>
   </trkpt>
   <trkpt lat="-3.1551080" lon="37.3681710">
    <ele>3103.5</ele>
    <time>2026-06-23T12:30:50Z</time>
   </trkpt>
   <trkpt lat="-3.1551120" lon="37.3681690">
    <ele>3103.4</ele>
    <time>2026-06-23T12:30:51Z</time>
   </trkpt>
   <trkpt lat="-3.1551150" lon="37.3681640">
    <ele>3103.2</ele>
    <time>2026-06-23T12:30:52Z</time>
   </trkpt>
   <trkpt lat="-3.1551200" lon="37.3681580">
    <ele>3103.0</ele>
    <time>2026-06-23T12:30:53Z</time>
   </trkpt>
   <trkpt lat="-3.1551170" lon="37.3681500">
    <ele>3102.7</ele>
    <time>2026-06-23T12:30:54Z</time>
   </trkpt>
   <trkpt lat="-3.1551170" lon="37.3681480">
    <ele>3102.7</ele>
    <time>2026-06-23T12:30:55Z</time>
   </trkpt>
   <trkpt lat="-3.1551150" lon="37.3681510">
    <ele>3102.6</ele>
    <time>2026-06-23T12:30:56Z</time>
   </trkpt>
   <trkpt lat="-3.1551180" lon="37.3681460">
    <ele>3102.4</ele>
    <time>2026-06-23T12:30:57Z</time>
   </trkpt>
   <trkpt lat="-3.1551180" lon="37.3681340">
    <ele>3102.1</ele>
    <time>2026-06-23T12:30:58Z</time>
   </trkpt>
   <trkpt lat="-3.1551180" lon="37.3681290">
    <ele>3102.0</ele>
    <time>2026-06-23T12:30:59Z</time>
   </trkpt>
   <trkpt lat="-3.1551180" lon="37.3681220">
    <ele>3101.8</ele>
    <time>2026-06-23T12:31:00Z</time>
   </trkpt>
   <trkpt lat="-3.1551180" lon="37.3681180">
    <ele>3101.6</ele>
    <time>2026-06-23T12:31:01Z</time>
   </trkpt>
   <trkpt lat="-3.1551170" lon="37.3681150">
    <ele>3101.6</ele>
    <time>2026-06-23T12:31:02Z</time>
   </trkpt>
   <trkpt lat="-3.1551200" lon="37.3681050">
    <ele>3101.3</ele>
    <time>2026-06-23T12:31:03Z</time>
   </trkpt>
   <trkpt lat="-3.1551240" lon="37.3681020">
    <ele>3101.1</ele>
    <time>2026-06-23T12:31:04Z</time>
   </trkpt>
   <trkpt lat="-3.1551250" lon="37.3680980">
    <ele>3101.0</ele>
    <time>2026-06-23T12:31:05Z</time>
   </trkpt>
   <trkpt lat="-3.1551250" lon="37.3680920">
    <ele>3100.9</ele>
    <time>2026-06-23T12:31:06Z</time>
   </trkpt>
   <trkpt lat="-3.1551270" lon="37.3680860">
    <ele>3100.7</ele>
    <time>2026-06-23T12:31:07Z</time>
   </trkpt>
   <trkpt lat="-3.1551310" lon="37.3680790">
    <ele>3100.5</ele>
    <time>2026-06-23T12:31:08Z</time>
   </trkpt>
   <trkpt lat="-3.1551330" lon="37.3680750">
    <ele>3100.3</ele>
    <time>2026-06-23T12:31:09Z</time>
   </trkpt>
   <trkpt lat="-3.1551290" lon="37.3680700">
    <ele>3100.2</ele>
    <time>2026-06-23T12:31:10Z</time>
   </trkpt>
   <trkpt lat="-3.1551300" lon="37.3680640">
    <ele>3100.0</ele>
    <time>2026-06-23T12:31:11Z</time>
   </trkpt>
   <trkpt lat="-3.1551340" lon="37.3680580">
    <ele>3099.8</ele>
    <time>2026-06-23T12:31:12Z</time>
   </trkpt>
   <trkpt lat="-3.1551350" lon="37.3680550">
    <ele>3099.7</ele>
    <time>2026-06-23T12:31:13Z</time>
   </trkpt>
   <trkpt lat="-3.1551350" lon="37.3680530">
    <ele>3099.6</ele>
    <time>2026-06-23T12:31:14Z</time>
   </trkpt>
   <trkpt lat="-3.1551390" lon="37.3680440">
    <ele>3099.4</ele>
    <time>2026-06-23T12:31:15Z</time>
   </trkpt>
   <trkpt lat="-3.1551410" lon="37.3680380">
    <ele>3099.2</ele>
    <time>2026-06-23T12:31:16Z</time>
   </trkpt>
   <trkpt lat="-3.1551440" lon="37.3680340">
    <ele>3099.1</ele>
    <time>2026-06-23T12:31:17Z</time>
   </trkpt>
   <trkpt lat="-3.1551470" lon="37.3680290">
    <ele>3098.9</ele>
    <time>2026-06-23T12:31:18Z</time>
   </trkpt>
   <trkpt lat="-3.1551450" lon="37.3680240">
    <ele>3098.7</ele>
    <time>2026-06-23T12:31:19Z</time>
   </trkpt>
   <trkpt lat="-3.1551420" lon="37.3680190">
    <ele>3098.6</ele>
    <time>2026-06-23T12:31:20Z</time>
   </trkpt>
   <trkpt lat="-3.1551450" lon="37.3680130">
    <ele>3098.4</ele>
    <time>2026-06-23T12:31:21Z</time>
   </trkpt>
   <trkpt lat="-3.1551510" lon="37.3680090">
    <ele>3098.2</ele>
    <time>2026-06-23T12:31:22Z</time>
   </trkpt>
   <trkpt lat="-3.1551530" lon="37.3680020">
    <ele>3098.0</ele>
    <time>2026-06-23T12:31:23Z</time>
   </trkpt>
   <trkpt lat="-3.1551610" lon="37.3680010">
    <ele>3097.8</ele>
    <time>2026-06-23T12:31:24Z</time>
   </trkpt>
   <trkpt lat="-3.1551680" lon="37.3680010">
    <ele>3097.6</ele>
    <time>2026-06-23T12:31:25Z</time>
   </trkpt>
   <trkpt lat="-3.1551720" lon="37.3680020">
    <ele>3097.5</ele>
    <time>2026-06-23T12:31:26Z</time>
   </trkpt>
   <trkpt lat="-3.1551760" lon="37.3680010">
    <ele>3097.4</ele>
    <time>2026-06-23T12:31:27Z</time>
   </trkpt>
   <trkpt lat="-3.1551790" lon="37.3679980">
    <ele>3097.3</ele>
    <time>2026-06-23T12:31:28Z</time>
   </trkpt>
   <trkpt lat="-3.1551860" lon="37.3679920">
    <ele>3097.0</ele>
    <time>2026-06-23T12:31:29Z</time>
   </trkpt>
   <trkpt lat="-3.1551890" lon="37.3679890">
    <ele>3096.9</ele>
    <time>2026-06-23T12:31:30Z</time>
   </trkpt>
   <trkpt lat="-3.1551910" lon="37.3679830">
    <ele>3096.8</ele>
    <time>2026-06-23T12:31:31Z</time>
   </trkpt>
   <trkpt lat="-3.1551960" lon="37.3679780">
    <ele>3096.6</ele>
    <time>2026-06-23T12:31:32Z</time>
   </trkpt>
   <trkpt lat="-3.1552020" lon="37.3679740">
    <ele>3096.4</ele>
    <time>2026-06-23T12:31:33Z</time>
   </trkpt>
   <trkpt lat="-3.1552070" lon="37.3679680">
    <ele>3096.2</ele>
    <time>2026-06-23T12:31:34Z</time>
   </trkpt>
   <trkpt lat="-3.1552100" lon="37.3679650">
    <ele>3096.1</ele>
    <time>2026-06-23T12:31:35Z</time>
   </trkpt>
   <trkpt lat="-3.1552140" lon="37.3679620">
    <ele>3096.0</ele>
    <time>2026-06-23T12:31:36Z</time>
   </trkpt>
   <trkpt lat="-3.1552180" lon="37.3679560">
    <ele>3095.8</ele>
    <time>2026-06-23T12:31:37Z</time>
   </trkpt>
   <trkpt lat="-3.1552200" lon="37.3679510">
    <ele>3095.7</ele>
    <time>2026-06-23T12:31:38Z</time>
   </trkpt>
   <trkpt lat="-3.1552240" lon="37.3679440">
    <ele>3095.5</ele>
    <time>2026-06-23T12:31:39Z</time>
   </trkpt>
   <trkpt lat="-3.1552260" lon="37.3679350">
    <ele>3095.2</ele>
    <time>2026-06-23T12:31:40Z</time>
   </trkpt>
   <trkpt lat="-3.1552260" lon="37.3679260">
    <ele>3095.0</ele>
    <time>2026-06-23T12:31:41Z</time>
   </trkpt>
   <trkpt lat="-3.1552270" lon="37.3679150">
    <ele>3094.8</ele>
    <time>2026-06-23T12:31:42Z</time>
   </trkpt>
   <trkpt lat="-3.1552290" lon="37.3679090">
    <ele>3094.6</ele>
    <time>2026-06-23T12:31:43Z</time>
   </trkpt>
   <trkpt lat="-3.1552310" lon="37.3679010">
    <ele>3094.5</ele>
    <time>2026-06-23T12:31:44Z</time>
   </trkpt>
   <trkpt lat="-3.1552330" lon="37.3678900">
    <ele>3094.2</ele>
    <time>2026-06-23T12:31:45Z</time>
   </trkpt>
   <trkpt lat="-3.1552320" lon="37.3678850">
    <ele>3094.1</ele>
    <time>2026-06-23T12:31:46Z</time>
   </trkpt>
   <trkpt lat="-3.1552300" lon="37.3678770">
    <ele>3093.9</ele>
    <time>2026-06-23T12:31:47Z</time>
   </trkpt>
   <trkpt lat="-3.1552320" lon="37.3678660">
    <ele>3093.7</ele>
    <time>2026-06-23T12:31:48Z</time>
   </trkpt>
   <trkpt lat="-3.1552340" lon="37.3678610">
    <ele>3093.6</ele>
    <time>2026-06-23T12:31:49Z</time>
   </trkpt>
   <trkpt lat="-3.1552400" lon="37.3678540">
    <ele>3093.4</ele>
    <time>2026-06-23T12:31:50Z</time>
   </trkpt>
   <trkpt lat="-3.1552490" lon="37.3678470">
    <ele>3093.2</ele>
    <time>2026-06-23T12:31:51Z</time>
   </trkpt>
   <trkpt lat="-3.1552560" lon="37.3678500">
    <ele>3093.0</ele>
    <time>2026-06-23T12:31:52Z</time>
   </trkpt>
   <trkpt lat="-3.1552610" lon="37.3678480">
    <ele>3092.9</ele>
    <time>2026-06-23T12:31:53Z</time>
   </trkpt>
   <trkpt lat="-3.1552620" lon="37.3678480">
    <ele>3092.9</ele>
    <time>2026-06-23T12:31:54Z</time>
   </trkpt>
   <trkpt lat="-3.1552750" lon="37.3678430">
    <ele>3092.6</ele>
    <time>2026-06-23T12:31:55Z</time>
   </trkpt>
   <trkpt lat="-3.1552870" lon="37.3678390">
    <ele>3092.4</ele>
    <time>2026-06-23T12:31:56Z</time>
   </trkpt>
   <trkpt lat="-3.1552970" lon="37.3678420">
    <ele>3092.2</ele>
    <time>2026-06-23T12:31:57Z</time>
   </trkpt>
   <trkpt lat="-3.1552980" lon="37.3678420">
    <ele>3092.2</ele>
    <time>2026-06-23T12:31:58Z</time>
   </trkpt>
   <trkpt lat="-3.1553050" lon="37.3678370">
    <ele>3092.0</ele>
    <time>2026-06-23T12:31:59Z</time>
   </trkpt>
   <trkpt lat="-3.1553180" lon="37.3678310">
    <ele>3091.8</ele>
    <time>2026-06-23T12:32:00Z</time>
   </trkpt>
   <trkpt lat="-3.1553260" lon="37.3678220">
    <ele>3091.6</ele>
    <time>2026-06-23T12:32:01Z</time>
   </trkpt>
   <trkpt lat="-3.1553310" lon="37.3678160">
    <ele>3091.5</ele>
    <time>2026-06-23T12:32:02Z</time>
   </trkpt>
   <trkpt lat="-3.1553390" lon="37.3678100">
    <ele>3091.3</ele>
    <time>2026-06-23T12:32:03Z</time>
   </trkpt>
   <trkpt lat="-3.1553470" lon="37.3678030">
    <ele>3091.1</ele>
    <time>2026-06-23T12:32:04Z</time>
   </trkpt>
   <trkpt lat="-3.1553530" lon="37.3678030">
    <ele>3091.0</ele>
    <time>2026-06-23T12:32:05Z</time>
   </trkpt>
   <trkpt lat="-3.1553610" lon="37.3678010">
    <ele>3090.9</ele>
    <time>2026-06-23T12:32:06Z</time>
   </trkpt>
   <trkpt lat="-3.1553740" lon="37.3677990">
    <ele>3090.7</ele>
    <time>2026-06-23T12:32:07Z</time>
   </trkpt>
   <trkpt lat="-3.1553820" lon="37.3677980">
    <ele>3090.6</ele>
    <time>2026-06-23T12:32:08Z</time>
   </trkpt>
   <trkpt lat="-3.1553890" lon="37.3677990">
    <ele>3090.5</ele>
    <time>2026-06-23T12:32:09Z</time>
   </trkpt>
   <trkpt lat="-3.1553960" lon="37.3677990">
    <ele>3090.4</ele>
    <time>2026-06-23T12:32:10Z</time>
   </trkpt>
   <trkpt lat="-3.1554060" lon="37.3677970">
    <ele>3090.2</ele>
    <time>2026-06-23T12:32:11Z</time>
   </trkpt>
   <trkpt lat="-3.1554150" lon="37.3677940">
    <ele>3090.1</ele>
    <time>2026-06-23T12:32:13Z</time>
   </trkpt>
   <trkpt lat="-3.1554220" lon="37.3677920">
    <ele>3090.0</ele>
    <time>2026-06-23T12:32:14Z</time>
   </trkpt>
   <trkpt lat="-3.1554320" lon="37.3677880">
    <ele>3089.8</ele>
    <time>2026-06-23T12:32:15Z</time>
   </trkpt>
   <trkpt lat="-3.1554410" lon="37.3677840">
    <ele>3089.6</ele>
    <time>2026-06-23T12:32:16Z</time>
   </trkpt>
   <trkpt lat="-3.1554500" lon="37.3677820">
    <ele>3089.5</ele>
    <time>2026-06-23T12:32:17Z</time>
   </trkpt>
   <trkpt lat="-3.1554510" lon="37.3677850">
    <ele>3089.5</ele>
    <time>2026-06-23T12:32:18Z</time>
   </trkpt>
   <trkpt lat="-3.1554550" lon="37.3677830">
    <ele>3089.4</ele>
    <time>2026-06-23T12:32:19Z</time>
   </trkpt>
   <trkpt lat="-3.1554540" lon="37.3677840">
    <ele>3089.4</ele>
    <time>2026-06-23T12:32:20Z</time>
   </trkpt>
   <trkpt lat="-3.1554540" lon="37.3677840">
    <ele>3089.4</ele>
    <time>2026-06-23T12:32:21Z</time>
   </trkpt>
   <trkpt lat="-3.1554540" lon="37.3677840">
    <ele>3089.4</ele>
    <time>2026-06-23T12:32:22Z</time>
   </trkpt>
   <trkpt lat="-3.1554600" lon="37.3677830">
    <ele>3089.3</ele>
    <time>2026-06-23T12:32:23Z</time>
   </trkpt>
   <trkpt lat="-3.1554610" lon="37.3677820">
    <ele>3089.2</ele>
    <time>2026-06-23T12:32:24Z</time>
   </trkpt>
   <trkpt lat="-3.1554650" lon="37.3677780">
    <ele>3089.2</ele>
    <time>2026-06-23T12:32:25Z</time>
   </trkpt>
   <trkpt lat="-3.1554710" lon="37.3677790">
    <ele>3089.1</ele>
    <time>2026-06-23T12:32:26Z</time>
   </trkpt>
   <trkpt lat="-3.1554770" lon="37.3677750">
    <ele>3089.0</ele>
    <time>2026-06-23T12:32:27Z</time>
   </trkpt>
   <trkpt lat="-3.1554850" lon="37.3677740">
    <ele>3088.8</ele>
    <time>2026-06-23T12:32:28Z</time>
   </trkpt>
   <trkpt lat="-3.1554940" lon="37.3677720">
    <ele>3088.7</ele>
    <time>2026-06-23T12:32:29Z</time>
   </trkpt>
   <trkpt lat="-3.1555030" lon="37.3677700">
    <ele>3088.5</ele>
    <time>2026-06-23T12:32:30Z</time>
   </trkpt>
   <trkpt lat="-3.1555110" lon="37.3677660">
    <ele>3088.4</ele>
    <time>2026-06-23T12:32:31Z</time>
   </trkpt>
   <trkpt lat="-3.1555180" lon="37.3677610">
    <ele>3088.3</ele>
    <time>2026-06-23T12:32:32Z</time>
   </trkpt>
   <trkpt lat="-3.1555260" lon="37.3677580">
    <ele>3088.1</ele>
    <time>2026-06-23T12:32:33Z</time>
   </trkpt>
   <trkpt lat="-3.1555360" lon="37.3677570">
    <ele>3088.0</ele>
    <time>2026-06-23T12:32:34Z</time>
   </trkpt>
   <trkpt lat="-3.1555430" lon="37.3677580">
    <ele>3087.9</ele>
    <time>2026-06-23T12:32:35Z</time>
   </trkpt>
   <trkpt lat="-3.1555490" lon="37.3677620">
    <ele>3087.8</ele>
    <time>2026-06-23T12:32:36Z</time>
   </trkpt>
   <trkpt lat="-3.1555610" lon="37.3677650">
    <ele>3087.6</ele>
    <time>2026-06-23T12:32:37Z</time>
   </trkpt>
   <trkpt lat="-3.1555660" lon="37.3677670">
    <ele>3087.5</ele>
    <time>2026-06-23T12:32:38Z</time>
   </trkpt>
   <trkpt lat="-3.1555700" lon="37.3677660">
    <ele>3087.4</ele>
    <time>2026-06-23T12:32:39Z</time>
   </trkpt>
   <trkpt lat="-3.1555760" lon="37.3677630">
    <ele>3087.3</ele>
    <time>2026-06-23T12:32:40Z</time>
   </trkpt>
   <trkpt lat="-3.1555830" lon="37.3677590">
    <ele>3087.2</ele>
    <time>2026-06-23T12:32:41Z</time>
   </trkpt>
   <trkpt lat="-3.1555900" lon="37.3677560">
    <ele>3087.0</ele>
    <time>2026-06-23T12:32:42Z</time>
   </trkpt>
   <trkpt lat="-3.1555980" lon="37.3677530">
    <ele>3086.9</ele>
    <time>2026-06-23T12:32:43Z</time>
   </trkpt>
   <trkpt lat="-3.1556080" lon="37.3677530">
    <ele>3086.7</ele>
    <time>2026-06-23T12:32:44Z</time>
   </trkpt>
   <trkpt lat="-3.1556150" lon="37.3677500">
    <ele>3086.6</ele>
    <time>2026-06-23T12:32:45Z</time>
   </trkpt>
   <trkpt lat="-3.1556200" lon="37.3677440">
    <ele>3086.4</ele>
    <time>2026-06-23T12:32:46Z</time>
   </trkpt>
   <trkpt lat="-3.1556280" lon="37.3677420">
    <ele>3086.3</ele>
    <time>2026-06-23T12:32:47Z</time>
   </trkpt>
   <trkpt lat="-3.1556340" lon="37.3677390">
    <ele>3086.2</ele>
    <time>2026-06-23T12:32:48Z</time>
   </trkpt>
   <trkpt lat="-3.1556410" lon="37.3677390">
    <ele>3086.0</ele>
    <time>2026-06-23T12:32:49Z</time>
   </trkpt>
   <trkpt lat="-3.1556480" lon="37.3677410">
    <ele>3085.9</ele>
    <time>2026-06-23T12:32:50Z</time>
   </trkpt>
   <trkpt lat="-3.1556560" lon="37.3677440">
    <ele>3085.8</ele>
    <time>2026-06-23T12:32:51Z</time>
   </trkpt>
   <trkpt lat="-3.1556680" lon="37.3677460">
    <ele>3085.6</ele>
    <time>2026-06-23T12:32:52Z</time>
   </trkpt>
   <trkpt lat="-3.1556720" lon="37.3677450">
    <ele>3085.5</ele>
    <time>2026-06-23T12:32:53Z</time>
   </trkpt>
   <trkpt lat="-3.1556790" lon="37.3677450">
    <ele>3085.4</ele>
    <time>2026-06-23T12:32:54Z</time>
   </trkpt>
   <trkpt lat="-3.1556900" lon="37.3677440">
    <ele>3085.2</ele>
    <time>2026-06-23T12:32:55Z</time>
   </trkpt>
   <trkpt lat="-3.1556950" lon="37.3677400">
    <ele>3085.1</ele>
    <time>2026-06-23T12:32:56Z</time>
   </trkpt>
   <trkpt lat="-3.1557040" lon="37.3677410">
    <ele>3084.9</ele>
    <time>2026-06-23T12:32:57Z</time>
   </trkpt>
   <trkpt lat="-3.1557060" lon="37.3677400">
    <ele>3084.9</ele>
    <time>2026-06-23T12:32:58Z</time>
   </trkpt>
   <trkpt lat="-3.1557100" lon="37.3677390">
    <ele>3084.8</ele>
    <time>2026-06-23T12:32:59Z</time>
   </trkpt>
   <trkpt lat="-3.1557160" lon="37.3677420">
    <ele>3084.7</ele>
    <time>2026-06-23T12:33:00Z</time>
   </trkpt>
   <trkpt lat="-3.1557230" lon="37.3677410">
    <ele>3084.5</ele>
    <time>2026-06-23T12:33:01Z</time>
   </trkpt>
   <trkpt lat="-3.1557340" lon="37.3677390">
    <ele>3084.4</ele>
    <time>2026-06-23T12:33:02Z</time>
   </trkpt>
   <trkpt lat="-3.1557430" lon="37.3677390">
    <ele>3084.2</ele>
    <time>2026-06-23T12:33:03Z</time>
   </trkpt>
   <trkpt lat="-3.1557540" lon="37.3677390">
    <ele>3084.0</ele>
    <time>2026-06-23T12:33:04Z</time>
   </trkpt>
   <trkpt lat="-3.1557610" lon="37.3677390">
    <ele>3083.9</ele>
    <time>2026-06-23T12:33:05Z</time>
   </trkpt>
   <trkpt lat="-3.1557670" lon="37.3677370">
    <ele>3083.8</ele>
    <time>2026-06-23T12:33:06Z</time>
   </trkpt>
   <trkpt lat="-3.1557730" lon="37.3677340">
    <ele>3083.7</ele>
    <time>2026-06-23T12:33:07Z</time>
   </trkpt>
   <trkpt lat="-3.1557860" lon="37.3677270">
    <ele>3083.4</ele>
    <time>2026-06-23T12:33:08Z</time>
   </trkpt>
   <trkpt lat="-3.1557900" lon="37.3677310">
    <ele>3083.3</ele>
    <time>2026-06-23T12:33:09Z</time>
   </trkpt>
   <trkpt lat="-3.1557960" lon="37.3677380">
    <ele>3083.2</ele>
    <time>2026-06-23T12:33:10Z</time>
   </trkpt>
   <trkpt lat="-3.1558070" lon="37.3677470">
    <ele>3082.9</ele>
    <time>2026-06-23T12:33:11Z</time>
   </trkpt>
   <trkpt lat="-3.1558170" lon="37.3677490">
    <ele>3082.8</ele>
    <time>2026-06-23T12:33:12Z</time>
   </trkpt>
   <trkpt lat="-3.1558250" lon="37.3677450">
    <ele>3082.7</ele>
    <time>2026-06-23T12:33:13Z</time>
   </trkpt>
   <trkpt lat="-3.1558380" lon="37.3677380">
    <ele>3082.7</ele>
    <time>2026-06-23T12:33:14Z</time>
   </trkpt>
   <trkpt lat="-3.1558470" lon="37.3677310">
    <ele>3082.7</ele>
    <time>2026-06-23T12:33:15Z</time>
   </trkpt>
   <trkpt lat="-3.1558540" lon="37.3677230">
    <ele>3082.7</ele>
    <time>2026-06-23T12:33:16Z</time>
   </trkpt>
   <trkpt lat="-3.1558590" lon="37.3677150">
    <ele>3082.7</ele>
    <time>2026-06-23T12:33:17Z</time>
   </trkpt>
   <trkpt lat="-3.1558660" lon="37.3677050">
    <ele>3082.7</ele>
    <time>2026-06-23T12:33:18Z</time>
   </trkpt>
   <trkpt lat="-3.1558730" lon="37.3676980">
    <ele>3082.7</ele>
    <time>2026-06-23T12:33:19Z</time>
   </trkpt>
   <trkpt lat="-3.1558810" lon="37.3676960">
    <ele>3082.7</ele>
    <time>2026-06-23T12:33:20Z</time>
   </trkpt>
   <trkpt lat="-3.1558910" lon="37.3676880">
    <ele>3082.8</ele>
    <time>2026-06-23T12:33:21Z</time>
   </trkpt>
   <trkpt lat="-3.1558980" lon="37.3676850">
    <ele>3082.8</ele>
    <time>2026-06-23T12:33:22Z</time>
   </trkpt>
   <trkpt lat="-3.1559060" lon="37.3676800">
    <ele>3082.9</ele>
    <time>2026-06-23T12:33:23Z</time>
   </trkpt>
   <trkpt lat="-3.1559140" lon="37.3676730">
    <ele>3083.0</ele>
    <time>2026-06-23T12:33:24Z</time>
   </trkpt>
   <trkpt lat="-3.1559200" lon="37.3676650">
    <ele>3083.1</ele>
    <time>2026-06-23T12:33:25Z</time>
   </trkpt>
   <trkpt lat="-3.1559290" lon="37.3676550">
    <ele>3083.2</ele>
    <time>2026-06-23T12:33:26Z</time>
   </trkpt>
   <trkpt lat="-3.1559360" lon="37.3676470">
    <ele>3083.3</ele>
    <time>2026-06-23T12:33:27Z</time>
   </trkpt>
   <trkpt lat="-3.1559420" lon="37.3676380">
    <ele>3083.4</ele>
    <time>2026-06-23T12:33:28Z</time>
   </trkpt>
   <trkpt lat="-3.1559470" lon="37.3676290">
    <ele>3083.5</ele>
    <time>2026-06-23T12:33:29Z</time>
   </trkpt>
   <trkpt lat="-3.1559490" lon="37.3676190">
    <ele>3083.6</ele>
    <time>2026-06-23T12:33:30Z</time>
   </trkpt>
   <trkpt lat="-3.1559540" lon="37.3676100">
    <ele>3083.7</ele>
    <time>2026-06-23T12:33:31Z</time>
   </trkpt>
   <trkpt lat="-3.1559590" lon="37.3676020">
    <ele>3083.8</ele>
    <time>2026-06-23T12:33:32Z</time>
   </trkpt>
   <trkpt lat="-3.1559650" lon="37.3675910">
    <ele>3083.9</ele>
    <time>2026-06-23T12:33:33Z</time>
   </trkpt>
   <trkpt lat="-3.1559710" lon="37.3675840">
    <ele>3084.0</ele>
    <time>2026-06-23T12:33:34Z</time>
   </trkpt>
   <trkpt lat="-3.1559730" lon="37.3675790">
    <ele>3084.0</ele>
    <time>2026-06-23T12:33:35Z</time>
   </trkpt>
   <trkpt lat="-3.1559770" lon="37.3675720">
    <ele>3084.1</ele>
    <time>2026-06-23T12:33:36Z</time>
   </trkpt>
   <trkpt lat="-3.1559830" lon="37.3675640">
    <ele>3084.2</ele>
    <time>2026-06-23T12:33:37Z</time>
   </trkpt>
   <trkpt lat="-3.1559900" lon="37.3675530">
    <ele>3084.4</ele>
    <time>2026-06-23T12:33:38Z</time>
   </trkpt>
   <trkpt lat="-3.1559960" lon="37.3675480">
    <ele>3084.5</ele>
    <time>2026-06-23T12:33:39Z</time>
   </trkpt>
   <trkpt lat="-3.1560050" lon="37.3675400">
    <ele>3084.6</ele>
    <time>2026-06-23T12:33:40Z</time>
   </trkpt>
   <trkpt lat="-3.1560110" lon="37.3675370">
    <ele>3084.7</ele>
    <time>2026-06-23T12:33:41Z</time>
   </trkpt>
   <trkpt lat="-3.1560170" lon="37.3675340">
    <ele>3084.8</ele>
    <time>2026-06-23T12:33:42Z</time>
   </trkpt>
   <trkpt lat="-3.1560230" lon="37.3675270">
    <ele>3084.9</ele>
    <time>2026-06-23T12:33:43Z</time>
   </trkpt>
   <trkpt lat="-3.1560240" lon="37.3675230">
    <ele>3084.9</ele>
    <time>2026-06-23T12:33:44Z</time>
   </trkpt>
   <trkpt lat="-3.1560190" lon="37.3675180">
    <ele>3085.0</ele>
    <time>2026-06-23T12:33:45Z</time>
   </trkpt>
   <trkpt lat="-3.1560240" lon="37.3675080">
    <ele>3085.1</ele>
    <time>2026-06-23T12:33:46Z</time>
   </trkpt>
   <trkpt lat="-3.1560310" lon="37.3675060">
    <ele>3085.2</ele>
    <time>2026-06-23T12:33:47Z</time>
   </trkpt>
   <trkpt lat="-3.1560390" lon="37.3675010">
    <ele>3085.3</ele>
    <time>2026-06-23T12:33:48Z</time>
   </trkpt>
   <trkpt lat="-3.1560430" lon="37.3674930">
    <ele>3085.3</ele>
    <time>2026-06-23T12:33:49Z</time>
   </trkpt>
   <trkpt lat="-3.1560480" lon="37.3674850">
    <ele>3085.4</ele>
    <time>2026-06-23T12:33:50Z</time>
   </trkpt>
   <trkpt lat="-3.1560530" lon="37.3674770">
    <ele>3085.5</ele>
    <time>2026-06-23T12:33:51Z</time>
   </trkpt>
   <trkpt lat="-3.1560530" lon="37.3674730">
    <ele>3085.5</ele>
    <time>2026-06-23T12:33:52Z</time>
   </trkpt>
   <trkpt lat="-3.1560580" lon="37.3674640">
    <ele>3085.6</ele>
    <time>2026-06-23T12:33:53Z</time>
   </trkpt>
   <trkpt lat="-3.1560630" lon="37.3674580">
    <ele>3085.7</ele>
    <time>2026-06-23T12:33:54Z</time>
   </trkpt>
   <trkpt lat="-3.1560670" lon="37.3674480">
    <ele>3085.8</ele>
    <time>2026-06-23T12:33:55Z</time>
   </trkpt>
   <trkpt lat="-3.1560700" lon="37.3674410">
    <ele>3085.8</ele>
    <time>2026-06-23T12:33:56Z</time>
   </trkpt>
   <trkpt lat="-3.1560750" lon="37.3674310">
    <ele>3085.9</ele>
    <time>2026-06-23T12:33:57Z</time>
   </trkpt>
   <trkpt lat="-3.1560790" lon="37.3674200">
    <ele>3085.9</ele>
    <time>2026-06-23T12:33:58Z</time>
   </trkpt>
   <trkpt lat="-3.1560830" lon="37.3674130">
    <ele>3086.0</ele>
    <time>2026-06-23T12:33:59Z</time>
   </trkpt>
   <trkpt lat="-3.1560870" lon="37.3674040">
    <ele>3086.0</ele>
    <time>2026-06-23T12:34:00Z</time>
   </trkpt>
   <trkpt lat="-3.1560930" lon="37.3673960">
    <ele>3086.0</ele>
    <time>2026-06-23T12:34:01Z</time>
   </trkpt>
   <trkpt lat="-3.1560970" lon="37.3673890">
    <ele>3086.0</ele>
    <time>2026-06-23T12:34:02Z</time>
   </trkpt>
   <trkpt lat="-3.1561040" lon="37.3673800">
    <ele>3086.1</ele>
    <time>2026-06-23T12:34:03Z</time>
   </trkpt>
   <trkpt lat="-3.1561130" lon="37.3673710">
    <ele>3086.1</ele>
    <time>2026-06-23T12:34:04Z</time>
   </trkpt>
   <trkpt lat="-3.1561170" lon="37.3673630">
    <ele>3086.1</ele>
    <time>2026-06-23T12:34:05Z</time>
   </trkpt>
   <trkpt lat="-3.1561190" lon="37.3673560">
    <ele>3086.1</ele>
    <time>2026-06-23T12:34:06Z</time>
   </trkpt>
   <trkpt lat="-3.1561230" lon="37.3673500">
    <ele>3086.1</ele>
    <time>2026-06-23T12:34:07Z</time>
   </trkpt>
   <trkpt lat="-3.1561270" lon="37.3673450">
    <ele>3086.1</ele>
    <time>2026-06-23T12:34:08Z</time>
   </trkpt>
   <trkpt lat="-3.1561300" lon="37.3673390">
    <ele>3086.1</ele>
    <time>2026-06-23T12:34:09Z</time>
   </trkpt>
   <trkpt lat="-3.1561320" lon="37.3673280">
    <ele>3086.0</ele>
    <time>2026-06-23T12:34:10Z</time>
   </trkpt>
   <trkpt lat="-3.1561350" lon="37.3673250">
    <ele>3086.0</ele>
    <time>2026-06-23T12:34:11Z</time>
   </trkpt>
   <trkpt lat="-3.1561370" lon="37.3673230">
    <ele>3086.0</ele>
    <time>2026-06-23T12:34:12Z</time>
   </trkpt>
   <trkpt lat="-3.1561410" lon="37.3673220">
    <ele>3086.0</ele>
    <time>2026-06-23T12:34:13Z</time>
   </trkpt>
   <trkpt lat="-3.1561410" lon="37.3673230">
    <ele>3086.0</ele>
    <time>2026-06-23T12:34:14Z</time>
   </trkpt>
   <trkpt lat="-3.1561410" lon="37.3673230">
    <ele>3086.0</ele>
    <time>2026-06-23T12:34:15Z</time>
   </trkpt>
   <trkpt lat="-3.1561410" lon="37.3673230">
    <ele>3086.0</ele>
    <time>2026-06-23T12:34:16Z</time>
   </trkpt>
   <trkpt lat="-3.1561440" lon="37.3673200">
    <ele>3086.0</ele>
    <time>2026-06-23T12:34:17Z</time>
   </trkpt>
   <trkpt lat="-3.1561450" lon="37.3673140">
    <ele>3086.0</ele>
    <time>2026-06-23T12:34:19Z</time>
   </trkpt>
   <trkpt lat="-3.1561460" lon="37.3673100">
    <ele>3086.0</ele>
    <time>2026-06-23T12:34:20Z</time>
   </trkpt>
   <trkpt lat="-3.1561460" lon="37.3673050">
    <ele>3085.9</ele>
    <time>2026-06-23T12:34:21Z</time>
   </trkpt>
   <trkpt lat="-3.1561480" lon="37.3672970">
    <ele>3085.9</ele>
    <time>2026-06-23T12:34:22Z</time>
   </trkpt>
   <trkpt lat="-3.1561500" lon="37.3672930">
    <ele>3085.9</ele>
    <time>2026-06-23T12:34:23Z</time>
   </trkpt>
   <trkpt lat="-3.1561510" lon="37.3672900">
    <ele>3085.9</ele>
    <time>2026-06-23T12:34:24Z</time>
   </trkpt>
   <trkpt lat="-3.1561520" lon="37.3672890">
    <ele>3085.9</ele>
    <time>2026-06-23T12:34:25Z</time>
   </trkpt>
   <trkpt lat="-3.1561530" lon="37.3672870">
    <ele>3085.9</ele>
    <time>2026-06-23T12:34:26Z</time>
   </trkpt>
   <trkpt lat="-3.1561530" lon="37.3672880">
    <ele>3085.9</ele>
    <time>2026-06-23T12:34:27Z</time>
   </trkpt>
   <trkpt lat="-3.1561520" lon="37.3672890">
    <ele>3085.9</ele>
    <time>2026-06-23T12:34:28Z</time>
   </trkpt>
   <trkpt lat="-3.1561520" lon="37.3672880">
    <ele>3085.9</ele>
    <time>2026-06-23T12:34:29Z</time>
   </trkpt>
   <trkpt lat="-3.1561530" lon="37.3672890">
    <ele>3085.9</ele>
    <time>2026-06-23T12:34:30Z</time>
   </trkpt>
   <trkpt lat="-3.1561550" lon="37.3672870">
    <ele>3085.8</ele>
    <time>2026-06-23T12:34:31Z</time>
   </trkpt>
   <trkpt lat="-3.1561570" lon="37.3672810">
    <ele>3085.8</ele>
    <time>2026-06-23T12:34:32Z</time>
   </trkpt>
   <trkpt lat="-3.1561570" lon="37.3672740">
    <ele>3085.8</ele>
    <time>2026-06-23T12:34:33Z</time>
   </trkpt>
   <trkpt lat="-3.1561640" lon="37.3672660">
    <ele>3085.7</ele>
    <time>2026-06-23T12:34:34Z</time>
   </trkpt>
   <trkpt lat="-3.1561670" lon="37.3672590">
    <ele>3085.6</ele>
    <time>2026-06-23T12:34:35Z</time>
   </trkpt>
   <trkpt lat="-3.1561710" lon="37.3672510">
    <ele>3085.6</ele>
    <time>2026-06-23T12:34:36Z</time>
   </trkpt>
   <trkpt lat="-3.1561750" lon="37.3672460">
    <ele>3085.5</ele>
    <time>2026-06-23T12:34:37Z</time>
   </trkpt>
   <trkpt lat="-3.1561780" lon="37.3672380">
    <ele>3085.5</ele>
    <time>2026-06-23T12:34:38Z</time>
   </trkpt>
   <trkpt lat="-3.1561790" lon="37.3672330">
    <ele>3085.4</ele>
    <time>2026-06-23T12:34:39Z</time>
   </trkpt>
   <trkpt lat="-3.1561840" lon="37.3672230">
    <ele>3085.4</ele>
    <time>2026-06-23T12:34:40Z</time>
   </trkpt>
   <trkpt lat="-3.1561880" lon="37.3672170">
    <ele>3085.3</ele>
    <time>2026-06-23T12:34:41Z</time>
   </trkpt>
   <trkpt lat="-3.1561920" lon="37.3672120">
    <ele>3085.3</ele>
    <time>2026-06-23T12:34:42Z</time>
   </trkpt>
   <trkpt lat="-3.1561960" lon="37.3672070">
    <ele>3085.2</ele>
    <time>2026-06-23T12:34:43Z</time>
   </trkpt>
   <trkpt lat="-3.1561980" lon="37.3672070">
    <ele>3085.2</ele>
    <time>2026-06-23T12:34:44Z</time>
   </trkpt>
   <trkpt lat="-3.1562050" lon="37.3672050">
    <ele>3085.1</ele>
    <time>2026-06-23T12:34:45Z</time>
   </trkpt>
   <trkpt lat="-3.1562110" lon="37.3672060">
    <ele>3085.1</ele>
    <time>2026-06-23T12:34:46Z</time>
   </trkpt>
   <trkpt lat="-3.1562170" lon="37.3672080">
    <ele>3085.0</ele>
    <time>2026-06-23T12:34:47Z</time>
   </trkpt>
   <trkpt lat="-3.1562210" lon="37.3672100">
    <ele>3085.0</ele>
    <time>2026-06-23T12:34:48Z</time>
   </trkpt>
   <trkpt lat="-3.1562260" lon="37.3672180">
    <ele>3084.9</ele>
    <time>2026-06-23T12:34:49Z</time>
   </trkpt>
   <trkpt lat="-3.1562240" lon="37.3672140">
    <ele>3084.8</ele>
    <time>2026-06-23T12:34:50Z</time>
   </trkpt>
   <trkpt lat="-3.1562220" lon="37.3672110">
    <ele>3084.8</ele>
    <time>2026-06-23T12:34:51Z</time>
   </trkpt>
   <trkpt lat="-3.1562260" lon="37.3672120">
    <ele>3084.8</ele>
    <time>2026-06-23T12:34:52Z</time>
   </trkpt>
   <trkpt lat="-3.1562280" lon="37.3672130">
    <ele>3084.8</ele>
    <time>2026-06-23T12:34:53Z</time>
   </trkpt>
   <trkpt lat="-3.1562260" lon="37.3672120">
    <ele>3084.7</ele>
    <time>2026-06-23T12:34:54Z</time>
   </trkpt>
   <trkpt lat="-3.1562250" lon="37.3672120">
    <ele>3084.7</ele>
    <time>2026-06-23T12:34:55Z</time>
   </trkpt>
   <trkpt lat="-3.1562230" lon="37.3672100">
    <ele>3084.7</ele>
    <time>2026-06-23T12:34:56Z</time>
   </trkpt>
   <trkpt lat="-3.1562220" lon="37.3672100">
    <ele>3084.7</ele>
    <time>2026-06-23T12:34:57Z</time>
   </trkpt>
   <trkpt lat="-3.1562220" lon="37.3672060">
    <ele>3084.6</ele>
    <time>2026-06-23T12:34:58Z</time>
   </trkpt>
   <trkpt lat="-3.1562210" lon="37.3672040">
    <ele>3084.6</ele>
    <time>2026-06-23T12:34:59Z</time>
   </trkpt>
   <trkpt lat="-3.1562200" lon="37.3671980">
    <ele>3084.6</ele>
    <time>2026-06-23T12:35:00Z</time>
   </trkpt>
   <trkpt lat="-3.1562290" lon="37.3671920">
    <ele>3084.4</ele>
    <time>2026-06-23T12:35:01Z</time>
   </trkpt>
   <trkpt lat="-3.1562280" lon="37.3671860">
    <ele>3084.4</ele>
    <time>2026-06-23T12:35:02Z</time>
   </trkpt>
   <trkpt lat="-3.1562320" lon="37.3671760">
    <ele>3084.3</ele>
    <time>2026-06-23T12:35:03Z</time>
   </trkpt>
   <trkpt lat="-3.1562330" lon="37.3671730">
    <ele>3084.2</ele>
    <time>2026-06-23T12:35:04Z</time>
   </trkpt>
   <trkpt lat="-3.1562380" lon="37.3671690">
    <ele>3084.2</ele>
    <time>2026-06-23T12:35:05Z</time>
   </trkpt>
   <trkpt lat="-3.1562480" lon="37.3671650">
    <ele>3084.0</ele>
    <time>2026-06-23T12:35:06Z</time>
   </trkpt>
   <trkpt lat="-3.1562570" lon="37.3671640">
    <ele>3083.9</ele>
    <time>2026-06-23T12:35:07Z</time>
   </trkpt>
   <trkpt lat="-3.1562640" lon="37.3671660">
    <ele>3083.8</ele>
    <time>2026-06-23T12:35:08Z</time>
   </trkpt>
   <trkpt lat="-3.1562730" lon="37.3671610">
    <ele>3083.7</ele>
    <time>2026-06-23T12:35:09Z</time>
   </trkpt>
   <trkpt lat="-3.1562830" lon="37.3671560">
    <ele>3083.6</ele>
    <time>2026-06-23T12:35:10Z</time>
   </trkpt>
   <trkpt lat="-3.1562910" lon="37.3671520">
    <ele>3083.5</ele>
    <time>2026-06-23T12:35:11Z</time>
   </trkpt>
   <trkpt lat="-3.1563040" lon="37.3671400">
    <ele>3083.3</ele>
    <time>2026-06-23T12:35:12Z</time>
   </trkpt>
   <trkpt lat="-3.1563070" lon="37.3671360">
    <ele>3083.2</ele>
    <time>2026-06-23T12:35:13Z</time>
   </trkpt>
   <trkpt lat="-3.1563160" lon="37.3671300">
    <ele>3083.1</ele>
    <time>2026-06-23T12:35:14Z</time>
   </trkpt>
   <trkpt lat="-3.1563250" lon="37.3671260">
    <ele>3083.1</ele>
    <time>2026-06-23T12:35:15Z</time>
   </trkpt>
   <trkpt lat="-3.1563330" lon="37.3671230">
    <ele>3083.0</ele>
    <time>2026-06-23T12:35:16Z</time>
   </trkpt>
   <trkpt lat="-3.1563400" lon="37.3671200">
    <ele>3083.0</ele>
    <time>2026-06-23T12:35:17Z</time>
   </trkpt>
   <trkpt lat="-3.1563490" lon="37.3671170">
    <ele>3082.9</ele>
    <time>2026-06-23T12:35:18Z</time>
   </trkpt>
   <trkpt lat="-3.1563610" lon="37.3671130">
    <ele>3082.9</ele>
    <time>2026-06-23T12:35:19Z</time>
   </trkpt>
   <trkpt lat="-3.1563700" lon="37.3671090">
    <ele>3082.8</ele>
    <time>2026-06-23T12:35:20Z</time>
   </trkpt>
   <trkpt lat="-3.1563740" lon="37.3671040">
    <ele>3082.8</ele>
    <time>2026-06-23T12:35:21Z</time>
   </trkpt>
   <trkpt lat="-3.1563800" lon="37.3670940">
    <ele>3082.7</ele>
    <time>2026-06-23T12:35:22Z</time>
   </trkpt>
   <trkpt lat="-3.1563870" lon="37.3670850">
    <ele>3082.7</ele>
    <time>2026-06-23T12:35:23Z</time>
   </trkpt>
   <trkpt lat="-3.1563930" lon="37.3670830">
    <ele>3082.7</ele>
    <time>2026-06-23T12:35:24Z</time>
   </trkpt>
   <trkpt lat="-3.1563980" lon="37.3670810">
    <ele>3082.6</ele>
    <time>2026-06-23T12:35:25Z</time>
   </trkpt>
   <trkpt lat="-3.1564010" lon="37.3670770">
    <ele>3082.6</ele>
    <time>2026-06-23T12:35:26Z</time>
   </trkpt>
   <trkpt lat="-3.1564060" lon="37.3670690">
    <ele>3082.6</ele>
    <time>2026-06-23T12:35:27Z</time>
   </trkpt>
   <trkpt lat="-3.1564140" lon="37.3670610">
    <ele>3082.5</ele>
    <time>2026-06-23T12:35:28Z</time>
   </trkpt>
   <trkpt lat="-3.1564210" lon="37.3670570">
    <ele>3082.5</ele>
    <time>2026-06-23T12:35:29Z</time>
   </trkpt>
   <trkpt lat="-3.1564310" lon="37.3670530">
    <ele>3082.4</ele>
    <time>2026-06-23T12:35:30Z</time>
   </trkpt>
   <trkpt lat="-3.1564420" lon="37.3670500">
    <ele>3082.4</ele>
    <time>2026-06-23T12:35:31Z</time>
   </trkpt>
   <trkpt lat="-3.1564480" lon="37.3670500">
    <ele>3082.3</ele>
    <time>2026-06-23T12:35:32Z</time>
   </trkpt>
   <trkpt lat="-3.1564520" lon="37.3670480">
    <ele>3082.3</ele>
    <time>2026-06-23T12:35:33Z</time>
   </trkpt>
   <trkpt lat="-3.1564640" lon="37.3670420">
    <ele>3082.3</ele>
    <time>2026-06-23T12:35:34Z</time>
   </trkpt>
   <trkpt lat="-3.1564730" lon="37.3670380">
    <ele>3082.2</ele>
    <time>2026-06-23T12:35:35Z</time>
   </trkpt>
   <trkpt lat="-3.1564790" lon="37.3670370">
    <ele>3082.2</ele>
    <time>2026-06-23T12:35:36Z</time>
   </trkpt>
   <trkpt lat="-3.1564880" lon="37.3670340">
    <ele>3082.1</ele>
    <time>2026-06-23T12:35:37Z</time>
   </trkpt>
   <trkpt lat="-3.1564910" lon="37.3670300">
    <ele>3082.1</ele>
    <time>2026-06-23T12:35:38Z</time>
   </trkpt>
   <trkpt lat="-3.1564980" lon="37.3670280">
    <ele>3082.1</ele>
    <time>2026-06-23T12:35:39Z</time>
   </trkpt>
   <trkpt lat="-3.1565080" lon="37.3670240">
    <ele>3082.0</ele>
    <time>2026-06-23T12:35:40Z</time>
   </trkpt>
   <trkpt lat="-3.1565170" lon="37.3670200">
    <ele>3082.0</ele>
    <time>2026-06-23T12:35:41Z</time>
   </trkpt>
   <trkpt lat="-3.1565220" lon="37.3670160">
    <ele>3081.9</ele>
    <time>2026-06-23T12:35:42Z</time>
   </trkpt>
   <trkpt lat="-3.1565290" lon="37.3670170">
    <ele>3081.9</ele>
    <time>2026-06-23T12:35:43Z</time>
   </trkpt>
   <trkpt lat="-3.1565380" lon="37.3670130">
    <ele>3081.9</ele>
    <time>2026-06-23T12:35:44Z</time>
   </trkpt>
   <trkpt lat="-3.1565470" lon="37.3670110">
    <ele>3081.8</ele>
    <time>2026-06-23T12:35:45Z</time>
   </trkpt>
   <trkpt lat="-3.1565560" lon="37.3670080">
    <ele>3081.8</ele>
    <time>2026-06-23T12:35:46Z</time>
   </trkpt>
   <trkpt lat="-3.1565660" lon="37.3670070">
    <ele>3081.7</ele>
    <time>2026-06-23T12:35:47Z</time>
   </trkpt>
   <trkpt lat="-3.1565730" lon="37.3670050">
    <ele>3081.7</ele>
    <time>2026-06-23T12:35:48Z</time>
   </trkpt>
   <trkpt lat="-3.1565780" lon="37.3670030">
    <ele>3081.7</ele>
    <time>2026-06-23T12:35:49Z</time>
   </trkpt>
   <trkpt lat="-3.1565850" lon="37.3670000">
    <ele>3081.6</ele>
    <time>2026-06-23T12:35:50Z</time>
   </trkpt>
   <trkpt lat="-3.1565940" lon="37.3669960">
    <ele>3081.6</ele>
    <time>2026-06-23T12:35:51Z</time>
   </trkpt>
   <trkpt lat="-3.1565980" lon="37.3670000">
    <ele>3081.5</ele>
    <time>2026-06-23T12:35:52Z</time>
   </trkpt>
   <trkpt lat="-3.1566070" lon="37.3670010">
    <ele>3081.5</ele>
    <time>2026-06-23T12:35:53Z</time>
   </trkpt>
   <trkpt lat="-3.1566140" lon="37.3670020">
    <ele>3081.5</ele>
    <time>2026-06-23T12:35:54Z</time>
   </trkpt>
   <trkpt lat="-3.1566250" lon="37.3670010">
    <ele>3081.4</ele>
    <time>2026-06-23T12:35:55Z</time>
   </trkpt>
   <trkpt lat="-3.1566340" lon="37.3669980">
    <ele>3081.4</ele>
    <time>2026-06-23T12:35:56Z</time>
   </trkpt>
   <trkpt lat="-3.1566470" lon="37.3669950">
    <ele>3081.3</ele>
    <time>2026-06-23T12:35:57Z</time>
   </trkpt>
   <trkpt lat="-3.1566560" lon="37.3669930">
    <ele>3081.2</ele>
    <time>2026-06-23T12:35:58Z</time>
   </trkpt>
   <trkpt lat="-3.1566670" lon="37.3669920">
    <ele>3081.2</ele>
    <time>2026-06-23T12:35:59Z</time>
   </trkpt>
   <trkpt lat="-3.1566770" lon="37.3669940">
    <ele>3081.1</ele>
    <time>2026-06-23T12:36:00Z</time>
   </trkpt>
   <trkpt lat="-3.1566840" lon="37.3669980">
    <ele>3081.1</ele>
    <time>2026-06-23T12:36:01Z</time>
   </trkpt>
   <trkpt lat="-3.1566910" lon="37.3669970">
    <ele>3081.0</ele>
    <time>2026-06-23T12:36:02Z</time>
   </trkpt>
   <trkpt lat="-3.1566990" lon="37.3670010">
    <ele>3081.0</ele>
    <time>2026-06-23T12:36:03Z</time>
   </trkpt>
   <trkpt lat="-3.1567090" lon="37.3670050">
    <ele>3080.9</ele>
    <time>2026-06-23T12:36:04Z</time>
   </trkpt>
   <trkpt lat="-3.1567180" lon="37.3670070">
    <ele>3080.9</ele>
    <time>2026-06-23T12:36:05Z</time>
   </trkpt>
   <trkpt lat="-3.1567260" lon="37.3670110">
    <ele>3080.8</ele>
    <time>2026-06-23T12:36:06Z</time>
   </trkpt>
   <trkpt lat="-3.1567340" lon="37.3670140">
    <ele>3080.8</ele>
    <time>2026-06-23T12:36:07Z</time>
   </trkpt>
   <trkpt lat="-3.1567400" lon="37.3670190">
    <ele>3080.7</ele>
    <time>2026-06-23T12:36:08Z</time>
   </trkpt>
   <trkpt lat="-3.1567460" lon="37.3670240">
    <ele>3080.7</ele>
    <time>2026-06-23T12:36:09Z</time>
   </trkpt>
   <trkpt lat="-3.1567540" lon="37.3670270">
    <ele>3080.6</ele>
    <time>2026-06-23T12:36:10Z</time>
   </trkpt>
   <trkpt lat="-3.1567590" lon="37.3670260">
    <ele>3080.6</ele>
    <time>2026-06-23T12:36:11Z</time>
   </trkpt>
   <trkpt lat="-3.1567690" lon="37.3670250">
    <ele>3080.6</ele>
    <time>2026-06-23T12:36:12Z</time>
   </trkpt>
   <trkpt lat="-3.1567770" lon="37.3670240">
    <ele>3080.5</ele>
    <time>2026-06-23T12:36:13Z</time>
   </trkpt>
   <trkpt lat="-3.1567840" lon="37.3670240">
    <ele>3080.5</ele>
    <time>2026-06-23T12:36:14Z</time>
   </trkpt>
   <trkpt lat="-3.1567880" lon="37.3670220">
    <ele>3080.5</ele>
    <time>2026-06-23T12:36:15Z</time>
   </trkpt>
   <trkpt lat="-3.1567870" lon="37.3670210">
    <ele>3080.5</ele>
    <time>2026-06-23T12:36:16Z</time>
   </trkpt>
   <trkpt lat="-3.1567860" lon="37.3670200">
    <ele>3080.4</ele>
    <time>2026-06-23T12:36:17Z</time>
   </trkpt>
   <trkpt lat="-3.1567920" lon="37.3670160">
    <ele>3080.4</ele>
    <time>2026-06-23T12:36:18Z</time>
   </trkpt>
   <trkpt lat="-3.1567990" lon="37.3670090">
    <ele>3080.3</ele>
    <time>2026-06-23T12:36:19Z</time>
   </trkpt>
   <trkpt lat="-3.1568060" lon="37.3670040">
    <ele>3080.3</ele>
    <time>2026-06-23T12:36:20Z</time>
   </trkpt>
   <trkpt lat="-3.1568120" lon="37.3670020">
    <ele>3080.3</ele>
    <time>2026-06-23T12:36:21Z</time>
   </trkpt>
   <trkpt lat="-3.1568210" lon="37.3669980">
    <ele>3080.2</ele>
    <time>2026-06-23T12:36:22Z</time>
   </trkpt>
   <trkpt lat="-3.1568260" lon="37.3669970">
    <ele>3080.2</ele>
    <time>2026-06-23T12:36:23Z</time>
   </trkpt>
   <trkpt lat="-3.1568290" lon="37.3669990">
    <ele>3080.2</ele>
    <time>2026-06-23T12:36:25Z</time>
   </trkpt>
   <trkpt lat="-3.1568290" lon="37.3670000">
    <ele>3080.2</ele>
    <time>2026-06-23T12:36:26Z</time>
   </trkpt>
   <trkpt lat="-3.1568300" lon="37.3670010">
    <ele>3080.2</ele>
    <time>2026-06-23T12:36:27Z</time>
   </trkpt>
   <trkpt lat="-3.1568290" lon="37.3670000">
    <ele>3080.1</ele>
    <time>2026-06-23T12:36:28Z</time>
   </trkpt>
   <trkpt lat="-3.1568270" lon="37.3670010">
    <ele>3080.1</ele>
    <time>2026-06-23T12:36:29Z</time>
   </trkpt>
   <trkpt lat="-3.1568280" lon="37.3670010">
    <ele>3080.1</ele>
    <time>2026-06-23T12:36:30Z</time>
   </trkpt>
   <trkpt lat="-3.1568270" lon="37.3670010">
    <ele>3080.1</ele>
    <time>2026-06-23T12:36:31Z</time>
   </trkpt>
   <trkpt lat="-3.1568280" lon="37.3670010">
    <ele>3080.1</ele>
    <time>2026-06-23T12:36:32Z</time>
   </trkpt>
   <trkpt lat="-3.1568300" lon="37.3670020">
    <ele>3080.1</ele>
    <time>2026-06-23T12:36:33Z</time>
   </trkpt>
   <trkpt lat="-3.1568310" lon="37.3670010">
    <ele>3080.1</ele>
    <time>2026-06-23T12:36:34Z</time>
   </trkpt>
   <trkpt lat="-3.1568310" lon="37.3670020">
    <ele>3080.1</ele>
    <time>2026-06-23T12:36:35Z</time>
   </trkpt>
   <trkpt lat="-3.1568300" lon="37.3670030">
    <ele>3080.1</ele>
    <time>2026-06-23T12:36:36Z</time>
   </trkpt>
   <trkpt lat="-3.1568300" lon="37.3670020">
    <ele>3080.1</ele>
    <time>2026-06-23T12:36:37Z</time>
   </trkpt>
   <trkpt lat="-3.1568220" lon="37.3670070">
    <ele>3080.0</ele>
    <time>2026-06-23T12:36:38Z</time>
   </trkpt>
   <trkpt lat="-3.1568240" lon="37.3670080">
    <ele>3080.0</ele>
    <time>2026-06-23T12:36:39Z</time>
   </trkpt>
   <trkpt lat="-3.1568240" lon="37.3670080">
    <ele>3080.0</ele>
    <time>2026-06-23T12:36:40Z</time>
   </trkpt>
   <trkpt lat="-3.1568270" lon="37.3670080">
    <ele>3080.0</ele>
    <time>2026-06-23T12:36:41Z</time>
   </trkpt>
   <trkpt lat="-3.1568240" lon="37.3670090">
    <ele>3080.0</ele>
    <time>2026-06-23T12:36:42Z</time>
   </trkpt>
   <trkpt lat="-3.1568230" lon="37.3670090">
    <ele>3080.0</ele>
    <time>2026-06-23T12:36:43Z</time>
   </trkpt>
   <trkpt lat="-3.1568220" lon="37.3670090">
    <ele>3080.0</ele>
    <time>2026-06-23T12:36:44Z</time>
   </trkpt>
   <trkpt lat="-3.1568220" lon="37.3670090">
    <ele>3080.0</ele>
    <time>2026-06-23T12:36:45Z</time>
   </trkpt>
   <trkpt lat="-3.1568220" lon="37.3670060">
    <ele>3080.0</ele>
    <time>2026-06-23T12:36:46Z</time>
   </trkpt>
   <trkpt lat="-3.1568240" lon="37.3670040">
    <ele>3079.9</ele>
    <time>2026-06-23T12:36:47Z</time>
   </trkpt>
   <trkpt lat="-3.1568280" lon="37.3670060">
    <ele>3079.9</ele>
    <time>2026-06-23T12:36:48Z</time>
   </trkpt>
   <trkpt lat="-3.1568390" lon="37.3670110">
    <ele>3079.8</ele>
    <time>2026-06-23T12:36:49Z</time>
   </trkpt>
   <trkpt lat="-3.1568370" lon="37.3670130">
    <ele>3079.8</ele>
    <time>2026-06-23T12:36:50Z</time>
   </trkpt>
   <trkpt lat="-3.1568330" lon="37.3670120">
    <ele>3079.8</ele>
    <time>2026-06-23T12:36:51Z</time>
   </trkpt>
   <trkpt lat="-3.1568310" lon="37.3670130">
    <ele>3079.8</ele>
    <time>2026-06-23T12:36:52Z</time>
   </trkpt>
   <trkpt lat="-3.1568310" lon="37.3670120">
    <ele>3079.8</ele>
    <time>2026-06-23T12:36:53Z</time>
   </trkpt>
   <trkpt lat="-3.1568280" lon="37.3670120">
    <ele>3079.8</ele>
    <time>2026-06-23T12:36:54Z</time>
   </trkpt>
   <trkpt lat="-3.1568290" lon="37.3670090">
    <ele>3079.7</ele>
    <time>2026-06-23T12:36:55Z</time>
   </trkpt>
   <trkpt lat="-3.1568290" lon="37.3670070">
    <ele>3079.7</ele>
    <time>2026-06-23T12:36:56Z</time>
   </trkpt>
   <trkpt lat="-3.1568300" lon="37.3670060">
    <ele>3079.7</ele>
    <time>2026-06-23T12:36:57Z</time>
   </trkpt>
   <trkpt lat="-3.1568300" lon="37.3670060">
    <ele>3079.7</ele>
    <time>2026-06-23T12:36:58Z</time>
   </trkpt>
   <trkpt lat="-3.1568260" lon="37.3670060">
    <ele>3079.7</ele>
    <time>2026-06-23T12:36:59Z</time>
   </trkpt>
   <trkpt lat="-3.1568260" lon="37.3670060">
    <ele>3079.7</ele>
    <time>2026-06-23T12:37:00Z</time>
   </trkpt>
   <trkpt lat="-3.1568260" lon="37.3670060">
    <ele>3079.7</ele>
    <time>2026-06-23T12:37:01Z</time>
   </trkpt>
   <trkpt lat="-3.1568240" lon="37.3670050">
    <ele>3079.7</ele>
    <time>2026-06-23T12:37:02Z</time>
   </trkpt>
   <trkpt lat="-3.1568230" lon="37.3670050">
    <ele>3079.7</ele>
    <time>2026-06-23T12:37:03Z</time>
   </trkpt>
   <trkpt lat="-3.1568230" lon="37.3670050">
    <ele>3079.7</ele>
    <time>2026-06-23T12:37:04Z</time>
   </trkpt>
   <trkpt lat="-3.1568230" lon="37.3670050">
    <ele>3079.7</ele>
    <time>2026-06-23T12:37:05Z</time>
   </trkpt>
   <trkpt lat="-3.1568230" lon="37.3670050">
    <ele>3079.7</ele>
    <time>2026-06-23T12:37:06Z</time>
   </trkpt>
   <trkpt lat="-3.1568230" lon="37.3670050">
    <ele>3079.7</ele>
    <time>2026-06-23T12:37:07Z</time>
   </trkpt>
   <trkpt lat="-3.1568240" lon="37.3670050">
    <ele>3079.7</ele>
    <time>2026-06-23T12:37:08Z</time>
   </trkpt>
   <trkpt lat="-3.1568240" lon="37.3670050">
    <ele>3079.7</ele>
    <time>2026-06-23T12:37:09Z</time>
   </trkpt>
   <trkpt lat="-3.1568260" lon="37.3670070">
    <ele>3079.7</ele>
    <time>2026-06-23T12:37:10Z</time>
   </trkpt>
   <trkpt lat="-3.1568250" lon="37.3670070">
    <ele>3079.6</ele>
    <time>2026-06-23T12:37:11Z</time>
   </trkpt>
   <trkpt lat="-3.1568260" lon="37.3670080">
    <ele>3079.6</ele>
    <time>2026-06-23T12:37:12Z</time>
   </trkpt>
   <trkpt lat="-3.1568250" lon="37.3670080">
    <ele>3079.6</ele>
    <time>2026-06-23T12:37:13Z</time>
   </trkpt>
   <trkpt lat="-3.1568260" lon="37.3670070">
    <ele>3079.6</ele>
    <time>2026-06-23T12:37:14Z</time>
   </trkpt>
   <trkpt lat="-3.1568260" lon="37.3670060">
    <ele>3079.6</ele>
    <time>2026-06-23T12:37:15Z</time>
   </trkpt>
   <trkpt lat="-3.1568230" lon="37.3670050">
    <ele>3079.6</ele>
    <time>2026-06-23T12:37:16Z</time>
   </trkpt>
   <trkpt lat="-3.1568240" lon="37.3670060">
    <ele>3079.6</ele>
    <time>2026-06-23T12:37:17Z</time>
   </trkpt>
   <trkpt lat="-3.1568250" lon="37.3670050">
    <ele>3079.6</ele>
    <time>2026-06-23T12:37:18Z</time>
   </trkpt>
   <trkpt lat="-3.1568230" lon="37.3670060">
    <ele>3079.6</ele>
    <time>2026-06-23T12:37:19Z</time>
   </trkpt>
   <trkpt lat="-3.1568250" lon="37.3670070">
    <ele>3079.6</ele>
    <time>2026-06-23T12:37:20Z</time>
   </trkpt>
   <trkpt lat="-3.1568240" lon="37.3670070">
    <ele>3079.5</ele>
    <time>2026-06-23T12:37:21Z</time>
   </trkpt>
   <trkpt lat="-3.1568230" lon="37.3670030">
    <ele>3079.5</ele>
    <time>2026-06-23T12:37:22Z</time>
   </trkpt>
   <trkpt lat="-3.1568210" lon="37.3670050">
    <ele>3079.5</ele>
    <time>2026-06-23T12:37:23Z</time>
   </trkpt>
   <trkpt lat="-3.1568220" lon="37.3670070">
    <ele>3079.5</ele>
    <time>2026-06-23T12:37:24Z</time>
   </trkpt>
   <trkpt lat="-3.1568210" lon="37.3670110">
    <ele>3079.5</ele>
    <time>2026-06-23T12:37:25Z</time>
   </trkpt>
   <trkpt lat="-3.1568200" lon="37.3670130">
    <ele>3079.5</ele>
    <time>2026-06-23T12:37:26Z</time>
   </trkpt>
   <trkpt lat="-3.1568190" lon="37.3670130">
    <ele>3079.4</ele>
    <time>2026-06-23T12:37:27Z</time>
   </trkpt>
   <trkpt lat="-3.1568190" lon="37.3670130">
    <ele>3079.4</ele>
    <time>2026-06-23T12:37:28Z</time>
   </trkpt>
   <trkpt lat="-3.1568190" lon="37.3670130">
    <ele>3079.4</ele>
    <time>2026-06-23T12:37:29Z</time>
   </trkpt>
   <trkpt lat="-3.1568200" lon="37.3670120">
    <ele>3079.4</ele>
    <time>2026-06-23T12:37:30Z</time>
   </trkpt>
   <trkpt lat="-3.1568210" lon="37.3670170">
    <ele>3079.4</ele>
    <time>2026-06-23T12:37:31Z</time>
   </trkpt>
   <trkpt lat="-3.1568180" lon="37.3670150">
    <ele>3079.4</ele>
    <time>2026-06-23T12:37:32Z</time>
   </trkpt>
   <trkpt lat="-3.1568160" lon="37.3670130">
    <ele>3079.4</ele>
    <time>2026-06-23T12:37:33Z</time>
   </trkpt>
   <trkpt lat="-3.1568160" lon="37.3670140">
    <ele>3079.4</ele>
    <time>2026-06-23T12:37:34Z</time>
   </trkpt>
   <trkpt lat="-3.1568150" lon="37.3670130">
    <ele>3079.4</ele>
    <time>2026-06-23T12:37:35Z</time>
   </trkpt>
   <trkpt lat="-3.1568150" lon="37.3670120">
    <ele>3079.3</ele>
    <time>2026-06-23T12:37:36Z</time>
   </trkpt>
   <trkpt lat="-3.1568150" lon="37.3670120">
    <ele>3079.3</ele>
    <time>2026-06-23T12:37:37Z</time>
   </trkpt>
   <trkpt lat="-3.1568190" lon="37.3670120">
    <ele>3079.3</ele>
    <time>2026-06-23T12:37:38Z</time>
   </trkpt>
   <trkpt lat="-3.1568190" lon="37.3670130">
    <ele>3079.3</ele>
    <time>2026-06-23T12:37:39Z</time>
   </trkpt>
   <trkpt lat="-3.1568170" lon="37.3670140">
    <ele>3079.3</ele>
    <time>2026-06-23T12:37:40Z</time>
   </trkpt>
   <trkpt lat="-3.1568170" lon="37.3670140">
    <ele>3079.3</ele>
    <time>2026-06-23T12:37:41Z</time>
   </trkpt>
   <trkpt lat="-3.1568180" lon="37.3670150">
    <ele>3079.3</ele>
    <time>2026-06-23T12:37:42Z</time>
   </trkpt>
   <trkpt lat="-3.1568180" lon="37.3670150">
    <ele>3079.3</ele>
    <time>2026-06-23T12:37:43Z</time>
   </trkpt>
   <trkpt lat="-3.1568180" lon="37.3670150">
    <ele>3079.3</ele>
    <time>2026-06-23T12:37:44Z</time>
   </trkpt>
   <trkpt lat="-3.1568200" lon="37.3670140">
    <ele>3079.3</ele>
    <time>2026-06-23T12:37:45Z</time>
   </trkpt>
   <trkpt lat="-3.1568190" lon="37.3670140">
    <ele>3079.3</ele>
    <time>2026-06-23T12:37:46Z</time>
   </trkpt>
   <trkpt lat="-3.1568200" lon="37.3670130">
    <ele>3079.3</ele>
    <time>2026-06-23T12:37:47Z</time>
   </trkpt>
   <trkpt lat="-3.1568210" lon="37.3670140">
    <ele>3079.3</ele>
    <time>2026-06-23T12:37:48Z</time>
   </trkpt>
   <trkpt lat="-3.1568210" lon="37.3670150">
    <ele>3079.3</ele>
    <time>2026-06-23T12:37:49Z</time>
   </trkpt>
   <trkpt lat="-3.1568220" lon="37.3670140">
    <ele>3079.2</ele>
    <time>2026-06-23T12:37:50Z</time>
   </trkpt>
   <trkpt lat="-3.1568220" lon="37.3670150">
    <ele>3079.2</ele>
    <time>2026-06-23T12:37:51Z</time>
   </trkpt>
   <trkpt lat="-3.1568230" lon="37.3670140">
    <ele>3079.2</ele>
    <time>2026-06-23T12:37:52Z</time>
   </trkpt>
   <trkpt lat="-3.1568240" lon="37.3670140">
    <ele>3079.2</ele>
    <time>2026-06-23T12:37:53Z</time>
   </trkpt>
   <trkpt lat="-3.1568240" lon="37.3670140">
    <ele>3079.2</ele>
    <time>2026-06-23T12:37:54Z</time>
   </trkpt>
   <trkpt lat="-3.1568260" lon="37.3670140">
    <ele>3079.2</ele>
    <time>2026-06-23T12:37:55Z</time>
   </trkpt>
   <trkpt lat="-3.1568260" lon="37.3670140">
    <ele>3079.2</ele>
    <time>2026-06-23T12:37:56Z</time>
   </trkpt>
   <trkpt lat="-3.1568260" lon="37.3670140">
    <ele>3079.2</ele>
    <time>2026-06-23T12:37:57Z</time>
   </trkpt>
   <trkpt lat="-3.1568260" lon="37.3670140">
    <ele>3079.2</ele>
    <time>2026-06-23T12:37:58Z</time>
   </trkpt>
   <trkpt lat="-3.1568260" lon="37.3670140">
    <ele>3079.2</ele>
    <time>2026-06-23T12:37:59Z</time>
   </trkpt>
   <trkpt lat="-3.1568260" lon="37.3670140">
    <ele>3079.2</ele>
    <time>2026-06-23T12:38:00Z</time>
   </trkpt>
   <trkpt lat="-3.1568270" lon="37.3670140">
    <ele>3079.2</ele>
    <time>2026-06-23T12:38:01Z</time>
   </trkpt>
   <trkpt lat="-3.1568270" lon="37.3670140">
    <ele>3079.2</ele>
    <time>2026-06-23T12:38:02Z</time>
   </trkpt>
   <trkpt lat="-3.1568260" lon="37.3670150">
    <ele>3079.2</ele>
    <time>2026-06-23T12:38:03Z</time>
   </trkpt>
   <trkpt lat="-3.1568250" lon="37.3670150">
    <ele>3079.2</ele>
    <time>2026-06-23T12:38:04Z</time>
   </trkpt>
   <trkpt lat="-3.1568240" lon="37.3670150">
    <ele>3079.2</ele>
    <time>2026-06-23T12:38:05Z</time>
   </trkpt>
   <trkpt lat="-3.1568210" lon="37.3670160">
    <ele>3079.2</ele>
    <time>2026-06-23T12:38:06Z</time>
   </trkpt>
   <trkpt lat="-3.1568220" lon="37.3670150">
    <ele>3079.2</ele>
    <time>2026-06-23T12:38:07Z</time>
   </trkpt>
   <trkpt lat="-3.1568210" lon="37.3670140">
    <ele>3079.2</ele>
    <time>2026-06-23T12:38:08Z</time>
   </trkpt>
   <trkpt lat="-3.1568210" lon="37.3670140">
    <ele>3079.2</ele>
    <time>2026-06-23T12:38:09Z</time>
   </trkpt>
   <trkpt lat="-3.1568230" lon="37.3670150">
    <ele>3079.1</ele>
    <time>2026-06-23T12:38:10Z</time>
   </trkpt>
   <trkpt lat="-3.1568230" lon="37.3670130">
    <ele>3079.1</ele>
    <time>2026-06-23T12:38:11Z</time>
   </trkpt>
   <trkpt lat="-3.1568210" lon="37.3670110">
    <ele>3079.1</ele>
    <time>2026-06-23T12:38:12Z</time>
   </trkpt>
   <trkpt lat="-3.1568200" lon="37.3670110">
    <ele>3079.1</ele>
    <time>2026-06-23T12:38:13Z</time>
   </trkpt>
   <trkpt lat="-3.1568190" lon="37.3670120">
    <ele>3079.1</ele>
    <time>2026-06-23T12:38:14Z</time>
   </trkpt>
   <trkpt lat="-3.1568190" lon="37.3670120">
    <ele>3079.1</ele>
    <time>2026-06-23T12:38:15Z</time>
   </trkpt>
   <trkpt lat="-3.1568190" lon="37.3670120">
    <ele>3079.1</ele>
    <time>2026-06-23T12:38:16Z</time>
   </trkpt>
   <trkpt lat="-3.1568190" lon="37.3670120">
    <ele>3079.1</ele>
    <time>2026-06-23T12:38:17Z</time>
   </trkpt>
   <trkpt lat="-3.1568200" lon="37.3670110">
    <ele>3079.1</ele>
    <time>2026-06-23T12:38:18Z</time>
   </trkpt>
   <trkpt lat="-3.1568190" lon="37.3670110">
    <ele>3079.1</ele>
    <time>2026-06-23T12:38:19Z</time>
   </trkpt>
   <trkpt lat="-3.1568190" lon="37.3670110">
    <ele>3079.1</ele>
    <time>2026-06-23T12:38:20Z</time>
   </trkpt>
   <trkpt lat="-3.1568190" lon="37.3670110">
    <ele>3079.1</ele>
    <time>2026-06-23T12:38:21Z</time>
   </trkpt>
   <trkpt lat="-3.1568190" lon="37.3670110">
    <ele>3079.1</ele>
    <time>2026-06-23T12:38:22Z</time>
   </trkpt>
   <trkpt lat="-3.1568190" lon="37.3670110">
    <ele>3079.1</ele>
    <time>2026-06-23T12:38:23Z</time>
   </trkpt>
   <trkpt lat="-3.1568190" lon="37.3670110">
    <ele>3079.1</ele>
    <time>2026-06-23T12:38:24Z</time>
   </trkpt>
   <trkpt lat="-3.1568190" lon="37.3670110">
    <ele>3079.1</ele>
    <time>2026-06-23T12:38:25Z</time>
   </trkpt>
   <trkpt lat="-3.1568220" lon="37.3670100">
    <ele>3079.1</ele>
    <time>2026-06-23T12:38:26Z</time>
   </trkpt>
   <trkpt lat="-3.1568210" lon="37.3670100">
    <ele>3079.1</ele>
    <time>2026-06-23T12:38:27Z</time>
   </trkpt>
   <trkpt lat="-3.1568210" lon="37.3670100">
    <ele>3079.1</ele>
    <time>2026-06-23T12:38:28Z</time>
   </trkpt>
   <trkpt lat="-3.1568210" lon="37.3670080">
    <ele>3079.0</ele>
    <time>2026-06-23T12:38:29Z</time>
   </trkpt>
   <trkpt lat="-3.1568210" lon="37.3670080">
    <ele>3079.0</ele>
    <time>2026-06-23T12:38:30Z</time>
   </trkpt>
   <trkpt lat="-3.1568220" lon="37.3670090">
    <ele>3079.0</ele>
    <time>2026-06-23T12:38:31Z</time>
   </trkpt>
   <trkpt lat="-3.1568240" lon="37.3670100">
    <ele>3079.0</ele>
    <time>2026-06-23T12:38:32Z</time>
   </trkpt>
   <trkpt lat="-3.1568230" lon="37.3670080">
    <ele>3079.0</ele>
    <time>2026-06-23T12:38:33Z</time>
   </trkpt>
   <trkpt lat="-3.1568240" lon="37.3670090">
    <ele>3079.0</ele>
    <time>2026-06-23T12:38:34Z</time>
   </trkpt>
   <trkpt lat="-3.1568220" lon="37.3670080">
    <ele>3079.0</ele>
    <time>2026-06-23T12:38:35Z</time>
   </trkpt>
   <trkpt lat="-3.1568210" lon="37.3670070">
    <ele>3079.0</ele>
    <time>2026-06-23T12:38:36Z</time>
   </trkpt>
   <trkpt lat="-3.1568210" lon="37.3670070">
    <ele>3079.0</ele>
    <time>2026-06-23T12:38:37Z</time>
   </trkpt>
   <trkpt lat="-3.1568210" lon="37.3670070">
    <ele>3079.0</ele>
    <time>2026-06-23T12:38:38Z</time>
   </trkpt>
   <trkpt lat="-3.1568210" lon="37.3670070">
    <ele>3079.0</ele>
    <time>2026-06-23T12:38:39Z</time>
   </trkpt>
   <trkpt lat="-3.1568210" lon="37.3670070">
    <ele>3079.0</ele>
    <time>2026-06-23T12:38:40Z</time>
   </trkpt>
   <trkpt lat="-3.1568210" lon="37.3670070">
    <ele>3079.0</ele>
    <time>2026-06-23T12:38:41Z</time>
   </trkpt>
   <trkpt lat="-3.1568210" lon="37.3670070">
    <ele>3079.0</ele>
    <time>2026-06-23T12:38:42Z</time>
   </trkpt>
   <trkpt lat="-3.1568210" lon="37.3670070">
    <ele>3079.0</ele>
    <time>2026-06-23T12:38:43Z</time>
   </trkpt>
   <trkpt lat="-3.1568210" lon="37.3670070">
    <ele>3079.0</ele>
    <time>2026-06-23T12:38:44Z</time>
   </trkpt>
   <trkpt lat="-3.1568210" lon="37.3670070">
    <ele>3079.0</ele>
    <time>2026-06-23T12:38:45Z</time>
   </trkpt>
   <trkpt lat="-3.1568210" lon="37.3670070">
    <ele>3079.0</ele>
    <time>2026-06-23T12:38:46Z</time>
   </trkpt>
   <trkpt lat="-3.1568210" lon="37.3670040">
    <ele>3079.0</ele>
    <time>2026-06-23T12:38:47Z</time>
   </trkpt>
   <trkpt lat="-3.1568200" lon="37.3670040">
    <ele>3079.0</ele>
    <time>2026-06-23T12:38:48Z</time>
   </trkpt>
   <trkpt lat="-3.1568220" lon="37.3670050">
    <ele>3078.9</ele>
    <time>2026-06-23T12:38:49Z</time>
   </trkpt>
   <trkpt lat="-3.1568210" lon="37.3670050">
    <ele>3078.9</ele>
    <time>2026-06-23T12:38:50Z</time>
   </trkpt>
   <trkpt lat="-3.1568210" lon="37.3670050">
    <ele>3078.9</ele>
    <time>2026-06-23T12:38:51Z</time>
   </trkpt>
   <trkpt lat="-3.1568210" lon="37.3670050">
    <ele>3078.9</ele>
    <time>2026-06-23T12:38:52Z</time>
   </trkpt>
   <trkpt lat="-3.1568210" lon="37.3670050">
    <ele>3078.9</ele>
    <time>2026-06-23T12:38:53Z</time>
   </trkpt>
   <trkpt lat="-3.1568230" lon="37.3670070">
    <ele>3078.9</ele>
    <time>2026-06-23T12:38:54Z</time>
   </trkpt>
   <trkpt lat="-3.1568240" lon="37.3670070">
    <ele>3078.9</ele>
    <time>2026-06-23T12:38:55Z</time>
   </trkpt>
   <trkpt lat="-3.1568270" lon="37.3670070">
    <ele>3078.9</ele>
    <time>2026-06-23T12:38:56Z</time>
   </trkpt>
   <trkpt lat="-3.1568260" lon="37.3670060">
    <ele>3078.9</ele>
    <time>2026-06-23T12:38:57Z</time>
   </trkpt>
   <trkpt lat="-3.1568240" lon="37.3670070">
    <ele>3078.9</ele>
    <time>2026-06-23T12:38:58Z</time>
   </trkpt>
   <trkpt lat="-3.1568260" lon="37.3670080">
    <ele>3078.9</ele>
    <time>2026-06-23T12:38:59Z</time>
   </trkpt>
   <trkpt lat="-3.1568250" lon="37.3670070">
    <ele>3078.8</ele>
    <time>2026-06-23T12:39:00Z</time>
   </trkpt>
   <trkpt lat="-3.1568250" lon="37.3670070">
    <ele>3078.8</ele>
    <time>2026-06-23T12:39:01Z</time>
   </trkpt>
   <trkpt lat="-3.1568240" lon="37.3670090">
    <ele>3078.8</ele>
    <time>2026-06-23T12:39:02Z</time>
   </trkpt>
   <trkpt lat="-3.1568240" lon="37.3670090">
    <ele>3078.8</ele>
    <time>2026-06-23T12:39:03Z</time>
   </trkpt>
   <trkpt lat="-3.1568240" lon="37.3670090">
    <ele>3078.8</ele>
    <time>2026-06-23T12:39:04Z</time>
   </trkpt>
   <trkpt lat="-3.1568240" lon="37.3670120">
    <ele>3078.8</ele>
    <time>2026-06-23T12:39:05Z</time>
   </trkpt>
   <trkpt lat="-3.1568220" lon="37.3670140">
    <ele>3078.8</ele>
    <time>2026-06-23T12:39:06Z</time>
   </trkpt>
   <trkpt lat="-3.1568230" lon="37.3670130">
    <ele>3078.8</ele>
    <time>2026-06-23T12:39:07Z</time>
   </trkpt>
   <trkpt lat="-3.1568220" lon="37.3670130">
    <ele>3078.8</ele>
    <time>2026-06-23T12:39:08Z</time>
   </trkpt>
   <trkpt lat="-3.1568230" lon="37.3670120">
    <ele>3078.8</ele>
    <time>2026-06-23T12:39:09Z</time>
   </trkpt>
   <trkpt lat="-3.1568250" lon="37.3670110">
    <ele>3078.8</ele>
    <time>2026-06-23T12:39:10Z</time>
   </trkpt>
   <trkpt lat="-3.1568240" lon="37.3670120">
    <ele>3078.8</ele>
    <time>2026-06-23T12:39:11Z</time>
   </trkpt>
   <trkpt lat="-3.1568240" lon="37.3670110">
    <ele>3078.7</ele>
    <time>2026-06-23T12:39:12Z</time>
   </trkpt>
   <trkpt lat="-3.1568250" lon="37.3670110">
    <ele>3078.7</ele>
    <time>2026-06-23T12:39:13Z</time>
   </trkpt>
   <trkpt lat="-3.1568270" lon="37.3670110">
    <ele>3078.7</ele>
    <time>2026-06-23T12:39:14Z</time>
   </trkpt>
   <trkpt lat="-3.1568270" lon="37.3670120">
    <ele>3078.7</ele>
    <time>2026-06-23T12:39:15Z</time>
   </trkpt>
   <trkpt lat="-3.1568250" lon="37.3670120">
    <ele>3078.7</ele>
    <time>2026-06-23T12:39:16Z</time>
   </trkpt>
   <trkpt lat="-3.1568250" lon="37.3670130">
    <ele>3078.7</ele>
    <time>2026-06-23T12:39:17Z</time>
   </trkpt>
   <trkpt lat="-3.1568250" lon="37.3670130">
    <ele>3078.7</ele>
    <time>2026-06-23T12:39:18Z</time>
   </trkpt>
   <trkpt lat="-3.1568250" lon="37.3670110">
    <ele>3078.7</ele>
    <time>2026-06-23T12:39:19Z</time>
   </trkpt>
   <trkpt lat="-3.1568250" lon="37.3670120">
    <ele>3078.7</ele>
    <time>2026-06-23T12:39:20Z</time>
   </trkpt>
   <trkpt lat="-3.1568250" lon="37.3670120">
    <ele>3078.7</ele>
    <time>2026-06-23T12:39:21Z</time>
   </trkpt>
   <trkpt lat="-3.1568250" lon="37.3670120">
    <ele>3078.7</ele>
    <time>2026-06-23T12:39:22Z</time>
   </trkpt>
   <trkpt lat="-3.1568250" lon="37.3670110">
    <ele>3078.7</ele>
    <time>2026-06-23T12:39:23Z</time>
   </trkpt>
   <trkpt lat="-3.1568260" lon="37.3670110">
    <ele>3078.7</ele>
    <time>2026-06-23T12:39:24Z</time>
   </trkpt>
   <trkpt lat="-3.1568250" lon="37.3670110">
    <ele>3078.7</ele>
    <time>2026-06-23T12:39:25Z</time>
   </trkpt>
   <trkpt lat="-3.1568250" lon="37.3670110">
    <ele>3078.7</ele>
    <time>2026-06-23T12:39:26Z</time>
   </trkpt>
   <trkpt lat="-3.1568260" lon="37.3670120">
    <ele>3078.7</ele>
    <time>2026-06-23T12:39:27Z</time>
   </trkpt>
   <trkpt lat="-3.1568260" lon="37.3670120">
    <ele>3078.7</ele>
    <time>2026-06-23T12:39:28Z</time>
   </trkpt>
   <trkpt lat="-3.1568270" lon="37.3670120">
    <ele>3078.7</ele>
    <time>2026-06-23T12:39:29Z</time>
   </trkpt>
   <trkpt lat="-3.1568270" lon="37.3670130">
    <ele>3078.6</ele>
    <time>2026-06-23T12:39:30Z</time>
   </trkpt>
   <trkpt lat="-3.1568270" lon="37.3670130">
    <ele>3078.6</ele>
    <time>2026-06-23T12:39:31Z</time>
   </trkpt>
   <trkpt lat="-3.1568270" lon="37.3670130">
    <ele>3078.6</ele>
    <time>2026-06-23T12:39:32Z</time>
   </trkpt>
   <trkpt lat="-3.1568270" lon="37.3670130">
    <ele>3078.6</ele>
    <time>2026-06-23T12:39:33Z</time>
   </trkpt>
   <trkpt lat="-3.1568270" lon="37.3670130">
    <ele>3078.6</ele>
    <time>2026-06-23T12:39:34Z</time>
   </trkpt>
   <trkpt lat="-3.1568270" lon="37.3670130">
    <ele>3078.6</ele>
    <time>2026-06-23T12:39:35Z</time>
   </trkpt>
   <trkpt lat="-3.1568260" lon="37.3670140">
    <ele>3078.6</ele>
    <time>2026-06-23T12:39:36Z</time>
   </trkpt>
   <trkpt lat="-3.1568250" lon="37.3670150">
    <ele>3078.6</ele>
    <time>2026-06-23T12:39:37Z</time>
   </trkpt>
   <trkpt lat="-3.1568250" lon="37.3670150">
    <ele>3078.6</ele>
    <time>2026-06-23T12:39:38Z</time>
   </trkpt>
   <trkpt lat="-3.1568250" lon="37.3670150">
    <ele>3078.6</ele>
    <time>2026-06-23T12:39:39Z</time>
   </trkpt>
   <trkpt lat="-3.1568250" lon="37.3670150">
    <ele>3078.6</ele>
    <time>2026-06-23T12:39:40Z</time>
   </trkpt>
   <trkpt lat="-3.1568250" lon="37.3670150">
    <ele>3078.6</ele>
    <time>2026-06-23T12:39:41Z</time>
   </trkpt>
   <trkpt lat="-3.1568250" lon="37.3670150">
    <ele>3078.6</ele>
    <time>2026-06-23T12:39:42Z</time>
   </trkpt>
   <trkpt lat="-3.1568250" lon="37.3670150">
    <ele>3078.6</ele>
    <time>2026-06-23T12:39:43Z</time>
   </trkpt>
   <trkpt lat="-3.1568250" lon="37.3670150">
    <ele>3078.6</ele>
    <time>2026-06-23T12:39:44Z</time>
   </trkpt>
   <trkpt lat="-3.1568250" lon="37.3670150">
    <ele>3078.6</ele>
    <time>2026-06-23T12:39:45Z</time>
   </trkpt>
   <trkpt lat="-3.1568250" lon="37.3670150">
    <ele>3078.6</ele>
    <time>2026-06-23T12:39:46Z</time>
   </trkpt>
   <trkpt lat="-3.1568280" lon="37.3670190">
    <ele>3078.6</ele>
    <time>2026-06-23T12:39:47Z</time>
   </trkpt>
   <trkpt lat="-3.1568270" lon="37.3670190">
    <ele>3078.6</ele>
    <time>2026-06-23T12:39:48Z</time>
   </trkpt>
   <trkpt lat="-3.1568270" lon="37.3670190">
    <ele>3078.6</ele>
    <time>2026-06-23T12:39:49Z</time>
   </trkpt>
   <trkpt lat="-3.1568270" lon="37.3670190">
    <ele>3078.6</ele>
    <time>2026-06-23T12:39:50Z</time>
   </trkpt>
   <trkpt lat="-3.1568260" lon="37.3670200">
    <ele>3078.6</ele>
    <time>2026-06-23T12:39:51Z</time>
   </trkpt>
   <trkpt lat="-3.1568260" lon="37.3670200">
    <ele>3078.6</ele>
    <time>2026-06-23T12:39:52Z</time>
   </trkpt>
   <trkpt lat="-3.1568270" lon="37.3670200">
    <ele>3078.6</ele>
    <time>2026-06-23T12:39:53Z</time>
   </trkpt>
   <trkpt lat="-3.1568260" lon="37.3670190">
    <ele>3078.6</ele>
    <time>2026-06-23T12:39:54Z</time>
   </trkpt>
   <trkpt lat="-3.1568260" lon="37.3670200">
    <ele>3078.6</ele>
    <time>2026-06-23T12:39:55Z</time>
   </trkpt>
   <trkpt lat="-3.1568250" lon="37.3670200">
    <ele>3078.6</ele>
    <time>2026-06-23T12:39:56Z</time>
   </trkpt>
   <trkpt lat="-3.1568250" lon="37.3670200">
    <ele>3078.6</ele>
    <time>2026-06-23T12:39:57Z</time>
   </trkpt>
   <trkpt lat="-3.1568260" lon="37.3670200">
    <ele>3078.6</ele>
    <time>2026-06-23T12:39:58Z</time>
   </trkpt>
   <trkpt lat="-3.1568270" lon="37.3670200">
    <ele>3078.5</ele>
    <time>2026-06-23T12:39:59Z</time>
   </trkpt>
   <trkpt lat="-3.1568270" lon="37.3670200">
    <ele>3078.5</ele>
    <time>2026-06-23T12:40:00Z</time>
   </trkpt>
   <trkpt lat="-3.1568260" lon="37.3670190">
    <ele>3078.5</ele>
    <time>2026-06-23T12:40:01Z</time>
   </trkpt>
   <trkpt lat="-3.1568260" lon="37.3670190">
    <ele>3078.5</ele>
    <time>2026-06-23T12:40:02Z</time>
   </trkpt>
   <trkpt lat="-3.1568260" lon="37.3670180">
    <ele>3078.5</ele>
    <time>2026-06-23T12:40:03Z</time>
   </trkpt>
   <trkpt lat="-3.1568260" lon="37.3670180">
    <ele>3078.5</ele>
    <time>2026-06-23T12:40:04Z</time>
   </trkpt>
   <trkpt lat="-3.1568260" lon="37.3670180">
    <ele>3078.5</ele>
    <time>2026-06-23T12:40:05Z</time>
   </trkpt>
   <trkpt lat="-3.1568260" lon="37.3670180">
    <ele>3078.5</ele>
    <time>2026-06-23T12:40:06Z</time>
   </trkpt>
   <trkpt lat="-3.1568260" lon="37.3670180">
    <ele>3078.5</ele>
    <time>2026-06-23T12:40:07Z</time>
   </trkpt>
   <trkpt lat="-3.1568260" lon="37.3670180">
    <ele>3078.5</ele>
    <time>2026-06-23T12:40:08Z</time>
   </trkpt>
   <trkpt lat="-3.1568280" lon="37.3670150">
    <ele>3078.5</ele>
    <time>2026-06-23T12:40:09Z</time>
   </trkpt>
   <trkpt lat="-3.1568290" lon="37.3670170">
    <ele>3078.5</ele>
    <time>2026-06-23T12:40:10Z</time>
   </trkpt>
   <trkpt lat="-3.1568280" lon="37.3670150">
    <ele>3078.5</ele>
    <time>2026-06-23T12:40:11Z</time>
   </trkpt>
   <trkpt lat="-3.1568280" lon="37.3670170">
    <ele>3078.5</ele>
    <time>2026-06-23T12:40:12Z</time>
   </trkpt>
   <trkpt lat="-3.1568260" lon="37.3670180">
    <ele>3078.5</ele>
    <time>2026-06-23T12:40:13Z</time>
   </trkpt>
   <trkpt lat="-3.1568260" lon="37.3670180">
    <ele>3078.5</ele>
    <time>2026-06-23T12:40:14Z</time>
   </trkpt>
   <trkpt lat="-3.1568250" lon="37.3670180">
    <ele>3078.5</ele>
    <time>2026-06-23T12:40:15Z</time>
   </trkpt>
   <trkpt lat="-3.1568240" lon="37.3670200">
    <ele>3078.4</ele>
    <time>2026-06-23T12:40:16Z</time>
   </trkpt>
   <trkpt lat="-3.1568230" lon="37.3670200">
    <ele>3078.4</ele>
    <time>2026-06-23T12:40:17Z</time>
   </trkpt>
   <trkpt lat="-3.1568230" lon="37.3670210">
    <ele>3078.4</ele>
    <time>2026-06-23T12:40:18Z</time>
   </trkpt>
   <trkpt lat="-3.1568230" lon="37.3670210">
    <ele>3078.4</ele>
    <time>2026-06-23T12:40:19Z</time>
   </trkpt>
   <trkpt lat="-3.1568230" lon="37.3670210">
    <ele>3078.4</ele>
    <time>2026-06-23T12:40:20Z</time>
   </trkpt>
   <trkpt lat="-3.1568240" lon="37.3670210">
    <ele>3078.4</ele>
    <time>2026-06-23T12:40:21Z</time>
   </trkpt>
   <trkpt lat="-3.1568240" lon="37.3670210">
    <ele>3078.4</ele>
    <time>2026-06-23T12:40:22Z</time>
   </trkpt>
   <trkpt lat="-3.1568240" lon="37.3670210">
    <ele>3078.4</ele>
    <time>2026-06-23T12:40:23Z</time>
   </trkpt>
   <trkpt lat="-3.1568240" lon="37.3670210">
    <ele>3078.4</ele>
    <time>2026-06-23T12:40:24Z</time>
   </trkpt>
   <trkpt lat="-3.1568240" lon="37.3670210">
    <ele>3078.4</ele>
    <time>2026-06-23T12:40:25Z</time>
   </trkpt>
   <trkpt lat="-3.1568240" lon="37.3670210">
    <ele>3078.4</ele>
    <time>2026-06-23T12:40:26Z</time>
   </trkpt>
   <trkpt lat="-3.1568240" lon="37.3670210">
    <ele>3078.4</ele>
    <time>2026-06-23T12:40:27Z</time>
   </trkpt>
   <trkpt lat="-3.1568220" lon="37.3670220">
    <ele>3078.4</ele>
    <time>2026-06-23T12:40:28Z</time>
   </trkpt>
   <trkpt lat="-3.1568220" lon="37.3670220">
    <ele>3078.4</ele>
    <time>2026-06-23T12:40:29Z</time>
   </trkpt>
   <trkpt lat="-3.1568220" lon="37.3670220">
    <ele>3078.4</ele>
    <time>2026-06-23T12:40:30Z</time>
   </trkpt>
   <trkpt lat="-3.1568220" lon="37.3670220">
    <ele>3078.4</ele>
    <time>2026-06-23T12:40:31Z</time>
   </trkpt>
   <trkpt lat="-3.1568220" lon="37.3670220">
    <ele>3078.4</ele>
    <time>2026-06-23T12:40:32Z</time>
   </trkpt>
   <trkpt lat="-3.1568220" lon="37.3670220">
    <ele>3078.4</ele>
    <time>2026-06-23T12:40:33Z</time>
   </trkpt>
   <trkpt lat="-3.1568210" lon="37.3670220">
    <ele>3078.4</ele>
    <time>2026-06-23T12:40:34Z</time>
   </trkpt>
   <trkpt lat="-3.1568210" lon="37.3670220">
    <ele>3078.4</ele>
    <time>2026-06-23T12:40:35Z</time>
   </trkpt>
   <trkpt lat="-3.1568210" lon="37.3670220">
    <ele>3078.4</ele>
    <time>2026-06-23T12:40:36Z</time>
   </trkpt>
   <trkpt lat="-3.1568210" lon="37.3670220">
    <ele>3078.4</ele>
    <time>2026-06-23T12:40:37Z</time>
   </trkpt>
   <trkpt lat="-3.1568210" lon="37.3670220">
    <ele>3078.4</ele>
    <time>2026-06-23T12:40:38Z</time>
   </trkpt>
   <trkpt lat="-3.1568210" lon="37.3670220">
    <ele>3078.4</ele>
    <time>2026-06-23T12:40:39Z</time>
   </trkpt>
   <trkpt lat="-3.1568210" lon="37.3670220">
    <ele>3078.4</ele>
    <time>2026-06-23T12:40:40Z</time>
   </trkpt>
   <trkpt lat="-3.1568200" lon="37.3670210">
    <ele>3078.4</ele>
    <time>2026-06-23T12:40:41Z</time>
   </trkpt>
   <trkpt lat="-3.1568200" lon="37.3670210">
    <ele>3078.4</ele>
    <time>2026-06-23T12:40:42Z</time>
   </trkpt>
   <trkpt lat="-3.1568200" lon="37.3670210">
    <ele>3078.4</ele>
    <time>2026-06-23T12:40:43Z</time>
   </trkpt>
   <trkpt lat="-3.1568200" lon="37.3670210">
    <ele>3078.4</ele>
    <time>2026-06-23T12:40:44Z</time>
   </trkpt>
   <trkpt lat="-3.1568200" lon="37.3670210">
    <ele>3078.4</ele>
    <time>2026-06-23T12:40:45Z</time>
   </trkpt>
   <trkpt lat="-3.1568200" lon="37.3670210">
    <ele>3078.4</ele>
    <time>2026-06-23T12:40:46Z</time>
   </trkpt>
   <trkpt lat="-3.1568200" lon="37.3670210">
    <ele>3078.4</ele>
    <time>2026-06-23T12:40:47Z</time>
   </trkpt>
   <trkpt lat="-3.1568200" lon="37.3670200">
    <ele>3078.4</ele>
    <time>2026-06-23T12:40:48Z</time>
   </trkpt>
   <trkpt lat="-3.1568200" lon="37.3670200">
    <ele>3078.4</ele>
    <time>2026-06-23T12:40:49Z</time>
   </trkpt>
   <trkpt lat="-3.1568200" lon="37.3670200">
    <ele>3078.4</ele>
    <time>2026-06-23T12:40:50Z</time>
   </trkpt>
   <trkpt lat="-3.1568220" lon="37.3670190">
    <ele>3078.4</ele>
    <time>2026-06-23T12:40:51Z</time>
   </trkpt>
   <trkpt lat="-3.1568230" lon="37.3670190">
    <ele>3078.4</ele>
    <time>2026-06-23T12:40:52Z</time>
   </trkpt>
   <trkpt lat="-3.1568230" lon="37.3670180">
    <ele>3078.4</ele>
    <time>2026-06-23T12:40:53Z</time>
   </trkpt>
   <trkpt lat="-3.1568230" lon="37.3670180">
    <ele>3078.4</ele>
    <time>2026-06-23T12:40:54Z</time>
   </trkpt>
   <trkpt lat="-3.1568230" lon="37.3670180">
    <ele>3078.4</ele>
    <time>2026-06-23T12:40:55Z</time>
   </trkpt>
   <trkpt lat="-3.1568230" lon="37.3670190">
    <ele>3078.4</ele>
    <time>2026-06-23T12:40:56Z</time>
   </trkpt>
   <trkpt lat="-3.1568240" lon="37.3670180">
    <ele>3078.3</ele>
    <time>2026-06-23T12:40:57Z</time>
   </trkpt>
   <trkpt lat="-3.1568240" lon="37.3670180">
    <ele>3078.3</ele>
    <time>2026-06-23T12:40:58Z</time>
   </trkpt>
   <trkpt lat="-3.1568260" lon="37.3670170">
    <ele>3078.3</ele>
    <time>2026-06-23T12:40:59Z</time>
   </trkpt>
   <trkpt lat="-3.1568260" lon="37.3670170">
    <ele>3078.3</ele>
    <time>2026-06-23T12:41:00Z</time>
   </trkpt>
   <trkpt lat="-3.1568260" lon="37.3670170">
    <ele>3078.3</ele>
    <time>2026-06-23T12:41:01Z</time>
   </trkpt>
   <trkpt lat="-3.1568260" lon="37.3670170">
    <ele>3078.3</ele>
    <time>2026-06-23T12:41:02Z</time>
   </trkpt>
   <trkpt lat="-3.1568270" lon="37.3670170">
    <ele>3078.3</ele>
    <time>2026-06-23T12:41:03Z</time>
   </trkpt>
   <trkpt lat="-3.1568270" lon="37.3670170">
    <ele>3078.3</ele>
    <time>2026-06-23T12:41:04Z</time>
   </trkpt>
   <trkpt lat="-3.1568270" lon="37.3670170">
    <ele>3078.3</ele>
    <time>2026-06-23T12:41:05Z</time>
   </trkpt>
   <trkpt lat="-3.1568270" lon="37.3670170">
    <ele>3078.3</ele>
    <time>2026-06-23T12:41:06Z</time>
   </trkpt>
   <trkpt lat="-3.1568270" lon="37.3670170">
    <ele>3078.3</ele>
    <time>2026-06-23T12:41:07Z</time>
   </trkpt>
   <trkpt lat="-3.1568270" lon="37.3670170">
    <ele>3078.3</ele>
    <time>2026-06-23T12:41:08Z</time>
   </trkpt>
   <trkpt lat="-3.1568310" lon="37.3670160">
    <ele>3078.3</ele>
    <time>2026-06-23T12:41:09Z</time>
   </trkpt>
   <trkpt lat="-3.1568310" lon="37.3670160">
    <ele>3078.3</ele>
    <time>2026-06-23T12:41:10Z</time>
   </trkpt>
   <trkpt lat="-3.1568310" lon="37.3670160">
    <ele>3078.3</ele>
    <time>2026-06-23T12:41:11Z</time>
   </trkpt>
   <trkpt lat="-3.1568320" lon="37.3670160">
    <ele>3078.3</ele>
    <time>2026-06-23T12:41:12Z</time>
   </trkpt>
   <trkpt lat="-3.1568320" lon="37.3670160">
    <ele>3078.3</ele>
    <time>2026-06-23T12:41:13Z</time>
   </trkpt>
   <trkpt lat="-3.1568320" lon="37.3670150">
    <ele>3078.3</ele>
    <time>2026-06-23T12:41:14Z</time>
   </trkpt>
   <trkpt lat="-3.1568310" lon="37.3670140">
    <ele>3078.3</ele>
    <time>2026-06-23T12:41:15Z</time>
   </trkpt>
   <trkpt lat="-3.1568320" lon="37.3670160">
    <ele>3078.3</ele>
    <time>2026-06-23T12:41:16Z</time>
   </trkpt>
   <trkpt lat="-3.1568340" lon="37.3670160">
    <ele>3078.3</ele>
    <time>2026-06-23T12:41:17Z</time>
   </trkpt>
   <trkpt lat="-3.1568320" lon="37.3670170">
    <ele>3078.2</ele>
    <time>2026-06-23T12:41:18Z</time>
   </trkpt>
   <trkpt lat="-3.1568340" lon="37.3670180">
    <ele>3078.2</ele>
    <time>2026-06-23T12:41:19Z</time>
   </trkpt>
   <trkpt lat="-3.1568310" lon="37.3670170">
    <ele>3078.2</ele>
    <time>2026-06-23T12:41:20Z</time>
   </trkpt>
   <trkpt lat="-3.1568320" lon="37.3670180">
    <ele>3078.2</ele>
    <time>2026-06-23T12:41:21Z</time>
   </trkpt>
   <trkpt lat="-3.1568320" lon="37.3670180">
    <ele>3078.2</ele>
    <time>2026-06-23T12:41:22Z</time>
   </trkpt>
   <trkpt lat="-3.1568320" lon="37.3670170">
    <ele>3078.2</ele>
    <time>2026-06-23T12:41:23Z</time>
   </trkpt>
   <trkpt lat="-3.1568310" lon="37.3670170">
    <ele>3078.2</ele>
    <time>2026-06-23T12:41:24Z</time>
   </trkpt>
   <trkpt lat="-3.1568300" lon="37.3670200">
    <ele>3078.2</ele>
    <time>2026-06-23T12:41:25Z</time>
   </trkpt>
   <trkpt lat="-3.1568300" lon="37.3670190">
    <ele>3078.2</ele>
    <time>2026-06-23T12:41:26Z</time>
   </trkpt>
   <trkpt lat="-3.1568290" lon="37.3670200">
    <ele>3078.2</ele>
    <time>2026-06-23T12:41:27Z</time>
   </trkpt>
   <trkpt lat="-3.1568280" lon="37.3670200">
    <ele>3078.1</ele>
    <time>2026-06-23T12:41:28Z</time>
   </trkpt>
   <trkpt lat="-3.1568300" lon="37.3670220">
    <ele>3078.1</ele>
    <time>2026-06-23T12:41:29Z</time>
   </trkpt>
   <trkpt lat="-3.1568310" lon="37.3670200">
    <ele>3078.1</ele>
    <time>2026-06-23T12:41:30Z</time>
   </trkpt>
   <trkpt lat="-3.1568320" lon="37.3670180">
    <ele>3078.1</ele>
    <time>2026-06-23T12:41:31Z</time>
   </trkpt>
   <trkpt lat="-3.1568320" lon="37.3670170">
    <ele>3078.1</ele>
    <time>2026-06-23T12:41:32Z</time>
   </trkpt>
   <trkpt lat="-3.1568310" lon="37.3670190">
    <ele>3078.1</ele>
    <time>2026-06-23T12:41:33Z</time>
   </trkpt>
   <trkpt lat="-3.1568320" lon="37.3670180">
    <ele>3078.1</ele>
    <time>2026-06-23T12:41:34Z</time>
   </trkpt>
   <trkpt lat="-3.1568320" lon="37.3670170">
    <ele>3078.1</ele>
    <time>2026-06-23T12:41:35Z</time>
   </trkpt>
   <trkpt lat="-3.1568310" lon="37.3670160">
    <ele>3078.1</ele>
    <time>2026-06-23T12:41:36Z</time>
   </trkpt>
   <trkpt lat="-3.1568310" lon="37.3670160">
    <ele>3078.1</ele>
    <time>2026-06-23T12:41:37Z</time>
   </trkpt>
   <trkpt lat="-3.1568290" lon="37.3670170">
    <ele>3078.0</ele>
    <time>2026-06-23T12:41:38Z</time>
   </trkpt>
   <trkpt lat="-3.1568280" lon="37.3670160">
    <ele>3078.0</ele>
    <time>2026-06-23T12:41:39Z</time>
   </trkpt>
   <trkpt lat="-3.1568270" lon="37.3670170">
    <ele>3078.0</ele>
    <time>2026-06-23T12:41:40Z</time>
   </trkpt>
   <trkpt lat="-3.1568270" lon="37.3670170">
    <ele>3078.0</ele>
    <time>2026-06-23T12:41:41Z</time>
   </trkpt>
   <trkpt lat="-3.1568270" lon="37.3670170">
    <ele>3078.0</ele>
    <time>2026-06-23T12:41:42Z</time>
   </trkpt>
   <trkpt lat="-3.1568270" lon="37.3670170">
    <ele>3078.0</ele>
    <time>2026-06-23T12:41:43Z</time>
   </trkpt>
   <trkpt lat="-3.1568270" lon="37.3670170">
    <ele>3078.0</ele>
    <time>2026-06-23T12:41:44Z</time>
   </trkpt>
   <trkpt lat="-3.1568270" lon="37.3670170">
    <ele>3078.0</ele>
    <time>2026-06-23T12:41:45Z</time>
   </trkpt>
   <trkpt lat="-3.1568270" lon="37.3670170">
    <ele>3078.0</ele>
    <time>2026-06-23T12:41:46Z</time>
   </trkpt>
   <trkpt lat="-3.1568280" lon="37.3670150">
    <ele>3078.0</ele>
    <time>2026-06-23T12:41:47Z</time>
   </trkpt>
   <trkpt lat="-3.1568260" lon="37.3670150">
    <ele>3078.0</ele>
    <time>2026-06-23T12:41:48Z</time>
   </trkpt>
   <trkpt lat="-3.1568250" lon="37.3670160">
    <ele>3078.0</ele>
    <time>2026-06-23T12:41:49Z</time>
   </trkpt>
   <trkpt lat="-3.1568240" lon="37.3670170">
    <ele>3078.0</ele>
    <time>2026-06-23T12:41:50Z</time>
   </trkpt>
   <trkpt lat="-3.1568260" lon="37.3670170">
    <ele>3078.0</ele>
    <time>2026-06-23T12:41:51Z</time>
   </trkpt>
   <trkpt lat="-3.1568260" lon="37.3670190">
    <ele>3078.0</ele>
    <time>2026-06-23T12:41:52Z</time>
   </trkpt>
   <trkpt lat="-3.1568270" lon="37.3670190">
    <ele>3078.0</ele>
    <time>2026-06-23T12:41:53Z</time>
   </trkpt>
   <trkpt lat="-3.1568270" lon="37.3670190">
    <ele>3078.0</ele>
    <time>2026-06-23T12:41:54Z</time>
   </trkpt>
   <trkpt lat="-3.1568260" lon="37.3670170">
    <ele>3077.9</ele>
    <time>2026-06-23T12:41:55Z</time>
   </trkpt>
   <trkpt lat="-3.1568250" lon="37.3670160">
    <ele>3077.9</ele>
    <time>2026-06-23T12:41:56Z</time>
   </trkpt>
   <trkpt lat="-3.1568250" lon="37.3670160">
    <ele>3077.9</ele>
    <time>2026-06-23T12:41:57Z</time>
   </trkpt>
   <trkpt lat="-3.1568250" lon="37.3670170">
    <ele>3077.9</ele>
    <time>2026-06-23T12:41:58Z</time>
   </trkpt>
   <trkpt lat="-3.1568250" lon="37.3670170">
    <ele>3077.9</ele>
    <time>2026-06-23T12:41:59Z</time>
   </trkpt>
   <trkpt lat="-3.1568250" lon="37.3670170">
    <ele>3077.9</ele>
    <time>2026-06-23T12:42:00Z</time>
   </trkpt>
   <trkpt lat="-3.1568240" lon="37.3670170">
    <ele>3077.9</ele>
    <time>2026-06-23T12:42:01Z</time>
   </trkpt>
   <trkpt lat="-3.1568250" lon="37.3670160">
    <ele>3077.9</ele>
    <time>2026-06-23T12:42:02Z</time>
   </trkpt>
   <trkpt lat="-3.1568260" lon="37.3670170">
    <ele>3077.9</ele>
    <time>2026-06-23T12:42:03Z</time>
   </trkpt>
   <trkpt lat="-3.1568270" lon="37.3670140">
    <ele>3077.9</ele>
    <time>2026-06-23T12:42:04Z</time>
   </trkpt>
   <trkpt lat="-3.1568260" lon="37.3670110">
    <ele>3077.9</ele>
    <time>2026-06-23T12:42:05Z</time>
   </trkpt>
   <trkpt lat="-3.1568250" lon="37.3670100">
    <ele>3077.9</ele>
    <time>2026-06-23T12:42:06Z</time>
   </trkpt>
   <trkpt lat="-3.1568250" lon="37.3670100">
    <ele>3077.9</ele>
    <time>2026-06-23T12:42:07Z</time>
   </trkpt>
   <trkpt lat="-3.1568260" lon="37.3670100">
    <ele>3077.9</ele>
    <time>2026-06-23T12:42:08Z</time>
   </trkpt>
   <trkpt lat="-3.1568270" lon="37.3670130">
    <ele>3077.8</ele>
    <time>2026-06-23T12:42:09Z</time>
   </trkpt>
   <trkpt lat="-3.1568270" lon="37.3670120">
    <ele>3077.8</ele>
    <time>2026-06-23T12:42:10Z</time>
   </trkpt>
   <trkpt lat="-3.1568280" lon="37.3670130">
    <ele>3077.8</ele>
    <time>2026-06-23T12:42:11Z</time>
   </trkpt>
   <trkpt lat="-3.1568280" lon="37.3670130">
    <ele>3077.8</ele>
    <time>2026-06-23T12:42:12Z</time>
   </trkpt>
   <trkpt lat="-3.1568290" lon="37.3670130">
    <ele>3077.8</ele>
    <time>2026-06-23T12:42:13Z</time>
   </trkpt>
   <trkpt lat="-3.1568290" lon="37.3670130">
    <ele>3077.8</ele>
    <time>2026-06-23T12:42:14Z</time>
   </trkpt>
   <trkpt lat="-3.1568290" lon="37.3670130">
    <ele>3077.8</ele>
    <time>2026-06-23T12:42:15Z</time>
   </trkpt>
   <trkpt lat="-3.1568290" lon="37.3670130">
    <ele>3077.8</ele>
    <time>2026-06-23T12:42:16Z</time>
   </trkpt>
   <trkpt lat="-3.1568320" lon="37.3670160">
    <ele>3077.8</ele>
    <time>2026-06-23T12:42:17Z</time>
   </trkpt>
   <trkpt lat="-3.1568320" lon="37.3670160">
    <ele>3077.8</ele>
    <time>2026-06-23T12:42:18Z</time>
   </trkpt>
   <trkpt lat="-3.1568320" lon="37.3670160">
    <ele>3077.8</ele>
    <time>2026-06-23T12:42:19Z</time>
   </trkpt>
   <trkpt lat="-3.1568320" lon="37.3670160">
    <ele>3077.8</ele>
    <time>2026-06-23T12:42:20Z</time>
   </trkpt>
   <trkpt lat="-3.1568320" lon="37.3670160">
    <ele>3077.8</ele>
    <time>2026-06-23T12:42:21Z</time>
   </trkpt>
   <trkpt lat="-3.1568320" lon="37.3670160">
    <ele>3077.8</ele>
    <time>2026-06-23T12:42:22Z</time>
   </trkpt>
   <trkpt lat="-3.1568330" lon="37.3670190">
    <ele>3077.8</ele>
    <time>2026-06-23T12:42:23Z</time>
   </trkpt>
   <trkpt lat="-3.1568330" lon="37.3670190">
    <ele>3077.8</ele>
    <time>2026-06-23T12:42:24Z</time>
   </trkpt>
   <trkpt lat="-3.1568320" lon="37.3670200">
    <ele>3077.8</ele>
    <time>2026-06-23T12:42:25Z</time>
   </trkpt>
   <trkpt lat="-3.1568310" lon="37.3670190">
    <ele>3077.8</ele>
    <time>2026-06-23T12:42:26Z</time>
   </trkpt>
   <trkpt lat="-3.1568310" lon="37.3670170">
    <ele>3077.7</ele>
    <time>2026-06-23T12:42:27Z</time>
   </trkpt>
   <trkpt lat="-3.1568300" lon="37.3670160">
    <ele>3077.7</ele>
    <time>2026-06-23T12:42:28Z</time>
   </trkpt>
   <trkpt lat="-3.1568320" lon="37.3670170">
    <ele>3077.7</ele>
    <time>2026-06-23T12:42:29Z</time>
   </trkpt>
   <trkpt lat="-3.1568330" lon="37.3670170">
    <ele>3077.7</ele>
    <time>2026-06-23T12:42:30Z</time>
   </trkpt>
   <trkpt lat="-3.1568290" lon="37.3670180">
    <ele>3077.7</ele>
    <time>2026-06-23T12:42:31Z</time>
   </trkpt>
   <trkpt lat="-3.1568280" lon="37.3670180">
    <ele>3077.7</ele>
    <time>2026-06-23T12:42:32Z</time>
   </trkpt>
   <trkpt lat="-3.1568290" lon="37.3670180">
    <ele>3077.7</ele>
    <time>2026-06-23T12:42:33Z</time>
   </trkpt>
   <trkpt lat="-3.1568280" lon="37.3670190">
    <ele>3077.7</ele>
    <time>2026-06-23T12:42:34Z</time>
   </trkpt>
   <trkpt lat="-3.1568280" lon="37.3670190">
    <ele>3077.7</ele>
    <time>2026-06-23T12:42:35Z</time>
   </trkpt>
   <trkpt lat="-3.1568280" lon="37.3670190">
    <ele>3077.7</ele>
    <time>2026-06-23T12:42:36Z</time>
   </trkpt>
   <trkpt lat="-3.1568290" lon="37.3670180">
    <ele>3077.7</ele>
    <time>2026-06-23T12:42:37Z</time>
   </trkpt>
   <trkpt lat="-3.1568270" lon="37.3670200">
    <ele>3077.6</ele>
    <time>2026-06-23T12:42:38Z</time>
   </trkpt>
   <trkpt lat="-3.1568260" lon="37.3670200">
    <ele>3077.6</ele>
    <time>2026-06-23T12:42:39Z</time>
   </trkpt>
   <trkpt lat="-3.1568270" lon="37.3670200">
    <ele>3077.6</ele>
    <time>2026-06-23T12:42:40Z</time>
   </trkpt>
   <trkpt lat="-3.1568270" lon="37.3670200">
    <ele>3077.6</ele>
    <time>2026-06-23T12:42:41Z</time>
   </trkpt>
   <trkpt lat="-3.1568260" lon="37.3670200">
    <ele>3077.6</ele>
    <time>2026-06-23T12:42:42Z</time>
   </trkpt>
   <trkpt lat="-3.1568260" lon="37.3670200">
    <ele>3077.6</ele>
    <time>2026-06-23T12:42:43Z</time>
   </trkpt>
   <trkpt lat="-3.1568260" lon="37.3670200">
    <ele>3077.6</ele>
    <time>2026-06-23T12:42:44Z</time>
   </trkpt>
   <trkpt lat="-3.1568260" lon="37.3670200">
    <ele>3077.6</ele>
    <time>2026-06-23T12:42:45Z</time>
   </trkpt>
   <trkpt lat="-3.1568260" lon="37.3670200">
    <ele>3077.6</ele>
    <time>2026-06-23T12:42:46Z</time>
   </trkpt>
   <trkpt lat="-3.1568260" lon="37.3670200">
    <ele>3077.6</ele>
    <time>2026-06-23T12:42:47Z</time>
   </trkpt>
   <trkpt lat="-3.1568260" lon="37.3670200">
    <ele>3077.6</ele>
    <time>2026-06-23T12:42:48Z</time>
   </trkpt>
   <trkpt lat="-3.1568260" lon="37.3670200">
    <ele>3077.6</ele>
    <time>2026-06-23T12:42:49Z</time>
   </trkpt>
   <trkpt lat="-3.1568250" lon="37.3670210">
    <ele>3077.6</ele>
    <time>2026-06-23T12:42:50Z</time>
   </trkpt>
   <trkpt lat="-3.1568240" lon="37.3670220">
    <ele>3077.6</ele>
    <time>2026-06-23T12:42:51Z</time>
   </trkpt>
   <trkpt lat="-3.1568230" lon="37.3670230">
    <ele>3077.6</ele>
    <time>2026-06-23T12:42:52Z</time>
   </trkpt>
   <trkpt lat="-3.1568240" lon="37.3670230">
    <ele>3077.6</ele>
    <time>2026-06-23T12:42:53Z</time>
   </trkpt>
   <trkpt lat="-3.1568250" lon="37.3670220">
    <ele>3077.6</ele>
    <time>2026-06-23T12:42:54Z</time>
   </trkpt>
   <trkpt lat="-3.1568230" lon="37.3670220">
    <ele>3077.6</ele>
    <time>2026-06-23T12:42:55Z</time>
   </trkpt>
   <trkpt lat="-3.1568250" lon="37.3670200">
    <ele>3077.6</ele>
    <time>2026-06-23T12:42:56Z</time>
   </trkpt>
   <trkpt lat="-3.1568270" lon="37.3670200">
    <ele>3077.5</ele>
    <time>2026-06-23T12:42:57Z</time>
   </trkpt>
   <trkpt lat="-3.1568250" lon="37.3670170">
    <ele>3077.5</ele>
    <time>2026-06-23T12:42:58Z</time>
   </trkpt>
   <trkpt lat="-3.1568270" lon="37.3670170">
    <ele>3077.5</ele>
    <time>2026-06-23T12:42:59Z</time>
   </trkpt>
   <trkpt lat="-3.1568260" lon="37.3670170">
    <ele>3077.5</ele>
    <time>2026-06-23T12:43:00Z</time>
   </trkpt>
   <trkpt lat="-3.1568270" lon="37.3670180">
    <ele>3077.5</ele>
    <time>2026-06-23T12:43:01Z</time>
   </trkpt>
   <trkpt lat="-3.1568270" lon="37.3670180">
    <ele>3077.5</ele>
    <time>2026-06-23T12:43:02Z</time>
   </trkpt>
   <trkpt lat="-3.1568270" lon="37.3670170">
    <ele>3077.5</ele>
    <time>2026-06-23T12:43:03Z</time>
   </trkpt>
   <trkpt lat="-3.1568250" lon="37.3670190">
    <ele>3077.5</ele>
    <time>2026-06-23T12:43:04Z</time>
   </trkpt>
   <trkpt lat="-3.1568260" lon="37.3670180">
    <ele>3077.5</ele>
    <time>2026-06-23T12:43:05Z</time>
   </trkpt>
   <trkpt lat="-3.1568260" lon="37.3670180">
    <ele>3077.5</ele>
    <time>2026-06-23T12:43:06Z</time>
   </trkpt>
   <trkpt lat="-3.1568270" lon="37.3670160">
    <ele>3077.5</ele>
    <time>2026-06-23T12:43:07Z</time>
   </trkpt>
   <trkpt lat="-3.1568280" lon="37.3670150">
    <ele>3077.4</ele>
    <time>2026-06-23T12:43:08Z</time>
   </trkpt>
   <trkpt lat="-3.1568280" lon="37.3670160">
    <ele>3077.4</ele>
    <time>2026-06-23T12:43:09Z</time>
   </trkpt>
   <trkpt lat="-3.1568310" lon="37.3670160">
    <ele>3077.4</ele>
    <time>2026-06-23T12:43:10Z</time>
   </trkpt>
   <trkpt lat="-3.1568310" lon="37.3670160">
    <ele>3077.4</ele>
    <time>2026-06-23T12:43:11Z</time>
   </trkpt>
   <trkpt lat="-3.1568290" lon="37.3670160">
    <ele>3077.4</ele>
    <time>2026-06-23T12:43:12Z</time>
   </trkpt>
   <trkpt lat="-3.1568290" lon="37.3670160">
    <ele>3077.4</ele>
    <time>2026-06-23T12:43:13Z</time>
   </trkpt>
   <trkpt lat="-3.1568290" lon="37.3670160">
    <ele>3077.4</ele>
    <time>2026-06-23T12:43:14Z</time>
   </trkpt>
   <trkpt lat="-3.1568290" lon="37.3670160">
    <ele>3077.4</ele>
    <time>2026-06-23T12:43:15Z</time>
   </trkpt>
   <trkpt lat="-3.1568290" lon="37.3670160">
    <ele>3077.4</ele>
    <time>2026-06-23T12:43:16Z</time>
   </trkpt>
   <trkpt lat="-3.1568290" lon="37.3670160">
    <ele>3077.4</ele>
    <time>2026-06-23T12:43:17Z</time>
   </trkpt>
   <trkpt lat="-3.1568260" lon="37.3670130">
    <ele>3077.4</ele>
    <time>2026-06-23T12:43:18Z</time>
   </trkpt>
   <trkpt lat="-3.1568260" lon="37.3670130">
    <ele>3077.4</ele>
    <time>2026-06-23T12:43:19Z</time>
   </trkpt>
   <trkpt lat="-3.1568260" lon="37.3670130">
    <ele>3077.4</ele>
    <time>2026-06-23T12:43:20Z</time>
   </trkpt>
   <trkpt lat="-3.1568260" lon="37.3670130">
    <ele>3077.4</ele>
    <time>2026-06-23T12:43:21Z</time>
   </trkpt>
   <trkpt lat="-3.1568250" lon="37.3670130">
    <ele>3077.4</ele>
    <time>2026-06-23T12:43:22Z</time>
   </trkpt>
   <trkpt lat="-3.1568260" lon="37.3670120">
    <ele>3077.4</ele>
    <time>2026-06-23T12:43:23Z</time>
   </trkpt>
   <trkpt lat="-3.1568250" lon="37.3670130">
    <ele>3077.4</ele>
    <time>2026-06-23T12:43:24Z</time>
   </trkpt>
   <trkpt lat="-3.1568240" lon="37.3670130">
    <ele>3077.4</ele>
    <time>2026-06-23T12:43:25Z</time>
   </trkpt>
   <trkpt lat="-3.1568260" lon="37.3670140">
    <ele>3077.3</ele>
    <time>2026-06-23T12:43:26Z</time>
   </trkpt>
   <trkpt lat="-3.1568260" lon="37.3670150">
    <ele>3077.3</ele>
    <time>2026-06-23T12:43:27Z</time>
   </trkpt>
   <trkpt lat="-3.1568250" lon="37.3670150">
    <ele>3077.3</ele>
    <time>2026-06-23T12:43:28Z</time>
   </trkpt>
   <trkpt lat="-3.1568250" lon="37.3670150">
    <ele>3077.3</ele>
    <time>2026-06-23T12:43:29Z</time>
   </trkpt>
   <trkpt lat="-3.1568250" lon="37.3670140">
    <ele>3077.3</ele>
    <time>2026-06-23T12:43:30Z</time>
   </trkpt>
   <trkpt lat="-3.1568250" lon="37.3670140">
    <ele>3077.3</ele>
    <time>2026-06-23T12:43:31Z</time>
   </trkpt>
   <trkpt lat="-3.1568250" lon="37.3670140">
    <ele>3077.3</ele>
    <time>2026-06-23T12:43:32Z</time>
   </trkpt>
   <trkpt lat="-3.1568250" lon="37.3670140">
    <ele>3077.3</ele>
    <time>2026-06-23T12:43:33Z</time>
   </trkpt>
   <trkpt lat="-3.1568280" lon="37.3670110">
    <ele>3077.3</ele>
    <time>2026-06-23T12:43:34Z</time>
   </trkpt>
   <trkpt lat="-3.1568280" lon="37.3670110">
    <ele>3077.3</ele>
    <time>2026-06-23T12:43:35Z</time>
   </trkpt>
   <trkpt lat="-3.1568280" lon="37.3670110">
    <ele>3077.3</ele>
    <time>2026-06-23T12:43:36Z</time>
   </trkpt>
   <trkpt lat="-3.1568280" lon="37.3670110">
    <ele>3077.3</ele>
    <time>2026-06-23T12:43:37Z</time>
   </trkpt>
   <trkpt lat="-3.1568280" lon="37.3670110">
    <ele>3077.3</ele>
    <time>2026-06-23T12:43:38Z</time>
   </trkpt>
   <trkpt lat="-3.1568280" lon="37.3670110">
    <ele>3077.3</ele>
    <time>2026-06-23T12:43:39Z</time>
   </trkpt>
   <trkpt lat="-3.1568300" lon="37.3670090">
    <ele>3077.3</ele>
    <time>2026-06-23T12:43:40Z</time>
   </trkpt>
   <trkpt lat="-3.1568300" lon="37.3670080">
    <ele>3077.3</ele>
    <time>2026-06-23T12:43:41Z</time>
   </trkpt>
   <trkpt lat="-3.1568300" lon="37.3670080">
    <ele>3077.3</ele>
    <time>2026-06-23T12:43:42Z</time>
   </trkpt>
   <trkpt lat="-3.1568300" lon="37.3670090">
    <ele>3077.3</ele>
    <time>2026-06-23T12:43:43Z</time>
   </trkpt>
   <trkpt lat="-3.1568310" lon="37.3670120">
    <ele>3077.3</ele>
    <time>2026-06-23T12:43:44Z</time>
   </trkpt>
   <trkpt lat="-3.1568300" lon="37.3670110">
    <ele>3077.3</ele>
    <time>2026-06-23T12:43:45Z</time>
   </trkpt>
   <trkpt lat="-3.1568290" lon="37.3670130">
    <ele>3077.2</ele>
    <time>2026-06-23T12:43:46Z</time>
   </trkpt>
   <trkpt lat="-3.1568290" lon="37.3670130">
    <ele>3077.2</ele>
    <time>2026-06-23T12:43:47Z</time>
   </trkpt>
   <trkpt lat="-3.1568300" lon="37.3670150">
    <ele>3077.2</ele>
    <time>2026-06-23T12:43:48Z</time>
   </trkpt>
   <trkpt lat="-3.1568290" lon="37.3670160">
    <ele>3077.2</ele>
    <time>2026-06-23T12:43:49Z</time>
   </trkpt>
   <trkpt lat="-3.1568290" lon="37.3670160">
    <ele>3077.2</ele>
    <time>2026-06-23T12:43:50Z</time>
   </trkpt>
   <trkpt lat="-3.1568290" lon="37.3670180">
    <ele>3077.2</ele>
    <time>2026-06-23T12:43:51Z</time>
   </trkpt>
   <trkpt lat="-3.1568290" lon="37.3670190">
    <ele>3077.2</ele>
    <time>2026-06-23T12:43:52Z</time>
   </trkpt>
   <trkpt lat="-3.1568290" lon="37.3670180">
    <ele>3077.2</ele>
    <time>2026-06-23T12:43:53Z</time>
   </trkpt>
   <trkpt lat="-3.1568290" lon="37.3670180">
    <ele>3077.2</ele>
    <time>2026-06-23T12:43:54Z</time>
   </trkpt>
   <trkpt lat="-3.1568290" lon="37.3670180">
    <ele>3077.2</ele>
    <time>2026-06-23T12:43:55Z</time>
   </trkpt>
   <trkpt lat="-3.1568290" lon="37.3670200">
    <ele>3077.2</ele>
    <time>2026-06-23T12:43:56Z</time>
   </trkpt>
   <trkpt lat="-3.1568290" lon="37.3670200">
    <ele>3077.2</ele>
    <time>2026-06-23T12:43:57Z</time>
   </trkpt>
   <trkpt lat="-3.1568290" lon="37.3670200">
    <ele>3077.2</ele>
    <time>2026-06-23T12:43:58Z</time>
   </trkpt>
   <trkpt lat="-3.1568290" lon="37.3670200">
    <ele>3077.2</ele>
    <time>2026-06-23T12:43:59Z</time>
   </trkpt>
   <trkpt lat="-3.1568310" lon="37.3670240">
    <ele>3077.2</ele>
    <time>2026-06-23T12:44:00Z</time>
   </trkpt>
   <trkpt lat="-3.1568310" lon="37.3670240">
    <ele>3077.2</ele>
    <time>2026-06-23T12:44:01Z</time>
   </trkpt>
   <trkpt lat="-3.1568310" lon="37.3670250">
    <ele>3077.2</ele>
    <time>2026-06-23T12:44:02Z</time>
   </trkpt>
   <trkpt lat="-3.1568310" lon="37.3670260">
    <ele>3077.2</ele>
    <time>2026-06-23T12:44:03Z</time>
   </trkpt>
   <trkpt lat="-3.1568320" lon="37.3670270">
    <ele>3077.1</ele>
    <time>2026-06-23T12:44:04Z</time>
   </trkpt>
   <trkpt lat="-3.1568330" lon="37.3670280">
    <ele>3077.1</ele>
    <time>2026-06-23T12:44:05Z</time>
   </trkpt>
   <trkpt lat="-3.1568330" lon="37.3670290">
    <ele>3077.1</ele>
    <time>2026-06-23T12:44:06Z</time>
   </trkpt>
   <trkpt lat="-3.1568320" lon="37.3670300">
    <ele>3077.1</ele>
    <time>2026-06-23T12:44:07Z</time>
   </trkpt>
   <trkpt lat="-3.1568330" lon="37.3670290">
    <ele>3077.1</ele>
    <time>2026-06-23T12:44:08Z</time>
   </trkpt>
   <trkpt lat="-3.1568320" lon="37.3670290">
    <ele>3077.1</ele>
    <time>2026-06-23T12:44:09Z</time>
   </trkpt>
   <trkpt lat="-3.1568320" lon="37.3670290">
    <ele>3077.1</ele>
    <time>2026-06-23T12:44:10Z</time>
   </trkpt>
   <trkpt lat="-3.1568310" lon="37.3670290">
    <ele>3077.1</ele>
    <time>2026-06-23T12:44:11Z</time>
   </trkpt>
   <trkpt lat="-3.1568310" lon="37.3670290">
    <ele>3077.1</ele>
    <time>2026-06-23T12:44:12Z</time>
   </trkpt>
   <trkpt lat="-3.1568310" lon="37.3670290">
    <ele>3077.1</ele>
    <time>2026-06-23T12:44:13Z</time>
   </trkpt>
   <trkpt lat="-3.1568310" lon="37.3670290">
    <ele>3077.1</ele>
    <time>2026-06-23T12:44:14Z</time>
   </trkpt>
   <trkpt lat="-3.1568310" lon="37.3670290">
    <ele>3077.1</ele>
    <time>2026-06-23T12:44:15Z</time>
   </trkpt>
   <trkpt lat="-3.1568310" lon="37.3670290">
    <ele>3077.1</ele>
    <time>2026-06-23T12:44:16Z</time>
   </trkpt>
   <trkpt lat="-3.1568310" lon="37.3670290">
    <ele>3077.1</ele>
    <time>2026-06-23T12:44:17Z</time>
   </trkpt>
   <trkpt lat="-3.1568310" lon="37.3670290">
    <ele>3077.1</ele>
    <time>2026-06-23T12:44:18Z</time>
   </trkpt>
   <trkpt lat="-3.1568310" lon="37.3670290">
    <ele>3077.1</ele>
    <time>2026-06-23T12:44:19Z</time>
   </trkpt>
   <trkpt lat="-3.1568310" lon="37.3670290">
    <ele>3077.1</ele>
    <time>2026-06-23T12:44:20Z</time>
   </trkpt>
   <trkpt lat="-3.1568310" lon="37.3670290">
    <ele>3077.1</ele>
    <time>2026-06-23T12:44:21Z</time>
   </trkpt>
   <trkpt lat="-3.1568310" lon="37.3670290">
    <ele>3077.1</ele>
    <time>2026-06-23T12:44:22Z</time>
   </trkpt>
   <trkpt lat="-3.1568300" lon="37.3670270">
    <ele>3077.1</ele>
    <time>2026-06-23T12:44:23Z</time>
   </trkpt>
   <trkpt lat="-3.1568300" lon="37.3670270">
    <ele>3077.1</ele>
    <time>2026-06-23T12:44:24Z</time>
   </trkpt>
   <trkpt lat="-3.1568300" lon="37.3670270">
    <ele>3077.1</ele>
    <time>2026-06-23T12:44:25Z</time>
   </trkpt>
   <trkpt lat="-3.1568300" lon="37.3670270">
    <ele>3077.1</ele>
    <time>2026-06-23T12:44:26Z</time>
   </trkpt>
   <trkpt lat="-3.1568300" lon="37.3670270">
    <ele>3077.1</ele>
    <time>2026-06-23T12:44:27Z</time>
   </trkpt>
   <trkpt lat="-3.1568300" lon="37.3670270">
    <ele>3077.1</ele>
    <time>2026-06-23T12:44:28Z</time>
   </trkpt>
   <trkpt lat="-3.1568300" lon="37.3670270">
    <ele>3077.1</ele>
    <time>2026-06-23T12:44:29Z</time>
   </trkpt>
   <trkpt lat="-3.1568300" lon="37.3670270">
    <ele>3077.1</ele>
    <time>2026-06-23T12:44:30Z</time>
   </trkpt>
   <trkpt lat="-3.1568300" lon="37.3670270">
    <ele>3077.1</ele>
    <time>2026-06-23T12:44:31Z</time>
   </trkpt>
   <trkpt lat="-3.1568300" lon="37.3670270">
    <ele>3077.1</ele>
    <time>2026-06-23T12:44:32Z</time>
   </trkpt>
   <trkpt lat="-3.1568300" lon="37.3670270">
    <ele>3077.1</ele>
    <time>2026-06-23T12:44:33Z</time>
   </trkpt>
   <trkpt lat="-3.1568300" lon="37.3670270">
    <ele>3077.1</ele>
    <time>2026-06-23T12:44:34Z</time>
   </trkpt>
   <trkpt lat="-3.1568300" lon="37.3670270">
    <ele>3077.1</ele>
    <time>2026-06-23T12:44:35Z</time>
   </trkpt>
   <trkpt lat="-3.1568300" lon="37.3670270">
    <ele>3077.1</ele>
    <time>2026-06-23T12:44:36Z</time>
   </trkpt>
   <trkpt lat="-3.1568300" lon="37.3670270">
    <ele>3077.1</ele>
    <time>2026-06-23T12:44:37Z</time>
   </trkpt>
   <trkpt lat="-3.1568300" lon="37.3670270">
    <ele>3077.1</ele>
    <time>2026-06-23T12:44:38Z</time>
   </trkpt>
   <trkpt lat="-3.1568300" lon="37.3670270">
    <ele>3077.1</ele>
    <time>2026-06-23T12:44:39Z</time>
   </trkpt>
   <trkpt lat="-3.1568300" lon="37.3670230">
    <ele>3077.1</ele>
    <time>2026-06-23T12:44:40Z</time>
   </trkpt>
   <trkpt lat="-3.1568310" lon="37.3670230">
    <ele>3077.1</ele>
    <time>2026-06-23T12:44:41Z</time>
   </trkpt>
   <trkpt lat="-3.1568290" lon="37.3670230">
    <ele>3077.0</ele>
    <time>2026-06-23T12:44:42Z</time>
   </trkpt>
   <trkpt lat="-3.1568300" lon="37.3670240">
    <ele>3077.0</ele>
    <time>2026-06-23T12:44:43Z</time>
   </trkpt>
   <trkpt lat="-3.1568280" lon="37.3670230">
    <ele>3077.0</ele>
    <time>2026-06-23T12:44:44Z</time>
   </trkpt>
   <trkpt lat="-3.1568270" lon="37.3670220">
    <ele>3077.0</ele>
    <time>2026-06-23T12:44:45Z</time>
   </trkpt>
   <trkpt lat="-3.1568270" lon="37.3670220">
    <ele>3077.0</ele>
    <time>2026-06-23T12:44:46Z</time>
   </trkpt>
   <trkpt lat="-3.1568260" lon="37.3670220">
    <ele>3077.0</ele>
    <time>2026-06-23T12:44:47Z</time>
   </trkpt>
   <trkpt lat="-3.1568260" lon="37.3670220">
    <ele>3077.0</ele>
    <time>2026-06-23T12:44:48Z</time>
   </trkpt>
   <trkpt lat="-3.1568260" lon="37.3670230">
    <ele>3077.0</ele>
    <time>2026-06-23T12:44:49Z</time>
   </trkpt>
   <trkpt lat="-3.1568270" lon="37.3670240">
    <ele>3077.0</ele>
    <time>2026-06-23T12:44:50Z</time>
   </trkpt>
   <trkpt lat="-3.1568240" lon="37.3670250">
    <ele>3077.0</ele>
    <time>2026-06-23T12:44:51Z</time>
   </trkpt>
   <trkpt lat="-3.1568240" lon="37.3670220">
    <ele>3077.0</ele>
    <time>2026-06-23T12:44:52Z</time>
   </trkpt>
   <trkpt lat="-3.1568240" lon="37.3670220">
    <ele>3077.0</ele>
    <time>2026-06-23T12:44:53Z</time>
   </trkpt>
   <trkpt lat="-3.1568240" lon="37.3670230">
    <ele>3077.0</ele>
    <time>2026-06-23T12:44:54Z</time>
   </trkpt>
   <trkpt lat="-3.1568250" lon="37.3670230">
    <ele>3077.0</ele>
    <time>2026-06-23T12:44:55Z</time>
   </trkpt>
   <trkpt lat="-3.1568230" lon="37.3670220">
    <ele>3076.9</ele>
    <time>2026-06-23T12:44:56Z</time>
   </trkpt>
   <trkpt lat="-3.1568210" lon="37.3670180">
    <ele>3076.9</ele>
    <time>2026-06-23T12:44:57Z</time>
   </trkpt>
   <trkpt lat="-3.1568250" lon="37.3670150">
    <ele>3076.9</ele>
    <time>2026-06-23T12:44:58Z</time>
   </trkpt>
   <trkpt lat="-3.1568280" lon="37.3670200">
    <ele>3076.9</ele>
    <time>2026-06-23T12:44:59Z</time>
   </trkpt>
   <trkpt lat="-3.1568260" lon="37.3670180">
    <ele>3076.8</ele>
    <time>2026-06-23T12:45:00Z</time>
   </trkpt>
   <trkpt lat="-3.1568250" lon="37.3670190">
    <ele>3076.8</ele>
    <time>2026-06-23T12:45:01Z</time>
   </trkpt>
   <trkpt lat="-3.1568250" lon="37.3670190">
    <ele>3076.8</ele>
    <time>2026-06-23T12:45:02Z</time>
   </trkpt>
   <trkpt lat="-3.1568270" lon="37.3670200">
    <ele>3076.8</ele>
    <time>2026-06-23T12:45:03Z</time>
   </trkpt>
   <trkpt lat="-3.1568280" lon="37.3670210">
    <ele>3076.8</ele>
    <time>2026-06-23T12:45:04Z</time>
   </trkpt>
   <trkpt lat="-3.1568280" lon="37.3670210">
    <ele>3076.8</ele>
    <time>2026-06-23T12:45:05Z</time>
   </trkpt>
   <trkpt lat="-3.1568290" lon="37.3670210">
    <ele>3076.8</ele>
    <time>2026-06-23T12:45:06Z</time>
   </trkpt>
   <trkpt lat="-3.1568300" lon="37.3670220">
    <ele>3076.8</ele>
    <time>2026-06-23T12:45:07Z</time>
   </trkpt>
   <trkpt lat="-3.1568290" lon="37.3670200">
    <ele>3076.8</ele>
    <time>2026-06-23T12:45:08Z</time>
   </trkpt>
   <trkpt lat="-3.1568280" lon="37.3670200">
    <ele>3076.8</ele>
    <time>2026-06-23T12:45:09Z</time>
   </trkpt>
   <trkpt lat="-3.1568270" lon="37.3670210">
    <ele>3076.8</ele>
    <time>2026-06-23T12:45:10Z</time>
   </trkpt>
   <trkpt lat="-3.1568310" lon="37.3670210">
    <ele>3076.8</ele>
    <time>2026-06-23T12:45:11Z</time>
   </trkpt>
   <trkpt lat="-3.1568340" lon="37.3670230">
    <ele>3076.7</ele>
    <time>2026-06-23T12:45:12Z</time>
   </trkpt>
   <trkpt lat="-3.1568350" lon="37.3670270">
    <ele>3076.7</ele>
    <time>2026-06-23T12:45:13Z</time>
   </trkpt>
   <trkpt lat="-3.1568390" lon="37.3670340">
    <ele>3076.7</ele>
    <time>2026-06-23T12:45:14Z</time>
   </trkpt>
   <trkpt lat="-3.1568390" lon="37.3670380">
    <ele>3076.7</ele>
    <time>2026-06-23T12:45:15Z</time>
   </trkpt>
   <trkpt lat="-3.1568360" lon="37.3670350">
    <ele>3076.6</ele>
    <time>2026-06-23T12:45:16Z</time>
   </trkpt>
   <trkpt lat="-3.1568340" lon="37.3670350">
    <ele>3076.6</ele>
    <time>2026-06-23T12:45:17Z</time>
   </trkpt>
   <trkpt lat="-3.1568340" lon="37.3670340">
    <ele>3076.6</ele>
    <time>2026-06-23T12:45:18Z</time>
   </trkpt>
   <trkpt lat="-3.1568340" lon="37.3670340">
    <ele>3076.6</ele>
    <time>2026-06-23T12:45:19Z</time>
   </trkpt>
   <trkpt lat="-3.1568340" lon="37.3670330">
    <ele>3076.6</ele>
    <time>2026-06-23T12:45:20Z</time>
   </trkpt>
   <trkpt lat="-3.1568340" lon="37.3670330">
    <ele>3076.6</ele>
    <time>2026-06-23T12:45:21Z</time>
   </trkpt>
   <trkpt lat="-3.1568340" lon="37.3670330">
    <ele>3076.6</ele>
    <time>2026-06-23T12:45:22Z</time>
   </trkpt>
   <trkpt lat="-3.1568340" lon="37.3670330">
    <ele>3076.6</ele>
    <time>2026-06-23T12:45:23Z</time>
   </trkpt>
   <trkpt lat="-3.1568340" lon="37.3670330">
    <ele>3076.6</ele>
    <time>2026-06-23T12:45:24Z</time>
   </trkpt>
   <trkpt lat="-3.1568360" lon="37.3670360">
    <ele>3076.6</ele>
    <time>2026-06-23T12:45:25Z</time>
   </trkpt>
   <trkpt lat="-3.1568360" lon="37.3670360">
    <ele>3076.6</ele>
    <time>2026-06-23T12:45:26Z</time>
   </trkpt>
   <trkpt lat="-3.1568360" lon="37.3670360">
    <ele>3076.6</ele>
    <time>2026-06-23T12:45:27Z</time>
   </trkpt>
   <trkpt lat="-3.1568360" lon="37.3670360">
    <ele>3076.6</ele>
    <time>2026-06-23T12:45:28Z</time>
   </trkpt>
   <trkpt lat="-3.1568360" lon="37.3670360">
    <ele>3076.6</ele>
    <time>2026-06-23T12:45:29Z</time>
   </trkpt>
   <trkpt lat="-3.1568360" lon="37.3670390">
    <ele>3076.6</ele>
    <time>2026-06-23T12:45:30Z</time>
   </trkpt>
   <trkpt lat="-3.1568360" lon="37.3670390">
    <ele>3076.6</ele>
    <time>2026-06-23T12:45:31Z</time>
   </trkpt>
   <trkpt lat="-3.1568360" lon="37.3670380">
    <ele>3076.6</ele>
    <time>2026-06-23T12:45:32Z</time>
   </trkpt>
   <trkpt lat="-3.1568350" lon="37.3670380">
    <ele>3076.6</ele>
    <time>2026-06-23T12:45:33Z</time>
   </trkpt>
   <trkpt lat="-3.1568360" lon="37.3670380">
    <ele>3076.6</ele>
    <time>2026-06-23T12:45:34Z</time>
   </trkpt>
   <trkpt lat="-3.1568360" lon="37.3670380">
    <ele>3076.6</ele>
    <time>2026-06-23T12:45:35Z</time>
   </trkpt>
   <trkpt lat="-3.1568360" lon="37.3670350">
    <ele>3076.5</ele>
    <time>2026-06-23T12:45:36Z</time>
   </trkpt>
   <trkpt lat="-3.1568360" lon="37.3670330">
    <ele>3076.5</ele>
    <time>2026-06-23T12:45:37Z</time>
   </trkpt>
   <trkpt lat="-3.1568380" lon="37.3670350">
    <ele>3076.5</ele>
    <time>2026-06-23T12:45:38Z</time>
   </trkpt>
   <trkpt lat="-3.1568380" lon="37.3670340">
    <ele>3076.5</ele>
    <time>2026-06-23T12:45:39Z</time>
   </trkpt>
   <trkpt lat="-3.1568380" lon="37.3670340">
    <ele>3076.5</ele>
    <time>2026-06-23T12:45:40Z</time>
   </trkpt>
   <trkpt lat="-3.1568390" lon="37.3670330">
    <ele>3076.5</ele>
    <time>2026-06-23T12:45:41Z</time>
   </trkpt>
   <trkpt lat="-3.1568390" lon="37.3670330">
    <ele>3076.5</ele>
    <time>2026-06-23T12:45:42Z</time>
   </trkpt>
   <trkpt lat="-3.1568390" lon="37.3670310">
    <ele>3076.5</ele>
    <time>2026-06-23T12:45:43Z</time>
   </trkpt>
   <trkpt lat="-3.1568390" lon="37.3670310">
    <ele>3076.5</ele>
    <time>2026-06-23T12:45:44Z</time>
   </trkpt>
   <trkpt lat="-3.1568390" lon="37.3670310">
    <ele>3076.5</ele>
    <time>2026-06-23T12:45:45Z</time>
   </trkpt>
   <trkpt lat="-3.1568400" lon="37.3670300">
    <ele>3076.5</ele>
    <time>2026-06-23T12:45:46Z</time>
   </trkpt>
   <trkpt lat="-3.1568400" lon="37.3670290">
    <ele>3076.5</ele>
    <time>2026-06-23T12:45:47Z</time>
   </trkpt>
   <trkpt lat="-3.1568400" lon="37.3670280">
    <ele>3076.5</ele>
    <time>2026-06-23T12:45:48Z</time>
   </trkpt>
   <trkpt lat="-3.1568400" lon="37.3670290">
    <ele>3076.5</ele>
    <time>2026-06-23T12:45:49Z</time>
   </trkpt>
   <trkpt lat="-3.1568390" lon="37.3670290">
    <ele>3076.5</ele>
    <time>2026-06-23T12:45:50Z</time>
   </trkpt>
   <trkpt lat="-3.1568380" lon="37.3670290">
    <ele>3076.5</ele>
    <time>2026-06-23T12:45:51Z</time>
   </trkpt>
   <trkpt lat="-3.1568390" lon="37.3670290">
    <ele>3076.5</ele>
    <time>2026-06-23T12:45:52Z</time>
   </trkpt>
   <trkpt lat="-3.1568390" lon="37.3670290">
    <ele>3076.5</ele>
    <time>2026-06-23T12:45:53Z</time>
   </trkpt>
   <trkpt lat="-3.1568390" lon="37.3670290">
    <ele>3076.5</ele>
    <time>2026-06-23T12:45:54Z</time>
   </trkpt>
   <trkpt lat="-3.1568380" lon="37.3670350">
    <ele>3076.4</ele>
    <time>2026-06-23T12:45:55Z</time>
   </trkpt>
   <trkpt lat="-3.1568400" lon="37.3670390">
    <ele>3076.4</ele>
    <time>2026-06-23T12:45:56Z</time>
   </trkpt>
   <trkpt lat="-3.1568380" lon="37.3670380">
    <ele>3076.4</ele>
    <time>2026-06-23T12:45:57Z</time>
   </trkpt>
   <trkpt lat="-3.1568370" lon="37.3670370">
    <ele>3076.4</ele>
    <time>2026-06-23T12:45:58Z</time>
   </trkpt>
   <trkpt lat="-3.1568370" lon="37.3670370">
    <ele>3076.4</ele>
    <time>2026-06-23T12:45:59Z</time>
   </trkpt>
   <trkpt lat="-3.1568390" lon="37.3670350">
    <ele>3076.4</ele>
    <time>2026-06-23T12:46:00Z</time>
   </trkpt>
   <trkpt lat="-3.1568390" lon="37.3670340">
    <ele>3076.4</ele>
    <time>2026-06-23T12:46:01Z</time>
   </trkpt>
   <trkpt lat="-3.1568370" lon="37.3670330">
    <ele>3076.3</ele>
    <time>2026-06-23T12:46:02Z</time>
   </trkpt>
   <trkpt lat="-3.1568380" lon="37.3670320">
    <ele>3076.3</ele>
    <time>2026-06-23T12:46:03Z</time>
   </trkpt>
   <trkpt lat="-3.1568410" lon="37.3670320">
    <ele>3076.3</ele>
    <time>2026-06-23T12:46:04Z</time>
   </trkpt>
   <trkpt lat="-3.1568400" lon="37.3670330">
    <ele>3076.3</ele>
    <time>2026-06-23T12:46:05Z</time>
   </trkpt>
   <trkpt lat="-3.1568390" lon="37.3670330">
    <ele>3076.3</ele>
    <time>2026-06-23T12:46:06Z</time>
   </trkpt>
   <trkpt lat="-3.1568390" lon="37.3670340">
    <ele>3076.3</ele>
    <time>2026-06-23T12:46:07Z</time>
   </trkpt>
   <trkpt lat="-3.1568400" lon="37.3670330">
    <ele>3076.3</ele>
    <time>2026-06-23T12:46:08Z</time>
   </trkpt>
   <trkpt lat="-3.1568390" lon="37.3670330">
    <ele>3076.3</ele>
    <time>2026-06-23T12:46:09Z</time>
   </trkpt>
   <trkpt lat="-3.1568400" lon="37.3670320">
    <ele>3076.3</ele>
    <time>2026-06-23T12:46:10Z</time>
   </trkpt>
   <trkpt lat="-3.1568400" lon="37.3670320">
    <ele>3076.3</ele>
    <time>2026-06-23T12:46:11Z</time>
   </trkpt>
   <trkpt lat="-3.1568400" lon="37.3670320">
    <ele>3076.3</ele>
    <time>2026-06-23T12:46:12Z</time>
   </trkpt>
   <trkpt lat="-3.1568400" lon="37.3670320">
    <ele>3076.3</ele>
    <time>2026-06-23T12:46:13Z</time>
   </trkpt>
   <trkpt lat="-3.1568410" lon="37.3670350">
    <ele>3076.3</ele>
    <time>2026-06-23T12:46:14Z</time>
   </trkpt>
   <trkpt lat="-3.1568410" lon="37.3670340">
    <ele>3076.3</ele>
    <time>2026-06-23T12:46:15Z</time>
   </trkpt>
   <trkpt lat="-3.1568410" lon="37.3670340">
    <ele>3076.3</ele>
    <time>2026-06-23T12:46:16Z</time>
   </trkpt>
   <trkpt lat="-3.1568410" lon="37.3670370">
    <ele>3076.3</ele>
    <time>2026-06-23T12:46:17Z</time>
   </trkpt>
   <trkpt lat="-3.1568410" lon="37.3670370">
    <ele>3076.3</ele>
    <time>2026-06-23T12:46:18Z</time>
   </trkpt>
   <trkpt lat="-3.1568410" lon="37.3670370">
    <ele>3076.3</ele>
    <time>2026-06-23T12:46:19Z</time>
   </trkpt>
   <trkpt lat="-3.1568410" lon="37.3670370">
    <ele>3076.3</ele>
    <time>2026-06-23T12:46:20Z</time>
   </trkpt>
   <trkpt lat="-3.1568410" lon="37.3670370">
    <ele>3076.3</ele>
    <time>2026-06-23T12:46:21Z</time>
   </trkpt>
   <trkpt lat="-3.1568410" lon="37.3670370">
    <ele>3076.3</ele>
    <time>2026-06-23T12:46:22Z</time>
   </trkpt>
   <trkpt lat="-3.1568410" lon="37.3670370">
    <ele>3076.3</ele>
    <time>2026-06-23T12:46:23Z</time>
   </trkpt>
   <trkpt lat="-3.1568410" lon="37.3670370">
    <ele>3076.3</ele>
    <time>2026-06-23T12:46:24Z</time>
   </trkpt>
   <trkpt lat="-3.1568410" lon="37.3670370">
    <ele>3076.3</ele>
    <time>2026-06-23T12:46:25Z</time>
   </trkpt>
   <trkpt lat="-3.1568400" lon="37.3670410">
    <ele>3076.2</ele>
    <time>2026-06-23T12:46:26Z</time>
   </trkpt>
   <trkpt lat="-3.1568400" lon="37.3670410">
    <ele>3076.2</ele>
    <time>2026-06-23T12:46:27Z</time>
   </trkpt>
   <trkpt lat="-3.1568390" lon="37.3670420">
    <ele>3076.2</ele>
    <time>2026-06-23T12:46:28Z</time>
   </trkpt>
   <trkpt lat="-3.1568400" lon="37.3670400">
    <ele>3076.2</ele>
    <time>2026-06-23T12:46:29Z</time>
   </trkpt>
   <trkpt lat="-3.1568400" lon="37.3670400">
    <ele>3076.2</ele>
    <time>2026-06-23T12:46:30Z</time>
   </trkpt>
   <trkpt lat="-3.1568390" lon="37.3670400">
    <ele>3076.2</ele>
    <time>2026-06-23T12:46:31Z</time>
   </trkpt>
   <trkpt lat="-3.1568390" lon="37.3670400">
    <ele>3076.2</ele>
    <time>2026-06-23T12:46:32Z</time>
   </trkpt>
   <trkpt lat="-3.1568380" lon="37.3670410">
    <ele>3076.2</ele>
    <time>2026-06-23T12:46:33Z</time>
   </trkpt>
   <trkpt lat="-3.1568380" lon="37.3670400">
    <ele>3076.2</ele>
    <time>2026-06-23T12:46:34Z</time>
   </trkpt>
   <trkpt lat="-3.1568380" lon="37.3670400">
    <ele>3076.2</ele>
    <time>2026-06-23T12:46:35Z</time>
   </trkpt>
   <trkpt lat="-3.1568380" lon="37.3670400">
    <ele>3076.2</ele>
    <time>2026-06-23T12:46:36Z</time>
   </trkpt>
   <trkpt lat="-3.1568380" lon="37.3670400">
    <ele>3076.2</ele>
    <time>2026-06-23T12:46:37Z</time>
   </trkpt>
   <trkpt lat="-3.1568380" lon="37.3670400">
    <ele>3076.2</ele>
    <time>2026-06-23T12:46:38Z</time>
   </trkpt>
   <trkpt lat="-3.1568390" lon="37.3670400">
    <ele>3076.2</ele>
    <time>2026-06-23T12:46:39Z</time>
   </trkpt>
   <trkpt lat="-3.1568380" lon="37.3670410">
    <ele>3076.2</ele>
    <time>2026-06-23T12:46:40Z</time>
   </trkpt>
   <trkpt lat="-3.1568390" lon="37.3670400">
    <ele>3076.2</ele>
    <time>2026-06-23T12:46:41Z</time>
   </trkpt>
   <trkpt lat="-3.1568390" lon="37.3670390">
    <ele>3076.2</ele>
    <time>2026-06-23T12:46:42Z</time>
   </trkpt>
   <trkpt lat="-3.1568390" lon="37.3670400">
    <ele>3076.2</ele>
    <time>2026-06-23T12:46:43Z</time>
   </trkpt>
   <trkpt lat="-3.1568400" lon="37.3670390">
    <ele>3076.2</ele>
    <time>2026-06-23T12:46:44Z</time>
   </trkpt>
   <trkpt lat="-3.1568400" lon="37.3670370">
    <ele>3076.1</ele>
    <time>2026-06-23T12:46:45Z</time>
   </trkpt>
   <trkpt lat="-3.1568390" lon="37.3670340">
    <ele>3076.1</ele>
    <time>2026-06-23T12:46:46Z</time>
   </trkpt>
   <trkpt lat="-3.1568410" lon="37.3670340">
    <ele>3076.1</ele>
    <time>2026-06-23T12:46:47Z</time>
   </trkpt>
   <trkpt lat="-3.1568420" lon="37.3670300">
    <ele>3076.1</ele>
    <time>2026-06-23T12:46:48Z</time>
   </trkpt>
   <trkpt lat="-3.1568410" lon="37.3670270">
    <ele>3076.1</ele>
    <time>2026-06-23T12:46:49Z</time>
   </trkpt>
   <trkpt lat="-3.1568370" lon="37.3670220">
    <ele>3076.1</ele>
    <time>2026-06-23T12:46:50Z</time>
   </trkpt>
   <trkpt lat="-3.1568310" lon="37.3670160">
    <ele>3076.0</ele>
    <time>2026-06-23T12:46:51Z</time>
   </trkpt>
   <trkpt lat="-3.1568300" lon="37.3670170">
    <ele>3076.0</ele>
    <time>2026-06-23T12:46:52Z</time>
   </trkpt>
   <trkpt lat="-3.1568310" lon="37.3670160">
    <ele>3076.0</ele>
    <time>2026-06-23T12:46:54Z</time>
   </trkpt>
   <trkpt lat="-3.1568300" lon="37.3670170">
    <ele>3076.0</ele>
    <time>2026-06-23T12:46:55Z</time>
   </trkpt>
   <trkpt lat="-3.1568300" lon="37.3670170">
    <ele>3076.0</ele>
    <time>2026-06-23T12:46:56Z</time>
   </trkpt>
   <trkpt lat="-3.1568290" lon="37.3670190">
    <ele>3076.0</ele>
    <time>2026-06-23T12:46:57Z</time>
   </trkpt>
   <trkpt lat="-3.1568270" lon="37.3670170">
    <ele>3076.0</ele>
    <time>2026-06-23T12:46:58Z</time>
   </trkpt>
   <trkpt lat="-3.1568280" lon="37.3670170">
    <ele>3076.0</ele>
    <time>2026-06-23T12:46:59Z</time>
   </trkpt>
   <trkpt lat="-3.1568260" lon="37.3670160">
    <ele>3075.9</ele>
    <time>2026-06-23T12:47:00Z</time>
   </trkpt>
   <trkpt lat="-3.1568250" lon="37.3670140">
    <ele>3075.9</ele>
    <time>2026-06-23T12:47:01Z</time>
   </trkpt>
   <trkpt lat="-3.1568210" lon="37.3670120">
    <ele>3075.9</ele>
    <time>2026-06-23T12:47:02Z</time>
   </trkpt>
   <trkpt lat="-3.1568190" lon="37.3670140">
    <ele>3075.9</ele>
    <time>2026-06-23T12:47:03Z</time>
   </trkpt>
   <trkpt lat="-3.1568100" lon="37.3670190">
    <ele>3075.8</ele>
    <time>2026-06-23T12:47:04Z</time>
   </trkpt>
   <trkpt lat="-3.1568140" lon="37.3670140">
    <ele>3075.8</ele>
    <time>2026-06-23T12:47:05Z</time>
   </trkpt>
   <trkpt lat="-3.1568060" lon="37.3670170">
    <ele>3075.8</ele>
    <time>2026-06-23T12:47:06Z</time>
   </trkpt>
   <trkpt lat="-3.1568120" lon="37.3670150">
    <ele>3075.7</ele>
    <time>2026-06-23T12:47:07Z</time>
   </trkpt>
   <trkpt lat="-3.1568110" lon="37.3670140">
    <ele>3075.7</ele>
    <time>2026-06-23T12:47:08Z</time>
   </trkpt>
   <trkpt lat="-3.1568100" lon="37.3670160">
    <ele>3075.7</ele>
    <time>2026-06-23T12:47:09Z</time>
   </trkpt>
   <trkpt lat="-3.1568080" lon="37.3670170">
    <ele>3075.7</ele>
    <time>2026-06-23T12:47:10Z</time>
   </trkpt>
   <trkpt lat="-3.1568110" lon="37.3670160">
    <ele>3075.7</ele>
    <time>2026-06-23T12:47:11Z</time>
   </trkpt>
   <trkpt lat="-3.1568110" lon="37.3670160">
    <ele>3075.7</ele>
    <time>2026-06-23T12:47:12Z</time>
   </trkpt>
   <trkpt lat="-3.1568090" lon="37.3670150">
    <ele>3075.7</ele>
    <time>2026-06-23T12:47:13Z</time>
   </trkpt>
   <trkpt lat="-3.1568090" lon="37.3670170">
    <ele>3075.7</ele>
    <time>2026-06-23T12:47:14Z</time>
   </trkpt>
   <trkpt lat="-3.1568130" lon="37.3670160">
    <ele>3075.7</ele>
    <time>2026-06-23T12:47:15Z</time>
   </trkpt>
   <trkpt lat="-3.1568120" lon="37.3670160">
    <ele>3075.6</ele>
    <time>2026-06-23T12:47:16Z</time>
   </trkpt>
   <trkpt lat="-3.1568130" lon="37.3670150">
    <ele>3075.6</ele>
    <time>2026-06-23T12:47:17Z</time>
   </trkpt>
   <trkpt lat="-3.1568150" lon="37.3670140">
    <ele>3075.6</ele>
    <time>2026-06-23T12:47:18Z</time>
   </trkpt>
   <trkpt lat="-3.1568160" lon="37.3670140">
    <ele>3075.6</ele>
    <time>2026-06-23T12:47:19Z</time>
   </trkpt>
   <trkpt lat="-3.1568140" lon="37.3670120">
    <ele>3075.6</ele>
    <time>2026-06-23T12:47:20Z</time>
   </trkpt>
   <trkpt lat="-3.1568120" lon="37.3670100">
    <ele>3075.6</ele>
    <time>2026-06-23T12:47:21Z</time>
   </trkpt>
   <trkpt lat="-3.1568170" lon="37.3670060">
    <ele>3075.6</ele>
    <time>2026-06-23T12:47:22Z</time>
   </trkpt>
   <trkpt lat="-3.1568130" lon="37.3670090">
    <ele>3075.5</ele>
    <time>2026-06-23T12:47:23Z</time>
   </trkpt>
   <trkpt lat="-3.1568170" lon="37.3670050">
    <ele>3075.5</ele>
    <time>2026-06-23T12:47:24Z</time>
   </trkpt>
   <trkpt lat="-3.1568170" lon="37.3670060">
    <ele>3075.5</ele>
    <time>2026-06-23T12:47:25Z</time>
   </trkpt>
   <trkpt lat="-3.1568180" lon="37.3670040">
    <ele>3075.5</ele>
    <time>2026-06-23T12:47:26Z</time>
   </trkpt>
   <trkpt lat="-3.1568190" lon="37.3670040">
    <ele>3075.5</ele>
    <time>2026-06-23T12:47:27Z</time>
   </trkpt>
   <trkpt lat="-3.1568200" lon="37.3670050">
    <ele>3075.5</ele>
    <time>2026-06-23T12:47:28Z</time>
   </trkpt>
   <trkpt lat="-3.1568210" lon="37.3670070">
    <ele>3075.5</ele>
    <time>2026-06-23T12:47:29Z</time>
   </trkpt>
   <trkpt lat="-3.1568250" lon="37.3670060">
    <ele>3075.4</ele>
    <time>2026-06-23T12:47:30Z</time>
   </trkpt>
   <trkpt lat="-3.1568110" lon="37.3669830">
    <ele>3075.3</ele>
    <time>2026-06-23T12:47:31Z</time>
   </trkpt>
   <trkpt lat="-3.1568230" lon="37.3670070">
    <ele>3075.2</ele>
    <time>2026-06-23T12:47:32Z</time>
   </trkpt>
   <trkpt lat="-3.1568230" lon="37.3670070">
    <ele>3075.2</ele>
    <time>2026-06-23T12:47:33Z</time>
   </trkpt>
   <trkpt lat="-3.1568240" lon="37.3670080">
    <ele>3075.2</ele>
    <time>2026-06-23T12:47:34Z</time>
   </trkpt>
   <trkpt lat="-3.1568250" lon="37.3670080">
    <ele>3075.2</ele>
    <time>2026-06-23T12:47:35Z</time>
   </trkpt>
   <trkpt lat="-3.1568250" lon="37.3670080">
    <ele>3075.2</ele>
    <time>2026-06-23T12:47:36Z</time>
   </trkpt>
   <trkpt lat="-3.1568250" lon="37.3670080">
    <ele>3075.2</ele>
    <time>2026-06-23T12:47:37Z</time>
   </trkpt>
   <trkpt lat="-3.1568260" lon="37.3670090">
    <ele>3075.2</ele>
    <time>2026-06-23T12:47:38Z</time>
   </trkpt>
   <trkpt lat="-3.1568250" lon="37.3670110">
    <ele>3075.1</ele>
    <time>2026-06-23T12:47:39Z</time>
   </trkpt>
   <trkpt lat="-3.1568260" lon="37.3670120">
    <ele>3075.1</ele>
    <time>2026-06-23T12:47:40Z</time>
   </trkpt>
   <trkpt lat="-3.1568260" lon="37.3670120">
    <ele>3075.1</ele>
    <time>2026-06-23T12:47:41Z</time>
   </trkpt>
   <trkpt lat="-3.1568220" lon="37.3670110">
    <ele>3075.1</ele>
    <time>2026-06-23T12:47:42Z</time>
   </trkpt>
   <trkpt lat="-3.1568220" lon="37.3670110">
    <ele>3075.1</ele>
    <time>2026-06-23T12:47:43Z</time>
   </trkpt>
   <trkpt lat="-3.1568220" lon="37.3670120">
    <ele>3075.1</ele>
    <time>2026-06-23T12:47:44Z</time>
   </trkpt>
   <trkpt lat="-3.1568220" lon="37.3670120">
    <ele>3075.1</ele>
    <time>2026-06-23T12:47:45Z</time>
   </trkpt>
   <trkpt lat="-3.1568220" lon="37.3670120">
    <ele>3075.1</ele>
    <time>2026-06-23T12:47:46Z</time>
   </trkpt>
   <trkpt lat="-3.1568210" lon="37.3670130">
    <ele>3075.1</ele>
    <time>2026-06-23T12:47:47Z</time>
   </trkpt>
   <trkpt lat="-3.1568210" lon="37.3670130">
    <ele>3075.1</ele>
    <time>2026-06-23T12:47:48Z</time>
   </trkpt>
   <trkpt lat="-3.1568220" lon="37.3670130">
    <ele>3075.1</ele>
    <time>2026-06-23T12:47:49Z</time>
   </trkpt>
   <trkpt lat="-3.1568210" lon="37.3670120">
    <ele>3075.1</ele>
    <time>2026-06-23T12:47:50Z</time>
   </trkpt>
   <trkpt lat="-3.1568220" lon="37.3670110">
    <ele>3075.1</ele>
    <time>2026-06-23T12:47:51Z</time>
   </trkpt>
   <trkpt lat="-3.1568250" lon="37.3670120">
    <ele>3075.1</ele>
    <time>2026-06-23T12:47:52Z</time>
   </trkpt>
  </trkseg>
 </trk>
</gpx>
